<?xml version="1.0" encoding="UTF-8" standalone="no" ?>
<gpx xmlns="http://www.topografix.com/GPX/1/1" xmlns:xsi="http://www.w3.org/2001/XMLSchema-instance" xsi:schemaLocation="http://www.topografix.com/GPX/1/1 http://www.topografix.com/GPX/1/1/gpx.xsd" version="1.1" creator="VisuGPX - https://www.visugpx.com">
  <metadata>
    <name>Balade ASV VTT 2016-12-04</name>
    <desc><![CDATA[12 Guerrier (e) s sur les chemins de Sologne.

Temps très frais avec -1°c au départ.]]></desc>
  </metadata>
  <trk>
    <name><![CDATA[Balade ASV VTT 2016-12-04_1]]></name>
    <trkseg>
      <trkpt lat="47.80175" lon="2.13614">
        <ele>105</ele>
        <time>2016-12-04T07:46:16.253Z</time>
      </trkpt>
      <trkpt lat="47.80175" lon="2.13614">
        <ele>105</ele>
        <time>2016-12-04T07:46:17.271Z</time>
      </trkpt>
      <trkpt lat="47.80175" lon="2.13614">
        <ele>105</ele>
        <time>2016-12-04T07:46:18.264Z</time>
      </trkpt>
      <trkpt lat="47.80175" lon="2.13614">
        <ele>105</ele>
        <time>2016-12-04T07:46:19.254Z</time>
      </trkpt>
      <trkpt lat="47.80174" lon="2.13615">
        <ele>91</ele>
        <time>2016-12-04T07:46:20.267Z</time>
      </trkpt>
      <trkpt lat="47.80174" lon="2.13615">
        <ele>91</ele>
        <time>2016-12-04T07:46:21.274Z</time>
      </trkpt>
      <trkpt lat="47.80174" lon="2.1361">
        <ele>91</ele>
        <time>2016-12-04T07:46:22.261Z</time>
      </trkpt>
      <trkpt lat="47.80174" lon="2.13608">
        <ele>91</ele>
        <time>2016-12-04T07:46:23.260Z</time>
      </trkpt>
      <trkpt lat="47.80174" lon="2.13608">
        <ele>91</ele>
        <time>2016-12-04T07:46:24.254Z</time>
      </trkpt>
      <trkpt lat="47.80171" lon="2.13606">
        <ele>90</ele>
        <time>2016-12-04T07:46:25.260Z</time>
      </trkpt>
      <trkpt lat="47.80171" lon="2.13606">
        <ele>90</ele>
        <time>2016-12-04T07:46:26.255Z</time>
      </trkpt>
      <trkpt lat="47.80167" lon="2.1361">
        <ele>90</ele>
        <time>2016-12-04T07:46:27.261Z</time>
      </trkpt>
      <trkpt lat="47.80166" lon="2.13613">
        <ele>90</ele>
        <time>2016-12-04T07:46:28.262Z</time>
      </trkpt>
      <trkpt lat="47.80166" lon="2.13613">
        <ele>90</ele>
        <time>2016-12-04T07:46:29.253Z</time>
      </trkpt>
      <trkpt lat="47.80163" lon="2.13619">
        <ele>90</ele>
        <time>2016-12-04T07:46:30.260Z</time>
      </trkpt>
      <trkpt lat="47.80163" lon="2.13619">
        <ele>90</ele>
        <time>2016-12-04T07:46:31.254Z</time>
      </trkpt>
      <trkpt lat="47.8016" lon="2.13626">
        <ele>90</ele>
        <time>2016-12-04T07:46:32.261Z</time>
      </trkpt>
      <trkpt lat="47.8016" lon="2.13626">
        <ele>90</ele>
        <time>2016-12-04T07:46:33.254Z</time>
      </trkpt>
      <trkpt lat="47.80158" lon="2.13633">
        <ele>89</ele>
        <time>2016-12-04T07:46:34.273Z</time>
      </trkpt>
      <trkpt lat="47.80156" lon="2.13636">
        <ele>89</ele>
        <time>2016-12-04T07:46:35.268Z</time>
      </trkpt>
      <trkpt lat="47.80156" lon="2.13636">
        <ele>89</ele>
        <time>2016-12-04T07:46:36.260Z</time>
      </trkpt>
      <trkpt lat="47.80154" lon="2.13645">
        <ele>89</ele>
        <time>2016-12-04T07:46:37.259Z</time>
      </trkpt>
      <trkpt lat="47.80154" lon="2.13645">
        <ele>89</ele>
        <time>2016-12-04T07:46:38.266Z</time>
      </trkpt>
      <trkpt lat="47.8015" lon="2.13652">
        <ele>88</ele>
        <time>2016-12-04T07:46:39.258Z</time>
      </trkpt>
      <trkpt lat="47.80148" lon="2.13655">
        <ele>88</ele>
        <time>2016-12-04T07:46:40.259Z</time>
      </trkpt>
      <trkpt lat="47.80148" lon="2.13655">
        <ele>88</ele>
        <time>2016-12-04T07:46:41.252Z</time>
      </trkpt>
      <trkpt lat="47.80141" lon="2.13655">
        <ele>89</ele>
        <time>2016-12-04T07:46:42.259Z</time>
      </trkpt>
      <trkpt lat="47.80141" lon="2.13655">
        <ele>89</ele>
        <time>2016-12-04T07:46:43.254Z</time>
      </trkpt>
      <trkpt lat="47.80135" lon="2.13652">
        <ele>89</ele>
        <time>2016-12-04T07:46:44.269Z</time>
      </trkpt>
      <trkpt lat="47.80132" lon="2.1365">
        <ele>89</ele>
        <time>2016-12-04T07:46:45.274Z</time>
      </trkpt>
      <trkpt lat="47.80132" lon="2.1365">
        <ele>89</ele>
        <time>2016-12-04T07:46:46.272Z</time>
      </trkpt>
      <trkpt lat="47.80125" lon="2.13646">
        <ele>90</ele>
        <time>2016-12-04T07:46:47.265Z</time>
      </trkpt>
      <trkpt lat="47.80125" lon="2.13646">
        <ele>90</ele>
        <time>2016-12-04T07:46:48.259Z</time>
      </trkpt>
      <trkpt lat="47.80119" lon="2.13642">
        <ele>91</ele>
        <time>2016-12-04T07:46:49.272Z</time>
      </trkpt>
      <trkpt lat="47.80117" lon="2.1364">
        <ele>92</ele>
        <time>2016-12-04T07:46:50.269Z</time>
      </trkpt>
      <trkpt lat="47.80117" lon="2.1364">
        <ele>92</ele>
        <time>2016-12-04T07:46:51.265Z</time>
      </trkpt>
      <trkpt lat="47.80111" lon="2.13637">
        <ele>93</ele>
        <time>2016-12-04T07:46:52.260Z</time>
      </trkpt>
      <trkpt lat="47.80108" lon="2.13635">
        <ele>93</ele>
        <time>2016-12-04T07:46:53.259Z</time>
      </trkpt>
      <trkpt lat="47.80108" lon="2.13635">
        <ele>93</ele>
        <time>2016-12-04T07:46:54.253Z</time>
      </trkpt>
      <trkpt lat="47.80102" lon="2.13633">
        <ele>94</ele>
        <time>2016-12-04T07:46:55.270Z</time>
      </trkpt>
      <trkpt lat="47.80099" lon="2.13632">
        <ele>94</ele>
        <time>2016-12-04T07:46:56.260Z</time>
      </trkpt>
      <trkpt lat="47.80099" lon="2.13632">
        <ele>94</ele>
        <time>2016-12-04T07:46:57.254Z</time>
      </trkpt>
      <trkpt lat="47.80093" lon="2.13629">
        <ele>94</ele>
        <time>2016-12-04T07:46:58.257Z</time>
      </trkpt>
      <trkpt lat="47.80093" lon="2.13629">
        <ele>94</ele>
        <time>2016-12-04T07:46:59.259Z</time>
      </trkpt>
      <trkpt lat="47.80087" lon="2.13627">
        <ele>94</ele>
        <time>2016-12-04T07:47:00.262Z</time>
      </trkpt>
      <trkpt lat="47.80084" lon="2.13626">
        <ele>94</ele>
        <time>2016-12-04T07:47:01.259Z</time>
      </trkpt>
      <trkpt lat="47.80082" lon="2.13628">
        <ele>93</ele>
        <time>2016-12-04T07:47:02.260Z</time>
      </trkpt>
      <trkpt lat="47.80082" lon="2.13628">
        <ele>93</ele>
        <time>2016-12-04T07:47:03.254Z</time>
      </trkpt>
      <trkpt lat="47.80079" lon="2.13635">
        <ele>93</ele>
        <time>2016-12-04T07:47:04.264Z</time>
      </trkpt>
      <trkpt lat="47.80079" lon="2.13635">
        <ele>93</ele>
        <time>2016-12-04T07:47:05.257Z</time>
      </trkpt>
      <trkpt lat="47.80078" lon="2.13645">
        <ele>94</ele>
        <time>2016-12-04T07:47:06.259Z</time>
      </trkpt>
      <trkpt lat="47.80077" lon="2.13652">
        <ele>94</ele>
        <time>2016-12-04T07:47:07.259Z</time>
      </trkpt>
      <trkpt lat="47.80077" lon="2.13658">
        <ele>95</ele>
        <time>2016-12-04T07:47:08.261Z</time>
      </trkpt>
      <trkpt lat="47.80077" lon="2.13658">
        <ele>95</ele>
        <time>2016-12-04T07:47:09.260Z</time>
      </trkpt>
      <trkpt lat="47.80077" lon="2.13672">
        <ele>95</ele>
        <time>2016-12-04T07:47:10.259Z</time>
      </trkpt>
      <trkpt lat="47.80077" lon="2.13679">
        <ele>96</ele>
        <time>2016-12-04T07:47:11.274Z</time>
      </trkpt>
      <trkpt lat="47.80077" lon="2.13679">
        <ele>96</ele>
        <time>2016-12-04T07:47:12.274Z</time>
      </trkpt>
      <trkpt lat="47.80076" lon="2.13693">
        <ele>96</ele>
        <time>2016-12-04T07:47:13.266Z</time>
      </trkpt>
      <trkpt lat="47.80076" lon="2.13693">
        <ele>96</ele>
        <time>2016-12-04T07:47:14.261Z</time>
      </trkpt>
      <trkpt lat="47.80075" lon="2.13707">
        <ele>96</ele>
        <time>2016-12-04T07:47:15.257Z</time>
      </trkpt>
      <trkpt lat="47.80074" lon="2.13714">
        <ele>96</ele>
        <time>2016-12-04T07:47:16.273Z</time>
      </trkpt>
      <trkpt lat="47.80074" lon="2.13714">
        <ele>96</ele>
        <time>2016-12-04T07:47:17.267Z</time>
      </trkpt>
      <trkpt lat="47.80073" lon="2.13728">
        <ele>96</ele>
        <time>2016-12-04T07:47:18.259Z</time>
      </trkpt>
      <trkpt lat="47.80073" lon="2.13728">
        <ele>96</ele>
        <time>2016-12-04T07:47:19.257Z</time>
      </trkpt>
      <trkpt lat="47.80072" lon="2.13742">
        <ele>97</ele>
        <time>2016-12-04T07:47:20.260Z</time>
      </trkpt>
      <trkpt lat="47.80072" lon="2.13742">
        <ele>97</ele>
        <time>2016-12-04T07:47:21.254Z</time>
      </trkpt>
      <trkpt lat="47.80071" lon="2.13757">
        <ele>99</ele>
        <time>2016-12-04T07:47:22.259Z</time>
      </trkpt>
      <trkpt lat="47.80071" lon="2.13757">
        <ele>99</ele>
        <time>2016-12-04T07:47:23.262Z</time>
      </trkpt>
      <trkpt lat="47.8007" lon="2.13772">
        <ele>99</ele>
        <time>2016-12-04T07:47:24.266Z</time>
      </trkpt>
      <trkpt lat="47.80069" lon="2.1378">
        <ele>99</ele>
        <time>2016-12-04T07:47:25.260Z</time>
      </trkpt>
      <trkpt lat="47.80069" lon="2.13787">
        <ele>99</ele>
        <time>2016-12-04T07:47:26.260Z</time>
      </trkpt>
      <trkpt lat="47.80069" lon="2.13795">
        <ele>99</ele>
        <time>2016-12-04T07:47:27.257Z</time>
      </trkpt>
      <trkpt lat="47.80069" lon="2.13795">
        <ele>99</ele>
        <time>2016-12-04T07:47:28.254Z</time>
      </trkpt>
      <trkpt lat="47.80068" lon="2.1381">
        <ele>100</ele>
        <time>2016-12-04T07:47:29.263Z</time>
      </trkpt>
      <trkpt lat="47.80068" lon="2.13817">
        <ele>100</ele>
        <time>2016-12-04T07:47:30.259Z</time>
      </trkpt>
      <trkpt lat="47.80068" lon="2.13817">
        <ele>100</ele>
        <time>2016-12-04T07:47:31.254Z</time>
      </trkpt>
      <trkpt lat="47.80067" lon="2.13832">
        <ele>101</ele>
        <time>2016-12-04T07:47:32.260Z</time>
      </trkpt>
      <trkpt lat="47.80067" lon="2.13832">
        <ele>101</ele>
        <time>2016-12-04T07:47:33.254Z</time>
      </trkpt>
      <trkpt lat="47.80067" lon="2.13847">
        <ele>101</ele>
        <time>2016-12-04T07:47:34.252Z</time>
      </trkpt>
      <trkpt lat="47.80067" lon="2.13854">
        <ele>102</ele>
        <time>2016-12-04T07:47:35.260Z</time>
      </trkpt>
      <trkpt lat="47.80067" lon="2.13854">
        <ele>102</ele>
        <time>2016-12-04T07:47:36.256Z</time>
      </trkpt>
      <trkpt lat="47.80067" lon="2.13869">
        <ele>102</ele>
        <time>2016-12-04T07:47:37.270Z</time>
      </trkpt>
      <trkpt lat="47.80067" lon="2.13877">
        <ele>102</ele>
        <time>2016-12-04T07:47:38.261Z</time>
      </trkpt>
      <trkpt lat="47.80067" lon="2.13884">
        <ele>102</ele>
        <time>2016-12-04T07:47:39.264Z</time>
      </trkpt>
      <trkpt lat="47.80067" lon="2.13884">
        <ele>102</ele>
        <time>2016-12-04T07:47:40.260Z</time>
      </trkpt>
      <trkpt lat="47.80065" lon="2.13898">
        <ele>102</ele>
        <time>2016-12-04T07:47:41.259Z</time>
      </trkpt>
      <trkpt lat="47.80063" lon="2.13905">
        <ele>102</ele>
        <time>2016-12-04T07:47:42.261Z</time>
      </trkpt>
      <trkpt lat="47.80063" lon="2.13905">
        <ele>102</ele>
        <time>2016-12-04T07:47:43.254Z</time>
      </trkpt>
      <trkpt lat="47.80059" lon="2.13919">
        <ele>103</ele>
        <time>2016-12-04T07:47:44.254Z</time>
      </trkpt>
      <trkpt lat="47.80057" lon="2.13926">
        <ele>103</ele>
        <time>2016-12-04T07:47:45.261Z</time>
      </trkpt>
      <trkpt lat="47.80057" lon="2.13926">
        <ele>103</ele>
        <time>2016-12-04T07:47:46.255Z</time>
      </trkpt>
      <trkpt lat="47.80053" lon="2.13941">
        <ele>103</ele>
        <time>2016-12-04T07:47:47.260Z</time>
      </trkpt>
      <trkpt lat="47.80051" lon="2.13948">
        <ele>103</ele>
        <time>2016-12-04T07:47:48.260Z</time>
      </trkpt>
      <trkpt lat="47.80051" lon="2.13948">
        <ele>103</ele>
        <time>2016-12-04T07:47:49.261Z</time>
      </trkpt>
      <trkpt lat="47.80048" lon="2.13962">
        <ele>102</ele>
        <time>2016-12-04T07:47:50.260Z</time>
      </trkpt>
      <trkpt lat="47.80046" lon="2.13969">
        <ele>102</ele>
        <time>2016-12-04T07:47:51.260Z</time>
      </trkpt>
      <trkpt lat="47.80046" lon="2.13969">
        <ele>102</ele>
        <time>2016-12-04T07:47:52.251Z</time>
      </trkpt>
      <trkpt lat="47.80043" lon="2.13983">
        <ele>102</ele>
        <time>2016-12-04T07:47:53.260Z</time>
      </trkpt>
      <trkpt lat="47.80043" lon="2.13983">
        <ele>102</ele>
        <time>2016-12-04T07:47:54.261Z</time>
      </trkpt>
      <trkpt lat="47.80039" lon="2.13997">
        <ele>101</ele>
        <time>2016-12-04T07:47:55.261Z</time>
      </trkpt>
      <trkpt lat="47.80039" lon="2.13997">
        <ele>101</ele>
        <time>2016-12-04T07:47:56.258Z</time>
      </trkpt>
      <trkpt lat="47.80036" lon="2.14011">
        <ele>102</ele>
        <time>2016-12-04T07:47:57.259Z</time>
      </trkpt>
      <trkpt lat="47.80036" lon="2.14011">
        <ele>102</ele>
        <time>2016-12-04T07:47:58.254Z</time>
      </trkpt>
      <trkpt lat="47.80032" lon="2.14025">
        <ele>102</ele>
        <time>2016-12-04T07:47:59.267Z</time>
      </trkpt>
      <trkpt lat="47.8003" lon="2.14032">
        <ele>103</ele>
        <time>2016-12-04T07:48:00.265Z</time>
      </trkpt>
      <trkpt lat="47.8003" lon="2.14032">
        <ele>103</ele>
        <time>2016-12-04T07:48:01.254Z</time>
      </trkpt>
      <trkpt lat="47.80026" lon="2.14046">
        <ele>103</ele>
        <time>2016-12-04T07:48:02.261Z</time>
      </trkpt>
      <trkpt lat="47.80024" lon="2.14053">
        <ele>103</ele>
        <time>2016-12-04T07:48:03.260Z</time>
      </trkpt>
      <trkpt lat="47.80024" lon="2.14053">
        <ele>103</ele>
        <time>2016-12-04T07:48:04.257Z</time>
      </trkpt>
      <trkpt lat="47.8002" lon="2.14067">
        <ele>103</ele>
        <time>2016-12-04T07:48:05.259Z</time>
      </trkpt>
      <trkpt lat="47.8002" lon="2.14067">
        <ele>103</ele>
        <time>2016-12-04T07:48:06.254Z</time>
      </trkpt>
      <trkpt lat="47.80016" lon="2.14082">
        <ele>104</ele>
        <time>2016-12-04T07:48:07.259Z</time>
      </trkpt>
      <trkpt lat="47.80014" lon="2.14089">
        <ele>104</ele>
        <time>2016-12-04T07:48:08.261Z</time>
      </trkpt>
      <trkpt lat="47.80012" lon="2.14095">
        <ele>104</ele>
        <time>2016-12-04T07:48:09.263Z</time>
      </trkpt>
      <trkpt lat="47.80012" lon="2.14095">
        <ele>104</ele>
        <time>2016-12-04T07:48:10.254Z</time>
      </trkpt>
      <trkpt lat="47.80008" lon="2.1411">
        <ele>104</ele>
        <time>2016-12-04T07:48:11.259Z</time>
      </trkpt>
      <trkpt lat="47.80008" lon="2.1411">
        <ele>104</ele>
        <time>2016-12-04T07:48:12.254Z</time>
      </trkpt>
      <trkpt lat="47.80004" lon="2.14124">
        <ele>104</ele>
        <time>2016-12-04T07:48:13.259Z</time>
      </trkpt>
      <trkpt lat="47.80004" lon="2.14124">
        <ele>104</ele>
        <time>2016-12-04T07:48:14.256Z</time>
      </trkpt>
      <trkpt lat="47.80001" lon="2.14139">
        <ele>103</ele>
        <time>2016-12-04T07:48:15.259Z</time>
      </trkpt>
      <trkpt lat="47.80001" lon="2.14139">
        <ele>103</ele>
        <time>2016-12-04T07:48:16.274Z</time>
      </trkpt>
      <trkpt lat="47.79998" lon="2.14154">
        <ele>104</ele>
        <time>2016-12-04T07:48:17.271Z</time>
      </trkpt>
      <trkpt lat="47.79998" lon="2.14154">
        <ele>104</ele>
        <time>2016-12-04T07:48:18.261Z</time>
      </trkpt>
      <trkpt lat="47.79994" lon="2.1417">
        <ele>104</ele>
        <time>2016-12-04T07:48:19.263Z</time>
      </trkpt>
      <trkpt lat="47.79994" lon="2.1417">
        <ele>104</ele>
        <time>2016-12-04T07:48:20.260Z</time>
      </trkpt>
      <trkpt lat="47.79991" lon="2.14185">
        <ele>104</ele>
        <time>2016-12-04T07:48:21.260Z</time>
      </trkpt>
      <trkpt lat="47.7999" lon="2.14193">
        <ele>105</ele>
        <time>2016-12-04T07:48:22.260Z</time>
      </trkpt>
      <trkpt lat="47.7999" lon="2.14193">
        <ele>105</ele>
        <time>2016-12-04T07:48:23.256Z</time>
      </trkpt>
      <trkpt lat="47.79987" lon="2.14208">
        <ele>106</ele>
        <time>2016-12-04T07:48:24.268Z</time>
      </trkpt>
      <trkpt lat="47.79987" lon="2.14208">
        <ele>106</ele>
        <time>2016-12-04T07:48:25.258Z</time>
      </trkpt>
      <trkpt lat="47.79985" lon="2.14223">
        <ele>105</ele>
        <time>2016-12-04T07:48:26.261Z</time>
      </trkpt>
      <trkpt lat="47.79985" lon="2.14223">
        <ele>105</ele>
        <time>2016-12-04T07:48:27.254Z</time>
      </trkpt>
      <trkpt lat="47.79982" lon="2.14239">
        <ele>105</ele>
        <time>2016-12-04T07:48:28.260Z</time>
      </trkpt>
      <trkpt lat="47.79982" lon="2.14239">
        <ele>105</ele>
        <time>2016-12-04T07:48:29.257Z</time>
      </trkpt>
      <trkpt lat="47.79979" lon="2.14254">
        <ele>106</ele>
        <time>2016-12-04T07:48:30.259Z</time>
      </trkpt>
      <trkpt lat="47.79978" lon="2.14262">
        <ele>106</ele>
        <time>2016-12-04T07:48:31.259Z</time>
      </trkpt>
      <trkpt lat="47.79978" lon="2.14262">
        <ele>106</ele>
        <time>2016-12-04T07:48:32.258Z</time>
      </trkpt>
      <trkpt lat="47.79975" lon="2.14277">
        <ele>106</ele>
        <time>2016-12-04T07:48:33.261Z</time>
      </trkpt>
      <trkpt lat="47.79975" lon="2.14277">
        <ele>106</ele>
        <time>2016-12-04T07:48:34.255Z</time>
      </trkpt>
      <trkpt lat="47.79972" lon="2.14293">
        <ele>105</ele>
        <time>2016-12-04T07:48:35.260Z</time>
      </trkpt>
      <trkpt lat="47.79971" lon="2.143">
        <ele>105</ele>
        <time>2016-12-04T07:48:36.261Z</time>
      </trkpt>
      <trkpt lat="47.79971" lon="2.143">
        <ele>105</ele>
        <time>2016-12-04T07:48:37.257Z</time>
      </trkpt>
      <trkpt lat="47.79968" lon="2.14315">
        <ele>105</ele>
        <time>2016-12-04T07:48:38.261Z</time>
      </trkpt>
      <trkpt lat="47.79966" lon="2.14323">
        <ele>105</ele>
        <time>2016-12-04T07:48:39.260Z</time>
      </trkpt>
      <trkpt lat="47.79965" lon="2.1433">
        <ele>105</ele>
        <time>2016-12-04T07:48:40.262Z</time>
      </trkpt>
      <trkpt lat="47.79965" lon="2.1433">
        <ele>105</ele>
        <time>2016-12-04T07:48:41.254Z</time>
      </trkpt>
      <trkpt lat="47.79962" lon="2.14345">
        <ele>104</ele>
        <time>2016-12-04T07:48:42.260Z</time>
      </trkpt>
      <trkpt lat="47.7996" lon="2.14352">
        <ele>104</ele>
        <time>2016-12-04T07:48:43.263Z</time>
      </trkpt>
      <trkpt lat="47.7996" lon="2.14352">
        <ele>104</ele>
        <time>2016-12-04T07:48:44.259Z</time>
      </trkpt>
      <trkpt lat="47.79957" lon="2.14366">
        <ele>104</ele>
        <time>2016-12-04T07:48:45.262Z</time>
      </trkpt>
      <trkpt lat="47.79956" lon="2.14374">
        <ele>104</ele>
        <time>2016-12-04T07:48:46.260Z</time>
      </trkpt>
      <trkpt lat="47.79956" lon="2.14374">
        <ele>104</ele>
        <time>2016-12-04T07:48:47.254Z</time>
      </trkpt>
      <trkpt lat="47.79953" lon="2.1439">
        <ele>104</ele>
        <time>2016-12-04T07:48:48.260Z</time>
      </trkpt>
      <trkpt lat="47.79953" lon="2.1439">
        <ele>104</ele>
        <time>2016-12-04T07:48:49.255Z</time>
      </trkpt>
      <trkpt lat="47.7995" lon="2.14405">
        <ele>104</ele>
        <time>2016-12-04T07:48:50.260Z</time>
      </trkpt>
      <trkpt lat="47.79949" lon="2.14412">
        <ele>104</ele>
        <time>2016-12-04T07:48:51.260Z</time>
      </trkpt>
      <trkpt lat="47.79949" lon="2.14412">
        <ele>104</ele>
        <time>2016-12-04T07:48:52.254Z</time>
      </trkpt>
      <trkpt lat="47.79946" lon="2.14428">
        <ele>104</ele>
        <time>2016-12-04T07:48:53.260Z</time>
      </trkpt>
      <trkpt lat="47.79946" lon="2.14428">
        <ele>104</ele>
        <time>2016-12-04T07:48:54.255Z</time>
      </trkpt>
      <trkpt lat="47.79943" lon="2.14444">
        <ele>103</ele>
        <time>2016-12-04T07:48:55.257Z</time>
      </trkpt>
      <trkpt lat="47.79941" lon="2.14452">
        <ele>103</ele>
        <time>2016-12-04T07:48:56.264Z</time>
      </trkpt>
      <trkpt lat="47.79941" lon="2.14452">
        <ele>103</ele>
        <time>2016-12-04T07:48:57.254Z</time>
      </trkpt>
      <trkpt lat="47.79938" lon="2.14468">
        <ele>103</ele>
        <time>2016-12-04T07:48:58.261Z</time>
      </trkpt>
      <trkpt lat="47.79937" lon="2.14476">
        <ele>103</ele>
        <time>2016-12-04T07:48:59.260Z</time>
      </trkpt>
      <trkpt lat="47.79937" lon="2.14476">
        <ele>103</ele>
        <time>2016-12-04T07:49:00.268Z</time>
      </trkpt>
      <trkpt lat="47.79933" lon="2.14491">
        <ele>103</ele>
        <time>2016-12-04T07:49:01.260Z</time>
      </trkpt>
      <trkpt lat="47.79931" lon="2.14499">
        <ele>103</ele>
        <time>2016-12-04T07:49:02.261Z</time>
      </trkpt>
      <trkpt lat="47.7993" lon="2.14507">
        <ele>103</ele>
        <time>2016-12-04T07:49:03.260Z</time>
      </trkpt>
      <trkpt lat="47.7993" lon="2.14507">
        <ele>103</ele>
        <time>2016-12-04T07:49:04.257Z</time>
      </trkpt>
      <trkpt lat="47.79926" lon="2.14521">
        <ele>103</ele>
        <time>2016-12-04T07:49:05.261Z</time>
      </trkpt>
      <trkpt lat="47.79926" lon="2.14521">
        <ele>103</ele>
        <time>2016-12-04T07:49:06.270Z</time>
      </trkpt>
      <trkpt lat="47.79922" lon="2.14536">
        <ele>103</ele>
        <time>2016-12-04T07:49:07.261Z</time>
      </trkpt>
      <trkpt lat="47.79922" lon="2.14536">
        <ele>103</ele>
        <time>2016-12-04T07:49:08.258Z</time>
      </trkpt>
      <trkpt lat="47.79917" lon="2.14551">
        <ele>103</ele>
        <time>2016-12-04T07:49:09.261Z</time>
      </trkpt>
      <trkpt lat="47.79917" lon="2.14551">
        <ele>103</ele>
        <time>2016-12-04T07:49:10.266Z</time>
      </trkpt>
      <trkpt lat="47.79912" lon="2.14565">
        <ele>103</ele>
        <time>2016-12-04T07:49:11.261Z</time>
      </trkpt>
      <trkpt lat="47.79912" lon="2.14565">
        <ele>103</ele>
        <time>2016-12-04T07:49:12.258Z</time>
      </trkpt>
      <trkpt lat="47.79907" lon="2.14579">
        <ele>103</ele>
        <time>2016-12-04T07:49:13.260Z</time>
      </trkpt>
      <trkpt lat="47.79907" lon="2.14579">
        <ele>103</ele>
        <time>2016-12-04T07:49:14.257Z</time>
      </trkpt>
      <trkpt lat="47.79902" lon="2.14592">
        <ele>103</ele>
        <time>2016-12-04T07:49:15.260Z</time>
      </trkpt>
      <trkpt lat="47.79899" lon="2.14598">
        <ele>102</ele>
        <time>2016-12-04T07:49:16.274Z</time>
      </trkpt>
      <trkpt lat="47.79899" lon="2.14598">
        <ele>102</ele>
        <time>2016-12-04T07:49:17.262Z</time>
      </trkpt>
      <trkpt lat="47.79892" lon="2.1461">
        <ele>102</ele>
        <time>2016-12-04T07:49:18.260Z</time>
      </trkpt>
      <trkpt lat="47.79892" lon="2.1461">
        <ele>102</ele>
        <time>2016-12-04T07:49:19.258Z</time>
      </trkpt>
      <trkpt lat="47.79885" lon="2.14621">
        <ele>103</ele>
        <time>2016-12-04T07:49:20.263Z</time>
      </trkpt>
      <trkpt lat="47.79882" lon="2.14627">
        <ele>103</ele>
        <time>2016-12-04T07:49:21.261Z</time>
      </trkpt>
      <trkpt lat="47.79882" lon="2.14627">
        <ele>103</ele>
        <time>2016-12-04T07:49:22.253Z</time>
      </trkpt>
      <trkpt lat="47.79874" lon="2.14637">
        <ele>103</ele>
        <time>2016-12-04T07:49:23.258Z</time>
      </trkpt>
      <trkpt lat="47.79874" lon="2.14637">
        <ele>103</ele>
        <time>2016-12-04T07:49:24.255Z</time>
      </trkpt>
      <trkpt lat="47.79867" lon="2.14647">
        <ele>103</ele>
        <time>2016-12-04T07:49:25.258Z</time>
      </trkpt>
      <trkpt lat="47.79863" lon="2.14652">
        <ele>103</ele>
        <time>2016-12-04T07:49:26.260Z</time>
      </trkpt>
      <trkpt lat="47.79863" lon="2.14652">
        <ele>103</ele>
        <time>2016-12-04T07:49:27.253Z</time>
      </trkpt>
      <trkpt lat="47.79855" lon="2.14663">
        <ele>103</ele>
        <time>2016-12-04T07:49:28.259Z</time>
      </trkpt>
      <trkpt lat="47.79855" lon="2.14663">
        <ele>103</ele>
        <time>2016-12-04T07:49:29.254Z</time>
      </trkpt>
      <trkpt lat="47.79847" lon="2.14673">
        <ele>104</ele>
        <time>2016-12-04T07:49:30.267Z</time>
      </trkpt>
      <trkpt lat="47.79844" lon="2.14678">
        <ele>104</ele>
        <time>2016-12-04T07:49:31.260Z</time>
      </trkpt>
      <trkpt lat="47.7984" lon="2.14683">
        <ele>104</ele>
        <time>2016-12-04T07:49:32.261Z</time>
      </trkpt>
      <trkpt lat="47.7984" lon="2.14683">
        <ele>104</ele>
        <time>2016-12-04T07:49:33.254Z</time>
      </trkpt>
      <trkpt lat="47.79831" lon="2.14693">
        <ele>104</ele>
        <time>2016-12-04T07:49:34.252Z</time>
      </trkpt>
      <trkpt lat="47.79827" lon="2.14698">
        <ele>104</ele>
        <time>2016-12-04T07:49:35.259Z</time>
      </trkpt>
      <trkpt lat="47.79824" lon="2.14703">
        <ele>104</ele>
        <time>2016-12-04T07:49:36.258Z</time>
      </trkpt>
      <trkpt lat="47.79824" lon="2.14703">
        <ele>104</ele>
        <time>2016-12-04T07:49:37.254Z</time>
      </trkpt>
      <trkpt lat="47.79816" lon="2.14713">
        <ele>104</ele>
        <time>2016-12-04T07:49:38.260Z</time>
      </trkpt>
      <trkpt lat="47.79816" lon="2.14713">
        <ele>104</ele>
        <time>2016-12-04T07:49:39.265Z</time>
      </trkpt>
      <trkpt lat="47.79808" lon="2.14722">
        <ele>104</ele>
        <time>2016-12-04T07:49:40.265Z</time>
      </trkpt>
      <trkpt lat="47.79808" lon="2.14722">
        <ele>104</ele>
        <time>2016-12-04T07:49:41.255Z</time>
      </trkpt>
      <trkpt lat="47.798" lon="2.14731">
        <ele>105</ele>
        <time>2016-12-04T07:49:42.259Z</time>
      </trkpt>
      <trkpt lat="47.798" lon="2.14731">
        <ele>105</ele>
        <time>2016-12-04T07:49:43.254Z</time>
      </trkpt>
      <trkpt lat="47.79793" lon="2.1474">
        <ele>105</ele>
        <time>2016-12-04T07:49:44.256Z</time>
      </trkpt>
      <trkpt lat="47.79789" lon="2.14744">
        <ele>106</ele>
        <time>2016-12-04T07:49:45.259Z</time>
      </trkpt>
      <trkpt lat="47.79789" lon="2.14744">
        <ele>106</ele>
        <time>2016-12-04T07:49:46.254Z</time>
      </trkpt>
      <trkpt lat="47.7978" lon="2.14753">
        <ele>106</ele>
        <time>2016-12-04T07:49:47.259Z</time>
      </trkpt>
      <trkpt lat="47.7978" lon="2.14753">
        <ele>106</ele>
        <time>2016-12-04T07:49:48.253Z</time>
      </trkpt>
      <trkpt lat="47.79772" lon="2.14761">
        <ele>107</ele>
        <time>2016-12-04T07:49:49.259Z</time>
      </trkpt>
      <trkpt lat="47.79768" lon="2.14765">
        <ele>107</ele>
        <time>2016-12-04T07:49:50.265Z</time>
      </trkpt>
      <trkpt lat="47.79768" lon="2.14765">
        <ele>107</ele>
        <time>2016-12-04T07:49:51.265Z</time>
      </trkpt>
      <trkpt lat="47.79761" lon="2.14773">
        <ele>108</ele>
        <time>2016-12-04T07:49:52.260Z</time>
      </trkpt>
      <trkpt lat="47.79761" lon="2.14773">
        <ele>108</ele>
        <time>2016-12-04T07:49:53.254Z</time>
      </trkpt>
      <trkpt lat="47.79753" lon="2.1478">
        <ele>109</ele>
        <time>2016-12-04T07:49:54.252Z</time>
      </trkpt>
      <trkpt lat="47.79753" lon="2.1478">
        <ele>109</ele>
        <time>2016-12-04T07:49:55.255Z</time>
      </trkpt>
      <trkpt lat="47.79745" lon="2.14787">
        <ele>110</ele>
        <time>2016-12-04T07:49:56.260Z</time>
      </trkpt>
      <trkpt lat="47.79745" lon="2.14787">
        <ele>110</ele>
        <time>2016-12-04T07:49:57.256Z</time>
      </trkpt>
      <trkpt lat="47.79737" lon="2.14794">
        <ele>111</ele>
        <time>2016-12-04T07:49:58.259Z</time>
      </trkpt>
      <trkpt lat="47.79733" lon="2.14798">
        <ele>111</ele>
        <time>2016-12-04T07:49:59.259Z</time>
      </trkpt>
      <trkpt lat="47.79733" lon="2.14798">
        <ele>111</ele>
        <time>2016-12-04T07:50:00.255Z</time>
      </trkpt>
      <trkpt lat="47.79725" lon="2.14805">
        <ele>112</ele>
        <time>2016-12-04T07:50:01.260Z</time>
      </trkpt>
      <trkpt lat="47.79721" lon="2.14809">
        <ele>112</ele>
        <time>2016-12-04T07:50:02.260Z</time>
      </trkpt>
      <trkpt lat="47.79721" lon="2.14809">
        <ele>112</ele>
        <time>2016-12-04T07:50:03.254Z</time>
      </trkpt>
      <trkpt lat="47.79714" lon="2.14818">
        <ele>113</ele>
        <time>2016-12-04T07:50:04.253Z</time>
      </trkpt>
      <trkpt lat="47.79714" lon="2.14818">
        <ele>113</ele>
        <time>2016-12-04T07:50:05.254Z</time>
      </trkpt>
      <trkpt lat="47.79706" lon="2.14828">
        <ele>113</ele>
        <time>2016-12-04T07:50:06.258Z</time>
      </trkpt>
      <trkpt lat="47.79703" lon="2.14834">
        <ele>113</ele>
        <time>2016-12-04T07:50:07.258Z</time>
      </trkpt>
      <trkpt lat="47.79703" lon="2.14834">
        <ele>113</ele>
        <time>2016-12-04T07:50:08.258Z</time>
      </trkpt>
      <trkpt lat="47.79697" lon="2.14847">
        <ele>113</ele>
        <time>2016-12-04T07:50:09.276Z</time>
      </trkpt>
      <trkpt lat="47.79697" lon="2.14847">
        <ele>113</ele>
        <time>2016-12-04T07:50:10.266Z</time>
      </trkpt>
      <trkpt lat="47.7969" lon="2.14861">
        <ele>113</ele>
        <time>2016-12-04T07:50:11.269Z</time>
      </trkpt>
      <trkpt lat="47.7969" lon="2.14861">
        <ele>113</ele>
        <time>2016-12-04T07:50:12.272Z</time>
      </trkpt>
      <trkpt lat="47.79684" lon="2.14876">
        <ele>112</ele>
        <time>2016-12-04T07:50:13.265Z</time>
      </trkpt>
      <trkpt lat="47.79684" lon="2.14876">
        <ele>112</ele>
        <time>2016-12-04T07:50:14.257Z</time>
      </trkpt>
      <trkpt lat="47.79677" lon="2.14892">
        <ele>111</ele>
        <time>2016-12-04T07:50:15.259Z</time>
      </trkpt>
      <trkpt lat="47.79674" lon="2.149">
        <ele>111</ele>
        <time>2016-12-04T07:50:16.259Z</time>
      </trkpt>
      <trkpt lat="47.79674" lon="2.149">
        <ele>111</ele>
        <time>2016-12-04T07:50:17.256Z</time>
      </trkpt>
      <trkpt lat="47.79667" lon="2.14915">
        <ele>109</ele>
        <time>2016-12-04T07:50:18.260Z</time>
      </trkpt>
      <trkpt lat="47.79667" lon="2.14915">
        <ele>109</ele>
        <time>2016-12-04T07:50:19.253Z</time>
      </trkpt>
      <trkpt lat="47.79661" lon="2.14931">
        <ele>109</ele>
        <time>2016-12-04T07:50:20.260Z</time>
      </trkpt>
      <trkpt lat="47.79658" lon="2.14939">
        <ele>108</ele>
        <time>2016-12-04T07:50:21.259Z</time>
      </trkpt>
      <trkpt lat="47.79658" lon="2.14939">
        <ele>108</ele>
        <time>2016-12-04T07:50:22.254Z</time>
      </trkpt>
      <trkpt lat="47.7965" lon="2.14951">
        <ele>107</ele>
        <time>2016-12-04T07:50:23.259Z</time>
      </trkpt>
      <trkpt lat="47.7965" lon="2.14951">
        <ele>107</ele>
        <time>2016-12-04T07:50:24.254Z</time>
      </trkpt>
      <trkpt lat="47.7964" lon="2.14958">
        <ele>107</ele>
        <time>2016-12-04T07:50:25.259Z</time>
      </trkpt>
      <trkpt lat="47.79635" lon="2.14961">
        <ele>107</ele>
        <time>2016-12-04T07:50:26.260Z</time>
      </trkpt>
      <trkpt lat="47.79635" lon="2.14961">
        <ele>107</ele>
        <time>2016-12-04T07:50:27.253Z</time>
      </trkpt>
      <trkpt lat="47.79624" lon="2.14966">
        <ele>106</ele>
        <time>2016-12-04T07:50:28.259Z</time>
      </trkpt>
      <trkpt lat="47.79619" lon="2.14969">
        <ele>106</ele>
        <time>2016-12-04T07:50:29.260Z</time>
      </trkpt>
      <trkpt lat="47.79619" lon="2.14969">
        <ele>106</ele>
        <time>2016-12-04T07:50:30.256Z</time>
      </trkpt>
      <trkpt lat="47.79609" lon="2.14974">
        <ele>106</ele>
        <time>2016-12-04T07:50:31.251Z</time>
      </trkpt>
      <trkpt lat="47.79604" lon="2.14977">
        <ele>106</ele>
        <time>2016-12-04T07:50:32.264Z</time>
      </trkpt>
      <trkpt lat="47.796" lon="2.1498">
        <ele>106</ele>
        <time>2016-12-04T07:50:33.261Z</time>
      </trkpt>
      <trkpt lat="47.796" lon="2.1498">
        <ele>106</ele>
        <time>2016-12-04T07:50:34.259Z</time>
      </trkpt>
      <trkpt lat="47.79591" lon="2.14985">
        <ele>106</ele>
        <time>2016-12-04T07:50:35.261Z</time>
      </trkpt>
      <trkpt lat="47.79591" lon="2.14985">
        <ele>106</ele>
        <time>2016-12-04T07:50:36.255Z</time>
      </trkpt>
      <trkpt lat="47.79582" lon="2.14992">
        <ele>106</ele>
        <time>2016-12-04T07:50:37.260Z</time>
      </trkpt>
      <trkpt lat="47.79582" lon="2.14992">
        <ele>106</ele>
        <time>2016-12-04T07:50:38.258Z</time>
      </trkpt>
      <trkpt lat="47.79574" lon="2.14999">
        <ele>106</ele>
        <time>2016-12-04T07:50:39.260Z</time>
      </trkpt>
      <trkpt lat="47.79574" lon="2.14999">
        <ele>106</ele>
        <time>2016-12-04T07:50:40.254Z</time>
      </trkpt>
      <trkpt lat="47.79566" lon="2.15006">
        <ele>106</ele>
        <time>2016-12-04T07:50:41.262Z</time>
      </trkpt>
      <trkpt lat="47.79562" lon="2.15009">
        <ele>107</ele>
        <time>2016-12-04T07:50:42.260Z</time>
      </trkpt>
      <trkpt lat="47.79562" lon="2.15009">
        <ele>107</ele>
        <time>2016-12-04T07:50:43.255Z</time>
      </trkpt>
      <trkpt lat="47.79556" lon="2.15015">
        <ele>107</ele>
        <time>2016-12-04T07:50:44.261Z</time>
      </trkpt>
      <trkpt lat="47.79556" lon="2.15015">
        <ele>107</ele>
        <time>2016-12-04T07:50:45.254Z</time>
      </trkpt>
      <trkpt lat="47.7955" lon="2.15022">
        <ele>108</ele>
        <time>2016-12-04T07:50:46.260Z</time>
      </trkpt>
      <trkpt lat="47.79546" lon="2.15025">
        <ele>108</ele>
        <time>2016-12-04T07:50:47.261Z</time>
      </trkpt>
      <trkpt lat="47.79546" lon="2.15025">
        <ele>108</ele>
        <time>2016-12-04T07:50:48.255Z</time>
      </trkpt>
      <trkpt lat="47.7954" lon="2.15031">
        <ele>109</ele>
        <time>2016-12-04T07:50:49.260Z</time>
      </trkpt>
      <trkpt lat="47.7954" lon="2.15031">
        <ele>109</ele>
        <time>2016-12-04T07:50:50.258Z</time>
      </trkpt>
      <trkpt lat="47.79535" lon="2.15038">
        <ele>109</ele>
        <time>2016-12-04T07:50:51.263Z</time>
      </trkpt>
      <trkpt lat="47.79535" lon="2.15038">
        <ele>109</ele>
        <time>2016-12-04T07:50:52.254Z</time>
      </trkpt>
      <trkpt lat="47.7953" lon="2.15046">
        <ele>110</ele>
        <time>2016-12-04T07:50:53.260Z</time>
      </trkpt>
      <trkpt lat="47.7953" lon="2.15046">
        <ele>110</ele>
        <time>2016-12-04T07:50:54.258Z</time>
      </trkpt>
      <trkpt lat="47.79524" lon="2.15055">
        <ele>111</ele>
        <time>2016-12-04T07:50:55.260Z</time>
      </trkpt>
      <trkpt lat="47.79524" lon="2.15055">
        <ele>111</ele>
        <time>2016-12-04T07:50:56.256Z</time>
      </trkpt>
      <trkpt lat="47.7952" lon="2.15063">
        <ele>112</ele>
        <time>2016-12-04T07:50:57.260Z</time>
      </trkpt>
      <trkpt lat="47.7952" lon="2.15063">
        <ele>112</ele>
        <time>2016-12-04T07:50:58.258Z</time>
      </trkpt>
      <trkpt lat="47.79516" lon="2.15071">
        <ele>113</ele>
        <time>2016-12-04T07:50:59.261Z</time>
      </trkpt>
      <trkpt lat="47.79516" lon="2.15071">
        <ele>113</ele>
        <time>2016-12-04T07:51:00.262Z</time>
      </trkpt>
      <trkpt lat="47.79511" lon="2.1508">
        <ele>113</ele>
        <time>2016-12-04T07:51:01.263Z</time>
      </trkpt>
      <trkpt lat="47.79511" lon="2.1508">
        <ele>113</ele>
        <time>2016-12-04T07:51:02.258Z</time>
      </trkpt>
      <trkpt lat="47.79506" lon="2.15089">
        <ele>114</ele>
        <time>2016-12-04T07:51:03.261Z</time>
      </trkpt>
      <trkpt lat="47.79506" lon="2.15089">
        <ele>114</ele>
        <time>2016-12-04T07:51:04.264Z</time>
      </trkpt>
      <trkpt lat="47.79501" lon="2.15097">
        <ele>114</ele>
        <time>2016-12-04T07:51:05.258Z</time>
      </trkpt>
      <trkpt lat="47.79501" lon="2.15097">
        <ele>114</ele>
        <time>2016-12-04T07:51:06.255Z</time>
      </trkpt>
      <trkpt lat="47.79497" lon="2.15105">
        <ele>114</ele>
        <time>2016-12-04T07:51:07.260Z</time>
      </trkpt>
      <trkpt lat="47.79497" lon="2.15105">
        <ele>114</ele>
        <time>2016-12-04T07:51:08.258Z</time>
      </trkpt>
      <trkpt lat="47.79492" lon="2.15112">
        <ele>114</ele>
        <time>2016-12-04T07:51:09.259Z</time>
      </trkpt>
      <trkpt lat="47.7949" lon="2.15116">
        <ele>114</ele>
        <time>2016-12-04T07:51:10.260Z</time>
      </trkpt>
      <trkpt lat="47.7949" lon="2.15116">
        <ele>114</ele>
        <time>2016-12-04T07:51:11.267Z</time>
      </trkpt>
      <trkpt lat="47.79485" lon="2.15124">
        <ele>114</ele>
        <time>2016-12-04T07:51:12.259Z</time>
      </trkpt>
      <trkpt lat="47.79483" lon="2.15128">
        <ele>115</ele>
        <time>2016-12-04T07:51:13.260Z</time>
      </trkpt>
      <trkpt lat="47.79483" lon="2.15128">
        <ele>115</ele>
        <time>2016-12-04T07:51:14.264Z</time>
      </trkpt>
      <trkpt lat="47.79478" lon="2.15136">
        <ele>116</ele>
        <time>2016-12-04T07:51:15.260Z</time>
      </trkpt>
      <trkpt lat="47.79478" lon="2.15136">
        <ele>116</ele>
        <time>2016-12-04T07:51:16.265Z</time>
      </trkpt>
      <trkpt lat="47.79473" lon="2.15145">
        <ele>116</ele>
        <time>2016-12-04T07:51:17.261Z</time>
      </trkpt>
      <trkpt lat="47.79473" lon="2.15145">
        <ele>116</ele>
        <time>2016-12-04T07:51:18.258Z</time>
      </trkpt>
      <trkpt lat="47.79468" lon="2.15154">
        <ele>116</ele>
        <time>2016-12-04T07:51:19.260Z</time>
      </trkpt>
      <trkpt lat="47.79468" lon="2.15154">
        <ele>116</ele>
        <time>2016-12-04T07:51:20.260Z</time>
      </trkpt>
      <trkpt lat="47.79465" lon="2.15164">
        <ele>116</ele>
        <time>2016-12-04T07:51:21.263Z</time>
      </trkpt>
      <trkpt lat="47.79465" lon="2.15164">
        <ele>116</ele>
        <time>2016-12-04T07:51:22.254Z</time>
      </trkpt>
      <trkpt lat="47.79461" lon="2.15174">
        <ele>115</ele>
        <time>2016-12-04T07:51:23.259Z</time>
      </trkpt>
      <trkpt lat="47.79461" lon="2.15174">
        <ele>115</ele>
        <time>2016-12-04T07:51:24.254Z</time>
      </trkpt>
      <trkpt lat="47.79457" lon="2.15187">
        <ele>116</ele>
        <time>2016-12-04T07:51:25.259Z</time>
      </trkpt>
      <trkpt lat="47.79455" lon="2.15193">
        <ele>115</ele>
        <time>2016-12-04T07:51:26.260Z</time>
      </trkpt>
      <trkpt lat="47.79453" lon="2.15198">
        <ele>114</ele>
        <time>2016-12-04T07:51:27.260Z</time>
      </trkpt>
      <trkpt lat="47.79453" lon="2.15198">
        <ele>114</ele>
        <time>2016-12-04T07:51:28.257Z</time>
      </trkpt>
      <trkpt lat="47.79448" lon="2.15211">
        <ele>115</ele>
        <time>2016-12-04T07:51:29.261Z</time>
      </trkpt>
      <trkpt lat="47.79448" lon="2.15211">
        <ele>115</ele>
        <time>2016-12-04T07:51:30.257Z</time>
      </trkpt>
      <trkpt lat="47.79445" lon="2.15225">
        <ele>114</ele>
        <time>2016-12-04T07:51:31.265Z</time>
      </trkpt>
      <trkpt lat="47.79445" lon="2.15225">
        <ele>114</ele>
        <time>2016-12-04T07:51:32.258Z</time>
      </trkpt>
      <trkpt lat="47.79441" lon="2.15239">
        <ele>114</ele>
        <time>2016-12-04T07:51:33.259Z</time>
      </trkpt>
      <trkpt lat="47.79439" lon="2.15246">
        <ele>114</ele>
        <time>2016-12-04T07:51:34.260Z</time>
      </trkpt>
      <trkpt lat="47.79439" lon="2.15246">
        <ele>114</ele>
        <time>2016-12-04T07:51:35.255Z</time>
      </trkpt>
      <trkpt lat="47.79436" lon="2.15259">
        <ele>114</ele>
        <time>2016-12-04T07:51:36.260Z</time>
      </trkpt>
      <trkpt lat="47.79436" lon="2.15259">
        <ele>114</ele>
        <time>2016-12-04T07:51:37.258Z</time>
      </trkpt>
      <trkpt lat="47.79432" lon="2.15272">
        <ele>114</ele>
        <time>2016-12-04T07:51:38.261Z</time>
      </trkpt>
      <trkpt lat="47.79432" lon="2.15272">
        <ele>114</ele>
        <time>2016-12-04T07:51:39.254Z</time>
      </trkpt>
      <trkpt lat="47.79427" lon="2.15285">
        <ele>114</ele>
        <time>2016-12-04T07:51:40.260Z</time>
      </trkpt>
      <trkpt lat="47.79424" lon="2.15292">
        <ele>114</ele>
        <time>2016-12-04T07:51:41.261Z</time>
      </trkpt>
      <trkpt lat="47.79424" lon="2.15292">
        <ele>114</ele>
        <time>2016-12-04T07:51:42.258Z</time>
      </trkpt>
      <trkpt lat="47.79419" lon="2.15305">
        <ele>113</ele>
        <time>2016-12-04T07:51:43.260Z</time>
      </trkpt>
      <trkpt lat="47.79419" lon="2.15305">
        <ele>113</ele>
        <time>2016-12-04T07:51:44.278Z</time>
      </trkpt>
      <trkpt lat="47.79414" lon="2.15317">
        <ele>113</ele>
        <time>2016-12-04T07:51:45.266Z</time>
      </trkpt>
      <trkpt lat="47.79414" lon="2.15317">
        <ele>113</ele>
        <time>2016-12-04T07:51:46.255Z</time>
      </trkpt>
      <trkpt lat="47.79409" lon="2.15328">
        <ele>113</ele>
        <time>2016-12-04T07:51:47.261Z</time>
      </trkpt>
      <trkpt lat="47.79409" lon="2.15328">
        <ele>113</ele>
        <time>2016-12-04T07:51:48.258Z</time>
      </trkpt>
      <trkpt lat="47.79404" lon="2.15339">
        <ele>113</ele>
        <time>2016-12-04T07:51:49.260Z</time>
      </trkpt>
      <trkpt lat="47.79402" lon="2.15345">
        <ele>112</ele>
        <time>2016-12-04T07:51:50.261Z</time>
      </trkpt>
      <trkpt lat="47.79402" lon="2.15345">
        <ele>112</ele>
        <time>2016-12-04T07:51:51.254Z</time>
      </trkpt>
      <trkpt lat="47.79397" lon="2.15355">
        <ele>112</ele>
        <time>2016-12-04T07:51:52.260Z</time>
      </trkpt>
      <trkpt lat="47.79397" lon="2.15355">
        <ele>112</ele>
        <time>2016-12-04T07:51:53.255Z</time>
      </trkpt>
      <trkpt lat="47.79393" lon="2.15366">
        <ele>112</ele>
        <time>2016-12-04T07:51:54.252Z</time>
      </trkpt>
      <trkpt lat="47.79391" lon="2.15372">
        <ele>112</ele>
        <time>2016-12-04T07:51:55.259Z</time>
      </trkpt>
      <trkpt lat="47.79391" lon="2.15372">
        <ele>112</ele>
        <time>2016-12-04T07:51:56.256Z</time>
      </trkpt>
      <trkpt lat="47.79386" lon="2.15383">
        <ele>112</ele>
        <time>2016-12-04T07:51:57.260Z</time>
      </trkpt>
      <trkpt lat="47.79386" lon="2.15383">
        <ele>112</ele>
        <time>2016-12-04T07:51:58.254Z</time>
      </trkpt>
      <trkpt lat="47.79382" lon="2.15395">
        <ele>112</ele>
        <time>2016-12-04T07:51:59.260Z</time>
      </trkpt>
      <trkpt lat="47.79379" lon="2.154">
        <ele>112</ele>
        <time>2016-12-04T07:52:00.264Z</time>
      </trkpt>
      <trkpt lat="47.79376" lon="2.15404">
        <ele>112</ele>
        <time>2016-12-04T07:52:01.271Z</time>
      </trkpt>
      <trkpt lat="47.79376" lon="2.15404">
        <ele>112</ele>
        <time>2016-12-04T07:52:02.265Z</time>
      </trkpt>
      <trkpt lat="47.79368" lon="2.15409">
        <ele>112</ele>
        <time>2016-12-04T07:52:03.261Z</time>
      </trkpt>
      <trkpt lat="47.79368" lon="2.15409">
        <ele>112</ele>
        <time>2016-12-04T07:52:04.255Z</time>
      </trkpt>
      <trkpt lat="47.7936" lon="2.15407">
        <ele>112</ele>
        <time>2016-12-04T07:52:05.260Z</time>
      </trkpt>
      <trkpt lat="47.79356" lon="2.15406">
        <ele>112</ele>
        <time>2016-12-04T07:52:06.258Z</time>
      </trkpt>
      <trkpt lat="47.79353" lon="2.15405">
        <ele>112</ele>
        <time>2016-12-04T07:52:07.262Z</time>
      </trkpt>
      <trkpt lat="47.79353" lon="2.15405">
        <ele>112</ele>
        <time>2016-12-04T07:52:08.258Z</time>
      </trkpt>
      <trkpt lat="47.79345" lon="2.15401">
        <ele>112</ele>
        <time>2016-12-04T07:52:09.261Z</time>
      </trkpt>
      <trkpt lat="47.79345" lon="2.15401">
        <ele>112</ele>
        <time>2016-12-04T07:52:10.255Z</time>
      </trkpt>
      <trkpt lat="47.79338" lon="2.15396">
        <ele>112</ele>
        <time>2016-12-04T07:52:11.261Z</time>
      </trkpt>
      <trkpt lat="47.79338" lon="2.15396">
        <ele>112</ele>
        <time>2016-12-04T07:52:12.257Z</time>
      </trkpt>
      <trkpt lat="47.7933" lon="2.15391">
        <ele>111</ele>
        <time>2016-12-04T07:52:13.261Z</time>
      </trkpt>
      <trkpt lat="47.79327" lon="2.15388">
        <ele>111</ele>
        <time>2016-12-04T07:52:14.261Z</time>
      </trkpt>
      <trkpt lat="47.79323" lon="2.15386">
        <ele>112</ele>
        <time>2016-12-04T07:52:15.261Z</time>
      </trkpt>
      <trkpt lat="47.79323" lon="2.15386">
        <ele>112</ele>
        <time>2016-12-04T07:52:16.264Z</time>
      </trkpt>
      <trkpt lat="47.79315" lon="2.1538">
        <ele>111</ele>
        <time>2016-12-04T07:52:17.260Z</time>
      </trkpt>
      <trkpt lat="47.79312" lon="2.15378">
        <ele>111</ele>
        <time>2016-12-04T07:52:18.260Z</time>
      </trkpt>
      <trkpt lat="47.79312" lon="2.15378">
        <ele>111</ele>
        <time>2016-12-04T07:52:19.254Z</time>
      </trkpt>
      <trkpt lat="47.79304" lon="2.1537">
        <ele>111</ele>
        <time>2016-12-04T07:52:20.278Z</time>
      </trkpt>
      <trkpt lat="47.79301" lon="2.15366">
        <ele>110</ele>
        <time>2016-12-04T07:52:21.271Z</time>
      </trkpt>
      <trkpt lat="47.79301" lon="2.15366">
        <ele>110</ele>
        <time>2016-12-04T07:52:22.247Z</time>
      </trkpt>
      <trkpt lat="47.79294" lon="2.1536">
        <ele>111</ele>
        <time>2016-12-04T07:52:23.275Z</time>
      </trkpt>
      <trkpt lat="47.79291" lon="2.15357">
        <ele>111</ele>
        <time>2016-12-04T07:52:24.264Z</time>
      </trkpt>
      <trkpt lat="47.79288" lon="2.15355">
        <ele>111</ele>
        <time>2016-12-04T07:52:25.262Z</time>
      </trkpt>
      <trkpt lat="47.79288" lon="2.15355">
        <ele>111</ele>
        <time>2016-12-04T07:52:26.258Z</time>
      </trkpt>
      <trkpt lat="47.79281" lon="2.15348">
        <ele>110</ele>
        <time>2016-12-04T07:52:27.261Z</time>
      </trkpt>
      <trkpt lat="47.79278" lon="2.15345">
        <ele>110</ele>
        <time>2016-12-04T07:52:28.260Z</time>
      </trkpt>
      <trkpt lat="47.79278" lon="2.15345">
        <ele>110</ele>
        <time>2016-12-04T07:52:29.256Z</time>
      </trkpt>
      <trkpt lat="47.79271" lon="2.15338">
        <ele>110</ele>
        <time>2016-12-04T07:52:30.260Z</time>
      </trkpt>
      <trkpt lat="47.79271" lon="2.15338">
        <ele>110</ele>
        <time>2016-12-04T07:52:31.256Z</time>
      </trkpt>
      <trkpt lat="47.79264" lon="2.15333">
        <ele>109</ele>
        <time>2016-12-04T07:52:32.264Z</time>
      </trkpt>
      <trkpt lat="47.79264" lon="2.15333">
        <ele>109</ele>
        <time>2016-12-04T07:52:33.264Z</time>
      </trkpt>
      <trkpt lat="47.79256" lon="2.15327">
        <ele>110</ele>
        <time>2016-12-04T07:52:34.274Z</time>
      </trkpt>
      <trkpt lat="47.79256" lon="2.15327">
        <ele>110</ele>
        <time>2016-12-04T07:52:35.261Z</time>
      </trkpt>
      <trkpt lat="47.7925" lon="2.15321">
        <ele>111</ele>
        <time>2016-12-04T07:52:36.261Z</time>
      </trkpt>
      <trkpt lat="47.7925" lon="2.15321">
        <ele>111</ele>
        <time>2016-12-04T07:52:37.255Z</time>
      </trkpt>
      <trkpt lat="47.79243" lon="2.15313">
        <ele>111</ele>
        <time>2016-12-04T07:52:38.261Z</time>
      </trkpt>
      <trkpt lat="47.79239" lon="2.1531">
        <ele>112</ele>
        <time>2016-12-04T07:52:39.260Z</time>
      </trkpt>
      <trkpt lat="47.79239" lon="2.1531">
        <ele>112</ele>
        <time>2016-12-04T07:52:40.258Z</time>
      </trkpt>
      <trkpt lat="47.79233" lon="2.15303">
        <ele>113</ele>
        <time>2016-12-04T07:52:41.261Z</time>
      </trkpt>
      <trkpt lat="47.79233" lon="2.15303">
        <ele>113</ele>
        <time>2016-12-04T07:52:42.262Z</time>
      </trkpt>
      <trkpt lat="47.79227" lon="2.15298">
        <ele>113</ele>
        <time>2016-12-04T07:52:43.258Z</time>
      </trkpt>
      <trkpt lat="47.79227" lon="2.15298">
        <ele>113</ele>
        <time>2016-12-04T07:52:44.261Z</time>
      </trkpt>
      <trkpt lat="47.79222" lon="2.15292">
        <ele>114</ele>
        <time>2016-12-04T07:52:45.261Z</time>
      </trkpt>
      <trkpt lat="47.7922" lon="2.15288">
        <ele>115</ele>
        <time>2016-12-04T07:52:46.261Z</time>
      </trkpt>
      <trkpt lat="47.7922" lon="2.15288">
        <ele>115</ele>
        <time>2016-12-04T07:52:47.255Z</time>
      </trkpt>
      <trkpt lat="47.79215" lon="2.15282">
        <ele>115</ele>
        <time>2016-12-04T07:52:48.260Z</time>
      </trkpt>
      <trkpt lat="47.79212" lon="2.15279">
        <ele>116</ele>
        <time>2016-12-04T07:52:49.261Z</time>
      </trkpt>
      <trkpt lat="47.79212" lon="2.15279">
        <ele>116</ele>
        <time>2016-12-04T07:52:50.259Z</time>
      </trkpt>
      <trkpt lat="47.79207" lon="2.15274">
        <ele>117</ele>
        <time>2016-12-04T07:52:51.261Z</time>
      </trkpt>
      <trkpt lat="47.79207" lon="2.15274">
        <ele>117</ele>
        <time>2016-12-04T07:52:52.263Z</time>
      </trkpt>
      <trkpt lat="47.79201" lon="2.15268">
        <ele>117</ele>
        <time>2016-12-04T07:52:53.268Z</time>
      </trkpt>
      <trkpt lat="47.79198" lon="2.15266">
        <ele>117</ele>
        <time>2016-12-04T07:52:54.261Z</time>
      </trkpt>
      <trkpt lat="47.79198" lon="2.15266">
        <ele>117</ele>
        <time>2016-12-04T07:52:55.257Z</time>
      </trkpt>
      <trkpt lat="47.79193" lon="2.1526">
        <ele>117</ele>
        <time>2016-12-04T07:52:56.262Z</time>
      </trkpt>
      <trkpt lat="47.79193" lon="2.1526">
        <ele>117</ele>
        <time>2016-12-04T07:52:57.257Z</time>
      </trkpt>
      <trkpt lat="47.79188" lon="2.15254">
        <ele>117</ele>
        <time>2016-12-04T07:52:58.260Z</time>
      </trkpt>
      <trkpt lat="47.79185" lon="2.15251">
        <ele>117</ele>
        <time>2016-12-04T07:52:59.260Z</time>
      </trkpt>
      <trkpt lat="47.79185" lon="2.15251">
        <ele>117</ele>
        <time>2016-12-04T07:53:00.261Z</time>
      </trkpt>
      <trkpt lat="47.79179" lon="2.15246">
        <ele>118</ele>
        <time>2016-12-04T07:53:01.260Z</time>
      </trkpt>
      <trkpt lat="47.79176" lon="2.15243">
        <ele>118</ele>
        <time>2016-12-04T07:53:02.263Z</time>
      </trkpt>
      <trkpt lat="47.79176" lon="2.15243">
        <ele>118</ele>
        <time>2016-12-04T07:53:03.258Z</time>
      </trkpt>
      <trkpt lat="47.79171" lon="2.15238">
        <ele>119</ele>
        <time>2016-12-04T07:53:04.264Z</time>
      </trkpt>
      <trkpt lat="47.79168" lon="2.15235">
        <ele>120</ele>
        <time>2016-12-04T07:53:05.273Z</time>
      </trkpt>
      <trkpt lat="47.79168" lon="2.15235">
        <ele>120</ele>
        <time>2016-12-04T07:53:06.261Z</time>
      </trkpt>
      <trkpt lat="47.79162" lon="2.15229">
        <ele>121</ele>
        <time>2016-12-04T07:53:07.254Z</time>
      </trkpt>
      <trkpt lat="47.79162" lon="2.15229">
        <ele>121</ele>
        <time>2016-12-04T07:53:08.257Z</time>
      </trkpt>
      <trkpt lat="47.79157" lon="2.15224">
        <ele>121</ele>
        <time>2016-12-04T07:53:09.260Z</time>
      </trkpt>
      <trkpt lat="47.79157" lon="2.15224">
        <ele>121</ele>
        <time>2016-12-04T07:53:10.260Z</time>
      </trkpt>
      <trkpt lat="47.79152" lon="2.15217">
        <ele>122</ele>
        <time>2016-12-04T07:53:11.261Z</time>
      </trkpt>
      <trkpt lat="47.79152" lon="2.15217">
        <ele>122</ele>
        <time>2016-12-04T07:53:12.259Z</time>
      </trkpt>
      <trkpt lat="47.79146" lon="2.15212">
        <ele>122</ele>
        <time>2016-12-04T07:53:13.261Z</time>
      </trkpt>
      <trkpt lat="47.79143" lon="2.15209">
        <ele>122</ele>
        <time>2016-12-04T07:53:14.261Z</time>
      </trkpt>
      <trkpt lat="47.79143" lon="2.15209">
        <ele>122</ele>
        <time>2016-12-04T07:53:15.258Z</time>
      </trkpt>
      <trkpt lat="47.79138" lon="2.15203">
        <ele>122</ele>
        <time>2016-12-04T07:53:16.260Z</time>
      </trkpt>
      <trkpt lat="47.79138" lon="2.15203">
        <ele>122</ele>
        <time>2016-12-04T07:53:17.257Z</time>
      </trkpt>
      <trkpt lat="47.79133" lon="2.15198">
        <ele>123</ele>
        <time>2016-12-04T07:53:18.259Z</time>
      </trkpt>
      <trkpt lat="47.79131" lon="2.15195">
        <ele>124</ele>
        <time>2016-12-04T07:53:19.261Z</time>
      </trkpt>
      <trkpt lat="47.79131" lon="2.15195">
        <ele>124</ele>
        <time>2016-12-04T07:53:20.258Z</time>
      </trkpt>
      <trkpt lat="47.79124" lon="2.1519">
        <ele>124</ele>
        <time>2016-12-04T07:53:21.261Z</time>
      </trkpt>
      <trkpt lat="47.79124" lon="2.1519">
        <ele>124</ele>
        <time>2016-12-04T07:53:22.255Z</time>
      </trkpt>
      <trkpt lat="47.79118" lon="2.15183">
        <ele>125</ele>
        <time>2016-12-04T07:53:23.261Z</time>
      </trkpt>
      <trkpt lat="47.79118" lon="2.15183">
        <ele>125</ele>
        <time>2016-12-04T07:53:24.258Z</time>
      </trkpt>
      <trkpt lat="47.79112" lon="2.15177">
        <ele>125</ele>
        <time>2016-12-04T07:53:25.260Z</time>
      </trkpt>
      <trkpt lat="47.79109" lon="2.15174">
        <ele>125</ele>
        <time>2016-12-04T07:53:26.262Z</time>
      </trkpt>
      <trkpt lat="47.79109" lon="2.15174">
        <ele>125</ele>
        <time>2016-12-04T07:53:27.258Z</time>
      </trkpt>
      <trkpt lat="47.79103" lon="2.15167">
        <ele>125</ele>
        <time>2016-12-04T07:53:28.260Z</time>
      </trkpt>
      <trkpt lat="47.791" lon="2.15164">
        <ele>126</ele>
        <time>2016-12-04T07:53:29.261Z</time>
      </trkpt>
      <trkpt lat="47.791" lon="2.15164">
        <ele>126</ele>
        <time>2016-12-04T07:53:30.255Z</time>
      </trkpt>
      <trkpt lat="47.79093" lon="2.15157">
        <ele>126</ele>
        <time>2016-12-04T07:53:31.261Z</time>
      </trkpt>
      <trkpt lat="47.7909" lon="2.15153">
        <ele>126</ele>
        <time>2016-12-04T07:53:32.262Z</time>
      </trkpt>
      <trkpt lat="47.7909" lon="2.15153">
        <ele>126</ele>
        <time>2016-12-04T07:53:33.265Z</time>
      </trkpt>
      <trkpt lat="47.79083" lon="2.15146">
        <ele>126</ele>
        <time>2016-12-04T07:53:34.259Z</time>
      </trkpt>
      <trkpt lat="47.7908" lon="2.15142">
        <ele>126</ele>
        <time>2016-12-04T07:53:35.262Z</time>
      </trkpt>
      <trkpt lat="47.7908" lon="2.15142">
        <ele>126</ele>
        <time>2016-12-04T07:53:36.257Z</time>
      </trkpt>
      <trkpt lat="47.79074" lon="2.15135">
        <ele>127</ele>
        <time>2016-12-04T07:53:37.261Z</time>
      </trkpt>
      <trkpt lat="47.79074" lon="2.15135">
        <ele>127</ele>
        <time>2016-12-04T07:53:38.255Z</time>
      </trkpt>
      <trkpt lat="47.79069" lon="2.15129">
        <ele>126</ele>
        <time>2016-12-04T07:53:39.277Z</time>
      </trkpt>
      <trkpt lat="47.79066" lon="2.15125">
        <ele>126</ele>
        <time>2016-12-04T07:53:40.266Z</time>
      </trkpt>
      <trkpt lat="47.79066" lon="2.15125">
        <ele>126</ele>
        <time>2016-12-04T07:53:41.258Z</time>
      </trkpt>
      <trkpt lat="47.79059" lon="2.15117">
        <ele>127</ele>
        <time>2016-12-04T07:53:42.260Z</time>
      </trkpt>
      <trkpt lat="47.79059" lon="2.15117">
        <ele>127</ele>
        <time>2016-12-04T07:53:43.255Z</time>
      </trkpt>
      <trkpt lat="47.79053" lon="2.15109">
        <ele>126</ele>
        <time>2016-12-04T07:53:44.268Z</time>
      </trkpt>
      <trkpt lat="47.7905" lon="2.15104">
        <ele>126</ele>
        <time>2016-12-04T07:53:45.261Z</time>
      </trkpt>
      <trkpt lat="47.7905" lon="2.15104">
        <ele>126</ele>
        <time>2016-12-04T07:53:46.255Z</time>
      </trkpt>
      <trkpt lat="47.79043" lon="2.15096">
        <ele>126</ele>
        <time>2016-12-04T07:53:47.259Z</time>
      </trkpt>
      <trkpt lat="47.79043" lon="2.15096">
        <ele>126</ele>
        <time>2016-12-04T07:53:48.258Z</time>
      </trkpt>
      <trkpt lat="47.79036" lon="2.15088">
        <ele>125</ele>
        <time>2016-12-04T07:53:49.271Z</time>
      </trkpt>
      <trkpt lat="47.79036" lon="2.15088">
        <ele>125</ele>
        <time>2016-12-04T07:53:50.273Z</time>
      </trkpt>
      <trkpt lat="47.79029" lon="2.15079">
        <ele>126</ele>
        <time>2016-12-04T07:53:51.261Z</time>
      </trkpt>
      <trkpt lat="47.79026" lon="2.15075">
        <ele>126</ele>
        <time>2016-12-04T07:53:52.261Z</time>
      </trkpt>
      <trkpt lat="47.79026" lon="2.15075">
        <ele>126</ele>
        <time>2016-12-04T07:53:53.254Z</time>
      </trkpt>
      <trkpt lat="47.79021" lon="2.15066">
        <ele>126</ele>
        <time>2016-12-04T07:53:54.253Z</time>
      </trkpt>
      <trkpt lat="47.79021" lon="2.15066">
        <ele>126</ele>
        <time>2016-12-04T07:53:55.255Z</time>
      </trkpt>
      <trkpt lat="47.7901" lon="2.15064">
        <ele>129</ele>
        <time>2016-12-04T07:53:56.262Z</time>
      </trkpt>
      <trkpt lat="47.7901" lon="2.15064">
        <ele>129</ele>
        <time>2016-12-04T07:53:57.258Z</time>
      </trkpt>
      <trkpt lat="47.79004" lon="2.15066">
        <ele>129</ele>
        <time>2016-12-04T07:53:58.260Z</time>
      </trkpt>
      <trkpt lat="47.79004" lon="2.15066">
        <ele>129</ele>
        <time>2016-12-04T07:53:59.255Z</time>
      </trkpt>
      <trkpt lat="47.78999" lon="2.15069">
        <ele>130</ele>
        <time>2016-12-04T07:54:00.263Z</time>
      </trkpt>
      <trkpt lat="47.78999" lon="2.15069">
        <ele>130</ele>
        <time>2016-12-04T07:54:01.256Z</time>
      </trkpt>
      <trkpt lat="47.78994" lon="2.15071">
        <ele>131</ele>
        <time>2016-12-04T07:54:02.276Z</time>
      </trkpt>
      <trkpt lat="47.78994" lon="2.15071">
        <ele>131</ele>
        <time>2016-12-04T07:54:03.267Z</time>
      </trkpt>
      <trkpt lat="47.78989" lon="2.15072">
        <ele>132</ele>
        <time>2016-12-04T07:54:04.260Z</time>
      </trkpt>
      <trkpt lat="47.78989" lon="2.15072">
        <ele>132</ele>
        <time>2016-12-04T07:54:05.259Z</time>
      </trkpt>
      <trkpt lat="47.78984" lon="2.15074">
        <ele>132</ele>
        <time>2016-12-04T07:54:06.260Z</time>
      </trkpt>
      <trkpt lat="47.78984" lon="2.15074">
        <ele>132</ele>
        <time>2016-12-04T07:54:07.259Z</time>
      </trkpt>
      <trkpt lat="47.78978" lon="2.15077">
        <ele>133</ele>
        <time>2016-12-04T07:54:08.258Z</time>
      </trkpt>
      <trkpt lat="47.78978" lon="2.15077">
        <ele>133</ele>
        <time>2016-12-04T07:54:09.258Z</time>
      </trkpt>
      <trkpt lat="47.78972" lon="2.15079">
        <ele>134</ele>
        <time>2016-12-04T07:54:10.261Z</time>
      </trkpt>
      <trkpt lat="47.78972" lon="2.15079">
        <ele>134</ele>
        <time>2016-12-04T07:54:11.260Z</time>
      </trkpt>
      <trkpt lat="47.78966" lon="2.15081">
        <ele>134</ele>
        <time>2016-12-04T07:54:12.258Z</time>
      </trkpt>
      <trkpt lat="47.78963" lon="2.15082">
        <ele>134</ele>
        <time>2016-12-04T07:54:13.264Z</time>
      </trkpt>
      <trkpt lat="47.78963" lon="2.15082">
        <ele>134</ele>
        <time>2016-12-04T07:54:14.259Z</time>
      </trkpt>
      <trkpt lat="47.78956" lon="2.15084">
        <ele>135</ele>
        <time>2016-12-04T07:54:15.260Z</time>
      </trkpt>
      <trkpt lat="47.78953" lon="2.15085">
        <ele>135</ele>
        <time>2016-12-04T07:54:16.261Z</time>
      </trkpt>
      <trkpt lat="47.78953" lon="2.15085">
        <ele>135</ele>
        <time>2016-12-04T07:54:17.259Z</time>
      </trkpt>
      <trkpt lat="47.78946" lon="2.15088">
        <ele>135</ele>
        <time>2016-12-04T07:54:18.261Z</time>
      </trkpt>
      <trkpt lat="47.78946" lon="2.15088">
        <ele>135</ele>
        <time>2016-12-04T07:54:19.259Z</time>
      </trkpt>
      <trkpt lat="47.78939" lon="2.15089">
        <ele>135</ele>
        <time>2016-12-04T07:54:20.262Z</time>
      </trkpt>
      <trkpt lat="47.78939" lon="2.15089">
        <ele>135</ele>
        <time>2016-12-04T07:54:21.256Z</time>
      </trkpt>
      <trkpt lat="47.78932" lon="2.15091">
        <ele>136</ele>
        <time>2016-12-04T07:54:22.260Z</time>
      </trkpt>
      <trkpt lat="47.78932" lon="2.15091">
        <ele>136</ele>
        <time>2016-12-04T07:54:23.264Z</time>
      </trkpt>
      <trkpt lat="47.78925" lon="2.15094">
        <ele>136</ele>
        <time>2016-12-04T07:54:24.258Z</time>
      </trkpt>
      <trkpt lat="47.78921" lon="2.15095">
        <ele>135</ele>
        <time>2016-12-04T07:54:25.261Z</time>
      </trkpt>
      <trkpt lat="47.78918" lon="2.15096">
        <ele>135</ele>
        <time>2016-12-04T07:54:26.262Z</time>
      </trkpt>
      <trkpt lat="47.78918" lon="2.15096">
        <ele>135</ele>
        <time>2016-12-04T07:54:27.258Z</time>
      </trkpt>
      <trkpt lat="47.78911" lon="2.15097">
        <ele>134</ele>
        <time>2016-12-04T07:54:28.261Z</time>
      </trkpt>
      <trkpt lat="47.78911" lon="2.15097">
        <ele>134</ele>
        <time>2016-12-04T07:54:29.256Z</time>
      </trkpt>
      <trkpt lat="47.78903" lon="2.15099">
        <ele>136</ele>
        <time>2016-12-04T07:54:30.271Z</time>
      </trkpt>
      <trkpt lat="47.789" lon="2.151">
        <ele>136</ele>
        <time>2016-12-04T07:54:31.261Z</time>
      </trkpt>
      <trkpt lat="47.789" lon="2.151">
        <ele>136</ele>
        <time>2016-12-04T07:54:32.259Z</time>
      </trkpt>
      <trkpt lat="47.78894" lon="2.15102">
        <ele>136</ele>
        <time>2016-12-04T07:54:33.278Z</time>
      </trkpt>
      <trkpt lat="47.7889" lon="2.15103">
        <ele>137</ele>
        <time>2016-12-04T07:54:34.267Z</time>
      </trkpt>
      <trkpt lat="47.7889" lon="2.15103">
        <ele>137</ele>
        <time>2016-12-04T07:54:35.260Z</time>
      </trkpt>
      <trkpt lat="47.78883" lon="2.15104">
        <ele>137</ele>
        <time>2016-12-04T07:54:36.261Z</time>
      </trkpt>
      <trkpt lat="47.78883" lon="2.15104">
        <ele>137</ele>
        <time>2016-12-04T07:54:37.258Z</time>
      </trkpt>
      <trkpt lat="47.78877" lon="2.15106">
        <ele>138</ele>
        <time>2016-12-04T07:54:38.262Z</time>
      </trkpt>
      <trkpt lat="47.78877" lon="2.15106">
        <ele>138</ele>
        <time>2016-12-04T07:54:39.258Z</time>
      </trkpt>
      <trkpt lat="47.78869" lon="2.15108">
        <ele>138</ele>
        <time>2016-12-04T07:54:40.262Z</time>
      </trkpt>
      <trkpt lat="47.78869" lon="2.15108">
        <ele>138</ele>
        <time>2016-12-04T07:54:41.264Z</time>
      </trkpt>
      <trkpt lat="47.78863" lon="2.1511">
        <ele>139</ele>
        <time>2016-12-04T07:54:42.260Z</time>
      </trkpt>
      <trkpt lat="47.78863" lon="2.1511">
        <ele>139</ele>
        <time>2016-12-04T07:54:43.266Z</time>
      </trkpt>
      <trkpt lat="47.78857" lon="2.15112">
        <ele>139</ele>
        <time>2016-12-04T07:54:44.261Z</time>
      </trkpt>
      <trkpt lat="47.78857" lon="2.15112">
        <ele>139</ele>
        <time>2016-12-04T07:54:45.258Z</time>
      </trkpt>
      <trkpt lat="47.78849" lon="2.15114">
        <ele>140</ele>
        <time>2016-12-04T07:54:46.262Z</time>
      </trkpt>
      <trkpt lat="47.78846" lon="2.15115">
        <ele>140</ele>
        <time>2016-12-04T07:54:47.261Z</time>
      </trkpt>
      <trkpt lat="47.78846" lon="2.15115">
        <ele>140</ele>
        <time>2016-12-04T07:54:48.258Z</time>
      </trkpt>
      <trkpt lat="47.7884" lon="2.15117">
        <ele>139</ele>
        <time>2016-12-04T07:54:49.261Z</time>
      </trkpt>
      <trkpt lat="47.78837" lon="2.15118">
        <ele>140</ele>
        <time>2016-12-04T07:54:50.267Z</time>
      </trkpt>
      <trkpt lat="47.78837" lon="2.15118">
        <ele>140</ele>
        <time>2016-12-04T07:54:51.258Z</time>
      </trkpt>
      <trkpt lat="47.7883" lon="2.15119">
        <ele>139</ele>
        <time>2016-12-04T07:54:52.261Z</time>
      </trkpt>
      <trkpt lat="47.7883" lon="2.15119">
        <ele>139</ele>
        <time>2016-12-04T07:54:53.258Z</time>
      </trkpt>
      <trkpt lat="47.78822" lon="2.15121">
        <ele>139</ele>
        <time>2016-12-04T07:54:54.259Z</time>
      </trkpt>
      <trkpt lat="47.78818" lon="2.15122">
        <ele>139</ele>
        <time>2016-12-04T07:54:55.261Z</time>
      </trkpt>
      <trkpt lat="47.78818" lon="2.15122">
        <ele>139</ele>
        <time>2016-12-04T07:54:56.256Z</time>
      </trkpt>
      <trkpt lat="47.78811" lon="2.15125">
        <ele>139</ele>
        <time>2016-12-04T07:54:57.276Z</time>
      </trkpt>
      <trkpt lat="47.78809" lon="2.15127">
        <ele>140</ele>
        <time>2016-12-04T07:54:58.268Z</time>
      </trkpt>
      <trkpt lat="47.78809" lon="2.15127">
        <ele>140</ele>
        <time>2016-12-04T07:54:59.259Z</time>
      </trkpt>
      <trkpt lat="47.78802" lon="2.15129">
        <ele>140</ele>
        <time>2016-12-04T07:55:00.270Z</time>
      </trkpt>
      <trkpt lat="47.78802" lon="2.15129">
        <ele>140</ele>
        <time>2016-12-04T07:55:01.259Z</time>
      </trkpt>
      <trkpt lat="47.78796" lon="2.15131">
        <ele>140</ele>
        <time>2016-12-04T07:55:02.262Z</time>
      </trkpt>
      <trkpt lat="47.78796" lon="2.15131">
        <ele>140</ele>
        <time>2016-12-04T07:55:03.258Z</time>
      </trkpt>
      <trkpt lat="47.7879" lon="2.15133">
        <ele>140</ele>
        <time>2016-12-04T07:55:04.260Z</time>
      </trkpt>
      <trkpt lat="47.78786" lon="2.15135">
        <ele>139</ele>
        <time>2016-12-04T07:55:05.261Z</time>
      </trkpt>
      <trkpt lat="47.78783" lon="2.15136">
        <ele>139</ele>
        <time>2016-12-04T07:55:06.262Z</time>
      </trkpt>
      <trkpt lat="47.78783" lon="2.15136">
        <ele>139</ele>
        <time>2016-12-04T07:55:07.258Z</time>
      </trkpt>
      <trkpt lat="47.78776" lon="2.15138">
        <ele>139</ele>
        <time>2016-12-04T07:55:08.262Z</time>
      </trkpt>
      <trkpt lat="47.78776" lon="2.15138">
        <ele>139</ele>
        <time>2016-12-04T07:55:09.256Z</time>
      </trkpt>
      <trkpt lat="47.78769" lon="2.15138">
        <ele>138</ele>
        <time>2016-12-04T07:55:10.261Z</time>
      </trkpt>
      <trkpt lat="47.78769" lon="2.15138">
        <ele>138</ele>
        <time>2016-12-04T07:55:11.258Z</time>
      </trkpt>
      <trkpt lat="47.78763" lon="2.1514">
        <ele>139</ele>
        <time>2016-12-04T07:55:12.261Z</time>
      </trkpt>
      <trkpt lat="47.78763" lon="2.1514">
        <ele>139</ele>
        <time>2016-12-04T07:55:13.256Z</time>
      </trkpt>
      <trkpt lat="47.78761" lon="2.15141">
        <ele>138</ele>
        <time>2016-12-04T07:55:14.265Z</time>
      </trkpt>
      <trkpt lat="47.78761" lon="2.15141">
        <ele>138</ele>
        <time>2016-12-04T07:55:15.258Z</time>
      </trkpt>
      <trkpt lat="47.7876" lon="2.15141">
        <ele>138</ele>
        <time>2016-12-04T07:55:16.273Z</time>
      </trkpt>
      <trkpt lat="47.7876" lon="2.15141">
        <ele>138</ele>
        <time>2016-12-04T07:55:17.262Z</time>
      </trkpt>
      <trkpt lat="47.7876" lon="2.15141">
        <ele>138</ele>
        <time>2016-12-04T07:55:18.261Z</time>
      </trkpt>
      <trkpt lat="47.78752" lon="2.15143">
        <ele>133</ele>
        <time>2016-12-04T07:55:19.248Z</time>
      </trkpt>
      <trkpt lat="47.78752" lon="2.15143">
        <ele>133</ele>
        <time>2016-12-04T07:55:20.277Z</time>
      </trkpt>
      <trkpt lat="47.7875" lon="2.15144">
        <ele>133</ele>
        <time>2016-12-04T07:55:21.279Z</time>
      </trkpt>
      <trkpt lat="47.78748" lon="2.15144">
        <ele>133</ele>
        <time>2016-12-04T07:55:22.281Z</time>
      </trkpt>
      <trkpt lat="47.78748" lon="2.15144">
        <ele>133</ele>
        <time>2016-12-04T07:55:23.276Z</time>
      </trkpt>
      <trkpt lat="47.78744" lon="2.15145">
        <ele>133</ele>
        <time>2016-12-04T07:55:24.279Z</time>
      </trkpt>
      <trkpt lat="47.78744" lon="2.15145">
        <ele>133</ele>
        <time>2016-12-04T07:55:25.274Z</time>
      </trkpt>
      <trkpt lat="47.7874" lon="2.15145">
        <ele>132</ele>
        <time>2016-12-04T07:55:26.272Z</time>
      </trkpt>
      <trkpt lat="47.78738" lon="2.15146">
        <ele>132</ele>
        <time>2016-12-04T07:55:27.262Z</time>
      </trkpt>
      <trkpt lat="47.78736" lon="2.15146">
        <ele>132</ele>
        <time>2016-12-04T07:55:28.253Z</time>
      </trkpt>
      <trkpt lat="47.78736" lon="2.15146">
        <ele>132</ele>
        <time>2016-12-04T07:55:29.281Z</time>
      </trkpt>
      <trkpt lat="47.78733" lon="2.15148">
        <ele>132</ele>
        <time>2016-12-04T07:55:30.279Z</time>
      </trkpt>
      <trkpt lat="47.78731" lon="2.15149">
        <ele>132</ele>
        <time>2016-12-04T07:55:31.280Z</time>
      </trkpt>
      <trkpt lat="47.78731" lon="2.15149">
        <ele>132</ele>
        <time>2016-12-04T07:55:32.278Z</time>
      </trkpt>
      <trkpt lat="47.78727" lon="2.1515">
        <ele>132</ele>
        <time>2016-12-04T07:55:33.279Z</time>
      </trkpt>
      <trkpt lat="47.78725" lon="2.15152">
        <ele>132</ele>
        <time>2016-12-04T07:55:34.280Z</time>
      </trkpt>
      <trkpt lat="47.78725" lon="2.15152">
        <ele>132</ele>
        <time>2016-12-04T07:55:35.277Z</time>
      </trkpt>
      <trkpt lat="47.7872" lon="2.15153">
        <ele>132</ele>
        <time>2016-12-04T07:55:36.281Z</time>
      </trkpt>
      <trkpt lat="47.78718" lon="2.15153">
        <ele>132</ele>
        <time>2016-12-04T07:55:37.278Z</time>
      </trkpt>
      <trkpt lat="47.78718" lon="2.15153">
        <ele>132</ele>
        <time>2016-12-04T07:55:38.276Z</time>
      </trkpt>
      <trkpt lat="47.78714" lon="2.15155">
        <ele>132</ele>
        <time>2016-12-04T07:55:39.280Z</time>
      </trkpt>
      <trkpt lat="47.78712" lon="2.15156">
        <ele>133</ele>
        <time>2016-12-04T07:55:40.280Z</time>
      </trkpt>
      <trkpt lat="47.78712" lon="2.15156">
        <ele>133</ele>
        <time>2016-12-04T07:55:41.277Z</time>
      </trkpt>
      <trkpt lat="47.78708" lon="2.15158">
        <ele>133</ele>
        <time>2016-12-04T07:55:42.244Z</time>
      </trkpt>
      <trkpt lat="47.78708" lon="2.15158">
        <ele>133</ele>
        <time>2016-12-04T07:55:43.276Z</time>
      </trkpt>
      <trkpt lat="47.78703" lon="2.15159">
        <ele>134</ele>
        <time>2016-12-04T07:55:44.280Z</time>
      </trkpt>
      <trkpt lat="47.78703" lon="2.15159">
        <ele>134</ele>
        <time>2016-12-04T07:55:45.274Z</time>
      </trkpt>
      <trkpt lat="47.787" lon="2.1516">
        <ele>133</ele>
        <time>2016-12-04T07:55:46.250Z</time>
      </trkpt>
      <trkpt lat="47.78698" lon="2.1516">
        <ele>134</ele>
        <time>2016-12-04T07:55:47.281Z</time>
      </trkpt>
      <trkpt lat="47.78698" lon="2.1516">
        <ele>134</ele>
        <time>2016-12-04T07:55:48.274Z</time>
      </trkpt>
      <trkpt lat="47.78694" lon="2.15161">
        <ele>134</ele>
        <time>2016-12-04T07:55:49.280Z</time>
      </trkpt>
      <trkpt lat="47.78692" lon="2.15162">
        <ele>134</ele>
        <time>2016-12-04T07:55:50.280Z</time>
      </trkpt>
      <trkpt lat="47.78692" lon="2.15162">
        <ele>134</ele>
        <time>2016-12-04T07:55:51.276Z</time>
      </trkpt>
      <trkpt lat="47.78687" lon="2.15163">
        <ele>134</ele>
        <time>2016-12-04T07:55:52.254Z</time>
      </trkpt>
      <trkpt lat="47.78685" lon="2.15164">
        <ele>134</ele>
        <time>2016-12-04T07:55:53.245Z</time>
      </trkpt>
      <trkpt lat="47.78685" lon="2.15164">
        <ele>134</ele>
        <time>2016-12-04T07:55:54.277Z</time>
      </trkpt>
      <trkpt lat="47.78681" lon="2.15165">
        <ele>134</ele>
        <time>2016-12-04T07:55:55.279Z</time>
      </trkpt>
      <trkpt lat="47.78681" lon="2.15165">
        <ele>134</ele>
        <time>2016-12-04T07:55:56.278Z</time>
      </trkpt>
      <trkpt lat="47.78676" lon="2.15166">
        <ele>134</ele>
        <time>2016-12-04T07:55:57.279Z</time>
      </trkpt>
      <trkpt lat="47.78674" lon="2.15166">
        <ele>135</ele>
        <time>2016-12-04T07:55:58.279Z</time>
      </trkpt>
      <trkpt lat="47.78674" lon="2.15166">
        <ele>135</ele>
        <time>2016-12-04T07:55:59.276Z</time>
      </trkpt>
      <trkpt lat="47.78669" lon="2.15166">
        <ele>135</ele>
        <time>2016-12-04T07:56:00.279Z</time>
      </trkpt>
      <trkpt lat="47.78669" lon="2.15166">
        <ele>135</ele>
        <time>2016-12-04T07:56:01.274Z</time>
      </trkpt>
      <trkpt lat="47.78665" lon="2.15165">
        <ele>135</ele>
        <time>2016-12-04T07:56:02.278Z</time>
      </trkpt>
      <trkpt lat="47.78665" lon="2.15165">
        <ele>135</ele>
        <time>2016-12-04T07:56:03.279Z</time>
      </trkpt>
      <trkpt lat="47.78661" lon="2.15166">
        <ele>135</ele>
        <time>2016-12-04T07:56:04.280Z</time>
      </trkpt>
      <trkpt lat="47.78661" lon="2.15166">
        <ele>135</ele>
        <time>2016-12-04T07:56:05.276Z</time>
      </trkpt>
      <trkpt lat="47.78658" lon="2.15167">
        <ele>136</ele>
        <time>2016-12-04T07:56:06.286Z</time>
      </trkpt>
      <trkpt lat="47.78658" lon="2.15167">
        <ele>136</ele>
        <time>2016-12-04T07:56:07.276Z</time>
      </trkpt>
      <trkpt lat="47.78655" lon="2.15167">
        <ele>136</ele>
        <time>2016-12-04T07:56:08.280Z</time>
      </trkpt>
      <trkpt lat="47.78655" lon="2.15167">
        <ele>136</ele>
        <time>2016-12-04T07:56:09.277Z</time>
      </trkpt>
      <trkpt lat="47.78651" lon="2.15166">
        <ele>136</ele>
        <time>2016-12-04T07:56:10.280Z</time>
      </trkpt>
      <trkpt lat="47.78651" lon="2.15166">
        <ele>136</ele>
        <time>2016-12-04T07:56:11.277Z</time>
      </trkpt>
      <trkpt lat="47.78648" lon="2.15166">
        <ele>136</ele>
        <time>2016-12-04T07:56:12.279Z</time>
      </trkpt>
      <trkpt lat="47.78648" lon="2.15166">
        <ele>136</ele>
        <time>2016-12-04T07:56:13.277Z</time>
      </trkpt>
      <trkpt lat="47.78648" lon="2.1517">
        <ele>136</ele>
        <time>2016-12-04T07:56:14.280Z</time>
      </trkpt>
      <trkpt lat="47.7865" lon="2.1517">
        <ele>136</ele>
        <time>2016-12-04T07:56:15.279Z</time>
      </trkpt>
      <trkpt lat="47.7865" lon="2.1517">
        <ele>136</ele>
        <time>2016-12-04T07:56:16.280Z</time>
      </trkpt>
      <trkpt lat="47.78652" lon="2.15168">
        <ele>135</ele>
        <time>2016-12-04T07:56:17.280Z</time>
      </trkpt>
      <trkpt lat="47.78652" lon="2.15168">
        <ele>135</ele>
        <time>2016-12-04T07:56:18.275Z</time>
      </trkpt>
      <trkpt lat="47.78656" lon="2.15166">
        <ele>135</ele>
        <time>2016-12-04T07:56:19.279Z</time>
      </trkpt>
      <trkpt lat="47.78658" lon="2.15165">
        <ele>135</ele>
        <time>2016-12-04T07:56:20.243Z</time>
      </trkpt>
      <trkpt lat="47.78658" lon="2.15165">
        <ele>135</ele>
        <time>2016-12-04T07:56:21.277Z</time>
      </trkpt>
      <trkpt lat="47.78662" lon="2.15164">
        <ele>135</ele>
        <time>2016-12-04T07:56:22.280Z</time>
      </trkpt>
      <trkpt lat="47.78662" lon="2.15164">
        <ele>135</ele>
        <time>2016-12-04T07:56:23.277Z</time>
      </trkpt>
      <trkpt lat="47.78666" lon="2.15164">
        <ele>133</ele>
        <time>2016-12-04T07:56:24.279Z</time>
      </trkpt>
      <trkpt lat="47.78666" lon="2.15164">
        <ele>133</ele>
        <time>2016-12-04T07:56:25.276Z</time>
      </trkpt>
      <trkpt lat="47.7867" lon="2.15162">
        <ele>133</ele>
        <time>2016-12-04T07:56:26.273Z</time>
      </trkpt>
      <trkpt lat="47.78672" lon="2.1516">
        <ele>132</ele>
        <time>2016-12-04T07:56:27.281Z</time>
      </trkpt>
      <trkpt lat="47.78675" lon="2.15159">
        <ele>132</ele>
        <time>2016-12-04T07:56:28.280Z</time>
      </trkpt>
      <trkpt lat="47.78675" lon="2.15159">
        <ele>132</ele>
        <time>2016-12-04T07:56:29.277Z</time>
      </trkpt>
      <trkpt lat="47.78679" lon="2.15158">
        <ele>133</ele>
        <time>2016-12-04T07:56:30.279Z</time>
      </trkpt>
      <trkpt lat="47.78679" lon="2.15158">
        <ele>133</ele>
        <time>2016-12-04T07:56:31.274Z</time>
      </trkpt>
      <trkpt lat="47.78684" lon="2.15157">
        <ele>133</ele>
        <time>2016-12-04T07:56:32.280Z</time>
      </trkpt>
      <trkpt lat="47.78684" lon="2.15157">
        <ele>133</ele>
        <time>2016-12-04T07:56:33.277Z</time>
      </trkpt>
      <trkpt lat="47.78687" lon="2.15155">
        <ele>132</ele>
        <time>2016-12-04T07:56:34.261Z</time>
      </trkpt>
      <trkpt lat="47.78687" lon="2.15155">
        <ele>132</ele>
        <time>2016-12-04T07:56:35.253Z</time>
      </trkpt>
      <trkpt lat="47.78686" lon="2.15152">
        <ele>132</ele>
        <time>2016-12-04T07:56:36.282Z</time>
      </trkpt>
      <trkpt lat="47.78686" lon="2.15152">
        <ele>132</ele>
        <time>2016-12-04T07:56:37.280Z</time>
      </trkpt>
      <trkpt lat="47.78683" lon="2.15153">
        <ele>132</ele>
        <time>2016-12-04T07:56:38.280Z</time>
      </trkpt>
      <trkpt lat="47.78683" lon="2.15153">
        <ele>132</ele>
        <time>2016-12-04T07:56:39.278Z</time>
      </trkpt>
      <trkpt lat="47.78679" lon="2.15155">
        <ele>132</ele>
        <time>2016-12-04T07:56:40.281Z</time>
      </trkpt>
      <trkpt lat="47.78679" lon="2.15155">
        <ele>132</ele>
        <time>2016-12-04T07:56:41.277Z</time>
      </trkpt>
      <trkpt lat="47.78672" lon="2.15157">
        <ele>131</ele>
        <time>2016-12-04T07:56:42.282Z</time>
      </trkpt>
      <trkpt lat="47.78669" lon="2.15157">
        <ele>131</ele>
        <time>2016-12-04T07:56:43.280Z</time>
      </trkpt>
      <trkpt lat="47.78669" lon="2.15157">
        <ele>131</ele>
        <time>2016-12-04T07:56:44.277Z</time>
      </trkpt>
      <trkpt lat="47.78663" lon="2.15158">
        <ele>131</ele>
        <time>2016-12-04T07:56:45.280Z</time>
      </trkpt>
      <trkpt lat="47.78663" lon="2.15158">
        <ele>131</ele>
        <time>2016-12-04T07:56:46.272Z</time>
      </trkpt>
      <trkpt lat="47.78657" lon="2.15159">
        <ele>131</ele>
        <time>2016-12-04T07:56:47.276Z</time>
      </trkpt>
      <trkpt lat="47.78653" lon="2.1516">
        <ele>131</ele>
        <time>2016-12-04T07:56:48.280Z</time>
      </trkpt>
      <trkpt lat="47.78653" lon="2.1516">
        <ele>131</ele>
        <time>2016-12-04T07:56:49.276Z</time>
      </trkpt>
      <trkpt lat="47.78647" lon="2.1516">
        <ele>130</ele>
        <time>2016-12-04T07:56:50.277Z</time>
      </trkpt>
      <trkpt lat="47.78643" lon="2.15161">
        <ele>131</ele>
        <time>2016-12-04T07:56:51.279Z</time>
      </trkpt>
      <trkpt lat="47.78643" lon="2.15161">
        <ele>131</ele>
        <time>2016-12-04T07:56:52.277Z</time>
      </trkpt>
      <trkpt lat="47.78637" lon="2.15163">
        <ele>131</ele>
        <time>2016-12-04T07:56:53.279Z</time>
      </trkpt>
      <trkpt lat="47.78637" lon="2.15163">
        <ele>131</ele>
        <time>2016-12-04T07:56:54.276Z</time>
      </trkpt>
      <trkpt lat="47.78631" lon="2.15163">
        <ele>131</ele>
        <time>2016-12-04T07:56:55.279Z</time>
      </trkpt>
      <trkpt lat="47.78627" lon="2.15163">
        <ele>132</ele>
        <time>2016-12-04T07:56:56.280Z</time>
      </trkpt>
      <trkpt lat="47.78627" lon="2.15163">
        <ele>132</ele>
        <time>2016-12-04T07:56:57.278Z</time>
      </trkpt>
      <trkpt lat="47.78621" lon="2.15163">
        <ele>134</ele>
        <time>2016-12-04T07:56:58.265Z</time>
      </trkpt>
      <trkpt lat="47.78621" lon="2.15163">
        <ele>134</ele>
        <time>2016-12-04T07:56:59.254Z</time>
      </trkpt>
      <trkpt lat="47.78615" lon="2.15163">
        <ele>135</ele>
        <time>2016-12-04T07:57:00.245Z</time>
      </trkpt>
      <trkpt lat="47.78615" lon="2.15163">
        <ele>135</ele>
        <time>2016-12-04T07:57:01.278Z</time>
      </trkpt>
      <trkpt lat="47.78607" lon="2.15162">
        <ele>135</ele>
        <time>2016-12-04T07:57:02.280Z</time>
      </trkpt>
      <trkpt lat="47.78607" lon="2.15162">
        <ele>135</ele>
        <time>2016-12-04T07:57:03.277Z</time>
      </trkpt>
      <trkpt lat="47.78601" lon="2.15162">
        <ele>135</ele>
        <time>2016-12-04T07:57:04.280Z</time>
      </trkpt>
      <trkpt lat="47.78601" lon="2.15162">
        <ele>135</ele>
        <time>2016-12-04T07:57:05.277Z</time>
      </trkpt>
      <trkpt lat="47.78593" lon="2.15162">
        <ele>135</ele>
        <time>2016-12-04T07:57:06.279Z</time>
      </trkpt>
      <trkpt lat="47.78593" lon="2.15162">
        <ele>135</ele>
        <time>2016-12-04T07:57:07.276Z</time>
      </trkpt>
      <trkpt lat="47.78586" lon="2.15163">
        <ele>135</ele>
        <time>2016-12-04T07:57:08.281Z</time>
      </trkpt>
      <trkpt lat="47.78586" lon="2.15163">
        <ele>135</ele>
        <time>2016-12-04T07:57:09.277Z</time>
      </trkpt>
      <trkpt lat="47.78578" lon="2.15164">
        <ele>135</ele>
        <time>2016-12-04T07:57:10.279Z</time>
      </trkpt>
      <trkpt lat="47.78578" lon="2.15164">
        <ele>135</ele>
        <time>2016-12-04T07:57:11.274Z</time>
      </trkpt>
      <trkpt lat="47.78571" lon="2.15163">
        <ele>135</ele>
        <time>2016-12-04T07:57:12.279Z</time>
      </trkpt>
      <trkpt lat="47.78571" lon="2.15163">
        <ele>135</ele>
        <time>2016-12-04T07:57:13.276Z</time>
      </trkpt>
      <trkpt lat="47.78563" lon="2.15162">
        <ele>135</ele>
        <time>2016-12-04T07:57:14.281Z</time>
      </trkpt>
      <trkpt lat="47.78563" lon="2.15162">
        <ele>135</ele>
        <time>2016-12-04T07:57:15.276Z</time>
      </trkpt>
      <trkpt lat="47.78556" lon="2.15162">
        <ele>136</ele>
        <time>2016-12-04T07:57:16.272Z</time>
      </trkpt>
      <trkpt lat="47.78553" lon="2.15162">
        <ele>136</ele>
        <time>2016-12-04T07:57:17.281Z</time>
      </trkpt>
      <trkpt lat="47.78549" lon="2.15162">
        <ele>137</ele>
        <time>2016-12-04T07:57:18.280Z</time>
      </trkpt>
      <trkpt lat="47.78549" lon="2.15162">
        <ele>137</ele>
        <time>2016-12-04T07:57:19.278Z</time>
      </trkpt>
      <trkpt lat="47.78543" lon="2.15161">
        <ele>138</ele>
        <time>2016-12-04T07:57:20.246Z</time>
      </trkpt>
      <trkpt lat="47.78543" lon="2.15161">
        <ele>138</ele>
        <time>2016-12-04T07:57:21.277Z</time>
      </trkpt>
      <trkpt lat="47.78537" lon="2.15161">
        <ele>140</ele>
        <time>2016-12-04T07:57:22.280Z</time>
      </trkpt>
      <trkpt lat="47.78537" lon="2.15161">
        <ele>140</ele>
        <time>2016-12-04T07:57:23.277Z</time>
      </trkpt>
      <trkpt lat="47.78531" lon="2.15161">
        <ele>141</ele>
        <time>2016-12-04T07:57:24.279Z</time>
      </trkpt>
      <trkpt lat="47.78531" lon="2.15161">
        <ele>141</ele>
        <time>2016-12-04T07:57:25.280Z</time>
      </trkpt>
      <trkpt lat="47.78525" lon="2.15161">
        <ele>142</ele>
        <time>2016-12-04T07:57:26.281Z</time>
      </trkpt>
      <trkpt lat="47.78525" lon="2.15161">
        <ele>142</ele>
        <time>2016-12-04T07:57:27.280Z</time>
      </trkpt>
      <trkpt lat="47.78518" lon="2.15161">
        <ele>143</ele>
        <time>2016-12-04T07:57:28.281Z</time>
      </trkpt>
      <trkpt lat="47.78518" lon="2.15161">
        <ele>143</ele>
        <time>2016-12-04T07:57:29.275Z</time>
      </trkpt>
      <trkpt lat="47.7851" lon="2.15161">
        <ele>143</ele>
        <time>2016-12-04T07:57:30.280Z</time>
      </trkpt>
      <trkpt lat="47.7851" lon="2.15161">
        <ele>143</ele>
        <time>2016-12-04T07:57:31.277Z</time>
      </trkpt>
      <trkpt lat="47.78504" lon="2.15162">
        <ele>143</ele>
        <time>2016-12-04T07:57:32.280Z</time>
      </trkpt>
      <trkpt lat="47.78504" lon="2.15162">
        <ele>143</ele>
        <time>2016-12-04T07:57:33.274Z</time>
      </trkpt>
      <trkpt lat="47.78497" lon="2.15162">
        <ele>143</ele>
        <time>2016-12-04T07:57:34.280Z</time>
      </trkpt>
      <trkpt lat="47.78497" lon="2.15162">
        <ele>143</ele>
        <time>2016-12-04T07:57:35.277Z</time>
      </trkpt>
      <trkpt lat="47.7849" lon="2.15161">
        <ele>143</ele>
        <time>2016-12-04T07:57:36.280Z</time>
      </trkpt>
      <trkpt lat="47.7849" lon="2.15161">
        <ele>143</ele>
        <time>2016-12-04T07:57:37.281Z</time>
      </trkpt>
      <trkpt lat="47.78483" lon="2.15161">
        <ele>142</ele>
        <time>2016-12-04T07:57:38.279Z</time>
      </trkpt>
      <trkpt lat="47.78483" lon="2.15161">
        <ele>142</ele>
        <time>2016-12-04T07:57:39.276Z</time>
      </trkpt>
      <trkpt lat="47.78476" lon="2.15161">
        <ele>142</ele>
        <time>2016-12-04T07:57:40.280Z</time>
      </trkpt>
      <trkpt lat="47.78476" lon="2.15161">
        <ele>142</ele>
        <time>2016-12-04T07:57:41.277Z</time>
      </trkpt>
      <trkpt lat="47.78469" lon="2.15161">
        <ele>141</ele>
        <time>2016-12-04T07:57:42.273Z</time>
      </trkpt>
      <trkpt lat="47.78469" lon="2.15161">
        <ele>141</ele>
        <time>2016-12-04T07:57:43.278Z</time>
      </trkpt>
      <trkpt lat="47.78462" lon="2.1516">
        <ele>142</ele>
        <time>2016-12-04T07:57:44.279Z</time>
      </trkpt>
      <trkpt lat="47.78462" lon="2.1516">
        <ele>142</ele>
        <time>2016-12-04T07:57:45.277Z</time>
      </trkpt>
      <trkpt lat="47.78455" lon="2.1516">
        <ele>143</ele>
        <time>2016-12-04T07:57:46.280Z</time>
      </trkpt>
      <trkpt lat="47.78455" lon="2.1516">
        <ele>143</ele>
        <time>2016-12-04T07:57:47.281Z</time>
      </trkpt>
      <trkpt lat="47.78448" lon="2.1516">
        <ele>144</ele>
        <time>2016-12-04T07:57:48.280Z</time>
      </trkpt>
      <trkpt lat="47.78448" lon="2.1516">
        <ele>144</ele>
        <time>2016-12-04T07:57:49.278Z</time>
      </trkpt>
      <trkpt lat="47.7844" lon="2.1516">
        <ele>145</ele>
        <time>2016-12-04T07:57:50.280Z</time>
      </trkpt>
      <trkpt lat="47.7844" lon="2.1516">
        <ele>145</ele>
        <time>2016-12-04T07:57:51.277Z</time>
      </trkpt>
      <trkpt lat="47.78433" lon="2.15158">
        <ele>146</ele>
        <time>2016-12-04T07:57:52.280Z</time>
      </trkpt>
      <trkpt lat="47.78433" lon="2.15158">
        <ele>146</ele>
        <time>2016-12-04T07:57:53.275Z</time>
      </trkpt>
      <trkpt lat="47.78424" lon="2.15157">
        <ele>145</ele>
        <time>2016-12-04T07:57:54.280Z</time>
      </trkpt>
      <trkpt lat="47.78424" lon="2.15157">
        <ele>145</ele>
        <time>2016-12-04T07:57:55.276Z</time>
      </trkpt>
      <trkpt lat="47.78415" lon="2.15155">
        <ele>145</ele>
        <time>2016-12-04T07:57:56.278Z</time>
      </trkpt>
      <trkpt lat="47.78415" lon="2.15155">
        <ele>145</ele>
        <time>2016-12-04T07:57:57.277Z</time>
      </trkpt>
      <trkpt lat="47.78406" lon="2.15153">
        <ele>145</ele>
        <time>2016-12-04T07:57:58.280Z</time>
      </trkpt>
      <trkpt lat="47.78406" lon="2.15153">
        <ele>145</ele>
        <time>2016-12-04T07:57:59.276Z</time>
      </trkpt>
      <trkpt lat="47.78398" lon="2.1515">
        <ele>145</ele>
        <time>2016-12-04T07:58:00.279Z</time>
      </trkpt>
      <trkpt lat="47.78394" lon="2.15149">
        <ele>145</ele>
        <time>2016-12-04T07:58:01.280Z</time>
      </trkpt>
      <trkpt lat="47.78394" lon="2.15149">
        <ele>145</ele>
        <time>2016-12-04T07:58:02.278Z</time>
      </trkpt>
      <trkpt lat="47.78385" lon="2.15146">
        <ele>145</ele>
        <time>2016-12-04T07:58:03.279Z</time>
      </trkpt>
      <trkpt lat="47.7838" lon="2.15146">
        <ele>145</ele>
        <time>2016-12-04T07:58:04.281Z</time>
      </trkpt>
      <trkpt lat="47.7838" lon="2.15146">
        <ele>145</ele>
        <time>2016-12-04T07:58:05.275Z</time>
      </trkpt>
      <trkpt lat="47.78371" lon="2.15144">
        <ele>145</ele>
        <time>2016-12-04T07:58:06.273Z</time>
      </trkpt>
      <trkpt lat="47.78371" lon="2.15144">
        <ele>145</ele>
        <time>2016-12-04T07:58:07.278Z</time>
      </trkpt>
      <trkpt lat="47.78361" lon="2.1514">
        <ele>146</ele>
        <time>2016-12-04T07:58:08.281Z</time>
      </trkpt>
      <trkpt lat="47.78361" lon="2.1514">
        <ele>146</ele>
        <time>2016-12-04T07:58:09.274Z</time>
      </trkpt>
      <trkpt lat="47.78352" lon="2.15137">
        <ele>146</ele>
        <time>2016-12-04T07:58:10.281Z</time>
      </trkpt>
      <trkpt lat="47.78352" lon="2.15137">
        <ele>146</ele>
        <time>2016-12-04T07:58:11.278Z</time>
      </trkpt>
      <trkpt lat="47.78343" lon="2.15135">
        <ele>146</ele>
        <time>2016-12-04T07:58:12.279Z</time>
      </trkpt>
      <trkpt lat="47.78343" lon="2.15135">
        <ele>146</ele>
        <time>2016-12-04T07:58:13.277Z</time>
      </trkpt>
      <trkpt lat="47.78333" lon="2.15131">
        <ele>146</ele>
        <time>2016-12-04T07:58:14.281Z</time>
      </trkpt>
      <trkpt lat="47.78333" lon="2.15131">
        <ele>146</ele>
        <time>2016-12-04T07:58:15.277Z</time>
      </trkpt>
      <trkpt lat="47.78324" lon="2.15128">
        <ele>146</ele>
        <time>2016-12-04T07:58:16.280Z</time>
      </trkpt>
      <trkpt lat="47.78324" lon="2.15128">
        <ele>146</ele>
        <time>2016-12-04T07:58:17.279Z</time>
      </trkpt>
      <trkpt lat="47.78316" lon="2.15125">
        <ele>145</ele>
        <time>2016-12-04T07:58:18.279Z</time>
      </trkpt>
      <trkpt lat="47.78311" lon="2.15124">
        <ele>145</ele>
        <time>2016-12-04T07:58:19.278Z</time>
      </trkpt>
      <trkpt lat="47.78306" lon="2.15123">
        <ele>145</ele>
        <time>2016-12-04T07:58:20.281Z</time>
      </trkpt>
      <trkpt lat="47.78306" lon="2.15123">
        <ele>145</ele>
        <time>2016-12-04T07:58:21.276Z</time>
      </trkpt>
      <trkpt lat="47.78297" lon="2.15119">
        <ele>145</ele>
        <time>2016-12-04T07:58:22.277Z</time>
      </trkpt>
      <trkpt lat="47.78293" lon="2.15118">
        <ele>145</ele>
        <time>2016-12-04T07:58:23.279Z</time>
      </trkpt>
      <trkpt lat="47.78293" lon="2.15118">
        <ele>145</ele>
        <time>2016-12-04T07:58:24.280Z</time>
      </trkpt>
      <trkpt lat="47.78284" lon="2.15115">
        <ele>144</ele>
        <time>2016-12-04T07:58:25.279Z</time>
      </trkpt>
      <trkpt lat="47.78278" lon="2.15112">
        <ele>143</ele>
        <time>2016-12-04T07:58:26.243Z</time>
      </trkpt>
      <trkpt lat="47.78278" lon="2.15112">
        <ele>143</ele>
        <time>2016-12-04T07:58:27.275Z</time>
      </trkpt>
      <trkpt lat="47.78268" lon="2.15109">
        <ele>142</ele>
        <time>2016-12-04T07:58:28.274Z</time>
      </trkpt>
      <trkpt lat="47.78262" lon="2.15109">
        <ele>141</ele>
        <time>2016-12-04T07:58:29.281Z</time>
      </trkpt>
      <trkpt lat="47.78262" lon="2.15109">
        <ele>141</ele>
        <time>2016-12-04T07:58:30.277Z</time>
      </trkpt>
      <trkpt lat="47.78251" lon="2.1511">
        <ele>141</ele>
        <time>2016-12-04T07:58:31.279Z</time>
      </trkpt>
      <trkpt lat="47.78246" lon="2.15112">
        <ele>140</ele>
        <time>2016-12-04T07:58:32.281Z</time>
      </trkpt>
      <trkpt lat="47.78246" lon="2.15112">
        <ele>140</ele>
        <time>2016-12-04T07:58:33.277Z</time>
      </trkpt>
      <trkpt lat="47.78235" lon="2.15115">
        <ele>140</ele>
        <time>2016-12-04T07:58:34.278Z</time>
      </trkpt>
      <trkpt lat="47.78235" lon="2.15115">
        <ele>140</ele>
        <time>2016-12-04T07:58:35.268Z</time>
      </trkpt>
      <trkpt lat="47.78225" lon="2.15118">
        <ele>140</ele>
        <time>2016-12-04T07:58:36.281Z</time>
      </trkpt>
      <trkpt lat="47.78219" lon="2.1512">
        <ele>140</ele>
        <time>2016-12-04T07:58:37.279Z</time>
      </trkpt>
      <trkpt lat="47.78214" lon="2.15122">
        <ele>141</ele>
        <time>2016-12-04T07:58:38.252Z</time>
      </trkpt>
      <trkpt lat="47.78214" lon="2.15122">
        <ele>141</ele>
        <time>2016-12-04T07:58:39.279Z</time>
      </trkpt>
      <trkpt lat="47.78204" lon="2.15124">
        <ele>141</ele>
        <time>2016-12-04T07:58:40.281Z</time>
      </trkpt>
      <trkpt lat="47.78204" lon="2.15124">
        <ele>141</ele>
        <time>2016-12-04T07:58:41.250Z</time>
      </trkpt>
      <trkpt lat="47.78193" lon="2.15127">
        <ele>140</ele>
        <time>2016-12-04T07:58:42.252Z</time>
      </trkpt>
      <trkpt lat="47.78193" lon="2.15127">
        <ele>140</ele>
        <time>2016-12-04T07:58:43.280Z</time>
      </trkpt>
      <trkpt lat="47.78182" lon="2.1513">
        <ele>139</ele>
        <time>2016-12-04T07:58:44.279Z</time>
      </trkpt>
      <trkpt lat="47.78182" lon="2.1513">
        <ele>139</ele>
        <time>2016-12-04T07:58:45.274Z</time>
      </trkpt>
      <trkpt lat="47.78172" lon="2.15133">
        <ele>139</ele>
        <time>2016-12-04T07:58:46.273Z</time>
      </trkpt>
      <trkpt lat="47.78167" lon="2.15135">
        <ele>139</ele>
        <time>2016-12-04T07:58:47.280Z</time>
      </trkpt>
      <trkpt lat="47.78167" lon="2.15135">
        <ele>139</ele>
        <time>2016-12-04T07:58:48.282Z</time>
      </trkpt>
      <trkpt lat="47.78156" lon="2.15138">
        <ele>139</ele>
        <time>2016-12-04T07:58:49.277Z</time>
      </trkpt>
      <trkpt lat="47.78151" lon="2.1514">
        <ele>137</ele>
        <time>2016-12-04T07:58:50.282Z</time>
      </trkpt>
      <trkpt lat="47.78151" lon="2.1514">
        <ele>137</ele>
        <time>2016-12-04T07:58:51.277Z</time>
      </trkpt>
      <trkpt lat="47.78141" lon="2.15143">
        <ele>137</ele>
        <time>2016-12-04T07:58:52.281Z</time>
      </trkpt>
      <trkpt lat="47.78141" lon="2.15143">
        <ele>137</ele>
        <time>2016-12-04T07:58:53.277Z</time>
      </trkpt>
      <trkpt lat="47.78131" lon="2.15146">
        <ele>137</ele>
        <time>2016-12-04T07:58:54.280Z</time>
      </trkpt>
      <trkpt lat="47.78131" lon="2.15146">
        <ele>137</ele>
        <time>2016-12-04T07:58:55.277Z</time>
      </trkpt>
      <trkpt lat="47.7812" lon="2.15148">
        <ele>136</ele>
        <time>2016-12-04T07:58:56.282Z</time>
      </trkpt>
      <trkpt lat="47.7812" lon="2.15148">
        <ele>136</ele>
        <time>2016-12-04T07:58:57.276Z</time>
      </trkpt>
      <trkpt lat="47.78109" lon="2.15151">
        <ele>135</ele>
        <time>2016-12-04T07:58:58.245Z</time>
      </trkpt>
      <trkpt lat="47.78109" lon="2.15151">
        <ele>135</ele>
        <time>2016-12-04T07:58:59.277Z</time>
      </trkpt>
      <trkpt lat="47.78099" lon="2.15154">
        <ele>135</ele>
        <time>2016-12-04T07:59:00.279Z</time>
      </trkpt>
      <trkpt lat="47.78099" lon="2.15154">
        <ele>135</ele>
        <time>2016-12-04T07:59:01.276Z</time>
      </trkpt>
      <trkpt lat="47.78088" lon="2.15157">
        <ele>135</ele>
        <time>2016-12-04T07:59:02.245Z</time>
      </trkpt>
      <trkpt lat="47.78088" lon="2.15157">
        <ele>135</ele>
        <time>2016-12-04T07:59:03.275Z</time>
      </trkpt>
      <trkpt lat="47.78078" lon="2.1516">
        <ele>136</ele>
        <time>2016-12-04T07:59:04.280Z</time>
      </trkpt>
      <trkpt lat="47.78078" lon="2.1516">
        <ele>136</ele>
        <time>2016-12-04T07:59:05.277Z</time>
      </trkpt>
      <trkpt lat="47.78067" lon="2.15163">
        <ele>135</ele>
        <time>2016-12-04T07:59:06.280Z</time>
      </trkpt>
      <trkpt lat="47.78067" lon="2.15163">
        <ele>135</ele>
        <time>2016-12-04T07:59:07.274Z</time>
      </trkpt>
      <trkpt lat="47.78056" lon="2.15166">
        <ele>135</ele>
        <time>2016-12-04T07:59:08.249Z</time>
      </trkpt>
      <trkpt lat="47.78056" lon="2.15166">
        <ele>135</ele>
        <time>2016-12-04T07:59:09.277Z</time>
      </trkpt>
      <trkpt lat="47.78045" lon="2.15168">
        <ele>134</ele>
        <time>2016-12-04T07:59:10.277Z</time>
      </trkpt>
      <trkpt lat="47.78045" lon="2.15168">
        <ele>134</ele>
        <time>2016-12-04T07:59:11.268Z</time>
      </trkpt>
      <trkpt lat="47.78034" lon="2.15167">
        <ele>134</ele>
        <time>2016-12-04T07:59:12.255Z</time>
      </trkpt>
      <trkpt lat="47.78034" lon="2.15167">
        <ele>134</ele>
        <time>2016-12-04T07:59:13.243Z</time>
      </trkpt>
      <trkpt lat="47.78023" lon="2.15166">
        <ele>134</ele>
        <time>2016-12-04T07:59:14.279Z</time>
      </trkpt>
      <trkpt lat="47.78023" lon="2.15166">
        <ele>134</ele>
        <time>2016-12-04T07:59:15.277Z</time>
      </trkpt>
      <trkpt lat="47.78012" lon="2.15165">
        <ele>134</ele>
        <time>2016-12-04T07:59:16.273Z</time>
      </trkpt>
      <trkpt lat="47.78006" lon="2.15164">
        <ele>133</ele>
        <time>2016-12-04T07:59:17.280Z</time>
      </trkpt>
      <trkpt lat="47.78001" lon="2.15164">
        <ele>133</ele>
        <time>2016-12-04T07:59:18.284Z</time>
      </trkpt>
      <trkpt lat="47.78001" lon="2.15164">
        <ele>133</ele>
        <time>2016-12-04T07:59:19.277Z</time>
      </trkpt>
      <trkpt lat="47.7799" lon="2.15162">
        <ele>133</ele>
        <time>2016-12-04T07:59:20.281Z</time>
      </trkpt>
      <trkpt lat="47.7799" lon="2.15162">
        <ele>133</ele>
        <time>2016-12-04T07:59:21.277Z</time>
      </trkpt>
      <trkpt lat="47.77979" lon="2.15161">
        <ele>133</ele>
        <time>2016-12-04T07:59:22.281Z</time>
      </trkpt>
      <trkpt lat="47.77979" lon="2.15161">
        <ele>133</ele>
        <time>2016-12-04T07:59:23.277Z</time>
      </trkpt>
      <trkpt lat="47.77967" lon="2.1516">
        <ele>133</ele>
        <time>2016-12-04T07:59:24.279Z</time>
      </trkpt>
      <trkpt lat="47.77967" lon="2.1516">
        <ele>133</ele>
        <time>2016-12-04T07:59:25.275Z</time>
      </trkpt>
      <trkpt lat="47.77957" lon="2.15159">
        <ele>132</ele>
        <time>2016-12-04T07:59:26.248Z</time>
      </trkpt>
      <trkpt lat="47.77957" lon="2.15159">
        <ele>132</ele>
        <time>2016-12-04T07:59:27.278Z</time>
      </trkpt>
      <trkpt lat="47.77945" lon="2.15158">
        <ele>132</ele>
        <time>2016-12-04T07:59:28.280Z</time>
      </trkpt>
      <trkpt lat="47.77945" lon="2.15158">
        <ele>132</ele>
        <time>2016-12-04T07:59:29.277Z</time>
      </trkpt>
      <trkpt lat="47.77934" lon="2.15156">
        <ele>130</ele>
        <time>2016-12-04T07:59:30.279Z</time>
      </trkpt>
      <trkpt lat="47.77934" lon="2.15156">
        <ele>130</ele>
        <time>2016-12-04T07:59:31.277Z</time>
      </trkpt>
      <trkpt lat="47.77922" lon="2.15154">
        <ele>129</ele>
        <time>2016-12-04T07:59:32.282Z</time>
      </trkpt>
      <trkpt lat="47.77922" lon="2.15154">
        <ele>129</ele>
        <time>2016-12-04T07:59:33.258Z</time>
      </trkpt>
      <trkpt lat="47.77909" lon="2.15153">
        <ele>128</ele>
        <time>2016-12-04T07:59:34.249Z</time>
      </trkpt>
      <trkpt lat="47.77909" lon="2.15153">
        <ele>128</ele>
        <time>2016-12-04T07:59:35.278Z</time>
      </trkpt>
      <trkpt lat="47.77896" lon="2.15152">
        <ele>127</ele>
        <time>2016-12-04T07:59:36.273Z</time>
      </trkpt>
      <trkpt lat="47.77889" lon="2.15151">
        <ele>126</ele>
        <time>2016-12-04T07:59:37.243Z</time>
      </trkpt>
      <trkpt lat="47.77882" lon="2.15151">
        <ele>126</ele>
        <time>2016-12-04T07:59:38.282Z</time>
      </trkpt>
      <trkpt lat="47.77882" lon="2.15151">
        <ele>126</ele>
        <time>2016-12-04T07:59:39.277Z</time>
      </trkpt>
      <trkpt lat="47.77868" lon="2.1515">
        <ele>125</ele>
        <time>2016-12-04T07:59:40.281Z</time>
      </trkpt>
      <trkpt lat="47.77868" lon="2.1515">
        <ele>125</ele>
        <time>2016-12-04T07:59:41.275Z</time>
      </trkpt>
      <trkpt lat="47.77855" lon="2.15148">
        <ele>125</ele>
        <time>2016-12-04T07:59:42.243Z</time>
      </trkpt>
      <trkpt lat="47.77848" lon="2.15148">
        <ele>125</ele>
        <time>2016-12-04T07:59:43.280Z</time>
      </trkpt>
      <trkpt lat="47.77841" lon="2.15147">
        <ele>125</ele>
        <time>2016-12-04T07:59:44.282Z</time>
      </trkpt>
      <trkpt lat="47.77841" lon="2.15147">
        <ele>125</ele>
        <time>2016-12-04T07:59:45.277Z</time>
      </trkpt>
      <trkpt lat="47.77828" lon="2.15145">
        <ele>125</ele>
        <time>2016-12-04T07:59:46.277Z</time>
      </trkpt>
      <trkpt lat="47.77821" lon="2.15145">
        <ele>125</ele>
        <time>2016-12-04T07:59:47.257Z</time>
      </trkpt>
      <trkpt lat="47.77821" lon="2.15145">
        <ele>125</ele>
        <time>2016-12-04T07:59:48.246Z</time>
      </trkpt>
      <trkpt lat="47.77809" lon="2.15145">
        <ele>125</ele>
        <time>2016-12-04T07:59:49.247Z</time>
      </trkpt>
      <trkpt lat="47.77803" lon="2.15145">
        <ele>126</ele>
        <time>2016-12-04T07:59:50.281Z</time>
      </trkpt>
      <trkpt lat="47.77797" lon="2.15145">
        <ele>126</ele>
        <time>2016-12-04T07:59:51.279Z</time>
      </trkpt>
      <trkpt lat="47.77797" lon="2.15145">
        <ele>126</ele>
        <time>2016-12-04T07:59:52.282Z</time>
      </trkpt>
      <trkpt lat="47.77786" lon="2.15143">
        <ele>127</ele>
        <time>2016-12-04T07:59:53.280Z</time>
      </trkpt>
      <trkpt lat="47.77786" lon="2.15143">
        <ele>127</ele>
        <time>2016-12-04T07:59:54.277Z</time>
      </trkpt>
      <trkpt lat="47.77776" lon="2.15136">
        <ele>126</ele>
        <time>2016-12-04T07:59:55.280Z</time>
      </trkpt>
      <trkpt lat="47.77772" lon="2.1513">
        <ele>125</ele>
        <time>2016-12-04T07:59:56.282Z</time>
      </trkpt>
      <trkpt lat="47.77772" lon="2.1513">
        <ele>125</ele>
        <time>2016-12-04T07:59:57.268Z</time>
      </trkpt>
      <trkpt lat="47.77764" lon="2.15116">
        <ele>126</ele>
        <time>2016-12-04T07:59:58.259Z</time>
      </trkpt>
      <trkpt lat="47.77764" lon="2.15116">
        <ele>126</ele>
        <time>2016-12-04T07:59:59.252Z</time>
      </trkpt>
      <trkpt lat="47.77756" lon="2.15101">
        <ele>126</ele>
        <time>2016-12-04T08:00:00.281Z</time>
      </trkpt>
      <trkpt lat="47.77756" lon="2.15101">
        <ele>126</ele>
        <time>2016-12-04T08:00:01.277Z</time>
      </trkpt>
      <trkpt lat="47.77748" lon="2.15085">
        <ele>124</ele>
        <time>2016-12-04T08:00:02.247Z</time>
      </trkpt>
      <trkpt lat="47.77748" lon="2.15085">
        <ele>124</ele>
        <time>2016-12-04T08:00:03.244Z</time>
      </trkpt>
      <trkpt lat="47.77739" lon="2.15067">
        <ele>124</ele>
        <time>2016-12-04T08:00:04.280Z</time>
      </trkpt>
      <trkpt lat="47.77739" lon="2.15067">
        <ele>124</ele>
        <time>2016-12-04T08:00:05.277Z</time>
      </trkpt>
      <trkpt lat="47.77729" lon="2.15048">
        <ele>123</ele>
        <time>2016-12-04T08:00:06.281Z</time>
      </trkpt>
      <trkpt lat="47.77729" lon="2.15048">
        <ele>123</ele>
        <time>2016-12-04T08:00:07.279Z</time>
      </trkpt>
      <trkpt lat="47.7772" lon="2.15029">
        <ele>121</ele>
        <time>2016-12-04T08:00:08.243Z</time>
      </trkpt>
      <trkpt lat="47.7772" lon="2.15029">
        <ele>121</ele>
        <time>2016-12-04T08:00:09.280Z</time>
      </trkpt>
      <trkpt lat="47.7771" lon="2.15009">
        <ele>119</ele>
        <time>2016-12-04T08:00:10.278Z</time>
      </trkpt>
      <trkpt lat="47.7771" lon="2.15009">
        <ele>119</ele>
        <time>2016-12-04T08:00:11.277Z</time>
      </trkpt>
      <trkpt lat="47.777" lon="2.1499">
        <ele>119</ele>
        <time>2016-12-04T08:00:12.277Z</time>
      </trkpt>
      <trkpt lat="47.777" lon="2.1499">
        <ele>119</ele>
        <time>2016-12-04T08:00:13.275Z</time>
      </trkpt>
      <trkpt lat="47.7769" lon="2.14971">
        <ele>118</ele>
        <time>2016-12-04T08:00:14.281Z</time>
      </trkpt>
      <trkpt lat="47.7769" lon="2.14971">
        <ele>118</ele>
        <time>2016-12-04T08:00:15.277Z</time>
      </trkpt>
      <trkpt lat="47.77678" lon="2.14954">
        <ele>117</ele>
        <time>2016-12-04T08:00:16.274Z</time>
      </trkpt>
      <trkpt lat="47.77672" lon="2.14948">
        <ele>117</ele>
        <time>2016-12-04T08:00:17.280Z</time>
      </trkpt>
      <trkpt lat="47.77665" lon="2.14943">
        <ele>117</ele>
        <time>2016-12-04T08:00:18.281Z</time>
      </trkpt>
      <trkpt lat="47.77665" lon="2.14943">
        <ele>117</ele>
        <time>2016-12-04T08:00:19.281Z</time>
      </trkpt>
      <trkpt lat="47.77651" lon="2.14936">
        <ele>118</ele>
        <time>2016-12-04T08:00:20.282Z</time>
      </trkpt>
      <trkpt lat="47.77651" lon="2.14936">
        <ele>118</ele>
        <time>2016-12-04T08:00:21.275Z</time>
      </trkpt>
      <trkpt lat="47.77638" lon="2.14931">
        <ele>119</ele>
        <time>2016-12-04T08:00:22.281Z</time>
      </trkpt>
      <trkpt lat="47.77632" lon="2.14928">
        <ele>120</ele>
        <time>2016-12-04T08:00:23.281Z</time>
      </trkpt>
      <trkpt lat="47.77625" lon="2.14926">
        <ele>120</ele>
        <time>2016-12-04T08:00:24.282Z</time>
      </trkpt>
      <trkpt lat="47.77625" lon="2.14926">
        <ele>120</ele>
        <time>2016-12-04T08:00:25.278Z</time>
      </trkpt>
      <trkpt lat="47.77614" lon="2.14922">
        <ele>122</ele>
        <time>2016-12-04T08:00:26.275Z</time>
      </trkpt>
      <trkpt lat="47.77614" lon="2.14922">
        <ele>122</ele>
        <time>2016-12-04T08:00:27.278Z</time>
      </trkpt>
      <trkpt lat="47.77602" lon="2.14919">
        <ele>123</ele>
        <time>2016-12-04T08:00:28.280Z</time>
      </trkpt>
      <trkpt lat="47.77597" lon="2.14918">
        <ele>123</ele>
        <time>2016-12-04T08:00:29.281Z</time>
      </trkpt>
      <trkpt lat="47.77597" lon="2.14918">
        <ele>123</ele>
        <time>2016-12-04T08:00:30.276Z</time>
      </trkpt>
      <trkpt lat="47.77585" lon="2.14914">
        <ele>123</ele>
        <time>2016-12-04T08:00:31.280Z</time>
      </trkpt>
      <trkpt lat="47.7758" lon="2.14913">
        <ele>123</ele>
        <time>2016-12-04T08:00:32.244Z</time>
      </trkpt>
      <trkpt lat="47.7758" lon="2.14913">
        <ele>123</ele>
        <time>2016-12-04T08:00:33.277Z</time>
      </trkpt>
      <trkpt lat="47.77571" lon="2.14916">
        <ele>122</ele>
        <time>2016-12-04T08:00:34.281Z</time>
      </trkpt>
      <trkpt lat="47.77566" lon="2.14919">
        <ele>122</ele>
        <time>2016-12-04T08:00:35.280Z</time>
      </trkpt>
      <trkpt lat="47.77566" lon="2.14919">
        <ele>122</ele>
        <time>2016-12-04T08:00:36.277Z</time>
      </trkpt>
      <trkpt lat="47.77559" lon="2.14929">
        <ele>122</ele>
        <time>2016-12-04T08:00:37.281Z</time>
      </trkpt>
      <trkpt lat="47.77557" lon="2.14936">
        <ele>122</ele>
        <time>2016-12-04T08:00:38.243Z</time>
      </trkpt>
      <trkpt lat="47.77557" lon="2.14936">
        <ele>122</ele>
        <time>2016-12-04T08:00:39.280Z</time>
      </trkpt>
      <trkpt lat="47.77554" lon="2.1495">
        <ele>121</ele>
        <time>2016-12-04T08:00:40.281Z</time>
      </trkpt>
      <trkpt lat="47.77554" lon="2.1495">
        <ele>121</ele>
        <time>2016-12-04T08:00:41.280Z</time>
      </trkpt>
      <trkpt lat="47.77552" lon="2.14965">
        <ele>122</ele>
        <time>2016-12-04T08:00:42.244Z</time>
      </trkpt>
      <trkpt lat="47.77552" lon="2.14965">
        <ele>122</ele>
        <time>2016-12-04T08:00:43.279Z</time>
      </trkpt>
      <trkpt lat="47.77549" lon="2.14979">
        <ele>122</ele>
        <time>2016-12-04T08:00:44.282Z</time>
      </trkpt>
      <trkpt lat="47.77548" lon="2.14986">
        <ele>122</ele>
        <time>2016-12-04T08:00:45.274Z</time>
      </trkpt>
      <trkpt lat="47.77548" lon="2.14986">
        <ele>122</ele>
        <time>2016-12-04T08:00:46.277Z</time>
      </trkpt>
      <trkpt lat="47.77545" lon="2.15">
        <ele>122</ele>
        <time>2016-12-04T08:00:47.280Z</time>
      </trkpt>
      <trkpt lat="47.77545" lon="2.15">
        <ele>122</ele>
        <time>2016-12-04T08:00:48.275Z</time>
      </trkpt>
      <trkpt lat="47.77541" lon="2.15015">
        <ele>121</ele>
        <time>2016-12-04T08:00:49.281Z</time>
      </trkpt>
      <trkpt lat="47.77541" lon="2.15015">
        <ele>121</ele>
        <time>2016-12-04T08:00:50.252Z</time>
      </trkpt>
      <trkpt lat="47.77538" lon="2.15029">
        <ele>121</ele>
        <time>2016-12-04T08:00:51.280Z</time>
      </trkpt>
      <trkpt lat="47.77537" lon="2.15036">
        <ele>121</ele>
        <time>2016-12-04T08:00:52.278Z</time>
      </trkpt>
      <trkpt lat="47.77537" lon="2.15036">
        <ele>121</ele>
        <time>2016-12-04T08:00:53.275Z</time>
      </trkpt>
      <trkpt lat="47.77534" lon="2.1505">
        <ele>121</ele>
        <time>2016-12-04T08:00:54.280Z</time>
      </trkpt>
      <trkpt lat="47.77534" lon="2.1505">
        <ele>121</ele>
        <time>2016-12-04T08:00:55.277Z</time>
      </trkpt>
      <trkpt lat="47.77531" lon="2.15064">
        <ele>121</ele>
        <time>2016-12-04T08:00:56.282Z</time>
      </trkpt>
      <trkpt lat="47.77531" lon="2.15064">
        <ele>121</ele>
        <time>2016-12-04T08:00:57.276Z</time>
      </trkpt>
      <trkpt lat="47.77528" lon="2.15079">
        <ele>121</ele>
        <time>2016-12-04T08:00:58.250Z</time>
      </trkpt>
      <trkpt lat="47.77528" lon="2.15079">
        <ele>121</ele>
        <time>2016-12-04T08:00:59.281Z</time>
      </trkpt>
      <trkpt lat="47.77524" lon="2.15093">
        <ele>121</ele>
        <time>2016-12-04T08:01:00.281Z</time>
      </trkpt>
      <trkpt lat="47.77524" lon="2.15093">
        <ele>121</ele>
        <time>2016-12-04T08:01:01.248Z</time>
      </trkpt>
      <trkpt lat="47.77522" lon="2.15107">
        <ele>122</ele>
        <time>2016-12-04T08:01:02.286Z</time>
      </trkpt>
      <trkpt lat="47.77522" lon="2.15107">
        <ele>122</ele>
        <time>2016-12-04T08:01:03.278Z</time>
      </trkpt>
      <trkpt lat="47.77518" lon="2.15121">
        <ele>122</ele>
        <time>2016-12-04T08:01:04.281Z</time>
      </trkpt>
      <trkpt lat="47.77518" lon="2.15121">
        <ele>122</ele>
        <time>2016-12-04T08:01:05.259Z</time>
      </trkpt>
      <trkpt lat="47.77516" lon="2.15142">
        <ele>124</ele>
        <time>2016-12-04T08:01:06.248Z</time>
      </trkpt>
      <trkpt lat="47.77516" lon="2.15142">
        <ele>124</ele>
        <time>2016-12-04T08:01:07.278Z</time>
      </trkpt>
      <trkpt lat="47.77513" lon="2.15154">
        <ele>122</ele>
        <time>2016-12-04T08:01:08.243Z</time>
      </trkpt>
      <trkpt lat="47.77513" lon="2.15154">
        <ele>122</ele>
        <time>2016-12-04T08:01:09.278Z</time>
      </trkpt>
      <trkpt lat="47.7751" lon="2.15165">
        <ele>121</ele>
        <time>2016-12-04T08:01:10.282Z</time>
      </trkpt>
      <trkpt lat="47.77508" lon="2.15169">
        <ele>120</ele>
        <time>2016-12-04T08:01:11.281Z</time>
      </trkpt>
      <trkpt lat="47.77508" lon="2.15169">
        <ele>120</ele>
        <time>2016-12-04T08:01:12.279Z</time>
      </trkpt>
      <trkpt lat="47.77505" lon="2.15182">
        <ele>119</ele>
        <time>2016-12-04T08:01:13.282Z</time>
      </trkpt>
      <trkpt lat="47.77503" lon="2.15188">
        <ele>118</ele>
        <time>2016-12-04T08:01:14.243Z</time>
      </trkpt>
      <trkpt lat="47.77503" lon="2.15188">
        <ele>118</ele>
        <time>2016-12-04T08:01:15.276Z</time>
      </trkpt>
      <trkpt lat="47.77499" lon="2.15202">
        <ele>118</ele>
        <time>2016-12-04T08:01:16.257Z</time>
      </trkpt>
      <trkpt lat="47.77498" lon="2.15209">
        <ele>118</ele>
        <time>2016-12-04T08:01:17.254Z</time>
      </trkpt>
      <trkpt lat="47.77498" lon="2.15209">
        <ele>118</ele>
        <time>2016-12-04T08:01:18.244Z</time>
      </trkpt>
      <trkpt lat="47.77495" lon="2.15223">
        <ele>119</ele>
        <time>2016-12-04T08:01:19.281Z</time>
      </trkpt>
      <trkpt lat="47.77493" lon="2.1523">
        <ele>119</ele>
        <time>2016-12-04T08:01:20.282Z</time>
      </trkpt>
      <trkpt lat="47.77493" lon="2.1523">
        <ele>119</ele>
        <time>2016-12-04T08:01:21.278Z</time>
      </trkpt>
      <trkpt lat="47.77491" lon="2.15244">
        <ele>120</ele>
        <time>2016-12-04T08:01:22.281Z</time>
      </trkpt>
      <trkpt lat="47.77491" lon="2.15244">
        <ele>120</ele>
        <time>2016-12-04T08:01:23.275Z</time>
      </trkpt>
      <trkpt lat="47.77487" lon="2.15259">
        <ele>121</ele>
        <time>2016-12-04T08:01:24.249Z</time>
      </trkpt>
      <trkpt lat="47.77487" lon="2.15259">
        <ele>121</ele>
        <time>2016-12-04T08:01:25.281Z</time>
      </trkpt>
      <trkpt lat="47.77484" lon="2.15273">
        <ele>120</ele>
        <time>2016-12-04T08:01:26.243Z</time>
      </trkpt>
      <trkpt lat="47.77484" lon="2.15273">
        <ele>120</ele>
        <time>2016-12-04T08:01:27.278Z</time>
      </trkpt>
      <trkpt lat="47.7748" lon="2.15288">
        <ele>121</ele>
        <time>2016-12-04T08:01:28.282Z</time>
      </trkpt>
      <trkpt lat="47.7748" lon="2.15288">
        <ele>121</ele>
        <time>2016-12-04T08:01:29.247Z</time>
      </trkpt>
      <trkpt lat="47.77477" lon="2.15303">
        <ele>121</ele>
        <time>2016-12-04T08:01:30.243Z</time>
      </trkpt>
      <trkpt lat="47.77477" lon="2.15303">
        <ele>121</ele>
        <time>2016-12-04T08:01:31.278Z</time>
      </trkpt>
      <trkpt lat="47.77474" lon="2.15318">
        <ele>122</ele>
        <time>2016-12-04T08:01:32.243Z</time>
      </trkpt>
      <trkpt lat="47.77474" lon="2.15318">
        <ele>122</ele>
        <time>2016-12-04T08:01:33.278Z</time>
      </trkpt>
      <trkpt lat="47.7747" lon="2.15334">
        <ele>122</ele>
        <time>2016-12-04T08:01:34.281Z</time>
      </trkpt>
      <trkpt lat="47.7747" lon="2.15334">
        <ele>122</ele>
        <time>2016-12-04T08:01:35.278Z</time>
      </trkpt>
      <trkpt lat="47.77467" lon="2.1535">
        <ele>123</ele>
        <time>2016-12-04T08:01:36.274Z</time>
      </trkpt>
      <trkpt lat="47.77467" lon="2.1535">
        <ele>123</ele>
        <time>2016-12-04T08:01:37.262Z</time>
      </trkpt>
      <trkpt lat="47.77463" lon="2.15365">
        <ele>123</ele>
        <time>2016-12-04T08:01:38.251Z</time>
      </trkpt>
      <trkpt lat="47.77463" lon="2.15365">
        <ele>123</ele>
        <time>2016-12-04T08:01:39.279Z</time>
      </trkpt>
      <trkpt lat="47.7746" lon="2.1538">
        <ele>123</ele>
        <time>2016-12-04T08:01:40.279Z</time>
      </trkpt>
      <trkpt lat="47.77458" lon="2.15388">
        <ele>123</ele>
        <time>2016-12-04T08:01:41.256Z</time>
      </trkpt>
      <trkpt lat="47.77456" lon="2.15395">
        <ele>123</ele>
        <time>2016-12-04T08:01:42.251Z</time>
      </trkpt>
      <trkpt lat="47.77456" lon="2.15395">
        <ele>123</ele>
        <time>2016-12-04T08:01:43.279Z</time>
      </trkpt>
      <trkpt lat="47.77451" lon="2.1541">
        <ele>123</ele>
        <time>2016-12-04T08:01:44.282Z</time>
      </trkpt>
      <trkpt lat="47.77451" lon="2.1541">
        <ele>123</ele>
        <time>2016-12-04T08:01:45.278Z</time>
      </trkpt>
      <trkpt lat="47.77447" lon="2.15425">
        <ele>123</ele>
        <time>2016-12-04T08:01:46.280Z</time>
      </trkpt>
      <trkpt lat="47.77444" lon="2.15432">
        <ele>124</ele>
        <time>2016-12-04T08:01:47.281Z</time>
      </trkpt>
      <trkpt lat="47.77444" lon="2.15432">
        <ele>124</ele>
        <time>2016-12-04T08:01:48.278Z</time>
      </trkpt>
      <trkpt lat="47.77437" lon="2.15444">
        <ele>124</ele>
        <time>2016-12-04T08:01:49.281Z</time>
      </trkpt>
      <trkpt lat="47.77437" lon="2.15444">
        <ele>124</ele>
        <time>2016-12-04T08:01:50.244Z</time>
      </trkpt>
      <trkpt lat="47.77429" lon="2.15454">
        <ele>124</ele>
        <time>2016-12-04T08:01:51.253Z</time>
      </trkpt>
      <trkpt lat="47.77425" lon="2.15459">
        <ele>124</ele>
        <time>2016-12-04T08:01:52.245Z</time>
      </trkpt>
      <trkpt lat="47.77425" lon="2.15459">
        <ele>124</ele>
        <time>2016-12-04T08:01:53.279Z</time>
      </trkpt>
      <trkpt lat="47.77415" lon="2.15466">
        <ele>123</ele>
        <time>2016-12-04T08:01:54.281Z</time>
      </trkpt>
      <trkpt lat="47.77415" lon="2.15466">
        <ele>123</ele>
        <time>2016-12-04T08:01:55.276Z</time>
      </trkpt>
      <trkpt lat="47.77407" lon="2.15474">
        <ele>123</ele>
        <time>2016-12-04T08:01:56.276Z</time>
      </trkpt>
      <trkpt lat="47.77407" lon="2.15474">
        <ele>123</ele>
        <time>2016-12-04T08:01:57.279Z</time>
      </trkpt>
      <trkpt lat="47.77397" lon="2.15482">
        <ele>124</ele>
        <time>2016-12-04T08:01:58.282Z</time>
      </trkpt>
      <trkpt lat="47.77397" lon="2.15482">
        <ele>124</ele>
        <time>2016-12-04T08:01:59.277Z</time>
      </trkpt>
      <trkpt lat="47.77389" lon="2.15491">
        <ele>123</ele>
        <time>2016-12-04T08:02:00.280Z</time>
      </trkpt>
      <trkpt lat="47.77389" lon="2.15491">
        <ele>123</ele>
        <time>2016-12-04T08:02:01.278Z</time>
      </trkpt>
      <trkpt lat="47.77381" lon="2.15499">
        <ele>123</ele>
        <time>2016-12-04T08:02:02.243Z</time>
      </trkpt>
      <trkpt lat="47.77377" lon="2.15504">
        <ele>123</ele>
        <time>2016-12-04T08:02:03.276Z</time>
      </trkpt>
      <trkpt lat="47.77377" lon="2.15504">
        <ele>123</ele>
        <time>2016-12-04T08:02:04.276Z</time>
      </trkpt>
      <trkpt lat="47.7737" lon="2.15514">
        <ele>123</ele>
        <time>2016-12-04T08:02:05.281Z</time>
      </trkpt>
      <trkpt lat="47.77366" lon="2.1552">
        <ele>123</ele>
        <time>2016-12-04T08:02:06.282Z</time>
      </trkpt>
      <trkpt lat="47.77366" lon="2.1552">
        <ele>123</ele>
        <time>2016-12-04T08:02:07.278Z</time>
      </trkpt>
      <trkpt lat="47.77359" lon="2.15532">
        <ele>123</ele>
        <time>2016-12-04T08:02:08.252Z</time>
      </trkpt>
      <trkpt lat="47.77359" lon="2.15532">
        <ele>123</ele>
        <time>2016-12-04T08:02:09.280Z</time>
      </trkpt>
      <trkpt lat="47.77352" lon="2.15543">
        <ele>123</ele>
        <time>2016-12-04T08:02:10.256Z</time>
      </trkpt>
      <trkpt lat="47.77349" lon="2.15549">
        <ele>124</ele>
        <time>2016-12-04T08:02:11.245Z</time>
      </trkpt>
      <trkpt lat="47.77349" lon="2.15549">
        <ele>124</ele>
        <time>2016-12-04T08:02:12.276Z</time>
      </trkpt>
      <trkpt lat="47.77343" lon="2.15562">
        <ele>124</ele>
        <time>2016-12-04T08:02:13.279Z</time>
      </trkpt>
      <trkpt lat="47.77343" lon="2.15562">
        <ele>124</ele>
        <time>2016-12-04T08:02:14.280Z</time>
      </trkpt>
      <trkpt lat="47.77337" lon="2.15574">
        <ele>124</ele>
        <time>2016-12-04T08:02:15.282Z</time>
      </trkpt>
      <trkpt lat="47.77335" lon="2.1558">
        <ele>125</ele>
        <time>2016-12-04T08:02:16.282Z</time>
      </trkpt>
      <trkpt lat="47.77335" lon="2.1558">
        <ele>125</ele>
        <time>2016-12-04T08:02:17.276Z</time>
      </trkpt>
      <trkpt lat="47.77329" lon="2.15592">
        <ele>125</ele>
        <time>2016-12-04T08:02:18.281Z</time>
      </trkpt>
      <trkpt lat="47.77329" lon="2.15592">
        <ele>125</ele>
        <time>2016-12-04T08:02:19.278Z</time>
      </trkpt>
      <trkpt lat="47.77325" lon="2.15605">
        <ele>124</ele>
        <time>2016-12-04T08:02:20.245Z</time>
      </trkpt>
      <trkpt lat="47.77325" lon="2.15605">
        <ele>124</ele>
        <time>2016-12-04T08:02:21.275Z</time>
      </trkpt>
      <trkpt lat="47.7732" lon="2.15618">
        <ele>124</ele>
        <time>2016-12-04T08:02:22.281Z</time>
      </trkpt>
      <trkpt lat="47.7732" lon="2.15618">
        <ele>124</ele>
        <time>2016-12-04T08:02:23.278Z</time>
      </trkpt>
      <trkpt lat="47.77315" lon="2.15631">
        <ele>124</ele>
        <time>2016-12-04T08:02:24.282Z</time>
      </trkpt>
      <trkpt lat="47.77315" lon="2.15631">
        <ele>124</ele>
        <time>2016-12-04T08:02:25.278Z</time>
      </trkpt>
      <trkpt lat="47.77309" lon="2.15643">
        <ele>125</ele>
        <time>2016-12-04T08:02:26.277Z</time>
      </trkpt>
      <trkpt lat="47.77309" lon="2.15643">
        <ele>125</ele>
        <time>2016-12-04T08:02:27.279Z</time>
      </trkpt>
      <trkpt lat="47.77301" lon="2.15653">
        <ele>125</ele>
        <time>2016-12-04T08:02:28.282Z</time>
      </trkpt>
      <trkpt lat="47.77301" lon="2.15653">
        <ele>125</ele>
        <time>2016-12-04T08:02:29.279Z</time>
      </trkpt>
      <trkpt lat="47.77294" lon="2.15665">
        <ele>124</ele>
        <time>2016-12-04T08:02:30.246Z</time>
      </trkpt>
      <trkpt lat="47.77294" lon="2.15665">
        <ele>124</ele>
        <time>2016-12-04T08:02:31.247Z</time>
      </trkpt>
      <trkpt lat="47.77293" lon="2.15679">
        <ele>125</ele>
        <time>2016-12-04T08:02:32.268Z</time>
      </trkpt>
      <trkpt lat="47.77293" lon="2.15679">
        <ele>125</ele>
        <time>2016-12-04T08:02:33.260Z</time>
      </trkpt>
      <trkpt lat="47.77298" lon="2.15693">
        <ele>125</ele>
        <time>2016-12-04T08:02:34.252Z</time>
      </trkpt>
      <trkpt lat="47.77298" lon="2.15693">
        <ele>125</ele>
        <time>2016-12-04T08:02:35.280Z</time>
      </trkpt>
      <trkpt lat="47.77303" lon="2.15705">
        <ele>125</ele>
        <time>2016-12-04T08:02:36.282Z</time>
      </trkpt>
      <trkpt lat="47.77303" lon="2.15705">
        <ele>125</ele>
        <time>2016-12-04T08:02:37.252Z</time>
      </trkpt>
      <trkpt lat="47.77308" lon="2.15717">
        <ele>126</ele>
        <time>2016-12-04T08:02:38.280Z</time>
      </trkpt>
      <trkpt lat="47.77308" lon="2.15717">
        <ele>126</ele>
        <time>2016-12-04T08:02:39.277Z</time>
      </trkpt>
      <trkpt lat="47.77311" lon="2.15731">
        <ele>126</ele>
        <time>2016-12-04T08:02:40.284Z</time>
      </trkpt>
      <trkpt lat="47.77311" lon="2.15731">
        <ele>126</ele>
        <time>2016-12-04T08:02:41.249Z</time>
      </trkpt>
      <trkpt lat="47.77313" lon="2.15745">
        <ele>125</ele>
        <time>2016-12-04T08:02:42.267Z</time>
      </trkpt>
      <trkpt lat="47.77313" lon="2.15745">
        <ele>125</ele>
        <time>2016-12-04T08:02:43.247Z</time>
      </trkpt>
      <trkpt lat="47.77314" lon="2.1576">
        <ele>125</ele>
        <time>2016-12-04T08:02:44.243Z</time>
      </trkpt>
      <trkpt lat="47.77314" lon="2.1576">
        <ele>125</ele>
        <time>2016-12-04T08:02:45.278Z</time>
      </trkpt>
      <trkpt lat="47.77313" lon="2.15774">
        <ele>125</ele>
        <time>2016-12-04T08:02:46.275Z</time>
      </trkpt>
      <trkpt lat="47.77312" lon="2.15781">
        <ele>125</ele>
        <time>2016-12-04T08:02:47.281Z</time>
      </trkpt>
      <trkpt lat="47.77312" lon="2.15781">
        <ele>125</ele>
        <time>2016-12-04T08:02:48.279Z</time>
      </trkpt>
      <trkpt lat="47.7731" lon="2.15795">
        <ele>125</ele>
        <time>2016-12-04T08:02:49.281Z</time>
      </trkpt>
      <trkpt lat="47.77309" lon="2.15802">
        <ele>125</ele>
        <time>2016-12-04T08:02:50.243Z</time>
      </trkpt>
      <trkpt lat="47.77309" lon="2.15802">
        <ele>125</ele>
        <time>2016-12-04T08:02:51.278Z</time>
      </trkpt>
      <trkpt lat="47.77307" lon="2.15816">
        <ele>125</ele>
        <time>2016-12-04T08:02:52.282Z</time>
      </trkpt>
      <trkpt lat="47.77307" lon="2.15816">
        <ele>125</ele>
        <time>2016-12-04T08:02:53.279Z</time>
      </trkpt>
      <trkpt lat="47.77304" lon="2.15829">
        <ele>124</ele>
        <time>2016-12-04T08:02:54.281Z</time>
      </trkpt>
      <trkpt lat="47.77304" lon="2.15829">
        <ele>124</ele>
        <time>2016-12-04T08:02:55.279Z</time>
      </trkpt>
      <trkpt lat="47.77303" lon="2.15844">
        <ele>125</ele>
        <time>2016-12-04T08:02:56.282Z</time>
      </trkpt>
      <trkpt lat="47.77303" lon="2.15844">
        <ele>125</ele>
        <time>2016-12-04T08:02:57.279Z</time>
      </trkpt>
      <trkpt lat="47.77301" lon="2.15859">
        <ele>126</ele>
        <time>2016-12-04T08:02:58.279Z</time>
      </trkpt>
      <trkpt lat="47.77301" lon="2.15859">
        <ele>126</ele>
        <time>2016-12-04T08:02:59.276Z</time>
      </trkpt>
      <trkpt lat="47.773" lon="2.15874">
        <ele>126</ele>
        <time>2016-12-04T08:03:00.281Z</time>
      </trkpt>
      <trkpt lat="47.77299" lon="2.15881">
        <ele>127</ele>
        <time>2016-12-04T08:03:01.282Z</time>
      </trkpt>
      <trkpt lat="47.77299" lon="2.15881">
        <ele>127</ele>
        <time>2016-12-04T08:03:02.280Z</time>
      </trkpt>
      <trkpt lat="47.77297" lon="2.15896">
        <ele>127</ele>
        <time>2016-12-04T08:03:03.282Z</time>
      </trkpt>
      <trkpt lat="47.77297" lon="2.15896">
        <ele>127</ele>
        <time>2016-12-04T08:03:04.279Z</time>
      </trkpt>
      <trkpt lat="47.77296" lon="2.1591">
        <ele>127</ele>
        <time>2016-12-04T08:03:05.282Z</time>
      </trkpt>
      <trkpt lat="47.77296" lon="2.1591">
        <ele>127</ele>
        <time>2016-12-04T08:03:06.279Z</time>
      </trkpt>
      <trkpt lat="47.77294" lon="2.15925">
        <ele>128</ele>
        <time>2016-12-04T08:03:07.279Z</time>
      </trkpt>
      <trkpt lat="47.77294" lon="2.15932">
        <ele>128</ele>
        <time>2016-12-04T08:03:08.282Z</time>
      </trkpt>
      <trkpt lat="47.77294" lon="2.15932">
        <ele>128</ele>
        <time>2016-12-04T08:03:09.279Z</time>
      </trkpt>
      <trkpt lat="47.77292" lon="2.15945">
        <ele>128</ele>
        <time>2016-12-04T08:03:10.282Z</time>
      </trkpt>
      <trkpt lat="47.77292" lon="2.15945">
        <ele>128</ele>
        <time>2016-12-04T08:03:11.279Z</time>
      </trkpt>
      <trkpt lat="47.7729" lon="2.15959">
        <ele>128</ele>
        <time>2016-12-04T08:03:12.244Z</time>
      </trkpt>
      <trkpt lat="47.7729" lon="2.15959">
        <ele>128</ele>
        <time>2016-12-04T08:03:13.279Z</time>
      </trkpt>
      <trkpt lat="47.77288" lon="2.15973">
        <ele>128</ele>
        <time>2016-12-04T08:03:14.243Z</time>
      </trkpt>
      <trkpt lat="47.77288" lon="2.15973">
        <ele>128</ele>
        <time>2016-12-04T08:03:15.279Z</time>
      </trkpt>
      <trkpt lat="47.77286" lon="2.15988">
        <ele>128</ele>
        <time>2016-12-04T08:03:16.282Z</time>
      </trkpt>
      <trkpt lat="47.77286" lon="2.15988">
        <ele>128</ele>
        <time>2016-12-04T08:03:17.277Z</time>
      </trkpt>
      <trkpt lat="47.77284" lon="2.16003">
        <ele>128</ele>
        <time>2016-12-04T08:03:18.279Z</time>
      </trkpt>
      <trkpt lat="47.77284" lon="2.16003">
        <ele>128</ele>
        <time>2016-12-04T08:03:19.279Z</time>
      </trkpt>
      <trkpt lat="47.77283" lon="2.16018">
        <ele>128</ele>
        <time>2016-12-04T08:03:20.280Z</time>
      </trkpt>
      <trkpt lat="47.77283" lon="2.16018">
        <ele>128</ele>
        <time>2016-12-04T08:03:21.276Z</time>
      </trkpt>
      <trkpt lat="47.77281" lon="2.16033">
        <ele>128</ele>
        <time>2016-12-04T08:03:22.282Z</time>
      </trkpt>
      <trkpt lat="47.77281" lon="2.16033">
        <ele>128</ele>
        <time>2016-12-04T08:03:23.279Z</time>
      </trkpt>
      <trkpt lat="47.77279" lon="2.16048">
        <ele>127</ele>
        <time>2016-12-04T08:03:24.250Z</time>
      </trkpt>
      <trkpt lat="47.77279" lon="2.16048">
        <ele>127</ele>
        <time>2016-12-04T08:03:25.279Z</time>
      </trkpt>
      <trkpt lat="47.77277" lon="2.16064">
        <ele>127</ele>
        <time>2016-12-04T08:03:26.277Z</time>
      </trkpt>
      <trkpt lat="47.77277" lon="2.16064">
        <ele>127</ele>
        <time>2016-12-04T08:03:27.280Z</time>
      </trkpt>
      <trkpt lat="47.77276" lon="2.1608">
        <ele>127</ele>
        <time>2016-12-04T08:03:28.282Z</time>
      </trkpt>
      <trkpt lat="47.77276" lon="2.1608">
        <ele>127</ele>
        <time>2016-12-04T08:03:29.280Z</time>
      </trkpt>
      <trkpt lat="47.77274" lon="2.16095">
        <ele>126</ele>
        <time>2016-12-04T08:03:30.282Z</time>
      </trkpt>
      <trkpt lat="47.77274" lon="2.16095">
        <ele>126</ele>
        <time>2016-12-04T08:03:31.280Z</time>
      </trkpt>
      <trkpt lat="47.77272" lon="2.1611">
        <ele>126</ele>
        <time>2016-12-04T08:03:32.282Z</time>
      </trkpt>
      <trkpt lat="47.77272" lon="2.1611">
        <ele>126</ele>
        <time>2016-12-04T08:03:33.279Z</time>
      </trkpt>
      <trkpt lat="47.77271" lon="2.16124">
        <ele>126</ele>
        <time>2016-12-04T08:03:34.243Z</time>
      </trkpt>
      <trkpt lat="47.77271" lon="2.16124">
        <ele>126</ele>
        <time>2016-12-04T08:03:35.279Z</time>
      </trkpt>
      <trkpt lat="47.7727" lon="2.16138">
        <ele>126</ele>
        <time>2016-12-04T08:03:36.282Z</time>
      </trkpt>
      <trkpt lat="47.7727" lon="2.16138">
        <ele>126</ele>
        <time>2016-12-04T08:03:37.280Z</time>
      </trkpt>
      <trkpt lat="47.7727" lon="2.16152">
        <ele>126</ele>
        <time>2016-12-04T08:03:38.244Z</time>
      </trkpt>
      <trkpt lat="47.7727" lon="2.16152">
        <ele>126</ele>
        <time>2016-12-04T08:03:39.277Z</time>
      </trkpt>
      <trkpt lat="47.7727" lon="2.16165">
        <ele>127</ele>
        <time>2016-12-04T08:03:40.282Z</time>
      </trkpt>
      <trkpt lat="47.7727" lon="2.16165">
        <ele>127</ele>
        <time>2016-12-04T08:03:41.282Z</time>
      </trkpt>
      <trkpt lat="47.77269" lon="2.16177">
        <ele>126</ele>
        <time>2016-12-04T08:03:42.261Z</time>
      </trkpt>
      <trkpt lat="47.77269" lon="2.16177">
        <ele>126</ele>
        <time>2016-12-04T08:03:43.258Z</time>
      </trkpt>
      <trkpt lat="47.77269" lon="2.16189">
        <ele>125</ele>
        <time>2016-12-04T08:03:44.249Z</time>
      </trkpt>
      <trkpt lat="47.77269" lon="2.16189">
        <ele>125</ele>
        <time>2016-12-04T08:03:45.278Z</time>
      </trkpt>
      <trkpt lat="47.77268" lon="2.16201">
        <ele>126</ele>
        <time>2016-12-04T08:03:46.251Z</time>
      </trkpt>
      <trkpt lat="47.77266" lon="2.16206">
        <ele>126</ele>
        <time>2016-12-04T08:03:47.282Z</time>
      </trkpt>
      <trkpt lat="47.77265" lon="2.16212">
        <ele>126</ele>
        <time>2016-12-04T08:03:48.282Z</time>
      </trkpt>
      <trkpt lat="47.77265" lon="2.16212">
        <ele>126</ele>
        <time>2016-12-04T08:03:49.279Z</time>
      </trkpt>
      <trkpt lat="47.77262" lon="2.16223">
        <ele>127</ele>
        <time>2016-12-04T08:03:50.281Z</time>
      </trkpt>
      <trkpt lat="47.77262" lon="2.16223">
        <ele>127</ele>
        <time>2016-12-04T08:03:51.249Z</time>
      </trkpt>
      <trkpt lat="47.77259" lon="2.16235">
        <ele>127</ele>
        <time>2016-12-04T08:03:52.282Z</time>
      </trkpt>
      <trkpt lat="47.77257" lon="2.16241">
        <ele>127</ele>
        <time>2016-12-04T08:03:53.243Z</time>
      </trkpt>
      <trkpt lat="47.77257" lon="2.16241">
        <ele>127</ele>
        <time>2016-12-04T08:03:54.279Z</time>
      </trkpt>
      <trkpt lat="47.77254" lon="2.16253">
        <ele>127</ele>
        <time>2016-12-04T08:03:55.282Z</time>
      </trkpt>
      <trkpt lat="47.77252" lon="2.16259">
        <ele>126</ele>
        <time>2016-12-04T08:03:56.281Z</time>
      </trkpt>
      <trkpt lat="47.77252" lon="2.16259">
        <ele>126</ele>
        <time>2016-12-04T08:03:57.262Z</time>
      </trkpt>
      <trkpt lat="47.77249" lon="2.1627">
        <ele>127</ele>
        <time>2016-12-04T08:03:58.251Z</time>
      </trkpt>
      <trkpt lat="47.77249" lon="2.1627">
        <ele>127</ele>
        <time>2016-12-04T08:03:59.279Z</time>
      </trkpt>
      <trkpt lat="47.77246" lon="2.16282">
        <ele>127</ele>
        <time>2016-12-04T08:04:00.243Z</time>
      </trkpt>
      <trkpt lat="47.77246" lon="2.16282">
        <ele>127</ele>
        <time>2016-12-04T08:04:01.281Z</time>
      </trkpt>
      <trkpt lat="47.77243" lon="2.16292">
        <ele>127</ele>
        <time>2016-12-04T08:04:02.243Z</time>
      </trkpt>
      <trkpt lat="47.77243" lon="2.16292">
        <ele>127</ele>
        <time>2016-12-04T08:04:03.280Z</time>
      </trkpt>
      <trkpt lat="47.7724" lon="2.16302">
        <ele>127</ele>
        <time>2016-12-04T08:04:04.282Z</time>
      </trkpt>
      <trkpt lat="47.7724" lon="2.16302">
        <ele>127</ele>
        <time>2016-12-04T08:04:05.277Z</time>
      </trkpt>
      <trkpt lat="47.77237" lon="2.16313">
        <ele>127</ele>
        <time>2016-12-04T08:04:06.248Z</time>
      </trkpt>
      <trkpt lat="47.77235" lon="2.16319">
        <ele>126</ele>
        <time>2016-12-04T08:04:07.243Z</time>
      </trkpt>
      <trkpt lat="47.77234" lon="2.16327">
        <ele>128</ele>
        <time>2016-12-04T08:04:08.245Z</time>
      </trkpt>
      <trkpt lat="47.77234" lon="2.16327">
        <ele>128</ele>
        <time>2016-12-04T08:04:09.279Z</time>
      </trkpt>
      <trkpt lat="47.77231" lon="2.16342">
        <ele>129</ele>
        <time>2016-12-04T08:04:10.243Z</time>
      </trkpt>
      <trkpt lat="47.7723" lon="2.16349">
        <ele>129</ele>
        <time>2016-12-04T08:04:11.248Z</time>
      </trkpt>
      <trkpt lat="47.7723" lon="2.16349">
        <ele>129</ele>
        <time>2016-12-04T08:04:12.278Z</time>
      </trkpt>
      <trkpt lat="47.77227" lon="2.16366">
        <ele>129</ele>
        <time>2016-12-04T08:04:13.282Z</time>
      </trkpt>
      <trkpt lat="47.77227" lon="2.16374">
        <ele>129</ele>
        <time>2016-12-04T08:04:14.244Z</time>
      </trkpt>
      <trkpt lat="47.77227" lon="2.16374">
        <ele>129</ele>
        <time>2016-12-04T08:04:15.278Z</time>
      </trkpt>
      <trkpt lat="47.77224" lon="2.1639">
        <ele>129</ele>
        <time>2016-12-04T08:04:16.244Z</time>
      </trkpt>
      <trkpt lat="47.77223" lon="2.16398">
        <ele>129</ele>
        <time>2016-12-04T08:04:17.282Z</time>
      </trkpt>
      <trkpt lat="47.77223" lon="2.16398">
        <ele>129</ele>
        <time>2016-12-04T08:04:18.279Z</time>
      </trkpt>
      <trkpt lat="47.77221" lon="2.16414">
        <ele>130</ele>
        <time>2016-12-04T08:04:19.282Z</time>
      </trkpt>
      <trkpt lat="47.7722" lon="2.16422">
        <ele>130</ele>
        <time>2016-12-04T08:04:20.244Z</time>
      </trkpt>
      <trkpt lat="47.7722" lon="2.16422">
        <ele>130</ele>
        <time>2016-12-04T08:04:21.243Z</time>
      </trkpt>
      <trkpt lat="47.77219" lon="2.16438">
        <ele>131</ele>
        <time>2016-12-04T08:04:22.256Z</time>
      </trkpt>
      <trkpt lat="47.77219" lon="2.16438">
        <ele>131</ele>
        <time>2016-12-04T08:04:23.244Z</time>
      </trkpt>
      <trkpt lat="47.77217" lon="2.16454">
        <ele>131</ele>
        <time>2016-12-04T08:04:24.282Z</time>
      </trkpt>
      <trkpt lat="47.77217" lon="2.16454">
        <ele>131</ele>
        <time>2016-12-04T08:04:25.279Z</time>
      </trkpt>
      <trkpt lat="47.77215" lon="2.1647">
        <ele>132</ele>
        <time>2016-12-04T08:04:26.245Z</time>
      </trkpt>
      <trkpt lat="47.77215" lon="2.1647">
        <ele>132</ele>
        <time>2016-12-04T08:04:27.280Z</time>
      </trkpt>
      <trkpt lat="47.77214" lon="2.16486">
        <ele>132</ele>
        <time>2016-12-04T08:04:28.280Z</time>
      </trkpt>
      <trkpt lat="47.77214" lon="2.16486">
        <ele>132</ele>
        <time>2016-12-04T08:04:29.280Z</time>
      </trkpt>
      <trkpt lat="47.77213" lon="2.16502">
        <ele>133</ele>
        <time>2016-12-04T08:04:30.282Z</time>
      </trkpt>
      <trkpt lat="47.77213" lon="2.16502">
        <ele>133</ele>
        <time>2016-12-04T08:04:31.279Z</time>
      </trkpt>
      <trkpt lat="47.7721" lon="2.16518">
        <ele>133</ele>
        <time>2016-12-04T08:04:32.281Z</time>
      </trkpt>
      <trkpt lat="47.7721" lon="2.16518">
        <ele>133</ele>
        <time>2016-12-04T08:04:33.280Z</time>
      </trkpt>
      <trkpt lat="47.77209" lon="2.16534">
        <ele>133</ele>
        <time>2016-12-04T08:04:34.282Z</time>
      </trkpt>
      <trkpt lat="47.77208" lon="2.16543">
        <ele>134</ele>
        <time>2016-12-04T08:04:35.245Z</time>
      </trkpt>
      <trkpt lat="47.77208" lon="2.16543">
        <ele>134</ele>
        <time>2016-12-04T08:04:36.274Z</time>
      </trkpt>
      <trkpt lat="47.77206" lon="2.16559">
        <ele>134</ele>
        <time>2016-12-04T08:04:37.254Z</time>
      </trkpt>
      <trkpt lat="47.77206" lon="2.16567">
        <ele>134</ele>
        <time>2016-12-04T08:04:38.245Z</time>
      </trkpt>
      <trkpt lat="47.77205" lon="2.16575">
        <ele>134</ele>
        <time>2016-12-04T08:04:39.273Z</time>
      </trkpt>
      <trkpt lat="47.77205" lon="2.16575">
        <ele>134</ele>
        <time>2016-12-04T08:04:40.277Z</time>
      </trkpt>
      <trkpt lat="47.77203" lon="2.16591">
        <ele>134</ele>
        <time>2016-12-04T08:04:41.281Z</time>
      </trkpt>
      <trkpt lat="47.77203" lon="2.16591">
        <ele>134</ele>
        <time>2016-12-04T08:04:42.283Z</time>
      </trkpt>
      <trkpt lat="47.77201" lon="2.16607">
        <ele>134</ele>
        <time>2016-12-04T08:04:43.282Z</time>
      </trkpt>
      <trkpt lat="47.77201" lon="2.16614">
        <ele>134</ele>
        <time>2016-12-04T08:04:44.248Z</time>
      </trkpt>
      <trkpt lat="47.77201" lon="2.16614">
        <ele>134</ele>
        <time>2016-12-04T08:04:45.277Z</time>
      </trkpt>
      <trkpt lat="47.772" lon="2.1663">
        <ele>134</ele>
        <time>2016-12-04T08:04:46.275Z</time>
      </trkpt>
      <trkpt lat="47.77199" lon="2.16638">
        <ele>134</ele>
        <time>2016-12-04T08:04:47.263Z</time>
      </trkpt>
      <trkpt lat="47.77199" lon="2.16638">
        <ele>134</ele>
        <time>2016-12-04T08:04:48.251Z</time>
      </trkpt>
      <trkpt lat="47.77198" lon="2.16653">
        <ele>134</ele>
        <time>2016-12-04T08:04:49.265Z</time>
      </trkpt>
      <trkpt lat="47.77198" lon="2.16662">
        <ele>134</ele>
        <time>2016-12-04T08:04:50.257Z</time>
      </trkpt>
      <trkpt lat="47.77198" lon="2.16662">
        <ele>134</ele>
        <time>2016-12-04T08:04:51.252Z</time>
      </trkpt>
      <trkpt lat="47.772" lon="2.16678">
        <ele>134</ele>
        <time>2016-12-04T08:04:52.244Z</time>
      </trkpt>
      <trkpt lat="47.772" lon="2.16678">
        <ele>134</ele>
        <time>2016-12-04T08:04:53.280Z</time>
      </trkpt>
      <trkpt lat="47.77205" lon="2.16692">
        <ele>135</ele>
        <time>2016-12-04T08:04:54.243Z</time>
      </trkpt>
      <trkpt lat="47.77208" lon="2.16699">
        <ele>135</ele>
        <time>2016-12-04T08:04:55.281Z</time>
      </trkpt>
      <trkpt lat="47.77211" lon="2.16705">
        <ele>135</ele>
        <time>2016-12-04T08:04:56.244Z</time>
      </trkpt>
      <trkpt lat="47.77211" lon="2.16705">
        <ele>135</ele>
        <time>2016-12-04T08:04:57.280Z</time>
      </trkpt>
      <trkpt lat="47.77218" lon="2.16718">
        <ele>135</ele>
        <time>2016-12-04T08:04:58.243Z</time>
      </trkpt>
      <trkpt lat="47.7722" lon="2.16725">
        <ele>135</ele>
        <time>2016-12-04T08:04:59.281Z</time>
      </trkpt>
      <trkpt lat="47.7722" lon="2.16725">
        <ele>135</ele>
        <time>2016-12-04T08:05:00.280Z</time>
      </trkpt>
      <trkpt lat="47.77223" lon="2.1674">
        <ele>134</ele>
        <time>2016-12-04T08:05:01.282Z</time>
      </trkpt>
      <trkpt lat="47.77223" lon="2.1674">
        <ele>134</ele>
        <time>2016-12-04T08:05:02.281Z</time>
      </trkpt>
      <trkpt lat="47.77223" lon="2.16756">
        <ele>134</ele>
        <time>2016-12-04T08:05:03.279Z</time>
      </trkpt>
      <trkpt lat="47.77223" lon="2.16763">
        <ele>134</ele>
        <time>2016-12-04T08:05:04.245Z</time>
      </trkpt>
      <trkpt lat="47.77223" lon="2.16763">
        <ele>134</ele>
        <time>2016-12-04T08:05:05.279Z</time>
      </trkpt>
      <trkpt lat="47.77221" lon="2.16778">
        <ele>134</ele>
        <time>2016-12-04T08:05:06.243Z</time>
      </trkpt>
      <trkpt lat="47.77221" lon="2.16778">
        <ele>134</ele>
        <time>2016-12-04T08:05:07.280Z</time>
      </trkpt>
      <trkpt lat="47.77221" lon="2.16794">
        <ele>134</ele>
        <time>2016-12-04T08:05:08.282Z</time>
      </trkpt>
      <trkpt lat="47.77221" lon="2.16794">
        <ele>134</ele>
        <time>2016-12-04T08:05:09.279Z</time>
      </trkpt>
      <trkpt lat="47.7722" lon="2.16809">
        <ele>135</ele>
        <time>2016-12-04T08:05:10.280Z</time>
      </trkpt>
      <trkpt lat="47.7722" lon="2.16817">
        <ele>135</ele>
        <time>2016-12-04T08:05:11.281Z</time>
      </trkpt>
      <trkpt lat="47.7722" lon="2.16817">
        <ele>135</ele>
        <time>2016-12-04T08:05:12.277Z</time>
      </trkpt>
      <trkpt lat="47.77221" lon="2.1683">
        <ele>135</ele>
        <time>2016-12-04T08:05:13.282Z</time>
      </trkpt>
      <trkpt lat="47.77221" lon="2.16836">
        <ele>136</ele>
        <time>2016-12-04T08:05:14.244Z</time>
      </trkpt>
      <trkpt lat="47.77221" lon="2.16836">
        <ele>136</ele>
        <time>2016-12-04T08:05:15.280Z</time>
      </trkpt>
      <trkpt lat="47.77222" lon="2.16849">
        <ele>136</ele>
        <time>2016-12-04T08:05:16.276Z</time>
      </trkpt>
      <trkpt lat="47.77223" lon="2.16856">
        <ele>136</ele>
        <time>2016-12-04T08:05:17.243Z</time>
      </trkpt>
      <trkpt lat="47.77223" lon="2.16862">
        <ele>135</ele>
        <time>2016-12-04T08:05:18.282Z</time>
      </trkpt>
      <trkpt lat="47.77223" lon="2.16862">
        <ele>135</ele>
        <time>2016-12-04T08:05:19.280Z</time>
      </trkpt>
      <trkpt lat="47.77224" lon="2.16874">
        <ele>135</ele>
        <time>2016-12-04T08:05:20.281Z</time>
      </trkpt>
      <trkpt lat="47.77224" lon="2.16874">
        <ele>135</ele>
        <time>2016-12-04T08:05:21.277Z</time>
      </trkpt>
      <trkpt lat="47.77223" lon="2.16884">
        <ele>135</ele>
        <time>2016-12-04T08:05:22.275Z</time>
      </trkpt>
      <trkpt lat="47.77223" lon="2.16889">
        <ele>135</ele>
        <time>2016-12-04T08:05:23.282Z</time>
      </trkpt>
      <trkpt lat="47.77223" lon="2.16889">
        <ele>135</ele>
        <time>2016-12-04T08:05:24.280Z</time>
      </trkpt>
      <trkpt lat="47.77224" lon="2.16898">
        <ele>135</ele>
        <time>2016-12-04T08:05:25.281Z</time>
      </trkpt>
      <trkpt lat="47.77224" lon="2.16898">
        <ele>135</ele>
        <time>2016-12-04T08:05:26.245Z</time>
      </trkpt>
      <trkpt lat="47.77224" lon="2.16905">
        <ele>135</ele>
        <time>2016-12-04T08:05:27.256Z</time>
      </trkpt>
      <trkpt lat="47.77224" lon="2.16905">
        <ele>135</ele>
        <time>2016-12-04T08:05:28.244Z</time>
      </trkpt>
      <trkpt lat="47.77225" lon="2.16912">
        <ele>135</ele>
        <time>2016-12-04T08:05:29.243Z</time>
      </trkpt>
      <trkpt lat="47.77225" lon="2.16912">
        <ele>135</ele>
        <time>2016-12-04T08:05:30.279Z</time>
      </trkpt>
      <trkpt lat="47.77225" lon="2.16918">
        <ele>135</ele>
        <time>2016-12-04T08:05:31.282Z</time>
      </trkpt>
      <trkpt lat="47.77225" lon="2.16918">
        <ele>135</ele>
        <time>2016-12-04T08:05:32.257Z</time>
      </trkpt>
      <trkpt lat="47.77225" lon="2.16925">
        <ele>135</ele>
        <time>2016-12-04T08:05:33.282Z</time>
      </trkpt>
      <trkpt lat="47.77225" lon="2.16925">
        <ele>135</ele>
        <time>2016-12-04T08:05:34.279Z</time>
      </trkpt>
      <trkpt lat="47.77225" lon="2.16933">
        <ele>135</ele>
        <time>2016-12-04T08:05:35.282Z</time>
      </trkpt>
      <trkpt lat="47.77225" lon="2.16933">
        <ele>135</ele>
        <time>2016-12-04T08:05:36.280Z</time>
      </trkpt>
      <trkpt lat="47.77225" lon="2.16941">
        <ele>135</ele>
        <time>2016-12-04T08:05:37.282Z</time>
      </trkpt>
      <trkpt lat="47.77226" lon="2.16944">
        <ele>135</ele>
        <time>2016-12-04T08:05:38.244Z</time>
      </trkpt>
      <trkpt lat="47.77226" lon="2.16944">
        <ele>135</ele>
        <time>2016-12-04T08:05:39.279Z</time>
      </trkpt>
      <trkpt lat="47.77226" lon="2.16952">
        <ele>135</ele>
        <time>2016-12-04T08:05:40.244Z</time>
      </trkpt>
      <trkpt lat="47.77226" lon="2.16952">
        <ele>135</ele>
        <time>2016-12-04T08:05:41.280Z</time>
      </trkpt>
      <trkpt lat="47.77226" lon="2.1696">
        <ele>135</ele>
        <time>2016-12-04T08:05:42.244Z</time>
      </trkpt>
      <trkpt lat="47.77226" lon="2.1696">
        <ele>135</ele>
        <time>2016-12-04T08:05:43.280Z</time>
      </trkpt>
      <trkpt lat="47.77227" lon="2.16968">
        <ele>135</ele>
        <time>2016-12-04T08:05:44.244Z</time>
      </trkpt>
      <trkpt lat="47.77227" lon="2.16968">
        <ele>135</ele>
        <time>2016-12-04T08:05:45.277Z</time>
      </trkpt>
      <trkpt lat="47.77227" lon="2.16976">
        <ele>135</ele>
        <time>2016-12-04T08:05:46.243Z</time>
      </trkpt>
      <trkpt lat="47.77227" lon="2.1698">
        <ele>135</ele>
        <time>2016-12-04T08:05:47.246Z</time>
      </trkpt>
      <trkpt lat="47.77227" lon="2.1698">
        <ele>135</ele>
        <time>2016-12-04T08:05:48.280Z</time>
      </trkpt>
      <trkpt lat="47.77227" lon="2.16987">
        <ele>135</ele>
        <time>2016-12-04T08:05:49.243Z</time>
      </trkpt>
      <trkpt lat="47.77227" lon="2.16987">
        <ele>135</ele>
        <time>2016-12-04T08:05:50.280Z</time>
      </trkpt>
      <trkpt lat="47.77227" lon="2.16992">
        <ele>135</ele>
        <time>2016-12-04T08:05:51.282Z</time>
      </trkpt>
      <trkpt lat="47.77227" lon="2.16994">
        <ele>135</ele>
        <time>2016-12-04T08:05:52.282Z</time>
      </trkpt>
      <trkpt lat="47.77227" lon="2.16994">
        <ele>135</ele>
        <time>2016-12-04T08:05:53.278Z</time>
      </trkpt>
      <trkpt lat="47.77229" lon="2.16996">
        <ele>135</ele>
        <time>2016-12-04T08:05:54.244Z</time>
      </trkpt>
      <trkpt lat="47.77229" lon="2.16996">
        <ele>135</ele>
        <time>2016-12-04T08:05:55.280Z</time>
      </trkpt>
      <trkpt lat="47.77229" lon="2.16997">
        <ele>135</ele>
        <time>2016-12-04T08:05:56.247Z</time>
      </trkpt>
      <trkpt lat="47.77233" lon="2.16993">
        <ele>134</ele>
        <time>2016-12-04T08:05:57.275Z</time>
      </trkpt>
      <trkpt lat="47.77235" lon="2.16993">
        <ele>134</ele>
        <time>2016-12-04T08:05:58.271Z</time>
      </trkpt>
      <trkpt lat="47.77236" lon="2.16993">
        <ele>133</ele>
        <time>2016-12-04T08:05:59.273Z</time>
      </trkpt>
      <trkpt lat="47.77236" lon="2.16993">
        <ele>133</ele>
        <time>2016-12-04T08:06:00.268Z</time>
      </trkpt>
      <trkpt lat="47.77241" lon="2.16994">
        <ele>133</ele>
        <time>2016-12-04T08:06:01.271Z</time>
      </trkpt>
      <trkpt lat="47.77241" lon="2.16994">
        <ele>133</ele>
        <time>2016-12-04T08:06:02.268Z</time>
      </trkpt>
      <trkpt lat="47.77246" lon="2.16993">
        <ele>133</ele>
        <time>2016-12-04T08:06:03.271Z</time>
      </trkpt>
      <trkpt lat="47.77246" lon="2.16993">
        <ele>133</ele>
        <time>2016-12-04T08:06:04.262Z</time>
      </trkpt>
      <trkpt lat="47.77251" lon="2.16993">
        <ele>133</ele>
        <time>2016-12-04T08:06:05.248Z</time>
      </trkpt>
      <trkpt lat="47.77254" lon="2.16992">
        <ele>133</ele>
        <time>2016-12-04T08:06:06.258Z</time>
      </trkpt>
      <trkpt lat="47.77254" lon="2.16992">
        <ele>133</ele>
        <time>2016-12-04T08:06:07.248Z</time>
      </trkpt>
      <trkpt lat="47.77259" lon="2.16991">
        <ele>133</ele>
        <time>2016-12-04T08:06:08.277Z</time>
      </trkpt>
      <trkpt lat="47.77259" lon="2.16991">
        <ele>133</ele>
        <time>2016-12-04T08:06:09.268Z</time>
      </trkpt>
      <trkpt lat="47.77264" lon="2.1699">
        <ele>133</ele>
        <time>2016-12-04T08:06:10.269Z</time>
      </trkpt>
      <trkpt lat="47.77267" lon="2.1699">
        <ele>134</ele>
        <time>2016-12-04T08:06:11.273Z</time>
      </trkpt>
      <trkpt lat="47.77267" lon="2.1699">
        <ele>134</ele>
        <time>2016-12-04T08:06:12.266Z</time>
      </trkpt>
      <trkpt lat="47.77272" lon="2.16989">
        <ele>133</ele>
        <time>2016-12-04T08:06:13.274Z</time>
      </trkpt>
      <trkpt lat="47.77272" lon="2.16989">
        <ele>133</ele>
        <time>2016-12-04T08:06:14.267Z</time>
      </trkpt>
      <trkpt lat="47.77277" lon="2.16987">
        <ele>133</ele>
        <time>2016-12-04T08:06:15.269Z</time>
      </trkpt>
      <trkpt lat="47.77277" lon="2.16987">
        <ele>133</ele>
        <time>2016-12-04T08:06:16.266Z</time>
      </trkpt>
      <trkpt lat="47.77282" lon="2.16986">
        <ele>133</ele>
        <time>2016-12-04T08:06:17.279Z</time>
      </trkpt>
      <trkpt lat="47.77282" lon="2.16986">
        <ele>133</ele>
        <time>2016-12-04T08:06:18.268Z</time>
      </trkpt>
      <trkpt lat="47.77288" lon="2.16985">
        <ele>134</ele>
        <time>2016-12-04T08:06:19.272Z</time>
      </trkpt>
      <trkpt lat="47.77288" lon="2.16985">
        <ele>134</ele>
        <time>2016-12-04T08:06:20.267Z</time>
      </trkpt>
      <trkpt lat="47.77294" lon="2.16983">
        <ele>134</ele>
        <time>2016-12-04T08:06:21.270Z</time>
      </trkpt>
      <trkpt lat="47.77296" lon="2.16982">
        <ele>134</ele>
        <time>2016-12-04T08:06:22.268Z</time>
      </trkpt>
      <trkpt lat="47.77296" lon="2.16982">
        <ele>134</ele>
        <time>2016-12-04T08:06:23.269Z</time>
      </trkpt>
      <trkpt lat="47.77303" lon="2.16981">
        <ele>135</ele>
        <time>2016-12-04T08:06:24.272Z</time>
      </trkpt>
      <trkpt lat="47.77306" lon="2.1698">
        <ele>134</ele>
        <time>2016-12-04T08:06:25.268Z</time>
      </trkpt>
      <trkpt lat="47.77306" lon="2.1698">
        <ele>134</ele>
        <time>2016-12-04T08:06:26.277Z</time>
      </trkpt>
      <trkpt lat="47.77313" lon="2.16977">
        <ele>135</ele>
        <time>2016-12-04T08:06:27.271Z</time>
      </trkpt>
      <trkpt lat="47.77313" lon="2.16977">
        <ele>135</ele>
        <time>2016-12-04T08:06:28.269Z</time>
      </trkpt>
      <trkpt lat="47.77319" lon="2.16976">
        <ele>135</ele>
        <time>2016-12-04T08:06:29.273Z</time>
      </trkpt>
      <trkpt lat="47.77319" lon="2.16976">
        <ele>135</ele>
        <time>2016-12-04T08:06:30.268Z</time>
      </trkpt>
      <trkpt lat="47.77326" lon="2.16974">
        <ele>135</ele>
        <time>2016-12-04T08:06:31.271Z</time>
      </trkpt>
      <trkpt lat="47.77329" lon="2.16973">
        <ele>135</ele>
        <time>2016-12-04T08:06:32.270Z</time>
      </trkpt>
      <trkpt lat="47.77329" lon="2.16973">
        <ele>135</ele>
        <time>2016-12-04T08:06:33.279Z</time>
      </trkpt>
      <trkpt lat="47.77336" lon="2.16972">
        <ele>136</ele>
        <time>2016-12-04T08:06:34.278Z</time>
      </trkpt>
      <trkpt lat="47.77339" lon="2.1697">
        <ele>136</ele>
        <time>2016-12-04T08:06:35.273Z</time>
      </trkpt>
      <trkpt lat="47.77339" lon="2.1697">
        <ele>136</ele>
        <time>2016-12-04T08:06:36.266Z</time>
      </trkpt>
      <trkpt lat="47.77346" lon="2.16968">
        <ele>137</ele>
        <time>2016-12-04T08:06:37.253Z</time>
      </trkpt>
      <trkpt lat="47.7735" lon="2.16967">
        <ele>137</ele>
        <time>2016-12-04T08:06:38.245Z</time>
      </trkpt>
      <trkpt lat="47.7735" lon="2.16967">
        <ele>137</ele>
        <time>2016-12-04T08:06:39.274Z</time>
      </trkpt>
      <trkpt lat="47.77359" lon="2.16965">
        <ele>137</ele>
        <time>2016-12-04T08:06:40.268Z</time>
      </trkpt>
      <trkpt lat="47.77363" lon="2.16963">
        <ele>137</ele>
        <time>2016-12-04T08:06:41.273Z</time>
      </trkpt>
      <trkpt lat="47.77363" lon="2.16963">
        <ele>137</ele>
        <time>2016-12-04T08:06:42.268Z</time>
      </trkpt>
      <trkpt lat="47.77372" lon="2.16961">
        <ele>137</ele>
        <time>2016-12-04T08:06:43.272Z</time>
      </trkpt>
      <trkpt lat="47.77372" lon="2.16961">
        <ele>137</ele>
        <time>2016-12-04T08:06:44.267Z</time>
      </trkpt>
      <trkpt lat="47.7738" lon="2.1696">
        <ele>137</ele>
        <time>2016-12-04T08:06:45.271Z</time>
      </trkpt>
      <trkpt lat="47.77384" lon="2.16959">
        <ele>136</ele>
        <time>2016-12-04T08:06:46.268Z</time>
      </trkpt>
      <trkpt lat="47.77384" lon="2.16959">
        <ele>136</ele>
        <time>2016-12-04T08:06:47.269Z</time>
      </trkpt>
      <trkpt lat="47.77394" lon="2.16958">
        <ele>137</ele>
        <time>2016-12-04T08:06:48.271Z</time>
      </trkpt>
      <trkpt lat="47.77398" lon="2.16957">
        <ele>136</ele>
        <time>2016-12-04T08:06:49.272Z</time>
      </trkpt>
      <trkpt lat="47.77398" lon="2.16957">
        <ele>136</ele>
        <time>2016-12-04T08:06:50.266Z</time>
      </trkpt>
      <trkpt lat="47.77407" lon="2.16955">
        <ele>136</ele>
        <time>2016-12-04T08:06:51.269Z</time>
      </trkpt>
      <trkpt lat="47.77411" lon="2.16954">
        <ele>136</ele>
        <time>2016-12-04T08:06:52.272Z</time>
      </trkpt>
      <trkpt lat="47.77411" lon="2.16954">
        <ele>136</ele>
        <time>2016-12-04T08:06:53.270Z</time>
      </trkpt>
      <trkpt lat="47.77421" lon="2.16954">
        <ele>136</ele>
        <time>2016-12-04T08:06:54.274Z</time>
      </trkpt>
      <trkpt lat="47.77425" lon="2.16954">
        <ele>136</ele>
        <time>2016-12-04T08:06:55.273Z</time>
      </trkpt>
      <trkpt lat="47.77425" lon="2.16954">
        <ele>136</ele>
        <time>2016-12-04T08:06:56.277Z</time>
      </trkpt>
      <trkpt lat="47.77435" lon="2.16954">
        <ele>136</ele>
        <time>2016-12-04T08:06:57.272Z</time>
      </trkpt>
      <trkpt lat="47.77435" lon="2.16954">
        <ele>136</ele>
        <time>2016-12-04T08:06:58.280Z</time>
      </trkpt>
      <trkpt lat="47.77444" lon="2.16954">
        <ele>137</ele>
        <time>2016-12-04T08:06:59.273Z</time>
      </trkpt>
      <trkpt lat="47.77444" lon="2.16954">
        <ele>137</ele>
        <time>2016-12-04T08:07:00.268Z</time>
      </trkpt>
      <trkpt lat="47.77454" lon="2.16954">
        <ele>137</ele>
        <time>2016-12-04T08:07:01.271Z</time>
      </trkpt>
      <trkpt lat="47.77454" lon="2.16954">
        <ele>137</ele>
        <time>2016-12-04T08:07:02.268Z</time>
      </trkpt>
      <trkpt lat="47.77464" lon="2.16955">
        <ele>136</ele>
        <time>2016-12-04T08:07:03.270Z</time>
      </trkpt>
      <trkpt lat="47.77464" lon="2.16955">
        <ele>136</ele>
        <time>2016-12-04T08:07:04.268Z</time>
      </trkpt>
      <trkpt lat="47.77475" lon="2.16957">
        <ele>136</ele>
        <time>2016-12-04T08:07:05.274Z</time>
      </trkpt>
      <trkpt lat="47.77475" lon="2.16957">
        <ele>136</ele>
        <time>2016-12-04T08:07:06.267Z</time>
      </trkpt>
      <trkpt lat="47.77485" lon="2.16958">
        <ele>136</ele>
        <time>2016-12-04T08:07:07.278Z</time>
      </trkpt>
      <trkpt lat="47.77491" lon="2.16959">
        <ele>136</ele>
        <time>2016-12-04T08:07:08.272Z</time>
      </trkpt>
      <trkpt lat="47.77496" lon="2.16959">
        <ele>136</ele>
        <time>2016-12-04T08:07:09.271Z</time>
      </trkpt>
      <trkpt lat="47.77496" lon="2.16959">
        <ele>136</ele>
        <time>2016-12-04T08:07:10.266Z</time>
      </trkpt>
      <trkpt lat="47.77508" lon="2.1696">
        <ele>136</ele>
        <time>2016-12-04T08:07:11.273Z</time>
      </trkpt>
      <trkpt lat="47.77508" lon="2.1696">
        <ele>136</ele>
        <time>2016-12-04T08:07:12.266Z</time>
      </trkpt>
      <trkpt lat="47.77519" lon="2.16962">
        <ele>136</ele>
        <time>2016-12-04T08:07:13.272Z</time>
      </trkpt>
      <trkpt lat="47.77519" lon="2.16962">
        <ele>136</ele>
        <time>2016-12-04T08:07:14.266Z</time>
      </trkpt>
      <trkpt lat="47.77529" lon="2.16963">
        <ele>137</ele>
        <time>2016-12-04T08:07:15.280Z</time>
      </trkpt>
      <trkpt lat="47.77534" lon="2.16963">
        <ele>137</ele>
        <time>2016-12-04T08:07:16.269Z</time>
      </trkpt>
      <trkpt lat="47.77534" lon="2.16963">
        <ele>137</ele>
        <time>2016-12-04T08:07:17.276Z</time>
      </trkpt>
      <trkpt lat="47.77545" lon="2.16964">
        <ele>137</ele>
        <time>2016-12-04T08:07:18.273Z</time>
      </trkpt>
      <trkpt lat="47.77551" lon="2.16965">
        <ele>137</ele>
        <time>2016-12-04T08:07:19.273Z</time>
      </trkpt>
      <trkpt lat="47.77551" lon="2.16965">
        <ele>137</ele>
        <time>2016-12-04T08:07:20.266Z</time>
      </trkpt>
      <trkpt lat="47.77562" lon="2.16966">
        <ele>136</ele>
        <time>2016-12-04T08:07:21.269Z</time>
      </trkpt>
      <trkpt lat="47.77567" lon="2.16967">
        <ele>136</ele>
        <time>2016-12-04T08:07:22.271Z</time>
      </trkpt>
      <trkpt lat="47.77567" lon="2.16967">
        <ele>136</ele>
        <time>2016-12-04T08:07:23.267Z</time>
      </trkpt>
      <trkpt lat="47.77577" lon="2.16968">
        <ele>136</ele>
        <time>2016-12-04T08:07:24.269Z</time>
      </trkpt>
      <trkpt lat="47.77577" lon="2.16968">
        <ele>136</ele>
        <time>2016-12-04T08:07:25.268Z</time>
      </trkpt>
      <trkpt lat="47.77588" lon="2.16969">
        <ele>136</ele>
        <time>2016-12-04T08:07:26.273Z</time>
      </trkpt>
      <trkpt lat="47.77593" lon="2.16969">
        <ele>136</ele>
        <time>2016-12-04T08:07:27.273Z</time>
      </trkpt>
      <trkpt lat="47.77593" lon="2.16969">
        <ele>136</ele>
        <time>2016-12-04T08:07:28.268Z</time>
      </trkpt>
      <trkpt lat="47.77603" lon="2.1697">
        <ele>136</ele>
        <time>2016-12-04T08:07:29.274Z</time>
      </trkpt>
      <trkpt lat="47.77603" lon="2.1697">
        <ele>136</ele>
        <time>2016-12-04T08:07:30.266Z</time>
      </trkpt>
      <trkpt lat="47.77614" lon="2.16971">
        <ele>137</ele>
        <time>2016-12-04T08:07:31.272Z</time>
      </trkpt>
      <trkpt lat="47.77614" lon="2.16971">
        <ele>137</ele>
        <time>2016-12-04T08:07:32.268Z</time>
      </trkpt>
      <trkpt lat="47.77624" lon="2.16972">
        <ele>136</ele>
        <time>2016-12-04T08:07:33.270Z</time>
      </trkpt>
      <trkpt lat="47.7763" lon="2.16972">
        <ele>136</ele>
        <time>2016-12-04T08:07:34.272Z</time>
      </trkpt>
      <trkpt lat="47.7763" lon="2.16972">
        <ele>136</ele>
        <time>2016-12-04T08:07:35.269Z</time>
      </trkpt>
      <trkpt lat="47.7764" lon="2.16973">
        <ele>136</ele>
        <time>2016-12-04T08:07:36.272Z</time>
      </trkpt>
      <trkpt lat="47.7764" lon="2.16973">
        <ele>136</ele>
        <time>2016-12-04T08:07:37.266Z</time>
      </trkpt>
      <trkpt lat="47.77651" lon="2.16974">
        <ele>136</ele>
        <time>2016-12-04T08:07:38.271Z</time>
      </trkpt>
      <trkpt lat="47.77657" lon="2.16975">
        <ele>136</ele>
        <time>2016-12-04T08:07:39.269Z</time>
      </trkpt>
      <trkpt lat="47.77657" lon="2.16975">
        <ele>136</ele>
        <time>2016-12-04T08:07:40.266Z</time>
      </trkpt>
      <trkpt lat="47.77669" lon="2.16976">
        <ele>136</ele>
        <time>2016-12-04T08:07:41.274Z</time>
      </trkpt>
      <trkpt lat="47.77669" lon="2.16976">
        <ele>136</ele>
        <time>2016-12-04T08:07:42.267Z</time>
      </trkpt>
      <trkpt lat="47.7768" lon="2.16979">
        <ele>136</ele>
        <time>2016-12-04T08:07:43.272Z</time>
      </trkpt>
      <trkpt lat="47.77686" lon="2.16979">
        <ele>136</ele>
        <time>2016-12-04T08:07:44.272Z</time>
      </trkpt>
      <trkpt lat="47.77686" lon="2.16979">
        <ele>136</ele>
        <time>2016-12-04T08:07:45.269Z</time>
      </trkpt>
      <trkpt lat="47.77697" lon="2.16981">
        <ele>136</ele>
        <time>2016-12-04T08:07:46.272Z</time>
      </trkpt>
      <trkpt lat="47.77697" lon="2.16981">
        <ele>136</ele>
        <time>2016-12-04T08:07:47.267Z</time>
      </trkpt>
      <trkpt lat="47.77709" lon="2.16981">
        <ele>136</ele>
        <time>2016-12-04T08:07:48.272Z</time>
      </trkpt>
      <trkpt lat="47.77715" lon="2.16982">
        <ele>136</ele>
        <time>2016-12-04T08:07:49.272Z</time>
      </trkpt>
      <trkpt lat="47.77715" lon="2.16982">
        <ele>136</ele>
        <time>2016-12-04T08:07:50.267Z</time>
      </trkpt>
      <trkpt lat="47.77726" lon="2.16982">
        <ele>136</ele>
        <time>2016-12-04T08:07:51.272Z</time>
      </trkpt>
      <trkpt lat="47.77726" lon="2.16982">
        <ele>136</ele>
        <time>2016-12-04T08:07:52.266Z</time>
      </trkpt>
      <trkpt lat="47.77737" lon="2.16983">
        <ele>136</ele>
        <time>2016-12-04T08:07:53.274Z</time>
      </trkpt>
      <trkpt lat="47.77737" lon="2.16983">
        <ele>136</ele>
        <time>2016-12-04T08:07:54.271Z</time>
      </trkpt>
      <trkpt lat="47.77748" lon="2.16982">
        <ele>136</ele>
        <time>2016-12-04T08:07:55.270Z</time>
      </trkpt>
      <trkpt lat="47.77754" lon="2.16982">
        <ele>136</ele>
        <time>2016-12-04T08:07:56.272Z</time>
      </trkpt>
      <trkpt lat="47.77754" lon="2.16982">
        <ele>136</ele>
        <time>2016-12-04T08:07:57.266Z</time>
      </trkpt>
      <trkpt lat="47.77764" lon="2.16982">
        <ele>136</ele>
        <time>2016-12-04T08:07:58.274Z</time>
      </trkpt>
      <trkpt lat="47.77768" lon="2.16984">
        <ele>137</ele>
        <time>2016-12-04T08:07:59.274Z</time>
      </trkpt>
      <trkpt lat="47.77768" lon="2.16984">
        <ele>137</ele>
        <time>2016-12-04T08:08:00.268Z</time>
      </trkpt>
      <trkpt lat="47.77774" lon="2.16993">
        <ele>137</ele>
        <time>2016-12-04T08:08:01.271Z</time>
      </trkpt>
      <trkpt lat="47.77774" lon="2.16993">
        <ele>137</ele>
        <time>2016-12-04T08:08:02.266Z</time>
      </trkpt>
      <trkpt lat="47.77781" lon="2.17004">
        <ele>137</ele>
        <time>2016-12-04T08:08:03.272Z</time>
      </trkpt>
      <trkpt lat="47.77781" lon="2.17004">
        <ele>137</ele>
        <time>2016-12-04T08:08:04.267Z</time>
      </trkpt>
      <trkpt lat="47.77788" lon="2.17015">
        <ele>138</ele>
        <time>2016-12-04T08:08:05.278Z</time>
      </trkpt>
      <trkpt lat="47.77791" lon="2.1702">
        <ele>138</ele>
        <time>2016-12-04T08:08:06.269Z</time>
      </trkpt>
      <trkpt lat="47.77791" lon="2.1702">
        <ele>138</ele>
        <time>2016-12-04T08:08:07.267Z</time>
      </trkpt>
      <trkpt lat="47.77797" lon="2.17032">
        <ele>137</ele>
        <time>2016-12-04T08:08:08.272Z</time>
      </trkpt>
      <trkpt lat="47.778" lon="2.17037">
        <ele>137</ele>
        <time>2016-12-04T08:08:09.272Z</time>
      </trkpt>
      <trkpt lat="47.778" lon="2.17037">
        <ele>137</ele>
        <time>2016-12-04T08:08:10.267Z</time>
      </trkpt>
      <trkpt lat="47.77807" lon="2.17048">
        <ele>136</ele>
        <time>2016-12-04T08:08:11.275Z</time>
      </trkpt>
      <trkpt lat="47.77807" lon="2.17048">
        <ele>136</ele>
        <time>2016-12-04T08:08:12.268Z</time>
      </trkpt>
      <trkpt lat="47.77814" lon="2.1706">
        <ele>136</ele>
        <time>2016-12-04T08:08:13.272Z</time>
      </trkpt>
      <trkpt lat="47.77817" lon="2.17066">
        <ele>136</ele>
        <time>2016-12-04T08:08:14.283Z</time>
      </trkpt>
      <trkpt lat="47.77817" lon="2.17066">
        <ele>136</ele>
        <time>2016-12-04T08:08:15.271Z</time>
      </trkpt>
      <trkpt lat="47.77824" lon="2.17076">
        <ele>135</ele>
        <time>2016-12-04T08:08:16.274Z</time>
      </trkpt>
      <trkpt lat="47.77827" lon="2.17082">
        <ele>134</ele>
        <time>2016-12-04T08:08:17.247Z</time>
      </trkpt>
      <trkpt lat="47.77827" lon="2.17082">
        <ele>134</ele>
        <time>2016-12-04T08:08:18.247Z</time>
      </trkpt>
      <trkpt lat="47.77834" lon="2.17091">
        <ele>133</ele>
        <time>2016-12-04T08:08:19.276Z</time>
      </trkpt>
      <trkpt lat="47.77834" lon="2.17091">
        <ele>133</ele>
        <time>2016-12-04T08:08:20.267Z</time>
      </trkpt>
      <trkpt lat="47.7784" lon="2.17101">
        <ele>132</ele>
        <time>2016-12-04T08:08:21.273Z</time>
      </trkpt>
      <trkpt lat="47.7784" lon="2.17101">
        <ele>132</ele>
        <time>2016-12-04T08:08:22.266Z</time>
      </trkpt>
      <trkpt lat="47.77846" lon="2.17112">
        <ele>132</ele>
        <time>2016-12-04T08:08:23.274Z</time>
      </trkpt>
      <trkpt lat="47.77846" lon="2.17112">
        <ele>132</ele>
        <time>2016-12-04T08:08:24.267Z</time>
      </trkpt>
      <trkpt lat="47.77853" lon="2.17123">
        <ele>132</ele>
        <time>2016-12-04T08:08:25.273Z</time>
      </trkpt>
      <trkpt lat="47.77853" lon="2.17123">
        <ele>132</ele>
        <time>2016-12-04T08:08:26.267Z</time>
      </trkpt>
      <trkpt lat="47.77859" lon="2.17134">
        <ele>132</ele>
        <time>2016-12-04T08:08:27.269Z</time>
      </trkpt>
      <trkpt lat="47.77859" lon="2.17134">
        <ele>132</ele>
        <time>2016-12-04T08:08:28.266Z</time>
      </trkpt>
      <trkpt lat="47.77866" lon="2.17144">
        <ele>132</ele>
        <time>2016-12-04T08:08:29.273Z</time>
      </trkpt>
      <trkpt lat="47.77866" lon="2.17144">
        <ele>132</ele>
        <time>2016-12-04T08:08:30.268Z</time>
      </trkpt>
      <trkpt lat="47.77874" lon="2.17155">
        <ele>131</ele>
        <time>2016-12-04T08:08:31.272Z</time>
      </trkpt>
      <trkpt lat="47.77874" lon="2.17155">
        <ele>131</ele>
        <time>2016-12-04T08:08:32.261Z</time>
      </trkpt>
      <trkpt lat="47.77881" lon="2.17166">
        <ele>131</ele>
        <time>2016-12-04T08:08:33.256Z</time>
      </trkpt>
      <trkpt lat="47.77885" lon="2.17171">
        <ele>131</ele>
        <time>2016-12-04T08:08:34.246Z</time>
      </trkpt>
      <trkpt lat="47.77888" lon="2.17176">
        <ele>131</ele>
        <time>2016-12-04T08:08:35.275Z</time>
      </trkpt>
      <trkpt lat="47.77888" lon="2.17176">
        <ele>131</ele>
        <time>2016-12-04T08:08:36.267Z</time>
      </trkpt>
      <trkpt lat="47.77896" lon="2.17187">
        <ele>131</ele>
        <time>2016-12-04T08:08:37.265Z</time>
      </trkpt>
      <trkpt lat="47.77899" lon="2.17192">
        <ele>131</ele>
        <time>2016-12-04T08:08:38.270Z</time>
      </trkpt>
      <trkpt lat="47.77902" lon="2.17197">
        <ele>131</ele>
        <time>2016-12-04T08:08:39.272Z</time>
      </trkpt>
      <trkpt lat="47.77902" lon="2.17197">
        <ele>131</ele>
        <time>2016-12-04T08:08:40.266Z</time>
      </trkpt>
      <trkpt lat="47.77909" lon="2.17207">
        <ele>131</ele>
        <time>2016-12-04T08:08:41.250Z</time>
      </trkpt>
      <trkpt lat="47.77909" lon="2.17207">
        <ele>131</ele>
        <time>2016-12-04T08:08:42.280Z</time>
      </trkpt>
      <trkpt lat="47.77914" lon="2.17217">
        <ele>131</ele>
        <time>2016-12-04T08:08:43.271Z</time>
      </trkpt>
      <trkpt lat="47.77917" lon="2.17222">
        <ele>131</ele>
        <time>2016-12-04T08:08:44.274Z</time>
      </trkpt>
      <trkpt lat="47.77917" lon="2.17222">
        <ele>131</ele>
        <time>2016-12-04T08:08:45.267Z</time>
      </trkpt>
      <trkpt lat="47.77923" lon="2.17231">
        <ele>132</ele>
        <time>2016-12-04T08:08:46.270Z</time>
      </trkpt>
      <trkpt lat="47.77923" lon="2.17231">
        <ele>132</ele>
        <time>2016-12-04T08:08:47.266Z</time>
      </trkpt>
      <trkpt lat="47.77928" lon="2.1724">
        <ele>131</ele>
        <time>2016-12-04T08:08:48.273Z</time>
      </trkpt>
      <trkpt lat="47.77928" lon="2.1724">
        <ele>131</ele>
        <time>2016-12-04T08:08:49.270Z</time>
      </trkpt>
      <trkpt lat="47.77934" lon="2.17249">
        <ele>131</ele>
        <time>2016-12-04T08:08:50.273Z</time>
      </trkpt>
      <trkpt lat="47.77934" lon="2.17249">
        <ele>131</ele>
        <time>2016-12-04T08:08:51.267Z</time>
      </trkpt>
      <trkpt lat="47.77941" lon="2.17258">
        <ele>130</ele>
        <time>2016-12-04T08:08:52.274Z</time>
      </trkpt>
      <trkpt lat="47.77941" lon="2.17258">
        <ele>130</ele>
        <time>2016-12-04T08:08:53.270Z</time>
      </trkpt>
      <trkpt lat="47.77947" lon="2.17267">
        <ele>129</ele>
        <time>2016-12-04T08:08:54.269Z</time>
      </trkpt>
      <trkpt lat="47.7795" lon="2.17272">
        <ele>129</ele>
        <time>2016-12-04T08:08:55.270Z</time>
      </trkpt>
      <trkpt lat="47.7795" lon="2.17272">
        <ele>129</ele>
        <time>2016-12-04T08:08:56.269Z</time>
      </trkpt>
      <trkpt lat="47.77956" lon="2.17281">
        <ele>128</ele>
        <time>2016-12-04T08:08:57.269Z</time>
      </trkpt>
      <trkpt lat="47.77956" lon="2.17281">
        <ele>128</ele>
        <time>2016-12-04T08:08:58.266Z</time>
      </trkpt>
      <trkpt lat="47.77961" lon="2.17291">
        <ele>127</ele>
        <time>2016-12-04T08:08:59.273Z</time>
      </trkpt>
      <trkpt lat="47.77961" lon="2.17291">
        <ele>127</ele>
        <time>2016-12-04T08:09:00.266Z</time>
      </trkpt>
      <trkpt lat="47.77968" lon="2.173">
        <ele>127</ele>
        <time>2016-12-04T08:09:01.272Z</time>
      </trkpt>
      <trkpt lat="47.77968" lon="2.173">
        <ele>127</ele>
        <time>2016-12-04T08:09:02.267Z</time>
      </trkpt>
      <trkpt lat="47.77974" lon="2.1731">
        <ele>127</ele>
        <time>2016-12-04T08:09:03.254Z</time>
      </trkpt>
      <trkpt lat="47.77977" lon="2.17314">
        <ele>127</ele>
        <time>2016-12-04T08:09:04.246Z</time>
      </trkpt>
      <trkpt lat="47.77979" lon="2.17318">
        <ele>127</ele>
        <time>2016-12-04T08:09:05.280Z</time>
      </trkpt>
      <trkpt lat="47.77979" lon="2.17318">
        <ele>127</ele>
        <time>2016-12-04T08:09:06.269Z</time>
      </trkpt>
      <trkpt lat="47.77983" lon="2.17325">
        <ele>128</ele>
        <time>2016-12-04T08:09:07.273Z</time>
      </trkpt>
      <trkpt lat="47.77983" lon="2.17325">
        <ele>128</ele>
        <time>2016-12-04T08:09:08.271Z</time>
      </trkpt>
      <trkpt lat="47.77983" lon="2.1733">
        <ele>129</ele>
        <time>2016-12-04T08:09:09.274Z</time>
      </trkpt>
      <trkpt lat="47.77983" lon="2.1733">
        <ele>129</ele>
        <time>2016-12-04T08:09:10.267Z</time>
      </trkpt>
      <trkpt lat="47.7798" lon="2.17334">
        <ele>129</ele>
        <time>2016-12-04T08:09:11.274Z</time>
      </trkpt>
      <trkpt lat="47.7798" lon="2.17334">
        <ele>129</ele>
        <time>2016-12-04T08:09:12.267Z</time>
      </trkpt>
      <trkpt lat="47.77974" lon="2.17338">
        <ele>130</ele>
        <time>2016-12-04T08:09:13.274Z</time>
      </trkpt>
      <trkpt lat="47.77972" lon="2.1734">
        <ele>130</ele>
        <time>2016-12-04T08:09:14.272Z</time>
      </trkpt>
      <trkpt lat="47.77972" lon="2.1734">
        <ele>130</ele>
        <time>2016-12-04T08:09:15.268Z</time>
      </trkpt>
      <trkpt lat="47.77968" lon="2.17345">
        <ele>131</ele>
        <time>2016-12-04T08:09:16.250Z</time>
      </trkpt>
      <trkpt lat="47.77968" lon="2.17345">
        <ele>131</ele>
        <time>2016-12-04T08:09:17.265Z</time>
      </trkpt>
      <trkpt lat="47.77963" lon="2.17349">
        <ele>132</ele>
        <time>2016-12-04T08:09:18.274Z</time>
      </trkpt>
      <trkpt lat="47.7796" lon="2.17353">
        <ele>132</ele>
        <time>2016-12-04T08:09:19.273Z</time>
      </trkpt>
      <trkpt lat="47.7796" lon="2.17353">
        <ele>132</ele>
        <time>2016-12-04T08:09:20.267Z</time>
      </trkpt>
      <trkpt lat="47.77954" lon="2.17359">
        <ele>134</ele>
        <time>2016-12-04T08:09:21.272Z</time>
      </trkpt>
      <trkpt lat="47.77954" lon="2.17359">
        <ele>134</ele>
        <time>2016-12-04T08:09:22.267Z</time>
      </trkpt>
      <trkpt lat="47.77946" lon="2.17364">
        <ele>135</ele>
        <time>2016-12-04T08:09:23.274Z</time>
      </trkpt>
      <trkpt lat="47.77946" lon="2.17364">
        <ele>135</ele>
        <time>2016-12-04T08:09:24.275Z</time>
      </trkpt>
      <trkpt lat="47.77939" lon="2.1737">
        <ele>136</ele>
        <time>2016-12-04T08:09:25.273Z</time>
      </trkpt>
      <trkpt lat="47.77939" lon="2.1737">
        <ele>136</ele>
        <time>2016-12-04T08:09:26.269Z</time>
      </trkpt>
      <trkpt lat="47.77932" lon="2.17375">
        <ele>137</ele>
        <time>2016-12-04T08:09:27.273Z</time>
      </trkpt>
      <trkpt lat="47.77932" lon="2.17375">
        <ele>137</ele>
        <time>2016-12-04T08:09:28.266Z</time>
      </trkpt>
      <trkpt lat="47.77926" lon="2.1738">
        <ele>137</ele>
        <time>2016-12-04T08:09:29.246Z</time>
      </trkpt>
      <trkpt lat="47.77926" lon="2.1738">
        <ele>137</ele>
        <time>2016-12-04T08:09:30.274Z</time>
      </trkpt>
      <trkpt lat="47.77918" lon="2.17383">
        <ele>137</ele>
        <time>2016-12-04T08:09:31.272Z</time>
      </trkpt>
      <trkpt lat="47.77918" lon="2.17383">
        <ele>137</ele>
        <time>2016-12-04T08:09:32.267Z</time>
      </trkpt>
      <trkpt lat="47.77911" lon="2.17386">
        <ele>138</ele>
        <time>2016-12-04T08:09:33.273Z</time>
      </trkpt>
      <trkpt lat="47.77907" lon="2.17387">
        <ele>139</ele>
        <time>2016-12-04T08:09:34.243Z</time>
      </trkpt>
      <trkpt lat="47.77907" lon="2.17387">
        <ele>139</ele>
        <time>2016-12-04T08:09:35.272Z</time>
      </trkpt>
      <trkpt lat="47.779" lon="2.17391">
        <ele>139</ele>
        <time>2016-12-04T08:09:36.272Z</time>
      </trkpt>
      <trkpt lat="47.779" lon="2.17391">
        <ele>139</ele>
        <time>2016-12-04T08:09:37.267Z</time>
      </trkpt>
      <trkpt lat="47.77891" lon="2.17394">
        <ele>139</ele>
        <time>2016-12-04T08:09:38.272Z</time>
      </trkpt>
      <trkpt lat="47.77888" lon="2.17396">
        <ele>139</ele>
        <time>2016-12-04T08:09:39.273Z</time>
      </trkpt>
      <trkpt lat="47.77888" lon="2.17396">
        <ele>139</ele>
        <time>2016-12-04T08:09:40.250Z</time>
      </trkpt>
      <trkpt lat="47.77879" lon="2.174">
        <ele>140</ele>
        <time>2016-12-04T08:09:41.247Z</time>
      </trkpt>
      <trkpt lat="47.77879" lon="2.174">
        <ele>140</ele>
        <time>2016-12-04T08:09:42.276Z</time>
      </trkpt>
      <trkpt lat="47.77871" lon="2.17406">
        <ele>139</ele>
        <time>2016-12-04T08:09:43.273Z</time>
      </trkpt>
      <trkpt lat="47.77871" lon="2.17406">
        <ele>139</ele>
        <time>2016-12-04T08:09:44.268Z</time>
      </trkpt>
      <trkpt lat="47.77863" lon="2.17411">
        <ele>139</ele>
        <time>2016-12-04T08:09:45.274Z</time>
      </trkpt>
      <trkpt lat="47.77863" lon="2.17411">
        <ele>139</ele>
        <time>2016-12-04T08:09:46.270Z</time>
      </trkpt>
      <trkpt lat="47.77854" lon="2.17416">
        <ele>139</ele>
        <time>2016-12-04T08:09:47.272Z</time>
      </trkpt>
      <trkpt lat="47.77851" lon="2.17418">
        <ele>139</ele>
        <time>2016-12-04T08:09:48.273Z</time>
      </trkpt>
      <trkpt lat="47.77847" lon="2.1742">
        <ele>139</ele>
        <time>2016-12-04T08:09:49.273Z</time>
      </trkpt>
      <trkpt lat="47.77847" lon="2.1742">
        <ele>139</ele>
        <time>2016-12-04T08:09:50.267Z</time>
      </trkpt>
      <trkpt lat="47.77839" lon="2.17425">
        <ele>140</ele>
        <time>2016-12-04T08:09:51.274Z</time>
      </trkpt>
      <trkpt lat="47.77839" lon="2.17425">
        <ele>140</ele>
        <time>2016-12-04T08:09:52.268Z</time>
      </trkpt>
      <trkpt lat="47.77831" lon="2.17427">
        <ele>140</ele>
        <time>2016-12-04T08:09:53.273Z</time>
      </trkpt>
      <trkpt lat="47.77831" lon="2.17427">
        <ele>140</ele>
        <time>2016-12-04T08:09:54.266Z</time>
      </trkpt>
      <trkpt lat="47.77823" lon="2.17431">
        <ele>141</ele>
        <time>2016-12-04T08:09:55.273Z</time>
      </trkpt>
      <trkpt lat="47.77823" lon="2.17431">
        <ele>141</ele>
        <time>2016-12-04T08:09:56.272Z</time>
      </trkpt>
      <trkpt lat="47.77814" lon="2.17435">
        <ele>141</ele>
        <time>2016-12-04T08:09:57.270Z</time>
      </trkpt>
      <trkpt lat="47.77814" lon="2.17435">
        <ele>141</ele>
        <time>2016-12-04T08:09:58.269Z</time>
      </trkpt>
      <trkpt lat="47.77805" lon="2.17439">
        <ele>141</ele>
        <time>2016-12-04T08:09:59.274Z</time>
      </trkpt>
      <trkpt lat="47.77805" lon="2.17439">
        <ele>141</ele>
        <time>2016-12-04T08:10:00.266Z</time>
      </trkpt>
      <trkpt lat="47.77796" lon="2.17443">
        <ele>141</ele>
        <time>2016-12-04T08:10:01.273Z</time>
      </trkpt>
      <trkpt lat="47.77796" lon="2.17443">
        <ele>141</ele>
        <time>2016-12-04T08:10:02.267Z</time>
      </trkpt>
      <trkpt lat="47.77787" lon="2.17448">
        <ele>140</ele>
        <time>2016-12-04T08:10:03.254Z</time>
      </trkpt>
      <trkpt lat="47.77783" lon="2.17449">
        <ele>140</ele>
        <time>2016-12-04T08:10:04.250Z</time>
      </trkpt>
      <trkpt lat="47.77778" lon="2.1745">
        <ele>140</ele>
        <time>2016-12-04T08:10:05.280Z</time>
      </trkpt>
      <trkpt lat="47.77778" lon="2.1745">
        <ele>140</ele>
        <time>2016-12-04T08:10:06.269Z</time>
      </trkpt>
      <trkpt lat="47.7777" lon="2.17454">
        <ele>140</ele>
        <time>2016-12-04T08:10:07.269Z</time>
      </trkpt>
      <trkpt lat="47.77766" lon="2.17456">
        <ele>141</ele>
        <time>2016-12-04T08:10:08.274Z</time>
      </trkpt>
      <trkpt lat="47.77766" lon="2.17456">
        <ele>141</ele>
        <time>2016-12-04T08:10:09.276Z</time>
      </trkpt>
      <trkpt lat="47.77759" lon="2.17459">
        <ele>141</ele>
        <time>2016-12-04T08:10:10.274Z</time>
      </trkpt>
      <trkpt lat="47.77755" lon="2.17462">
        <ele>141</ele>
        <time>2016-12-04T08:10:11.275Z</time>
      </trkpt>
      <trkpt lat="47.77755" lon="2.17462">
        <ele>141</ele>
        <time>2016-12-04T08:10:12.266Z</time>
      </trkpt>
      <trkpt lat="47.77747" lon="2.17464">
        <ele>141</ele>
        <time>2016-12-04T08:10:13.273Z</time>
      </trkpt>
      <trkpt lat="47.77747" lon="2.17464">
        <ele>141</ele>
        <time>2016-12-04T08:10:14.268Z</time>
      </trkpt>
      <trkpt lat="47.77739" lon="2.17468">
        <ele>142</ele>
        <time>2016-12-04T08:10:15.269Z</time>
      </trkpt>
      <trkpt lat="47.77735" lon="2.1747">
        <ele>141</ele>
        <time>2016-12-04T08:10:16.274Z</time>
      </trkpt>
      <trkpt lat="47.77735" lon="2.1747">
        <ele>141</ele>
        <time>2016-12-04T08:10:17.247Z</time>
      </trkpt>
      <trkpt lat="47.77726" lon="2.17474">
        <ele>142</ele>
        <time>2016-12-04T08:10:18.277Z</time>
      </trkpt>
      <trkpt lat="47.77723" lon="2.17476">
        <ele>143</ele>
        <time>2016-12-04T08:10:19.273Z</time>
      </trkpt>
      <trkpt lat="47.77723" lon="2.17476">
        <ele>143</ele>
        <time>2016-12-04T08:10:20.269Z</time>
      </trkpt>
      <trkpt lat="47.77715" lon="2.17479">
        <ele>143</ele>
        <time>2016-12-04T08:10:21.269Z</time>
      </trkpt>
      <trkpt lat="47.7771" lon="2.17481">
        <ele>143</ele>
        <time>2016-12-04T08:10:22.274Z</time>
      </trkpt>
      <trkpt lat="47.7771" lon="2.17481">
        <ele>143</ele>
        <time>2016-12-04T08:10:23.269Z</time>
      </trkpt>
      <trkpt lat="47.77701" lon="2.17485">
        <ele>142</ele>
        <time>2016-12-04T08:10:24.269Z</time>
      </trkpt>
      <trkpt lat="47.77696" lon="2.17488">
        <ele>143</ele>
        <time>2016-12-04T08:10:25.273Z</time>
      </trkpt>
      <trkpt lat="47.77696" lon="2.17488">
        <ele>143</ele>
        <time>2016-12-04T08:10:26.267Z</time>
      </trkpt>
      <trkpt lat="47.77685" lon="2.17492">
        <ele>143</ele>
        <time>2016-12-04T08:10:27.272Z</time>
      </trkpt>
      <trkpt lat="47.77685" lon="2.17492">
        <ele>143</ele>
        <time>2016-12-04T08:10:28.268Z</time>
      </trkpt>
      <trkpt lat="47.77675" lon="2.17497">
        <ele>142</ele>
        <time>2016-12-04T08:10:29.275Z</time>
      </trkpt>
      <trkpt lat="47.77675" lon="2.17497">
        <ele>142</ele>
        <time>2016-12-04T08:10:30.267Z</time>
      </trkpt>
      <trkpt lat="47.77665" lon="2.17502">
        <ele>142</ele>
        <time>2016-12-04T08:10:31.273Z</time>
      </trkpt>
      <trkpt lat="47.77665" lon="2.17502">
        <ele>142</ele>
        <time>2016-12-04T08:10:32.268Z</time>
      </trkpt>
      <trkpt lat="47.77655" lon="2.17506">
        <ele>141</ele>
        <time>2016-12-04T08:10:33.279Z</time>
      </trkpt>
      <trkpt lat="47.7765" lon="2.17508">
        <ele>142</ele>
        <time>2016-12-04T08:10:34.274Z</time>
      </trkpt>
      <trkpt lat="47.7765" lon="2.17508">
        <ele>142</ele>
        <time>2016-12-04T08:10:35.268Z</time>
      </trkpt>
      <trkpt lat="47.77641" lon="2.17512">
        <ele>142</ele>
        <time>2016-12-04T08:10:36.274Z</time>
      </trkpt>
      <trkpt lat="47.77641" lon="2.17512">
        <ele>142</ele>
        <time>2016-12-04T08:10:37.268Z</time>
      </trkpt>
      <trkpt lat="47.77631" lon="2.17516">
        <ele>142</ele>
        <time>2016-12-04T08:10:38.254Z</time>
      </trkpt>
      <trkpt lat="47.77631" lon="2.17516">
        <ele>142</ele>
        <time>2016-12-04T08:10:39.246Z</time>
      </trkpt>
      <trkpt lat="47.77621" lon="2.1752">
        <ele>141</ele>
        <time>2016-12-04T08:10:40.279Z</time>
      </trkpt>
      <trkpt lat="47.77621" lon="2.1752">
        <ele>141</ele>
        <time>2016-12-04T08:10:41.269Z</time>
      </trkpt>
      <trkpt lat="47.77612" lon="2.17523">
        <ele>139</ele>
        <time>2016-12-04T08:10:42.274Z</time>
      </trkpt>
      <trkpt lat="47.77608" lon="2.17525">
        <ele>139</ele>
        <time>2016-12-04T08:10:43.277Z</time>
      </trkpt>
      <trkpt lat="47.77608" lon="2.17525">
        <ele>139</ele>
        <time>2016-12-04T08:10:44.282Z</time>
      </trkpt>
      <trkpt lat="47.77599" lon="2.17529">
        <ele>139</ele>
        <time>2016-12-04T08:10:45.274Z</time>
      </trkpt>
      <trkpt lat="47.77599" lon="2.17529">
        <ele>139</ele>
        <time>2016-12-04T08:10:46.266Z</time>
      </trkpt>
      <trkpt lat="47.77591" lon="2.17535">
        <ele>138</ele>
        <time>2016-12-04T08:10:47.274Z</time>
      </trkpt>
      <trkpt lat="47.77591" lon="2.17535">
        <ele>138</ele>
        <time>2016-12-04T08:10:48.267Z</time>
      </trkpt>
      <trkpt lat="47.77582" lon="2.17538">
        <ele>138</ele>
        <time>2016-12-04T08:10:49.274Z</time>
      </trkpt>
      <trkpt lat="47.77582" lon="2.17538">
        <ele>138</ele>
        <time>2016-12-04T08:10:50.268Z</time>
      </trkpt>
      <trkpt lat="47.77573" lon="2.17544">
        <ele>138</ele>
        <time>2016-12-04T08:10:51.274Z</time>
      </trkpt>
      <trkpt lat="47.77573" lon="2.17544">
        <ele>138</ele>
        <time>2016-12-04T08:10:52.268Z</time>
      </trkpt>
      <trkpt lat="47.77564" lon="2.17549">
        <ele>137</ele>
        <time>2016-12-04T08:10:53.256Z</time>
      </trkpt>
      <trkpt lat="47.77564" lon="2.17549">
        <ele>137</ele>
        <time>2016-12-04T08:10:54.246Z</time>
      </trkpt>
      <trkpt lat="47.77554" lon="2.17554">
        <ele>137</ele>
        <time>2016-12-04T08:10:55.274Z</time>
      </trkpt>
      <trkpt lat="47.77554" lon="2.17554">
        <ele>137</ele>
        <time>2016-12-04T08:10:56.267Z</time>
      </trkpt>
      <trkpt lat="47.77544" lon="2.1756">
        <ele>137</ele>
        <time>2016-12-04T08:10:57.273Z</time>
      </trkpt>
      <trkpt lat="47.77544" lon="2.1756">
        <ele>137</ele>
        <time>2016-12-04T08:10:58.267Z</time>
      </trkpt>
      <trkpt lat="47.77535" lon="2.17564">
        <ele>137</ele>
        <time>2016-12-04T08:10:59.273Z</time>
      </trkpt>
      <trkpt lat="47.77535" lon="2.17564">
        <ele>137</ele>
        <time>2016-12-04T08:11:00.268Z</time>
      </trkpt>
      <trkpt lat="47.77525" lon="2.17567">
        <ele>136</ele>
        <time>2016-12-04T08:11:01.272Z</time>
      </trkpt>
      <trkpt lat="47.77525" lon="2.17567">
        <ele>136</ele>
        <time>2016-12-04T08:11:02.267Z</time>
      </trkpt>
      <trkpt lat="47.77515" lon="2.17571">
        <ele>136</ele>
        <time>2016-12-04T08:11:03.271Z</time>
      </trkpt>
      <trkpt lat="47.77511" lon="2.17573">
        <ele>136</ele>
        <time>2016-12-04T08:11:04.273Z</time>
      </trkpt>
      <trkpt lat="47.77506" lon="2.17575">
        <ele>136</ele>
        <time>2016-12-04T08:11:05.251Z</time>
      </trkpt>
      <trkpt lat="47.77506" lon="2.17575">
        <ele>136</ele>
        <time>2016-12-04T08:11:06.279Z</time>
      </trkpt>
      <trkpt lat="47.77497" lon="2.17579">
        <ele>137</ele>
        <time>2016-12-04T08:11:07.273Z</time>
      </trkpt>
      <trkpt lat="47.77497" lon="2.17579">
        <ele>137</ele>
        <time>2016-12-04T08:11:08.267Z</time>
      </trkpt>
      <trkpt lat="47.77488" lon="2.17583">
        <ele>137</ele>
        <time>2016-12-04T08:11:09.273Z</time>
      </trkpt>
      <trkpt lat="47.77488" lon="2.17583">
        <ele>137</ele>
        <time>2016-12-04T08:11:10.268Z</time>
      </trkpt>
      <trkpt lat="47.77479" lon="2.17587">
        <ele>137</ele>
        <time>2016-12-04T08:11:11.274Z</time>
      </trkpt>
      <trkpt lat="47.77479" lon="2.17587">
        <ele>137</ele>
        <time>2016-12-04T08:11:12.267Z</time>
      </trkpt>
      <trkpt lat="47.77469" lon="2.17592">
        <ele>138</ele>
        <time>2016-12-04T08:11:13.273Z</time>
      </trkpt>
      <trkpt lat="47.77469" lon="2.17592">
        <ele>138</ele>
        <time>2016-12-04T08:11:14.268Z</time>
      </trkpt>
      <trkpt lat="47.7746" lon="2.17597">
        <ele>138</ele>
        <time>2016-12-04T08:11:15.274Z</time>
      </trkpt>
      <trkpt lat="47.77456" lon="2.17599">
        <ele>139</ele>
        <time>2016-12-04T08:11:16.274Z</time>
      </trkpt>
      <trkpt lat="47.77456" lon="2.17599">
        <ele>139</ele>
        <time>2016-12-04T08:11:17.247Z</time>
      </trkpt>
      <trkpt lat="47.77446" lon="2.17604">
        <ele>139</ele>
        <time>2016-12-04T08:11:18.278Z</time>
      </trkpt>
      <trkpt lat="47.77446" lon="2.17604">
        <ele>139</ele>
        <time>2016-12-04T08:11:19.269Z</time>
      </trkpt>
      <trkpt lat="47.77436" lon="2.17609">
        <ele>139</ele>
        <time>2016-12-04T08:11:20.273Z</time>
      </trkpt>
      <trkpt lat="47.77436" lon="2.17609">
        <ele>139</ele>
        <time>2016-12-04T08:11:21.268Z</time>
      </trkpt>
      <trkpt lat="47.77427" lon="2.17615">
        <ele>139</ele>
        <time>2016-12-04T08:11:22.274Z</time>
      </trkpt>
      <trkpt lat="47.77422" lon="2.17617">
        <ele>140</ele>
        <time>2016-12-04T08:11:23.274Z</time>
      </trkpt>
      <trkpt lat="47.77422" lon="2.17617">
        <ele>140</ele>
        <time>2016-12-04T08:11:24.267Z</time>
      </trkpt>
      <trkpt lat="47.77412" lon="2.17622">
        <ele>139</ele>
        <time>2016-12-04T08:11:25.274Z</time>
      </trkpt>
      <trkpt lat="47.77412" lon="2.17622">
        <ele>139</ele>
        <time>2016-12-04T08:11:26.268Z</time>
      </trkpt>
      <trkpt lat="47.77402" lon="2.17627">
        <ele>139</ele>
        <time>2016-12-04T08:11:27.272Z</time>
      </trkpt>
      <trkpt lat="47.77402" lon="2.17627">
        <ele>139</ele>
        <time>2016-12-04T08:11:28.267Z</time>
      </trkpt>
      <trkpt lat="47.77392" lon="2.17631">
        <ele>139</ele>
        <time>2016-12-04T08:11:29.274Z</time>
      </trkpt>
      <trkpt lat="47.77392" lon="2.17631">
        <ele>139</ele>
        <time>2016-12-04T08:11:30.268Z</time>
      </trkpt>
      <trkpt lat="47.77382" lon="2.17635">
        <ele>139</ele>
        <time>2016-12-04T08:11:31.272Z</time>
      </trkpt>
      <trkpt lat="47.77382" lon="2.17635">
        <ele>139</ele>
        <time>2016-12-04T08:11:32.267Z</time>
      </trkpt>
      <trkpt lat="47.77373" lon="2.1764">
        <ele>139</ele>
        <time>2016-12-04T08:11:33.276Z</time>
      </trkpt>
      <trkpt lat="47.77373" lon="2.1764">
        <ele>139</ele>
        <time>2016-12-04T08:11:34.267Z</time>
      </trkpt>
      <trkpt lat="47.77365" lon="2.17646">
        <ele>138</ele>
        <time>2016-12-04T08:11:35.274Z</time>
      </trkpt>
      <trkpt lat="47.77365" lon="2.17646">
        <ele>138</ele>
        <time>2016-12-04T08:11:36.267Z</time>
      </trkpt>
      <trkpt lat="47.77356" lon="2.17651">
        <ele>138</ele>
        <time>2016-12-04T08:11:37.265Z</time>
      </trkpt>
      <trkpt lat="47.77352" lon="2.17653">
        <ele>138</ele>
        <time>2016-12-04T08:11:38.272Z</time>
      </trkpt>
      <trkpt lat="47.77352" lon="2.17653">
        <ele>138</ele>
        <time>2016-12-04T08:11:39.267Z</time>
      </trkpt>
      <trkpt lat="47.77343" lon="2.17657">
        <ele>138</ele>
        <time>2016-12-04T08:11:40.270Z</time>
      </trkpt>
      <trkpt lat="47.77339" lon="2.17659">
        <ele>138</ele>
        <time>2016-12-04T08:11:41.276Z</time>
      </trkpt>
      <trkpt lat="47.77339" lon="2.17659">
        <ele>138</ele>
        <time>2016-12-04T08:11:42.268Z</time>
      </trkpt>
      <trkpt lat="47.77329" lon="2.17663">
        <ele>139</ele>
        <time>2016-12-04T08:11:43.274Z</time>
      </trkpt>
      <trkpt lat="47.77324" lon="2.17665">
        <ele>139</ele>
        <time>2016-12-04T08:11:44.273Z</time>
      </trkpt>
      <trkpt lat="47.77324" lon="2.17665">
        <ele>139</ele>
        <time>2016-12-04T08:11:45.267Z</time>
      </trkpt>
      <trkpt lat="47.77314" lon="2.17668">
        <ele>139</ele>
        <time>2016-12-04T08:11:46.273Z</time>
      </trkpt>
      <trkpt lat="47.77314" lon="2.17668">
        <ele>139</ele>
        <time>2016-12-04T08:11:47.270Z</time>
      </trkpt>
      <trkpt lat="47.77305" lon="2.17672">
        <ele>139</ele>
        <time>2016-12-04T08:11:48.270Z</time>
      </trkpt>
      <trkpt lat="47.773" lon="2.17673">
        <ele>139</ele>
        <time>2016-12-04T08:11:49.273Z</time>
      </trkpt>
      <trkpt lat="47.77295" lon="2.17675">
        <ele>139</ele>
        <time>2016-12-04T08:11:50.274Z</time>
      </trkpt>
      <trkpt lat="47.77295" lon="2.17675">
        <ele>139</ele>
        <time>2016-12-04T08:11:51.267Z</time>
      </trkpt>
      <trkpt lat="47.77285" lon="2.17679">
        <ele>140</ele>
        <time>2016-12-04T08:11:52.273Z</time>
      </trkpt>
      <trkpt lat="47.7728" lon="2.1768">
        <ele>140</ele>
        <time>2016-12-04T08:11:53.267Z</time>
      </trkpt>
      <trkpt lat="47.7728" lon="2.1768">
        <ele>140</ele>
        <time>2016-12-04T08:11:54.270Z</time>
      </trkpt>
      <trkpt lat="47.7727" lon="2.17684">
        <ele>140</ele>
        <time>2016-12-04T08:11:55.273Z</time>
      </trkpt>
      <trkpt lat="47.7727" lon="2.17684">
        <ele>140</ele>
        <time>2016-12-04T08:11:56.267Z</time>
      </trkpt>
      <trkpt lat="47.77259" lon="2.17689">
        <ele>140</ele>
        <time>2016-12-04T08:11:57.272Z</time>
      </trkpt>
      <trkpt lat="47.77259" lon="2.17689">
        <ele>140</ele>
        <time>2016-12-04T08:11:58.267Z</time>
      </trkpt>
      <trkpt lat="47.77248" lon="2.17693">
        <ele>139</ele>
        <time>2016-12-04T08:11:59.275Z</time>
      </trkpt>
      <trkpt lat="47.77248" lon="2.17693">
        <ele>139</ele>
        <time>2016-12-04T08:12:00.268Z</time>
      </trkpt>
      <trkpt lat="47.77238" lon="2.17697">
        <ele>139</ele>
        <time>2016-12-04T08:12:01.273Z</time>
      </trkpt>
      <trkpt lat="47.77238" lon="2.17697">
        <ele>139</ele>
        <time>2016-12-04T08:12:02.268Z</time>
      </trkpt>
      <trkpt lat="47.77228" lon="2.177">
        <ele>139</ele>
        <time>2016-12-04T08:12:03.274Z</time>
      </trkpt>
      <trkpt lat="47.77228" lon="2.177">
        <ele>139</ele>
        <time>2016-12-04T08:12:04.275Z</time>
      </trkpt>
      <trkpt lat="47.77218" lon="2.17703">
        <ele>139</ele>
        <time>2016-12-04T08:12:05.281Z</time>
      </trkpt>
      <trkpt lat="47.77218" lon="2.17703">
        <ele>139</ele>
        <time>2016-12-04T08:12:06.270Z</time>
      </trkpt>
      <trkpt lat="47.77208" lon="2.17707">
        <ele>139</ele>
        <time>2016-12-04T08:12:07.274Z</time>
      </trkpt>
      <trkpt lat="47.77208" lon="2.17707">
        <ele>139</ele>
        <time>2016-12-04T08:12:08.268Z</time>
      </trkpt>
      <trkpt lat="47.772" lon="2.17711">
        <ele>140</ele>
        <time>2016-12-04T08:12:09.271Z</time>
      </trkpt>
      <trkpt lat="47.772" lon="2.17711">
        <ele>140</ele>
        <time>2016-12-04T08:12:10.268Z</time>
      </trkpt>
      <trkpt lat="47.77191" lon="2.17714">
        <ele>140</ele>
        <time>2016-12-04T08:12:11.275Z</time>
      </trkpt>
      <trkpt lat="47.77187" lon="2.17716">
        <ele>139</ele>
        <time>2016-12-04T08:12:12.273Z</time>
      </trkpt>
      <trkpt lat="47.77187" lon="2.17716">
        <ele>139</ele>
        <time>2016-12-04T08:12:13.267Z</time>
      </trkpt>
      <trkpt lat="47.7718" lon="2.17718">
        <ele>140</ele>
        <time>2016-12-04T08:12:14.273Z</time>
      </trkpt>
      <trkpt lat="47.77176" lon="2.1772">
        <ele>140</ele>
        <time>2016-12-04T08:12:15.274Z</time>
      </trkpt>
      <trkpt lat="47.77176" lon="2.1772">
        <ele>140</ele>
        <time>2016-12-04T08:12:16.267Z</time>
      </trkpt>
      <trkpt lat="47.7717" lon="2.17722">
        <ele>140</ele>
        <time>2016-12-04T08:12:17.281Z</time>
      </trkpt>
      <trkpt lat="47.77167" lon="2.17723">
        <ele>139</ele>
        <time>2016-12-04T08:12:18.274Z</time>
      </trkpt>
      <trkpt lat="47.77164" lon="2.17724">
        <ele>139</ele>
        <time>2016-12-04T08:12:19.274Z</time>
      </trkpt>
      <trkpt lat="47.77164" lon="2.17724">
        <ele>139</ele>
        <time>2016-12-04T08:12:20.268Z</time>
      </trkpt>
      <trkpt lat="47.77159" lon="2.17727">
        <ele>138</ele>
        <time>2016-12-04T08:12:21.273Z</time>
      </trkpt>
      <trkpt lat="47.77159" lon="2.17727">
        <ele>138</ele>
        <time>2016-12-04T08:12:22.267Z</time>
      </trkpt>
      <trkpt lat="47.77154" lon="2.17728">
        <ele>138</ele>
        <time>2016-12-04T08:12:23.274Z</time>
      </trkpt>
      <trkpt lat="47.77154" lon="2.17728">
        <ele>138</ele>
        <time>2016-12-04T08:12:24.268Z</time>
      </trkpt>
      <trkpt lat="47.77149" lon="2.17731">
        <ele>137</ele>
        <time>2016-12-04T08:12:25.273Z</time>
      </trkpt>
      <trkpt lat="47.77149" lon="2.17731">
        <ele>137</ele>
        <time>2016-12-04T08:12:26.268Z</time>
      </trkpt>
      <trkpt lat="47.77145" lon="2.17732">
        <ele>137</ele>
        <time>2016-12-04T08:12:27.274Z</time>
      </trkpt>
      <trkpt lat="47.77145" lon="2.17732">
        <ele>137</ele>
        <time>2016-12-04T08:12:28.277Z</time>
      </trkpt>
      <trkpt lat="47.77142" lon="2.17732">
        <ele>137</ele>
        <time>2016-12-04T08:12:29.275Z</time>
      </trkpt>
      <trkpt lat="47.7714" lon="2.17732">
        <ele>136</ele>
        <time>2016-12-04T08:12:30.272Z</time>
      </trkpt>
      <trkpt lat="47.7714" lon="2.17732">
        <ele>136</ele>
        <time>2016-12-04T08:12:31.265Z</time>
      </trkpt>
      <trkpt lat="47.77138" lon="2.17732">
        <ele>136</ele>
        <time>2016-12-04T08:12:32.272Z</time>
      </trkpt>
      <trkpt lat="47.77138" lon="2.17732">
        <ele>136</ele>
        <time>2016-12-04T08:12:33.279Z</time>
      </trkpt>
      <trkpt lat="47.77138" lon="2.17732">
        <ele>135</ele>
        <time>2016-12-04T08:12:34.273Z</time>
      </trkpt>
      <trkpt lat="47.77138" lon="2.17732">
        <ele>135</ele>
        <time>2016-12-04T08:12:35.251Z</time>
      </trkpt>
      <trkpt lat="47.77137" lon="2.17736">
        <ele>133</ele>
        <time>2016-12-04T08:12:36.264Z</time>
      </trkpt>
      <trkpt lat="47.77137" lon="2.17736">
        <ele>133</ele>
        <time>2016-12-04T08:12:37.269Z</time>
      </trkpt>
      <trkpt lat="47.7714" lon="2.17739">
        <ele>133</ele>
        <time>2016-12-04T08:12:38.246Z</time>
      </trkpt>
      <trkpt lat="47.77142" lon="2.17741">
        <ele>133</ele>
        <time>2016-12-04T08:12:39.248Z</time>
      </trkpt>
      <trkpt lat="47.77142" lon="2.17741">
        <ele>133</ele>
        <time>2016-12-04T08:12:40.277Z</time>
      </trkpt>
      <trkpt lat="47.77146" lon="2.17746">
        <ele>133</ele>
        <time>2016-12-04T08:12:41.250Z</time>
      </trkpt>
      <trkpt lat="47.7715" lon="2.17748">
        <ele>133</ele>
        <time>2016-12-04T08:12:42.282Z</time>
      </trkpt>
      <trkpt lat="47.7715" lon="2.17748">
        <ele>133</ele>
        <time>2016-12-04T08:12:43.259Z</time>
      </trkpt>
      <trkpt lat="47.77156" lon="2.17752">
        <ele>133</ele>
        <time>2016-12-04T08:12:44.282Z</time>
      </trkpt>
      <trkpt lat="47.77156" lon="2.17752">
        <ele>133</ele>
        <time>2016-12-04T08:12:45.247Z</time>
      </trkpt>
      <trkpt lat="47.77163" lon="2.17756">
        <ele>133</ele>
        <time>2016-12-04T08:12:46.267Z</time>
      </trkpt>
      <trkpt lat="47.77163" lon="2.17756">
        <ele>133</ele>
        <time>2016-12-04T08:12:47.270Z</time>
      </trkpt>
      <trkpt lat="47.77171" lon="2.17757">
        <ele>133</ele>
        <time>2016-12-04T08:12:48.246Z</time>
      </trkpt>
      <trkpt lat="47.77171" lon="2.17757">
        <ele>133</ele>
        <time>2016-12-04T08:12:49.274Z</time>
      </trkpt>
      <trkpt lat="47.77178" lon="2.17759">
        <ele>132</ele>
        <time>2016-12-04T08:12:50.282Z</time>
      </trkpt>
      <trkpt lat="47.77178" lon="2.17759">
        <ele>132</ele>
        <time>2016-12-04T08:12:51.247Z</time>
      </trkpt>
      <trkpt lat="47.77186" lon="2.17761">
        <ele>132</ele>
        <time>2016-12-04T08:12:52.278Z</time>
      </trkpt>
      <trkpt lat="47.77186" lon="2.17761">
        <ele>132</ele>
        <time>2016-12-04T08:12:53.244Z</time>
      </trkpt>
      <trkpt lat="47.77194" lon="2.17764">
        <ele>133</ele>
        <time>2016-12-04T08:12:54.275Z</time>
      </trkpt>
      <trkpt lat="47.77198" lon="2.17765">
        <ele>132</ele>
        <time>2016-12-04T08:12:55.245Z</time>
      </trkpt>
      <trkpt lat="47.77198" lon="2.17765">
        <ele>132</ele>
        <time>2016-12-04T08:12:56.266Z</time>
      </trkpt>
      <trkpt lat="47.77207" lon="2.17768">
        <ele>133</ele>
        <time>2016-12-04T08:12:57.243Z</time>
      </trkpt>
      <trkpt lat="47.77207" lon="2.17768">
        <ele>133</ele>
        <time>2016-12-04T08:12:58.272Z</time>
      </trkpt>
      <trkpt lat="47.77216" lon="2.17771">
        <ele>134</ele>
        <time>2016-12-04T08:12:59.246Z</time>
      </trkpt>
      <trkpt lat="47.77216" lon="2.17771">
        <ele>134</ele>
        <time>2016-12-04T08:13:00.274Z</time>
      </trkpt>
      <trkpt lat="47.77224" lon="2.17773">
        <ele>135</ele>
        <time>2016-12-04T08:13:01.251Z</time>
      </trkpt>
      <trkpt lat="47.77224" lon="2.17773">
        <ele>135</ele>
        <time>2016-12-04T08:13:02.282Z</time>
      </trkpt>
      <trkpt lat="47.77233" lon="2.17777">
        <ele>136</ele>
        <time>2016-12-04T08:13:03.246Z</time>
      </trkpt>
      <trkpt lat="47.77233" lon="2.17777">
        <ele>136</ele>
        <time>2016-12-04T08:13:04.276Z</time>
      </trkpt>
      <trkpt lat="47.77243" lon="2.17781">
        <ele>137</ele>
        <time>2016-12-04T08:13:05.252Z</time>
      </trkpt>
      <trkpt lat="47.77248" lon="2.17784">
        <ele>137</ele>
        <time>2016-12-04T08:13:06.265Z</time>
      </trkpt>
      <trkpt lat="47.77248" lon="2.17784">
        <ele>137</ele>
        <time>2016-12-04T08:13:07.271Z</time>
      </trkpt>
      <trkpt lat="47.77258" lon="2.17788">
        <ele>137</ele>
        <time>2016-12-04T08:13:08.274Z</time>
      </trkpt>
      <trkpt lat="47.77258" lon="2.17788">
        <ele>137</ele>
        <time>2016-12-04T08:13:09.243Z</time>
      </trkpt>
      <trkpt lat="47.77268" lon="2.17793">
        <ele>137</ele>
        <time>2016-12-04T08:13:10.273Z</time>
      </trkpt>
      <trkpt lat="47.77268" lon="2.17793">
        <ele>137</ele>
        <time>2016-12-04T08:13:11.278Z</time>
      </trkpt>
      <trkpt lat="47.77279" lon="2.17797">
        <ele>137</ele>
        <time>2016-12-04T08:13:12.282Z</time>
      </trkpt>
      <trkpt lat="47.77279" lon="2.17797">
        <ele>137</ele>
        <time>2016-12-04T08:13:13.247Z</time>
      </trkpt>
      <trkpt lat="47.77289" lon="2.17801">
        <ele>136</ele>
        <time>2016-12-04T08:13:14.276Z</time>
      </trkpt>
      <trkpt lat="47.77294" lon="2.17802">
        <ele>136</ele>
        <time>2016-12-04T08:13:15.245Z</time>
      </trkpt>
      <trkpt lat="47.77299" lon="2.17804">
        <ele>136</ele>
        <time>2016-12-04T08:13:16.268Z</time>
      </trkpt>
      <trkpt lat="47.77299" lon="2.17804">
        <ele>136</ele>
        <time>2016-12-04T08:13:17.282Z</time>
      </trkpt>
      <trkpt lat="47.7731" lon="2.17808">
        <ele>137</ele>
        <time>2016-12-04T08:13:18.282Z</time>
      </trkpt>
      <trkpt lat="47.7731" lon="2.17808">
        <ele>137</ele>
        <time>2016-12-04T08:13:19.248Z</time>
      </trkpt>
      <trkpt lat="47.77321" lon="2.17812">
        <ele>137</ele>
        <time>2016-12-04T08:13:20.277Z</time>
      </trkpt>
      <trkpt lat="47.77327" lon="2.17813">
        <ele>137</ele>
        <time>2016-12-04T08:13:21.243Z</time>
      </trkpt>
      <trkpt lat="47.77327" lon="2.17813">
        <ele>137</ele>
        <time>2016-12-04T08:13:22.273Z</time>
      </trkpt>
      <trkpt lat="47.77338" lon="2.17817">
        <ele>137</ele>
        <time>2016-12-04T08:13:23.274Z</time>
      </trkpt>
      <trkpt lat="47.77343" lon="2.17819">
        <ele>137</ele>
        <time>2016-12-04T08:13:24.251Z</time>
      </trkpt>
      <trkpt lat="47.77343" lon="2.17819">
        <ele>137</ele>
        <time>2016-12-04T08:13:25.245Z</time>
      </trkpt>
      <trkpt lat="47.77355" lon="2.17823">
        <ele>137</ele>
        <time>2016-12-04T08:13:26.266Z</time>
      </trkpt>
      <trkpt lat="47.7736" lon="2.17825">
        <ele>137</ele>
        <time>2016-12-04T08:13:27.272Z</time>
      </trkpt>
      <trkpt lat="47.7736" lon="2.17825">
        <ele>137</ele>
        <time>2016-12-04T08:13:28.281Z</time>
      </trkpt>
      <trkpt lat="47.77371" lon="2.17829">
        <ele>137</ele>
        <time>2016-12-04T08:13:29.256Z</time>
      </trkpt>
      <trkpt lat="47.77377" lon="2.17832">
        <ele>137</ele>
        <time>2016-12-04T08:13:30.247Z</time>
      </trkpt>
      <trkpt lat="47.77377" lon="2.17832">
        <ele>137</ele>
        <time>2016-12-04T08:13:31.274Z</time>
      </trkpt>
      <trkpt lat="47.77389" lon="2.17836">
        <ele>137</ele>
        <time>2016-12-04T08:13:32.251Z</time>
      </trkpt>
      <trkpt lat="47.77389" lon="2.17836">
        <ele>137</ele>
        <time>2016-12-04T08:13:33.243Z</time>
      </trkpt>
      <trkpt lat="47.77401" lon="2.1784">
        <ele>137</ele>
        <time>2016-12-04T08:13:34.245Z</time>
      </trkpt>
      <trkpt lat="47.77401" lon="2.1784">
        <ele>137</ele>
        <time>2016-12-04T08:13:35.273Z</time>
      </trkpt>
      <trkpt lat="47.77413" lon="2.17844">
        <ele>137</ele>
        <time>2016-12-04T08:13:36.265Z</time>
      </trkpt>
      <trkpt lat="47.77419" lon="2.17846">
        <ele>137</ele>
        <time>2016-12-04T08:13:37.245Z</time>
      </trkpt>
      <trkpt lat="47.77419" lon="2.17846">
        <ele>137</ele>
        <time>2016-12-04T08:13:38.272Z</time>
      </trkpt>
      <trkpt lat="47.77431" lon="2.17851">
        <ele>137</ele>
        <time>2016-12-04T08:13:39.274Z</time>
      </trkpt>
      <trkpt lat="47.77437" lon="2.17853">
        <ele>138</ele>
        <time>2016-12-04T08:13:40.249Z</time>
      </trkpt>
      <trkpt lat="47.77437" lon="2.17853">
        <ele>138</ele>
        <time>2016-12-04T08:13:41.257Z</time>
      </trkpt>
      <trkpt lat="47.77449" lon="2.17858">
        <ele>138</ele>
        <time>2016-12-04T08:13:42.248Z</time>
      </trkpt>
      <trkpt lat="47.77449" lon="2.17858">
        <ele>138</ele>
        <time>2016-12-04T08:13:43.276Z</time>
      </trkpt>
      <trkpt lat="47.77461" lon="2.17862">
        <ele>138</ele>
        <time>2016-12-04T08:13:44.282Z</time>
      </trkpt>
      <trkpt lat="47.77461" lon="2.17862">
        <ele>138</ele>
        <time>2016-12-04T08:13:45.267Z</time>
      </trkpt>
      <trkpt lat="47.77473" lon="2.17866">
        <ele>139</ele>
        <time>2016-12-04T08:13:46.268Z</time>
      </trkpt>
      <trkpt lat="47.77473" lon="2.17866">
        <ele>139</ele>
        <time>2016-12-04T08:13:47.273Z</time>
      </trkpt>
      <trkpt lat="47.77484" lon="2.1787">
        <ele>140</ele>
        <time>2016-12-04T08:13:48.245Z</time>
      </trkpt>
      <trkpt lat="47.77484" lon="2.1787">
        <ele>140</ele>
        <time>2016-12-04T08:13:49.274Z</time>
      </trkpt>
      <trkpt lat="47.77495" lon="2.17876">
        <ele>140</ele>
        <time>2016-12-04T08:13:50.246Z</time>
      </trkpt>
      <trkpt lat="47.77495" lon="2.17876">
        <ele>140</ele>
        <time>2016-12-04T08:13:51.275Z</time>
      </trkpt>
      <trkpt lat="47.77506" lon="2.17884">
        <ele>140</ele>
        <time>2016-12-04T08:13:52.282Z</time>
      </trkpt>
      <trkpt lat="47.77506" lon="2.17884">
        <ele>140</ele>
        <time>2016-12-04T08:13:53.246Z</time>
      </trkpt>
      <trkpt lat="47.77516" lon="2.17892">
        <ele>141</ele>
        <time>2016-12-04T08:13:54.276Z</time>
      </trkpt>
      <trkpt lat="47.77522" lon="2.17896">
        <ele>141</ele>
        <time>2016-12-04T08:13:55.244Z</time>
      </trkpt>
      <trkpt lat="47.77527" lon="2.179">
        <ele>141</ele>
        <time>2016-12-04T08:13:56.282Z</time>
      </trkpt>
      <trkpt lat="47.77527" lon="2.179">
        <ele>141</ele>
        <time>2016-12-04T08:13:57.257Z</time>
      </trkpt>
      <trkpt lat="47.77538" lon="2.17908">
        <ele>140</ele>
        <time>2016-12-04T08:13:58.246Z</time>
      </trkpt>
      <trkpt lat="47.77538" lon="2.17908">
        <ele>140</ele>
        <time>2016-12-04T08:13:59.274Z</time>
      </trkpt>
      <trkpt lat="47.77549" lon="2.17917">
        <ele>140</ele>
        <time>2016-12-04T08:14:00.277Z</time>
      </trkpt>
      <trkpt lat="47.77549" lon="2.17917">
        <ele>140</ele>
        <time>2016-12-04T08:14:01.243Z</time>
      </trkpt>
      <trkpt lat="47.7756" lon="2.17926">
        <ele>140</ele>
        <time>2016-12-04T08:14:02.282Z</time>
      </trkpt>
      <trkpt lat="47.7756" lon="2.17926">
        <ele>140</ele>
        <time>2016-12-04T08:14:03.256Z</time>
      </trkpt>
      <trkpt lat="47.77571" lon="2.17935">
        <ele>140</ele>
        <time>2016-12-04T08:14:04.245Z</time>
      </trkpt>
      <trkpt lat="47.77571" lon="2.17935">
        <ele>140</ele>
        <time>2016-12-04T08:14:05.273Z</time>
      </trkpt>
      <trkpt lat="47.77581" lon="2.17943">
        <ele>139</ele>
        <time>2016-12-04T08:14:06.278Z</time>
      </trkpt>
      <trkpt lat="47.77586" lon="2.17947">
        <ele>140</ele>
        <time>2016-12-04T08:14:07.255Z</time>
      </trkpt>
      <trkpt lat="47.77586" lon="2.17947">
        <ele>140</ele>
        <time>2016-12-04T08:14:08.243Z</time>
      </trkpt>
      <trkpt lat="47.77599" lon="2.17958">
        <ele>139</ele>
        <time>2016-12-04T08:14:09.267Z</time>
      </trkpt>
      <trkpt lat="47.77605" lon="2.17963">
        <ele>139</ele>
        <time>2016-12-04T08:14:10.273Z</time>
      </trkpt>
      <trkpt lat="47.77605" lon="2.17963">
        <ele>139</ele>
        <time>2016-12-04T08:14:11.277Z</time>
      </trkpt>
      <trkpt lat="47.77615" lon="2.17973">
        <ele>138</ele>
        <time>2016-12-04T08:14:12.263Z</time>
      </trkpt>
      <trkpt lat="47.77615" lon="2.17973">
        <ele>138</ele>
        <time>2016-12-04T08:14:13.269Z</time>
      </trkpt>
      <trkpt lat="47.77624" lon="2.17984">
        <ele>137</ele>
        <time>2016-12-04T08:14:14.245Z</time>
      </trkpt>
      <trkpt lat="47.77624" lon="2.17984">
        <ele>137</ele>
        <time>2016-12-04T08:14:15.273Z</time>
      </trkpt>
      <trkpt lat="47.77634" lon="2.17996">
        <ele>137</ele>
        <time>2016-12-04T08:14:16.263Z</time>
      </trkpt>
      <trkpt lat="47.77634" lon="2.17996">
        <ele>137</ele>
        <time>2016-12-04T08:14:17.272Z</time>
      </trkpt>
      <trkpt lat="47.77643" lon="2.18009">
        <ele>136</ele>
        <time>2016-12-04T08:14:18.277Z</time>
      </trkpt>
      <trkpt lat="47.77643" lon="2.18009">
        <ele>136</ele>
        <time>2016-12-04T08:14:19.271Z</time>
      </trkpt>
      <trkpt lat="47.77653" lon="2.18022">
        <ele>136</ele>
        <time>2016-12-04T08:14:20.249Z</time>
      </trkpt>
      <trkpt lat="47.77653" lon="2.18022">
        <ele>136</ele>
        <time>2016-12-04T08:14:21.278Z</time>
      </trkpt>
      <trkpt lat="47.77662" lon="2.18035">
        <ele>136</ele>
        <time>2016-12-04T08:14:22.282Z</time>
      </trkpt>
      <trkpt lat="47.77666" lon="2.18042">
        <ele>136</ele>
        <time>2016-12-04T08:14:23.282Z</time>
      </trkpt>
      <trkpt lat="47.77666" lon="2.18042">
        <ele>136</ele>
        <time>2016-12-04T08:14:24.246Z</time>
      </trkpt>
      <trkpt lat="47.77675" lon="2.18057">
        <ele>135</ele>
        <time>2016-12-04T08:14:25.275Z</time>
      </trkpt>
      <trkpt lat="47.7768" lon="2.18064">
        <ele>136</ele>
        <time>2016-12-04T08:14:26.245Z</time>
      </trkpt>
      <trkpt lat="47.7768" lon="2.18064">
        <ele>136</ele>
        <time>2016-12-04T08:14:27.273Z</time>
      </trkpt>
      <trkpt lat="47.77687" lon="2.18079">
        <ele>136</ele>
        <time>2016-12-04T08:14:28.277Z</time>
      </trkpt>
      <trkpt lat="47.77687" lon="2.18079">
        <ele>136</ele>
        <time>2016-12-04T08:14:29.278Z</time>
      </trkpt>
      <trkpt lat="47.77694" lon="2.18095">
        <ele>136</ele>
        <time>2016-12-04T08:14:30.282Z</time>
      </trkpt>
      <trkpt lat="47.77694" lon="2.18095">
        <ele>136</ele>
        <time>2016-12-04T08:14:31.247Z</time>
      </trkpt>
      <trkpt lat="47.77702" lon="2.1811">
        <ele>136</ele>
        <time>2016-12-04T08:14:32.278Z</time>
      </trkpt>
      <trkpt lat="47.77706" lon="2.18119">
        <ele>136</ele>
        <time>2016-12-04T08:14:33.250Z</time>
      </trkpt>
      <trkpt lat="47.7771" lon="2.18127">
        <ele>136</ele>
        <time>2016-12-04T08:14:34.282Z</time>
      </trkpt>
      <trkpt lat="47.7771" lon="2.18127">
        <ele>136</ele>
        <time>2016-12-04T08:14:35.247Z</time>
      </trkpt>
      <trkpt lat="47.77718" lon="2.18143">
        <ele>136</ele>
        <time>2016-12-04T08:14:36.282Z</time>
      </trkpt>
      <trkpt lat="47.77722" lon="2.18151">
        <ele>135</ele>
        <time>2016-12-04T08:14:37.266Z</time>
      </trkpt>
      <trkpt lat="47.77726" lon="2.18159">
        <ele>135</ele>
        <time>2016-12-04T08:14:38.262Z</time>
      </trkpt>
      <trkpt lat="47.77726" lon="2.18159">
        <ele>135</ele>
        <time>2016-12-04T08:14:39.268Z</time>
      </trkpt>
      <trkpt lat="47.77735" lon="2.18175">
        <ele>135</ele>
        <time>2016-12-04T08:14:40.258Z</time>
      </trkpt>
      <trkpt lat="47.77735" lon="2.18175">
        <ele>135</ele>
        <time>2016-12-04T08:14:41.246Z</time>
      </trkpt>
      <trkpt lat="47.77744" lon="2.18191">
        <ele>135</ele>
        <time>2016-12-04T08:14:42.282Z</time>
      </trkpt>
      <trkpt lat="47.77744" lon="2.18191">
        <ele>135</ele>
        <time>2016-12-04T08:14:43.247Z</time>
      </trkpt>
      <trkpt lat="47.77752" lon="2.18208">
        <ele>134</ele>
        <time>2016-12-04T08:14:44.251Z</time>
      </trkpt>
      <trkpt lat="47.77752" lon="2.18208">
        <ele>134</ele>
        <time>2016-12-04T08:14:45.245Z</time>
      </trkpt>
      <trkpt lat="47.77761" lon="2.18224">
        <ele>134</ele>
        <time>2016-12-04T08:14:46.282Z</time>
      </trkpt>
      <trkpt lat="47.77761" lon="2.18224">
        <ele>134</ele>
        <time>2016-12-04T08:14:47.246Z</time>
      </trkpt>
      <trkpt lat="47.77768" lon="2.1824">
        <ele>134</ele>
        <time>2016-12-04T08:14:48.275Z</time>
      </trkpt>
      <trkpt lat="47.77772" lon="2.18248">
        <ele>133</ele>
        <time>2016-12-04T08:14:49.251Z</time>
      </trkpt>
      <trkpt lat="47.77772" lon="2.18248">
        <ele>133</ele>
        <time>2016-12-04T08:14:50.243Z</time>
      </trkpt>
      <trkpt lat="47.77781" lon="2.18262">
        <ele>134</ele>
        <time>2016-12-04T08:14:51.245Z</time>
      </trkpt>
      <trkpt lat="47.77781" lon="2.18262">
        <ele>134</ele>
        <time>2016-12-04T08:14:52.273Z</time>
      </trkpt>
      <trkpt lat="47.77791" lon="2.18273">
        <ele>134</ele>
        <time>2016-12-04T08:14:53.275Z</time>
      </trkpt>
      <trkpt lat="47.77795" lon="2.18278">
        <ele>134</ele>
        <time>2016-12-04T08:14:54.278Z</time>
      </trkpt>
      <trkpt lat="47.77795" lon="2.18278">
        <ele>134</ele>
        <time>2016-12-04T08:14:55.243Z</time>
      </trkpt>
      <trkpt lat="47.77805" lon="2.18285">
        <ele>134</ele>
        <time>2016-12-04T08:14:56.265Z</time>
      </trkpt>
      <trkpt lat="47.77805" lon="2.18285">
        <ele>134</ele>
        <time>2016-12-04T08:14:57.271Z</time>
      </trkpt>
      <trkpt lat="47.77814" lon="2.18292">
        <ele>134</ele>
        <time>2016-12-04T08:14:58.247Z</time>
      </trkpt>
      <trkpt lat="47.77814" lon="2.18292">
        <ele>134</ele>
        <time>2016-12-04T08:14:59.275Z</time>
      </trkpt>
      <trkpt lat="47.77825" lon="2.18297">
        <ele>134</ele>
        <time>2016-12-04T08:15:00.278Z</time>
      </trkpt>
      <trkpt lat="47.77825" lon="2.18297">
        <ele>134</ele>
        <time>2016-12-04T08:15:01.243Z</time>
      </trkpt>
      <trkpt lat="47.77837" lon="2.18304">
        <ele>135</ele>
        <time>2016-12-04T08:15:02.274Z</time>
      </trkpt>
      <trkpt lat="47.77844" lon="2.18307">
        <ele>135</ele>
        <time>2016-12-04T08:15:03.261Z</time>
      </trkpt>
      <trkpt lat="47.77849" lon="2.18311">
        <ele>135</ele>
        <time>2016-12-04T08:15:04.258Z</time>
      </trkpt>
      <trkpt lat="47.77849" lon="2.18311">
        <ele>135</ele>
        <time>2016-12-04T08:15:05.268Z</time>
      </trkpt>
      <trkpt lat="47.77861" lon="2.18321">
        <ele>134</ele>
        <time>2016-12-04T08:15:06.267Z</time>
      </trkpt>
      <trkpt lat="47.77866" lon="2.18326">
        <ele>133</ele>
        <time>2016-12-04T08:15:07.273Z</time>
      </trkpt>
      <trkpt lat="47.77871" lon="2.18331">
        <ele>134</ele>
        <time>2016-12-04T08:15:08.245Z</time>
      </trkpt>
      <trkpt lat="47.77871" lon="2.18331">
        <ele>134</ele>
        <time>2016-12-04T08:15:09.275Z</time>
      </trkpt>
      <trkpt lat="47.77882" lon="2.18343">
        <ele>134</ele>
        <time>2016-12-04T08:15:10.243Z</time>
      </trkpt>
      <trkpt lat="47.77882" lon="2.18343">
        <ele>134</ele>
        <time>2016-12-04T08:15:11.272Z</time>
      </trkpt>
      <trkpt lat="47.77891" lon="2.18354">
        <ele>134</ele>
        <time>2016-12-04T08:15:12.274Z</time>
      </trkpt>
      <trkpt lat="47.77897" lon="2.18359">
        <ele>134</ele>
        <time>2016-12-04T08:15:13.243Z</time>
      </trkpt>
      <trkpt lat="47.77897" lon="2.18359">
        <ele>134</ele>
        <time>2016-12-04T08:15:14.272Z</time>
      </trkpt>
      <trkpt lat="47.77907" lon="2.1837">
        <ele>134</ele>
        <time>2016-12-04T08:15:15.285Z</time>
      </trkpt>
      <trkpt lat="47.77912" lon="2.18375">
        <ele>134</ele>
        <time>2016-12-04T08:15:16.245Z</time>
      </trkpt>
      <trkpt lat="47.77912" lon="2.18375">
        <ele>134</ele>
        <time>2016-12-04T08:15:17.250Z</time>
      </trkpt>
      <trkpt lat="47.77922" lon="2.18386">
        <ele>134</ele>
        <time>2016-12-04T08:15:18.243Z</time>
      </trkpt>
      <trkpt lat="47.77922" lon="2.18386">
        <ele>134</ele>
        <time>2016-12-04T08:15:19.274Z</time>
      </trkpt>
      <trkpt lat="47.77932" lon="2.18397">
        <ele>134</ele>
        <time>2016-12-04T08:15:20.251Z</time>
      </trkpt>
      <trkpt lat="47.77932" lon="2.18397">
        <ele>134</ele>
        <time>2016-12-04T08:15:21.244Z</time>
      </trkpt>
      <trkpt lat="47.77942" lon="2.18407">
        <ele>134</ele>
        <time>2016-12-04T08:15:22.274Z</time>
      </trkpt>
      <trkpt lat="47.77942" lon="2.18407">
        <ele>134</ele>
        <time>2016-12-04T08:15:23.271Z</time>
      </trkpt>
      <trkpt lat="47.77952" lon="2.18417">
        <ele>134</ele>
        <time>2016-12-04T08:15:24.246Z</time>
      </trkpt>
      <trkpt lat="47.77952" lon="2.18417">
        <ele>134</ele>
        <time>2016-12-04T08:15:25.274Z</time>
      </trkpt>
      <trkpt lat="47.77962" lon="2.18428">
        <ele>134</ele>
        <time>2016-12-04T08:15:26.270Z</time>
      </trkpt>
      <trkpt lat="47.77967" lon="2.18433">
        <ele>134</ele>
        <time>2016-12-04T08:15:27.251Z</time>
      </trkpt>
      <trkpt lat="47.77967" lon="2.18433">
        <ele>134</ele>
        <time>2016-12-04T08:15:28.243Z</time>
      </trkpt>
      <trkpt lat="47.77977" lon="2.18444">
        <ele>134</ele>
        <time>2016-12-04T08:15:29.276Z</time>
      </trkpt>
      <trkpt lat="47.77982" lon="2.18449">
        <ele>133</ele>
        <time>2016-12-04T08:15:30.243Z</time>
      </trkpt>
      <trkpt lat="47.77982" lon="2.18449">
        <ele>133</ele>
        <time>2016-12-04T08:15:31.271Z</time>
      </trkpt>
      <trkpt lat="47.77992" lon="2.18459">
        <ele>134</ele>
        <time>2016-12-04T08:15:32.265Z</time>
      </trkpt>
      <trkpt lat="47.77992" lon="2.18459">
        <ele>134</ele>
        <time>2016-12-04T08:15:33.269Z</time>
      </trkpt>
      <trkpt lat="47.78002" lon="2.1847">
        <ele>134</ele>
        <time>2016-12-04T08:15:34.277Z</time>
      </trkpt>
      <trkpt lat="47.78002" lon="2.1847">
        <ele>134</ele>
        <time>2016-12-04T08:15:35.243Z</time>
      </trkpt>
      <trkpt lat="47.78012" lon="2.1848">
        <ele>135</ele>
        <time>2016-12-04T08:15:36.266Z</time>
      </trkpt>
      <trkpt lat="47.78012" lon="2.1848">
        <ele>135</ele>
        <time>2016-12-04T08:15:37.271Z</time>
      </trkpt>
      <trkpt lat="47.78022" lon="2.18491">
        <ele>135</ele>
        <time>2016-12-04T08:15:38.273Z</time>
      </trkpt>
      <trkpt lat="47.78022" lon="2.18491">
        <ele>135</ele>
        <time>2016-12-04T08:15:39.277Z</time>
      </trkpt>
      <trkpt lat="47.78033" lon="2.18502">
        <ele>134</ele>
        <time>2016-12-04T08:15:40.247Z</time>
      </trkpt>
      <trkpt lat="47.78033" lon="2.18502">
        <ele>134</ele>
        <time>2016-12-04T08:15:41.277Z</time>
      </trkpt>
      <trkpt lat="47.78043" lon="2.18513">
        <ele>134</ele>
        <time>2016-12-04T08:15:42.251Z</time>
      </trkpt>
      <trkpt lat="47.78043" lon="2.18513">
        <ele>134</ele>
        <time>2016-12-04T08:15:43.243Z</time>
      </trkpt>
      <trkpt lat="47.78053" lon="2.18525">
        <ele>134</ele>
        <time>2016-12-04T08:15:44.275Z</time>
      </trkpt>
      <trkpt lat="47.78053" lon="2.18525">
        <ele>134</ele>
        <time>2016-12-04T08:15:45.245Z</time>
      </trkpt>
      <trkpt lat="47.78064" lon="2.18537">
        <ele>135</ele>
        <time>2016-12-04T08:15:46.243Z</time>
      </trkpt>
      <trkpt lat="47.78064" lon="2.18537">
        <ele>135</ele>
        <time>2016-12-04T08:15:47.275Z</time>
      </trkpt>
      <trkpt lat="47.78075" lon="2.18548">
        <ele>134</ele>
        <time>2016-12-04T08:15:48.251Z</time>
      </trkpt>
      <trkpt lat="47.78075" lon="2.18548">
        <ele>134</ele>
        <time>2016-12-04T08:15:49.243Z</time>
      </trkpt>
      <trkpt lat="47.78087" lon="2.18561">
        <ele>134</ele>
        <time>2016-12-04T08:15:50.274Z</time>
      </trkpt>
      <trkpt lat="47.78093" lon="2.18567">
        <ele>134</ele>
        <time>2016-12-04T08:15:51.251Z</time>
      </trkpt>
      <trkpt lat="47.78098" lon="2.18573">
        <ele>134</ele>
        <time>2016-12-04T08:15:52.243Z</time>
      </trkpt>
      <trkpt lat="47.78098" lon="2.18573">
        <ele>134</ele>
        <time>2016-12-04T08:15:53.272Z</time>
      </trkpt>
      <trkpt lat="47.78111" lon="2.18586">
        <ele>133</ele>
        <time>2016-12-04T08:15:54.277Z</time>
      </trkpt>
      <trkpt lat="47.78111" lon="2.18586">
        <ele>133</ele>
        <time>2016-12-04T08:15:55.254Z</time>
      </trkpt>
      <trkpt lat="47.78124" lon="2.18597">
        <ele>132</ele>
        <time>2016-12-04T08:15:56.268Z</time>
      </trkpt>
      <trkpt lat="47.78124" lon="2.18597">
        <ele>132</ele>
        <time>2016-12-04T08:15:57.245Z</time>
      </trkpt>
      <trkpt lat="47.78137" lon="2.18608">
        <ele>131</ele>
        <time>2016-12-04T08:15:58.275Z</time>
      </trkpt>
      <trkpt lat="47.78137" lon="2.18608">
        <ele>131</ele>
        <time>2016-12-04T08:15:59.271Z</time>
      </trkpt>
      <trkpt lat="47.78151" lon="2.1862">
        <ele>131</ele>
        <time>2016-12-04T08:16:00.246Z</time>
      </trkpt>
      <trkpt lat="47.78151" lon="2.1862">
        <ele>131</ele>
        <time>2016-12-04T08:16:01.274Z</time>
      </trkpt>
      <trkpt lat="47.78165" lon="2.18631">
        <ele>129</ele>
        <time>2016-12-04T08:16:02.277Z</time>
      </trkpt>
      <trkpt lat="47.78172" lon="2.18637">
        <ele>129</ele>
        <time>2016-12-04T08:16:03.278Z</time>
      </trkpt>
      <trkpt lat="47.78179" lon="2.18643">
        <ele>128</ele>
        <time>2016-12-04T08:16:04.243Z</time>
      </trkpt>
      <trkpt lat="47.78179" lon="2.18643">
        <ele>128</ele>
        <time>2016-12-04T08:16:05.245Z</time>
      </trkpt>
      <trkpt lat="47.78193" lon="2.18657">
        <ele>127</ele>
        <time>2016-12-04T08:16:06.266Z</time>
      </trkpt>
      <trkpt lat="47.78193" lon="2.18657">
        <ele>127</ele>
        <time>2016-12-04T08:16:07.271Z</time>
      </trkpt>
      <trkpt lat="47.78207" lon="2.18672">
        <ele>126</ele>
        <time>2016-12-04T08:16:08.246Z</time>
      </trkpt>
      <trkpt lat="47.78207" lon="2.18672">
        <ele>126</ele>
        <time>2016-12-04T08:16:09.274Z</time>
      </trkpt>
      <trkpt lat="47.78221" lon="2.18688">
        <ele>126</ele>
        <time>2016-12-04T08:16:10.277Z</time>
      </trkpt>
      <trkpt lat="47.78221" lon="2.18688">
        <ele>126</ele>
        <time>2016-12-04T08:16:11.243Z</time>
      </trkpt>
      <trkpt lat="47.78234" lon="2.18706">
        <ele>125</ele>
        <time>2016-12-04T08:16:12.272Z</time>
      </trkpt>
      <trkpt lat="47.7824" lon="2.18715">
        <ele>124</ele>
        <time>2016-12-04T08:16:13.255Z</time>
      </trkpt>
      <trkpt lat="47.7824" lon="2.18715">
        <ele>124</ele>
        <time>2016-12-04T08:16:14.245Z</time>
      </trkpt>
      <trkpt lat="47.78252" lon="2.18736">
        <ele>124</ele>
        <time>2016-12-04T08:16:15.275Z</time>
      </trkpt>
      <trkpt lat="47.78257" lon="2.18747">
        <ele>124</ele>
        <time>2016-12-04T08:16:16.260Z</time>
      </trkpt>
      <trkpt lat="47.78257" lon="2.18747">
        <ele>124</ele>
        <time>2016-12-04T08:16:17.269Z</time>
      </trkpt>
      <trkpt lat="47.78266" lon="2.18768">
        <ele>124</ele>
        <time>2016-12-04T08:16:18.276Z</time>
      </trkpt>
      <trkpt lat="47.78266" lon="2.18768">
        <ele>124</ele>
        <time>2016-12-04T08:16:19.243Z</time>
      </trkpt>
      <trkpt lat="47.78273" lon="2.18788">
        <ele>124</ele>
        <time>2016-12-04T08:16:20.275Z</time>
      </trkpt>
      <trkpt lat="47.78276" lon="2.18797">
        <ele>124</ele>
        <time>2016-12-04T08:16:21.244Z</time>
      </trkpt>
      <trkpt lat="47.78276" lon="2.18797">
        <ele>124</ele>
        <time>2016-12-04T08:16:22.274Z</time>
      </trkpt>
      <trkpt lat="47.78282" lon="2.18814">
        <ele>124</ele>
        <time>2016-12-04T08:16:23.250Z</time>
      </trkpt>
      <trkpt lat="47.78285" lon="2.18823">
        <ele>124</ele>
        <time>2016-12-04T08:16:24.243Z</time>
      </trkpt>
      <trkpt lat="47.78285" lon="2.18823">
        <ele>124</ele>
        <time>2016-12-04T08:16:25.272Z</time>
      </trkpt>
      <trkpt lat="47.78291" lon="2.18841">
        <ele>123</ele>
        <time>2016-12-04T08:16:26.243Z</time>
      </trkpt>
      <trkpt lat="47.78294" lon="2.1885">
        <ele>123</ele>
        <time>2016-12-04T08:16:27.279Z</time>
      </trkpt>
      <trkpt lat="47.78298" lon="2.18859">
        <ele>123</ele>
        <time>2016-12-04T08:16:28.250Z</time>
      </trkpt>
      <trkpt lat="47.78298" lon="2.18859">
        <ele>123</ele>
        <time>2016-12-04T08:16:29.278Z</time>
      </trkpt>
      <trkpt lat="47.78305" lon="2.18878">
        <ele>122</ele>
        <time>2016-12-04T08:16:30.251Z</time>
      </trkpt>
      <trkpt lat="47.78309" lon="2.18886">
        <ele>121</ele>
        <time>2016-12-04T08:16:31.243Z</time>
      </trkpt>
      <trkpt lat="47.78309" lon="2.18886">
        <ele>121</ele>
        <time>2016-12-04T08:16:32.273Z</time>
      </trkpt>
      <trkpt lat="47.78316" lon="2.18902">
        <ele>121</ele>
        <time>2016-12-04T08:16:33.279Z</time>
      </trkpt>
      <trkpt lat="47.78316" lon="2.18902">
        <ele>121</ele>
        <time>2016-12-04T08:16:34.245Z</time>
      </trkpt>
      <trkpt lat="47.78324" lon="2.18916">
        <ele>120</ele>
        <time>2016-12-04T08:16:35.305Z</time>
      </trkpt>
      <trkpt lat="47.78324" lon="2.18916">
        <ele>120</ele>
        <time>2016-12-04T08:16:36.275Z</time>
      </trkpt>
      <trkpt lat="47.78333" lon="2.18927">
        <ele>119</ele>
        <time>2016-12-04T08:16:37.251Z</time>
      </trkpt>
      <trkpt lat="47.78336" lon="2.18934">
        <ele>118</ele>
        <time>2016-12-04T08:16:38.248Z</time>
      </trkpt>
      <trkpt lat="47.78336" lon="2.18934">
        <ele>118</ele>
        <time>2016-12-04T08:16:39.276Z</time>
      </trkpt>
      <trkpt lat="47.78336" lon="2.18951">
        <ele>118</ele>
        <time>2016-12-04T08:16:40.278Z</time>
      </trkpt>
      <trkpt lat="47.78336" lon="2.18951">
        <ele>118</ele>
        <time>2016-12-04T08:16:41.244Z</time>
      </trkpt>
      <trkpt lat="47.78329" lon="2.18962">
        <ele>117</ele>
        <time>2016-12-04T08:16:42.275Z</time>
      </trkpt>
      <trkpt lat="47.78325" lon="2.18968">
        <ele>116</ele>
        <time>2016-12-04T08:16:43.243Z</time>
      </trkpt>
      <trkpt lat="47.78325" lon="2.18968">
        <ele>116</ele>
        <time>2016-12-04T08:16:44.274Z</time>
      </trkpt>
      <trkpt lat="47.78316" lon="2.18978">
        <ele>115</ele>
        <time>2016-12-04T08:16:45.243Z</time>
      </trkpt>
      <trkpt lat="47.78316" lon="2.18978">
        <ele>115</ele>
        <time>2016-12-04T08:16:46.266Z</time>
      </trkpt>
      <trkpt lat="47.78308" lon="2.1899">
        <ele>115</ele>
        <time>2016-12-04T08:16:47.243Z</time>
      </trkpt>
      <trkpt lat="47.78308" lon="2.1899">
        <ele>115</ele>
        <time>2016-12-04T08:16:48.274Z</time>
      </trkpt>
      <trkpt lat="47.78299" lon="2.19003">
        <ele>115</ele>
        <time>2016-12-04T08:16:49.278Z</time>
      </trkpt>
      <trkpt lat="47.78299" lon="2.19003">
        <ele>115</ele>
        <time>2016-12-04T08:16:50.244Z</time>
      </trkpt>
      <trkpt lat="47.78289" lon="2.19014">
        <ele>115</ele>
        <time>2016-12-04T08:16:51.274Z</time>
      </trkpt>
      <trkpt lat="47.78285" lon="2.19021">
        <ele>115</ele>
        <time>2016-12-04T08:16:52.257Z</time>
      </trkpt>
      <trkpt lat="47.78285" lon="2.19021">
        <ele>115</ele>
        <time>2016-12-04T08:16:53.245Z</time>
      </trkpt>
      <trkpt lat="47.78279" lon="2.19035">
        <ele>115</ele>
        <time>2016-12-04T08:16:54.275Z</time>
      </trkpt>
      <trkpt lat="47.78278" lon="2.19043">
        <ele>114</ele>
        <time>2016-12-04T08:16:55.251Z</time>
      </trkpt>
      <trkpt lat="47.78278" lon="2.19043">
        <ele>114</ele>
        <time>2016-12-04T08:16:56.266Z</time>
      </trkpt>
      <trkpt lat="47.78282" lon="2.19059">
        <ele>114</ele>
        <time>2016-12-04T08:16:57.271Z</time>
      </trkpt>
      <trkpt lat="47.78285" lon="2.19067">
        <ele>114</ele>
        <time>2016-12-04T08:16:58.246Z</time>
      </trkpt>
      <trkpt lat="47.78285" lon="2.19067">
        <ele>114</ele>
        <time>2016-12-04T08:16:59.273Z</time>
      </trkpt>
      <trkpt lat="47.78291" lon="2.19083">
        <ele>114</ele>
        <time>2016-12-04T08:17:00.247Z</time>
      </trkpt>
      <trkpt lat="47.78291" lon="2.19083">
        <ele>114</ele>
        <time>2016-12-04T08:17:01.276Z</time>
      </trkpt>
      <trkpt lat="47.78298" lon="2.19099">
        <ele>113</ele>
        <time>2016-12-04T08:17:02.251Z</time>
      </trkpt>
      <trkpt lat="47.78302" lon="2.19107">
        <ele>113</ele>
        <time>2016-12-04T08:17:03.245Z</time>
      </trkpt>
      <trkpt lat="47.78306" lon="2.19114">
        <ele>113</ele>
        <time>2016-12-04T08:17:04.275Z</time>
      </trkpt>
      <trkpt lat="47.78306" lon="2.19114">
        <ele>113</ele>
        <time>2016-12-04T08:17:05.247Z</time>
      </trkpt>
      <trkpt lat="47.78313" lon="2.19131">
        <ele>112</ele>
        <time>2016-12-04T08:17:06.245Z</time>
      </trkpt>
      <trkpt lat="47.78313" lon="2.19131">
        <ele>112</ele>
        <time>2016-12-04T08:17:07.273Z</time>
      </trkpt>
      <trkpt lat="47.7832" lon="2.19148">
        <ele>112</ele>
        <time>2016-12-04T08:17:08.274Z</time>
      </trkpt>
      <trkpt lat="47.78323" lon="2.19156">
        <ele>112</ele>
        <time>2016-12-04T08:17:09.278Z</time>
      </trkpt>
      <trkpt lat="47.78323" lon="2.19156">
        <ele>112</ele>
        <time>2016-12-04T08:17:10.245Z</time>
      </trkpt>
      <trkpt lat="47.78331" lon="2.19171">
        <ele>112</ele>
        <time>2016-12-04T08:17:11.244Z</time>
      </trkpt>
      <trkpt lat="47.78335" lon="2.19179">
        <ele>112</ele>
        <time>2016-12-04T08:17:12.275Z</time>
      </trkpt>
      <trkpt lat="47.78335" lon="2.19179">
        <ele>112</ele>
        <time>2016-12-04T08:17:13.243Z</time>
      </trkpt>
      <trkpt lat="47.78343" lon="2.19193">
        <ele>111</ele>
        <time>2016-12-04T08:17:14.274Z</time>
      </trkpt>
      <trkpt lat="47.78347" lon="2.192">
        <ele>111</ele>
        <time>2016-12-04T08:17:15.285Z</time>
      </trkpt>
      <trkpt lat="47.78347" lon="2.192">
        <ele>111</ele>
        <time>2016-12-04T08:17:16.245Z</time>
      </trkpt>
      <trkpt lat="47.78354" lon="2.19213">
        <ele>110</ele>
        <time>2016-12-04T08:17:17.274Z</time>
      </trkpt>
      <trkpt lat="47.78358" lon="2.1922">
        <ele>111</ele>
        <time>2016-12-04T08:17:18.252Z</time>
      </trkpt>
      <trkpt lat="47.78358" lon="2.1922">
        <ele>111</ele>
        <time>2016-12-04T08:17:19.243Z</time>
      </trkpt>
      <trkpt lat="47.78366" lon="2.19232">
        <ele>110</ele>
        <time>2016-12-04T08:17:20.275Z</time>
      </trkpt>
      <trkpt lat="47.78369" lon="2.19239">
        <ele>109</ele>
        <time>2016-12-04T08:17:21.275Z</time>
      </trkpt>
      <trkpt lat="47.78373" lon="2.19246">
        <ele>109</ele>
        <time>2016-12-04T08:17:22.279Z</time>
      </trkpt>
      <trkpt lat="47.78373" lon="2.19246">
        <ele>109</ele>
        <time>2016-12-04T08:17:23.245Z</time>
      </trkpt>
      <trkpt lat="47.78381" lon="2.1926">
        <ele>108</ele>
        <time>2016-12-04T08:17:24.243Z</time>
      </trkpt>
      <trkpt lat="47.78381" lon="2.1926">
        <ele>108</ele>
        <time>2016-12-04T08:17:25.272Z</time>
      </trkpt>
      <trkpt lat="47.7839" lon="2.19275">
        <ele>107</ele>
        <time>2016-12-04T08:17:26.243Z</time>
      </trkpt>
      <trkpt lat="47.7839" lon="2.19275">
        <ele>107</ele>
        <time>2016-12-04T08:17:27.274Z</time>
      </trkpt>
      <trkpt lat="47.78398" lon="2.19289">
        <ele>107</ele>
        <time>2016-12-04T08:17:28.243Z</time>
      </trkpt>
      <trkpt lat="47.78398" lon="2.19289">
        <ele>107</ele>
        <time>2016-12-04T08:17:29.272Z</time>
      </trkpt>
      <trkpt lat="47.78407" lon="2.19303">
        <ele>106</ele>
        <time>2016-12-04T08:17:30.247Z</time>
      </trkpt>
      <trkpt lat="47.78407" lon="2.19303">
        <ele>106</ele>
        <time>2016-12-04T08:17:31.275Z</time>
      </trkpt>
      <trkpt lat="47.78416" lon="2.19317">
        <ele>106</ele>
        <time>2016-12-04T08:17:32.256Z</time>
      </trkpt>
      <trkpt lat="47.78416" lon="2.19317">
        <ele>106</ele>
        <time>2016-12-04T08:17:33.245Z</time>
      </trkpt>
      <trkpt lat="47.7842" lon="2.19334">
        <ele>106</ele>
        <time>2016-12-04T08:17:34.276Z</time>
      </trkpt>
      <trkpt lat="47.7842" lon="2.19334">
        <ele>106</ele>
        <time>2016-12-04T08:17:35.252Z</time>
      </trkpt>
      <trkpt lat="47.78421" lon="2.19351">
        <ele>107</ele>
        <time>2016-12-04T08:17:36.250Z</time>
      </trkpt>
      <trkpt lat="47.78421" lon="2.19351">
        <ele>107</ele>
        <time>2016-12-04T08:17:37.277Z</time>
      </trkpt>
      <trkpt lat="47.7842" lon="2.19368">
        <ele>107</ele>
        <time>2016-12-04T08:17:38.278Z</time>
      </trkpt>
      <trkpt lat="47.78419" lon="2.19377">
        <ele>107</ele>
        <time>2016-12-04T08:17:39.253Z</time>
      </trkpt>
      <trkpt lat="47.78419" lon="2.19377">
        <ele>107</ele>
        <time>2016-12-04T08:17:40.265Z</time>
      </trkpt>
      <trkpt lat="47.78418" lon="2.19394">
        <ele>107</ele>
        <time>2016-12-04T08:17:41.244Z</time>
      </trkpt>
      <trkpt lat="47.78418" lon="2.19394">
        <ele>107</ele>
        <time>2016-12-04T08:17:42.272Z</time>
      </trkpt>
      <trkpt lat="47.78418" lon="2.19411">
        <ele>107</ele>
        <time>2016-12-04T08:17:43.275Z</time>
      </trkpt>
      <trkpt lat="47.78418" lon="2.19411">
        <ele>107</ele>
        <time>2016-12-04T08:17:44.245Z</time>
      </trkpt>
      <trkpt lat="47.78417" lon="2.19427">
        <ele>108</ele>
        <time>2016-12-04T08:17:45.274Z</time>
      </trkpt>
      <trkpt lat="47.78418" lon="2.19436">
        <ele>108</ele>
        <time>2016-12-04T08:17:46.246Z</time>
      </trkpt>
      <trkpt lat="47.78418" lon="2.19436">
        <ele>108</ele>
        <time>2016-12-04T08:17:47.275Z</time>
      </trkpt>
      <trkpt lat="47.78417" lon="2.19453">
        <ele>108</ele>
        <time>2016-12-04T08:17:48.252Z</time>
      </trkpt>
      <trkpt lat="47.78417" lon="2.19453">
        <ele>108</ele>
        <time>2016-12-04T08:17:49.245Z</time>
      </trkpt>
      <trkpt lat="47.78416" lon="2.19471">
        <ele>109</ele>
        <time>2016-12-04T08:17:50.279Z</time>
      </trkpt>
      <trkpt lat="47.78416" lon="2.19471">
        <ele>109</ele>
        <time>2016-12-04T08:17:51.245Z</time>
      </trkpt>
      <trkpt lat="47.78415" lon="2.1949">
        <ele>110</ele>
        <time>2016-12-04T08:17:52.276Z</time>
      </trkpt>
      <trkpt lat="47.78415" lon="2.1949">
        <ele>110</ele>
        <time>2016-12-04T08:17:53.252Z</time>
      </trkpt>
      <trkpt lat="47.78413" lon="2.19508">
        <ele>110</ele>
        <time>2016-12-04T08:17:54.245Z</time>
      </trkpt>
      <trkpt lat="47.78413" lon="2.19508">
        <ele>110</ele>
        <time>2016-12-04T08:17:55.284Z</time>
      </trkpt>
      <trkpt lat="47.78412" lon="2.19526">
        <ele>111</ele>
        <time>2016-12-04T08:17:56.244Z</time>
      </trkpt>
      <trkpt lat="47.78412" lon="2.19526">
        <ele>111</ele>
        <time>2016-12-04T08:17:57.273Z</time>
      </trkpt>
      <trkpt lat="47.78411" lon="2.19544">
        <ele>110</ele>
        <time>2016-12-04T08:17:58.247Z</time>
      </trkpt>
      <trkpt lat="47.78411" lon="2.19544">
        <ele>110</ele>
        <time>2016-12-04T08:17:59.278Z</time>
      </trkpt>
      <trkpt lat="47.78409" lon="2.19561">
        <ele>110</ele>
        <time>2016-12-04T08:18:00.278Z</time>
      </trkpt>
      <trkpt lat="47.78409" lon="2.19561">
        <ele>110</ele>
        <time>2016-12-04T08:18:01.245Z</time>
      </trkpt>
      <trkpt lat="47.78407" lon="2.1958">
        <ele>110</ele>
        <time>2016-12-04T08:18:02.278Z</time>
      </trkpt>
      <trkpt lat="47.78406" lon="2.1959">
        <ele>111</ele>
        <time>2016-12-04T08:18:03.252Z</time>
      </trkpt>
      <trkpt lat="47.78406" lon="2.1959">
        <ele>111</ele>
        <time>2016-12-04T08:18:04.279Z</time>
      </trkpt>
      <trkpt lat="47.78405" lon="2.19609">
        <ele>111</ele>
        <time>2016-12-04T08:18:05.266Z</time>
      </trkpt>
      <trkpt lat="47.78405" lon="2.19609">
        <ele>111</ele>
        <time>2016-12-04T08:18:06.264Z</time>
      </trkpt>
      <trkpt lat="47.78404" lon="2.19629">
        <ele>112</ele>
        <time>2016-12-04T08:18:07.276Z</time>
      </trkpt>
      <trkpt lat="47.78404" lon="2.19629">
        <ele>112</ele>
        <time>2016-12-04T08:18:08.245Z</time>
      </trkpt>
      <trkpt lat="47.78404" lon="2.19648">
        <ele>112</ele>
        <time>2016-12-04T08:18:09.276Z</time>
      </trkpt>
      <trkpt lat="47.78405" lon="2.19657">
        <ele>113</ele>
        <time>2016-12-04T08:18:10.278Z</time>
      </trkpt>
      <trkpt lat="47.78405" lon="2.19657">
        <ele>113</ele>
        <time>2016-12-04T08:18:11.273Z</time>
      </trkpt>
      <trkpt lat="47.78405" lon="2.19675">
        <ele>114</ele>
        <time>2016-12-04T08:18:12.271Z</time>
      </trkpt>
      <trkpt lat="47.78405" lon="2.19683">
        <ele>114</ele>
        <time>2016-12-04T08:18:13.273Z</time>
      </trkpt>
      <trkpt lat="47.78405" lon="2.19683">
        <ele>114</ele>
        <time>2016-12-04T08:18:14.278Z</time>
      </trkpt>
      <trkpt lat="47.78404" lon="2.19699">
        <ele>114</ele>
        <time>2016-12-04T08:18:15.245Z</time>
      </trkpt>
      <trkpt lat="47.78404" lon="2.19699">
        <ele>114</ele>
        <time>2016-12-04T08:18:16.267Z</time>
      </trkpt>
      <trkpt lat="47.78403" lon="2.19715">
        <ele>114</ele>
        <time>2016-12-04T08:18:17.247Z</time>
      </trkpt>
      <trkpt lat="47.78403" lon="2.19723">
        <ele>114</ele>
        <time>2016-12-04T08:18:18.278Z</time>
      </trkpt>
      <trkpt lat="47.78403" lon="2.19723">
        <ele>114</ele>
        <time>2016-12-04T08:18:19.245Z</time>
      </trkpt>
      <trkpt lat="47.78401" lon="2.19741">
        <ele>113</ele>
        <time>2016-12-04T08:18:20.275Z</time>
      </trkpt>
      <trkpt lat="47.78401" lon="2.1975">
        <ele>113</ele>
        <time>2016-12-04T08:18:21.270Z</time>
      </trkpt>
      <trkpt lat="47.78401" lon="2.1975">
        <ele>113</ele>
        <time>2016-12-04T08:18:22.276Z</time>
      </trkpt>
      <trkpt lat="47.784" lon="2.19768">
        <ele>113</ele>
        <time>2016-12-04T08:18:23.263Z</time>
      </trkpt>
      <trkpt lat="47.784" lon="2.19768">
        <ele>113</ele>
        <time>2016-12-04T08:18:24.269Z</time>
      </trkpt>
      <trkpt lat="47.784" lon="2.19786">
        <ele>113</ele>
        <time>2016-12-04T08:18:25.245Z</time>
      </trkpt>
      <trkpt lat="47.784" lon="2.19786">
        <ele>113</ele>
        <time>2016-12-04T08:18:26.264Z</time>
      </trkpt>
      <trkpt lat="47.784" lon="2.19802">
        <ele>113</ele>
        <time>2016-12-04T08:18:27.247Z</time>
      </trkpt>
      <trkpt lat="47.78399" lon="2.19809">
        <ele>113</ele>
        <time>2016-12-04T08:18:28.279Z</time>
      </trkpt>
      <trkpt lat="47.78399" lon="2.19809">
        <ele>113</ele>
        <time>2016-12-04T08:18:29.245Z</time>
      </trkpt>
      <trkpt lat="47.78398" lon="2.19821">
        <ele>113</ele>
        <time>2016-12-04T08:18:30.275Z</time>
      </trkpt>
      <trkpt lat="47.78397" lon="2.19825">
        <ele>113</ele>
        <time>2016-12-04T08:18:31.251Z</time>
      </trkpt>
      <trkpt lat="47.78397" lon="2.19825">
        <ele>113</ele>
        <time>2016-12-04T08:18:32.260Z</time>
      </trkpt>
      <trkpt lat="47.78396" lon="2.19832">
        <ele>113</ele>
        <time>2016-12-04T08:18:33.252Z</time>
      </trkpt>
      <trkpt lat="47.78396" lon="2.19834">
        <ele>113</ele>
        <time>2016-12-04T08:18:34.280Z</time>
      </trkpt>
      <trkpt lat="47.78396" lon="2.19834">
        <ele>113</ele>
        <time>2016-12-04T08:18:35.245Z</time>
      </trkpt>
      <trkpt lat="47.78395" lon="2.19837">
        <ele>114</ele>
        <time>2016-12-04T08:18:36.251Z</time>
      </trkpt>
      <trkpt lat="47.78395" lon="2.19837">
        <ele>114</ele>
        <time>2016-12-04T08:18:37.265Z</time>
      </trkpt>
      <trkpt lat="47.78396" lon="2.1984">
        <ele>114</ele>
        <time>2016-12-04T08:18:38.249Z</time>
      </trkpt>
      <trkpt lat="47.78396" lon="2.1984">
        <ele>114</ele>
        <time>2016-12-04T08:18:39.255Z</time>
      </trkpt>
      <trkpt lat="47.78396" lon="2.1984">
        <ele>114</ele>
        <time>2016-12-04T08:18:40.243Z</time>
      </trkpt>
      <trkpt lat="47.78396" lon="2.1984">
        <ele>114</ele>
        <time>2016-12-04T08:18:41.272Z</time>
      </trkpt>
      <trkpt lat="47.78406" lon="2.1985">
        <ele>115</ele>
        <time>2016-12-04T08:18:42.246Z</time>
      </trkpt>
      <trkpt lat="47.78406" lon="2.1985">
        <ele>115</ele>
        <time>2016-12-04T08:18:43.278Z</time>
      </trkpt>
      <trkpt lat="47.78414" lon="2.19851">
        <ele>115</ele>
        <time>2016-12-04T08:18:44.260Z</time>
      </trkpt>
      <trkpt lat="47.78419" lon="2.19851">
        <ele>115</ele>
        <time>2016-12-04T08:18:45.277Z</time>
      </trkpt>
      <trkpt lat="47.78423" lon="2.19851">
        <ele>115</ele>
        <time>2016-12-04T08:18:46.277Z</time>
      </trkpt>
      <trkpt lat="47.78423" lon="2.19851">
        <ele>115</ele>
        <time>2016-12-04T08:18:47.254Z</time>
      </trkpt>
      <trkpt lat="47.78433" lon="2.19853">
        <ele>115</ele>
        <time>2016-12-04T08:18:48.263Z</time>
      </trkpt>
      <trkpt lat="47.78433" lon="2.19853">
        <ele>115</ele>
        <time>2016-12-04T08:18:49.270Z</time>
      </trkpt>
      <trkpt lat="47.78443" lon="2.19854">
        <ele>115</ele>
        <time>2016-12-04T08:18:50.277Z</time>
      </trkpt>
      <trkpt lat="47.78448" lon="2.19855">
        <ele>115</ele>
        <time>2016-12-04T08:18:51.277Z</time>
      </trkpt>
      <trkpt lat="47.78448" lon="2.19855">
        <ele>115</ele>
        <time>2016-12-04T08:18:52.244Z</time>
      </trkpt>
      <trkpt lat="47.78459" lon="2.19857">
        <ele>116</ele>
        <time>2016-12-04T08:18:53.256Z</time>
      </trkpt>
      <trkpt lat="47.78459" lon="2.19857">
        <ele>116</ele>
        <time>2016-12-04T08:18:54.258Z</time>
      </trkpt>
      <trkpt lat="47.78471" lon="2.19858">
        <ele>116</ele>
        <time>2016-12-04T08:18:55.262Z</time>
      </trkpt>
      <trkpt lat="47.78476" lon="2.19859">
        <ele>116</ele>
        <time>2016-12-04T08:18:56.270Z</time>
      </trkpt>
      <trkpt lat="47.78476" lon="2.19859">
        <ele>116</ele>
        <time>2016-12-04T08:18:57.249Z</time>
      </trkpt>
      <trkpt lat="47.78488" lon="2.19862">
        <ele>117</ele>
        <time>2016-12-04T08:18:58.250Z</time>
      </trkpt>
      <trkpt lat="47.78488" lon="2.19862">
        <ele>117</ele>
        <time>2016-12-04T08:18:59.276Z</time>
      </trkpt>
      <trkpt lat="47.785" lon="2.19862">
        <ele>116</ele>
        <time>2016-12-04T08:19:00.267Z</time>
      </trkpt>
      <trkpt lat="47.78513" lon="2.19864">
        <ele>115</ele>
        <time>2016-12-04T08:19:01.303Z</time>
      </trkpt>
      <trkpt lat="47.78513" lon="2.19864">
        <ele>115</ele>
        <time>2016-12-04T08:19:02.264Z</time>
      </trkpt>
      <trkpt lat="47.78513" lon="2.19864">
        <ele>115</ele>
        <time>2016-12-04T08:19:03.280Z</time>
      </trkpt>
      <trkpt lat="47.78525" lon="2.19866">
        <ele>115</ele>
        <time>2016-12-04T08:19:04.261Z</time>
      </trkpt>
      <trkpt lat="47.78538" lon="2.19867">
        <ele>115</ele>
        <time>2016-12-04T08:19:05.278Z</time>
      </trkpt>
      <trkpt lat="47.78538" lon="2.19867">
        <ele>115</ele>
        <time>2016-12-04T08:19:06.266Z</time>
      </trkpt>
      <trkpt lat="47.7855" lon="2.19869">
        <ele>115</ele>
        <time>2016-12-04T08:19:07.306Z</time>
      </trkpt>
      <trkpt lat="47.7855" lon="2.19869">
        <ele>115</ele>
        <time>2016-12-04T08:19:08.267Z</time>
      </trkpt>
      <trkpt lat="47.7855" lon="2.19869">
        <ele>115</ele>
        <time>2016-12-04T08:19:09.243Z</time>
      </trkpt>
      <trkpt lat="47.78563" lon="2.1987">
        <ele>115</ele>
        <time>2016-12-04T08:19:10.302Z</time>
      </trkpt>
      <trkpt lat="47.78563" lon="2.1987">
        <ele>115</ele>
        <time>2016-12-04T08:19:11.262Z</time>
      </trkpt>
      <trkpt lat="47.78575" lon="2.19871">
        <ele>114</ele>
        <time>2016-12-04T08:19:12.244Z</time>
      </trkpt>
      <trkpt lat="47.78575" lon="2.19871">
        <ele>114</ele>
        <time>2016-12-04T08:19:13.262Z</time>
      </trkpt>
      <trkpt lat="47.78585" lon="2.19872">
        <ele>114</ele>
        <time>2016-12-04T08:19:14.277Z</time>
      </trkpt>
      <trkpt lat="47.78589" lon="2.19873">
        <ele>114</ele>
        <time>2016-12-04T08:19:15.262Z</time>
      </trkpt>
      <trkpt lat="47.78589" lon="2.19873">
        <ele>114</ele>
        <time>2016-12-04T08:19:16.268Z</time>
      </trkpt>
      <trkpt lat="47.78594" lon="2.19876">
        <ele>114</ele>
        <time>2016-12-04T08:19:17.255Z</time>
      </trkpt>
      <trkpt lat="47.78595" lon="2.19878">
        <ele>114</ele>
        <time>2016-12-04T08:19:18.268Z</time>
      </trkpt>
      <trkpt lat="47.78595" lon="2.19878">
        <ele>114</ele>
        <time>2016-12-04T08:19:19.283Z</time>
      </trkpt>
      <trkpt lat="47.78597" lon="2.19883">
        <ele>114</ele>
        <time>2016-12-04T08:19:20.259Z</time>
      </trkpt>
      <trkpt lat="47.78597" lon="2.19883">
        <ele>114</ele>
        <time>2016-12-04T08:19:21.270Z</time>
      </trkpt>
      <trkpt lat="47.78596" lon="2.19891">
        <ele>114</ele>
        <time>2016-12-04T08:19:22.257Z</time>
      </trkpt>
      <trkpt lat="47.78596" lon="2.19891">
        <ele>114</ele>
        <time>2016-12-04T08:19:23.279Z</time>
      </trkpt>
      <trkpt lat="47.78593" lon="2.19901">
        <ele>114</ele>
        <time>2016-12-04T08:19:24.258Z</time>
      </trkpt>
      <trkpt lat="47.78591" lon="2.19908">
        <ele>114</ele>
        <time>2016-12-04T08:19:25.243Z</time>
      </trkpt>
      <trkpt lat="47.78591" lon="2.19908">
        <ele>114</ele>
        <time>2016-12-04T08:19:26.260Z</time>
      </trkpt>
      <trkpt lat="47.78589" lon="2.19924">
        <ele>113</ele>
        <time>2016-12-04T08:19:27.244Z</time>
      </trkpt>
      <trkpt lat="47.78587" lon="2.19931">
        <ele>113</ele>
        <time>2016-12-04T08:19:28.299Z</time>
      </trkpt>
      <trkpt lat="47.78587" lon="2.19931">
        <ele>113</ele>
        <time>2016-12-04T08:19:29.260Z</time>
      </trkpt>
      <trkpt lat="47.78585" lon="2.19947">
        <ele>113</ele>
        <time>2016-12-04T08:19:30.246Z</time>
      </trkpt>
      <trkpt lat="47.78585" lon="2.19947">
        <ele>113</ele>
        <time>2016-12-04T08:19:31.278Z</time>
      </trkpt>
      <trkpt lat="47.78583" lon="2.19963">
        <ele>113</ele>
        <time>2016-12-04T08:19:32.301Z</time>
      </trkpt>
      <trkpt lat="47.78583" lon="2.19963">
        <ele>113</ele>
        <time>2016-12-04T08:19:33.248Z</time>
      </trkpt>
      <trkpt lat="47.78581" lon="2.19978">
        <ele>113</ele>
        <time>2016-12-04T08:19:34.244Z</time>
      </trkpt>
      <trkpt lat="47.78578" lon="2.19991">
        <ele>113</ele>
        <time>2016-12-04T08:19:35.279Z</time>
      </trkpt>
      <trkpt lat="47.78578" lon="2.19991">
        <ele>113</ele>
        <time>2016-12-04T08:19:36.261Z</time>
      </trkpt>
      <trkpt lat="47.78578" lon="2.19991">
        <ele>113</ele>
        <time>2016-12-04T08:19:37.268Z</time>
      </trkpt>
      <trkpt lat="47.78575" lon="2.20003">
        <ele>112</ele>
        <time>2016-12-04T08:19:38.245Z</time>
      </trkpt>
      <trkpt lat="47.78575" lon="2.20003">
        <ele>112</ele>
        <time>2016-12-04T08:19:39.279Z</time>
      </trkpt>
      <trkpt lat="47.7857" lon="2.20013">
        <ele>111</ele>
        <time>2016-12-04T08:19:40.256Z</time>
      </trkpt>
      <trkpt lat="47.7857" lon="2.20013">
        <ele>111</ele>
        <time>2016-12-04T08:19:41.269Z</time>
      </trkpt>
      <trkpt lat="47.78566" lon="2.20022">
        <ele>111</ele>
        <time>2016-12-04T08:19:42.249Z</time>
      </trkpt>
      <trkpt lat="47.78566" lon="2.20036">
        <ele>111</ele>
        <time>2016-12-04T08:19:43.340Z</time>
      </trkpt>
      <trkpt lat="47.78566" lon="2.20036">
        <ele>111</ele>
        <time>2016-12-04T08:19:44.264Z</time>
      </trkpt>
      <trkpt lat="47.78567" lon="2.20044">
        <ele>111</ele>
        <time>2016-12-04T08:19:45.278Z</time>
      </trkpt>
      <trkpt lat="47.78567" lon="2.20044">
        <ele>111</ele>
        <time>2016-12-04T08:19:46.248Z</time>
      </trkpt>
      <trkpt lat="47.78573" lon="2.20058">
        <ele>111</ele>
        <time>2016-12-04T08:19:47.249Z</time>
      </trkpt>
      <trkpt lat="47.78577" lon="2.20064">
        <ele>111</ele>
        <time>2016-12-04T08:19:48.245Z</time>
      </trkpt>
      <trkpt lat="47.78577" lon="2.20064">
        <ele>111</ele>
        <time>2016-12-04T08:19:49.280Z</time>
      </trkpt>
      <trkpt lat="47.78587" lon="2.20075">
        <ele>111</ele>
        <time>2016-12-04T08:19:50.298Z</time>
      </trkpt>
      <trkpt lat="47.78587" lon="2.20075">
        <ele>111</ele>
        <time>2016-12-04T08:19:51.249Z</time>
      </trkpt>
      <trkpt lat="47.78596" lon="2.20085">
        <ele>111</ele>
        <time>2016-12-04T08:19:52.247Z</time>
      </trkpt>
      <trkpt lat="47.78596" lon="2.20085">
        <ele>111</ele>
        <time>2016-12-04T08:19:53.279Z</time>
      </trkpt>
      <trkpt lat="47.78605" lon="2.20096">
        <ele>111</ele>
        <time>2016-12-04T08:19:54.250Z</time>
      </trkpt>
      <trkpt lat="47.78609" lon="2.20102">
        <ele>111</ele>
        <time>2016-12-04T08:19:55.243Z</time>
      </trkpt>
      <trkpt lat="47.78613" lon="2.20107">
        <ele>111</ele>
        <time>2016-12-04T08:19:56.279Z</time>
      </trkpt>
      <trkpt lat="47.78613" lon="2.20107">
        <ele>111</ele>
        <time>2016-12-04T08:19:57.248Z</time>
      </trkpt>
      <trkpt lat="47.78622" lon="2.20118">
        <ele>111</ele>
        <time>2016-12-04T08:19:58.302Z</time>
      </trkpt>
      <trkpt lat="47.78622" lon="2.20118">
        <ele>111</ele>
        <time>2016-12-04T08:19:59.268Z</time>
      </trkpt>
      <trkpt lat="47.78635" lon="2.20134">
        <ele>111</ele>
        <time>2016-12-04T08:20:00.303Z</time>
      </trkpt>
      <trkpt lat="47.78635" lon="2.20134">
        <ele>111</ele>
        <time>2016-12-04T08:20:01.254Z</time>
      </trkpt>
      <trkpt lat="47.78635" lon="2.20134">
        <ele>111</ele>
        <time>2016-12-04T08:20:02.256Z</time>
      </trkpt>
      <trkpt lat="47.78642" lon="2.20146">
        <ele>111</ele>
        <time>2016-12-04T08:20:03.280Z</time>
      </trkpt>
      <trkpt lat="47.78646" lon="2.20152">
        <ele>111</ele>
        <time>2016-12-04T08:20:04.245Z</time>
      </trkpt>
      <trkpt lat="47.78646" lon="2.20152">
        <ele>111</ele>
        <time>2016-12-04T08:20:05.247Z</time>
      </trkpt>
      <trkpt lat="47.78651" lon="2.20165">
        <ele>111</ele>
        <time>2016-12-04T08:20:06.302Z</time>
      </trkpt>
      <trkpt lat="47.78651" lon="2.20165">
        <ele>111</ele>
        <time>2016-12-04T08:20:07.249Z</time>
      </trkpt>
      <trkpt lat="47.78654" lon="2.20177">
        <ele>111</ele>
        <time>2016-12-04T08:20:08.243Z</time>
      </trkpt>
      <trkpt lat="47.78654" lon="2.20177">
        <ele>111</ele>
        <time>2016-12-04T08:20:09.279Z</time>
      </trkpt>
      <trkpt lat="47.78648" lon="2.20186">
        <ele>110</ele>
        <time>2016-12-04T08:20:10.263Z</time>
      </trkpt>
      <trkpt lat="47.78648" lon="2.20186">
        <ele>110</ele>
        <time>2016-12-04T08:20:11.270Z</time>
      </trkpt>
      <trkpt lat="47.7864" lon="2.20194">
        <ele>110</ele>
        <time>2016-12-04T08:20:12.249Z</time>
      </trkpt>
      <trkpt lat="47.7864" lon="2.20194">
        <ele>110</ele>
        <time>2016-12-04T08:20:13.282Z</time>
      </trkpt>
      <trkpt lat="47.78632" lon="2.20204">
        <ele>109</ele>
        <time>2016-12-04T08:20:14.249Z</time>
      </trkpt>
      <trkpt lat="47.78632" lon="2.20204">
        <ele>109</ele>
        <time>2016-12-04T08:20:15.262Z</time>
      </trkpt>
      <trkpt lat="47.78623" lon="2.20214">
        <ele>109</ele>
        <time>2016-12-04T08:20:16.268Z</time>
      </trkpt>
      <trkpt lat="47.78623" lon="2.20214">
        <ele>109</ele>
        <time>2016-12-04T08:20:17.278Z</time>
      </trkpt>
      <trkpt lat="47.78613" lon="2.20224">
        <ele>109</ele>
        <time>2016-12-04T08:20:18.251Z</time>
      </trkpt>
      <trkpt lat="47.78613" lon="2.20224">
        <ele>109</ele>
        <time>2016-12-04T08:20:19.304Z</time>
      </trkpt>
      <trkpt lat="47.78604" lon="2.20235">
        <ele>110</ele>
        <time>2016-12-04T08:20:20.299Z</time>
      </trkpt>
      <trkpt lat="47.78604" lon="2.20235">
        <ele>110</ele>
        <time>2016-12-04T08:20:21.248Z</time>
      </trkpt>
      <trkpt lat="47.78594" lon="2.20245">
        <ele>110</ele>
        <time>2016-12-04T08:20:22.304Z</time>
      </trkpt>
      <trkpt lat="47.78589" lon="2.2025">
        <ele>110</ele>
        <time>2016-12-04T08:20:23.267Z</time>
      </trkpt>
      <trkpt lat="47.78589" lon="2.2025">
        <ele>110</ele>
        <time>2016-12-04T08:20:24.262Z</time>
      </trkpt>
      <trkpt lat="47.78579" lon="2.20261">
        <ele>110</ele>
        <time>2016-12-04T08:20:25.267Z</time>
      </trkpt>
      <trkpt lat="47.78579" lon="2.20261">
        <ele>110</ele>
        <time>2016-12-04T08:20:26.277Z</time>
      </trkpt>
      <trkpt lat="47.7857" lon="2.20271">
        <ele>110</ele>
        <time>2016-12-04T08:20:27.255Z</time>
      </trkpt>
      <trkpt lat="47.78565" lon="2.20277">
        <ele>110</ele>
        <time>2016-12-04T08:20:28.301Z</time>
      </trkpt>
      <trkpt lat="47.78565" lon="2.20277">
        <ele>110</ele>
        <time>2016-12-04T08:20:29.246Z</time>
      </trkpt>
      <trkpt lat="47.78556" lon="2.20288">
        <ele>110</ele>
        <time>2016-12-04T08:20:30.248Z</time>
      </trkpt>
      <trkpt lat="47.78556" lon="2.20288">
        <ele>110</ele>
        <time>2016-12-04T08:20:31.278Z</time>
      </trkpt>
      <trkpt lat="47.78546" lon="2.20298">
        <ele>110</ele>
        <time>2016-12-04T08:20:32.278Z</time>
      </trkpt>
      <trkpt lat="47.78541" lon="2.20303">
        <ele>111</ele>
        <time>2016-12-04T08:20:33.281Z</time>
      </trkpt>
      <trkpt lat="47.78541" lon="2.20303">
        <ele>111</ele>
        <time>2016-12-04T08:20:34.278Z</time>
      </trkpt>
      <trkpt lat="47.78532" lon="2.20313">
        <ele>111</ele>
        <time>2016-12-04T08:20:35.243Z</time>
      </trkpt>
      <trkpt lat="47.78532" lon="2.20313">
        <ele>111</ele>
        <time>2016-12-04T08:20:36.271Z</time>
      </trkpt>
      <trkpt lat="47.78523" lon="2.20323">
        <ele>111</ele>
        <time>2016-12-04T08:20:37.278Z</time>
      </trkpt>
      <trkpt lat="47.78519" lon="2.20328">
        <ele>111</ele>
        <time>2016-12-04T08:20:38.252Z</time>
      </trkpt>
      <trkpt lat="47.78519" lon="2.20328">
        <ele>111</ele>
        <time>2016-12-04T08:20:39.256Z</time>
      </trkpt>
      <trkpt lat="47.78511" lon="2.20338">
        <ele>112</ele>
        <time>2016-12-04T08:20:40.272Z</time>
      </trkpt>
      <trkpt lat="47.78511" lon="2.20338">
        <ele>112</ele>
        <time>2016-12-04T08:20:41.280Z</time>
      </trkpt>
      <trkpt lat="47.78502" lon="2.20347">
        <ele>112</ele>
        <time>2016-12-04T08:20:42.278Z</time>
      </trkpt>
      <trkpt lat="47.78497" lon="2.20352">
        <ele>113</ele>
        <time>2016-12-04T08:20:43.257Z</time>
      </trkpt>
      <trkpt lat="47.78493" lon="2.20356">
        <ele>113</ele>
        <time>2016-12-04T08:20:44.278Z</time>
      </trkpt>
      <trkpt lat="47.78493" lon="2.20356">
        <ele>113</ele>
        <time>2016-12-04T08:20:45.245Z</time>
      </trkpt>
      <trkpt lat="47.78484" lon="2.20365">
        <ele>113</ele>
        <time>2016-12-04T08:20:46.279Z</time>
      </trkpt>
      <trkpt lat="47.78484" lon="2.20365">
        <ele>113</ele>
        <time>2016-12-04T08:20:47.256Z</time>
      </trkpt>
      <trkpt lat="47.78474" lon="2.20374">
        <ele>113</ele>
        <time>2016-12-04T08:20:48.280Z</time>
      </trkpt>
      <trkpt lat="47.78469" lon="2.20378">
        <ele>113</ele>
        <time>2016-12-04T08:20:49.252Z</time>
      </trkpt>
      <trkpt lat="47.78469" lon="2.20378">
        <ele>113</ele>
        <time>2016-12-04T08:20:50.266Z</time>
      </trkpt>
      <trkpt lat="47.7846" lon="2.20387">
        <ele>113</ele>
        <time>2016-12-04T08:20:51.243Z</time>
      </trkpt>
      <trkpt lat="47.78455" lon="2.20391">
        <ele>113</ele>
        <time>2016-12-04T08:20:52.246Z</time>
      </trkpt>
      <trkpt lat="47.78455" lon="2.20391">
        <ele>113</ele>
        <time>2016-12-04T08:20:53.278Z</time>
      </trkpt>
      <trkpt lat="47.78446" lon="2.20401">
        <ele>113</ele>
        <time>2016-12-04T08:20:54.246Z</time>
      </trkpt>
      <trkpt lat="47.78441" lon="2.20406">
        <ele>113</ele>
        <time>2016-12-04T08:20:55.280Z</time>
      </trkpt>
      <trkpt lat="47.78441" lon="2.20406">
        <ele>113</ele>
        <time>2016-12-04T08:20:56.245Z</time>
      </trkpt>
      <trkpt lat="47.78432" lon="2.20415">
        <ele>113</ele>
        <time>2016-12-04T08:20:57.279Z</time>
      </trkpt>
      <trkpt lat="47.78427" lon="2.20419">
        <ele>113</ele>
        <time>2016-12-04T08:20:58.253Z</time>
      </trkpt>
      <trkpt lat="47.78427" lon="2.20419">
        <ele>113</ele>
        <time>2016-12-04T08:20:59.280Z</time>
      </trkpt>
      <trkpt lat="47.78417" lon="2.20426">
        <ele>113</ele>
        <time>2016-12-04T08:21:00.278Z</time>
      </trkpt>
      <trkpt lat="47.78417" lon="2.20426">
        <ele>113</ele>
        <time>2016-12-04T08:21:01.244Z</time>
      </trkpt>
      <trkpt lat="47.78408" lon="2.20432">
        <ele>113</ele>
        <time>2016-12-04T08:21:02.277Z</time>
      </trkpt>
      <trkpt lat="47.78403" lon="2.20436">
        <ele>113</ele>
        <time>2016-12-04T08:21:03.253Z</time>
      </trkpt>
      <trkpt lat="47.78403" lon="2.20436">
        <ele>113</ele>
        <time>2016-12-04T08:21:04.263Z</time>
      </trkpt>
      <trkpt lat="47.78393" lon="2.20443">
        <ele>113</ele>
        <time>2016-12-04T08:21:05.273Z</time>
      </trkpt>
      <trkpt lat="47.78388" lon="2.20446">
        <ele>113</ele>
        <time>2016-12-04T08:21:06.278Z</time>
      </trkpt>
      <trkpt lat="47.78388" lon="2.20446">
        <ele>113</ele>
        <time>2016-12-04T08:21:07.245Z</time>
      </trkpt>
      <trkpt lat="47.78378" lon="2.20452">
        <ele>114</ele>
        <time>2016-12-04T08:21:08.243Z</time>
      </trkpt>
      <trkpt lat="47.78378" lon="2.20452">
        <ele>114</ele>
        <time>2016-12-04T08:21:09.278Z</time>
      </trkpt>
      <trkpt lat="47.78367" lon="2.20459">
        <ele>115</ele>
        <time>2016-12-04T08:21:10.269Z</time>
      </trkpt>
      <trkpt lat="47.78367" lon="2.20459">
        <ele>115</ele>
        <time>2016-12-04T08:21:11.277Z</time>
      </trkpt>
      <trkpt lat="47.78359" lon="2.20466">
        <ele>115</ele>
        <time>2016-12-04T08:21:12.252Z</time>
      </trkpt>
      <trkpt lat="47.78359" lon="2.20466">
        <ele>115</ele>
        <time>2016-12-04T08:21:13.283Z</time>
      </trkpt>
      <trkpt lat="47.7835" lon="2.20473">
        <ele>115</ele>
        <time>2016-12-04T08:21:14.302Z</time>
      </trkpt>
      <trkpt lat="47.7835" lon="2.20473">
        <ele>115</ele>
        <time>2016-12-04T08:21:15.246Z</time>
      </trkpt>
      <trkpt lat="47.78343" lon="2.20481">
        <ele>115</ele>
        <time>2016-12-04T08:21:16.264Z</time>
      </trkpt>
      <trkpt lat="47.78343" lon="2.20481">
        <ele>115</ele>
        <time>2016-12-04T08:21:17.266Z</time>
      </trkpt>
      <trkpt lat="47.78335" lon="2.2049">
        <ele>115</ele>
        <time>2016-12-04T08:21:18.245Z</time>
      </trkpt>
      <trkpt lat="47.78335" lon="2.2049">
        <ele>115</ele>
        <time>2016-12-04T08:21:19.277Z</time>
      </trkpt>
      <trkpt lat="47.78327" lon="2.20499">
        <ele>114</ele>
        <time>2016-12-04T08:21:20.252Z</time>
      </trkpt>
      <trkpt lat="47.78327" lon="2.20499">
        <ele>114</ele>
        <time>2016-12-04T08:21:21.305Z</time>
      </trkpt>
      <trkpt lat="47.78318" lon="2.20507">
        <ele>114</ele>
        <time>2016-12-04T08:21:22.280Z</time>
      </trkpt>
      <trkpt lat="47.78318" lon="2.20507">
        <ele>114</ele>
        <time>2016-12-04T08:21:23.257Z</time>
      </trkpt>
      <trkpt lat="47.7831" lon="2.20518">
        <ele>114</ele>
        <time>2016-12-04T08:21:24.249Z</time>
      </trkpt>
      <trkpt lat="47.78306" lon="2.20523">
        <ele>114</ele>
        <time>2016-12-04T08:21:25.280Z</time>
      </trkpt>
      <trkpt lat="47.78306" lon="2.20523">
        <ele>114</ele>
        <time>2016-12-04T08:21:26.246Z</time>
      </trkpt>
      <trkpt lat="47.78299" lon="2.20534">
        <ele>114</ele>
        <time>2016-12-04T08:21:27.280Z</time>
      </trkpt>
      <trkpt lat="47.78296" lon="2.20539">
        <ele>114</ele>
        <time>2016-12-04T08:21:28.255Z</time>
      </trkpt>
      <trkpt lat="47.78296" lon="2.20539">
        <ele>114</ele>
        <time>2016-12-04T08:21:29.264Z</time>
      </trkpt>
      <trkpt lat="47.78288" lon="2.2055">
        <ele>115</ele>
        <time>2016-12-04T08:21:30.268Z</time>
      </trkpt>
      <trkpt lat="47.78288" lon="2.2055">
        <ele>115</ele>
        <time>2016-12-04T08:21:31.264Z</time>
      </trkpt>
      <trkpt lat="47.78281" lon="2.2056">
        <ele>115</ele>
        <time>2016-12-04T08:21:32.267Z</time>
      </trkpt>
      <trkpt lat="47.78278" lon="2.20566">
        <ele>115</ele>
        <time>2016-12-04T08:21:33.277Z</time>
      </trkpt>
      <trkpt lat="47.78278" lon="2.20566">
        <ele>115</ele>
        <time>2016-12-04T08:21:34.272Z</time>
      </trkpt>
      <trkpt lat="47.7827" lon="2.20576">
        <ele>115</ele>
        <time>2016-12-04T08:21:35.268Z</time>
      </trkpt>
      <trkpt lat="47.78267" lon="2.20582">
        <ele>115</ele>
        <time>2016-12-04T08:21:36.243Z</time>
      </trkpt>
      <trkpt lat="47.78267" lon="2.20582">
        <ele>115</ele>
        <time>2016-12-04T08:21:37.278Z</time>
      </trkpt>
      <trkpt lat="47.7826" lon="2.20593">
        <ele>115</ele>
        <time>2016-12-04T08:21:38.250Z</time>
      </trkpt>
      <trkpt lat="47.7826" lon="2.20593">
        <ele>115</ele>
        <time>2016-12-04T08:21:39.281Z</time>
      </trkpt>
      <trkpt lat="47.78254" lon="2.20604">
        <ele>115</ele>
        <time>2016-12-04T08:21:40.267Z</time>
      </trkpt>
      <trkpt lat="47.78254" lon="2.20604">
        <ele>115</ele>
        <time>2016-12-04T08:21:41.249Z</time>
      </trkpt>
      <trkpt lat="47.78245" lon="2.20615">
        <ele>115</ele>
        <time>2016-12-04T08:21:42.280Z</time>
      </trkpt>
      <trkpt lat="47.78245" lon="2.20615">
        <ele>115</ele>
        <time>2016-12-04T08:21:43.246Z</time>
      </trkpt>
      <trkpt lat="47.78237" lon="2.20626">
        <ele>115</ele>
        <time>2016-12-04T08:21:44.278Z</time>
      </trkpt>
      <trkpt lat="47.78237" lon="2.20626">
        <ele>115</ele>
        <time>2016-12-04T08:21:45.247Z</time>
      </trkpt>
      <trkpt lat="47.7823" lon="2.20637">
        <ele>116</ele>
        <time>2016-12-04T08:21:46.247Z</time>
      </trkpt>
      <trkpt lat="47.7823" lon="2.20637">
        <ele>116</ele>
        <time>2016-12-04T08:21:47.278Z</time>
      </trkpt>
      <trkpt lat="47.78223" lon="2.20649">
        <ele>116</ele>
        <time>2016-12-04T08:21:48.277Z</time>
      </trkpt>
      <trkpt lat="47.78223" lon="2.20649">
        <ele>116</ele>
        <time>2016-12-04T08:21:49.245Z</time>
      </trkpt>
      <trkpt lat="47.78216" lon="2.20659">
        <ele>116</ele>
        <time>2016-12-04T08:21:50.278Z</time>
      </trkpt>
      <trkpt lat="47.78216" lon="2.20659">
        <ele>116</ele>
        <time>2016-12-04T08:21:51.245Z</time>
      </trkpt>
      <trkpt lat="47.7821" lon="2.20669">
        <ele>116</ele>
        <time>2016-12-04T08:21:52.250Z</time>
      </trkpt>
      <trkpt lat="47.7821" lon="2.20669">
        <ele>116</ele>
        <time>2016-12-04T08:21:53.279Z</time>
      </trkpt>
      <trkpt lat="47.78203" lon="2.20679">
        <ele>115</ele>
        <time>2016-12-04T08:21:54.280Z</time>
      </trkpt>
      <trkpt lat="47.78199" lon="2.20684">
        <ele>114</ele>
        <time>2016-12-04T08:21:55.256Z</time>
      </trkpt>
      <trkpt lat="47.78199" lon="2.20684">
        <ele>114</ele>
        <time>2016-12-04T08:21:56.263Z</time>
      </trkpt>
      <trkpt lat="47.78194" lon="2.20694">
        <ele>115</ele>
        <time>2016-12-04T08:21:57.270Z</time>
      </trkpt>
      <trkpt lat="47.78192" lon="2.20699">
        <ele>115</ele>
        <time>2016-12-04T08:21:58.248Z</time>
      </trkpt>
      <trkpt lat="47.78192" lon="2.20699">
        <ele>115</ele>
        <time>2016-12-04T08:21:59.280Z</time>
      </trkpt>
      <trkpt lat="47.78193" lon="2.20712">
        <ele>116</ele>
        <time>2016-12-04T08:22:00.262Z</time>
      </trkpt>
      <trkpt lat="47.78193" lon="2.20712">
        <ele>116</ele>
        <time>2016-12-04T08:22:01.269Z</time>
      </trkpt>
      <trkpt lat="47.78198" lon="2.20718">
        <ele>116</ele>
        <time>2016-12-04T08:22:02.245Z</time>
      </trkpt>
      <trkpt lat="47.78202" lon="2.2072">
        <ele>116</ele>
        <time>2016-12-04T08:22:03.249Z</time>
      </trkpt>
      <trkpt lat="47.78202" lon="2.2072">
        <ele>116</ele>
        <time>2016-12-04T08:22:04.258Z</time>
      </trkpt>
      <trkpt lat="47.78211" lon="2.20725">
        <ele>115</ele>
        <time>2016-12-04T08:22:05.306Z</time>
      </trkpt>
      <trkpt lat="47.78216" lon="2.20727">
        <ele>115</ele>
        <time>2016-12-04T08:22:06.256Z</time>
      </trkpt>
      <trkpt lat="47.78216" lon="2.20727">
        <ele>115</ele>
        <time>2016-12-04T08:22:07.261Z</time>
      </trkpt>
      <trkpt lat="47.78224" lon="2.20731">
        <ele>115</ele>
        <time>2016-12-04T08:22:08.270Z</time>
      </trkpt>
      <trkpt lat="47.78229" lon="2.20734">
        <ele>114</ele>
        <time>2016-12-04T08:22:09.273Z</time>
      </trkpt>
      <trkpt lat="47.78229" lon="2.20734">
        <ele>114</ele>
        <time>2016-12-04T08:22:10.305Z</time>
      </trkpt>
      <trkpt lat="47.78238" lon="2.20737">
        <ele>114</ele>
        <time>2016-12-04T08:22:11.254Z</time>
      </trkpt>
      <trkpt lat="47.78238" lon="2.20737">
        <ele>114</ele>
        <time>2016-12-04T08:22:12.304Z</time>
      </trkpt>
      <trkpt lat="47.78246" lon="2.20741">
        <ele>115</ele>
        <time>2016-12-04T08:22:13.254Z</time>
      </trkpt>
      <trkpt lat="47.78246" lon="2.20741">
        <ele>115</ele>
        <time>2016-12-04T08:22:14.263Z</time>
      </trkpt>
      <trkpt lat="47.78256" lon="2.20747">
        <ele>115</ele>
        <time>2016-12-04T08:22:15.281Z</time>
      </trkpt>
      <trkpt lat="47.78261" lon="2.20749">
        <ele>115</ele>
        <time>2016-12-04T08:22:16.279Z</time>
      </trkpt>
      <trkpt lat="47.78261" lon="2.20749">
        <ele>115</ele>
        <time>2016-12-04T08:22:17.271Z</time>
      </trkpt>
      <trkpt lat="47.78273" lon="2.20755">
        <ele>115</ele>
        <time>2016-12-04T08:22:18.248Z</time>
      </trkpt>
      <trkpt lat="47.78273" lon="2.20755">
        <ele>115</ele>
        <time>2016-12-04T08:22:19.279Z</time>
      </trkpt>
      <trkpt lat="47.78284" lon="2.20761">
        <ele>116</ele>
        <time>2016-12-04T08:22:20.254Z</time>
      </trkpt>
      <trkpt lat="47.78284" lon="2.20761">
        <ele>116</ele>
        <time>2016-12-04T08:22:21.307Z</time>
      </trkpt>
      <trkpt lat="47.78295" lon="2.20767">
        <ele>116</ele>
        <time>2016-12-04T08:22:22.300Z</time>
      </trkpt>
      <trkpt lat="47.78295" lon="2.20767">
        <ele>116</ele>
        <time>2016-12-04T08:22:23.257Z</time>
      </trkpt>
      <trkpt lat="47.78305" lon="2.20774">
        <ele>117</ele>
        <time>2016-12-04T08:22:24.261Z</time>
      </trkpt>
      <trkpt lat="47.78311" lon="2.20777">
        <ele>117</ele>
        <time>2016-12-04T08:22:25.278Z</time>
      </trkpt>
      <trkpt lat="47.78311" lon="2.20777">
        <ele>117</ele>
        <time>2016-12-04T08:22:26.244Z</time>
      </trkpt>
      <trkpt lat="47.78323" lon="2.20784">
        <ele>118</ele>
        <time>2016-12-04T08:22:27.279Z</time>
      </trkpt>
      <trkpt lat="47.78329" lon="2.20787">
        <ele>118</ele>
        <time>2016-12-04T08:22:28.278Z</time>
      </trkpt>
      <trkpt lat="47.78329" lon="2.20787">
        <ele>118</ele>
        <time>2016-12-04T08:22:29.245Z</time>
      </trkpt>
      <trkpt lat="47.78342" lon="2.20795">
        <ele>118</ele>
        <time>2016-12-04T08:22:30.278Z</time>
      </trkpt>
      <trkpt lat="47.78342" lon="2.20795">
        <ele>118</ele>
        <time>2016-12-04T08:22:31.244Z</time>
      </trkpt>
      <trkpt lat="47.78355" lon="2.20802">
        <ele>117</ele>
        <time>2016-12-04T08:22:32.245Z</time>
      </trkpt>
      <trkpt lat="47.78355" lon="2.20802">
        <ele>117</ele>
        <time>2016-12-04T08:22:33.279Z</time>
      </trkpt>
      <trkpt lat="47.78366" lon="2.2081">
        <ele>117</ele>
        <time>2016-12-04T08:22:34.266Z</time>
      </trkpt>
      <trkpt lat="47.78372" lon="2.20813">
        <ele>117</ele>
        <time>2016-12-04T08:22:35.304Z</time>
      </trkpt>
      <trkpt lat="47.78378" lon="2.20816">
        <ele>117</ele>
        <time>2016-12-04T08:22:36.253Z</time>
      </trkpt>
      <trkpt lat="47.78378" lon="2.20816">
        <ele>117</ele>
        <time>2016-12-04T08:22:37.304Z</time>
      </trkpt>
      <trkpt lat="47.78389" lon="2.20823">
        <ele>116</ele>
        <time>2016-12-04T08:22:38.250Z</time>
      </trkpt>
      <trkpt lat="47.78389" lon="2.20823">
        <ele>116</ele>
        <time>2016-12-04T08:22:39.279Z</time>
      </trkpt>
      <trkpt lat="47.78401" lon="2.2083">
        <ele>116</ele>
        <time>2016-12-04T08:22:40.248Z</time>
      </trkpt>
      <trkpt lat="47.78401" lon="2.2083">
        <ele>116</ele>
        <time>2016-12-04T08:22:41.278Z</time>
      </trkpt>
      <trkpt lat="47.78412" lon="2.20836">
        <ele>115</ele>
        <time>2016-12-04T08:22:42.253Z</time>
      </trkpt>
      <trkpt lat="47.78412" lon="2.20836">
        <ele>115</ele>
        <time>2016-12-04T08:22:43.260Z</time>
      </trkpt>
      <trkpt lat="47.78425" lon="2.20843">
        <ele>114</ele>
        <time>2016-12-04T08:22:44.261Z</time>
      </trkpt>
      <trkpt lat="47.78431" lon="2.20846">
        <ele>114</ele>
        <time>2016-12-04T08:22:45.279Z</time>
      </trkpt>
      <trkpt lat="47.78436" lon="2.20848">
        <ele>113</ele>
        <time>2016-12-04T08:22:46.278Z</time>
      </trkpt>
      <trkpt lat="47.78436" lon="2.20848">
        <ele>113</ele>
        <time>2016-12-04T08:22:47.267Z</time>
      </trkpt>
      <trkpt lat="47.78448" lon="2.20856">
        <ele>112</ele>
        <time>2016-12-04T08:22:48.245Z</time>
      </trkpt>
      <trkpt lat="47.78448" lon="2.20856">
        <ele>112</ele>
        <time>2016-12-04T08:22:49.278Z</time>
      </trkpt>
      <trkpt lat="47.78459" lon="2.20868">
        <ele>111</ele>
        <time>2016-12-04T08:22:50.257Z</time>
      </trkpt>
      <trkpt lat="47.78459" lon="2.20868">
        <ele>111</ele>
        <time>2016-12-04T08:22:51.263Z</time>
      </trkpt>
      <trkpt lat="47.78469" lon="2.20882">
        <ele>111</ele>
        <time>2016-12-04T08:22:52.271Z</time>
      </trkpt>
      <trkpt lat="47.78469" lon="2.20882">
        <ele>111</ele>
        <time>2016-12-04T08:22:53.278Z</time>
      </trkpt>
      <trkpt lat="47.78478" lon="2.20896">
        <ele>110</ele>
        <time>2016-12-04T08:22:54.281Z</time>
      </trkpt>
      <trkpt lat="47.78483" lon="2.20903">
        <ele>110</ele>
        <time>2016-12-04T08:22:55.278Z</time>
      </trkpt>
      <trkpt lat="47.78483" lon="2.20903">
        <ele>110</ele>
        <time>2016-12-04T08:22:56.245Z</time>
      </trkpt>
      <trkpt lat="47.78492" lon="2.20917">
        <ele>109</ele>
        <time>2016-12-04T08:22:57.281Z</time>
      </trkpt>
      <trkpt lat="47.78497" lon="2.20923">
        <ele>109</ele>
        <time>2016-12-04T08:22:58.252Z</time>
      </trkpt>
      <trkpt lat="47.78497" lon="2.20923">
        <ele>109</ele>
        <time>2016-12-04T08:22:59.305Z</time>
      </trkpt>
      <trkpt lat="47.78507" lon="2.20936">
        <ele>108</ele>
        <time>2016-12-04T08:23:00.250Z</time>
      </trkpt>
      <trkpt lat="47.78507" lon="2.20936">
        <ele>108</ele>
        <time>2016-12-04T08:23:01.243Z</time>
      </trkpt>
      <trkpt lat="47.78521" lon="2.20955">
        <ele>107</ele>
        <time>2016-12-04T08:23:02.304Z</time>
      </trkpt>
      <trkpt lat="47.78521" lon="2.20955">
        <ele>107</ele>
        <time>2016-12-04T08:23:03.254Z</time>
      </trkpt>
      <trkpt lat="47.78521" lon="2.20955">
        <ele>107</ele>
        <time>2016-12-04T08:23:04.258Z</time>
      </trkpt>
      <trkpt lat="47.7853" lon="2.20967">
        <ele>107</ele>
        <time>2016-12-04T08:23:05.266Z</time>
      </trkpt>
      <trkpt lat="47.78533" lon="2.20972">
        <ele>107</ele>
        <time>2016-12-04T08:23:06.271Z</time>
      </trkpt>
      <trkpt lat="47.78533" lon="2.20972">
        <ele>107</ele>
        <time>2016-12-04T08:23:07.278Z</time>
      </trkpt>
      <trkpt lat="47.78541" lon="2.20983">
        <ele>106</ele>
        <time>2016-12-04T08:23:08.252Z</time>
      </trkpt>
      <trkpt lat="47.78541" lon="2.20983">
        <ele>106</ele>
        <time>2016-12-04T08:23:09.281Z</time>
      </trkpt>
      <trkpt lat="47.78549" lon="2.20992">
        <ele>106</ele>
        <time>2016-12-04T08:23:10.281Z</time>
      </trkpt>
      <trkpt lat="47.78549" lon="2.20992">
        <ele>106</ele>
        <time>2016-12-04T08:23:11.246Z</time>
      </trkpt>
      <trkpt lat="47.78556" lon="2.21001">
        <ele>106</ele>
        <time>2016-12-04T08:23:12.279Z</time>
      </trkpt>
      <trkpt lat="47.78556" lon="2.21001">
        <ele>106</ele>
        <time>2016-12-04T08:23:13.255Z</time>
      </trkpt>
      <trkpt lat="47.78562" lon="2.21007">
        <ele>106</ele>
        <time>2016-12-04T08:23:14.251Z</time>
      </trkpt>
      <trkpt lat="47.78564" lon="2.21011">
        <ele>106</ele>
        <time>2016-12-04T08:23:15.244Z</time>
      </trkpt>
      <trkpt lat="47.78564" lon="2.21011">
        <ele>106</ele>
        <time>2016-12-04T08:23:16.258Z</time>
      </trkpt>
      <trkpt lat="47.78567" lon="2.21016">
        <ele>106</ele>
        <time>2016-12-04T08:23:17.279Z</time>
      </trkpt>
      <trkpt lat="47.78568" lon="2.21018">
        <ele>107</ele>
        <time>2016-12-04T08:23:18.256Z</time>
      </trkpt>
      <trkpt lat="47.78568" lon="2.21018">
        <ele>107</ele>
        <time>2016-12-04T08:23:19.258Z</time>
      </trkpt>
      <trkpt lat="47.78569" lon="2.21019">
        <ele>107</ele>
        <time>2016-12-04T08:23:20.282Z</time>
      </trkpt>
      <trkpt lat="47.78569" lon="2.21019">
        <ele>107</ele>
        <time>2016-12-04T08:23:21.290Z</time>
      </trkpt>
      <trkpt lat="47.78564" lon="2.21023">
        <ele>106</ele>
        <time>2016-12-04T08:23:22.250Z</time>
      </trkpt>
      <trkpt lat="47.78564" lon="2.21023">
        <ele>106</ele>
        <time>2016-12-04T08:23:23.261Z</time>
      </trkpt>
      <trkpt lat="47.78561" lon="2.21027">
        <ele>106</ele>
        <time>2016-12-04T08:23:24.252Z</time>
      </trkpt>
      <trkpt lat="47.78559" lon="2.21029">
        <ele>106</ele>
        <time>2016-12-04T08:23:25.283Z</time>
      </trkpt>
      <trkpt lat="47.78559" lon="2.21029">
        <ele>106</ele>
        <time>2016-12-04T08:23:26.286Z</time>
      </trkpt>
      <trkpt lat="47.78554" lon="2.21032">
        <ele>107</ele>
        <time>2016-12-04T08:23:27.288Z</time>
      </trkpt>
      <trkpt lat="47.78554" lon="2.21032">
        <ele>107</ele>
        <time>2016-12-04T08:23:28.289Z</time>
      </trkpt>
      <trkpt lat="47.78548" lon="2.21036">
        <ele>107</ele>
        <time>2016-12-04T08:23:29.287Z</time>
      </trkpt>
      <trkpt lat="47.78548" lon="2.21036">
        <ele>107</ele>
        <time>2016-12-04T08:23:30.288Z</time>
      </trkpt>
      <trkpt lat="47.78541" lon="2.21042">
        <ele>107</ele>
        <time>2016-12-04T08:23:31.264Z</time>
      </trkpt>
      <trkpt lat="47.78541" lon="2.21042">
        <ele>107</ele>
        <time>2016-12-04T08:23:32.270Z</time>
      </trkpt>
      <trkpt lat="47.78535" lon="2.21049">
        <ele>107</ele>
        <time>2016-12-04T08:23:33.264Z</time>
      </trkpt>
      <trkpt lat="47.78535" lon="2.21049">
        <ele>107</ele>
        <time>2016-12-04T08:23:34.262Z</time>
      </trkpt>
      <trkpt lat="47.78528" lon="2.21056">
        <ele>107</ele>
        <time>2016-12-04T08:23:35.287Z</time>
      </trkpt>
      <trkpt lat="47.78528" lon="2.21056">
        <ele>107</ele>
        <time>2016-12-04T08:23:36.288Z</time>
      </trkpt>
      <trkpt lat="47.7852" lon="2.21063">
        <ele>108</ele>
        <time>2016-12-04T08:23:37.286Z</time>
      </trkpt>
      <trkpt lat="47.7852" lon="2.21063">
        <ele>108</ele>
        <time>2016-12-04T08:23:38.288Z</time>
      </trkpt>
      <trkpt lat="47.78513" lon="2.21071">
        <ele>108</ele>
        <time>2016-12-04T08:23:39.289Z</time>
      </trkpt>
      <trkpt lat="47.78509" lon="2.21074">
        <ele>108</ele>
        <time>2016-12-04T08:23:40.287Z</time>
      </trkpt>
      <trkpt lat="47.78509" lon="2.21074">
        <ele>108</ele>
        <time>2016-12-04T08:23:41.287Z</time>
      </trkpt>
      <trkpt lat="47.78501" lon="2.21082">
        <ele>108</ele>
        <time>2016-12-04T08:23:42.286Z</time>
      </trkpt>
      <trkpt lat="47.78501" lon="2.21082">
        <ele>108</ele>
        <time>2016-12-04T08:23:43.283Z</time>
      </trkpt>
      <trkpt lat="47.78492" lon="2.21089">
        <ele>108</ele>
        <time>2016-12-04T08:23:44.254Z</time>
      </trkpt>
      <trkpt lat="47.78492" lon="2.21089">
        <ele>108</ele>
        <time>2016-12-04T08:23:45.263Z</time>
      </trkpt>
      <trkpt lat="47.78484" lon="2.21096">
        <ele>108</ele>
        <time>2016-12-04T08:23:46.265Z</time>
      </trkpt>
      <trkpt lat="47.78484" lon="2.21096">
        <ele>108</ele>
        <time>2016-12-04T08:23:47.292Z</time>
      </trkpt>
      <trkpt lat="47.78475" lon="2.21104">
        <ele>108</ele>
        <time>2016-12-04T08:23:48.301Z</time>
      </trkpt>
      <trkpt lat="47.78475" lon="2.21104">
        <ele>108</ele>
        <time>2016-12-04T08:23:49.289Z</time>
      </trkpt>
      <trkpt lat="47.78467" lon="2.21113">
        <ele>109</ele>
        <time>2016-12-04T08:23:50.289Z</time>
      </trkpt>
      <trkpt lat="47.78463" lon="2.21117">
        <ele>109</ele>
        <time>2016-12-04T08:23:51.290Z</time>
      </trkpt>
      <trkpt lat="47.78458" lon="2.21121">
        <ele>109</ele>
        <time>2016-12-04T08:23:52.264Z</time>
      </trkpt>
      <trkpt lat="47.78454" lon="2.21125">
        <ele>109</ele>
        <time>2016-12-04T08:23:53.281Z</time>
      </trkpt>
      <trkpt lat="47.78454" lon="2.21125">
        <ele>109</ele>
        <time>2016-12-04T08:23:54.263Z</time>
      </trkpt>
      <trkpt lat="47.78445" lon="2.21134">
        <ele>109</ele>
        <time>2016-12-04T08:23:55.263Z</time>
      </trkpt>
      <trkpt lat="47.78436" lon="2.21142">
        <ele>109</ele>
        <time>2016-12-04T08:23:56.289Z</time>
      </trkpt>
      <trkpt lat="47.78432" lon="2.21146">
        <ele>109</ele>
        <time>2016-12-04T08:23:57.291Z</time>
      </trkpt>
      <trkpt lat="47.78432" lon="2.21146">
        <ele>109</ele>
        <time>2016-12-04T08:23:58.286Z</time>
      </trkpt>
      <trkpt lat="47.78432" lon="2.21146">
        <ele>109</ele>
        <time>2016-12-04T08:23:59.270Z</time>
      </trkpt>
      <trkpt lat="47.78423" lon="2.21155">
        <ele>110</ele>
        <time>2016-12-04T08:24:00.263Z</time>
      </trkpt>
      <trkpt lat="47.78423" lon="2.21155">
        <ele>110</ele>
        <time>2016-12-04T08:24:01.289Z</time>
      </trkpt>
      <trkpt lat="47.78414" lon="2.21164">
        <ele>110</ele>
        <time>2016-12-04T08:24:02.264Z</time>
      </trkpt>
      <trkpt lat="47.7841" lon="2.21168">
        <ele>110</ele>
        <time>2016-12-04T08:24:03.263Z</time>
      </trkpt>
      <trkpt lat="47.7841" lon="2.21168">
        <ele>110</ele>
        <time>2016-12-04T08:24:04.289Z</time>
      </trkpt>
      <trkpt lat="47.784" lon="2.21176">
        <ele>110</ele>
        <time>2016-12-04T08:24:05.290Z</time>
      </trkpt>
      <trkpt lat="47.78396" lon="2.21181">
        <ele>110</ele>
        <time>2016-12-04T08:24:06.287Z</time>
      </trkpt>
      <trkpt lat="47.78396" lon="2.21181">
        <ele>110</ele>
        <time>2016-12-04T08:24:07.289Z</time>
      </trkpt>
      <trkpt lat="47.78387" lon="2.21189">
        <ele>111</ele>
        <time>2016-12-04T08:24:08.284Z</time>
      </trkpt>
      <trkpt lat="47.78387" lon="2.21189">
        <ele>111</ele>
        <time>2016-12-04T08:24:09.290Z</time>
      </trkpt>
      <trkpt lat="47.78377" lon="2.21199">
        <ele>111</ele>
        <time>2016-12-04T08:24:10.264Z</time>
      </trkpt>
      <trkpt lat="47.78377" lon="2.21199">
        <ele>111</ele>
        <time>2016-12-04T08:24:11.289Z</time>
      </trkpt>
      <trkpt lat="47.78368" lon="2.21207">
        <ele>111</ele>
        <time>2016-12-04T08:24:12.314Z</time>
      </trkpt>
      <trkpt lat="47.78368" lon="2.21207">
        <ele>111</ele>
        <time>2016-12-04T08:24:13.246Z</time>
      </trkpt>
      <trkpt lat="47.78359" lon="2.21216">
        <ele>111</ele>
        <time>2016-12-04T08:24:14.257Z</time>
      </trkpt>
      <trkpt lat="47.78354" lon="2.21221">
        <ele>111</ele>
        <time>2016-12-04T08:24:15.290Z</time>
      </trkpt>
      <trkpt lat="47.7835" lon="2.21225">
        <ele>111</ele>
        <time>2016-12-04T08:24:16.258Z</time>
      </trkpt>
      <trkpt lat="47.7835" lon="2.21225">
        <ele>111</ele>
        <time>2016-12-04T08:24:17.248Z</time>
      </trkpt>
      <trkpt lat="47.78341" lon="2.21234">
        <ele>111</ele>
        <time>2016-12-04T08:24:18.255Z</time>
      </trkpt>
      <trkpt lat="47.78341" lon="2.21234">
        <ele>111</ele>
        <time>2016-12-04T08:24:19.263Z</time>
      </trkpt>
      <trkpt lat="47.78332" lon="2.21243">
        <ele>111</ele>
        <time>2016-12-04T08:24:20.286Z</time>
      </trkpt>
      <trkpt lat="47.78332" lon="2.21243">
        <ele>111</ele>
        <time>2016-12-04T08:24:21.290Z</time>
      </trkpt>
      <trkpt lat="47.78322" lon="2.21251">
        <ele>111</ele>
        <time>2016-12-04T08:24:22.287Z</time>
      </trkpt>
      <trkpt lat="47.78322" lon="2.21251">
        <ele>111</ele>
        <time>2016-12-04T08:24:23.300Z</time>
      </trkpt>
      <trkpt lat="47.78313" lon="2.21259">
        <ele>111</ele>
        <time>2016-12-04T08:24:24.268Z</time>
      </trkpt>
      <trkpt lat="47.78309" lon="2.21263">
        <ele>111</ele>
        <time>2016-12-04T08:24:25.286Z</time>
      </trkpt>
      <trkpt lat="47.78309" lon="2.21263">
        <ele>111</ele>
        <time>2016-12-04T08:24:26.289Z</time>
      </trkpt>
      <trkpt lat="47.783" lon="2.21271">
        <ele>112</ele>
        <time>2016-12-04T08:24:27.297Z</time>
      </trkpt>
      <trkpt lat="47.78295" lon="2.21275">
        <ele>112</ele>
        <time>2016-12-04T08:24:28.283Z</time>
      </trkpt>
      <trkpt lat="47.78295" lon="2.21275">
        <ele>112</ele>
        <time>2016-12-04T08:24:29.301Z</time>
      </trkpt>
      <trkpt lat="47.78286" lon="2.21283">
        <ele>112</ele>
        <time>2016-12-04T08:24:30.286Z</time>
      </trkpt>
      <trkpt lat="47.78286" lon="2.21283">
        <ele>112</ele>
        <time>2016-12-04T08:24:31.289Z</time>
      </trkpt>
      <trkpt lat="47.78276" lon="2.21291">
        <ele>112</ele>
        <time>2016-12-04T08:24:32.286Z</time>
      </trkpt>
      <trkpt lat="47.78271" lon="2.21295">
        <ele>113</ele>
        <time>2016-12-04T08:24:33.281Z</time>
      </trkpt>
      <trkpt lat="47.78271" lon="2.21295">
        <ele>113</ele>
        <time>2016-12-04T08:24:34.263Z</time>
      </trkpt>
      <trkpt lat="47.78262" lon="2.21302">
        <ele>113</ele>
        <time>2016-12-04T08:24:35.243Z</time>
      </trkpt>
      <trkpt lat="47.78257" lon="2.21305">
        <ele>113</ele>
        <time>2016-12-04T08:24:36.251Z</time>
      </trkpt>
      <trkpt lat="47.78257" lon="2.21305">
        <ele>113</ele>
        <time>2016-12-04T08:24:37.266Z</time>
      </trkpt>
      <trkpt lat="47.78247" lon="2.21311">
        <ele>113</ele>
        <time>2016-12-04T08:24:38.257Z</time>
      </trkpt>
      <trkpt lat="47.78237" lon="2.21316">
        <ele>114</ele>
        <time>2016-12-04T08:24:39.288Z</time>
      </trkpt>
      <trkpt lat="47.78237" lon="2.21316">
        <ele>114</ele>
        <time>2016-12-04T08:24:40.287Z</time>
      </trkpt>
      <trkpt lat="47.78237" lon="2.21316">
        <ele>114</ele>
        <time>2016-12-04T08:24:41.287Z</time>
      </trkpt>
      <trkpt lat="47.78226" lon="2.2132">
        <ele>114</ele>
        <time>2016-12-04T08:24:42.251Z</time>
      </trkpt>
      <trkpt lat="47.78226" lon="2.2132">
        <ele>114</ele>
        <time>2016-12-04T08:24:43.263Z</time>
      </trkpt>
      <trkpt lat="47.78216" lon="2.21324">
        <ele>114</ele>
        <time>2016-12-04T08:24:44.249Z</time>
      </trkpt>
      <trkpt lat="47.7821" lon="2.21326">
        <ele>114</ele>
        <time>2016-12-04T08:24:45.255Z</time>
      </trkpt>
      <trkpt lat="47.78204" lon="2.21327">
        <ele>114</ele>
        <time>2016-12-04T08:24:46.263Z</time>
      </trkpt>
      <trkpt lat="47.78199" lon="2.21328">
        <ele>114</ele>
        <time>2016-12-04T08:24:47.258Z</time>
      </trkpt>
      <trkpt lat="47.78199" lon="2.21328">
        <ele>114</ele>
        <time>2016-12-04T08:24:48.264Z</time>
      </trkpt>
      <trkpt lat="47.78187" lon="2.21331">
        <ele>114</ele>
        <time>2016-12-04T08:24:49.287Z</time>
      </trkpt>
      <trkpt lat="47.78187" lon="2.21331">
        <ele>114</ele>
        <time>2016-12-04T08:24:50.289Z</time>
      </trkpt>
      <trkpt lat="47.78177" lon="2.21333">
        <ele>115</ele>
        <time>2016-12-04T08:24:51.290Z</time>
      </trkpt>
      <trkpt lat="47.78171" lon="2.21334">
        <ele>115</ele>
        <time>2016-12-04T08:24:52.253Z</time>
      </trkpt>
      <trkpt lat="47.78171" lon="2.21334">
        <ele>115</ele>
        <time>2016-12-04T08:24:53.263Z</time>
      </trkpt>
      <trkpt lat="47.7816" lon="2.21337">
        <ele>115</ele>
        <time>2016-12-04T08:24:54.270Z</time>
      </trkpt>
      <trkpt lat="47.78155" lon="2.21338">
        <ele>115</ele>
        <time>2016-12-04T08:24:55.245Z</time>
      </trkpt>
      <trkpt lat="47.78155" lon="2.21338">
        <ele>115</ele>
        <time>2016-12-04T08:24:56.256Z</time>
      </trkpt>
      <trkpt lat="47.78143" lon="2.21339">
        <ele>115</ele>
        <time>2016-12-04T08:24:57.264Z</time>
      </trkpt>
      <trkpt lat="47.78138" lon="2.21339">
        <ele>115</ele>
        <time>2016-12-04T08:24:58.264Z</time>
      </trkpt>
      <trkpt lat="47.78138" lon="2.21339">
        <ele>115</ele>
        <time>2016-12-04T08:24:59.290Z</time>
      </trkpt>
      <trkpt lat="47.78126" lon="2.21339">
        <ele>116</ele>
        <time>2016-12-04T08:25:00.265Z</time>
      </trkpt>
      <trkpt lat="47.78126" lon="2.21339">
        <ele>116</ele>
        <time>2016-12-04T08:25:01.289Z</time>
      </trkpt>
      <trkpt lat="47.78114" lon="2.21338">
        <ele>116</ele>
        <time>2016-12-04T08:25:02.264Z</time>
      </trkpt>
      <trkpt lat="47.78114" lon="2.21338">
        <ele>116</ele>
        <time>2016-12-04T08:25:03.270Z</time>
      </trkpt>
      <trkpt lat="47.78102" lon="2.21337">
        <ele>116</ele>
        <time>2016-12-04T08:25:04.258Z</time>
      </trkpt>
      <trkpt lat="47.78102" lon="2.21337">
        <ele>116</ele>
        <time>2016-12-04T08:25:05.263Z</time>
      </trkpt>
      <trkpt lat="47.7809" lon="2.21335">
        <ele>116</ele>
        <time>2016-12-04T08:25:06.287Z</time>
      </trkpt>
      <trkpt lat="47.7809" lon="2.21335">
        <ele>116</ele>
        <time>2016-12-04T08:25:07.289Z</time>
      </trkpt>
      <trkpt lat="47.78077" lon="2.21332">
        <ele>115</ele>
        <time>2016-12-04T08:25:08.286Z</time>
      </trkpt>
      <trkpt lat="47.78077" lon="2.21332">
        <ele>115</ele>
        <time>2016-12-04T08:25:09.288Z</time>
      </trkpt>
      <trkpt lat="47.78065" lon="2.2133">
        <ele>116</ele>
        <time>2016-12-04T08:25:10.243Z</time>
      </trkpt>
      <trkpt lat="47.78065" lon="2.2133">
        <ele>116</ele>
        <time>2016-12-04T08:25:11.246Z</time>
      </trkpt>
      <trkpt lat="47.78054" lon="2.21328">
        <ele>116</ele>
        <time>2016-12-04T08:25:12.258Z</time>
      </trkpt>
      <trkpt lat="47.78054" lon="2.21328">
        <ele>116</ele>
        <time>2016-12-04T08:25:13.263Z</time>
      </trkpt>
      <trkpt lat="47.78042" lon="2.21325">
        <ele>116</ele>
        <time>2016-12-04T08:25:14.251Z</time>
      </trkpt>
      <trkpt lat="47.78037" lon="2.21324">
        <ele>116</ele>
        <time>2016-12-04T08:25:15.290Z</time>
      </trkpt>
      <trkpt lat="47.78031" lon="2.21323">
        <ele>116</ele>
        <time>2016-12-04T08:25:16.264Z</time>
      </trkpt>
      <trkpt lat="47.78031" lon="2.21323">
        <ele>116</ele>
        <time>2016-12-04T08:25:17.287Z</time>
      </trkpt>
      <trkpt lat="47.7802" lon="2.21322">
        <ele>116</ele>
        <time>2016-12-04T08:25:18.264Z</time>
      </trkpt>
      <trkpt lat="47.7802" lon="2.21322">
        <ele>116</ele>
        <time>2016-12-04T08:25:19.289Z</time>
      </trkpt>
      <trkpt lat="47.78008" lon="2.2132">
        <ele>116</ele>
        <time>2016-12-04T08:25:20.286Z</time>
      </trkpt>
      <trkpt lat="47.78008" lon="2.2132">
        <ele>116</ele>
        <time>2016-12-04T08:25:21.291Z</time>
      </trkpt>
      <trkpt lat="47.77997" lon="2.21318">
        <ele>117</ele>
        <time>2016-12-04T08:25:22.243Z</time>
      </trkpt>
      <trkpt lat="47.77997" lon="2.21318">
        <ele>117</ele>
        <time>2016-12-04T08:25:23.248Z</time>
      </trkpt>
      <trkpt lat="47.77987" lon="2.21317">
        <ele>117</ele>
        <time>2016-12-04T08:25:24.256Z</time>
      </trkpt>
      <trkpt lat="47.77982" lon="2.21316">
        <ele>117</ele>
        <time>2016-12-04T08:25:25.263Z</time>
      </trkpt>
      <trkpt lat="47.77977" lon="2.21315">
        <ele>118</ele>
        <time>2016-12-04T08:25:26.284Z</time>
      </trkpt>
      <trkpt lat="47.77977" lon="2.21315">
        <ele>118</ele>
        <time>2016-12-04T08:25:27.288Z</time>
      </trkpt>
      <trkpt lat="47.77967" lon="2.21314">
        <ele>117</ele>
        <time>2016-12-04T08:25:28.265Z</time>
      </trkpt>
      <trkpt lat="47.77967" lon="2.21314">
        <ele>117</ele>
        <time>2016-12-04T08:25:29.289Z</time>
      </trkpt>
      <trkpt lat="47.77957" lon="2.21312">
        <ele>118</ele>
        <time>2016-12-04T08:25:30.264Z</time>
      </trkpt>
      <trkpt lat="47.77957" lon="2.21312">
        <ele>118</ele>
        <time>2016-12-04T08:25:31.289Z</time>
      </trkpt>
      <trkpt lat="47.77947" lon="2.21311">
        <ele>118</ele>
        <time>2016-12-04T08:25:32.286Z</time>
      </trkpt>
      <trkpt lat="47.77947" lon="2.21311">
        <ele>118</ele>
        <time>2016-12-04T08:25:33.299Z</time>
      </trkpt>
      <trkpt lat="47.77937" lon="2.2131">
        <ele>118</ele>
        <time>2016-12-04T08:25:34.289Z</time>
      </trkpt>
      <trkpt lat="47.77933" lon="2.21309">
        <ele>118</ele>
        <time>2016-12-04T08:25:35.247Z</time>
      </trkpt>
      <trkpt lat="47.77933" lon="2.21309">
        <ele>118</ele>
        <time>2016-12-04T08:25:36.252Z</time>
      </trkpt>
      <trkpt lat="47.77923" lon="2.21308">
        <ele>119</ele>
        <time>2016-12-04T08:25:37.258Z</time>
      </trkpt>
      <trkpt lat="47.77919" lon="2.21308">
        <ele>119</ele>
        <time>2016-12-04T08:25:38.263Z</time>
      </trkpt>
      <trkpt lat="47.77914" lon="2.21309">
        <ele>119</ele>
        <time>2016-12-04T08:25:39.258Z</time>
      </trkpt>
      <trkpt lat="47.7791" lon="2.21309">
        <ele>119</ele>
        <time>2016-12-04T08:25:40.287Z</time>
      </trkpt>
      <trkpt lat="47.7791" lon="2.21309">
        <ele>119</ele>
        <time>2016-12-04T08:25:41.290Z</time>
      </trkpt>
      <trkpt lat="47.77901" lon="2.2131">
        <ele>119</ele>
        <time>2016-12-04T08:25:42.264Z</time>
      </trkpt>
      <trkpt lat="47.77901" lon="2.2131">
        <ele>119</ele>
        <time>2016-12-04T08:25:43.288Z</time>
      </trkpt>
      <trkpt lat="47.77892" lon="2.21312">
        <ele>120</ele>
        <time>2016-12-04T08:25:44.291Z</time>
      </trkpt>
      <trkpt lat="47.77888" lon="2.21313">
        <ele>120</ele>
        <time>2016-12-04T08:25:45.290Z</time>
      </trkpt>
      <trkpt lat="47.77884" lon="2.21314">
        <ele>121</ele>
        <time>2016-12-04T08:25:46.265Z</time>
      </trkpt>
      <trkpt lat="47.77884" lon="2.21314">
        <ele>121</ele>
        <time>2016-12-04T08:25:47.287Z</time>
      </trkpt>
      <trkpt lat="47.77876" lon="2.21317">
        <ele>122</ele>
        <time>2016-12-04T08:25:48.286Z</time>
      </trkpt>
      <trkpt lat="47.77876" lon="2.21317">
        <ele>122</ele>
        <time>2016-12-04T08:25:49.289Z</time>
      </trkpt>
      <trkpt lat="47.77868" lon="2.2132">
        <ele>122</ele>
        <time>2016-12-04T08:25:50.250Z</time>
      </trkpt>
      <trkpt lat="47.77868" lon="2.2132">
        <ele>122</ele>
        <time>2016-12-04T08:25:51.267Z</time>
      </trkpt>
      <trkpt lat="47.7786" lon="2.21324">
        <ele>123</ele>
        <time>2016-12-04T08:25:52.265Z</time>
      </trkpt>
      <trkpt lat="47.7786" lon="2.21324">
        <ele>123</ele>
        <time>2016-12-04T08:25:53.296Z</time>
      </trkpt>
      <trkpt lat="47.77853" lon="2.21328">
        <ele>123</ele>
        <time>2016-12-04T08:25:54.264Z</time>
      </trkpt>
      <trkpt lat="47.77853" lon="2.21328">
        <ele>123</ele>
        <time>2016-12-04T08:25:55.289Z</time>
      </trkpt>
      <trkpt lat="47.77845" lon="2.21332">
        <ele>124</ele>
        <time>2016-12-04T08:25:56.258Z</time>
      </trkpt>
      <trkpt lat="47.77845" lon="2.21332">
        <ele>124</ele>
        <time>2016-12-04T08:25:57.265Z</time>
      </trkpt>
      <trkpt lat="47.77837" lon="2.21336">
        <ele>124</ele>
        <time>2016-12-04T08:25:58.245Z</time>
      </trkpt>
      <trkpt lat="47.77837" lon="2.21336">
        <ele>124</ele>
        <time>2016-12-04T08:25:59.252Z</time>
      </trkpt>
      <trkpt lat="47.77829" lon="2.2134">
        <ele>125</ele>
        <time>2016-12-04T08:26:00.256Z</time>
      </trkpt>
      <trkpt lat="47.77829" lon="2.2134">
        <ele>125</ele>
        <time>2016-12-04T08:26:01.263Z</time>
      </trkpt>
      <trkpt lat="47.77821" lon="2.21345">
        <ele>126</ele>
        <time>2016-12-04T08:26:02.258Z</time>
      </trkpt>
      <trkpt lat="47.77821" lon="2.21345">
        <ele>126</ele>
        <time>2016-12-04T08:26:03.250Z</time>
      </trkpt>
      <trkpt lat="47.77814" lon="2.2135">
        <ele>126</ele>
        <time>2016-12-04T08:26:04.250Z</time>
      </trkpt>
      <trkpt lat="47.7781" lon="2.21353">
        <ele>126</ele>
        <time>2016-12-04T08:26:05.255Z</time>
      </trkpt>
      <trkpt lat="47.7781" lon="2.21353">
        <ele>126</ele>
        <time>2016-12-04T08:26:06.257Z</time>
      </trkpt>
      <trkpt lat="47.77802" lon="2.21358">
        <ele>127</ele>
        <time>2016-12-04T08:26:07.259Z</time>
      </trkpt>
      <trkpt lat="47.77802" lon="2.21358">
        <ele>127</ele>
        <time>2016-12-04T08:26:08.265Z</time>
      </trkpt>
      <trkpt lat="47.77793" lon="2.21362">
        <ele>127</ele>
        <time>2016-12-04T08:26:09.255Z</time>
      </trkpt>
      <trkpt lat="47.77789" lon="2.21364">
        <ele>127</ele>
        <time>2016-12-04T08:26:10.264Z</time>
      </trkpt>
      <trkpt lat="47.77789" lon="2.21364">
        <ele>127</ele>
        <time>2016-12-04T08:26:11.290Z</time>
      </trkpt>
      <trkpt lat="47.77782" lon="2.21369">
        <ele>127</ele>
        <time>2016-12-04T08:26:12.285Z</time>
      </trkpt>
      <trkpt lat="47.77782" lon="2.21369">
        <ele>127</ele>
        <time>2016-12-04T08:26:13.287Z</time>
      </trkpt>
      <trkpt lat="47.77775" lon="2.21373">
        <ele>126</ele>
        <time>2016-12-04T08:26:14.248Z</time>
      </trkpt>
      <trkpt lat="47.77775" lon="2.21373">
        <ele>126</ele>
        <time>2016-12-04T08:26:15.254Z</time>
      </trkpt>
      <trkpt lat="47.77767" lon="2.21378">
        <ele>127</ele>
        <time>2016-12-04T08:26:16.258Z</time>
      </trkpt>
      <trkpt lat="47.77767" lon="2.21378">
        <ele>127</ele>
        <time>2016-12-04T08:26:17.278Z</time>
      </trkpt>
      <trkpt lat="47.7776" lon="2.21382">
        <ele>128</ele>
        <time>2016-12-04T08:26:18.246Z</time>
      </trkpt>
      <trkpt lat="47.77756" lon="2.21385">
        <ele>128</ele>
        <time>2016-12-04T08:26:19.252Z</time>
      </trkpt>
      <trkpt lat="47.77756" lon="2.21385">
        <ele>128</ele>
        <time>2016-12-04T08:26:20.258Z</time>
      </trkpt>
      <trkpt lat="47.77748" lon="2.21389">
        <ele>128</ele>
        <time>2016-12-04T08:26:21.288Z</time>
      </trkpt>
      <trkpt lat="47.77744" lon="2.21391">
        <ele>128</ele>
        <time>2016-12-04T08:26:22.287Z</time>
      </trkpt>
      <trkpt lat="47.77744" lon="2.21391">
        <ele>128</ele>
        <time>2016-12-04T08:26:23.282Z</time>
      </trkpt>
      <trkpt lat="47.77735" lon="2.21396">
        <ele>130</ele>
        <time>2016-12-04T08:26:24.290Z</time>
      </trkpt>
      <trkpt lat="47.77731" lon="2.21398">
        <ele>130</ele>
        <time>2016-12-04T08:26:25.264Z</time>
      </trkpt>
      <trkpt lat="47.77731" lon="2.21398">
        <ele>130</ele>
        <time>2016-12-04T08:26:26.289Z</time>
      </trkpt>
      <trkpt lat="47.77723" lon="2.21403">
        <ele>130</ele>
        <time>2016-12-04T08:26:27.290Z</time>
      </trkpt>
      <trkpt lat="47.77719" lon="2.21405">
        <ele>131</ele>
        <time>2016-12-04T08:26:28.265Z</time>
      </trkpt>
      <trkpt lat="47.77719" lon="2.21405">
        <ele>131</ele>
        <time>2016-12-04T08:26:29.290Z</time>
      </trkpt>
      <trkpt lat="47.77711" lon="2.21409">
        <ele>131</ele>
        <time>2016-12-04T08:26:30.264Z</time>
      </trkpt>
      <trkpt lat="47.77711" lon="2.21409">
        <ele>131</ele>
        <time>2016-12-04T08:26:31.252Z</time>
      </trkpt>
      <trkpt lat="47.77704" lon="2.21413">
        <ele>131</ele>
        <time>2016-12-04T08:26:32.259Z</time>
      </trkpt>
      <trkpt lat="47.77704" lon="2.21413">
        <ele>131</ele>
        <time>2016-12-04T08:26:33.251Z</time>
      </trkpt>
      <trkpt lat="47.77696" lon="2.21418">
        <ele>132</ele>
        <time>2016-12-04T08:26:34.246Z</time>
      </trkpt>
      <trkpt lat="47.77696" lon="2.21418">
        <ele>132</ele>
        <time>2016-12-04T08:26:35.246Z</time>
      </trkpt>
      <trkpt lat="47.77689" lon="2.21422">
        <ele>132</ele>
        <time>2016-12-04T08:26:36.251Z</time>
      </trkpt>
      <trkpt lat="47.77689" lon="2.21422">
        <ele>132</ele>
        <time>2016-12-04T08:26:37.257Z</time>
      </trkpt>
      <trkpt lat="47.77681" lon="2.21427">
        <ele>132</ele>
        <time>2016-12-04T08:26:38.258Z</time>
      </trkpt>
      <trkpt lat="47.77681" lon="2.21427">
        <ele>132</ele>
        <time>2016-12-04T08:26:39.316Z</time>
      </trkpt>
      <trkpt lat="47.77673" lon="2.21431">
        <ele>131</ele>
        <time>2016-12-04T08:26:40.287Z</time>
      </trkpt>
      <trkpt lat="47.77673" lon="2.21431">
        <ele>131</ele>
        <time>2016-12-04T08:26:41.290Z</time>
      </trkpt>
      <trkpt lat="47.77664" lon="2.21435">
        <ele>132</ele>
        <time>2016-12-04T08:26:42.265Z</time>
      </trkpt>
      <trkpt lat="47.77664" lon="2.21435">
        <ele>132</ele>
        <time>2016-12-04T08:26:43.283Z</time>
      </trkpt>
      <trkpt lat="47.77657" lon="2.2144">
        <ele>133</ele>
        <time>2016-12-04T08:26:44.255Z</time>
      </trkpt>
      <trkpt lat="47.77653" lon="2.21442">
        <ele>133</ele>
        <time>2016-12-04T08:26:45.291Z</time>
      </trkpt>
      <trkpt lat="47.77649" lon="2.21444">
        <ele>133</ele>
        <time>2016-12-04T08:26:46.284Z</time>
      </trkpt>
      <trkpt lat="47.77649" lon="2.21444">
        <ele>133</ele>
        <time>2016-12-04T08:26:47.289Z</time>
      </trkpt>
      <trkpt lat="47.77641" lon="2.21449">
        <ele>133</ele>
        <time>2016-12-04T08:26:48.287Z</time>
      </trkpt>
      <trkpt lat="47.77641" lon="2.21449">
        <ele>133</ele>
        <time>2016-12-04T08:26:49.290Z</time>
      </trkpt>
      <trkpt lat="47.77633" lon="2.21454">
        <ele>134</ele>
        <time>2016-12-04T08:26:50.287Z</time>
      </trkpt>
      <trkpt lat="47.77633" lon="2.21454">
        <ele>134</ele>
        <time>2016-12-04T08:26:51.293Z</time>
      </trkpt>
      <trkpt lat="47.77625" lon="2.21458">
        <ele>134</ele>
        <time>2016-12-04T08:26:52.285Z</time>
      </trkpt>
      <trkpt lat="47.77625" lon="2.21458">
        <ele>134</ele>
        <time>2016-12-04T08:26:53.282Z</time>
      </trkpt>
      <trkpt lat="47.77616" lon="2.21461">
        <ele>134</ele>
        <time>2016-12-04T08:26:54.254Z</time>
      </trkpt>
      <trkpt lat="47.77612" lon="2.21463">
        <ele>134</ele>
        <time>2016-12-04T08:26:55.259Z</time>
      </trkpt>
      <trkpt lat="47.77612" lon="2.21463">
        <ele>134</ele>
        <time>2016-12-04T08:26:56.266Z</time>
      </trkpt>
      <trkpt lat="47.77603" lon="2.21468">
        <ele>134</ele>
        <time>2016-12-04T08:26:57.264Z</time>
      </trkpt>
      <trkpt lat="47.77599" lon="2.2147">
        <ele>134</ele>
        <time>2016-12-04T08:26:58.287Z</time>
      </trkpt>
      <trkpt lat="47.77599" lon="2.2147">
        <ele>134</ele>
        <time>2016-12-04T08:26:59.270Z</time>
      </trkpt>
      <trkpt lat="47.7759" lon="2.21474">
        <ele>134</ele>
        <time>2016-12-04T08:27:00.287Z</time>
      </trkpt>
      <trkpt lat="47.7759" lon="2.21474">
        <ele>134</ele>
        <time>2016-12-04T08:27:01.290Z</time>
      </trkpt>
      <trkpt lat="47.77582" lon="2.21477">
        <ele>134</ele>
        <time>2016-12-04T08:27:02.265Z</time>
      </trkpt>
      <trkpt lat="47.77582" lon="2.21477">
        <ele>134</ele>
        <time>2016-12-04T08:27:03.261Z</time>
      </trkpt>
      <trkpt lat="47.77573" lon="2.21482">
        <ele>134</ele>
        <time>2016-12-04T08:27:04.255Z</time>
      </trkpt>
      <trkpt lat="47.77573" lon="2.21482">
        <ele>134</ele>
        <time>2016-12-04T08:27:05.267Z</time>
      </trkpt>
      <trkpt lat="47.77564" lon="2.21486">
        <ele>134</ele>
        <time>2016-12-04T08:27:06.258Z</time>
      </trkpt>
      <trkpt lat="47.77564" lon="2.21486">
        <ele>134</ele>
        <time>2016-12-04T08:27:07.264Z</time>
      </trkpt>
      <trkpt lat="47.77555" lon="2.21491">
        <ele>134</ele>
        <time>2016-12-04T08:27:08.300Z</time>
      </trkpt>
      <trkpt lat="47.77551" lon="2.21494">
        <ele>134</ele>
        <time>2016-12-04T08:27:09.251Z</time>
      </trkpt>
      <trkpt lat="47.77551" lon="2.21494">
        <ele>134</ele>
        <time>2016-12-04T08:27:10.259Z</time>
      </trkpt>
      <trkpt lat="47.77542" lon="2.215">
        <ele>134</ele>
        <time>2016-12-04T08:27:11.257Z</time>
      </trkpt>
      <trkpt lat="47.77542" lon="2.215">
        <ele>134</ele>
        <time>2016-12-04T08:27:12.264Z</time>
      </trkpt>
      <trkpt lat="47.77534" lon="2.21506">
        <ele>133</ele>
        <time>2016-12-04T08:27:13.281Z</time>
      </trkpt>
      <trkpt lat="47.77534" lon="2.21506">
        <ele>133</ele>
        <time>2016-12-04T08:27:14.257Z</time>
      </trkpt>
      <trkpt lat="47.77524" lon="2.2151">
        <ele>133</ele>
        <time>2016-12-04T08:27:15.258Z</time>
      </trkpt>
      <trkpt lat="47.77519" lon="2.21512">
        <ele>133</ele>
        <time>2016-12-04T08:27:16.248Z</time>
      </trkpt>
      <trkpt lat="47.77519" lon="2.21512">
        <ele>133</ele>
        <time>2016-12-04T08:27:17.264Z</time>
      </trkpt>
      <trkpt lat="47.7751" lon="2.21518">
        <ele>134</ele>
        <time>2016-12-04T08:27:18.255Z</time>
      </trkpt>
      <trkpt lat="47.7751" lon="2.21518">
        <ele>134</ele>
        <time>2016-12-04T08:27:19.264Z</time>
      </trkpt>
      <trkpt lat="47.77502" lon="2.21522">
        <ele>133</ele>
        <time>2016-12-04T08:27:20.254Z</time>
      </trkpt>
      <trkpt lat="47.77502" lon="2.21522">
        <ele>133</ele>
        <time>2016-12-04T08:27:21.265Z</time>
      </trkpt>
      <trkpt lat="47.77492" lon="2.21527">
        <ele>134</ele>
        <time>2016-12-04T08:27:22.280Z</time>
      </trkpt>
      <trkpt lat="47.77492" lon="2.21527">
        <ele>134</ele>
        <time>2016-12-04T08:27:23.283Z</time>
      </trkpt>
      <trkpt lat="47.77483" lon="2.21533">
        <ele>134</ele>
        <time>2016-12-04T08:27:24.254Z</time>
      </trkpt>
      <trkpt lat="47.77478" lon="2.21535">
        <ele>134</ele>
        <time>2016-12-04T08:27:25.256Z</time>
      </trkpt>
      <trkpt lat="47.77478" lon="2.21535">
        <ele>134</ele>
        <time>2016-12-04T08:27:26.265Z</time>
      </trkpt>
      <trkpt lat="47.77469" lon="2.2154">
        <ele>134</ele>
        <time>2016-12-04T08:27:27.264Z</time>
      </trkpt>
      <trkpt lat="47.77469" lon="2.2154">
        <ele>134</ele>
        <time>2016-12-04T08:27:28.291Z</time>
      </trkpt>
      <trkpt lat="47.7746" lon="2.21544">
        <ele>134</ele>
        <time>2016-12-04T08:27:29.266Z</time>
      </trkpt>
      <trkpt lat="47.77455" lon="2.21546">
        <ele>134</ele>
        <time>2016-12-04T08:27:30.264Z</time>
      </trkpt>
      <trkpt lat="47.77455" lon="2.21546">
        <ele>134</ele>
        <time>2016-12-04T08:27:31.290Z</time>
      </trkpt>
      <trkpt lat="47.77446" lon="2.21551">
        <ele>134</ele>
        <time>2016-12-04T08:27:32.287Z</time>
      </trkpt>
      <trkpt lat="47.77446" lon="2.21551">
        <ele>134</ele>
        <time>2016-12-04T08:27:33.271Z</time>
      </trkpt>
      <trkpt lat="47.77438" lon="2.21556">
        <ele>135</ele>
        <time>2016-12-04T08:27:34.260Z</time>
      </trkpt>
      <trkpt lat="47.77438" lon="2.21556">
        <ele>135</ele>
        <time>2016-12-04T08:27:35.265Z</time>
      </trkpt>
      <trkpt lat="47.77429" lon="2.21564">
        <ele>135</ele>
        <time>2016-12-04T08:27:36.264Z</time>
      </trkpt>
      <trkpt lat="47.77429" lon="2.21564">
        <ele>135</ele>
        <time>2016-12-04T08:27:37.290Z</time>
      </trkpt>
      <trkpt lat="47.77419" lon="2.2157">
        <ele>135</ele>
        <time>2016-12-04T08:27:38.265Z</time>
      </trkpt>
      <trkpt lat="47.77414" lon="2.21573">
        <ele>135</ele>
        <time>2016-12-04T08:27:39.252Z</time>
      </trkpt>
      <trkpt lat="47.77414" lon="2.21573">
        <ele>135</ele>
        <time>2016-12-04T08:27:40.259Z</time>
      </trkpt>
      <trkpt lat="47.77405" lon="2.21579">
        <ele>135</ele>
        <time>2016-12-04T08:27:41.265Z</time>
      </trkpt>
      <trkpt lat="47.774" lon="2.21582">
        <ele>135</ele>
        <time>2016-12-04T08:27:42.286Z</time>
      </trkpt>
      <trkpt lat="47.774" lon="2.21582">
        <ele>135</ele>
        <time>2016-12-04T08:27:43.283Z</time>
      </trkpt>
      <trkpt lat="47.77392" lon="2.21589">
        <ele>136</ele>
        <time>2016-12-04T08:27:44.254Z</time>
      </trkpt>
      <trkpt lat="47.77387" lon="2.21593">
        <ele>136</ele>
        <time>2016-12-04T08:27:45.253Z</time>
      </trkpt>
      <trkpt lat="47.77383" lon="2.21597">
        <ele>136</ele>
        <time>2016-12-04T08:27:46.264Z</time>
      </trkpt>
      <trkpt lat="47.77383" lon="2.21597">
        <ele>136</ele>
        <time>2016-12-04T08:27:47.291Z</time>
      </trkpt>
      <trkpt lat="47.77375" lon="2.21604">
        <ele>135</ele>
        <time>2016-12-04T08:27:48.265Z</time>
      </trkpt>
      <trkpt lat="47.77375" lon="2.21604">
        <ele>135</ele>
        <time>2016-12-04T08:27:49.303Z</time>
      </trkpt>
      <trkpt lat="47.77368" lon="2.21606">
        <ele>135</ele>
        <time>2016-12-04T08:27:50.288Z</time>
      </trkpt>
      <trkpt lat="47.77368" lon="2.21606">
        <ele>135</ele>
        <time>2016-12-04T08:27:51.289Z</time>
      </trkpt>
      <trkpt lat="47.77361" lon="2.21601">
        <ele>135</ele>
        <time>2016-12-04T08:27:52.265Z</time>
      </trkpt>
      <trkpt lat="47.77361" lon="2.21601">
        <ele>135</ele>
        <time>2016-12-04T08:27:53.284Z</time>
      </trkpt>
      <trkpt lat="47.77354" lon="2.21594">
        <ele>135</ele>
        <time>2016-12-04T08:27:54.255Z</time>
      </trkpt>
      <trkpt lat="47.77351" lon="2.2159">
        <ele>135</ele>
        <time>2016-12-04T08:27:55.288Z</time>
      </trkpt>
      <trkpt lat="47.77351" lon="2.2159">
        <ele>135</ele>
        <time>2016-12-04T08:27:56.290Z</time>
      </trkpt>
      <trkpt lat="47.77344" lon="2.21583">
        <ele>135</ele>
        <time>2016-12-04T08:27:57.264Z</time>
      </trkpt>
      <trkpt lat="47.77344" lon="2.21583">
        <ele>135</ele>
        <time>2016-12-04T08:27:58.289Z</time>
      </trkpt>
      <trkpt lat="47.77338" lon="2.21577">
        <ele>135</ele>
        <time>2016-12-04T08:27:59.287Z</time>
      </trkpt>
      <trkpt lat="47.77338" lon="2.21577">
        <ele>135</ele>
        <time>2016-12-04T08:28:00.289Z</time>
      </trkpt>
      <trkpt lat="47.77332" lon="2.21571">
        <ele>137</ele>
        <time>2016-12-04T08:28:01.287Z</time>
      </trkpt>
      <trkpt lat="47.77329" lon="2.21567">
        <ele>137</ele>
        <time>2016-12-04T08:28:02.290Z</time>
      </trkpt>
      <trkpt lat="47.77326" lon="2.21564">
        <ele>137</ele>
        <time>2016-12-04T08:28:03.264Z</time>
      </trkpt>
      <trkpt lat="47.77326" lon="2.21564">
        <ele>137</ele>
        <time>2016-12-04T08:28:04.258Z</time>
      </trkpt>
      <trkpt lat="47.77319" lon="2.21558">
        <ele>138</ele>
        <time>2016-12-04T08:28:05.259Z</time>
      </trkpt>
      <trkpt lat="47.77319" lon="2.21558">
        <ele>138</ele>
        <time>2016-12-04T08:28:06.264Z</time>
      </trkpt>
      <trkpt lat="47.77313" lon="2.21552">
        <ele>138</ele>
        <time>2016-12-04T08:28:07.265Z</time>
      </trkpt>
      <trkpt lat="47.77313" lon="2.21552">
        <ele>138</ele>
        <time>2016-12-04T08:28:08.289Z</time>
      </trkpt>
      <trkpt lat="47.77307" lon="2.21545">
        <ele>139</ele>
        <time>2016-12-04T08:28:09.289Z</time>
      </trkpt>
      <trkpt lat="47.77303" lon="2.21541">
        <ele>139</ele>
        <time>2016-12-04T08:28:10.243Z</time>
      </trkpt>
      <trkpt lat="47.77303" lon="2.21541">
        <ele>139</ele>
        <time>2016-12-04T08:28:11.248Z</time>
      </trkpt>
      <trkpt lat="47.77297" lon="2.21534">
        <ele>139</ele>
        <time>2016-12-04T08:28:12.255Z</time>
      </trkpt>
      <trkpt lat="47.77297" lon="2.21534">
        <ele>139</ele>
        <time>2016-12-04T08:28:13.264Z</time>
      </trkpt>
      <trkpt lat="47.77291" lon="2.21528">
        <ele>139</ele>
        <time>2016-12-04T08:28:14.265Z</time>
      </trkpt>
      <trkpt lat="47.77287" lon="2.21525">
        <ele>139</ele>
        <time>2016-12-04T08:28:15.292Z</time>
      </trkpt>
      <trkpt lat="47.77284" lon="2.21522">
        <ele>139</ele>
        <time>2016-12-04T08:28:16.257Z</time>
      </trkpt>
      <trkpt lat="47.77284" lon="2.21522">
        <ele>139</ele>
        <time>2016-12-04T08:28:17.247Z</time>
      </trkpt>
      <trkpt lat="47.77278" lon="2.21516">
        <ele>140</ele>
        <time>2016-12-04T08:28:18.259Z</time>
      </trkpt>
      <trkpt lat="47.77278" lon="2.21516">
        <ele>140</ele>
        <time>2016-12-04T08:28:19.265Z</time>
      </trkpt>
      <trkpt lat="47.77271" lon="2.21511">
        <ele>140</ele>
        <time>2016-12-04T08:28:20.265Z</time>
      </trkpt>
      <trkpt lat="47.77271" lon="2.21511">
        <ele>140</ele>
        <time>2016-12-04T08:28:21.289Z</time>
      </trkpt>
      <trkpt lat="47.77265" lon="2.21505">
        <ele>141</ele>
        <time>2016-12-04T08:28:22.265Z</time>
      </trkpt>
      <trkpt lat="47.77265" lon="2.21505">
        <ele>141</ele>
        <time>2016-12-04T08:28:23.283Z</time>
      </trkpt>
      <trkpt lat="47.77258" lon="2.21498">
        <ele>142</ele>
        <time>2016-12-04T08:28:24.255Z</time>
      </trkpt>
      <trkpt lat="47.77255" lon="2.21495">
        <ele>141</ele>
        <time>2016-12-04T08:28:25.258Z</time>
      </trkpt>
      <trkpt lat="47.77255" lon="2.21495">
        <ele>141</ele>
        <time>2016-12-04T08:28:26.265Z</time>
      </trkpt>
      <trkpt lat="47.77249" lon="2.21487">
        <ele>141</ele>
        <time>2016-12-04T08:28:27.261Z</time>
      </trkpt>
      <trkpt lat="47.77246" lon="2.21484">
        <ele>142</ele>
        <time>2016-12-04T08:28:28.293Z</time>
      </trkpt>
      <trkpt lat="47.77243" lon="2.21481">
        <ele>142</ele>
        <time>2016-12-04T08:28:29.245Z</time>
      </trkpt>
      <trkpt lat="47.77243" lon="2.21481">
        <ele>142</ele>
        <time>2016-12-04T08:28:30.259Z</time>
      </trkpt>
      <trkpt lat="47.77236" lon="2.21475">
        <ele>142</ele>
        <time>2016-12-04T08:28:31.259Z</time>
      </trkpt>
      <trkpt lat="47.77236" lon="2.21475">
        <ele>142</ele>
        <time>2016-12-04T08:28:32.266Z</time>
      </trkpt>
      <trkpt lat="47.77229" lon="2.21467">
        <ele>143</ele>
        <time>2016-12-04T08:28:33.263Z</time>
      </trkpt>
      <trkpt lat="47.77229" lon="2.21467">
        <ele>143</ele>
        <time>2016-12-04T08:28:34.258Z</time>
      </trkpt>
      <trkpt lat="47.77222" lon="2.2146">
        <ele>143</ele>
        <time>2016-12-04T08:28:35.304Z</time>
      </trkpt>
      <trkpt lat="47.77218" lon="2.21456">
        <ele>144</ele>
        <time>2016-12-04T08:28:36.249Z</time>
      </trkpt>
      <trkpt lat="47.77218" lon="2.21456">
        <ele>144</ele>
        <time>2016-12-04T08:28:37.253Z</time>
      </trkpt>
      <trkpt lat="47.7721" lon="2.21448">
        <ele>144</ele>
        <time>2016-12-04T08:28:38.255Z</time>
      </trkpt>
      <trkpt lat="47.7721" lon="2.21448">
        <ele>144</ele>
        <time>2016-12-04T08:28:39.252Z</time>
      </trkpt>
      <trkpt lat="47.77203" lon="2.2144">
        <ele>144</ele>
        <time>2016-12-04T08:28:40.265Z</time>
      </trkpt>
      <trkpt lat="47.77203" lon="2.2144">
        <ele>144</ele>
        <time>2016-12-04T08:28:41.290Z</time>
      </trkpt>
      <trkpt lat="47.77196" lon="2.21431">
        <ele>144</ele>
        <time>2016-12-04T08:28:42.265Z</time>
      </trkpt>
      <trkpt lat="47.77196" lon="2.21431">
        <ele>144</ele>
        <time>2016-12-04T08:28:43.282Z</time>
      </trkpt>
      <trkpt lat="47.77189" lon="2.21424">
        <ele>144</ele>
        <time>2016-12-04T08:28:44.254Z</time>
      </trkpt>
      <trkpt lat="47.77186" lon="2.21419">
        <ele>145</ele>
        <time>2016-12-04T08:28:45.259Z</time>
      </trkpt>
      <trkpt lat="47.77181" lon="2.21415">
        <ele>145</ele>
        <time>2016-12-04T08:28:46.259Z</time>
      </trkpt>
      <trkpt lat="47.77181" lon="2.21415">
        <ele>145</ele>
        <time>2016-12-04T08:28:47.291Z</time>
      </trkpt>
      <trkpt lat="47.77173" lon="2.21407">
        <ele>145</ele>
        <time>2016-12-04T08:28:48.265Z</time>
      </trkpt>
      <trkpt lat="47.77173" lon="2.21407">
        <ele>145</ele>
        <time>2016-12-04T08:28:49.272Z</time>
      </trkpt>
      <trkpt lat="47.77166" lon="2.21399">
        <ele>145</ele>
        <time>2016-12-04T08:28:50.247Z</time>
      </trkpt>
      <trkpt lat="47.77166" lon="2.21399">
        <ele>145</ele>
        <time>2016-12-04T08:28:51.250Z</time>
      </trkpt>
      <trkpt lat="47.77158" lon="2.21391">
        <ele>146</ele>
        <time>2016-12-04T08:28:52.265Z</time>
      </trkpt>
      <trkpt lat="47.77158" lon="2.21391">
        <ele>146</ele>
        <time>2016-12-04T08:28:53.283Z</time>
      </trkpt>
      <trkpt lat="47.77151" lon="2.21382">
        <ele>147</ele>
        <time>2016-12-04T08:28:54.254Z</time>
      </trkpt>
      <trkpt lat="47.77147" lon="2.21378">
        <ele>147</ele>
        <time>2016-12-04T08:28:55.287Z</time>
      </trkpt>
      <trkpt lat="47.77147" lon="2.21378">
        <ele>147</ele>
        <time>2016-12-04T08:28:56.290Z</time>
      </trkpt>
      <trkpt lat="47.77139" lon="2.2137">
        <ele>147</ele>
        <time>2016-12-04T08:28:57.265Z</time>
      </trkpt>
      <trkpt lat="47.77134" lon="2.21367">
        <ele>147</ele>
        <time>2016-12-04T08:28:58.266Z</time>
      </trkpt>
      <trkpt lat="47.77134" lon="2.21367">
        <ele>147</ele>
        <time>2016-12-04T08:28:59.291Z</time>
      </trkpt>
      <trkpt lat="47.77126" lon="2.21362">
        <ele>147</ele>
        <time>2016-12-04T08:29:00.265Z</time>
      </trkpt>
      <trkpt lat="47.77126" lon="2.21362">
        <ele>147</ele>
        <time>2016-12-04T08:29:01.290Z</time>
      </trkpt>
      <trkpt lat="47.77117" lon="2.21362">
        <ele>148</ele>
        <time>2016-12-04T08:29:02.266Z</time>
      </trkpt>
      <trkpt lat="47.77112" lon="2.21363">
        <ele>148</ele>
        <time>2016-12-04T08:29:03.283Z</time>
      </trkpt>
      <trkpt lat="47.77112" lon="2.21363">
        <ele>148</ele>
        <time>2016-12-04T08:29:04.265Z</time>
      </trkpt>
      <trkpt lat="47.77103" lon="2.21366">
        <ele>149</ele>
        <time>2016-12-04T08:29:05.254Z</time>
      </trkpt>
      <trkpt lat="47.77098" lon="2.21367">
        <ele>149</ele>
        <time>2016-12-04T08:29:06.261Z</time>
      </trkpt>
      <trkpt lat="47.77093" lon="2.21368">
        <ele>149</ele>
        <time>2016-12-04T08:29:07.285Z</time>
      </trkpt>
      <trkpt lat="47.77093" lon="2.21368">
        <ele>149</ele>
        <time>2016-12-04T08:29:08.290Z</time>
      </trkpt>
      <trkpt lat="47.77083" lon="2.21369">
        <ele>149</ele>
        <time>2016-12-04T08:29:09.265Z</time>
      </trkpt>
      <trkpt lat="47.77078" lon="2.21371">
        <ele>150</ele>
        <time>2016-12-04T08:29:10.251Z</time>
      </trkpt>
      <trkpt lat="47.77078" lon="2.21371">
        <ele>150</ele>
        <time>2016-12-04T08:29:11.258Z</time>
      </trkpt>
      <trkpt lat="47.77068" lon="2.21372">
        <ele>149</ele>
        <time>2016-12-04T08:29:12.256Z</time>
      </trkpt>
      <trkpt lat="47.77068" lon="2.21372">
        <ele>149</ele>
        <time>2016-12-04T08:29:13.261Z</time>
      </trkpt>
      <trkpt lat="47.77057" lon="2.21374">
        <ele>149</ele>
        <time>2016-12-04T08:29:14.287Z</time>
      </trkpt>
      <trkpt lat="47.77057" lon="2.21374">
        <ele>149</ele>
        <time>2016-12-04T08:29:15.273Z</time>
      </trkpt>
      <trkpt lat="47.77047" lon="2.21376">
        <ele>149</ele>
        <time>2016-12-04T08:29:16.258Z</time>
      </trkpt>
      <trkpt lat="47.77047" lon="2.21376">
        <ele>149</ele>
        <time>2016-12-04T08:29:17.266Z</time>
      </trkpt>
      <trkpt lat="47.77037" lon="2.21379">
        <ele>149</ele>
        <time>2016-12-04T08:29:18.246Z</time>
      </trkpt>
      <trkpt lat="47.77037" lon="2.21379">
        <ele>149</ele>
        <time>2016-12-04T08:29:19.252Z</time>
      </trkpt>
      <trkpt lat="47.77027" lon="2.21381">
        <ele>149</ele>
        <time>2016-12-04T08:29:20.259Z</time>
      </trkpt>
      <trkpt lat="47.77027" lon="2.21381">
        <ele>149</ele>
        <time>2016-12-04T08:29:21.265Z</time>
      </trkpt>
      <trkpt lat="47.77017" lon="2.21382">
        <ele>149</ele>
        <time>2016-12-04T08:29:22.297Z</time>
      </trkpt>
      <trkpt lat="47.77017" lon="2.21382">
        <ele>149</ele>
        <time>2016-12-04T08:29:23.243Z</time>
      </trkpt>
      <trkpt lat="47.77007" lon="2.21384">
        <ele>148</ele>
        <time>2016-12-04T08:29:24.248Z</time>
      </trkpt>
      <trkpt lat="47.77002" lon="2.21385">
        <ele>148</ele>
        <time>2016-12-04T08:29:25.259Z</time>
      </trkpt>
      <trkpt lat="47.76998" lon="2.21386">
        <ele>148</ele>
        <time>2016-12-04T08:29:26.257Z</time>
      </trkpt>
      <trkpt lat="47.76998" lon="2.21386">
        <ele>148</ele>
        <time>2016-12-04T08:29:27.265Z</time>
      </trkpt>
      <trkpt lat="47.76989" lon="2.21388">
        <ele>149</ele>
        <time>2016-12-04T08:29:28.265Z</time>
      </trkpt>
      <trkpt lat="47.76984" lon="2.21389">
        <ele>148</ele>
        <time>2016-12-04T08:29:29.286Z</time>
      </trkpt>
      <trkpt lat="47.76984" lon="2.21389">
        <ele>148</ele>
        <time>2016-12-04T08:29:30.290Z</time>
      </trkpt>
      <trkpt lat="47.76975" lon="2.21393">
        <ele>149</ele>
        <time>2016-12-04T08:29:31.265Z</time>
      </trkpt>
      <trkpt lat="47.76975" lon="2.21393">
        <ele>149</ele>
        <time>2016-12-04T08:29:32.290Z</time>
      </trkpt>
      <trkpt lat="47.76967" lon="2.21397">
        <ele>148</ele>
        <time>2016-12-04T08:29:33.265Z</time>
      </trkpt>
      <trkpt lat="47.76967" lon="2.21397">
        <ele>148</ele>
        <time>2016-12-04T08:29:34.259Z</time>
      </trkpt>
      <trkpt lat="47.76958" lon="2.21403">
        <ele>148</ele>
        <time>2016-12-04T08:29:35.255Z</time>
      </trkpt>
      <trkpt lat="47.76958" lon="2.21403">
        <ele>148</ele>
        <time>2016-12-04T08:29:36.259Z</time>
      </trkpt>
      <trkpt lat="47.7695" lon="2.21408">
        <ele>149</ele>
        <time>2016-12-04T08:29:37.255Z</time>
      </trkpt>
      <trkpt lat="47.7695" lon="2.21408">
        <ele>149</ele>
        <time>2016-12-04T08:29:38.261Z</time>
      </trkpt>
      <trkpt lat="47.76942" lon="2.21412">
        <ele>149</ele>
        <time>2016-12-04T08:29:39.266Z</time>
      </trkpt>
      <trkpt lat="47.76938" lon="2.21415">
        <ele>149</ele>
        <time>2016-12-04T08:29:40.254Z</time>
      </trkpt>
      <trkpt lat="47.76938" lon="2.21415">
        <ele>149</ele>
        <time>2016-12-04T08:29:41.265Z</time>
      </trkpt>
      <trkpt lat="47.76929" lon="2.21419">
        <ele>149</ele>
        <time>2016-12-04T08:29:42.288Z</time>
      </trkpt>
      <trkpt lat="47.76929" lon="2.21419">
        <ele>149</ele>
        <time>2016-12-04T08:29:43.284Z</time>
      </trkpt>
      <trkpt lat="47.76921" lon="2.21424">
        <ele>149</ele>
        <time>2016-12-04T08:29:44.256Z</time>
      </trkpt>
      <trkpt lat="47.76917" lon="2.21427">
        <ele>149</ele>
        <time>2016-12-04T08:29:45.269Z</time>
      </trkpt>
      <trkpt lat="47.76914" lon="2.21429">
        <ele>149</ele>
        <time>2016-12-04T08:29:46.288Z</time>
      </trkpt>
      <trkpt lat="47.76914" lon="2.21429">
        <ele>149</ele>
        <time>2016-12-04T08:29:47.291Z</time>
      </trkpt>
      <trkpt lat="47.76906" lon="2.21433">
        <ele>150</ele>
        <time>2016-12-04T08:29:48.265Z</time>
      </trkpt>
      <trkpt lat="47.76906" lon="2.21433">
        <ele>150</ele>
        <time>2016-12-04T08:29:49.289Z</time>
      </trkpt>
      <trkpt lat="47.76897" lon="2.21436">
        <ele>148</ele>
        <time>2016-12-04T08:29:50.248Z</time>
      </trkpt>
      <trkpt lat="47.76897" lon="2.21436">
        <ele>148</ele>
        <time>2016-12-04T08:29:51.250Z</time>
      </trkpt>
      <trkpt lat="47.76889" lon="2.21439">
        <ele>148</ele>
        <time>2016-12-04T08:29:52.257Z</time>
      </trkpt>
      <trkpt lat="47.76889" lon="2.21439">
        <ele>148</ele>
        <time>2016-12-04T08:29:53.265Z</time>
      </trkpt>
      <trkpt lat="47.7688" lon="2.2144">
        <ele>148</ele>
        <time>2016-12-04T08:29:54.255Z</time>
      </trkpt>
      <trkpt lat="47.76875" lon="2.21438">
        <ele>148</ele>
        <time>2016-12-04T08:29:55.285Z</time>
      </trkpt>
      <trkpt lat="47.76875" lon="2.21438">
        <ele>148</ele>
        <time>2016-12-04T08:29:56.290Z</time>
      </trkpt>
      <trkpt lat="47.76864" lon="2.21435">
        <ele>148</ele>
        <time>2016-12-04T08:29:57.292Z</time>
      </trkpt>
      <trkpt lat="47.7686" lon="2.21434">
        <ele>148</ele>
        <time>2016-12-04T08:29:58.266Z</time>
      </trkpt>
      <trkpt lat="47.7686" lon="2.21434">
        <ele>148</ele>
        <time>2016-12-04T08:29:59.291Z</time>
      </trkpt>
      <trkpt lat="47.7685" lon="2.21432">
        <ele>146</ele>
        <time>2016-12-04T08:30:00.267Z</time>
      </trkpt>
      <trkpt lat="47.7685" lon="2.21432">
        <ele>146</ele>
        <time>2016-12-04T08:30:01.290Z</time>
      </trkpt>
      <trkpt lat="47.7684" lon="2.21429">
        <ele>146</ele>
        <time>2016-12-04T08:30:02.288Z</time>
      </trkpt>
      <trkpt lat="47.7684" lon="2.21429">
        <ele>146</ele>
        <time>2016-12-04T08:30:03.295Z</time>
      </trkpt>
      <trkpt lat="47.76831" lon="2.21427">
        <ele>147</ele>
        <time>2016-12-04T08:30:04.261Z</time>
      </trkpt>
      <trkpt lat="47.76831" lon="2.21427">
        <ele>147</ele>
        <time>2016-12-04T08:30:05.267Z</time>
      </trkpt>
      <trkpt lat="47.76822" lon="2.21425">
        <ele>146</ele>
        <time>2016-12-04T08:30:06.288Z</time>
      </trkpt>
      <trkpt lat="47.76812" lon="2.21426">
        <ele>146</ele>
        <time>2016-12-04T08:30:07.290Z</time>
      </trkpt>
      <trkpt lat="47.76812" lon="2.21426">
        <ele>146</ele>
        <time>2016-12-04T08:30:08.288Z</time>
      </trkpt>
      <trkpt lat="47.76812" lon="2.21426">
        <ele>146</ele>
        <time>2016-12-04T08:30:09.273Z</time>
      </trkpt>
      <trkpt lat="47.76803" lon="2.21429">
        <ele>147</ele>
        <time>2016-12-04T08:30:10.280Z</time>
      </trkpt>
      <trkpt lat="47.76803" lon="2.21429">
        <ele>147</ele>
        <time>2016-12-04T08:30:11.292Z</time>
      </trkpt>
      <trkpt lat="47.76794" lon="2.21433">
        <ele>147</ele>
        <time>2016-12-04T08:30:12.266Z</time>
      </trkpt>
      <trkpt lat="47.76794" lon="2.21433">
        <ele>147</ele>
        <time>2016-12-04T08:30:13.283Z</time>
      </trkpt>
      <trkpt lat="47.76784" lon="2.21438">
        <ele>147</ele>
        <time>2016-12-04T08:30:14.254Z</time>
      </trkpt>
      <trkpt lat="47.76779" lon="2.2144">
        <ele>147</ele>
        <time>2016-12-04T08:30:15.261Z</time>
      </trkpt>
      <trkpt lat="47.76774" lon="2.21442">
        <ele>147</ele>
        <time>2016-12-04T08:30:16.287Z</time>
      </trkpt>
      <trkpt lat="47.76774" lon="2.21442">
        <ele>147</ele>
        <time>2016-12-04T08:30:17.259Z</time>
      </trkpt>
      <trkpt lat="47.76764" lon="2.21448">
        <ele>147</ele>
        <time>2016-12-04T08:30:18.257Z</time>
      </trkpt>
      <trkpt lat="47.76764" lon="2.21448">
        <ele>147</ele>
        <time>2016-12-04T08:30:19.265Z</time>
      </trkpt>
      <trkpt lat="47.76755" lon="2.21455">
        <ele>148</ele>
        <time>2016-12-04T08:30:20.286Z</time>
      </trkpt>
      <trkpt lat="47.76755" lon="2.21455">
        <ele>148</ele>
        <time>2016-12-04T08:30:21.290Z</time>
      </trkpt>
      <trkpt lat="47.76745" lon="2.21462">
        <ele>147</ele>
        <time>2016-12-04T08:30:22.268Z</time>
      </trkpt>
      <trkpt lat="47.76745" lon="2.21462">
        <ele>147</ele>
        <time>2016-12-04T08:30:23.283Z</time>
      </trkpt>
      <trkpt lat="47.76735" lon="2.21468">
        <ele>147</ele>
        <time>2016-12-04T08:30:24.255Z</time>
      </trkpt>
      <trkpt lat="47.76729" lon="2.21471">
        <ele>147</ele>
        <time>2016-12-04T08:30:25.258Z</time>
      </trkpt>
      <trkpt lat="47.76724" lon="2.21475">
        <ele>147</ele>
        <time>2016-12-04T08:30:26.288Z</time>
      </trkpt>
      <trkpt lat="47.76724" lon="2.21475">
        <ele>147</ele>
        <time>2016-12-04T08:30:27.293Z</time>
      </trkpt>
      <trkpt lat="47.76714" lon="2.21482">
        <ele>146</ele>
        <time>2016-12-04T08:30:28.267Z</time>
      </trkpt>
      <trkpt lat="47.76714" lon="2.21482">
        <ele>146</ele>
        <time>2016-12-04T08:30:29.291Z</time>
      </trkpt>
      <trkpt lat="47.76702" lon="2.21489">
        <ele>146</ele>
        <time>2016-12-04T08:30:30.266Z</time>
      </trkpt>
      <trkpt lat="47.76702" lon="2.21489">
        <ele>146</ele>
        <time>2016-12-04T08:30:31.251Z</time>
      </trkpt>
      <trkpt lat="47.76691" lon="2.21496">
        <ele>145</ele>
        <time>2016-12-04T08:30:32.255Z</time>
      </trkpt>
      <trkpt lat="47.76685" lon="2.215">
        <ele>145</ele>
        <time>2016-12-04T08:30:33.272Z</time>
      </trkpt>
      <trkpt lat="47.76679" lon="2.21503">
        <ele>144</ele>
        <time>2016-12-04T08:30:34.259Z</time>
      </trkpt>
      <trkpt lat="47.76679" lon="2.21503">
        <ele>144</ele>
        <time>2016-12-04T08:30:35.267Z</time>
      </trkpt>
      <trkpt lat="47.76667" lon="2.21511">
        <ele>143</ele>
        <time>2016-12-04T08:30:36.265Z</time>
      </trkpt>
      <trkpt lat="47.76667" lon="2.21511">
        <ele>143</ele>
        <time>2016-12-04T08:30:37.290Z</time>
      </trkpt>
      <trkpt lat="47.76655" lon="2.21518">
        <ele>143</ele>
        <time>2016-12-04T08:30:38.266Z</time>
      </trkpt>
      <trkpt lat="47.76655" lon="2.21518">
        <ele>143</ele>
        <time>2016-12-04T08:30:39.290Z</time>
      </trkpt>
      <trkpt lat="47.76644" lon="2.21525">
        <ele>142</ele>
        <time>2016-12-04T08:30:40.248Z</time>
      </trkpt>
      <trkpt lat="47.76644" lon="2.21525">
        <ele>142</ele>
        <time>2016-12-04T08:30:41.253Z</time>
      </trkpt>
      <trkpt lat="47.76633" lon="2.21532">
        <ele>142</ele>
        <time>2016-12-04T08:30:42.265Z</time>
      </trkpt>
      <trkpt lat="47.76633" lon="2.21532">
        <ele>142</ele>
        <time>2016-12-04T08:30:43.284Z</time>
      </trkpt>
      <trkpt lat="47.76622" lon="2.21537">
        <ele>143</ele>
        <time>2016-12-04T08:30:44.256Z</time>
      </trkpt>
      <trkpt lat="47.76617" lon="2.2154">
        <ele>143</ele>
        <time>2016-12-04T08:30:45.265Z</time>
      </trkpt>
      <trkpt lat="47.76611" lon="2.2154">
        <ele>142</ele>
        <time>2016-12-04T08:30:46.264Z</time>
      </trkpt>
      <trkpt lat="47.76611" lon="2.2154">
        <ele>142</ele>
        <time>2016-12-04T08:30:47.292Z</time>
      </trkpt>
      <trkpt lat="47.766" lon="2.21538">
        <ele>142</ele>
        <time>2016-12-04T08:30:48.265Z</time>
      </trkpt>
      <trkpt lat="47.766" lon="2.21538">
        <ele>142</ele>
        <time>2016-12-04T08:30:49.290Z</time>
      </trkpt>
      <trkpt lat="47.76589" lon="2.21533">
        <ele>142</ele>
        <time>2016-12-04T08:30:50.288Z</time>
      </trkpt>
      <trkpt lat="47.76584" lon="2.21531">
        <ele>141</ele>
        <time>2016-12-04T08:30:51.247Z</time>
      </trkpt>
      <trkpt lat="47.76584" lon="2.21531">
        <ele>141</ele>
        <time>2016-12-04T08:30:52.249Z</time>
      </trkpt>
      <trkpt lat="47.76573" lon="2.21529">
        <ele>142</ele>
        <time>2016-12-04T08:30:53.254Z</time>
      </trkpt>
      <trkpt lat="47.76573" lon="2.21529">
        <ele>142</ele>
        <time>2016-12-04T08:30:54.243Z</time>
      </trkpt>
      <trkpt lat="47.76563" lon="2.21528">
        <ele>142</ele>
        <time>2016-12-04T08:30:55.292Z</time>
      </trkpt>
      <trkpt lat="47.76558" lon="2.21529">
        <ele>143</ele>
        <time>2016-12-04T08:30:56.249Z</time>
      </trkpt>
      <trkpt lat="47.76558" lon="2.21529">
        <ele>143</ele>
        <time>2016-12-04T08:30:57.252Z</time>
      </trkpt>
      <trkpt lat="47.76549" lon="2.21534">
        <ele>142</ele>
        <time>2016-12-04T08:30:58.287Z</time>
      </trkpt>
      <trkpt lat="47.76549" lon="2.21534">
        <ele>142</ele>
        <time>2016-12-04T08:30:59.273Z</time>
      </trkpt>
      <trkpt lat="47.76541" lon="2.21539">
        <ele>144</ele>
        <time>2016-12-04T08:31:00.286Z</time>
      </trkpt>
      <trkpt lat="47.76541" lon="2.21539">
        <ele>144</ele>
        <time>2016-12-04T08:31:01.292Z</time>
      </trkpt>
      <trkpt lat="47.76532" lon="2.21544">
        <ele>145</ele>
        <time>2016-12-04T08:31:02.266Z</time>
      </trkpt>
      <trkpt lat="47.76532" lon="2.21544">
        <ele>145</ele>
        <time>2016-12-04T08:31:03.285Z</time>
      </trkpt>
      <trkpt lat="47.76523" lon="2.21549">
        <ele>144</ele>
        <time>2016-12-04T08:31:04.256Z</time>
      </trkpt>
      <trkpt lat="47.76519" lon="2.21551">
        <ele>144</ele>
        <time>2016-12-04T08:31:05.261Z</time>
      </trkpt>
      <trkpt lat="47.76515" lon="2.21552">
        <ele>144</ele>
        <time>2016-12-04T08:31:06.272Z</time>
      </trkpt>
      <trkpt lat="47.7651" lon="2.21554">
        <ele>145</ele>
        <time>2016-12-04T08:31:07.243Z</time>
      </trkpt>
      <trkpt lat="47.7651" lon="2.21554">
        <ele>145</ele>
        <time>2016-12-04T08:31:08.305Z</time>
      </trkpt>
      <trkpt lat="47.76501" lon="2.21558">
        <ele>145</ele>
        <time>2016-12-04T08:31:09.293Z</time>
      </trkpt>
      <trkpt lat="47.76497" lon="2.2156">
        <ele>145</ele>
        <time>2016-12-04T08:31:10.267Z</time>
      </trkpt>
      <trkpt lat="47.76497" lon="2.2156">
        <ele>145</ele>
        <time>2016-12-04T08:31:11.292Z</time>
      </trkpt>
      <trkpt lat="47.76487" lon="2.21565">
        <ele>146</ele>
        <time>2016-12-04T08:31:12.266Z</time>
      </trkpt>
      <trkpt lat="47.76487" lon="2.21565">
        <ele>146</ele>
        <time>2016-12-04T08:31:13.284Z</time>
      </trkpt>
      <trkpt lat="47.76476" lon="2.21569">
        <ele>145</ele>
        <time>2016-12-04T08:31:14.257Z</time>
      </trkpt>
      <trkpt lat="47.76471" lon="2.21571">
        <ele>145</ele>
        <time>2016-12-04T08:31:15.265Z</time>
      </trkpt>
      <trkpt lat="47.76471" lon="2.21571">
        <ele>145</ele>
        <time>2016-12-04T08:31:16.250Z</time>
      </trkpt>
      <trkpt lat="47.76461" lon="2.21575">
        <ele>145</ele>
        <time>2016-12-04T08:31:17.258Z</time>
      </trkpt>
      <trkpt lat="47.76456" lon="2.21577">
        <ele>146</ele>
        <time>2016-12-04T08:31:18.265Z</time>
      </trkpt>
      <trkpt lat="47.76456" lon="2.21577">
        <ele>146</ele>
        <time>2016-12-04T08:31:19.291Z</time>
      </trkpt>
      <trkpt lat="47.76444" lon="2.2158">
        <ele>145</ele>
        <time>2016-12-04T08:31:20.287Z</time>
      </trkpt>
      <trkpt lat="47.76444" lon="2.2158">
        <ele>145</ele>
        <time>2016-12-04T08:31:21.293Z</time>
      </trkpt>
      <trkpt lat="47.76434" lon="2.21582">
        <ele>146</ele>
        <time>2016-12-04T08:31:22.266Z</time>
      </trkpt>
      <trkpt lat="47.76434" lon="2.21582">
        <ele>146</ele>
        <time>2016-12-04T08:31:23.285Z</time>
      </trkpt>
      <trkpt lat="47.76424" lon="2.21583">
        <ele>145</ele>
        <time>2016-12-04T08:31:24.271Z</time>
      </trkpt>
      <trkpt lat="47.76419" lon="2.21584">
        <ele>145</ele>
        <time>2016-12-04T08:31:25.287Z</time>
      </trkpt>
      <trkpt lat="47.76419" lon="2.21584">
        <ele>145</ele>
        <time>2016-12-04T08:31:26.290Z</time>
      </trkpt>
      <trkpt lat="47.76408" lon="2.21585">
        <ele>145</ele>
        <time>2016-12-04T08:31:27.265Z</time>
      </trkpt>
      <trkpt lat="47.76403" lon="2.21585">
        <ele>145</ele>
        <time>2016-12-04T08:31:28.265Z</time>
      </trkpt>
      <trkpt lat="47.76403" lon="2.21585">
        <ele>145</ele>
        <time>2016-12-04T08:31:29.251Z</time>
      </trkpt>
      <trkpt lat="47.76392" lon="2.21587">
        <ele>145</ele>
        <time>2016-12-04T08:31:30.257Z</time>
      </trkpt>
      <trkpt lat="47.76392" lon="2.21587">
        <ele>145</ele>
        <time>2016-12-04T08:31:31.265Z</time>
      </trkpt>
      <trkpt lat="47.76382" lon="2.21589">
        <ele>146</ele>
        <time>2016-12-04T08:31:32.267Z</time>
      </trkpt>
      <trkpt lat="47.76382" lon="2.21589">
        <ele>146</ele>
        <time>2016-12-04T08:31:33.243Z</time>
      </trkpt>
      <trkpt lat="47.76372" lon="2.21591">
        <ele>147</ele>
        <time>2016-12-04T08:31:34.272Z</time>
      </trkpt>
      <trkpt lat="47.76368" lon="2.21592">
        <ele>147</ele>
        <time>2016-12-04T08:31:35.266Z</time>
      </trkpt>
      <trkpt lat="47.76368" lon="2.21592">
        <ele>147</ele>
        <time>2016-12-04T08:31:36.271Z</time>
      </trkpt>
      <trkpt lat="47.76358" lon="2.21593">
        <ele>147</ele>
        <time>2016-12-04T08:31:37.288Z</time>
      </trkpt>
      <trkpt lat="47.76358" lon="2.21593">
        <ele>147</ele>
        <time>2016-12-04T08:31:38.289Z</time>
      </trkpt>
      <trkpt lat="47.76348" lon="2.21594">
        <ele>146</ele>
        <time>2016-12-04T08:31:39.293Z</time>
      </trkpt>
      <trkpt lat="47.76343" lon="2.21594">
        <ele>146</ele>
        <time>2016-12-04T08:31:40.269Z</time>
      </trkpt>
      <trkpt lat="47.76343" lon="2.21594">
        <ele>146</ele>
        <time>2016-12-04T08:31:41.300Z</time>
      </trkpt>
      <trkpt lat="47.76334" lon="2.21595">
        <ele>145</ele>
        <time>2016-12-04T08:31:42.266Z</time>
      </trkpt>
      <trkpt lat="47.76334" lon="2.21595">
        <ele>145</ele>
        <time>2016-12-04T08:31:43.284Z</time>
      </trkpt>
      <trkpt lat="47.76325" lon="2.21596">
        <ele>146</ele>
        <time>2016-12-04T08:31:44.255Z</time>
      </trkpt>
      <trkpt lat="47.7632" lon="2.21597">
        <ele>146</ele>
        <time>2016-12-04T08:31:45.259Z</time>
      </trkpt>
      <trkpt lat="47.7632" lon="2.21597">
        <ele>146</ele>
        <time>2016-12-04T08:31:46.266Z</time>
      </trkpt>
      <trkpt lat="47.76309" lon="2.21596">
        <ele>146</ele>
        <time>2016-12-04T08:31:47.248Z</time>
      </trkpt>
      <trkpt lat="47.76304" lon="2.21596">
        <ele>146</ele>
        <time>2016-12-04T08:31:48.287Z</time>
      </trkpt>
      <trkpt lat="47.76304" lon="2.21596">
        <ele>146</ele>
        <time>2016-12-04T08:31:49.292Z</time>
      </trkpt>
      <trkpt lat="47.76293" lon="2.21597">
        <ele>146</ele>
        <time>2016-12-04T08:31:50.291Z</time>
      </trkpt>
      <trkpt lat="47.76288" lon="2.21597">
        <ele>146</ele>
        <time>2016-12-04T08:31:51.266Z</time>
      </trkpt>
      <trkpt lat="47.76288" lon="2.21597">
        <ele>146</ele>
        <time>2016-12-04T08:31:52.288Z</time>
      </trkpt>
      <trkpt lat="47.76279" lon="2.21598">
        <ele>146</ele>
        <time>2016-12-04T08:31:53.266Z</time>
      </trkpt>
      <trkpt lat="47.76279" lon="2.21598">
        <ele>146</ele>
        <time>2016-12-04T08:31:54.257Z</time>
      </trkpt>
      <trkpt lat="47.76268" lon="2.21598">
        <ele>145</ele>
        <time>2016-12-04T08:31:55.266Z</time>
      </trkpt>
      <trkpt lat="47.76264" lon="2.21598">
        <ele>145</ele>
        <time>2016-12-04T08:31:56.267Z</time>
      </trkpt>
      <trkpt lat="47.76259" lon="2.21599">
        <ele>146</ele>
        <time>2016-12-04T08:31:57.268Z</time>
      </trkpt>
      <trkpt lat="47.76259" lon="2.21599">
        <ele>146</ele>
        <time>2016-12-04T08:31:58.288Z</time>
      </trkpt>
      <trkpt lat="47.76249" lon="2.216">
        <ele>146</ele>
        <time>2016-12-04T08:31:59.266Z</time>
      </trkpt>
      <trkpt lat="47.76245" lon="2.216">
        <ele>147</ele>
        <time>2016-12-04T08:32:00.245Z</time>
      </trkpt>
      <trkpt lat="47.76245" lon="2.216">
        <ele>147</ele>
        <time>2016-12-04T08:32:01.247Z</time>
      </trkpt>
      <trkpt lat="47.76236" lon="2.21602">
        <ele>148</ele>
        <time>2016-12-04T08:32:02.251Z</time>
      </trkpt>
      <trkpt lat="47.76231" lon="2.21603">
        <ele>148</ele>
        <time>2016-12-04T08:32:03.268Z</time>
      </trkpt>
      <trkpt lat="47.76231" lon="2.21603">
        <ele>148</ele>
        <time>2016-12-04T08:32:04.266Z</time>
      </trkpt>
      <trkpt lat="47.76223" lon="2.21603">
        <ele>148</ele>
        <time>2016-12-04T08:32:05.293Z</time>
      </trkpt>
      <trkpt lat="47.76218" lon="2.21604">
        <ele>148</ele>
        <time>2016-12-04T08:32:06.292Z</time>
      </trkpt>
      <trkpt lat="47.76213" lon="2.21604">
        <ele>148</ele>
        <time>2016-12-04T08:32:07.249Z</time>
      </trkpt>
      <trkpt lat="47.76209" lon="2.21605">
        <ele>148</ele>
        <time>2016-12-04T08:32:08.253Z</time>
      </trkpt>
      <trkpt lat="47.76209" lon="2.21605">
        <ele>148</ele>
        <time>2016-12-04T08:32:09.261Z</time>
      </trkpt>
      <trkpt lat="47.762" lon="2.21604">
        <ele>149</ele>
        <time>2016-12-04T08:32:10.266Z</time>
      </trkpt>
      <trkpt lat="47.762" lon="2.21604">
        <ele>149</ele>
        <time>2016-12-04T08:32:11.293Z</time>
      </trkpt>
      <trkpt lat="47.76191" lon="2.21605">
        <ele>150</ele>
        <time>2016-12-04T08:32:12.266Z</time>
      </trkpt>
      <trkpt lat="47.76191" lon="2.21605">
        <ele>150</ele>
        <time>2016-12-04T08:32:13.243Z</time>
      </trkpt>
      <trkpt lat="47.76183" lon="2.21607">
        <ele>151</ele>
        <time>2016-12-04T08:32:14.244Z</time>
      </trkpt>
      <trkpt lat="47.76178" lon="2.21608">
        <ele>151</ele>
        <time>2016-12-04T08:32:15.250Z</time>
      </trkpt>
      <trkpt lat="47.76174" lon="2.21608">
        <ele>150</ele>
        <time>2016-12-04T08:32:16.250Z</time>
      </trkpt>
      <trkpt lat="47.76174" lon="2.21608">
        <ele>150</ele>
        <time>2016-12-04T08:32:17.269Z</time>
      </trkpt>
      <trkpt lat="47.76165" lon="2.21609">
        <ele>151</ele>
        <time>2016-12-04T08:32:18.266Z</time>
      </trkpt>
      <trkpt lat="47.76165" lon="2.21609">
        <ele>151</ele>
        <time>2016-12-04T08:32:19.243Z</time>
      </trkpt>
      <trkpt lat="47.76156" lon="2.21611">
        <ele>150</ele>
        <time>2016-12-04T08:32:20.291Z</time>
      </trkpt>
      <trkpt lat="47.76151" lon="2.21612">
        <ele>151</ele>
        <time>2016-12-04T08:32:21.294Z</time>
      </trkpt>
      <trkpt lat="47.76147" lon="2.21613">
        <ele>151</ele>
        <time>2016-12-04T08:32:22.288Z</time>
      </trkpt>
      <trkpt lat="47.76147" lon="2.21613">
        <ele>151</ele>
        <time>2016-12-04T08:32:23.284Z</time>
      </trkpt>
      <trkpt lat="47.76139" lon="2.21615">
        <ele>151</ele>
        <time>2016-12-04T08:32:24.267Z</time>
      </trkpt>
      <trkpt lat="47.76135" lon="2.21615">
        <ele>150</ele>
        <time>2016-12-04T08:32:25.286Z</time>
      </trkpt>
      <trkpt lat="47.76135" lon="2.21615">
        <ele>150</ele>
        <time>2016-12-04T08:32:26.292Z</time>
      </trkpt>
      <trkpt lat="47.76126" lon="2.21616">
        <ele>150</ele>
        <time>2016-12-04T08:32:27.266Z</time>
      </trkpt>
      <trkpt lat="47.76126" lon="2.21616">
        <ele>150</ele>
        <time>2016-12-04T08:32:28.292Z</time>
      </trkpt>
      <trkpt lat="47.76117" lon="2.21618">
        <ele>148</ele>
        <time>2016-12-04T08:32:29.266Z</time>
      </trkpt>
      <trkpt lat="47.76117" lon="2.21618">
        <ele>148</ele>
        <time>2016-12-04T08:32:30.289Z</time>
      </trkpt>
      <trkpt lat="47.76108" lon="2.21619">
        <ele>147</ele>
        <time>2016-12-04T08:32:31.266Z</time>
      </trkpt>
      <trkpt lat="47.76108" lon="2.21619">
        <ele>147</ele>
        <time>2016-12-04T08:32:32.293Z</time>
      </trkpt>
      <trkpt lat="47.761" lon="2.2162">
        <ele>146</ele>
        <time>2016-12-04T08:32:33.267Z</time>
      </trkpt>
      <trkpt lat="47.761" lon="2.2162">
        <ele>146</ele>
        <time>2016-12-04T08:32:34.261Z</time>
      </trkpt>
      <trkpt lat="47.76093" lon="2.21622">
        <ele>146</ele>
        <time>2016-12-04T08:32:35.257Z</time>
      </trkpt>
      <trkpt lat="47.76089" lon="2.21623">
        <ele>146</ele>
        <time>2016-12-04T08:32:36.287Z</time>
      </trkpt>
      <trkpt lat="47.76089" lon="2.21623">
        <ele>146</ele>
        <time>2016-12-04T08:32:37.274Z</time>
      </trkpt>
      <trkpt lat="47.76082" lon="2.21625">
        <ele>146</ele>
        <time>2016-12-04T08:32:38.268Z</time>
      </trkpt>
      <trkpt lat="47.76082" lon="2.21625">
        <ele>146</ele>
        <time>2016-12-04T08:32:39.288Z</time>
      </trkpt>
      <trkpt lat="47.76074" lon="2.21626">
        <ele>146</ele>
        <time>2016-12-04T08:32:40.287Z</time>
      </trkpt>
      <trkpt lat="47.76074" lon="2.21626">
        <ele>146</ele>
        <time>2016-12-04T08:32:41.243Z</time>
      </trkpt>
      <trkpt lat="47.76067" lon="2.21627">
        <ele>146</ele>
        <time>2016-12-04T08:32:42.247Z</time>
      </trkpt>
      <trkpt lat="47.76064" lon="2.21628">
        <ele>146</ele>
        <time>2016-12-04T08:32:43.251Z</time>
      </trkpt>
      <trkpt lat="47.76064" lon="2.21628">
        <ele>146</ele>
        <time>2016-12-04T08:32:44.246Z</time>
      </trkpt>
      <trkpt lat="47.76059" lon="2.21632">
        <ele>147</ele>
        <time>2016-12-04T08:32:45.251Z</time>
      </trkpt>
      <trkpt lat="47.76058" lon="2.21635">
        <ele>147</ele>
        <time>2016-12-04T08:32:46.261Z</time>
      </trkpt>
      <trkpt lat="47.76058" lon="2.21635">
        <ele>147</ele>
        <time>2016-12-04T08:32:47.273Z</time>
      </trkpt>
      <trkpt lat="47.7606" lon="2.21643">
        <ele>146</ele>
        <time>2016-12-04T08:32:48.244Z</time>
      </trkpt>
      <trkpt lat="47.7606" lon="2.21643">
        <ele>146</ele>
        <time>2016-12-04T08:32:49.245Z</time>
      </trkpt>
      <trkpt lat="47.76062" lon="2.2165">
        <ele>145</ele>
        <time>2016-12-04T08:32:50.251Z</time>
      </trkpt>
      <trkpt lat="47.76062" lon="2.2165">
        <ele>145</ele>
        <time>2016-12-04T08:32:51.258Z</time>
      </trkpt>
      <trkpt lat="47.76066" lon="2.21658">
        <ele>147</ele>
        <time>2016-12-04T08:32:52.266Z</time>
      </trkpt>
      <trkpt lat="47.76066" lon="2.21658">
        <ele>147</ele>
        <time>2016-12-04T08:32:53.285Z</time>
      </trkpt>
      <trkpt lat="47.76072" lon="2.21665">
        <ele>146</ele>
        <time>2016-12-04T08:32:54.257Z</time>
      </trkpt>
      <trkpt lat="47.76075" lon="2.2167">
        <ele>146</ele>
        <time>2016-12-04T08:32:55.266Z</time>
      </trkpt>
      <trkpt lat="47.76075" lon="2.2167">
        <ele>146</ele>
        <time>2016-12-04T08:32:56.293Z</time>
      </trkpt>
      <trkpt lat="47.76081" lon="2.21678">
        <ele>145</ele>
        <time>2016-12-04T08:32:57.266Z</time>
      </trkpt>
      <trkpt lat="47.76085" lon="2.21682">
        <ele>145</ele>
        <time>2016-12-04T08:32:58.262Z</time>
      </trkpt>
      <trkpt lat="47.76085" lon="2.21682">
        <ele>145</ele>
        <time>2016-12-04T08:32:59.292Z</time>
      </trkpt>
      <trkpt lat="47.76092" lon="2.2169">
        <ele>144</ele>
        <time>2016-12-04T08:33:00.266Z</time>
      </trkpt>
      <trkpt lat="47.76092" lon="2.2169">
        <ele>144</ele>
        <time>2016-12-04T08:33:01.289Z</time>
      </trkpt>
      <trkpt lat="47.76099" lon="2.21699">
        <ele>144</ele>
        <time>2016-12-04T08:33:02.267Z</time>
      </trkpt>
      <trkpt lat="47.76102" lon="2.21703">
        <ele>143</ele>
        <time>2016-12-04T08:33:03.268Z</time>
      </trkpt>
      <trkpt lat="47.76102" lon="2.21703">
        <ele>143</ele>
        <time>2016-12-04T08:33:04.266Z</time>
      </trkpt>
      <trkpt lat="47.76108" lon="2.21713">
        <ele>144</ele>
        <time>2016-12-04T08:33:05.266Z</time>
      </trkpt>
      <trkpt lat="47.76111" lon="2.21717">
        <ele>143</ele>
        <time>2016-12-04T08:33:06.262Z</time>
      </trkpt>
      <trkpt lat="47.76111" lon="2.21717">
        <ele>143</ele>
        <time>2016-12-04T08:33:07.269Z</time>
      </trkpt>
      <trkpt lat="47.76117" lon="2.21727">
        <ele>143</ele>
        <time>2016-12-04T08:33:08.267Z</time>
      </trkpt>
      <trkpt lat="47.76121" lon="2.21731">
        <ele>144</ele>
        <time>2016-12-04T08:33:09.243Z</time>
      </trkpt>
      <trkpt lat="47.76121" lon="2.21731">
        <ele>144</ele>
        <time>2016-12-04T08:33:10.292Z</time>
      </trkpt>
      <trkpt lat="47.76127" lon="2.2174">
        <ele>144</ele>
        <time>2016-12-04T08:33:11.267Z</time>
      </trkpt>
      <trkpt lat="47.7613" lon="2.21744">
        <ele>145</ele>
        <time>2016-12-04T08:33:12.243Z</time>
      </trkpt>
      <trkpt lat="47.7613" lon="2.21744">
        <ele>145</ele>
        <time>2016-12-04T08:33:13.299Z</time>
      </trkpt>
      <trkpt lat="47.76137" lon="2.21753">
        <ele>145</ele>
        <time>2016-12-04T08:33:14.267Z</time>
      </trkpt>
      <trkpt lat="47.7614" lon="2.21757">
        <ele>146</ele>
        <time>2016-12-04T08:33:15.244Z</time>
      </trkpt>
      <trkpt lat="47.76143" lon="2.21762">
        <ele>146</ele>
        <time>2016-12-04T08:33:16.269Z</time>
      </trkpt>
      <trkpt lat="47.76143" lon="2.21762">
        <ele>146</ele>
        <time>2016-12-04T08:33:17.261Z</time>
      </trkpt>
      <trkpt lat="47.76149" lon="2.21771">
        <ele>146</ele>
        <time>2016-12-04T08:33:18.266Z</time>
      </trkpt>
      <trkpt lat="47.76149" lon="2.21771">
        <ele>146</ele>
        <time>2016-12-04T08:33:19.274Z</time>
      </trkpt>
      <trkpt lat="47.76156" lon="2.2178">
        <ele>144</ele>
        <time>2016-12-04T08:33:20.244Z</time>
      </trkpt>
      <trkpt lat="47.76156" lon="2.2178">
        <ele>144</ele>
        <time>2016-12-04T08:33:21.248Z</time>
      </trkpt>
      <trkpt lat="47.76163" lon="2.21791">
        <ele>144</ele>
        <time>2016-12-04T08:33:22.251Z</time>
      </trkpt>
      <trkpt lat="47.76163" lon="2.21791">
        <ele>144</ele>
        <time>2016-12-04T08:33:23.272Z</time>
      </trkpt>
      <trkpt lat="47.76171" lon="2.218">
        <ele>144</ele>
        <time>2016-12-04T08:33:24.259Z</time>
      </trkpt>
      <trkpt lat="47.76174" lon="2.21805">
        <ele>144</ele>
        <time>2016-12-04T08:33:25.266Z</time>
      </trkpt>
      <trkpt lat="47.76174" lon="2.21805">
        <ele>144</ele>
        <time>2016-12-04T08:33:26.292Z</time>
      </trkpt>
      <trkpt lat="47.76181" lon="2.21815">
        <ele>145</ele>
        <time>2016-12-04T08:33:27.267Z</time>
      </trkpt>
      <trkpt lat="47.76185" lon="2.2182">
        <ele>145</ele>
        <time>2016-12-04T08:33:28.245Z</time>
      </trkpt>
      <trkpt lat="47.76185" lon="2.2182">
        <ele>145</ele>
        <time>2016-12-04T08:33:29.249Z</time>
      </trkpt>
      <trkpt lat="47.76193" lon="2.2183">
        <ele>145</ele>
        <time>2016-12-04T08:33:30.251Z</time>
      </trkpt>
      <trkpt lat="47.76193" lon="2.2183">
        <ele>145</ele>
        <time>2016-12-04T08:33:31.258Z</time>
      </trkpt>
      <trkpt lat="47.76201" lon="2.2184">
        <ele>145</ele>
        <time>2016-12-04T08:33:32.267Z</time>
      </trkpt>
      <trkpt lat="47.76201" lon="2.2184">
        <ele>145</ele>
        <time>2016-12-04T08:33:33.243Z</time>
      </trkpt>
      <trkpt lat="47.76208" lon="2.21851">
        <ele>146</ele>
        <time>2016-12-04T08:33:34.293Z</time>
      </trkpt>
      <trkpt lat="47.76212" lon="2.21856">
        <ele>146</ele>
        <time>2016-12-04T08:33:35.293Z</time>
      </trkpt>
      <trkpt lat="47.76215" lon="2.21861">
        <ele>146</ele>
        <time>2016-12-04T08:33:36.268Z</time>
      </trkpt>
      <trkpt lat="47.76215" lon="2.21861">
        <ele>146</ele>
        <time>2016-12-04T08:33:37.291Z</time>
      </trkpt>
      <trkpt lat="47.76222" lon="2.2187">
        <ele>146</ele>
        <time>2016-12-04T08:33:38.287Z</time>
      </trkpt>
      <trkpt lat="47.76222" lon="2.2187">
        <ele>146</ele>
        <time>2016-12-04T08:33:39.246Z</time>
      </trkpt>
      <trkpt lat="47.76229" lon="2.21879">
        <ele>146</ele>
        <time>2016-12-04T08:33:40.288Z</time>
      </trkpt>
      <trkpt lat="47.76229" lon="2.21879">
        <ele>146</ele>
        <time>2016-12-04T08:33:41.293Z</time>
      </trkpt>
      <trkpt lat="47.76236" lon="2.2189">
        <ele>146</ele>
        <time>2016-12-04T08:33:42.268Z</time>
      </trkpt>
      <trkpt lat="47.76236" lon="2.2189">
        <ele>146</ele>
        <time>2016-12-04T08:33:43.285Z</time>
      </trkpt>
      <trkpt lat="47.76244" lon="2.21901">
        <ele>146</ele>
        <time>2016-12-04T08:33:44.274Z</time>
      </trkpt>
      <trkpt lat="47.76247" lon="2.21905">
        <ele>146</ele>
        <time>2016-12-04T08:33:45.268Z</time>
      </trkpt>
      <trkpt lat="47.76247" lon="2.21905">
        <ele>146</ele>
        <time>2016-12-04T08:33:46.292Z</time>
      </trkpt>
      <trkpt lat="47.76254" lon="2.21914">
        <ele>145</ele>
        <time>2016-12-04T08:33:47.267Z</time>
      </trkpt>
      <trkpt lat="47.76257" lon="2.21919">
        <ele>145</ele>
        <time>2016-12-04T08:33:48.287Z</time>
      </trkpt>
      <trkpt lat="47.76257" lon="2.21919">
        <ele>145</ele>
        <time>2016-12-04T08:33:49.244Z</time>
      </trkpt>
      <trkpt lat="47.76265" lon="2.21928">
        <ele>145</ele>
        <time>2016-12-04T08:33:50.251Z</time>
      </trkpt>
      <trkpt lat="47.76265" lon="2.21928">
        <ele>145</ele>
        <time>2016-12-04T08:33:51.258Z</time>
      </trkpt>
      <trkpt lat="47.76273" lon="2.21939">
        <ele>145</ele>
        <time>2016-12-04T08:33:52.250Z</time>
      </trkpt>
      <trkpt lat="47.76273" lon="2.21939">
        <ele>145</ele>
        <time>2016-12-04T08:33:53.254Z</time>
      </trkpt>
      <trkpt lat="47.76279" lon="2.21948">
        <ele>144</ele>
        <time>2016-12-04T08:33:54.249Z</time>
      </trkpt>
      <trkpt lat="47.76282" lon="2.21953">
        <ele>144</ele>
        <time>2016-12-04T08:33:55.266Z</time>
      </trkpt>
      <trkpt lat="47.76282" lon="2.21953">
        <ele>144</ele>
        <time>2016-12-04T08:33:56.292Z</time>
      </trkpt>
      <trkpt lat="47.76288" lon="2.21962">
        <ele>144</ele>
        <time>2016-12-04T08:33:57.268Z</time>
      </trkpt>
      <trkpt lat="47.76292" lon="2.21967">
        <ele>144</ele>
        <time>2016-12-04T08:33:58.244Z</time>
      </trkpt>
      <trkpt lat="47.76292" lon="2.21967">
        <ele>144</ele>
        <time>2016-12-04T08:33:59.294Z</time>
      </trkpt>
      <trkpt lat="47.76299" lon="2.21977">
        <ele>143</ele>
        <time>2016-12-04T08:34:00.269Z</time>
      </trkpt>
      <trkpt lat="47.76299" lon="2.21977">
        <ele>143</ele>
        <time>2016-12-04T08:34:01.292Z</time>
      </trkpt>
      <trkpt lat="47.76306" lon="2.21986">
        <ele>143</ele>
        <time>2016-12-04T08:34:02.268Z</time>
      </trkpt>
      <trkpt lat="47.76306" lon="2.21986">
        <ele>143</ele>
        <time>2016-12-04T08:34:03.243Z</time>
      </trkpt>
      <trkpt lat="47.76313" lon="2.21996">
        <ele>144</ele>
        <time>2016-12-04T08:34:04.273Z</time>
      </trkpt>
      <trkpt lat="47.76317" lon="2.22001">
        <ele>144</ele>
        <time>2016-12-04T08:34:05.246Z</time>
      </trkpt>
      <trkpt lat="47.76317" lon="2.22001">
        <ele>144</ele>
        <time>2016-12-04T08:34:06.290Z</time>
      </trkpt>
      <trkpt lat="47.76324" lon="2.2201">
        <ele>144</ele>
        <time>2016-12-04T08:34:07.267Z</time>
      </trkpt>
      <trkpt lat="47.76328" lon="2.22015">
        <ele>143</ele>
        <time>2016-12-04T08:34:08.243Z</time>
      </trkpt>
      <trkpt lat="47.76328" lon="2.22015">
        <ele>143</ele>
        <time>2016-12-04T08:34:09.275Z</time>
      </trkpt>
      <trkpt lat="47.76336" lon="2.22026">
        <ele>143</ele>
        <time>2016-12-04T08:34:10.251Z</time>
      </trkpt>
      <trkpt lat="47.76336" lon="2.22026">
        <ele>143</ele>
        <time>2016-12-04T08:34:11.259Z</time>
      </trkpt>
      <trkpt lat="47.76345" lon="2.22035">
        <ele>143</ele>
        <time>2016-12-04T08:34:12.266Z</time>
      </trkpt>
      <trkpt lat="47.76345" lon="2.22035">
        <ele>143</ele>
        <time>2016-12-04T08:34:13.285Z</time>
      </trkpt>
      <trkpt lat="47.76352" lon="2.22045">
        <ele>143</ele>
        <time>2016-12-04T08:34:14.273Z</time>
      </trkpt>
      <trkpt lat="47.76357" lon="2.2205">
        <ele>143</ele>
        <time>2016-12-04T08:34:15.266Z</time>
      </trkpt>
      <trkpt lat="47.76357" lon="2.2205">
        <ele>143</ele>
        <time>2016-12-04T08:34:16.251Z</time>
      </trkpt>
      <trkpt lat="47.76363" lon="2.22059">
        <ele>143</ele>
        <time>2016-12-04T08:34:17.293Z</time>
      </trkpt>
      <trkpt lat="47.76367" lon="2.22064">
        <ele>142</ele>
        <time>2016-12-04T08:34:18.270Z</time>
      </trkpt>
      <trkpt lat="47.76367" lon="2.22064">
        <ele>142</ele>
        <time>2016-12-04T08:34:19.293Z</time>
      </trkpt>
      <trkpt lat="47.76373" lon="2.22074">
        <ele>142</ele>
        <time>2016-12-04T08:34:20.244Z</time>
      </trkpt>
      <trkpt lat="47.76376" lon="2.22078">
        <ele>142</ele>
        <time>2016-12-04T08:34:21.250Z</time>
      </trkpt>
      <trkpt lat="47.76378" lon="2.22083">
        <ele>142</ele>
        <time>2016-12-04T08:34:22.255Z</time>
      </trkpt>
      <trkpt lat="47.76378" lon="2.22083">
        <ele>142</ele>
        <time>2016-12-04T08:34:23.269Z</time>
      </trkpt>
      <trkpt lat="47.76386" lon="2.22092">
        <ele>143</ele>
        <time>2016-12-04T08:34:24.288Z</time>
      </trkpt>
      <trkpt lat="47.76386" lon="2.22092">
        <ele>143</ele>
        <time>2016-12-04T08:34:25.293Z</time>
      </trkpt>
      <trkpt lat="47.76393" lon="2.22102">
        <ele>142</ele>
        <time>2016-12-04T08:34:26.268Z</time>
      </trkpt>
      <trkpt lat="47.76397" lon="2.22107">
        <ele>142</ele>
        <time>2016-12-04T08:34:27.247Z</time>
      </trkpt>
      <trkpt lat="47.76397" lon="2.22107">
        <ele>142</ele>
        <time>2016-12-04T08:34:28.250Z</time>
      </trkpt>
      <trkpt lat="47.76404" lon="2.22115">
        <ele>143</ele>
        <time>2016-12-04T08:34:29.258Z</time>
      </trkpt>
      <trkpt lat="47.76408" lon="2.22118">
        <ele>143</ele>
        <time>2016-12-04T08:34:30.262Z</time>
      </trkpt>
      <trkpt lat="47.76408" lon="2.22118">
        <ele>143</ele>
        <time>2016-12-04T08:34:31.292Z</time>
      </trkpt>
      <trkpt lat="47.76417" lon="2.22122">
        <ele>143</ele>
        <time>2016-12-04T08:34:32.268Z</time>
      </trkpt>
      <trkpt lat="47.76423" lon="2.22123">
        <ele>143</ele>
        <time>2016-12-04T08:34:33.243Z</time>
      </trkpt>
      <trkpt lat="47.76423" lon="2.22123">
        <ele>143</ele>
        <time>2016-12-04T08:34:34.273Z</time>
      </trkpt>
      <trkpt lat="47.76433" lon="2.22125">
        <ele>142</ele>
        <time>2016-12-04T08:34:35.268Z</time>
      </trkpt>
      <trkpt lat="47.76433" lon="2.22125">
        <ele>142</ele>
        <time>2016-12-04T08:34:36.292Z</time>
      </trkpt>
      <trkpt lat="47.76443" lon="2.22127">
        <ele>143</ele>
        <time>2016-12-04T08:34:37.267Z</time>
      </trkpt>
      <trkpt lat="47.76443" lon="2.22127">
        <ele>143</ele>
        <time>2016-12-04T08:34:38.273Z</time>
      </trkpt>
      <trkpt lat="47.76453" lon="2.22128">
        <ele>143</ele>
        <time>2016-12-04T08:34:39.244Z</time>
      </trkpt>
      <trkpt lat="47.76453" lon="2.22128">
        <ele>143</ele>
        <time>2016-12-04T08:34:40.293Z</time>
      </trkpt>
      <trkpt lat="47.76463" lon="2.2213">
        <ele>143</ele>
        <time>2016-12-04T08:34:41.294Z</time>
      </trkpt>
      <trkpt lat="47.76469" lon="2.2213">
        <ele>143</ele>
        <time>2016-12-04T08:34:42.267Z</time>
      </trkpt>
      <trkpt lat="47.76469" lon="2.2213">
        <ele>143</ele>
        <time>2016-12-04T08:34:43.286Z</time>
      </trkpt>
      <trkpt lat="47.76479" lon="2.22132">
        <ele>143</ele>
        <time>2016-12-04T08:34:44.258Z</time>
      </trkpt>
      <trkpt lat="47.76485" lon="2.22133">
        <ele>143</ele>
        <time>2016-12-04T08:34:45.294Z</time>
      </trkpt>
      <trkpt lat="47.7649" lon="2.22134">
        <ele>143</ele>
        <time>2016-12-04T08:34:46.250Z</time>
      </trkpt>
      <trkpt lat="47.7649" lon="2.22134">
        <ele>143</ele>
        <time>2016-12-04T08:34:47.253Z</time>
      </trkpt>
      <trkpt lat="47.765" lon="2.22135">
        <ele>144</ele>
        <time>2016-12-04T08:34:48.262Z</time>
      </trkpt>
      <trkpt lat="47.765" lon="2.22135">
        <ele>144</ele>
        <time>2016-12-04T08:34:49.269Z</time>
      </trkpt>
      <trkpt lat="47.76511" lon="2.22137">
        <ele>144</ele>
        <time>2016-12-04T08:34:50.246Z</time>
      </trkpt>
      <trkpt lat="47.76511" lon="2.22137">
        <ele>144</ele>
        <time>2016-12-04T08:34:51.247Z</time>
      </trkpt>
      <trkpt lat="47.76521" lon="2.22138">
        <ele>144</ele>
        <time>2016-12-04T08:34:52.288Z</time>
      </trkpt>
      <trkpt lat="47.76521" lon="2.22138">
        <ele>144</ele>
        <time>2016-12-04T08:34:53.286Z</time>
      </trkpt>
      <trkpt lat="47.76532" lon="2.22139">
        <ele>145</ele>
        <time>2016-12-04T08:34:54.257Z</time>
      </trkpt>
      <trkpt lat="47.76537" lon="2.22139">
        <ele>146</ele>
        <time>2016-12-04T08:34:55.258Z</time>
      </trkpt>
      <trkpt lat="47.76537" lon="2.22139">
        <ele>146</ele>
        <time>2016-12-04T08:34:56.268Z</time>
      </trkpt>
      <trkpt lat="47.76547" lon="2.2214">
        <ele>146</ele>
        <time>2016-12-04T08:34:57.254Z</time>
      </trkpt>
      <trkpt lat="47.76553" lon="2.2214">
        <ele>147</ele>
        <time>2016-12-04T08:34:58.262Z</time>
      </trkpt>
      <trkpt lat="47.76553" lon="2.2214">
        <ele>147</ele>
        <time>2016-12-04T08:34:59.269Z</time>
      </trkpt>
      <trkpt lat="47.76564" lon="2.22141">
        <ele>148</ele>
        <time>2016-12-04T08:35:00.269Z</time>
      </trkpt>
      <trkpt lat="47.76564" lon="2.22141">
        <ele>148</ele>
        <time>2016-12-04T08:35:01.292Z</time>
      </trkpt>
      <trkpt lat="47.76576" lon="2.22142">
        <ele>147</ele>
        <time>2016-12-04T08:35:02.268Z</time>
      </trkpt>
      <trkpt lat="47.76581" lon="2.22143">
        <ele>147</ele>
        <time>2016-12-04T08:35:03.252Z</time>
      </trkpt>
      <trkpt lat="47.76581" lon="2.22143">
        <ele>147</ele>
        <time>2016-12-04T08:35:04.274Z</time>
      </trkpt>
      <trkpt lat="47.76592" lon="2.22145">
        <ele>147</ele>
        <time>2016-12-04T08:35:05.291Z</time>
      </trkpt>
      <trkpt lat="47.76592" lon="2.22145">
        <ele>147</ele>
        <time>2016-12-04T08:35:06.293Z</time>
      </trkpt>
      <trkpt lat="47.76604" lon="2.22147">
        <ele>147</ele>
        <time>2016-12-04T08:35:07.288Z</time>
      </trkpt>
      <trkpt lat="47.76604" lon="2.22147">
        <ele>147</ele>
        <time>2016-12-04T08:35:08.289Z</time>
      </trkpt>
      <trkpt lat="47.76615" lon="2.22148">
        <ele>147</ele>
        <time>2016-12-04T08:35:09.267Z</time>
      </trkpt>
      <trkpt lat="47.7662" lon="2.22149">
        <ele>147</ele>
        <time>2016-12-04T08:35:10.243Z</time>
      </trkpt>
      <trkpt lat="47.7662" lon="2.22149">
        <ele>147</ele>
        <time>2016-12-04T08:35:11.294Z</time>
      </trkpt>
      <trkpt lat="47.76631" lon="2.2215">
        <ele>148</ele>
        <time>2016-12-04T08:35:12.292Z</time>
      </trkpt>
      <trkpt lat="47.76631" lon="2.2215">
        <ele>148</ele>
        <time>2016-12-04T08:35:13.285Z</time>
      </trkpt>
      <trkpt lat="47.76642" lon="2.22152">
        <ele>149</ele>
        <time>2016-12-04T08:35:14.257Z</time>
      </trkpt>
      <trkpt lat="47.76647" lon="2.22153">
        <ele>149</ele>
        <time>2016-12-04T08:35:15.292Z</time>
      </trkpt>
      <trkpt lat="47.76652" lon="2.22153">
        <ele>149</ele>
        <time>2016-12-04T08:35:16.252Z</time>
      </trkpt>
      <trkpt lat="47.76652" lon="2.22153">
        <ele>149</ele>
        <time>2016-12-04T08:35:17.270Z</time>
      </trkpt>
      <trkpt lat="47.76663" lon="2.22155">
        <ele>149</ele>
        <time>2016-12-04T08:35:18.267Z</time>
      </trkpt>
      <trkpt lat="47.76668" lon="2.22155">
        <ele>149</ele>
        <time>2016-12-04T08:35:19.259Z</time>
      </trkpt>
      <trkpt lat="47.76673" lon="2.22156">
        <ele>150</ele>
        <time>2016-12-04T08:35:20.268Z</time>
      </trkpt>
      <trkpt lat="47.76673" lon="2.22156">
        <ele>150</ele>
        <time>2016-12-04T08:35:21.257Z</time>
      </trkpt>
      <trkpt lat="47.76685" lon="2.22159">
        <ele>150</ele>
        <time>2016-12-04T08:35:22.262Z</time>
      </trkpt>
      <trkpt lat="47.76685" lon="2.22159">
        <ele>150</ele>
        <time>2016-12-04T08:35:23.273Z</time>
      </trkpt>
      <trkpt lat="47.76696" lon="2.22161">
        <ele>151</ele>
        <time>2016-12-04T08:35:24.261Z</time>
      </trkpt>
      <trkpt lat="47.76696" lon="2.22161">
        <ele>151</ele>
        <time>2016-12-04T08:35:25.293Z</time>
      </trkpt>
      <trkpt lat="47.76708" lon="2.22165">
        <ele>150</ele>
        <time>2016-12-04T08:35:26.268Z</time>
      </trkpt>
      <trkpt lat="47.76713" lon="2.22168">
        <ele>150</ele>
        <time>2016-12-04T08:35:27.243Z</time>
      </trkpt>
      <trkpt lat="47.76719" lon="2.2217">
        <ele>150</ele>
        <time>2016-12-04T08:35:28.274Z</time>
      </trkpt>
      <trkpt lat="47.76725" lon="2.22173">
        <ele>150</ele>
        <time>2016-12-04T08:35:29.288Z</time>
      </trkpt>
      <trkpt lat="47.76725" lon="2.22173">
        <ele>150</ele>
        <time>2016-12-04T08:35:30.293Z</time>
      </trkpt>
      <trkpt lat="47.76736" lon="2.22176">
        <ele>150</ele>
        <time>2016-12-04T08:35:31.249Z</time>
      </trkpt>
      <trkpt lat="47.76736" lon="2.22176">
        <ele>150</ele>
        <time>2016-12-04T08:35:32.249Z</time>
      </trkpt>
      <trkpt lat="47.76747" lon="2.2218">
        <ele>150</ele>
        <time>2016-12-04T08:35:33.251Z</time>
      </trkpt>
      <trkpt lat="47.76747" lon="2.2218">
        <ele>150</ele>
        <time>2016-12-04T08:35:34.271Z</time>
      </trkpt>
      <trkpt lat="47.76758" lon="2.22184">
        <ele>150</ele>
        <time>2016-12-04T08:35:35.250Z</time>
      </trkpt>
      <trkpt lat="47.76758" lon="2.22184">
        <ele>150</ele>
        <time>2016-12-04T08:35:36.255Z</time>
      </trkpt>
      <trkpt lat="47.76768" lon="2.22188">
        <ele>150</ele>
        <time>2016-12-04T08:35:37.261Z</time>
      </trkpt>
      <trkpt lat="47.76768" lon="2.22188">
        <ele>150</ele>
        <time>2016-12-04T08:35:38.268Z</time>
      </trkpt>
      <trkpt lat="47.76778" lon="2.22192">
        <ele>151</ele>
        <time>2016-12-04T08:35:39.267Z</time>
      </trkpt>
      <trkpt lat="47.76778" lon="2.22192">
        <ele>151</ele>
        <time>2016-12-04T08:35:40.289Z</time>
      </trkpt>
      <trkpt lat="47.76787" lon="2.22195">
        <ele>150</ele>
        <time>2016-12-04T08:35:41.267Z</time>
      </trkpt>
      <trkpt lat="47.76792" lon="2.22196">
        <ele>151</ele>
        <time>2016-12-04T08:35:42.291Z</time>
      </trkpt>
      <trkpt lat="47.76792" lon="2.22196">
        <ele>151</ele>
        <time>2016-12-04T08:35:43.299Z</time>
      </trkpt>
      <trkpt lat="47.76801" lon="2.222">
        <ele>150</ele>
        <time>2016-12-04T08:35:44.261Z</time>
      </trkpt>
      <trkpt lat="47.76805" lon="2.22202">
        <ele>150</ele>
        <time>2016-12-04T08:35:45.262Z</time>
      </trkpt>
      <trkpt lat="47.76809" lon="2.22203">
        <ele>150</ele>
        <time>2016-12-04T08:35:46.267Z</time>
      </trkpt>
      <trkpt lat="47.76809" lon="2.22203">
        <ele>150</ele>
        <time>2016-12-04T08:35:47.294Z</time>
      </trkpt>
      <trkpt lat="47.76819" lon="2.22207">
        <ele>150</ele>
        <time>2016-12-04T08:35:48.267Z</time>
      </trkpt>
      <trkpt lat="47.76819" lon="2.22207">
        <ele>150</ele>
        <time>2016-12-04T08:35:49.274Z</time>
      </trkpt>
      <trkpt lat="47.76828" lon="2.22211">
        <ele>150</ele>
        <time>2016-12-04T08:35:50.248Z</time>
      </trkpt>
      <trkpt lat="47.76828" lon="2.22211">
        <ele>150</ele>
        <time>2016-12-04T08:35:51.247Z</time>
      </trkpt>
      <trkpt lat="47.76838" lon="2.22214">
        <ele>151</ele>
        <time>2016-12-04T08:35:52.252Z</time>
      </trkpt>
      <trkpt lat="47.76838" lon="2.22214">
        <ele>151</ele>
        <time>2016-12-04T08:35:53.263Z</time>
      </trkpt>
      <trkpt lat="47.76847" lon="2.22218">
        <ele>150</ele>
        <time>2016-12-04T08:35:54.256Z</time>
      </trkpt>
      <trkpt lat="47.76851" lon="2.2222">
        <ele>150</ele>
        <time>2016-12-04T08:35:55.267Z</time>
      </trkpt>
      <trkpt lat="47.76851" lon="2.2222">
        <ele>150</ele>
        <time>2016-12-04T08:35:56.294Z</time>
      </trkpt>
      <trkpt lat="47.7686" lon="2.22224">
        <ele>150</ele>
        <time>2016-12-04T08:35:57.269Z</time>
      </trkpt>
      <trkpt lat="47.76863" lon="2.22225">
        <ele>150</ele>
        <time>2016-12-04T08:35:58.245Z</time>
      </trkpt>
      <trkpt lat="47.76863" lon="2.22225">
        <ele>150</ele>
        <time>2016-12-04T08:35:59.273Z</time>
      </trkpt>
      <trkpt lat="47.7687" lon="2.22227">
        <ele>150</ele>
        <time>2016-12-04T08:36:00.248Z</time>
      </trkpt>
      <trkpt lat="47.7687" lon="2.22227">
        <ele>150</ele>
        <time>2016-12-04T08:36:01.246Z</time>
      </trkpt>
      <trkpt lat="47.76876" lon="2.22229">
        <ele>149</ele>
        <time>2016-12-04T08:36:02.268Z</time>
      </trkpt>
      <trkpt lat="47.76878" lon="2.22229">
        <ele>150</ele>
        <time>2016-12-04T08:36:03.243Z</time>
      </trkpt>
      <trkpt lat="47.76878" lon="2.22229">
        <ele>150</ele>
        <time>2016-12-04T08:36:04.270Z</time>
      </trkpt>
      <trkpt lat="47.7688" lon="2.22232">
        <ele>150</ele>
        <time>2016-12-04T08:36:05.294Z</time>
      </trkpt>
      <trkpt lat="47.7688" lon="2.22232">
        <ele>150</ele>
        <time>2016-12-04T08:36:06.267Z</time>
      </trkpt>
      <trkpt lat="47.7688" lon="2.22232">
        <ele>150</ele>
        <time>2016-12-04T08:36:07.294Z</time>
      </trkpt>
      <trkpt lat="47.7688" lon="2.22232">
        <ele>149</ele>
        <time>2016-12-04T08:36:08.269Z</time>
      </trkpt>
      <trkpt lat="47.76878" lon="2.22245">
        <ele>146</ele>
        <time>2016-12-04T08:36:09.284Z</time>
      </trkpt>
      <trkpt lat="47.76875" lon="2.22249">
        <ele>146</ele>
        <time>2016-12-04T08:36:10.270Z</time>
      </trkpt>
      <trkpt lat="47.76873" lon="2.22252">
        <ele>146</ele>
        <time>2016-12-04T08:36:11.271Z</time>
      </trkpt>
      <trkpt lat="47.7687" lon="2.22256">
        <ele>146</ele>
        <time>2016-12-04T08:36:12.277Z</time>
      </trkpt>
      <trkpt lat="47.7687" lon="2.22256">
        <ele>146</ele>
        <time>2016-12-04T08:36:13.270Z</time>
      </trkpt>
      <trkpt lat="47.76865" lon="2.22264">
        <ele>146</ele>
        <time>2016-12-04T08:36:14.245Z</time>
      </trkpt>
      <trkpt lat="47.76862" lon="2.22267">
        <ele>146</ele>
        <time>2016-12-04T08:36:15.268Z</time>
      </trkpt>
      <trkpt lat="47.76862" lon="2.22267">
        <ele>146</ele>
        <time>2016-12-04T08:36:16.269Z</time>
      </trkpt>
      <trkpt lat="47.76856" lon="2.22276">
        <ele>146</ele>
        <time>2016-12-04T08:36:17.243Z</time>
      </trkpt>
      <trkpt lat="47.76856" lon="2.22276">
        <ele>146</ele>
        <time>2016-12-04T08:36:18.249Z</time>
      </trkpt>
      <trkpt lat="47.7685" lon="2.22284">
        <ele>146</ele>
        <time>2016-12-04T08:36:19.268Z</time>
      </trkpt>
      <trkpt lat="47.7685" lon="2.22284">
        <ele>146</ele>
        <time>2016-12-04T08:36:20.269Z</time>
      </trkpt>
      <trkpt lat="47.76844" lon="2.22293">
        <ele>146</ele>
        <time>2016-12-04T08:36:21.271Z</time>
      </trkpt>
      <trkpt lat="47.76842" lon="2.22297">
        <ele>146</ele>
        <time>2016-12-04T08:36:22.270Z</time>
      </trkpt>
      <trkpt lat="47.76839" lon="2.22301">
        <ele>146</ele>
        <time>2016-12-04T08:36:23.245Z</time>
      </trkpt>
      <trkpt lat="47.76836" lon="2.22305">
        <ele>146</ele>
        <time>2016-12-04T08:36:24.268Z</time>
      </trkpt>
      <trkpt lat="47.76836" lon="2.22305">
        <ele>146</ele>
        <time>2016-12-04T08:36:25.269Z</time>
      </trkpt>
      <trkpt lat="47.76831" lon="2.22313">
        <ele>146</ele>
        <time>2016-12-04T08:36:26.245Z</time>
      </trkpt>
      <trkpt lat="47.76831" lon="2.22313">
        <ele>146</ele>
        <time>2016-12-04T08:36:27.262Z</time>
      </trkpt>
      <trkpt lat="47.76827" lon="2.22321">
        <ele>147</ele>
        <time>2016-12-04T08:36:28.274Z</time>
      </trkpt>
      <trkpt lat="47.76821" lon="2.22327">
        <ele>147</ele>
        <time>2016-12-04T08:36:29.282Z</time>
      </trkpt>
      <trkpt lat="47.76821" lon="2.22327">
        <ele>147</ele>
        <time>2016-12-04T08:36:30.267Z</time>
      </trkpt>
      <trkpt lat="47.76821" lon="2.22327">
        <ele>147</ele>
        <time>2016-12-04T08:36:31.270Z</time>
      </trkpt>
      <trkpt lat="47.76815" lon="2.22336">
        <ele>147</ele>
        <time>2016-12-04T08:36:32.246Z</time>
      </trkpt>
      <trkpt lat="47.76815" lon="2.22336">
        <ele>147</ele>
        <time>2016-12-04T08:36:33.270Z</time>
      </trkpt>
      <trkpt lat="47.76809" lon="2.22345">
        <ele>147</ele>
        <time>2016-12-04T08:36:34.246Z</time>
      </trkpt>
      <trkpt lat="47.76805" lon="2.22349">
        <ele>147</ele>
        <time>2016-12-04T08:36:35.245Z</time>
      </trkpt>
      <trkpt lat="47.76805" lon="2.22349">
        <ele>147</ele>
        <time>2016-12-04T08:36:36.270Z</time>
      </trkpt>
      <trkpt lat="47.76798" lon="2.22357">
        <ele>148</ele>
        <time>2016-12-04T08:36:37.269Z</time>
      </trkpt>
      <trkpt lat="47.76795" lon="2.22361">
        <ele>148</ele>
        <time>2016-12-04T08:36:38.244Z</time>
      </trkpt>
      <trkpt lat="47.76795" lon="2.22361">
        <ele>148</ele>
        <time>2016-12-04T08:36:39.276Z</time>
      </trkpt>
      <trkpt lat="47.76789" lon="2.2237">
        <ele>148</ele>
        <time>2016-12-04T08:36:40.289Z</time>
      </trkpt>
      <trkpt lat="47.76783" lon="2.22376">
        <ele>148</ele>
        <time>2016-12-04T08:36:41.255Z</time>
      </trkpt>
      <trkpt lat="47.76783" lon="2.22376">
        <ele>148</ele>
        <time>2016-12-04T08:36:42.264Z</time>
      </trkpt>
      <trkpt lat="47.76777" lon="2.22386">
        <ele>148</ele>
        <time>2016-12-04T08:36:43.272Z</time>
      </trkpt>
      <trkpt lat="47.76777" lon="2.22386">
        <ele>148</ele>
        <time>2016-12-04T08:36:44.284Z</time>
      </trkpt>
      <trkpt lat="47.7677" lon="2.22393">
        <ele>149</ele>
        <time>2016-12-04T08:36:45.269Z</time>
      </trkpt>
      <trkpt lat="47.7677" lon="2.22393">
        <ele>149</ele>
        <time>2016-12-04T08:36:46.270Z</time>
      </trkpt>
      <trkpt lat="47.76765" lon="2.22399">
        <ele>149</ele>
        <time>2016-12-04T08:36:47.246Z</time>
      </trkpt>
      <trkpt lat="47.76765" lon="2.22399">
        <ele>149</ele>
        <time>2016-12-04T08:36:48.243Z</time>
      </trkpt>
      <trkpt lat="47.76762" lon="2.22405">
        <ele>149</ele>
        <time>2016-12-04T08:36:49.270Z</time>
      </trkpt>
      <trkpt lat="47.7676" lon="2.22407">
        <ele>150</ele>
        <time>2016-12-04T08:36:50.269Z</time>
      </trkpt>
      <trkpt lat="47.7676" lon="2.22407">
        <ele>150</ele>
        <time>2016-12-04T08:36:51.271Z</time>
      </trkpt>
      <trkpt lat="47.76758" lon="2.22411">
        <ele>150</ele>
        <time>2016-12-04T08:36:52.246Z</time>
      </trkpt>
      <trkpt lat="47.76757" lon="2.22412">
        <ele>151</ele>
        <time>2016-12-04T08:36:53.265Z</time>
      </trkpt>
      <trkpt lat="47.76757" lon="2.22412">
        <ele>151</ele>
        <time>2016-12-04T08:36:54.269Z</time>
      </trkpt>
      <trkpt lat="47.76758" lon="2.22412">
        <ele>152</ele>
        <time>2016-12-04T08:36:55.245Z</time>
      </trkpt>
      <trkpt lat="47.76758" lon="2.22412">
        <ele>152</ele>
        <time>2016-12-04T08:36:56.244Z</time>
      </trkpt>
      <trkpt lat="47.76758" lon="2.22412">
        <ele>152</ele>
        <time>2016-12-04T08:36:57.258Z</time>
      </trkpt>
      <trkpt lat="47.7675" lon="2.22427">
        <ele>150</ele>
        <time>2016-12-04T08:36:58.244Z</time>
      </trkpt>
      <trkpt lat="47.76748" lon="2.2243">
        <ele>150</ele>
        <time>2016-12-04T08:36:59.282Z</time>
      </trkpt>
      <trkpt lat="47.76746" lon="2.22433">
        <ele>150</ele>
        <time>2016-12-04T08:37:00.282Z</time>
      </trkpt>
      <trkpt lat="47.76746" lon="2.22433">
        <ele>150</ele>
        <time>2016-12-04T08:37:01.277Z</time>
      </trkpt>
      <trkpt lat="47.76742" lon="2.22438">
        <ele>150</ele>
        <time>2016-12-04T08:37:02.244Z</time>
      </trkpt>
      <trkpt lat="47.76742" lon="2.22438">
        <ele>150</ele>
        <time>2016-12-04T08:37:03.277Z</time>
      </trkpt>
      <trkpt lat="47.76736" lon="2.22444">
        <ele>150</ele>
        <time>2016-12-04T08:37:04.282Z</time>
      </trkpt>
      <trkpt lat="47.76736" lon="2.22444">
        <ele>150</ele>
        <time>2016-12-04T08:37:05.245Z</time>
      </trkpt>
      <trkpt lat="47.76732" lon="2.2245">
        <ele>150</ele>
        <time>2016-12-04T08:37:06.243Z</time>
      </trkpt>
      <trkpt lat="47.76732" lon="2.2245">
        <ele>150</ele>
        <time>2016-12-04T08:37:07.281Z</time>
      </trkpt>
      <trkpt lat="47.76727" lon="2.22457">
        <ele>151</ele>
        <time>2016-12-04T08:37:08.276Z</time>
      </trkpt>
      <trkpt lat="47.76724" lon="2.2246">
        <ele>151</ele>
        <time>2016-12-04T08:37:09.282Z</time>
      </trkpt>
      <trkpt lat="47.76721" lon="2.22463">
        <ele>151</ele>
        <time>2016-12-04T08:37:10.243Z</time>
      </trkpt>
      <trkpt lat="47.76721" lon="2.22463">
        <ele>151</ele>
        <time>2016-12-04T08:37:11.280Z</time>
      </trkpt>
      <trkpt lat="47.76714" lon="2.22467">
        <ele>151</ele>
        <time>2016-12-04T08:37:12.243Z</time>
      </trkpt>
      <trkpt lat="47.76712" lon="2.22468">
        <ele>151</ele>
        <time>2016-12-04T08:37:13.243Z</time>
      </trkpt>
      <trkpt lat="47.76712" lon="2.22468">
        <ele>151</ele>
        <time>2016-12-04T08:37:14.279Z</time>
      </trkpt>
      <trkpt lat="47.76709" lon="2.2247">
        <ele>151</ele>
        <time>2016-12-04T08:37:15.243Z</time>
      </trkpt>
      <trkpt lat="47.76709" lon="2.2247">
        <ele>151</ele>
        <time>2016-12-04T08:37:16.267Z</time>
      </trkpt>
      <trkpt lat="47.76708" lon="2.2247">
        <ele>151</ele>
        <time>2016-12-04T08:37:17.275Z</time>
      </trkpt>
      <trkpt lat="47.76708" lon="2.2247">
        <ele>151</ele>
        <time>2016-12-04T08:37:18.281Z</time>
      </trkpt>
      <trkpt lat="47.76708" lon="2.2247">
        <ele>151</ele>
        <time>2016-12-04T08:37:19.276Z</time>
      </trkpt>
      <trkpt lat="47.76716" lon="2.22467">
        <ele>144</ele>
        <time>2016-12-04T08:37:20.272Z</time>
      </trkpt>
      <trkpt lat="47.76716" lon="2.22467">
        <ele>144</ele>
        <time>2016-12-04T08:37:21.266Z</time>
      </trkpt>
      <trkpt lat="47.7672" lon="2.22461">
        <ele>145</ele>
        <time>2016-12-04T08:37:22.273Z</time>
      </trkpt>
      <trkpt lat="47.7672" lon="2.22461">
        <ele>145</ele>
        <time>2016-12-04T08:37:23.266Z</time>
      </trkpt>
      <trkpt lat="47.76725" lon="2.22455">
        <ele>145</ele>
        <time>2016-12-04T08:37:24.273Z</time>
      </trkpt>
      <trkpt lat="47.76725" lon="2.22455">
        <ele>145</ele>
        <time>2016-12-04T08:37:25.269Z</time>
      </trkpt>
      <trkpt lat="47.7673" lon="2.22449">
        <ele>146</ele>
        <time>2016-12-04T08:37:26.244Z</time>
      </trkpt>
      <trkpt lat="47.76732" lon="2.22446">
        <ele>146</ele>
        <time>2016-12-04T08:37:27.272Z</time>
      </trkpt>
      <trkpt lat="47.76732" lon="2.22446">
        <ele>146</ele>
        <time>2016-12-04T08:37:28.268Z</time>
      </trkpt>
      <trkpt lat="47.76737" lon="2.22439">
        <ele>147</ele>
        <time>2016-12-04T08:37:29.271Z</time>
      </trkpt>
      <trkpt lat="47.76737" lon="2.22439">
        <ele>147</ele>
        <time>2016-12-04T08:37:30.270Z</time>
      </trkpt>
      <trkpt lat="47.76742" lon="2.22432">
        <ele>148</ele>
        <time>2016-12-04T08:37:31.271Z</time>
      </trkpt>
      <trkpt lat="47.76744" lon="2.22429">
        <ele>148</ele>
        <time>2016-12-04T08:37:32.271Z</time>
      </trkpt>
      <trkpt lat="47.76744" lon="2.22429">
        <ele>148</ele>
        <time>2016-12-04T08:37:33.269Z</time>
      </trkpt>
      <trkpt lat="47.76748" lon="2.22422">
        <ele>148</ele>
        <time>2016-12-04T08:37:34.271Z</time>
      </trkpt>
      <trkpt lat="47.76748" lon="2.22422">
        <ele>148</ele>
        <time>2016-12-04T08:37:35.267Z</time>
      </trkpt>
      <trkpt lat="47.76753" lon="2.22414">
        <ele>149</ele>
        <time>2016-12-04T08:37:36.265Z</time>
      </trkpt>
      <trkpt lat="47.76755" lon="2.22411">
        <ele>149</ele>
        <time>2016-12-04T08:37:37.246Z</time>
      </trkpt>
      <trkpt lat="47.76758" lon="2.22408">
        <ele>149</ele>
        <time>2016-12-04T08:37:38.277Z</time>
      </trkpt>
      <trkpt lat="47.76758" lon="2.22408">
        <ele>149</ele>
        <time>2016-12-04T08:37:39.272Z</time>
      </trkpt>
      <trkpt lat="47.76763" lon="2.22401">
        <ele>150</ele>
        <time>2016-12-04T08:37:40.271Z</time>
      </trkpt>
      <trkpt lat="47.76763" lon="2.22401">
        <ele>150</ele>
        <time>2016-12-04T08:37:41.274Z</time>
      </trkpt>
      <trkpt lat="47.76768" lon="2.22394">
        <ele>150</ele>
        <time>2016-12-04T08:37:42.273Z</time>
      </trkpt>
      <trkpt lat="47.76768" lon="2.22394">
        <ele>150</ele>
        <time>2016-12-04T08:37:43.269Z</time>
      </trkpt>
      <trkpt lat="47.76774" lon="2.22387">
        <ele>151</ele>
        <time>2016-12-04T08:37:44.272Z</time>
      </trkpt>
      <trkpt lat="47.76774" lon="2.22387">
        <ele>151</ele>
        <time>2016-12-04T08:37:45.270Z</time>
      </trkpt>
      <trkpt lat="47.76781" lon="2.2238">
        <ele>151</ele>
        <time>2016-12-04T08:37:46.271Z</time>
      </trkpt>
      <trkpt lat="47.76781" lon="2.2238">
        <ele>151</ele>
        <time>2016-12-04T08:37:47.269Z</time>
      </trkpt>
      <trkpt lat="47.76786" lon="2.22373">
        <ele>151</ele>
        <time>2016-12-04T08:37:48.269Z</time>
      </trkpt>
      <trkpt lat="47.76786" lon="2.22373">
        <ele>151</ele>
        <time>2016-12-04T08:37:49.267Z</time>
      </trkpt>
      <trkpt lat="47.7679" lon="2.22366">
        <ele>151</ele>
        <time>2016-12-04T08:37:50.272Z</time>
      </trkpt>
      <trkpt lat="47.7679" lon="2.22366">
        <ele>151</ele>
        <time>2016-12-04T08:37:51.269Z</time>
      </trkpt>
      <trkpt lat="47.76794" lon="2.22361">
        <ele>152</ele>
        <time>2016-12-04T08:37:52.272Z</time>
      </trkpt>
      <trkpt lat="47.76794" lon="2.22361">
        <ele>152</ele>
        <time>2016-12-04T08:37:53.267Z</time>
      </trkpt>
      <trkpt lat="47.76797" lon="2.22356">
        <ele>152</ele>
        <time>2016-12-04T08:37:54.272Z</time>
      </trkpt>
      <trkpt lat="47.76799" lon="2.22354">
        <ele>152</ele>
        <time>2016-12-04T08:37:55.272Z</time>
      </trkpt>
      <trkpt lat="47.76799" lon="2.22354">
        <ele>152</ele>
        <time>2016-12-04T08:37:56.281Z</time>
      </trkpt>
      <trkpt lat="47.76802" lon="2.22349">
        <ele>152</ele>
        <time>2016-12-04T08:37:57.272Z</time>
      </trkpt>
      <trkpt lat="47.76802" lon="2.22349">
        <ele>152</ele>
        <time>2016-12-04T08:37:58.269Z</time>
      </trkpt>
      <trkpt lat="47.76805" lon="2.22345">
        <ele>152</ele>
        <time>2016-12-04T08:37:59.271Z</time>
      </trkpt>
      <trkpt lat="47.76805" lon="2.22345">
        <ele>152</ele>
        <time>2016-12-04T08:38:00.266Z</time>
      </trkpt>
      <trkpt lat="47.76808" lon="2.22342">
        <ele>153</ele>
        <time>2016-12-04T08:38:01.271Z</time>
      </trkpt>
      <trkpt lat="47.76809" lon="2.22341">
        <ele>153</ele>
        <time>2016-12-04T08:38:02.272Z</time>
      </trkpt>
      <trkpt lat="47.76809" lon="2.22341">
        <ele>153</ele>
        <time>2016-12-04T08:38:03.269Z</time>
      </trkpt>
      <trkpt lat="47.76811" lon="2.22337">
        <ele>153</ele>
        <time>2016-12-04T08:38:04.272Z</time>
      </trkpt>
      <trkpt lat="47.76811" lon="2.22337">
        <ele>153</ele>
        <time>2016-12-04T08:38:05.267Z</time>
      </trkpt>
      <trkpt lat="47.76813" lon="2.22334">
        <ele>154</ele>
        <time>2016-12-04T08:38:06.270Z</time>
      </trkpt>
      <trkpt lat="47.76814" lon="2.22332">
        <ele>154</ele>
        <time>2016-12-04T08:38:07.283Z</time>
      </trkpt>
      <trkpt lat="47.76814" lon="2.22332">
        <ele>154</ele>
        <time>2016-12-04T08:38:08.270Z</time>
      </trkpt>
      <trkpt lat="47.76816" lon="2.22328">
        <ele>154</ele>
        <time>2016-12-04T08:38:09.271Z</time>
      </trkpt>
      <trkpt lat="47.76816" lon="2.22327">
        <ele>154</ele>
        <time>2016-12-04T08:38:10.272Z</time>
      </trkpt>
      <trkpt lat="47.76816" lon="2.22327">
        <ele>154</ele>
        <time>2016-12-04T08:38:11.267Z</time>
      </trkpt>
      <trkpt lat="47.76819" lon="2.22324">
        <ele>154</ele>
        <time>2016-12-04T08:38:12.272Z</time>
      </trkpt>
      <trkpt lat="47.76819" lon="2.22324">
        <ele>154</ele>
        <time>2016-12-04T08:38:13.269Z</time>
      </trkpt>
      <trkpt lat="47.76822" lon="2.22322">
        <ele>154</ele>
        <time>2016-12-04T08:38:14.272Z</time>
      </trkpt>
      <trkpt lat="47.76822" lon="2.22322">
        <ele>154</ele>
        <time>2016-12-04T08:38:15.270Z</time>
      </trkpt>
      <trkpt lat="47.76823" lon="2.22318">
        <ele>155</ele>
        <time>2016-12-04T08:38:16.273Z</time>
      </trkpt>
      <trkpt lat="47.76823" lon="2.22318">
        <ele>155</ele>
        <time>2016-12-04T08:38:17.270Z</time>
      </trkpt>
      <trkpt lat="47.76821" lon="2.22319">
        <ele>155</ele>
        <time>2016-12-04T08:38:18.272Z</time>
      </trkpt>
      <trkpt lat="47.76821" lon="2.22319">
        <ele>155</ele>
        <time>2016-12-04T08:38:19.269Z</time>
      </trkpt>
      <trkpt lat="47.7682" lon="2.22322">
        <ele>155</ele>
        <time>2016-12-04T08:38:20.272Z</time>
      </trkpt>
      <trkpt lat="47.7682" lon="2.22322">
        <ele>155</ele>
        <time>2016-12-04T08:38:21.268Z</time>
      </trkpt>
      <trkpt lat="47.76818" lon="2.22326">
        <ele>155</ele>
        <time>2016-12-04T08:38:22.271Z</time>
      </trkpt>
      <trkpt lat="47.76817" lon="2.22328">
        <ele>155</ele>
        <time>2016-12-04T08:38:23.272Z</time>
      </trkpt>
      <trkpt lat="47.76817" lon="2.22328">
        <ele>155</ele>
        <time>2016-12-04T08:38:24.267Z</time>
      </trkpt>
      <trkpt lat="47.76813" lon="2.22331">
        <ele>155</ele>
        <time>2016-12-04T08:38:25.263Z</time>
      </trkpt>
      <trkpt lat="47.76813" lon="2.22331">
        <ele>155</ele>
        <time>2016-12-04T08:38:26.255Z</time>
      </trkpt>
      <trkpt lat="47.7681" lon="2.22337">
        <ele>155</ele>
        <time>2016-12-04T08:38:27.246Z</time>
      </trkpt>
      <trkpt lat="47.76808" lon="2.2234">
        <ele>155</ele>
        <time>2016-12-04T08:38:28.272Z</time>
      </trkpt>
      <trkpt lat="47.76808" lon="2.2234">
        <ele>155</ele>
        <time>2016-12-04T08:38:29.270Z</time>
      </trkpt>
      <trkpt lat="47.76805" lon="2.22347">
        <ele>155</ele>
        <time>2016-12-04T08:38:30.273Z</time>
      </trkpt>
      <trkpt lat="47.76805" lon="2.22347">
        <ele>155</ele>
        <time>2016-12-04T08:38:31.269Z</time>
      </trkpt>
      <trkpt lat="47.76801" lon="2.22354">
        <ele>155</ele>
        <time>2016-12-04T08:38:32.274Z</time>
      </trkpt>
      <trkpt lat="47.76799" lon="2.22357">
        <ele>154</ele>
        <time>2016-12-04T08:38:33.273Z</time>
      </trkpt>
      <trkpt lat="47.76799" lon="2.22357">
        <ele>154</ele>
        <time>2016-12-04T08:38:34.268Z</time>
      </trkpt>
      <trkpt lat="47.76793" lon="2.22364">
        <ele>154</ele>
        <time>2016-12-04T08:38:35.271Z</time>
      </trkpt>
      <trkpt lat="47.76793" lon="2.22364">
        <ele>154</ele>
        <time>2016-12-04T08:38:36.254Z</time>
      </trkpt>
      <trkpt lat="47.7679" lon="2.22367">
        <ele>154</ele>
        <time>2016-12-04T08:38:37.245Z</time>
      </trkpt>
      <trkpt lat="47.76784" lon="2.22375">
        <ele>155</ele>
        <time>2016-12-04T08:38:38.274Z</time>
      </trkpt>
      <trkpt lat="47.76784" lon="2.22375">
        <ele>155</ele>
        <time>2016-12-04T08:38:39.270Z</time>
      </trkpt>
      <trkpt lat="47.76777" lon="2.22385">
        <ele>155</ele>
        <time>2016-12-04T08:38:40.272Z</time>
      </trkpt>
      <trkpt lat="47.76777" lon="2.22385">
        <ele>155</ele>
        <time>2016-12-04T08:38:41.270Z</time>
      </trkpt>
      <trkpt lat="47.76769" lon="2.22394">
        <ele>155</ele>
        <time>2016-12-04T08:38:42.273Z</time>
      </trkpt>
      <trkpt lat="47.76769" lon="2.22394">
        <ele>155</ele>
        <time>2016-12-04T08:38:43.270Z</time>
      </trkpt>
      <trkpt lat="47.76764" lon="2.22403">
        <ele>155</ele>
        <time>2016-12-04T08:38:44.272Z</time>
      </trkpt>
      <trkpt lat="47.76761" lon="2.22408">
        <ele>155</ele>
        <time>2016-12-04T08:38:45.271Z</time>
      </trkpt>
      <trkpt lat="47.76761" lon="2.22408">
        <ele>155</ele>
        <time>2016-12-04T08:38:46.274Z</time>
      </trkpt>
      <trkpt lat="47.76754" lon="2.22418">
        <ele>155</ele>
        <time>2016-12-04T08:38:47.273Z</time>
      </trkpt>
      <trkpt lat="47.76754" lon="2.22418">
        <ele>155</ele>
        <time>2016-12-04T08:38:48.269Z</time>
      </trkpt>
      <trkpt lat="47.76747" lon="2.22428">
        <ele>155</ele>
        <time>2016-12-04T08:38:49.272Z</time>
      </trkpt>
      <trkpt lat="47.76747" lon="2.22428">
        <ele>155</ele>
        <time>2016-12-04T08:38:50.270Z</time>
      </trkpt>
      <trkpt lat="47.76747" lon="2.22428">
        <ele>155</ele>
        <time>2016-12-04T08:38:51.244Z</time>
      </trkpt>
      <trkpt lat="47.7674" lon="2.22438">
        <ele>155</ele>
        <time>2016-12-04T08:38:52.246Z</time>
      </trkpt>
      <trkpt lat="47.76733" lon="2.22447">
        <ele>155</ele>
        <time>2016-12-04T08:38:53.278Z</time>
      </trkpt>
      <trkpt lat="47.76733" lon="2.22447">
        <ele>155</ele>
        <time>2016-12-04T08:38:54.273Z</time>
      </trkpt>
      <trkpt lat="47.76724" lon="2.22459">
        <ele>155</ele>
        <time>2016-12-04T08:38:55.273Z</time>
      </trkpt>
      <trkpt lat="47.76724" lon="2.22459">
        <ele>155</ele>
        <time>2016-12-04T08:38:56.263Z</time>
      </trkpt>
      <trkpt lat="47.76715" lon="2.22469">
        <ele>154</ele>
        <time>2016-12-04T08:38:57.268Z</time>
      </trkpt>
      <trkpt lat="47.76715" lon="2.22469">
        <ele>154</ele>
        <time>2016-12-04T08:38:58.267Z</time>
      </trkpt>
      <trkpt lat="47.76706" lon="2.22479">
        <ele>154</ele>
        <time>2016-12-04T08:38:59.271Z</time>
      </trkpt>
      <trkpt lat="47.76702" lon="2.22484">
        <ele>154</ele>
        <time>2016-12-04T08:39:00.273Z</time>
      </trkpt>
      <trkpt lat="47.76702" lon="2.22484">
        <ele>154</ele>
        <time>2016-12-04T08:39:01.270Z</time>
      </trkpt>
      <trkpt lat="47.76695" lon="2.22494">
        <ele>153</ele>
        <time>2016-12-04T08:39:02.272Z</time>
      </trkpt>
      <trkpt lat="47.76695" lon="2.22494">
        <ele>153</ele>
        <time>2016-12-04T08:39:03.270Z</time>
      </trkpt>
      <trkpt lat="47.76687" lon="2.22503">
        <ele>152</ele>
        <time>2016-12-04T08:39:04.272Z</time>
      </trkpt>
      <trkpt lat="47.76687" lon="2.22503">
        <ele>152</ele>
        <time>2016-12-04T08:39:05.272Z</time>
      </trkpt>
      <trkpt lat="47.76679" lon="2.22513">
        <ele>151</ele>
        <time>2016-12-04T08:39:06.266Z</time>
      </trkpt>
      <trkpt lat="47.76679" lon="2.22513">
        <ele>151</ele>
        <time>2016-12-04T08:39:07.270Z</time>
      </trkpt>
      <trkpt lat="47.7667" lon="2.22523">
        <ele>150</ele>
        <time>2016-12-04T08:39:08.272Z</time>
      </trkpt>
      <trkpt lat="47.7667" lon="2.22523">
        <ele>150</ele>
        <time>2016-12-04T08:39:09.267Z</time>
      </trkpt>
      <trkpt lat="47.76662" lon="2.22534">
        <ele>149</ele>
        <time>2016-12-04T08:39:10.271Z</time>
      </trkpt>
      <trkpt lat="47.76658" lon="2.22539">
        <ele>149</ele>
        <time>2016-12-04T08:39:11.246Z</time>
      </trkpt>
      <trkpt lat="47.76658" lon="2.22539">
        <ele>149</ele>
        <time>2016-12-04T08:39:12.270Z</time>
      </trkpt>
      <trkpt lat="47.7665" lon="2.2255">
        <ele>148</ele>
        <time>2016-12-04T08:39:13.273Z</time>
      </trkpt>
      <trkpt lat="47.76646" lon="2.22555">
        <ele>148</ele>
        <time>2016-12-04T08:39:14.269Z</time>
      </trkpt>
      <trkpt lat="47.76646" lon="2.22555">
        <ele>148</ele>
        <time>2016-12-04T08:39:15.268Z</time>
      </trkpt>
      <trkpt lat="47.76638" lon="2.22566">
        <ele>148</ele>
        <time>2016-12-04T08:39:16.247Z</time>
      </trkpt>
      <trkpt lat="47.76634" lon="2.22571">
        <ele>148</ele>
        <time>2016-12-04T08:39:17.250Z</time>
      </trkpt>
      <trkpt lat="47.7663" lon="2.22577">
        <ele>147</ele>
        <time>2016-12-04T08:39:18.273Z</time>
      </trkpt>
      <trkpt lat="47.76625" lon="2.22582">
        <ele>147</ele>
        <time>2016-12-04T08:39:19.272Z</time>
      </trkpt>
      <trkpt lat="47.76621" lon="2.22587">
        <ele>147</ele>
        <time>2016-12-04T08:39:20.273Z</time>
      </trkpt>
      <trkpt lat="47.76621" lon="2.22587">
        <ele>147</ele>
        <time>2016-12-04T08:39:21.269Z</time>
      </trkpt>
      <trkpt lat="47.76613" lon="2.22597">
        <ele>147</ele>
        <time>2016-12-04T08:39:22.246Z</time>
      </trkpt>
      <trkpt lat="47.76613" lon="2.22597">
        <ele>147</ele>
        <time>2016-12-04T08:39:23.269Z</time>
      </trkpt>
      <trkpt lat="47.76605" lon="2.22607">
        <ele>146</ele>
        <time>2016-12-04T08:39:24.273Z</time>
      </trkpt>
      <trkpt lat="47.76605" lon="2.22607">
        <ele>146</ele>
        <time>2016-12-04T08:39:25.267Z</time>
      </trkpt>
      <trkpt lat="47.76597" lon="2.22617">
        <ele>146</ele>
        <time>2016-12-04T08:39:26.265Z</time>
      </trkpt>
      <trkpt lat="47.76593" lon="2.22622">
        <ele>145</ele>
        <time>2016-12-04T08:39:27.246Z</time>
      </trkpt>
      <trkpt lat="47.7659" lon="2.22627">
        <ele>145</ele>
        <time>2016-12-04T08:39:28.272Z</time>
      </trkpt>
      <trkpt lat="47.7659" lon="2.22627">
        <ele>145</ele>
        <time>2016-12-04T08:39:29.269Z</time>
      </trkpt>
      <trkpt lat="47.76582" lon="2.22636">
        <ele>145</ele>
        <time>2016-12-04T08:39:30.273Z</time>
      </trkpt>
      <trkpt lat="47.76582" lon="2.22636">
        <ele>145</ele>
        <time>2016-12-04T08:39:31.269Z</time>
      </trkpt>
      <trkpt lat="47.76574" lon="2.22646">
        <ele>145</ele>
        <time>2016-12-04T08:39:32.273Z</time>
      </trkpt>
      <trkpt lat="47.7657" lon="2.22651">
        <ele>145</ele>
        <time>2016-12-04T08:39:33.272Z</time>
      </trkpt>
      <trkpt lat="47.7657" lon="2.22651">
        <ele>145</ele>
        <time>2016-12-04T08:39:34.267Z</time>
      </trkpt>
      <trkpt lat="47.76561" lon="2.22661">
        <ele>145</ele>
        <time>2016-12-04T08:39:35.271Z</time>
      </trkpt>
      <trkpt lat="47.76561" lon="2.22661">
        <ele>145</ele>
        <time>2016-12-04T08:39:36.253Z</time>
      </trkpt>
      <trkpt lat="47.76553" lon="2.22672">
        <ele>145</ele>
        <time>2016-12-04T08:39:37.280Z</time>
      </trkpt>
      <trkpt lat="47.76553" lon="2.22672">
        <ele>145</ele>
        <time>2016-12-04T08:39:38.273Z</time>
      </trkpt>
      <trkpt lat="47.76545" lon="2.22683">
        <ele>145</ele>
        <time>2016-12-04T08:39:39.274Z</time>
      </trkpt>
      <trkpt lat="47.76545" lon="2.22683">
        <ele>145</ele>
        <time>2016-12-04T08:39:40.268Z</time>
      </trkpt>
      <trkpt lat="47.76537" lon="2.22693">
        <ele>145</ele>
        <time>2016-12-04T08:39:41.272Z</time>
      </trkpt>
      <trkpt lat="47.76537" lon="2.22693">
        <ele>145</ele>
        <time>2016-12-04T08:39:42.272Z</time>
      </trkpt>
      <trkpt lat="47.76529" lon="2.22704">
        <ele>145</ele>
        <time>2016-12-04T08:39:43.272Z</time>
      </trkpt>
      <trkpt lat="47.76525" lon="2.22709">
        <ele>145</ele>
        <time>2016-12-04T08:39:44.273Z</time>
      </trkpt>
      <trkpt lat="47.76525" lon="2.22709">
        <ele>145</ele>
        <time>2016-12-04T08:39:45.271Z</time>
      </trkpt>
      <trkpt lat="47.76517" lon="2.22719">
        <ele>145</ele>
        <time>2016-12-04T08:39:46.278Z</time>
      </trkpt>
      <trkpt lat="47.76513" lon="2.22724">
        <ele>145</ele>
        <time>2016-12-04T08:39:47.272Z</time>
      </trkpt>
      <trkpt lat="47.76509" lon="2.22729">
        <ele>145</ele>
        <time>2016-12-04T08:39:48.274Z</time>
      </trkpt>
      <trkpt lat="47.76509" lon="2.22729">
        <ele>145</ele>
        <time>2016-12-04T08:39:49.270Z</time>
      </trkpt>
      <trkpt lat="47.76502" lon="2.22739">
        <ele>145</ele>
        <time>2016-12-04T08:39:50.273Z</time>
      </trkpt>
      <trkpt lat="47.76498" lon="2.22744">
        <ele>145</ele>
        <time>2016-12-04T08:39:51.270Z</time>
      </trkpt>
      <trkpt lat="47.76498" lon="2.22744">
        <ele>145</ele>
        <time>2016-12-04T08:39:52.252Z</time>
      </trkpt>
      <trkpt lat="47.7649" lon="2.22755">
        <ele>146</ele>
        <time>2016-12-04T08:39:53.281Z</time>
      </trkpt>
      <trkpt lat="47.76486" lon="2.2276">
        <ele>146</ele>
        <time>2016-12-04T08:39:54.270Z</time>
      </trkpt>
      <trkpt lat="47.76486" lon="2.2276">
        <ele>146</ele>
        <time>2016-12-04T08:39:55.266Z</time>
      </trkpt>
      <trkpt lat="47.76478" lon="2.22771">
        <ele>146</ele>
        <time>2016-12-04T08:39:56.267Z</time>
      </trkpt>
      <trkpt lat="47.76475" lon="2.22776">
        <ele>146</ele>
        <time>2016-12-04T08:39:57.252Z</time>
      </trkpt>
      <trkpt lat="47.76471" lon="2.22781">
        <ele>146</ele>
        <time>2016-12-04T08:39:58.245Z</time>
      </trkpt>
      <trkpt lat="47.76467" lon="2.22785">
        <ele>146</ele>
        <time>2016-12-04T08:39:59.271Z</time>
      </trkpt>
      <trkpt lat="47.76467" lon="2.22785">
        <ele>146</ele>
        <time>2016-12-04T08:40:00.271Z</time>
      </trkpt>
      <trkpt lat="47.7646" lon="2.22796">
        <ele>146</ele>
        <time>2016-12-04T08:40:01.272Z</time>
      </trkpt>
      <trkpt lat="47.7646" lon="2.22796">
        <ele>146</ele>
        <time>2016-12-04T08:40:02.253Z</time>
      </trkpt>
      <trkpt lat="47.76452" lon="2.22806">
        <ele>147</ele>
        <time>2016-12-04T08:40:03.281Z</time>
      </trkpt>
      <trkpt lat="47.76452" lon="2.22806">
        <ele>147</ele>
        <time>2016-12-04T08:40:04.270Z</time>
      </trkpt>
      <trkpt lat="47.76443" lon="2.22816">
        <ele>147</ele>
        <time>2016-12-04T08:40:05.272Z</time>
      </trkpt>
      <trkpt lat="47.76443" lon="2.22816">
        <ele>147</ele>
        <time>2016-12-04T08:40:06.266Z</time>
      </trkpt>
      <trkpt lat="47.76435" lon="2.22827">
        <ele>147</ele>
        <time>2016-12-04T08:40:07.251Z</time>
      </trkpt>
      <trkpt lat="47.76435" lon="2.22827">
        <ele>147</ele>
        <time>2016-12-04T08:40:08.271Z</time>
      </trkpt>
      <trkpt lat="47.76427" lon="2.22838">
        <ele>147</ele>
        <time>2016-12-04T08:40:09.272Z</time>
      </trkpt>
      <trkpt lat="47.76427" lon="2.22838">
        <ele>147</ele>
        <time>2016-12-04T08:40:10.266Z</time>
      </trkpt>
      <trkpt lat="47.76419" lon="2.22849">
        <ele>147</ele>
        <time>2016-12-04T08:40:11.273Z</time>
      </trkpt>
      <trkpt lat="47.76419" lon="2.22849">
        <ele>147</ele>
        <time>2016-12-04T08:40:12.271Z</time>
      </trkpt>
      <trkpt lat="47.76411" lon="2.22859">
        <ele>147</ele>
        <time>2016-12-04T08:40:13.272Z</time>
      </trkpt>
      <trkpt lat="47.76407" lon="2.22864">
        <ele>147</ele>
        <time>2016-12-04T08:40:14.273Z</time>
      </trkpt>
      <trkpt lat="47.76407" lon="2.22864">
        <ele>147</ele>
        <time>2016-12-04T08:40:15.268Z</time>
      </trkpt>
      <trkpt lat="47.764" lon="2.22876">
        <ele>147</ele>
        <time>2016-12-04T08:40:16.272Z</time>
      </trkpt>
      <trkpt lat="47.764" lon="2.22876">
        <ele>147</ele>
        <time>2016-12-04T08:40:17.251Z</time>
      </trkpt>
      <trkpt lat="47.76391" lon="2.22888">
        <ele>148</ele>
        <time>2016-12-04T08:40:18.250Z</time>
      </trkpt>
      <trkpt lat="47.76391" lon="2.22888">
        <ele>148</ele>
        <time>2016-12-04T08:40:19.271Z</time>
      </trkpt>
      <trkpt lat="47.76383" lon="2.229">
        <ele>147</ele>
        <time>2016-12-04T08:40:20.270Z</time>
      </trkpt>
      <trkpt lat="47.76378" lon="2.22905">
        <ele>147</ele>
        <time>2016-12-04T08:40:21.273Z</time>
      </trkpt>
      <trkpt lat="47.76378" lon="2.22905">
        <ele>147</ele>
        <time>2016-12-04T08:40:22.269Z</time>
      </trkpt>
      <trkpt lat="47.7637" lon="2.22917">
        <ele>147</ele>
        <time>2016-12-04T08:40:23.272Z</time>
      </trkpt>
      <trkpt lat="47.76365" lon="2.22923">
        <ele>146</ele>
        <time>2016-12-04T08:40:24.273Z</time>
      </trkpt>
      <trkpt lat="47.76365" lon="2.22923">
        <ele>146</ele>
        <time>2016-12-04T08:40:25.269Z</time>
      </trkpt>
      <trkpt lat="47.76357" lon="2.22934">
        <ele>146</ele>
        <time>2016-12-04T08:40:26.273Z</time>
      </trkpt>
      <trkpt lat="47.76357" lon="2.22934">
        <ele>146</ele>
        <time>2016-12-04T08:40:27.265Z</time>
      </trkpt>
      <trkpt lat="47.76349" lon="2.22945">
        <ele>146</ele>
        <time>2016-12-04T08:40:28.272Z</time>
      </trkpt>
      <trkpt lat="47.76349" lon="2.22945">
        <ele>146</ele>
        <time>2016-12-04T08:40:29.270Z</time>
      </trkpt>
      <trkpt lat="47.7634" lon="2.22955">
        <ele>146</ele>
        <time>2016-12-04T08:40:30.273Z</time>
      </trkpt>
      <trkpt lat="47.7634" lon="2.22955">
        <ele>146</ele>
        <time>2016-12-04T08:40:31.267Z</time>
      </trkpt>
      <trkpt lat="47.76332" lon="2.22967">
        <ele>146</ele>
        <time>2016-12-04T08:40:32.273Z</time>
      </trkpt>
      <trkpt lat="47.76332" lon="2.22967">
        <ele>146</ele>
        <time>2016-12-04T08:40:33.270Z</time>
      </trkpt>
      <trkpt lat="47.76322" lon="2.22977">
        <ele>145</ele>
        <time>2016-12-04T08:40:34.269Z</time>
      </trkpt>
      <trkpt lat="47.76318" lon="2.22983">
        <ele>145</ele>
        <time>2016-12-04T08:40:35.272Z</time>
      </trkpt>
      <trkpt lat="47.76318" lon="2.22983">
        <ele>145</ele>
        <time>2016-12-04T08:40:36.253Z</time>
      </trkpt>
      <trkpt lat="47.76309" lon="2.22994">
        <ele>144</ele>
        <time>2016-12-04T08:40:37.245Z</time>
      </trkpt>
      <trkpt lat="47.76304" lon="2.23">
        <ele>144</ele>
        <time>2016-12-04T08:40:38.247Z</time>
      </trkpt>
      <trkpt lat="47.76304" lon="2.23">
        <ele>144</ele>
        <time>2016-12-04T08:40:39.269Z</time>
      </trkpt>
      <trkpt lat="47.76296" lon="2.23012">
        <ele>143</ele>
        <time>2016-12-04T08:40:40.271Z</time>
      </trkpt>
      <trkpt lat="47.76296" lon="2.23012">
        <ele>143</ele>
        <time>2016-12-04T08:40:41.267Z</time>
      </trkpt>
      <trkpt lat="47.76287" lon="2.23022">
        <ele>143</ele>
        <time>2016-12-04T08:40:42.266Z</time>
      </trkpt>
      <trkpt lat="47.76287" lon="2.23022">
        <ele>143</ele>
        <time>2016-12-04T08:40:43.267Z</time>
      </trkpt>
      <trkpt lat="47.76278" lon="2.23033">
        <ele>142</ele>
        <time>2016-12-04T08:40:44.272Z</time>
      </trkpt>
      <trkpt lat="47.76278" lon="2.23033">
        <ele>142</ele>
        <time>2016-12-04T08:40:45.269Z</time>
      </trkpt>
      <trkpt lat="47.7627" lon="2.23045">
        <ele>142</ele>
        <time>2016-12-04T08:40:46.270Z</time>
      </trkpt>
      <trkpt lat="47.7627" lon="2.23045">
        <ele>142</ele>
        <time>2016-12-04T08:40:47.274Z</time>
      </trkpt>
      <trkpt lat="47.76261" lon="2.23056">
        <ele>142</ele>
        <time>2016-12-04T08:40:48.246Z</time>
      </trkpt>
      <trkpt lat="47.76261" lon="2.23056">
        <ele>142</ele>
        <time>2016-12-04T08:40:49.269Z</time>
      </trkpt>
      <trkpt lat="47.76253" lon="2.23067">
        <ele>142</ele>
        <time>2016-12-04T08:40:50.273Z</time>
      </trkpt>
      <trkpt lat="47.76253" lon="2.23067">
        <ele>142</ele>
        <time>2016-12-04T08:40:51.274Z</time>
      </trkpt>
      <trkpt lat="47.76245" lon="2.2308">
        <ele>142</ele>
        <time>2016-12-04T08:40:52.269Z</time>
      </trkpt>
      <trkpt lat="47.76241" lon="2.23085">
        <ele>141</ele>
        <time>2016-12-04T08:40:53.272Z</time>
      </trkpt>
      <trkpt lat="47.76237" lon="2.23091">
        <ele>142</ele>
        <time>2016-12-04T08:40:54.273Z</time>
      </trkpt>
      <trkpt lat="47.76237" lon="2.23091">
        <ele>142</ele>
        <time>2016-12-04T08:40:55.270Z</time>
      </trkpt>
      <trkpt lat="47.7623" lon="2.23101">
        <ele>141</ele>
        <time>2016-12-04T08:40:56.273Z</time>
      </trkpt>
      <trkpt lat="47.7623" lon="2.23101">
        <ele>141</ele>
        <time>2016-12-04T08:40:57.268Z</time>
      </trkpt>
      <trkpt lat="47.76222" lon="2.23112">
        <ele>141</ele>
        <time>2016-12-04T08:40:58.272Z</time>
      </trkpt>
      <trkpt lat="47.76222" lon="2.23112">
        <ele>141</ele>
        <time>2016-12-04T08:40:59.269Z</time>
      </trkpt>
      <trkpt lat="47.76214" lon="2.23122">
        <ele>141</ele>
        <time>2016-12-04T08:41:00.274Z</time>
      </trkpt>
      <trkpt lat="47.76214" lon="2.23122">
        <ele>141</ele>
        <time>2016-12-04T08:41:01.268Z</time>
      </trkpt>
      <trkpt lat="47.76206" lon="2.23132">
        <ele>141</ele>
        <time>2016-12-04T08:41:02.273Z</time>
      </trkpt>
      <trkpt lat="47.76206" lon="2.23132">
        <ele>141</ele>
        <time>2016-12-04T08:41:03.269Z</time>
      </trkpt>
      <trkpt lat="47.76198" lon="2.23143">
        <ele>141</ele>
        <time>2016-12-04T08:41:04.272Z</time>
      </trkpt>
      <trkpt lat="47.76198" lon="2.23143">
        <ele>141</ele>
        <time>2016-12-04T08:41:05.266Z</time>
      </trkpt>
      <trkpt lat="47.7619" lon="2.23153">
        <ele>141</ele>
        <time>2016-12-04T08:41:06.254Z</time>
      </trkpt>
      <trkpt lat="47.7619" lon="2.23153">
        <ele>141</ele>
        <time>2016-12-04T08:41:07.246Z</time>
      </trkpt>
      <trkpt lat="47.76182" lon="2.23164">
        <ele>142</ele>
        <time>2016-12-04T08:41:08.274Z</time>
      </trkpt>
      <trkpt lat="47.76182" lon="2.23164">
        <ele>142</ele>
        <time>2016-12-04T08:41:09.274Z</time>
      </trkpt>
      <trkpt lat="47.76175" lon="2.23174">
        <ele>142</ele>
        <time>2016-12-04T08:41:10.272Z</time>
      </trkpt>
      <trkpt lat="47.76172" lon="2.23178">
        <ele>142</ele>
        <time>2016-12-04T08:41:11.274Z</time>
      </trkpt>
      <trkpt lat="47.76168" lon="2.23182">
        <ele>142</ele>
        <time>2016-12-04T08:41:12.274Z</time>
      </trkpt>
      <trkpt lat="47.76168" lon="2.23182">
        <ele>142</ele>
        <time>2016-12-04T08:41:13.270Z</time>
      </trkpt>
      <trkpt lat="47.76163" lon="2.23189">
        <ele>142</ele>
        <time>2016-12-04T08:41:14.272Z</time>
      </trkpt>
      <trkpt lat="47.76163" lon="2.23189">
        <ele>142</ele>
        <time>2016-12-04T08:41:15.270Z</time>
      </trkpt>
      <trkpt lat="47.76158" lon="2.23196">
        <ele>143</ele>
        <time>2016-12-04T08:41:16.246Z</time>
      </trkpt>
      <trkpt lat="47.76158" lon="2.23199">
        <ele>143</ele>
        <time>2016-12-04T08:41:17.247Z</time>
      </trkpt>
      <trkpt lat="47.76159" lon="2.23203">
        <ele>143</ele>
        <time>2016-12-04T08:41:18.274Z</time>
      </trkpt>
      <trkpt lat="47.76159" lon="2.23203">
        <ele>143</ele>
        <time>2016-12-04T08:41:19.271Z</time>
      </trkpt>
      <trkpt lat="47.76162" lon="2.2321">
        <ele>143</ele>
        <time>2016-12-04T08:41:20.270Z</time>
      </trkpt>
      <trkpt lat="47.76162" lon="2.2321">
        <ele>143</ele>
        <time>2016-12-04T08:41:21.270Z</time>
      </trkpt>
      <trkpt lat="47.76165" lon="2.23219">
        <ele>143</ele>
        <time>2016-12-04T08:41:22.273Z</time>
      </trkpt>
      <trkpt lat="47.76165" lon="2.23219">
        <ele>143</ele>
        <time>2016-12-04T08:41:23.269Z</time>
      </trkpt>
      <trkpt lat="47.76168" lon="2.2323">
        <ele>142</ele>
        <time>2016-12-04T08:41:24.272Z</time>
      </trkpt>
      <trkpt lat="47.76168" lon="2.2323">
        <ele>142</ele>
        <time>2016-12-04T08:41:25.269Z</time>
      </trkpt>
      <trkpt lat="47.76172" lon="2.2324">
        <ele>142</ele>
        <time>2016-12-04T08:41:26.273Z</time>
      </trkpt>
      <trkpt lat="47.76175" lon="2.23246">
        <ele>142</ele>
        <time>2016-12-04T08:41:27.273Z</time>
      </trkpt>
      <trkpt lat="47.76175" lon="2.23246">
        <ele>142</ele>
        <time>2016-12-04T08:41:28.267Z</time>
      </trkpt>
      <trkpt lat="47.76182" lon="2.23256">
        <ele>143</ele>
        <time>2016-12-04T08:41:29.272Z</time>
      </trkpt>
      <trkpt lat="47.76186" lon="2.2326">
        <ele>142</ele>
        <time>2016-12-04T08:41:30.274Z</time>
      </trkpt>
      <trkpt lat="47.76186" lon="2.2326">
        <ele>142</ele>
        <time>2016-12-04T08:41:31.271Z</time>
      </trkpt>
      <trkpt lat="47.76194" lon="2.23267">
        <ele>143</ele>
        <time>2016-12-04T08:41:32.273Z</time>
      </trkpt>
      <trkpt lat="47.76194" lon="2.23267">
        <ele>143</ele>
        <time>2016-12-04T08:41:33.270Z</time>
      </trkpt>
      <trkpt lat="47.76202" lon="2.23272">
        <ele>143</ele>
        <time>2016-12-04T08:41:34.272Z</time>
      </trkpt>
      <trkpt lat="47.76202" lon="2.23272">
        <ele>143</ele>
        <time>2016-12-04T08:41:35.270Z</time>
      </trkpt>
      <trkpt lat="47.76208" lon="2.23277">
        <ele>143</ele>
        <time>2016-12-04T08:41:36.273Z</time>
      </trkpt>
      <trkpt lat="47.76208" lon="2.23277">
        <ele>143</ele>
        <time>2016-12-04T08:41:37.267Z</time>
      </trkpt>
      <trkpt lat="47.76215" lon="2.23281">
        <ele>143</ele>
        <time>2016-12-04T08:41:38.272Z</time>
      </trkpt>
      <trkpt lat="47.76219" lon="2.23284">
        <ele>143</ele>
        <time>2016-12-04T08:41:39.273Z</time>
      </trkpt>
      <trkpt lat="47.76219" lon="2.23284">
        <ele>143</ele>
        <time>2016-12-04T08:41:40.270Z</time>
      </trkpt>
      <trkpt lat="47.76228" lon="2.23287">
        <ele>143</ele>
        <time>2016-12-04T08:41:41.284Z</time>
      </trkpt>
      <trkpt lat="47.76232" lon="2.23288">
        <ele>143</ele>
        <time>2016-12-04T08:41:42.274Z</time>
      </trkpt>
      <trkpt lat="47.76232" lon="2.23288">
        <ele>143</ele>
        <time>2016-12-04T08:41:43.270Z</time>
      </trkpt>
      <trkpt lat="47.7624" lon="2.23291">
        <ele>142</ele>
        <time>2016-12-04T08:41:44.273Z</time>
      </trkpt>
      <trkpt lat="47.7624" lon="2.23291">
        <ele>142</ele>
        <time>2016-12-04T08:41:45.270Z</time>
      </trkpt>
      <trkpt lat="47.76247" lon="2.23292">
        <ele>142</ele>
        <time>2016-12-04T08:41:46.272Z</time>
      </trkpt>
      <trkpt lat="47.76247" lon="2.23292">
        <ele>142</ele>
        <time>2016-12-04T08:41:47.271Z</time>
      </trkpt>
      <trkpt lat="47.76253" lon="2.23289">
        <ele>142</ele>
        <time>2016-12-04T08:41:48.273Z</time>
      </trkpt>
      <trkpt lat="47.76253" lon="2.23289">
        <ele>142</ele>
        <time>2016-12-04T08:41:49.271Z</time>
      </trkpt>
      <trkpt lat="47.7626" lon="2.23283">
        <ele>143</ele>
        <time>2016-12-04T08:41:50.270Z</time>
      </trkpt>
      <trkpt lat="47.7626" lon="2.23283">
        <ele>143</ele>
        <time>2016-12-04T08:41:51.274Z</time>
      </trkpt>
      <trkpt lat="47.76266" lon="2.23278">
        <ele>143</ele>
        <time>2016-12-04T08:41:52.281Z</time>
      </trkpt>
      <trkpt lat="47.76266" lon="2.23278">
        <ele>143</ele>
        <time>2016-12-04T08:41:53.273Z</time>
      </trkpt>
      <trkpt lat="47.76274" lon="2.23275">
        <ele>143</ele>
        <time>2016-12-04T08:41:54.274Z</time>
      </trkpt>
      <trkpt lat="47.76278" lon="2.23275">
        <ele>143</ele>
        <time>2016-12-04T08:41:55.272Z</time>
      </trkpt>
      <trkpt lat="47.76278" lon="2.23275">
        <ele>143</ele>
        <time>2016-12-04T08:41:56.253Z</time>
      </trkpt>
      <trkpt lat="47.76285" lon="2.23275">
        <ele>144</ele>
        <time>2016-12-04T08:41:57.281Z</time>
      </trkpt>
      <trkpt lat="47.76285" lon="2.23275">
        <ele>144</ele>
        <time>2016-12-04T08:41:58.270Z</time>
      </trkpt>
      <trkpt lat="47.76292" lon="2.23276">
        <ele>145</ele>
        <time>2016-12-04T08:41:59.272Z</time>
      </trkpt>
      <trkpt lat="47.76295" lon="2.23277">
        <ele>145</ele>
        <time>2016-12-04T08:42:00.274Z</time>
      </trkpt>
      <trkpt lat="47.76295" lon="2.23277">
        <ele>145</ele>
        <time>2016-12-04T08:42:01.271Z</time>
      </trkpt>
      <trkpt lat="47.76301" lon="2.23281">
        <ele>145</ele>
        <time>2016-12-04T08:42:02.273Z</time>
      </trkpt>
      <trkpt lat="47.76301" lon="2.23281">
        <ele>145</ele>
        <time>2016-12-04T08:42:03.267Z</time>
      </trkpt>
      <trkpt lat="47.76308" lon="2.23286">
        <ele>145</ele>
        <time>2016-12-04T08:42:04.281Z</time>
      </trkpt>
      <trkpt lat="47.76308" lon="2.23286">
        <ele>145</ele>
        <time>2016-12-04T08:42:05.270Z</time>
      </trkpt>
      <trkpt lat="47.76315" lon="2.23291">
        <ele>145</ele>
        <time>2016-12-04T08:42:06.274Z</time>
      </trkpt>
      <trkpt lat="47.76315" lon="2.23291">
        <ele>145</ele>
        <time>2016-12-04T08:42:07.270Z</time>
      </trkpt>
      <trkpt lat="47.76323" lon="2.23296">
        <ele>144</ele>
        <time>2016-12-04T08:42:08.273Z</time>
      </trkpt>
      <trkpt lat="47.76328" lon="2.23299">
        <ele>144</ele>
        <time>2016-12-04T08:42:09.273Z</time>
      </trkpt>
      <trkpt lat="47.76328" lon="2.23299">
        <ele>144</ele>
        <time>2016-12-04T08:42:10.270Z</time>
      </trkpt>
      <trkpt lat="47.76335" lon="2.23304">
        <ele>143</ele>
        <time>2016-12-04T08:42:11.273Z</time>
      </trkpt>
      <trkpt lat="47.76335" lon="2.23304">
        <ele>143</ele>
        <time>2016-12-04T08:42:12.266Z</time>
      </trkpt>
      <trkpt lat="47.76343" lon="2.2331">
        <ele>142</ele>
        <time>2016-12-04T08:42:13.273Z</time>
      </trkpt>
      <trkpt lat="47.76349" lon="2.23314">
        <ele>141</ele>
        <time>2016-12-04T08:42:14.271Z</time>
      </trkpt>
      <trkpt lat="47.76349" lon="2.23314">
        <ele>141</ele>
        <time>2016-12-04T08:42:15.271Z</time>
      </trkpt>
      <trkpt lat="47.76359" lon="2.23322">
        <ele>140</ele>
        <time>2016-12-04T08:42:16.274Z</time>
      </trkpt>
      <trkpt lat="47.76359" lon="2.23322">
        <ele>140</ele>
        <time>2016-12-04T08:42:17.275Z</time>
      </trkpt>
      <trkpt lat="47.76367" lon="2.23331">
        <ele>140</ele>
        <time>2016-12-04T08:42:18.273Z</time>
      </trkpt>
      <trkpt lat="47.76367" lon="2.23331">
        <ele>140</ele>
        <time>2016-12-04T08:42:19.270Z</time>
      </trkpt>
      <trkpt lat="47.76373" lon="2.23341">
        <ele>139</ele>
        <time>2016-12-04T08:42:20.274Z</time>
      </trkpt>
      <trkpt lat="47.76373" lon="2.23341">
        <ele>139</ele>
        <time>2016-12-04T08:42:21.271Z</time>
      </trkpt>
      <trkpt lat="47.76379" lon="2.23348">
        <ele>138</ele>
        <time>2016-12-04T08:42:22.273Z</time>
      </trkpt>
      <trkpt lat="47.76379" lon="2.23348">
        <ele>138</ele>
        <time>2016-12-04T08:42:23.268Z</time>
      </trkpt>
      <trkpt lat="47.76384" lon="2.23356">
        <ele>138</ele>
        <time>2016-12-04T08:42:24.273Z</time>
      </trkpt>
      <trkpt lat="47.76384" lon="2.23356">
        <ele>138</ele>
        <time>2016-12-04T08:42:25.271Z</time>
      </trkpt>
      <trkpt lat="47.76389" lon="2.23364">
        <ele>138</ele>
        <time>2016-12-04T08:42:26.273Z</time>
      </trkpt>
      <trkpt lat="47.76392" lon="2.23369">
        <ele>139</ele>
        <time>2016-12-04T08:42:27.272Z</time>
      </trkpt>
      <trkpt lat="47.76395" lon="2.23374">
        <ele>139</ele>
        <time>2016-12-04T08:42:28.270Z</time>
      </trkpt>
      <trkpt lat="47.76395" lon="2.23374">
        <ele>139</ele>
        <time>2016-12-04T08:42:29.270Z</time>
      </trkpt>
      <trkpt lat="47.76401" lon="2.23382">
        <ele>139</ele>
        <time>2016-12-04T08:42:30.274Z</time>
      </trkpt>
      <trkpt lat="47.76401" lon="2.23382">
        <ele>139</ele>
        <time>2016-12-04T08:42:31.271Z</time>
      </trkpt>
      <trkpt lat="47.76408" lon="2.23391">
        <ele>139</ele>
        <time>2016-12-04T08:42:32.273Z</time>
      </trkpt>
      <trkpt lat="47.76408" lon="2.23391">
        <ele>139</ele>
        <time>2016-12-04T08:42:33.270Z</time>
      </trkpt>
      <trkpt lat="47.76413" lon="2.23399">
        <ele>138</ele>
        <time>2016-12-04T08:42:34.273Z</time>
      </trkpt>
      <trkpt lat="47.76413" lon="2.23399">
        <ele>138</ele>
        <time>2016-12-04T08:42:35.270Z</time>
      </trkpt>
      <trkpt lat="47.76419" lon="2.23405">
        <ele>139</ele>
        <time>2016-12-04T08:42:36.275Z</time>
      </trkpt>
      <trkpt lat="47.76419" lon="2.23405">
        <ele>139</ele>
        <time>2016-12-04T08:42:37.268Z</time>
      </trkpt>
      <trkpt lat="47.76425" lon="2.23412">
        <ele>139</ele>
        <time>2016-12-04T08:42:38.270Z</time>
      </trkpt>
      <trkpt lat="47.76425" lon="2.23412">
        <ele>139</ele>
        <time>2016-12-04T08:42:39.270Z</time>
      </trkpt>
      <trkpt lat="47.76431" lon="2.23421">
        <ele>139</ele>
        <time>2016-12-04T08:42:40.273Z</time>
      </trkpt>
      <trkpt lat="47.76431" lon="2.23421">
        <ele>139</ele>
        <time>2016-12-04T08:42:41.267Z</time>
      </trkpt>
      <trkpt lat="47.76437" lon="2.23429">
        <ele>140</ele>
        <time>2016-12-04T08:42:42.274Z</time>
      </trkpt>
      <trkpt lat="47.76437" lon="2.23429">
        <ele>140</ele>
        <time>2016-12-04T08:42:43.276Z</time>
      </trkpt>
      <trkpt lat="47.76443" lon="2.23438">
        <ele>140</ele>
        <time>2016-12-04T08:42:44.274Z</time>
      </trkpt>
      <trkpt lat="47.76443" lon="2.23438">
        <ele>140</ele>
        <time>2016-12-04T08:42:45.268Z</time>
      </trkpt>
      <trkpt lat="47.76449" lon="2.23444">
        <ele>140</ele>
        <time>2016-12-04T08:42:46.274Z</time>
      </trkpt>
      <trkpt lat="47.76449" lon="2.23444">
        <ele>140</ele>
        <time>2016-12-04T08:42:47.271Z</time>
      </trkpt>
      <trkpt lat="47.76457" lon="2.23452">
        <ele>140</ele>
        <time>2016-12-04T08:42:48.279Z</time>
      </trkpt>
      <trkpt lat="47.76457" lon="2.23452">
        <ele>140</ele>
        <time>2016-12-04T08:42:49.268Z</time>
      </trkpt>
      <trkpt lat="47.76463" lon="2.2346">
        <ele>141</ele>
        <time>2016-12-04T08:42:50.270Z</time>
      </trkpt>
      <trkpt lat="47.76463" lon="2.2346">
        <ele>141</ele>
        <time>2016-12-04T08:42:51.271Z</time>
      </trkpt>
      <trkpt lat="47.76469" lon="2.23467">
        <ele>141</ele>
        <time>2016-12-04T08:42:52.274Z</time>
      </trkpt>
      <trkpt lat="47.76469" lon="2.23467">
        <ele>141</ele>
        <time>2016-12-04T08:42:53.271Z</time>
      </trkpt>
      <trkpt lat="47.76476" lon="2.23474">
        <ele>141</ele>
        <time>2016-12-04T08:42:54.274Z</time>
      </trkpt>
      <trkpt lat="47.76476" lon="2.23474">
        <ele>141</ele>
        <time>2016-12-04T08:42:55.271Z</time>
      </trkpt>
      <trkpt lat="47.76481" lon="2.23483">
        <ele>141</ele>
        <time>2016-12-04T08:42:56.280Z</time>
      </trkpt>
      <trkpt lat="47.76484" lon="2.23486">
        <ele>141</ele>
        <time>2016-12-04T08:42:57.275Z</time>
      </trkpt>
      <trkpt lat="47.76484" lon="2.23486">
        <ele>141</ele>
        <time>2016-12-04T08:42:58.270Z</time>
      </trkpt>
      <trkpt lat="47.76489" lon="2.23493">
        <ele>141</ele>
        <time>2016-12-04T08:42:59.273Z</time>
      </trkpt>
      <trkpt lat="47.76492" lon="2.23496">
        <ele>141</ele>
        <time>2016-12-04T08:43:00.274Z</time>
      </trkpt>
      <trkpt lat="47.76492" lon="2.23496">
        <ele>141</ele>
        <time>2016-12-04T08:43:01.267Z</time>
      </trkpt>
      <trkpt lat="47.76497" lon="2.235">
        <ele>141</ele>
        <time>2016-12-04T08:43:02.273Z</time>
      </trkpt>
      <trkpt lat="47.76497" lon="2.235">
        <ele>141</ele>
        <time>2016-12-04T08:43:03.271Z</time>
      </trkpt>
      <trkpt lat="47.765" lon="2.23505">
        <ele>140</ele>
        <time>2016-12-04T08:43:04.273Z</time>
      </trkpt>
      <trkpt lat="47.765" lon="2.23505">
        <ele>140</ele>
        <time>2016-12-04T08:43:05.270Z</time>
      </trkpt>
      <trkpt lat="47.76506" lon="2.2351">
        <ele>140</ele>
        <time>2016-12-04T08:43:06.273Z</time>
      </trkpt>
      <trkpt lat="47.76506" lon="2.2351">
        <ele>140</ele>
        <time>2016-12-04T08:43:07.254Z</time>
      </trkpt>
      <trkpt lat="47.76512" lon="2.23516">
        <ele>140</ele>
        <time>2016-12-04T08:43:08.243Z</time>
      </trkpt>
      <trkpt lat="47.76512" lon="2.23516">
        <ele>140</ele>
        <time>2016-12-04T08:43:09.249Z</time>
      </trkpt>
      <trkpt lat="47.76519" lon="2.23521">
        <ele>140</ele>
        <time>2016-12-04T08:43:10.278Z</time>
      </trkpt>
      <trkpt lat="47.76519" lon="2.23521">
        <ele>140</ele>
        <time>2016-12-04T08:43:11.271Z</time>
      </trkpt>
      <trkpt lat="47.76525" lon="2.23527">
        <ele>140</ele>
        <time>2016-12-04T08:43:12.279Z</time>
      </trkpt>
      <trkpt lat="47.76525" lon="2.23527">
        <ele>140</ele>
        <time>2016-12-04T08:43:13.271Z</time>
      </trkpt>
      <trkpt lat="47.76531" lon="2.23533">
        <ele>140</ele>
        <time>2016-12-04T08:43:14.271Z</time>
      </trkpt>
      <trkpt lat="47.76531" lon="2.23533">
        <ele>140</ele>
        <time>2016-12-04T08:43:15.272Z</time>
      </trkpt>
      <trkpt lat="47.76539" lon="2.23539">
        <ele>140</ele>
        <time>2016-12-04T08:43:16.246Z</time>
      </trkpt>
      <trkpt lat="47.76543" lon="2.23541">
        <ele>140</ele>
        <time>2016-12-04T08:43:17.274Z</time>
      </trkpt>
      <trkpt lat="47.76546" lon="2.23543">
        <ele>140</ele>
        <time>2016-12-04T08:43:18.274Z</time>
      </trkpt>
      <trkpt lat="47.76546" lon="2.23543">
        <ele>140</ele>
        <time>2016-12-04T08:43:19.271Z</time>
      </trkpt>
      <trkpt lat="47.76552" lon="2.23548">
        <ele>140</ele>
        <time>2016-12-04T08:43:20.255Z</time>
      </trkpt>
      <trkpt lat="47.76552" lon="2.23548">
        <ele>140</ele>
        <time>2016-12-04T08:43:21.278Z</time>
      </trkpt>
      <trkpt lat="47.76559" lon="2.23554">
        <ele>140</ele>
        <time>2016-12-04T08:43:22.274Z</time>
      </trkpt>
      <trkpt lat="47.76559" lon="2.23554">
        <ele>140</ele>
        <time>2016-12-04T08:43:23.274Z</time>
      </trkpt>
      <trkpt lat="47.76559" lon="2.23554">
        <ele>140</ele>
        <time>2016-12-04T08:43:24.267Z</time>
      </trkpt>
      <trkpt lat="47.76567" lon="2.23559">
        <ele>140</ele>
        <time>2016-12-04T08:43:25.277Z</time>
      </trkpt>
      <trkpt lat="47.76574" lon="2.23564">
        <ele>140</ele>
        <time>2016-12-04T08:43:26.247Z</time>
      </trkpt>
      <trkpt lat="47.76577" lon="2.23567">
        <ele>140</ele>
        <time>2016-12-04T08:43:27.273Z</time>
      </trkpt>
      <trkpt lat="47.7658" lon="2.2357">
        <ele>140</ele>
        <time>2016-12-04T08:43:28.274Z</time>
      </trkpt>
      <trkpt lat="47.7658" lon="2.2357">
        <ele>140</ele>
        <time>2016-12-04T08:43:29.271Z</time>
      </trkpt>
      <trkpt lat="47.76587" lon="2.23574">
        <ele>140</ele>
        <time>2016-12-04T08:43:30.275Z</time>
      </trkpt>
      <trkpt lat="47.76587" lon="2.23574">
        <ele>140</ele>
        <time>2016-12-04T08:43:31.269Z</time>
      </trkpt>
      <trkpt lat="47.76594" lon="2.2358">
        <ele>139</ele>
        <time>2016-12-04T08:43:32.273Z</time>
      </trkpt>
      <trkpt lat="47.76594" lon="2.2358">
        <ele>139</ele>
        <time>2016-12-04T08:43:33.271Z</time>
      </trkpt>
      <trkpt lat="47.76603" lon="2.23585">
        <ele>139</ele>
        <time>2016-12-04T08:43:34.273Z</time>
      </trkpt>
      <trkpt lat="47.76603" lon="2.23585">
        <ele>139</ele>
        <time>2016-12-04T08:43:35.268Z</time>
      </trkpt>
      <trkpt lat="47.7661" lon="2.2359">
        <ele>139</ele>
        <time>2016-12-04T08:43:36.255Z</time>
      </trkpt>
      <trkpt lat="47.7661" lon="2.2359">
        <ele>139</ele>
        <time>2016-12-04T08:43:37.247Z</time>
      </trkpt>
      <trkpt lat="47.76617" lon="2.23594">
        <ele>139</ele>
        <time>2016-12-04T08:43:38.275Z</time>
      </trkpt>
      <trkpt lat="47.76617" lon="2.23594">
        <ele>139</ele>
        <time>2016-12-04T08:43:39.270Z</time>
      </trkpt>
      <trkpt lat="47.76623" lon="2.23598">
        <ele>139</ele>
        <time>2016-12-04T08:43:40.273Z</time>
      </trkpt>
      <trkpt lat="47.76623" lon="2.23598">
        <ele>139</ele>
        <time>2016-12-04T08:43:41.272Z</time>
      </trkpt>
      <trkpt lat="47.76631" lon="2.23601">
        <ele>139</ele>
        <time>2016-12-04T08:43:42.274Z</time>
      </trkpt>
      <trkpt lat="47.76631" lon="2.23601">
        <ele>139</ele>
        <time>2016-12-04T08:43:43.271Z</time>
      </trkpt>
      <trkpt lat="47.76639" lon="2.23603">
        <ele>139</ele>
        <time>2016-12-04T08:43:44.271Z</time>
      </trkpt>
      <trkpt lat="47.76639" lon="2.23603">
        <ele>139</ele>
        <time>2016-12-04T08:43:45.271Z</time>
      </trkpt>
      <trkpt lat="47.76647" lon="2.23605">
        <ele>139</ele>
        <time>2016-12-04T08:43:46.274Z</time>
      </trkpt>
      <trkpt lat="47.76647" lon="2.23605">
        <ele>139</ele>
        <time>2016-12-04T08:43:47.271Z</time>
      </trkpt>
      <trkpt lat="47.76656" lon="2.23609">
        <ele>140</ele>
        <time>2016-12-04T08:43:48.275Z</time>
      </trkpt>
      <trkpt lat="47.76656" lon="2.23609">
        <ele>140</ele>
        <time>2016-12-04T08:43:49.268Z</time>
      </trkpt>
      <trkpt lat="47.76666" lon="2.2361">
        <ele>140</ele>
        <time>2016-12-04T08:43:50.245Z</time>
      </trkpt>
      <trkpt lat="47.76666" lon="2.2361">
        <ele>140</ele>
        <time>2016-12-04T08:43:51.254Z</time>
      </trkpt>
      <trkpt lat="47.76674" lon="2.23609">
        <ele>141</ele>
        <time>2016-12-04T08:43:52.282Z</time>
      </trkpt>
      <trkpt lat="47.76674" lon="2.23609">
        <ele>141</ele>
        <time>2016-12-04T08:43:53.268Z</time>
      </trkpt>
      <trkpt lat="47.76682" lon="2.23607">
        <ele>141</ele>
        <time>2016-12-04T08:43:54.274Z</time>
      </trkpt>
      <trkpt lat="47.76682" lon="2.23607">
        <ele>141</ele>
        <time>2016-12-04T08:43:55.271Z</time>
      </trkpt>
      <trkpt lat="47.7669" lon="2.23606">
        <ele>141</ele>
        <time>2016-12-04T08:43:56.280Z</time>
      </trkpt>
      <trkpt lat="47.76694" lon="2.23605">
        <ele>141</ele>
        <time>2016-12-04T08:43:57.271Z</time>
      </trkpt>
      <trkpt lat="47.76694" lon="2.23605">
        <ele>141</ele>
        <time>2016-12-04T08:43:58.271Z</time>
      </trkpt>
      <trkpt lat="47.76701" lon="2.23602">
        <ele>142</ele>
        <time>2016-12-04T08:43:59.272Z</time>
      </trkpt>
      <trkpt lat="47.76704" lon="2.23601">
        <ele>143</ele>
        <time>2016-12-04T08:44:00.275Z</time>
      </trkpt>
      <trkpt lat="47.76704" lon="2.23601">
        <ele>143</ele>
        <time>2016-12-04T08:44:01.266Z</time>
      </trkpt>
      <trkpt lat="47.76712" lon="2.23598">
        <ele>143</ele>
        <time>2016-12-04T08:44:02.253Z</time>
      </trkpt>
      <trkpt lat="47.76715" lon="2.23598">
        <ele>142</ele>
        <time>2016-12-04T08:44:03.247Z</time>
      </trkpt>
      <trkpt lat="47.76715" lon="2.23598">
        <ele>142</ele>
        <time>2016-12-04T08:44:04.271Z</time>
      </trkpt>
      <trkpt lat="47.76722" lon="2.23597">
        <ele>142</ele>
        <time>2016-12-04T08:44:05.273Z</time>
      </trkpt>
      <trkpt lat="47.76722" lon="2.23597">
        <ele>142</ele>
        <time>2016-12-04T08:44:06.255Z</time>
      </trkpt>
      <trkpt lat="47.76729" lon="2.23597">
        <ele>143</ele>
        <time>2016-12-04T08:44:07.283Z</time>
      </trkpt>
      <trkpt lat="47.76732" lon="2.23596">
        <ele>143</ele>
        <time>2016-12-04T08:44:08.274Z</time>
      </trkpt>
      <trkpt lat="47.76732" lon="2.23596">
        <ele>143</ele>
        <time>2016-12-04T08:44:09.264Z</time>
      </trkpt>
      <trkpt lat="47.76739" lon="2.23595">
        <ele>143</ele>
        <time>2016-12-04T08:44:10.247Z</time>
      </trkpt>
      <trkpt lat="47.76742" lon="2.23595">
        <ele>143</ele>
        <time>2016-12-04T08:44:11.274Z</time>
      </trkpt>
      <trkpt lat="47.76745" lon="2.23595">
        <ele>143</ele>
        <time>2016-12-04T08:44:12.274Z</time>
      </trkpt>
      <trkpt lat="47.76745" lon="2.23595">
        <ele>143</ele>
        <time>2016-12-04T08:44:13.272Z</time>
      </trkpt>
      <trkpt lat="47.76752" lon="2.23596">
        <ele>143</ele>
        <time>2016-12-04T08:44:14.274Z</time>
      </trkpt>
      <trkpt lat="47.76752" lon="2.23596">
        <ele>143</ele>
        <time>2016-12-04T08:44:15.272Z</time>
      </trkpt>
      <trkpt lat="47.76758" lon="2.23599">
        <ele>143</ele>
        <time>2016-12-04T08:44:16.247Z</time>
      </trkpt>
      <trkpt lat="47.76761" lon="2.23601">
        <ele>142</ele>
        <time>2016-12-04T08:44:17.273Z</time>
      </trkpt>
      <trkpt lat="47.76765" lon="2.23604">
        <ele>143</ele>
        <time>2016-12-04T08:44:18.275Z</time>
      </trkpt>
      <trkpt lat="47.76769" lon="2.23607">
        <ele>143</ele>
        <time>2016-12-04T08:44:19.260Z</time>
      </trkpt>
      <trkpt lat="47.76773" lon="2.2361">
        <ele>143</ele>
        <time>2016-12-04T08:44:20.249Z</time>
      </trkpt>
      <trkpt lat="47.76773" lon="2.2361">
        <ele>143</ele>
        <time>2016-12-04T08:44:21.273Z</time>
      </trkpt>
      <trkpt lat="47.76781" lon="2.23614">
        <ele>143</ele>
        <time>2016-12-04T08:44:22.274Z</time>
      </trkpt>
      <trkpt lat="47.76781" lon="2.23614">
        <ele>143</ele>
        <time>2016-12-04T08:44:23.271Z</time>
      </trkpt>
      <trkpt lat="47.76789" lon="2.23619">
        <ele>143</ele>
        <time>2016-12-04T08:44:24.280Z</time>
      </trkpt>
      <trkpt lat="47.76793" lon="2.23621">
        <ele>143</ele>
        <time>2016-12-04T08:44:25.271Z</time>
      </trkpt>
      <trkpt lat="47.76793" lon="2.23621">
        <ele>143</ele>
        <time>2016-12-04T08:44:26.269Z</time>
      </trkpt>
      <trkpt lat="47.76801" lon="2.23625">
        <ele>143</ele>
        <time>2016-12-04T08:44:27.274Z</time>
      </trkpt>
      <trkpt lat="47.76804" lon="2.23627">
        <ele>144</ele>
        <time>2016-12-04T08:44:28.274Z</time>
      </trkpt>
      <trkpt lat="47.76804" lon="2.23627">
        <ele>144</ele>
        <time>2016-12-04T08:44:29.268Z</time>
      </trkpt>
      <trkpt lat="47.7681" lon="2.23629">
        <ele>144</ele>
        <time>2016-12-04T08:44:30.251Z</time>
      </trkpt>
      <trkpt lat="47.7681" lon="2.23629">
        <ele>144</ele>
        <time>2016-12-04T08:44:31.272Z</time>
      </trkpt>
      <trkpt lat="47.76817" lon="2.23633">
        <ele>145</ele>
        <time>2016-12-04T08:44:32.274Z</time>
      </trkpt>
      <trkpt lat="47.76817" lon="2.23633">
        <ele>145</ele>
        <time>2016-12-04T08:44:33.270Z</time>
      </trkpt>
      <trkpt lat="47.76824" lon="2.23637">
        <ele>145</ele>
        <time>2016-12-04T08:44:34.274Z</time>
      </trkpt>
      <trkpt lat="47.76824" lon="2.23637">
        <ele>145</ele>
        <time>2016-12-04T08:44:35.272Z</time>
      </trkpt>
      <trkpt lat="47.76831" lon="2.23641">
        <ele>146</ele>
        <time>2016-12-04T08:44:36.275Z</time>
      </trkpt>
      <trkpt lat="47.76835" lon="2.23643">
        <ele>146</ele>
        <time>2016-12-04T08:44:37.274Z</time>
      </trkpt>
      <trkpt lat="47.76835" lon="2.23643">
        <ele>146</ele>
        <time>2016-12-04T08:44:38.266Z</time>
      </trkpt>
      <trkpt lat="47.76837" lon="2.23645">
        <ele>146</ele>
        <time>2016-12-04T08:44:39.279Z</time>
      </trkpt>
      <trkpt lat="47.76842" lon="2.23646">
        <ele>146</ele>
        <time>2016-12-04T08:44:40.274Z</time>
      </trkpt>
      <trkpt lat="47.76845" lon="2.23647">
        <ele>146</ele>
        <time>2016-12-04T08:44:41.271Z</time>
      </trkpt>
      <trkpt lat="47.76848" lon="2.23647">
        <ele>147</ele>
        <time>2016-12-04T08:44:42.276Z</time>
      </trkpt>
      <trkpt lat="47.76848" lon="2.23647">
        <ele>147</ele>
        <time>2016-12-04T08:44:43.271Z</time>
      </trkpt>
      <trkpt lat="47.76856" lon="2.2365">
        <ele>147</ele>
        <time>2016-12-04T08:44:44.274Z</time>
      </trkpt>
      <trkpt lat="47.76856" lon="2.2365">
        <ele>147</ele>
        <time>2016-12-04T08:44:45.272Z</time>
      </trkpt>
      <trkpt lat="47.76863" lon="2.23652">
        <ele>148</ele>
        <time>2016-12-04T08:44:46.269Z</time>
      </trkpt>
      <trkpt lat="47.76866" lon="2.23654">
        <ele>148</ele>
        <time>2016-12-04T08:44:47.275Z</time>
      </trkpt>
      <trkpt lat="47.76869" lon="2.23654">
        <ele>147</ele>
        <time>2016-12-04T08:44:48.272Z</time>
      </trkpt>
      <trkpt lat="47.76869" lon="2.23654">
        <ele>147</ele>
        <time>2016-12-04T08:44:49.271Z</time>
      </trkpt>
      <trkpt lat="47.76873" lon="2.23657">
        <ele>146</ele>
        <time>2016-12-04T08:44:50.274Z</time>
      </trkpt>
      <trkpt lat="47.76875" lon="2.23658">
        <ele>146</ele>
        <time>2016-12-04T08:44:51.275Z</time>
      </trkpt>
      <trkpt lat="47.76875" lon="2.23658">
        <ele>146</ele>
        <time>2016-12-04T08:44:52.271Z</time>
      </trkpt>
      <trkpt lat="47.76879" lon="2.23661">
        <ele>146</ele>
        <time>2016-12-04T08:44:53.274Z</time>
      </trkpt>
      <trkpt lat="47.7688" lon="2.23662">
        <ele>146</ele>
        <time>2016-12-04T08:44:54.272Z</time>
      </trkpt>
      <trkpt lat="47.7688" lon="2.23662">
        <ele>146</ele>
        <time>2016-12-04T08:44:55.269Z</time>
      </trkpt>
      <trkpt lat="47.76883" lon="2.23663">
        <ele>146</ele>
        <time>2016-12-04T08:44:56.276Z</time>
      </trkpt>
      <trkpt lat="47.76883" lon="2.23663">
        <ele>146</ele>
        <time>2016-12-04T08:44:57.272Z</time>
      </trkpt>
      <trkpt lat="47.76885" lon="2.23665">
        <ele>145</ele>
        <time>2016-12-04T08:44:58.274Z</time>
      </trkpt>
      <trkpt lat="47.76885" lon="2.23665">
        <ele>145</ele>
        <time>2016-12-04T08:44:59.269Z</time>
      </trkpt>
      <trkpt lat="47.76885" lon="2.23666">
        <ele>144</ele>
        <time>2016-12-04T08:45:00.272Z</time>
      </trkpt>
      <trkpt lat="47.76885" lon="2.23666">
        <ele>144</ele>
        <time>2016-12-04T08:45:01.271Z</time>
      </trkpt>
      <trkpt lat="47.76885" lon="2.23666">
        <ele>144</ele>
        <time>2016-12-04T08:45:02.274Z</time>
      </trkpt>
      <trkpt lat="47.76887" lon="2.23675">
        <ele>141</ele>
        <time>2016-12-04T08:45:03.264Z</time>
      </trkpt>
      <trkpt lat="47.76887" lon="2.23675">
        <ele>141</ele>
        <time>2016-12-04T08:45:04.263Z</time>
      </trkpt>
      <trkpt lat="47.76885" lon="2.2368">
        <ele>141</ele>
        <time>2016-12-04T08:45:05.265Z</time>
      </trkpt>
      <trkpt lat="47.76882" lon="2.23684">
        <ele>141</ele>
        <time>2016-12-04T08:45:06.280Z</time>
      </trkpt>
      <trkpt lat="47.76879" lon="2.23688">
        <ele>141</ele>
        <time>2016-12-04T08:45:07.274Z</time>
      </trkpt>
      <trkpt lat="47.76879" lon="2.23688">
        <ele>141</ele>
        <time>2016-12-04T08:45:08.265Z</time>
      </trkpt>
      <trkpt lat="47.76872" lon="2.23696">
        <ele>140</ele>
        <time>2016-12-04T08:45:09.265Z</time>
      </trkpt>
      <trkpt lat="47.76872" lon="2.23696">
        <ele>140</ele>
        <time>2016-12-04T08:45:10.262Z</time>
      </trkpt>
      <trkpt lat="47.76865" lon="2.23705">
        <ele>140</ele>
        <time>2016-12-04T08:45:11.265Z</time>
      </trkpt>
      <trkpt lat="47.76862" lon="2.2371">
        <ele>140</ele>
        <time>2016-12-04T08:45:12.265Z</time>
      </trkpt>
      <trkpt lat="47.76862" lon="2.2371">
        <ele>140</ele>
        <time>2016-12-04T08:45:13.263Z</time>
      </trkpt>
      <trkpt lat="47.76855" lon="2.2372">
        <ele>139</ele>
        <time>2016-12-04T08:45:14.264Z</time>
      </trkpt>
      <trkpt lat="47.76855" lon="2.2372">
        <ele>139</ele>
        <time>2016-12-04T08:45:15.263Z</time>
      </trkpt>
      <trkpt lat="47.76849" lon="2.23729">
        <ele>139</ele>
        <time>2016-12-04T08:45:16.267Z</time>
      </trkpt>
      <trkpt lat="47.76846" lon="2.23734">
        <ele>139</ele>
        <time>2016-12-04T08:45:17.265Z</time>
      </trkpt>
      <trkpt lat="47.76846" lon="2.23734">
        <ele>139</ele>
        <time>2016-12-04T08:45:18.263Z</time>
      </trkpt>
      <trkpt lat="47.76841" lon="2.23746">
        <ele>138</ele>
        <time>2016-12-04T08:45:19.265Z</time>
      </trkpt>
      <trkpt lat="47.76841" lon="2.23746">
        <ele>138</ele>
        <time>2016-12-04T08:45:20.263Z</time>
      </trkpt>
      <trkpt lat="47.76835" lon="2.23757">
        <ele>138</ele>
        <time>2016-12-04T08:45:21.266Z</time>
      </trkpt>
      <trkpt lat="47.76831" lon="2.23765">
        <ele>137</ele>
        <time>2016-12-04T08:45:22.264Z</time>
      </trkpt>
      <trkpt lat="47.76827" lon="2.23772">
        <ele>137</ele>
        <time>2016-12-04T08:45:23.263Z</time>
      </trkpt>
      <trkpt lat="47.76827" lon="2.23772">
        <ele>137</ele>
        <time>2016-12-04T08:45:24.263Z</time>
      </trkpt>
      <trkpt lat="47.76815" lon="2.23783">
        <ele>137</ele>
        <time>2016-12-04T08:45:25.265Z</time>
      </trkpt>
      <trkpt lat="47.76809" lon="2.23788">
        <ele>137</ele>
        <time>2016-12-04T08:45:26.265Z</time>
      </trkpt>
      <trkpt lat="47.76803" lon="2.23792">
        <ele>136</ele>
        <time>2016-12-04T08:45:27.246Z</time>
      </trkpt>
      <trkpt lat="47.76803" lon="2.23792">
        <ele>136</ele>
        <time>2016-12-04T08:45:28.267Z</time>
      </trkpt>
      <trkpt lat="47.7679" lon="2.238">
        <ele>136</ele>
        <time>2016-12-04T08:45:29.265Z</time>
      </trkpt>
      <trkpt lat="47.7679" lon="2.238">
        <ele>136</ele>
        <time>2016-12-04T08:45:30.261Z</time>
      </trkpt>
      <trkpt lat="47.76776" lon="2.2381">
        <ele>136</ele>
        <time>2016-12-04T08:45:31.257Z</time>
      </trkpt>
      <trkpt lat="47.7677" lon="2.23814">
        <ele>136</ele>
        <time>2016-12-04T08:45:32.247Z</time>
      </trkpt>
      <trkpt lat="47.76765" lon="2.23818">
        <ele>136</ele>
        <time>2016-12-04T08:45:33.278Z</time>
      </trkpt>
      <trkpt lat="47.76765" lon="2.23818">
        <ele>136</ele>
        <time>2016-12-04T08:45:34.260Z</time>
      </trkpt>
      <trkpt lat="47.7676" lon="2.23829">
        <ele>136</ele>
        <time>2016-12-04T08:45:35.266Z</time>
      </trkpt>
      <trkpt lat="47.7676" lon="2.23829">
        <ele>136</ele>
        <time>2016-12-04T08:45:36.262Z</time>
      </trkpt>
      <trkpt lat="47.76756" lon="2.23841">
        <ele>135</ele>
        <time>2016-12-04T08:45:37.265Z</time>
      </trkpt>
      <trkpt lat="47.76756" lon="2.23841">
        <ele>135</ele>
        <time>2016-12-04T08:45:38.263Z</time>
      </trkpt>
      <trkpt lat="47.76754" lon="2.2385">
        <ele>135</ele>
        <time>2016-12-04T08:45:39.267Z</time>
      </trkpt>
      <trkpt lat="47.76754" lon="2.2385">
        <ele>135</ele>
        <time>2016-12-04T08:45:40.262Z</time>
      </trkpt>
      <trkpt lat="47.76752" lon="2.23859">
        <ele>135</ele>
        <time>2016-12-04T08:45:41.262Z</time>
      </trkpt>
      <trkpt lat="47.76752" lon="2.23863">
        <ele>135</ele>
        <time>2016-12-04T08:45:42.266Z</time>
      </trkpt>
      <trkpt lat="47.76752" lon="2.23863">
        <ele>135</ele>
        <time>2016-12-04T08:45:43.260Z</time>
      </trkpt>
      <trkpt lat="47.76748" lon="2.23874">
        <ele>133</ele>
        <time>2016-12-04T08:45:44.265Z</time>
      </trkpt>
      <trkpt lat="47.76748" lon="2.23874">
        <ele>133</ele>
        <time>2016-12-04T08:45:45.257Z</time>
      </trkpt>
      <trkpt lat="47.76745" lon="2.23884">
        <ele>133</ele>
        <time>2016-12-04T08:45:46.265Z</time>
      </trkpt>
      <trkpt lat="47.76743" lon="2.2389">
        <ele>133</ele>
        <time>2016-12-04T08:45:47.266Z</time>
      </trkpt>
      <trkpt lat="47.76743" lon="2.2389">
        <ele>133</ele>
        <time>2016-12-04T08:45:48.260Z</time>
      </trkpt>
      <trkpt lat="47.7674" lon="2.239">
        <ele>131</ele>
        <time>2016-12-04T08:45:49.265Z</time>
      </trkpt>
      <trkpt lat="47.76738" lon="2.23905">
        <ele>130</ele>
        <time>2016-12-04T08:45:50.265Z</time>
      </trkpt>
      <trkpt lat="47.76738" lon="2.23905">
        <ele>130</ele>
        <time>2016-12-04T08:45:51.264Z</time>
      </trkpt>
      <trkpt lat="47.76734" lon="2.23915">
        <ele>129</ele>
        <time>2016-12-04T08:45:52.265Z</time>
      </trkpt>
      <trkpt lat="47.76733" lon="2.2392">
        <ele>129</ele>
        <time>2016-12-04T08:45:53.267Z</time>
      </trkpt>
      <trkpt lat="47.76733" lon="2.2392">
        <ele>129</ele>
        <time>2016-12-04T08:45:54.263Z</time>
      </trkpt>
      <trkpt lat="47.76729" lon="2.2393">
        <ele>129</ele>
        <time>2016-12-04T08:45:55.272Z</time>
      </trkpt>
      <trkpt lat="47.76728" lon="2.23934">
        <ele>129</ele>
        <time>2016-12-04T08:45:56.263Z</time>
      </trkpt>
      <trkpt lat="47.76728" lon="2.23934">
        <ele>129</ele>
        <time>2016-12-04T08:45:57.247Z</time>
      </trkpt>
      <trkpt lat="47.76725" lon="2.23943">
        <ele>130</ele>
        <time>2016-12-04T08:45:58.274Z</time>
      </trkpt>
      <trkpt lat="47.76724" lon="2.23947">
        <ele>130</ele>
        <time>2016-12-04T08:45:59.266Z</time>
      </trkpt>
      <trkpt lat="47.76724" lon="2.23947">
        <ele>130</ele>
        <time>2016-12-04T08:46:00.263Z</time>
      </trkpt>
      <trkpt lat="47.76723" lon="2.23954">
        <ele>131</ele>
        <time>2016-12-04T08:46:01.257Z</time>
      </trkpt>
      <trkpt lat="47.76722" lon="2.23959">
        <ele>131</ele>
        <time>2016-12-04T08:46:02.267Z</time>
      </trkpt>
      <trkpt lat="47.76722" lon="2.23959">
        <ele>131</ele>
        <time>2016-12-04T08:46:03.264Z</time>
      </trkpt>
      <trkpt lat="47.76721" lon="2.23966">
        <ele>130</ele>
        <time>2016-12-04T08:46:04.266Z</time>
      </trkpt>
      <trkpt lat="47.76721" lon="2.23966">
        <ele>130</ele>
        <time>2016-12-04T08:46:05.260Z</time>
      </trkpt>
      <trkpt lat="47.76719" lon="2.23972">
        <ele>129</ele>
        <time>2016-12-04T08:46:06.265Z</time>
      </trkpt>
      <trkpt lat="47.76719" lon="2.23972">
        <ele>129</ele>
        <time>2016-12-04T08:46:07.263Z</time>
      </trkpt>
      <trkpt lat="47.76718" lon="2.23979">
        <ele>128</ele>
        <time>2016-12-04T08:46:08.268Z</time>
      </trkpt>
      <trkpt lat="47.76717" lon="2.23981">
        <ele>128</ele>
        <time>2016-12-04T08:46:09.266Z</time>
      </trkpt>
      <trkpt lat="47.76717" lon="2.23981">
        <ele>128</ele>
        <time>2016-12-04T08:46:10.264Z</time>
      </trkpt>
      <trkpt lat="47.76711" lon="2.23984">
        <ele>128</ele>
        <time>2016-12-04T08:46:11.272Z</time>
      </trkpt>
      <trkpt lat="47.76708" lon="2.23985">
        <ele>129</ele>
        <time>2016-12-04T08:46:12.265Z</time>
      </trkpt>
      <trkpt lat="47.76708" lon="2.23985">
        <ele>129</ele>
        <time>2016-12-04T08:46:13.263Z</time>
      </trkpt>
      <trkpt lat="47.76703" lon="2.23986">
        <ele>129</ele>
        <time>2016-12-04T08:46:14.266Z</time>
      </trkpt>
      <trkpt lat="47.767" lon="2.23986">
        <ele>130</ele>
        <time>2016-12-04T08:46:15.267Z</time>
      </trkpt>
      <trkpt lat="47.767" lon="2.23986">
        <ele>130</ele>
        <time>2016-12-04T08:46:16.260Z</time>
      </trkpt>
      <trkpt lat="47.76696" lon="2.23987">
        <ele>130</ele>
        <time>2016-12-04T08:46:17.270Z</time>
      </trkpt>
      <trkpt lat="47.76696" lon="2.23987">
        <ele>130</ele>
        <time>2016-12-04T08:46:18.276Z</time>
      </trkpt>
      <trkpt lat="47.76691" lon="2.23987">
        <ele>130</ele>
        <time>2016-12-04T08:46:19.265Z</time>
      </trkpt>
      <trkpt lat="47.76691" lon="2.23987">
        <ele>130</ele>
        <time>2016-12-04T08:46:20.258Z</time>
      </trkpt>
      <trkpt lat="47.76687" lon="2.2399">
        <ele>132</ele>
        <time>2016-12-04T08:46:21.260Z</time>
      </trkpt>
      <trkpt lat="47.76685" lon="2.23991">
        <ele>132</ele>
        <time>2016-12-04T08:46:22.277Z</time>
      </trkpt>
      <trkpt lat="47.76683" lon="2.23993">
        <ele>133</ele>
        <time>2016-12-04T08:46:23.268Z</time>
      </trkpt>
      <trkpt lat="47.76683" lon="2.23993">
        <ele>133</ele>
        <time>2016-12-04T08:46:24.261Z</time>
      </trkpt>
      <trkpt lat="47.76681" lon="2.23997">
        <ele>133</ele>
        <time>2016-12-04T08:46:25.266Z</time>
      </trkpt>
      <trkpt lat="47.76681" lon="2.23997">
        <ele>133</ele>
        <time>2016-12-04T08:46:26.262Z</time>
      </trkpt>
      <trkpt lat="47.7668" lon="2.24002">
        <ele>134</ele>
        <time>2016-12-04T08:46:27.282Z</time>
      </trkpt>
      <trkpt lat="47.7668" lon="2.24002">
        <ele>134</ele>
        <time>2016-12-04T08:46:28.271Z</time>
      </trkpt>
      <trkpt lat="47.76679" lon="2.24007">
        <ele>134</ele>
        <time>2016-12-04T08:46:29.266Z</time>
      </trkpt>
      <trkpt lat="47.76679" lon="2.24007">
        <ele>134</ele>
        <time>2016-12-04T08:46:30.262Z</time>
      </trkpt>
      <trkpt lat="47.76677" lon="2.24014">
        <ele>134</ele>
        <time>2016-12-04T08:46:31.271Z</time>
      </trkpt>
      <trkpt lat="47.76676" lon="2.24017">
        <ele>134</ele>
        <time>2016-12-04T08:46:32.266Z</time>
      </trkpt>
      <trkpt lat="47.76676" lon="2.24017">
        <ele>134</ele>
        <time>2016-12-04T08:46:33.263Z</time>
      </trkpt>
      <trkpt lat="47.76673" lon="2.24022">
        <ele>135</ele>
        <time>2016-12-04T08:46:34.275Z</time>
      </trkpt>
      <trkpt lat="47.76673" lon="2.24022">
        <ele>135</ele>
        <time>2016-12-04T08:46:35.258Z</time>
      </trkpt>
      <trkpt lat="47.76672" lon="2.24028">
        <ele>134</ele>
        <time>2016-12-04T08:46:36.265Z</time>
      </trkpt>
      <trkpt lat="47.76672" lon="2.24028">
        <ele>134</ele>
        <time>2016-12-04T08:46:37.265Z</time>
      </trkpt>
      <trkpt lat="47.76669" lon="2.24036">
        <ele>134</ele>
        <time>2016-12-04T08:46:38.265Z</time>
      </trkpt>
      <trkpt lat="47.76668" lon="2.2404">
        <ele>134</ele>
        <time>2016-12-04T08:46:39.264Z</time>
      </trkpt>
      <trkpt lat="47.76668" lon="2.2404">
        <ele>134</ele>
        <time>2016-12-04T08:46:40.262Z</time>
      </trkpt>
      <trkpt lat="47.76665" lon="2.24048">
        <ele>134</ele>
        <time>2016-12-04T08:46:41.258Z</time>
      </trkpt>
      <trkpt lat="47.76664" lon="2.2405">
        <ele>134</ele>
        <time>2016-12-04T08:46:42.265Z</time>
      </trkpt>
      <trkpt lat="47.76663" lon="2.24053">
        <ele>135</ele>
        <time>2016-12-04T08:46:43.265Z</time>
      </trkpt>
      <trkpt lat="47.76663" lon="2.24053">
        <ele>135</ele>
        <time>2016-12-04T08:46:44.264Z</time>
      </trkpt>
      <trkpt lat="47.76661" lon="2.2406">
        <ele>136</ele>
        <time>2016-12-04T08:46:45.267Z</time>
      </trkpt>
      <trkpt lat="47.76661" lon="2.2406">
        <ele>136</ele>
        <time>2016-12-04T08:46:46.258Z</time>
      </trkpt>
      <trkpt lat="47.76659" lon="2.24066">
        <ele>136</ele>
        <time>2016-12-04T08:46:47.246Z</time>
      </trkpt>
      <trkpt lat="47.76658" lon="2.2407">
        <ele>136</ele>
        <time>2016-12-04T08:46:48.266Z</time>
      </trkpt>
      <trkpt lat="47.76658" lon="2.2407">
        <ele>136</ele>
        <time>2016-12-04T08:46:49.260Z</time>
      </trkpt>
      <trkpt lat="47.76656" lon="2.24077">
        <ele>137</ele>
        <time>2016-12-04T08:46:50.266Z</time>
      </trkpt>
      <trkpt lat="47.76656" lon="2.24077">
        <ele>137</ele>
        <time>2016-12-04T08:46:51.262Z</time>
      </trkpt>
      <trkpt lat="47.76653" lon="2.24086">
        <ele>138</ele>
        <time>2016-12-04T08:46:52.263Z</time>
      </trkpt>
      <trkpt lat="47.76651" lon="2.2409">
        <ele>138</ele>
        <time>2016-12-04T08:46:53.267Z</time>
      </trkpt>
      <trkpt lat="47.76651" lon="2.2409">
        <ele>138</ele>
        <time>2016-12-04T08:46:54.262Z</time>
      </trkpt>
      <trkpt lat="47.76648" lon="2.24099">
        <ele>139</ele>
        <time>2016-12-04T08:46:55.265Z</time>
      </trkpt>
      <trkpt lat="47.76648" lon="2.24099">
        <ele>139</ele>
        <time>2016-12-04T08:46:56.262Z</time>
      </trkpt>
      <trkpt lat="47.76644" lon="2.24107">
        <ele>140</ele>
        <time>2016-12-04T08:46:57.267Z</time>
      </trkpt>
      <trkpt lat="47.76644" lon="2.24107">
        <ele>140</ele>
        <time>2016-12-04T08:46:58.263Z</time>
      </trkpt>
      <trkpt lat="47.76641" lon="2.24115">
        <ele>140</ele>
        <time>2016-12-04T08:46:59.266Z</time>
      </trkpt>
      <trkpt lat="47.76641" lon="2.24115">
        <ele>140</ele>
        <time>2016-12-04T08:47:00.264Z</time>
      </trkpt>
      <trkpt lat="47.76639" lon="2.24122">
        <ele>139</ele>
        <time>2016-12-04T08:47:01.258Z</time>
      </trkpt>
      <trkpt lat="47.76637" lon="2.24125">
        <ele>138</ele>
        <time>2016-12-04T08:47:02.265Z</time>
      </trkpt>
      <trkpt lat="47.76636" lon="2.24129">
        <ele>138</ele>
        <time>2016-12-04T08:47:03.266Z</time>
      </trkpt>
      <trkpt lat="47.76636" lon="2.24129">
        <ele>138</ele>
        <time>2016-12-04T08:47:04.264Z</time>
      </trkpt>
      <trkpt lat="47.76635" lon="2.24136">
        <ele>139</ele>
        <time>2016-12-04T08:47:05.265Z</time>
      </trkpt>
      <trkpt lat="47.76635" lon="2.24136">
        <ele>139</ele>
        <time>2016-12-04T08:47:06.246Z</time>
      </trkpt>
      <trkpt lat="47.76632" lon="2.24145">
        <ele>138</ele>
        <time>2016-12-04T08:47:07.267Z</time>
      </trkpt>
      <trkpt lat="47.76632" lon="2.24145">
        <ele>138</ele>
        <time>2016-12-04T08:47:08.261Z</time>
      </trkpt>
      <trkpt lat="47.7663" lon="2.24153">
        <ele>137</ele>
        <time>2016-12-04T08:47:09.282Z</time>
      </trkpt>
      <trkpt lat="47.7663" lon="2.24153">
        <ele>137</ele>
        <time>2016-12-04T08:47:10.264Z</time>
      </trkpt>
      <trkpt lat="47.76626" lon="2.24161">
        <ele>136</ele>
        <time>2016-12-04T08:47:11.259Z</time>
      </trkpt>
      <trkpt lat="47.76623" lon="2.24166">
        <ele>136</ele>
        <time>2016-12-04T08:47:12.247Z</time>
      </trkpt>
      <trkpt lat="47.7662" lon="2.24171">
        <ele>136</ele>
        <time>2016-12-04T08:47:13.275Z</time>
      </trkpt>
      <trkpt lat="47.7662" lon="2.24171">
        <ele>136</ele>
        <time>2016-12-04T08:47:14.264Z</time>
      </trkpt>
      <trkpt lat="47.76615" lon="2.24178">
        <ele>137</ele>
        <time>2016-12-04T08:47:15.267Z</time>
      </trkpt>
      <trkpt lat="47.76615" lon="2.24178">
        <ele>137</ele>
        <time>2016-12-04T08:47:16.264Z</time>
      </trkpt>
      <trkpt lat="47.7661" lon="2.24186">
        <ele>138</ele>
        <time>2016-12-04T08:47:17.272Z</time>
      </trkpt>
      <trkpt lat="47.7661" lon="2.24186">
        <ele>138</ele>
        <time>2016-12-04T08:47:18.264Z</time>
      </trkpt>
      <trkpt lat="47.76606" lon="2.24195">
        <ele>138</ele>
        <time>2016-12-04T08:47:19.265Z</time>
      </trkpt>
      <trkpt lat="47.76606" lon="2.24195">
        <ele>138</ele>
        <time>2016-12-04T08:47:20.264Z</time>
      </trkpt>
      <trkpt lat="47.76601" lon="2.24202">
        <ele>138</ele>
        <time>2016-12-04T08:47:21.259Z</time>
      </trkpt>
      <trkpt lat="47.76598" lon="2.24205">
        <ele>138</ele>
        <time>2016-12-04T08:47:22.266Z</time>
      </trkpt>
      <trkpt lat="47.76595" lon="2.24209">
        <ele>139</ele>
        <time>2016-12-04T08:47:23.264Z</time>
      </trkpt>
      <trkpt lat="47.76595" lon="2.24209">
        <ele>139</ele>
        <time>2016-12-04T08:47:24.264Z</time>
      </trkpt>
      <trkpt lat="47.7659" lon="2.24217">
        <ele>139</ele>
        <time>2016-12-04T08:47:25.263Z</time>
      </trkpt>
      <trkpt lat="47.7659" lon="2.24217">
        <ele>139</ele>
        <time>2016-12-04T08:47:26.244Z</time>
      </trkpt>
      <trkpt lat="47.76586" lon="2.24224">
        <ele>139</ele>
        <time>2016-12-04T08:47:27.273Z</time>
      </trkpt>
      <trkpt lat="47.76586" lon="2.24224">
        <ele>139</ele>
        <time>2016-12-04T08:47:28.264Z</time>
      </trkpt>
      <trkpt lat="47.76581" lon="2.24233">
        <ele>140</ele>
        <time>2016-12-04T08:47:29.267Z</time>
      </trkpt>
      <trkpt lat="47.76581" lon="2.24233">
        <ele>140</ele>
        <time>2016-12-04T08:47:30.259Z</time>
      </trkpt>
      <trkpt lat="47.76577" lon="2.2424">
        <ele>141</ele>
        <time>2016-12-04T08:47:31.258Z</time>
      </trkpt>
      <trkpt lat="47.76574" lon="2.24244">
        <ele>141</ele>
        <time>2016-12-04T08:47:32.265Z</time>
      </trkpt>
      <trkpt lat="47.76572" lon="2.24248">
        <ele>141</ele>
        <time>2016-12-04T08:47:33.267Z</time>
      </trkpt>
      <trkpt lat="47.76572" lon="2.24248">
        <ele>141</ele>
        <time>2016-12-04T08:47:34.261Z</time>
      </trkpt>
      <trkpt lat="47.76568" lon="2.24255">
        <ele>141</ele>
        <time>2016-12-04T08:47:35.266Z</time>
      </trkpt>
      <trkpt lat="47.76568" lon="2.24255">
        <ele>141</ele>
        <time>2016-12-04T08:47:36.279Z</time>
      </trkpt>
      <trkpt lat="47.76564" lon="2.24264">
        <ele>141</ele>
        <time>2016-12-04T08:47:37.265Z</time>
      </trkpt>
      <trkpt lat="47.76564" lon="2.24269">
        <ele>141</ele>
        <time>2016-12-04T08:47:38.265Z</time>
      </trkpt>
      <trkpt lat="47.76563" lon="2.24274">
        <ele>141</ele>
        <time>2016-12-04T08:47:39.267Z</time>
      </trkpt>
      <trkpt lat="47.76563" lon="2.24274">
        <ele>141</ele>
        <time>2016-12-04T08:47:40.263Z</time>
      </trkpt>
      <trkpt lat="47.76562" lon="2.24286">
        <ele>141</ele>
        <time>2016-12-04T08:47:41.272Z</time>
      </trkpt>
      <trkpt lat="47.76561" lon="2.24291">
        <ele>141</ele>
        <time>2016-12-04T08:47:42.280Z</time>
      </trkpt>
      <trkpt lat="47.76561" lon="2.24296">
        <ele>141</ele>
        <time>2016-12-04T08:47:43.277Z</time>
      </trkpt>
      <trkpt lat="47.76561" lon="2.24296">
        <ele>141</ele>
        <time>2016-12-04T08:47:44.265Z</time>
      </trkpt>
      <trkpt lat="47.76559" lon="2.24307">
        <ele>141</ele>
        <time>2016-12-04T08:47:45.265Z</time>
      </trkpt>
      <trkpt lat="47.76559" lon="2.24307">
        <ele>141</ele>
        <time>2016-12-04T08:47:46.261Z</time>
      </trkpt>
      <trkpt lat="47.76556" lon="2.24318">
        <ele>141</ele>
        <time>2016-12-04T08:47:47.267Z</time>
      </trkpt>
      <trkpt lat="47.76556" lon="2.24318">
        <ele>141</ele>
        <time>2016-12-04T08:47:48.263Z</time>
      </trkpt>
      <trkpt lat="47.76553" lon="2.24329">
        <ele>141</ele>
        <time>2016-12-04T08:47:49.263Z</time>
      </trkpt>
      <trkpt lat="47.76553" lon="2.24329">
        <ele>141</ele>
        <time>2016-12-04T08:47:50.263Z</time>
      </trkpt>
      <trkpt lat="47.7655" lon="2.2434">
        <ele>141</ele>
        <time>2016-12-04T08:47:51.259Z</time>
      </trkpt>
      <trkpt lat="47.76548" lon="2.24346">
        <ele>141</ele>
        <time>2016-12-04T08:47:52.263Z</time>
      </trkpt>
      <trkpt lat="47.76547" lon="2.24351">
        <ele>141</ele>
        <time>2016-12-04T08:47:53.267Z</time>
      </trkpt>
      <trkpt lat="47.76547" lon="2.24351">
        <ele>141</ele>
        <time>2016-12-04T08:47:54.264Z</time>
      </trkpt>
      <trkpt lat="47.76544" lon="2.24361">
        <ele>141</ele>
        <time>2016-12-04T08:47:55.266Z</time>
      </trkpt>
      <trkpt lat="47.76542" lon="2.24367">
        <ele>141</ele>
        <time>2016-12-04T08:47:56.266Z</time>
      </trkpt>
      <trkpt lat="47.76542" lon="2.24367">
        <ele>141</ele>
        <time>2016-12-04T08:47:57.261Z</time>
      </trkpt>
      <trkpt lat="47.76538" lon="2.24377">
        <ele>141</ele>
        <time>2016-12-04T08:47:58.264Z</time>
      </trkpt>
      <trkpt lat="47.76536" lon="2.24382">
        <ele>141</ele>
        <time>2016-12-04T08:47:59.267Z</time>
      </trkpt>
      <trkpt lat="47.76536" lon="2.24382">
        <ele>141</ele>
        <time>2016-12-04T08:48:00.262Z</time>
      </trkpt>
      <trkpt lat="47.76531" lon="2.24392">
        <ele>141</ele>
        <time>2016-12-04T08:48:01.259Z</time>
      </trkpt>
      <trkpt lat="47.76529" lon="2.24397">
        <ele>141</ele>
        <time>2016-12-04T08:48:02.246Z</time>
      </trkpt>
      <trkpt lat="47.76527" lon="2.24402">
        <ele>142</ele>
        <time>2016-12-04T08:48:03.269Z</time>
      </trkpt>
      <trkpt lat="47.76527" lon="2.24402">
        <ele>142</ele>
        <time>2016-12-04T08:48:04.261Z</time>
      </trkpt>
      <trkpt lat="47.76523" lon="2.24413">
        <ele>142</ele>
        <time>2016-12-04T08:48:05.268Z</time>
      </trkpt>
      <trkpt lat="47.76523" lon="2.24413">
        <ele>142</ele>
        <time>2016-12-04T08:48:06.263Z</time>
      </trkpt>
      <trkpt lat="47.76518" lon="2.24423">
        <ele>142</ele>
        <time>2016-12-04T08:48:07.246Z</time>
      </trkpt>
      <trkpt lat="47.76516" lon="2.24429">
        <ele>142</ele>
        <time>2016-12-04T08:48:08.281Z</time>
      </trkpt>
      <trkpt lat="47.76515" lon="2.24434">
        <ele>142</ele>
        <time>2016-12-04T08:48:09.269Z</time>
      </trkpt>
      <trkpt lat="47.76515" lon="2.24434">
        <ele>142</ele>
        <time>2016-12-04T08:48:10.262Z</time>
      </trkpt>
      <trkpt lat="47.76511" lon="2.24445">
        <ele>142</ele>
        <time>2016-12-04T08:48:11.259Z</time>
      </trkpt>
      <trkpt lat="47.7651" lon="2.2445">
        <ele>142</ele>
        <time>2016-12-04T08:48:12.246Z</time>
      </trkpt>
      <trkpt lat="47.7651" lon="2.2445">
        <ele>142</ele>
        <time>2016-12-04T08:48:13.268Z</time>
      </trkpt>
      <trkpt lat="47.76508" lon="2.24461">
        <ele>141</ele>
        <time>2016-12-04T08:48:14.263Z</time>
      </trkpt>
      <trkpt lat="47.76507" lon="2.24467">
        <ele>142</ele>
        <time>2016-12-04T08:48:15.268Z</time>
      </trkpt>
      <trkpt lat="47.76507" lon="2.24467">
        <ele>142</ele>
        <time>2016-12-04T08:48:16.265Z</time>
      </trkpt>
      <trkpt lat="47.76506" lon="2.24478">
        <ele>141</ele>
        <time>2016-12-04T08:48:17.273Z</time>
      </trkpt>
      <trkpt lat="47.76506" lon="2.24478">
        <ele>141</ele>
        <time>2016-12-04T08:48:18.264Z</time>
      </trkpt>
      <trkpt lat="47.76505" lon="2.24489">
        <ele>141</ele>
        <time>2016-12-04T08:48:19.267Z</time>
      </trkpt>
      <trkpt lat="47.76505" lon="2.24495">
        <ele>141</ele>
        <time>2016-12-04T08:48:20.264Z</time>
      </trkpt>
      <trkpt lat="47.76505" lon="2.24495">
        <ele>141</ele>
        <time>2016-12-04T08:48:21.262Z</time>
      </trkpt>
      <trkpt lat="47.76504" lon="2.24509">
        <ele>142</ele>
        <time>2016-12-04T08:48:22.283Z</time>
      </trkpt>
      <trkpt lat="47.76503" lon="2.24516">
        <ele>142</ele>
        <time>2016-12-04T08:48:23.267Z</time>
      </trkpt>
      <trkpt lat="47.76503" lon="2.24516">
        <ele>142</ele>
        <time>2016-12-04T08:48:24.263Z</time>
      </trkpt>
      <trkpt lat="47.76502" lon="2.24531">
        <ele>141</ele>
        <time>2016-12-04T08:48:25.263Z</time>
      </trkpt>
      <trkpt lat="47.76502" lon="2.24531">
        <ele>141</ele>
        <time>2016-12-04T08:48:26.263Z</time>
      </trkpt>
      <trkpt lat="47.76501" lon="2.24545">
        <ele>140</ele>
        <time>2016-12-04T08:48:27.267Z</time>
      </trkpt>
      <trkpt lat="47.76501" lon="2.24545">
        <ele>140</ele>
        <time>2016-12-04T08:48:28.264Z</time>
      </trkpt>
      <trkpt lat="47.76502" lon="2.2456">
        <ele>139</ele>
        <time>2016-12-04T08:48:29.267Z</time>
      </trkpt>
      <trkpt lat="47.76502" lon="2.2456">
        <ele>139</ele>
        <time>2016-12-04T08:48:30.264Z</time>
      </trkpt>
      <trkpt lat="47.76503" lon="2.24573">
        <ele>138</ele>
        <time>2016-12-04T08:48:31.258Z</time>
      </trkpt>
      <trkpt lat="47.76504" lon="2.2458">
        <ele>137</ele>
        <time>2016-12-04T08:48:32.247Z</time>
      </trkpt>
      <trkpt lat="47.76504" lon="2.24587">
        <ele>136</ele>
        <time>2016-12-04T08:48:33.279Z</time>
      </trkpt>
      <trkpt lat="47.76504" lon="2.24587">
        <ele>136</ele>
        <time>2016-12-04T08:48:34.263Z</time>
      </trkpt>
      <trkpt lat="47.76506" lon="2.24599">
        <ele>136</ele>
        <time>2016-12-04T08:48:35.267Z</time>
      </trkpt>
      <trkpt lat="47.76506" lon="2.24599">
        <ele>136</ele>
        <time>2016-12-04T08:48:36.262Z</time>
      </trkpt>
      <trkpt lat="47.76508" lon="2.24612">
        <ele>135</ele>
        <time>2016-12-04T08:48:37.282Z</time>
      </trkpt>
      <trkpt lat="47.76508" lon="2.24612">
        <ele>135</ele>
        <time>2016-12-04T08:48:38.271Z</time>
      </trkpt>
      <trkpt lat="47.76511" lon="2.24625">
        <ele>135</ele>
        <time>2016-12-04T08:48:39.268Z</time>
      </trkpt>
      <trkpt lat="47.76511" lon="2.24625">
        <ele>135</ele>
        <time>2016-12-04T08:48:40.262Z</time>
      </trkpt>
      <trkpt lat="47.76514" lon="2.24639">
        <ele>136</ele>
        <time>2016-12-04T08:48:41.259Z</time>
      </trkpt>
      <trkpt lat="47.76515" lon="2.24646">
        <ele>136</ele>
        <time>2016-12-04T08:48:42.264Z</time>
      </trkpt>
      <trkpt lat="47.76515" lon="2.24646">
        <ele>136</ele>
        <time>2016-12-04T08:48:43.264Z</time>
      </trkpt>
      <trkpt lat="47.76519" lon="2.24658">
        <ele>136</ele>
        <time>2016-12-04T08:48:44.266Z</time>
      </trkpt>
      <trkpt lat="47.7652" lon="2.24663">
        <ele>136</ele>
        <time>2016-12-04T08:48:45.267Z</time>
      </trkpt>
      <trkpt lat="47.7652" lon="2.24663">
        <ele>136</ele>
        <time>2016-12-04T08:48:46.262Z</time>
      </trkpt>
      <trkpt lat="47.76519" lon="2.24668">
        <ele>137</ele>
        <time>2016-12-04T08:48:47.267Z</time>
      </trkpt>
      <trkpt lat="47.76519" lon="2.24669">
        <ele>138</ele>
        <time>2016-12-04T08:48:48.264Z</time>
      </trkpt>
      <trkpt lat="47.76519" lon="2.24669">
        <ele>138</ele>
        <time>2016-12-04T08:48:49.262Z</time>
      </trkpt>
      <trkpt lat="47.76518" lon="2.24671">
        <ele>138</ele>
        <time>2016-12-04T08:48:50.263Z</time>
      </trkpt>
      <trkpt lat="47.76518" lon="2.24671">
        <ele>138</ele>
        <time>2016-12-04T08:48:51.246Z</time>
      </trkpt>
      <trkpt lat="47.76518" lon="2.24671">
        <ele>138</ele>
        <time>2016-12-04T08:48:52.260Z</time>
      </trkpt>
      <trkpt lat="47.7651" lon="2.24673">
        <ele>141</ele>
        <time>2016-12-04T08:48:53.248Z</time>
      </trkpt>
      <trkpt lat="47.76508" lon="2.24672">
        <ele>141</ele>
        <time>2016-12-04T08:48:54.279Z</time>
      </trkpt>
      <trkpt lat="47.76508" lon="2.24672">
        <ele>141</ele>
        <time>2016-12-04T08:48:55.268Z</time>
      </trkpt>
      <trkpt lat="47.76504" lon="2.24669">
        <ele>140</ele>
        <time>2016-12-04T08:48:56.270Z</time>
      </trkpt>
      <trkpt lat="47.76504" lon="2.24669">
        <ele>140</ele>
        <time>2016-12-04T08:48:57.263Z</time>
      </trkpt>
      <trkpt lat="47.76499" lon="2.24664">
        <ele>140</ele>
        <time>2016-12-04T08:48:58.269Z</time>
      </trkpt>
      <trkpt lat="47.76499" lon="2.24664">
        <ele>140</ele>
        <time>2016-12-04T08:48:59.263Z</time>
      </trkpt>
      <trkpt lat="47.76494" lon="2.24659">
        <ele>140</ele>
        <time>2016-12-04T08:49:00.269Z</time>
      </trkpt>
      <trkpt lat="47.76494" lon="2.24659">
        <ele>140</ele>
        <time>2016-12-04T08:49:01.262Z</time>
      </trkpt>
      <trkpt lat="47.76488" lon="2.24655">
        <ele>140</ele>
        <time>2016-12-04T08:49:02.261Z</time>
      </trkpt>
      <trkpt lat="47.76484" lon="2.24652">
        <ele>140</ele>
        <time>2016-12-04T08:49:03.265Z</time>
      </trkpt>
      <trkpt lat="47.7648" lon="2.24649">
        <ele>140</ele>
        <time>2016-12-04T08:49:04.268Z</time>
      </trkpt>
      <trkpt lat="47.7648" lon="2.24649">
        <ele>140</ele>
        <time>2016-12-04T08:49:05.263Z</time>
      </trkpt>
      <trkpt lat="47.76472" lon="2.24644">
        <ele>140</ele>
        <time>2016-12-04T08:49:06.269Z</time>
      </trkpt>
      <trkpt lat="47.76472" lon="2.24644">
        <ele>140</ele>
        <time>2016-12-04T08:49:07.263Z</time>
      </trkpt>
      <trkpt lat="47.76463" lon="2.24639">
        <ele>140</ele>
        <time>2016-12-04T08:49:08.270Z</time>
      </trkpt>
      <trkpt lat="47.76459" lon="2.24637">
        <ele>140</ele>
        <time>2016-12-04T08:49:09.269Z</time>
      </trkpt>
      <trkpt lat="47.76459" lon="2.24637">
        <ele>140</ele>
        <time>2016-12-04T08:49:10.263Z</time>
      </trkpt>
      <trkpt lat="47.76451" lon="2.2463">
        <ele>140</ele>
        <time>2016-12-04T08:49:11.269Z</time>
      </trkpt>
      <trkpt lat="47.76451" lon="2.2463">
        <ele>140</ele>
        <time>2016-12-04T08:49:12.258Z</time>
      </trkpt>
      <trkpt lat="47.76442" lon="2.24625">
        <ele>140</ele>
        <time>2016-12-04T08:49:13.249Z</time>
      </trkpt>
      <trkpt lat="47.76438" lon="2.24623">
        <ele>140</ele>
        <time>2016-12-04T08:49:14.278Z</time>
      </trkpt>
      <trkpt lat="47.76438" lon="2.24623">
        <ele>140</ele>
        <time>2016-12-04T08:49:15.266Z</time>
      </trkpt>
      <trkpt lat="47.76428" lon="2.24616">
        <ele>140</ele>
        <time>2016-12-04T08:49:16.310Z</time>
      </trkpt>
      <trkpt lat="47.76423" lon="2.24613">
        <ele>140</ele>
        <time>2016-12-04T08:49:17.269Z</time>
      </trkpt>
      <trkpt lat="47.76423" lon="2.24613">
        <ele>140</ele>
        <time>2016-12-04T08:49:18.271Z</time>
      </trkpt>
      <trkpt lat="47.76415" lon="2.24607">
        <ele>140</ele>
        <time>2016-12-04T08:49:19.270Z</time>
      </trkpt>
      <trkpt lat="47.76411" lon="2.24603">
        <ele>140</ele>
        <time>2016-12-04T08:49:20.270Z</time>
      </trkpt>
      <trkpt lat="47.76411" lon="2.24603">
        <ele>140</ele>
        <time>2016-12-04T08:49:21.264Z</time>
      </trkpt>
      <trkpt lat="47.76402" lon="2.24598">
        <ele>140</ele>
        <time>2016-12-04T08:49:22.279Z</time>
      </trkpt>
      <trkpt lat="47.76398" lon="2.24595">
        <ele>140</ele>
        <time>2016-12-04T08:49:23.268Z</time>
      </trkpt>
      <trkpt lat="47.76398" lon="2.24595">
        <ele>140</ele>
        <time>2016-12-04T08:49:24.263Z</time>
      </trkpt>
      <trkpt lat="47.76388" lon="2.24592">
        <ele>140</ele>
        <time>2016-12-04T08:49:25.278Z</time>
      </trkpt>
      <trkpt lat="47.76384" lon="2.24589">
        <ele>140</ele>
        <time>2016-12-04T08:49:26.269Z</time>
      </trkpt>
      <trkpt lat="47.76384" lon="2.24589">
        <ele>140</ele>
        <time>2016-12-04T08:49:27.264Z</time>
      </trkpt>
      <trkpt lat="47.76376" lon="2.24584">
        <ele>140</ele>
        <time>2016-12-04T08:49:28.268Z</time>
      </trkpt>
      <trkpt lat="47.76376" lon="2.24584">
        <ele>140</ele>
        <time>2016-12-04T08:49:29.264Z</time>
      </trkpt>
      <trkpt lat="47.76367" lon="2.2458">
        <ele>140</ele>
        <time>2016-12-04T08:49:30.269Z</time>
      </trkpt>
      <trkpt lat="47.76367" lon="2.2458">
        <ele>140</ele>
        <time>2016-12-04T08:49:31.263Z</time>
      </trkpt>
      <trkpt lat="47.7636" lon="2.24576">
        <ele>140</ele>
        <time>2016-12-04T08:49:32.261Z</time>
      </trkpt>
      <trkpt lat="47.76356" lon="2.24575">
        <ele>140</ele>
        <time>2016-12-04T08:49:33.265Z</time>
      </trkpt>
      <trkpt lat="47.76354" lon="2.24575">
        <ele>140</ele>
        <time>2016-12-04T08:49:34.269Z</time>
      </trkpt>
      <trkpt lat="47.76354" lon="2.24575">
        <ele>140</ele>
        <time>2016-12-04T08:49:35.263Z</time>
      </trkpt>
      <trkpt lat="47.76349" lon="2.2458">
        <ele>140</ele>
        <time>2016-12-04T08:49:36.269Z</time>
      </trkpt>
      <trkpt lat="47.76349" lon="2.2458">
        <ele>140</ele>
        <time>2016-12-04T08:49:37.263Z</time>
      </trkpt>
      <trkpt lat="47.76347" lon="2.2459">
        <ele>139</ele>
        <time>2016-12-04T08:49:38.250Z</time>
      </trkpt>
      <trkpt lat="47.76347" lon="2.2459">
        <ele>139</ele>
        <time>2016-12-04T08:49:39.278Z</time>
      </trkpt>
      <trkpt lat="47.76342" lon="2.246">
        <ele>139</ele>
        <time>2016-12-04T08:49:40.268Z</time>
      </trkpt>
      <trkpt lat="47.76342" lon="2.246">
        <ele>139</ele>
        <time>2016-12-04T08:49:41.266Z</time>
      </trkpt>
      <trkpt lat="47.76341" lon="2.24611">
        <ele>139</ele>
        <time>2016-12-04T08:49:42.270Z</time>
      </trkpt>
      <trkpt lat="47.76341" lon="2.24617">
        <ele>139</ele>
        <time>2016-12-04T08:49:43.268Z</time>
      </trkpt>
      <trkpt lat="47.7634" lon="2.24623">
        <ele>139</ele>
        <time>2016-12-04T08:49:44.270Z</time>
      </trkpt>
      <trkpt lat="47.7634" lon="2.24623">
        <ele>139</ele>
        <time>2016-12-04T08:49:45.264Z</time>
      </trkpt>
      <trkpt lat="47.76338" lon="2.24633">
        <ele>139</ele>
        <time>2016-12-04T08:49:46.269Z</time>
      </trkpt>
      <trkpt lat="47.76338" lon="2.24633">
        <ele>139</ele>
        <time>2016-12-04T08:49:47.264Z</time>
      </trkpt>
      <trkpt lat="47.76337" lon="2.24646">
        <ele>139</ele>
        <time>2016-12-04T08:49:48.269Z</time>
      </trkpt>
      <trkpt lat="47.76337" lon="2.24646">
        <ele>139</ele>
        <time>2016-12-04T08:49:49.264Z</time>
      </trkpt>
      <trkpt lat="47.76335" lon="2.24659">
        <ele>138</ele>
        <time>2016-12-04T08:49:50.244Z</time>
      </trkpt>
      <trkpt lat="47.76335" lon="2.24659">
        <ele>138</ele>
        <time>2016-12-04T08:49:51.279Z</time>
      </trkpt>
      <trkpt lat="47.76332" lon="2.24668">
        <ele>138</ele>
        <time>2016-12-04T08:49:52.267Z</time>
      </trkpt>
      <trkpt lat="47.7633" lon="2.24673">
        <ele>138</ele>
        <time>2016-12-04T08:49:53.269Z</time>
      </trkpt>
      <trkpt lat="47.7633" lon="2.24673">
        <ele>138</ele>
        <time>2016-12-04T08:49:54.264Z</time>
      </trkpt>
      <trkpt lat="47.76326" lon="2.24685">
        <ele>137</ele>
        <time>2016-12-04T08:49:55.269Z</time>
      </trkpt>
      <trkpt lat="47.76324" lon="2.24691">
        <ele>137</ele>
        <time>2016-12-04T08:49:56.270Z</time>
      </trkpt>
      <trkpt lat="47.76324" lon="2.24691">
        <ele>137</ele>
        <time>2016-12-04T08:49:57.263Z</time>
      </trkpt>
      <trkpt lat="47.76318" lon="2.24708">
        <ele>136</ele>
        <time>2016-12-04T08:49:58.269Z</time>
      </trkpt>
      <trkpt lat="47.76318" lon="2.24708">
        <ele>136</ele>
        <time>2016-12-04T08:49:59.262Z</time>
      </trkpt>
      <trkpt lat="47.76312" lon="2.2472">
        <ele>137</ele>
        <time>2016-12-04T08:50:00.273Z</time>
      </trkpt>
      <trkpt lat="47.76308" lon="2.24726">
        <ele>136</ele>
        <time>2016-12-04T08:50:01.269Z</time>
      </trkpt>
      <trkpt lat="47.76308" lon="2.24726">
        <ele>136</ele>
        <time>2016-12-04T08:50:02.266Z</time>
      </trkpt>
      <trkpt lat="47.76303" lon="2.24737">
        <ele>136</ele>
        <time>2016-12-04T08:50:03.269Z</time>
      </trkpt>
      <trkpt lat="47.76301" lon="2.24741">
        <ele>136</ele>
        <time>2016-12-04T08:50:04.268Z</time>
      </trkpt>
      <trkpt lat="47.76301" lon="2.24741">
        <ele>136</ele>
        <time>2016-12-04T08:50:05.264Z</time>
      </trkpt>
      <trkpt lat="47.76297" lon="2.24753">
        <ele>135</ele>
        <time>2016-12-04T08:50:06.269Z</time>
      </trkpt>
      <trkpt lat="47.76297" lon="2.24753">
        <ele>135</ele>
        <time>2016-12-04T08:50:07.263Z</time>
      </trkpt>
      <trkpt lat="47.76293" lon="2.24763">
        <ele>135</ele>
        <time>2016-12-04T08:50:08.270Z</time>
      </trkpt>
      <trkpt lat="47.76293" lon="2.24763">
        <ele>135</ele>
        <time>2016-12-04T08:50:09.265Z</time>
      </trkpt>
      <trkpt lat="47.76288" lon="2.24774">
        <ele>134</ele>
        <time>2016-12-04T08:50:10.266Z</time>
      </trkpt>
      <trkpt lat="47.76285" lon="2.24778">
        <ele>134</ele>
        <time>2016-12-04T08:50:11.271Z</time>
      </trkpt>
      <trkpt lat="47.76285" lon="2.24778">
        <ele>134</ele>
        <time>2016-12-04T08:50:12.259Z</time>
      </trkpt>
      <trkpt lat="47.76278" lon="2.24788">
        <ele>133</ele>
        <time>2016-12-04T08:50:13.248Z</time>
      </trkpt>
      <trkpt lat="47.76275" lon="2.24792">
        <ele>133</ele>
        <time>2016-12-04T08:50:14.243Z</time>
      </trkpt>
      <trkpt lat="47.76275" lon="2.24792">
        <ele>133</ele>
        <time>2016-12-04T08:50:15.271Z</time>
      </trkpt>
      <trkpt lat="47.76266" lon="2.248">
        <ele>133</ele>
        <time>2016-12-04T08:50:16.307Z</time>
      </trkpt>
      <trkpt lat="47.76266" lon="2.248">
        <ele>133</ele>
        <time>2016-12-04T08:50:17.271Z</time>
      </trkpt>
      <trkpt lat="47.76258" lon="2.24808">
        <ele>133</ele>
        <time>2016-12-04T08:50:18.250Z</time>
      </trkpt>
      <trkpt lat="47.76258" lon="2.24808">
        <ele>133</ele>
        <time>2016-12-04T08:50:19.279Z</time>
      </trkpt>
      <trkpt lat="47.7625" lon="2.24815">
        <ele>132</ele>
        <time>2016-12-04T08:50:20.270Z</time>
      </trkpt>
      <trkpt lat="47.76247" lon="2.24819">
        <ele>133</ele>
        <time>2016-12-04T08:50:21.269Z</time>
      </trkpt>
      <trkpt lat="47.76247" lon="2.24819">
        <ele>133</ele>
        <time>2016-12-04T08:50:22.260Z</time>
      </trkpt>
      <trkpt lat="47.76238" lon="2.24827">
        <ele>134</ele>
        <time>2016-12-04T08:50:23.268Z</time>
      </trkpt>
      <trkpt lat="47.76238" lon="2.24827">
        <ele>134</ele>
        <time>2016-12-04T08:50:24.263Z</time>
      </trkpt>
      <trkpt lat="47.76229" lon="2.24834">
        <ele>134</ele>
        <time>2016-12-04T08:50:25.269Z</time>
      </trkpt>
      <trkpt lat="47.76224" lon="2.24837">
        <ele>134</ele>
        <time>2016-12-04T08:50:26.270Z</time>
      </trkpt>
      <trkpt lat="47.76224" lon="2.24837">
        <ele>134</ele>
        <time>2016-12-04T08:50:27.264Z</time>
      </trkpt>
      <trkpt lat="47.76215" lon="2.24845">
        <ele>135</ele>
        <time>2016-12-04T08:50:28.269Z</time>
      </trkpt>
      <trkpt lat="47.76215" lon="2.24845">
        <ele>135</ele>
        <time>2016-12-04T08:50:29.263Z</time>
      </trkpt>
      <trkpt lat="47.76204" lon="2.24854">
        <ele>135</ele>
        <time>2016-12-04T08:50:30.261Z</time>
      </trkpt>
      <trkpt lat="47.76199" lon="2.24858">
        <ele>136</ele>
        <time>2016-12-04T08:50:31.269Z</time>
      </trkpt>
      <trkpt lat="47.76199" lon="2.24858">
        <ele>136</ele>
        <time>2016-12-04T08:50:32.257Z</time>
      </trkpt>
      <trkpt lat="47.76191" lon="2.24866">
        <ele>136</ele>
        <time>2016-12-04T08:50:33.249Z</time>
      </trkpt>
      <trkpt lat="47.76186" lon="2.2487">
        <ele>137</ele>
        <time>2016-12-04T08:50:34.279Z</time>
      </trkpt>
      <trkpt lat="47.76181" lon="2.24874">
        <ele>137</ele>
        <time>2016-12-04T08:50:35.269Z</time>
      </trkpt>
      <trkpt lat="47.76181" lon="2.24874">
        <ele>137</ele>
        <time>2016-12-04T08:50:36.263Z</time>
      </trkpt>
      <trkpt lat="47.76173" lon="2.24881">
        <ele>136</ele>
        <time>2016-12-04T08:50:37.273Z</time>
      </trkpt>
      <trkpt lat="47.76173" lon="2.24881">
        <ele>136</ele>
        <time>2016-12-04T08:50:38.264Z</time>
      </trkpt>
      <trkpt lat="47.76163" lon="2.24888">
        <ele>137</ele>
        <time>2016-12-04T08:50:39.269Z</time>
      </trkpt>
      <trkpt lat="47.76159" lon="2.24891">
        <ele>137</ele>
        <time>2016-12-04T08:50:40.279Z</time>
      </trkpt>
      <trkpt lat="47.76159" lon="2.24891">
        <ele>137</ele>
        <time>2016-12-04T08:50:41.266Z</time>
      </trkpt>
      <trkpt lat="47.76149" lon="2.24898">
        <ele>137</ele>
        <time>2016-12-04T08:50:42.280Z</time>
      </trkpt>
      <trkpt lat="47.76145" lon="2.24901">
        <ele>137</ele>
        <time>2016-12-04T08:50:43.269Z</time>
      </trkpt>
      <trkpt lat="47.7614" lon="2.24903">
        <ele>137</ele>
        <time>2016-12-04T08:50:44.270Z</time>
      </trkpt>
      <trkpt lat="47.7614" lon="2.24903">
        <ele>137</ele>
        <time>2016-12-04T08:50:45.263Z</time>
      </trkpt>
      <trkpt lat="47.7613" lon="2.24907">
        <ele>137</ele>
        <time>2016-12-04T08:50:46.269Z</time>
      </trkpt>
      <trkpt lat="47.76125" lon="2.24909">
        <ele>136</ele>
        <time>2016-12-04T08:50:47.269Z</time>
      </trkpt>
      <trkpt lat="47.76125" lon="2.24909">
        <ele>136</ele>
        <time>2016-12-04T08:50:48.264Z</time>
      </trkpt>
      <trkpt lat="47.76116" lon="2.24913">
        <ele>138</ele>
        <time>2016-12-04T08:50:49.269Z</time>
      </trkpt>
      <trkpt lat="47.76112" lon="2.24916">
        <ele>137</ele>
        <time>2016-12-04T08:50:50.271Z</time>
      </trkpt>
      <trkpt lat="47.76112" lon="2.24916">
        <ele>137</ele>
        <time>2016-12-04T08:50:51.264Z</time>
      </trkpt>
      <trkpt lat="47.76103" lon="2.24921">
        <ele>138</ele>
        <time>2016-12-04T08:50:52.262Z</time>
      </trkpt>
      <trkpt lat="47.76098" lon="2.24923">
        <ele>138</ele>
        <time>2016-12-04T08:50:53.270Z</time>
      </trkpt>
      <trkpt lat="47.76098" lon="2.24923">
        <ele>138</ele>
        <time>2016-12-04T08:50:54.263Z</time>
      </trkpt>
      <trkpt lat="47.76089" lon="2.24927">
        <ele>139</ele>
        <time>2016-12-04T08:50:55.268Z</time>
      </trkpt>
      <trkpt lat="47.76089" lon="2.24927">
        <ele>139</ele>
        <time>2016-12-04T08:50:56.264Z</time>
      </trkpt>
      <trkpt lat="47.7608" lon="2.24931">
        <ele>139</ele>
        <time>2016-12-04T08:50:57.269Z</time>
      </trkpt>
      <trkpt lat="47.7608" lon="2.24931">
        <ele>139</ele>
        <time>2016-12-04T08:50:58.263Z</time>
      </trkpt>
      <trkpt lat="47.76069" lon="2.24934">
        <ele>139</ele>
        <time>2016-12-04T08:50:59.269Z</time>
      </trkpt>
      <trkpt lat="47.76065" lon="2.24936">
        <ele>139</ele>
        <time>2016-12-04T08:51:00.270Z</time>
      </trkpt>
      <trkpt lat="47.76065" lon="2.24936">
        <ele>139</ele>
        <time>2016-12-04T08:51:01.264Z</time>
      </trkpt>
      <trkpt lat="47.76056" lon="2.24942">
        <ele>139</ele>
        <time>2016-12-04T08:51:02.263Z</time>
      </trkpt>
      <trkpt lat="47.76051" lon="2.24945">
        <ele>140</ele>
        <time>2016-12-04T08:51:03.269Z</time>
      </trkpt>
      <trkpt lat="47.76046" lon="2.24947">
        <ele>139</ele>
        <time>2016-12-04T08:51:04.269Z</time>
      </trkpt>
      <trkpt lat="47.76046" lon="2.24947">
        <ele>139</ele>
        <time>2016-12-04T08:51:05.263Z</time>
      </trkpt>
      <trkpt lat="47.76036" lon="2.2495">
        <ele>140</ele>
        <time>2016-12-04T08:51:06.269Z</time>
      </trkpt>
      <trkpt lat="47.76032" lon="2.2495">
        <ele>140</ele>
        <time>2016-12-04T08:51:07.245Z</time>
      </trkpt>
      <trkpt lat="47.76029" lon="2.24951">
        <ele>140</ele>
        <time>2016-12-04T08:51:08.246Z</time>
      </trkpt>
      <trkpt lat="47.76029" lon="2.24951">
        <ele>140</ele>
        <time>2016-12-04T08:51:09.275Z</time>
      </trkpt>
      <trkpt lat="47.76021" lon="2.24959">
        <ele>140</ele>
        <time>2016-12-04T08:51:10.269Z</time>
      </trkpt>
      <trkpt lat="47.76021" lon="2.24959">
        <ele>140</ele>
        <time>2016-12-04T08:51:11.264Z</time>
      </trkpt>
      <trkpt lat="47.7602" lon="2.24972">
        <ele>140</ele>
        <time>2016-12-04T08:51:12.262Z</time>
      </trkpt>
      <trkpt lat="47.7602" lon="2.24979">
        <ele>140</ele>
        <time>2016-12-04T08:51:13.269Z</time>
      </trkpt>
      <trkpt lat="47.76021" lon="2.24986">
        <ele>140</ele>
        <time>2016-12-04T08:51:14.270Z</time>
      </trkpt>
      <trkpt lat="47.76021" lon="2.24986">
        <ele>140</ele>
        <time>2016-12-04T08:51:15.265Z</time>
      </trkpt>
      <trkpt lat="47.76023" lon="2.24999">
        <ele>140</ele>
        <time>2016-12-04T08:51:16.269Z</time>
      </trkpt>
      <trkpt lat="47.76024" lon="2.25005">
        <ele>140</ele>
        <time>2016-12-04T08:51:17.270Z</time>
      </trkpt>
      <trkpt lat="47.76024" lon="2.25005">
        <ele>140</ele>
        <time>2016-12-04T08:51:18.275Z</time>
      </trkpt>
      <trkpt lat="47.76027" lon="2.25017">
        <ele>140</ele>
        <time>2016-12-04T08:51:19.269Z</time>
      </trkpt>
      <trkpt lat="47.76027" lon="2.25023">
        <ele>139</ele>
        <time>2016-12-04T08:51:20.272Z</time>
      </trkpt>
      <trkpt lat="47.76027" lon="2.25023">
        <ele>139</ele>
        <time>2016-12-04T08:51:21.264Z</time>
      </trkpt>
      <trkpt lat="47.76029" lon="2.25036">
        <ele>140</ele>
        <time>2016-12-04T08:51:22.262Z</time>
      </trkpt>
      <trkpt lat="47.7603" lon="2.25042">
        <ele>139</ele>
        <time>2016-12-04T08:51:23.279Z</time>
      </trkpt>
      <trkpt lat="47.7603" lon="2.25042">
        <ele>139</ele>
        <time>2016-12-04T08:51:24.267Z</time>
      </trkpt>
      <trkpt lat="47.76031" lon="2.25056">
        <ele>139</ele>
        <time>2016-12-04T08:51:25.269Z</time>
      </trkpt>
      <trkpt lat="47.76032" lon="2.25062">
        <ele>139</ele>
        <time>2016-12-04T08:51:26.270Z</time>
      </trkpt>
      <trkpt lat="47.76032" lon="2.25062">
        <ele>139</ele>
        <time>2016-12-04T08:51:27.264Z</time>
      </trkpt>
      <trkpt lat="47.76033" lon="2.25075">
        <ele>139</ele>
        <time>2016-12-04T08:51:28.266Z</time>
      </trkpt>
      <trkpt lat="47.76034" lon="2.25081">
        <ele>139</ele>
        <time>2016-12-04T08:51:29.269Z</time>
      </trkpt>
      <trkpt lat="47.76034" lon="2.25081">
        <ele>139</ele>
        <time>2016-12-04T08:51:30.262Z</time>
      </trkpt>
      <trkpt lat="47.76036" lon="2.25094">
        <ele>139</ele>
        <time>2016-12-04T08:51:31.282Z</time>
      </trkpt>
      <trkpt lat="47.76036" lon="2.25094">
        <ele>139</ele>
        <time>2016-12-04T08:51:32.279Z</time>
      </trkpt>
      <trkpt lat="47.76035" lon="2.25106">
        <ele>139</ele>
        <time>2016-12-04T08:51:33.266Z</time>
      </trkpt>
      <trkpt lat="47.76035" lon="2.25112">
        <ele>139</ele>
        <time>2016-12-04T08:51:34.270Z</time>
      </trkpt>
      <trkpt lat="47.76035" lon="2.25112">
        <ele>139</ele>
        <time>2016-12-04T08:51:35.265Z</time>
      </trkpt>
      <trkpt lat="47.76032" lon="2.25124">
        <ele>139</ele>
        <time>2016-12-04T08:51:36.270Z</time>
      </trkpt>
      <trkpt lat="47.76032" lon="2.25124">
        <ele>139</ele>
        <time>2016-12-04T08:51:37.263Z</time>
      </trkpt>
      <trkpt lat="47.76028" lon="2.25138">
        <ele>138</ele>
        <time>2016-12-04T08:51:38.270Z</time>
      </trkpt>
      <trkpt lat="47.76028" lon="2.25138">
        <ele>138</ele>
        <time>2016-12-04T08:51:39.264Z</time>
      </trkpt>
      <trkpt lat="47.76026" lon="2.25152">
        <ele>138</ele>
        <time>2016-12-04T08:51:40.269Z</time>
      </trkpt>
      <trkpt lat="47.76026" lon="2.25152">
        <ele>138</ele>
        <time>2016-12-04T08:51:41.270Z</time>
      </trkpt>
      <trkpt lat="47.76028" lon="2.25165">
        <ele>137</ele>
        <time>2016-12-04T08:51:42.261Z</time>
      </trkpt>
      <trkpt lat="47.76029" lon="2.25173">
        <ele>137</ele>
        <time>2016-12-04T08:51:43.271Z</time>
      </trkpt>
      <trkpt lat="47.7603" lon="2.2518">
        <ele>137</ele>
        <time>2016-12-04T08:51:44.279Z</time>
      </trkpt>
      <trkpt lat="47.7603" lon="2.2518">
        <ele>137</ele>
        <time>2016-12-04T08:51:45.267Z</time>
      </trkpt>
      <trkpt lat="47.76034" lon="2.25194">
        <ele>138</ele>
        <time>2016-12-04T08:51:46.270Z</time>
      </trkpt>
      <trkpt lat="47.76035" lon="2.25203">
        <ele>137</ele>
        <time>2016-12-04T08:51:47.246Z</time>
      </trkpt>
      <trkpt lat="47.76035" lon="2.25203">
        <ele>137</ele>
        <time>2016-12-04T08:51:48.274Z</time>
      </trkpt>
      <trkpt lat="47.76039" lon="2.25219">
        <ele>137</ele>
        <time>2016-12-04T08:51:49.270Z</time>
      </trkpt>
      <trkpt lat="47.76041" lon="2.25228">
        <ele>136</ele>
        <time>2016-12-04T08:51:50.269Z</time>
      </trkpt>
      <trkpt lat="47.76041" lon="2.25228">
        <ele>136</ele>
        <time>2016-12-04T08:51:51.279Z</time>
      </trkpt>
      <trkpt lat="47.76043" lon="2.25247">
        <ele>136</ele>
        <time>2016-12-04T08:51:52.268Z</time>
      </trkpt>
      <trkpt lat="47.76046" lon="2.25256">
        <ele>135</ele>
        <time>2016-12-04T08:51:53.266Z</time>
      </trkpt>
      <trkpt lat="47.76048" lon="2.25266">
        <ele>135</ele>
        <time>2016-12-04T08:51:54.270Z</time>
      </trkpt>
      <trkpt lat="47.7605" lon="2.25276">
        <ele>135</ele>
        <time>2016-12-04T08:51:55.270Z</time>
      </trkpt>
      <trkpt lat="47.76052" lon="2.25286">
        <ele>134</ele>
        <time>2016-12-04T08:51:56.270Z</time>
      </trkpt>
      <trkpt lat="47.76052" lon="2.25286">
        <ele>134</ele>
        <time>2016-12-04T08:51:57.264Z</time>
      </trkpt>
      <trkpt lat="47.76056" lon="2.25304">
        <ele>134</ele>
        <time>2016-12-04T08:51:58.269Z</time>
      </trkpt>
      <trkpt lat="47.76057" lon="2.25313">
        <ele>133</ele>
        <time>2016-12-04T08:51:59.246Z</time>
      </trkpt>
      <trkpt lat="47.76061" lon="2.25323">
        <ele>133</ele>
        <time>2016-12-04T08:52:00.281Z</time>
      </trkpt>
      <trkpt lat="47.76061" lon="2.25323">
        <ele>133</ele>
        <time>2016-12-04T08:52:01.269Z</time>
      </trkpt>
      <trkpt lat="47.76069" lon="2.25343">
        <ele>133</ele>
        <time>2016-12-04T08:52:02.262Z</time>
      </trkpt>
      <trkpt lat="47.76073" lon="2.25353">
        <ele>132</ele>
        <time>2016-12-04T08:52:03.270Z</time>
      </trkpt>
      <trkpt lat="47.76078" lon="2.25361">
        <ele>132</ele>
        <time>2016-12-04T08:52:04.270Z</time>
      </trkpt>
      <trkpt lat="47.76078" lon="2.25361">
        <ele>132</ele>
        <time>2016-12-04T08:52:05.265Z</time>
      </trkpt>
      <trkpt lat="47.76087" lon="2.25375">
        <ele>131</ele>
        <time>2016-12-04T08:52:06.269Z</time>
      </trkpt>
      <trkpt lat="47.76093" lon="2.25382">
        <ele>131</ele>
        <time>2016-12-04T08:52:07.270Z</time>
      </trkpt>
      <trkpt lat="47.76093" lon="2.25382">
        <ele>131</ele>
        <time>2016-12-04T08:52:08.267Z</time>
      </trkpt>
      <trkpt lat="47.76102" lon="2.25395">
        <ele>131</ele>
        <time>2016-12-04T08:52:09.269Z</time>
      </trkpt>
      <trkpt lat="47.76106" lon="2.25402">
        <ele>131</ele>
        <time>2016-12-04T08:52:10.269Z</time>
      </trkpt>
      <trkpt lat="47.76106" lon="2.25402">
        <ele>131</ele>
        <time>2016-12-04T08:52:11.262Z</time>
      </trkpt>
      <trkpt lat="47.76115" lon="2.25415">
        <ele>131</ele>
        <time>2016-12-04T08:52:12.268Z</time>
      </trkpt>
      <trkpt lat="47.76119" lon="2.25422">
        <ele>132</ele>
        <time>2016-12-04T08:52:13.270Z</time>
      </trkpt>
      <trkpt lat="47.76123" lon="2.25428">
        <ele>132</ele>
        <time>2016-12-04T08:52:14.271Z</time>
      </trkpt>
      <trkpt lat="47.76123" lon="2.25428">
        <ele>132</ele>
        <time>2016-12-04T08:52:15.265Z</time>
      </trkpt>
      <trkpt lat="47.7613" lon="2.25439">
        <ele>133</ele>
        <time>2016-12-04T08:52:16.311Z</time>
      </trkpt>
      <trkpt lat="47.7613" lon="2.25439">
        <ele>133</ele>
        <time>2016-12-04T08:52:17.266Z</time>
      </trkpt>
      <trkpt lat="47.76137" lon="2.25449">
        <ele>132</ele>
        <time>2016-12-04T08:52:18.275Z</time>
      </trkpt>
      <trkpt lat="47.76137" lon="2.25449">
        <ele>132</ele>
        <time>2016-12-04T08:52:19.266Z</time>
      </trkpt>
      <trkpt lat="47.76143" lon="2.25461">
        <ele>132</ele>
        <time>2016-12-04T08:52:20.271Z</time>
      </trkpt>
      <trkpt lat="47.76143" lon="2.25461">
        <ele>132</ele>
        <time>2016-12-04T08:52:21.260Z</time>
      </trkpt>
      <trkpt lat="47.76149" lon="2.25472">
        <ele>132</ele>
        <time>2016-12-04T08:52:22.249Z</time>
      </trkpt>
      <trkpt lat="47.76153" lon="2.25478">
        <ele>132</ele>
        <time>2016-12-04T08:52:23.280Z</time>
      </trkpt>
      <trkpt lat="47.76157" lon="2.25482">
        <ele>133</ele>
        <time>2016-12-04T08:52:24.270Z</time>
      </trkpt>
      <trkpt lat="47.76157" lon="2.25482">
        <ele>133</ele>
        <time>2016-12-04T08:52:25.267Z</time>
      </trkpt>
      <trkpt lat="47.76165" lon="2.25493">
        <ele>133</ele>
        <time>2016-12-04T08:52:26.271Z</time>
      </trkpt>
      <trkpt lat="47.76165" lon="2.25493">
        <ele>133</ele>
        <time>2016-12-04T08:52:27.266Z</time>
      </trkpt>
      <trkpt lat="47.76173" lon="2.25507">
        <ele>133</ele>
        <time>2016-12-04T08:52:28.270Z</time>
      </trkpt>
      <trkpt lat="47.76173" lon="2.25507">
        <ele>133</ele>
        <time>2016-12-04T08:52:29.267Z</time>
      </trkpt>
      <trkpt lat="47.76181" lon="2.2552">
        <ele>132</ele>
        <time>2016-12-04T08:52:30.269Z</time>
      </trkpt>
      <trkpt lat="47.76181" lon="2.2552">
        <ele>132</ele>
        <time>2016-12-04T08:52:31.270Z</time>
      </trkpt>
      <trkpt lat="47.76189" lon="2.25533">
        <ele>132</ele>
        <time>2016-12-04T08:52:32.262Z</time>
      </trkpt>
      <trkpt lat="47.76193" lon="2.25539">
        <ele>132</ele>
        <time>2016-12-04T08:52:33.270Z</time>
      </trkpt>
      <trkpt lat="47.76197" lon="2.25546">
        <ele>132</ele>
        <time>2016-12-04T08:52:34.270Z</time>
      </trkpt>
      <trkpt lat="47.76197" lon="2.25546">
        <ele>132</ele>
        <time>2016-12-04T08:52:35.265Z</time>
      </trkpt>
      <trkpt lat="47.76206" lon="2.25559">
        <ele>131</ele>
        <time>2016-12-04T08:52:36.269Z</time>
      </trkpt>
      <trkpt lat="47.76206" lon="2.25559">
        <ele>131</ele>
        <time>2016-12-04T08:52:37.266Z</time>
      </trkpt>
      <trkpt lat="47.76215" lon="2.25572">
        <ele>131</ele>
        <time>2016-12-04T08:52:38.252Z</time>
      </trkpt>
      <trkpt lat="47.76215" lon="2.25572">
        <ele>131</ele>
        <time>2016-12-04T08:52:39.282Z</time>
      </trkpt>
      <trkpt lat="47.76225" lon="2.25585">
        <ele>130</ele>
        <time>2016-12-04T08:52:40.271Z</time>
      </trkpt>
      <trkpt lat="47.76225" lon="2.25585">
        <ele>130</ele>
        <time>2016-12-04T08:52:41.267Z</time>
      </trkpt>
      <trkpt lat="47.76234" lon="2.25599">
        <ele>130</ele>
        <time>2016-12-04T08:52:42.261Z</time>
      </trkpt>
      <trkpt lat="47.7624" lon="2.25607">
        <ele>130</ele>
        <time>2016-12-04T08:52:43.272Z</time>
      </trkpt>
      <trkpt lat="47.76245" lon="2.25614">
        <ele>130</ele>
        <time>2016-12-04T08:52:44.272Z</time>
      </trkpt>
      <trkpt lat="47.76245" lon="2.25614">
        <ele>130</ele>
        <time>2016-12-04T08:52:45.268Z</time>
      </trkpt>
      <trkpt lat="47.76254" lon="2.25629">
        <ele>129</ele>
        <time>2016-12-04T08:52:46.270Z</time>
      </trkpt>
      <trkpt lat="47.76254" lon="2.25629">
        <ele>129</ele>
        <time>2016-12-04T08:52:47.268Z</time>
      </trkpt>
      <trkpt lat="47.76265" lon="2.25642">
        <ele>129</ele>
        <time>2016-12-04T08:52:48.269Z</time>
      </trkpt>
      <trkpt lat="47.7627" lon="2.25649">
        <ele>129</ele>
        <time>2016-12-04T08:52:49.270Z</time>
      </trkpt>
      <trkpt lat="47.76274" lon="2.25656">
        <ele>129</ele>
        <time>2016-12-04T08:52:50.280Z</time>
      </trkpt>
      <trkpt lat="47.76274" lon="2.25656">
        <ele>129</ele>
        <time>2016-12-04T08:52:51.268Z</time>
      </trkpt>
      <trkpt lat="47.76284" lon="2.2567">
        <ele>129</ele>
        <time>2016-12-04T08:52:52.262Z</time>
      </trkpt>
      <trkpt lat="47.76289" lon="2.25677">
        <ele>129</ele>
        <time>2016-12-04T08:52:53.250Z</time>
      </trkpt>
      <trkpt lat="47.76293" lon="2.25684">
        <ele>129</ele>
        <time>2016-12-04T08:52:54.281Z</time>
      </trkpt>
      <trkpt lat="47.76293" lon="2.25684">
        <ele>129</ele>
        <time>2016-12-04T08:52:55.268Z</time>
      </trkpt>
      <trkpt lat="47.76301" lon="2.25699">
        <ele>128</ele>
        <time>2016-12-04T08:52:56.270Z</time>
      </trkpt>
      <trkpt lat="47.76301" lon="2.25699">
        <ele>128</ele>
        <time>2016-12-04T08:52:57.265Z</time>
      </trkpt>
      <trkpt lat="47.76307" lon="2.25716">
        <ele>128</ele>
        <time>2016-12-04T08:52:58.270Z</time>
      </trkpt>
      <trkpt lat="47.76307" lon="2.25716">
        <ele>128</ele>
        <time>2016-12-04T08:52:59.267Z</time>
      </trkpt>
      <trkpt lat="47.76307" lon="2.25733">
        <ele>127</ele>
        <time>2016-12-04T08:53:00.270Z</time>
      </trkpt>
      <trkpt lat="47.76307" lon="2.25733">
        <ele>127</ele>
        <time>2016-12-04T08:53:01.266Z</time>
      </trkpt>
      <trkpt lat="47.76302" lon="2.25747">
        <ele>127</ele>
        <time>2016-12-04T08:53:02.262Z</time>
      </trkpt>
      <trkpt lat="47.76299" lon="2.25755">
        <ele>126</ele>
        <time>2016-12-04T08:53:03.269Z</time>
      </trkpt>
      <trkpt lat="47.76296" lon="2.25763">
        <ele>126</ele>
        <time>2016-12-04T08:53:04.244Z</time>
      </trkpt>
      <trkpt lat="47.76296" lon="2.25763">
        <ele>126</ele>
        <time>2016-12-04T08:53:05.272Z</time>
      </trkpt>
      <trkpt lat="47.7629" lon="2.25777">
        <ele>126</ele>
        <time>2016-12-04T08:53:06.270Z</time>
      </trkpt>
      <trkpt lat="47.7629" lon="2.25777">
        <ele>126</ele>
        <time>2016-12-04T08:53:07.267Z</time>
      </trkpt>
      <trkpt lat="47.76286" lon="2.25792">
        <ele>126</ele>
        <time>2016-12-04T08:53:08.271Z</time>
      </trkpt>
      <trkpt lat="47.76286" lon="2.25792">
        <ele>126</ele>
        <time>2016-12-04T08:53:09.275Z</time>
      </trkpt>
      <trkpt lat="47.76283" lon="2.25807">
        <ele>125</ele>
        <time>2016-12-04T08:53:10.271Z</time>
      </trkpt>
      <trkpt lat="47.76281" lon="2.25814">
        <ele>125</ele>
        <time>2016-12-04T08:53:11.271Z</time>
      </trkpt>
      <trkpt lat="47.76281" lon="2.25814">
        <ele>125</ele>
        <time>2016-12-04T08:53:12.265Z</time>
      </trkpt>
      <trkpt lat="47.76277" lon="2.25826">
        <ele>125</ele>
        <time>2016-12-04T08:53:13.269Z</time>
      </trkpt>
      <trkpt lat="47.76275" lon="2.25833">
        <ele>125</ele>
        <time>2016-12-04T08:53:14.272Z</time>
      </trkpt>
      <trkpt lat="47.76275" lon="2.25833">
        <ele>125</ele>
        <time>2016-12-04T08:53:15.264Z</time>
      </trkpt>
      <trkpt lat="47.76271" lon="2.25846">
        <ele>125</ele>
        <time>2016-12-04T08:53:16.309Z</time>
      </trkpt>
      <trkpt lat="47.7627" lon="2.25853">
        <ele>125</ele>
        <time>2016-12-04T08:53:17.246Z</time>
      </trkpt>
      <trkpt lat="47.7627" lon="2.25853">
        <ele>125</ele>
        <time>2016-12-04T08:53:18.281Z</time>
      </trkpt>
      <trkpt lat="47.76267" lon="2.25866">
        <ele>125</ele>
        <time>2016-12-04T08:53:19.271Z</time>
      </trkpt>
      <trkpt lat="47.76266" lon="2.25871">
        <ele>125</ele>
        <time>2016-12-04T08:53:20.272Z</time>
      </trkpt>
      <trkpt lat="47.76264" lon="2.25878">
        <ele>125</ele>
        <time>2016-12-04T08:53:21.271Z</time>
      </trkpt>
      <trkpt lat="47.76264" lon="2.25878">
        <ele>125</ele>
        <time>2016-12-04T08:53:22.262Z</time>
      </trkpt>
      <trkpt lat="47.76262" lon="2.25891">
        <ele>125</ele>
        <time>2016-12-04T08:53:23.275Z</time>
      </trkpt>
      <trkpt lat="47.76262" lon="2.25891">
        <ele>125</ele>
        <time>2016-12-04T08:53:24.264Z</time>
      </trkpt>
      <trkpt lat="47.76259" lon="2.25904">
        <ele>125</ele>
        <time>2016-12-04T08:53:25.271Z</time>
      </trkpt>
      <trkpt lat="47.76259" lon="2.25904">
        <ele>125</ele>
        <time>2016-12-04T08:53:26.268Z</time>
      </trkpt>
      <trkpt lat="47.76256" lon="2.25917">
        <ele>125</ele>
        <time>2016-12-04T08:53:27.270Z</time>
      </trkpt>
      <trkpt lat="47.76255" lon="2.25922">
        <ele>125</ele>
        <time>2016-12-04T08:53:28.270Z</time>
      </trkpt>
      <trkpt lat="47.76255" lon="2.25922">
        <ele>125</ele>
        <time>2016-12-04T08:53:29.265Z</time>
      </trkpt>
      <trkpt lat="47.76253" lon="2.25932">
        <ele>125</ele>
        <time>2016-12-04T08:53:30.270Z</time>
      </trkpt>
      <trkpt lat="47.76253" lon="2.25932">
        <ele>125</ele>
        <time>2016-12-04T08:53:31.265Z</time>
      </trkpt>
      <trkpt lat="47.76251" lon="2.25943">
        <ele>124</ele>
        <time>2016-12-04T08:53:32.245Z</time>
      </trkpt>
      <trkpt lat="47.7625" lon="2.25947">
        <ele>124</ele>
        <time>2016-12-04T08:53:33.275Z</time>
      </trkpt>
      <trkpt lat="47.76249" lon="2.25951">
        <ele>124</ele>
        <time>2016-12-04T08:53:34.261Z</time>
      </trkpt>
      <trkpt lat="47.76249" lon="2.25951">
        <ele>124</ele>
        <time>2016-12-04T08:53:35.268Z</time>
      </trkpt>
      <trkpt lat="47.76246" lon="2.2596">
        <ele>124</ele>
        <time>2016-12-04T08:53:36.270Z</time>
      </trkpt>
      <trkpt lat="47.76246" lon="2.2596">
        <ele>124</ele>
        <time>2016-12-04T08:53:37.268Z</time>
      </trkpt>
      <trkpt lat="47.76245" lon="2.25968">
        <ele>123</ele>
        <time>2016-12-04T08:53:38.272Z</time>
      </trkpt>
      <trkpt lat="47.76245" lon="2.25968">
        <ele>123</ele>
        <time>2016-12-04T08:53:39.267Z</time>
      </trkpt>
      <trkpt lat="47.76243" lon="2.25975">
        <ele>123</ele>
        <time>2016-12-04T08:53:40.271Z</time>
      </trkpt>
      <trkpt lat="47.76243" lon="2.25975">
        <ele>123</ele>
        <time>2016-12-04T08:53:41.266Z</time>
      </trkpt>
      <trkpt lat="47.76242" lon="2.2598">
        <ele>124</ele>
        <time>2016-12-04T08:53:42.267Z</time>
      </trkpt>
      <trkpt lat="47.76242" lon="2.25981">
        <ele>124</ele>
        <time>2016-12-04T08:53:43.271Z</time>
      </trkpt>
      <trkpt lat="47.76242" lon="2.25981">
        <ele>124</ele>
        <time>2016-12-04T08:53:44.269Z</time>
      </trkpt>
      <trkpt lat="47.76242" lon="2.25981">
        <ele>124</ele>
        <time>2016-12-04T08:53:45.271Z</time>
      </trkpt>
      <trkpt lat="47.76242" lon="2.25981">
        <ele>124</ele>
        <time>2016-12-04T08:53:46.273Z</time>
      </trkpt>
      <trkpt lat="47.76242" lon="2.25981">
        <ele>124</ele>
        <time>2016-12-04T08:53:47.262Z</time>
      </trkpt>
      <trkpt lat="47.76237" lon="2.26002">
        <ele>124</ele>
        <time>2016-12-04T08:53:48.262Z</time>
      </trkpt>
      <trkpt lat="47.76237" lon="2.26002">
        <ele>124</ele>
        <time>2016-12-04T08:53:49.262Z</time>
      </trkpt>
      <trkpt lat="47.76235" lon="2.26012">
        <ele>124</ele>
        <time>2016-12-04T08:53:50.273Z</time>
      </trkpt>
      <trkpt lat="47.76235" lon="2.26012">
        <ele>124</ele>
        <time>2016-12-04T08:53:51.261Z</time>
      </trkpt>
      <trkpt lat="47.76233" lon="2.26023">
        <ele>124</ele>
        <time>2016-12-04T08:53:52.263Z</time>
      </trkpt>
      <trkpt lat="47.76233" lon="2.26023">
        <ele>124</ele>
        <time>2016-12-04T08:53:53.258Z</time>
      </trkpt>
      <trkpt lat="47.7623" lon="2.26034">
        <ele>123</ele>
        <time>2016-12-04T08:53:54.278Z</time>
      </trkpt>
      <trkpt lat="47.7623" lon="2.2604">
        <ele>123</ele>
        <time>2016-12-04T08:53:55.272Z</time>
      </trkpt>
      <trkpt lat="47.7623" lon="2.2604">
        <ele>123</ele>
        <time>2016-12-04T08:53:56.262Z</time>
      </trkpt>
      <trkpt lat="47.76231" lon="2.26049">
        <ele>123</ele>
        <time>2016-12-04T08:53:57.263Z</time>
      </trkpt>
      <trkpt lat="47.76232" lon="2.26054">
        <ele>123</ele>
        <time>2016-12-04T08:53:58.263Z</time>
      </trkpt>
      <trkpt lat="47.76232" lon="2.26054">
        <ele>123</ele>
        <time>2016-12-04T08:53:59.259Z</time>
      </trkpt>
      <trkpt lat="47.76235" lon="2.26065">
        <ele>123</ele>
        <time>2016-12-04T08:54:00.263Z</time>
      </trkpt>
      <trkpt lat="47.76235" lon="2.26065">
        <ele>123</ele>
        <time>2016-12-04T08:54:01.259Z</time>
      </trkpt>
      <trkpt lat="47.76237" lon="2.26078">
        <ele>123</ele>
        <time>2016-12-04T08:54:02.265Z</time>
      </trkpt>
      <trkpt lat="47.76237" lon="2.26078">
        <ele>123</ele>
        <time>2016-12-04T08:54:03.258Z</time>
      </trkpt>
      <trkpt lat="47.76237" lon="2.2609">
        <ele>123</ele>
        <time>2016-12-04T08:54:04.263Z</time>
      </trkpt>
      <trkpt lat="47.76237" lon="2.2609">
        <ele>123</ele>
        <time>2016-12-04T08:54:05.258Z</time>
      </trkpt>
      <trkpt lat="47.76236" lon="2.26102">
        <ele>122</ele>
        <time>2016-12-04T08:54:06.263Z</time>
      </trkpt>
      <trkpt lat="47.76236" lon="2.26102">
        <ele>122</ele>
        <time>2016-12-04T08:54:07.258Z</time>
      </trkpt>
      <trkpt lat="47.76234" lon="2.26111">
        <ele>122</ele>
        <time>2016-12-04T08:54:08.262Z</time>
      </trkpt>
      <trkpt lat="47.76234" lon="2.26111">
        <ele>122</ele>
        <time>2016-12-04T08:54:09.258Z</time>
      </trkpt>
      <trkpt lat="47.76234" lon="2.26117">
        <ele>121</ele>
        <time>2016-12-04T08:54:10.272Z</time>
      </trkpt>
      <trkpt lat="47.76234" lon="2.2612">
        <ele>121</ele>
        <time>2016-12-04T08:54:11.263Z</time>
      </trkpt>
      <trkpt lat="47.76235" lon="2.26124">
        <ele>121</ele>
        <time>2016-12-04T08:54:12.263Z</time>
      </trkpt>
      <trkpt lat="47.76235" lon="2.26124">
        <ele>121</ele>
        <time>2016-12-04T08:54:13.258Z</time>
      </trkpt>
      <trkpt lat="47.76234" lon="2.2613">
        <ele>121</ele>
        <time>2016-12-04T08:54:14.265Z</time>
      </trkpt>
      <trkpt lat="47.76234" lon="2.2613">
        <ele>121</ele>
        <time>2016-12-04T08:54:15.258Z</time>
      </trkpt>
      <trkpt lat="47.76232" lon="2.26134">
        <ele>120</ele>
        <time>2016-12-04T08:54:16.266Z</time>
      </trkpt>
      <trkpt lat="47.76232" lon="2.26134">
        <ele>120</ele>
        <time>2016-12-04T08:54:17.257Z</time>
      </trkpt>
      <trkpt lat="47.76228" lon="2.2614">
        <ele>119</ele>
        <time>2016-12-04T08:54:18.263Z</time>
      </trkpt>
      <trkpt lat="47.76228" lon="2.2614">
        <ele>119</ele>
        <time>2016-12-04T08:54:19.258Z</time>
      </trkpt>
      <trkpt lat="47.76225" lon="2.26145">
        <ele>119</ele>
        <time>2016-12-04T08:54:20.257Z</time>
      </trkpt>
      <trkpt lat="47.76225" lon="2.26148">
        <ele>119</ele>
        <time>2016-12-04T08:54:21.264Z</time>
      </trkpt>
      <trkpt lat="47.76224" lon="2.26151">
        <ele>118</ele>
        <time>2016-12-04T08:54:22.264Z</time>
      </trkpt>
      <trkpt lat="47.76224" lon="2.26151">
        <ele>118</ele>
        <time>2016-12-04T08:54:23.258Z</time>
      </trkpt>
      <trkpt lat="47.7622" lon="2.26162">
        <ele>118</ele>
        <time>2016-12-04T08:54:24.263Z</time>
      </trkpt>
      <trkpt lat="47.76217" lon="2.26168">
        <ele>118</ele>
        <time>2016-12-04T08:54:25.264Z</time>
      </trkpt>
      <trkpt lat="47.76217" lon="2.26168">
        <ele>118</ele>
        <time>2016-12-04T08:54:26.263Z</time>
      </trkpt>
      <trkpt lat="47.76213" lon="2.26178">
        <ele>118</ele>
        <time>2016-12-04T08:54:27.263Z</time>
      </trkpt>
      <trkpt lat="47.7621" lon="2.26183">
        <ele>118</ele>
        <time>2016-12-04T08:54:28.255Z</time>
      </trkpt>
      <trkpt lat="47.7621" lon="2.26183">
        <ele>118</ele>
        <time>2016-12-04T08:54:29.258Z</time>
      </trkpt>
      <trkpt lat="47.76206" lon="2.26192">
        <ele>118</ele>
        <time>2016-12-04T08:54:30.255Z</time>
      </trkpt>
      <trkpt lat="47.76205" lon="2.26196">
        <ele>118</ele>
        <time>2016-12-04T08:54:31.263Z</time>
      </trkpt>
      <trkpt lat="47.76203" lon="2.262">
        <ele>118</ele>
        <time>2016-12-04T08:54:32.265Z</time>
      </trkpt>
      <trkpt lat="47.76203" lon="2.262">
        <ele>118</ele>
        <time>2016-12-04T08:54:33.258Z</time>
      </trkpt>
      <trkpt lat="47.762" lon="2.26209">
        <ele>117</ele>
        <time>2016-12-04T08:54:34.263Z</time>
      </trkpt>
      <trkpt lat="47.762" lon="2.26209">
        <ele>117</ele>
        <time>2016-12-04T08:54:35.258Z</time>
      </trkpt>
      <trkpt lat="47.76196" lon="2.26218">
        <ele>117</ele>
        <time>2016-12-04T08:54:36.264Z</time>
      </trkpt>
      <trkpt lat="47.76196" lon="2.26218">
        <ele>117</ele>
        <time>2016-12-04T08:54:37.265Z</time>
      </trkpt>
      <trkpt lat="47.76192" lon="2.26228">
        <ele>116</ele>
        <time>2016-12-04T08:54:38.262Z</time>
      </trkpt>
      <trkpt lat="47.76192" lon="2.26228">
        <ele>116</ele>
        <time>2016-12-04T08:54:39.258Z</time>
      </trkpt>
      <trkpt lat="47.76189" lon="2.26237">
        <ele>116</ele>
        <time>2016-12-04T08:54:40.271Z</time>
      </trkpt>
      <trkpt lat="47.76187" lon="2.26241">
        <ele>117</ele>
        <time>2016-12-04T08:54:41.263Z</time>
      </trkpt>
      <trkpt lat="47.76187" lon="2.26241">
        <ele>117</ele>
        <time>2016-12-04T08:54:42.258Z</time>
      </trkpt>
      <trkpt lat="47.76185" lon="2.26249">
        <ele>117</ele>
        <time>2016-12-04T08:54:43.262Z</time>
      </trkpt>
      <trkpt lat="47.76184" lon="2.26252">
        <ele>117</ele>
        <time>2016-12-04T08:54:44.263Z</time>
      </trkpt>
      <trkpt lat="47.76184" lon="2.26252">
        <ele>117</ele>
        <time>2016-12-04T08:54:45.260Z</time>
      </trkpt>
      <trkpt lat="47.7618" lon="2.2626">
        <ele>116</ele>
        <time>2016-12-04T08:54:46.260Z</time>
      </trkpt>
      <trkpt lat="47.7618" lon="2.2626">
        <ele>116</ele>
        <time>2016-12-04T08:54:47.260Z</time>
      </trkpt>
      <trkpt lat="47.76176" lon="2.26268">
        <ele>116</ele>
        <time>2016-12-04T08:54:48.262Z</time>
      </trkpt>
      <trkpt lat="47.76176" lon="2.26268">
        <ele>116</ele>
        <time>2016-12-04T08:54:49.260Z</time>
      </trkpt>
      <trkpt lat="47.76173" lon="2.26277">
        <ele>116</ele>
        <time>2016-12-04T08:54:50.255Z</time>
      </trkpt>
      <trkpt lat="47.76171" lon="2.26281">
        <ele>115</ele>
        <time>2016-12-04T08:54:51.262Z</time>
      </trkpt>
      <trkpt lat="47.7617" lon="2.26285">
        <ele>115</ele>
        <time>2016-12-04T08:54:52.263Z</time>
      </trkpt>
      <trkpt lat="47.7617" lon="2.26285">
        <ele>115</ele>
        <time>2016-12-04T08:54:53.260Z</time>
      </trkpt>
      <trkpt lat="47.76167" lon="2.26293">
        <ele>115</ele>
        <time>2016-12-04T08:54:54.266Z</time>
      </trkpt>
      <trkpt lat="47.76166" lon="2.26298">
        <ele>115</ele>
        <time>2016-12-04T08:54:55.275Z</time>
      </trkpt>
      <trkpt lat="47.76166" lon="2.26298">
        <ele>115</ele>
        <time>2016-12-04T08:54:56.263Z</time>
      </trkpt>
      <trkpt lat="47.76164" lon="2.26306">
        <ele>114</ele>
        <time>2016-12-04T08:54:57.263Z</time>
      </trkpt>
      <trkpt lat="47.76163" lon="2.2631">
        <ele>115</ele>
        <time>2016-12-04T08:54:58.263Z</time>
      </trkpt>
      <trkpt lat="47.76163" lon="2.2631">
        <ele>115</ele>
        <time>2016-12-04T08:54:59.258Z</time>
      </trkpt>
      <trkpt lat="47.76164" lon="2.26318">
        <ele>115</ele>
        <time>2016-12-04T08:55:00.278Z</time>
      </trkpt>
      <trkpt lat="47.76165" lon="2.26322">
        <ele>115</ele>
        <time>2016-12-04T08:55:01.264Z</time>
      </trkpt>
      <trkpt lat="47.76165" lon="2.26326">
        <ele>115</ele>
        <time>2016-12-04T08:55:02.264Z</time>
      </trkpt>
      <trkpt lat="47.76165" lon="2.26326">
        <ele>115</ele>
        <time>2016-12-04T08:55:03.258Z</time>
      </trkpt>
      <trkpt lat="47.76166" lon="2.26332">
        <ele>115</ele>
        <time>2016-12-04T08:55:04.263Z</time>
      </trkpt>
      <trkpt lat="47.76167" lon="2.26335">
        <ele>115</ele>
        <time>2016-12-04T08:55:05.262Z</time>
      </trkpt>
      <trkpt lat="47.76167" lon="2.26335">
        <ele>115</ele>
        <time>2016-12-04T08:55:06.263Z</time>
      </trkpt>
      <trkpt lat="47.76167" lon="2.26341">
        <ele>115</ele>
        <time>2016-12-04T08:55:07.264Z</time>
      </trkpt>
      <trkpt lat="47.76167" lon="2.26341">
        <ele>115</ele>
        <time>2016-12-04T08:55:08.262Z</time>
      </trkpt>
      <trkpt lat="47.76167" lon="2.26347">
        <ele>115</ele>
        <time>2016-12-04T08:55:09.263Z</time>
      </trkpt>
      <trkpt lat="47.76167" lon="2.26347">
        <ele>115</ele>
        <time>2016-12-04T08:55:10.257Z</time>
      </trkpt>
      <trkpt lat="47.76166" lon="2.26351">
        <ele>115</ele>
        <time>2016-12-04T08:55:11.279Z</time>
      </trkpt>
      <trkpt lat="47.76166" lon="2.26351">
        <ele>115</ele>
        <time>2016-12-04T08:55:12.266Z</time>
      </trkpt>
      <trkpt lat="47.76166" lon="2.26355">
        <ele>116</ele>
        <time>2016-12-04T08:55:13.263Z</time>
      </trkpt>
      <trkpt lat="47.76166" lon="2.26357">
        <ele>116</ele>
        <time>2016-12-04T08:55:14.264Z</time>
      </trkpt>
      <trkpt lat="47.76166" lon="2.26357">
        <ele>116</ele>
        <time>2016-12-04T08:55:15.260Z</time>
      </trkpt>
      <trkpt lat="47.76165" lon="2.26361">
        <ele>116</ele>
        <time>2016-12-04T08:55:16.306Z</time>
      </trkpt>
      <trkpt lat="47.76165" lon="2.26361">
        <ele>116</ele>
        <time>2016-12-04T08:55:17.260Z</time>
      </trkpt>
      <trkpt lat="47.76165" lon="2.26364">
        <ele>117</ele>
        <time>2016-12-04T08:55:18.264Z</time>
      </trkpt>
      <trkpt lat="47.76165" lon="2.26364">
        <ele>117</ele>
        <time>2016-12-04T08:55:19.260Z</time>
      </trkpt>
      <trkpt lat="47.76164" lon="2.26366">
        <ele>118</ele>
        <time>2016-12-04T08:55:20.255Z</time>
      </trkpt>
      <trkpt lat="47.76164" lon="2.26367">
        <ele>119</ele>
        <time>2016-12-04T08:55:21.273Z</time>
      </trkpt>
      <trkpt lat="47.76164" lon="2.26367">
        <ele>119</ele>
        <time>2016-12-04T08:55:22.246Z</time>
      </trkpt>
      <trkpt lat="47.76169" lon="2.26373">
        <ele>125</ele>
        <time>2016-12-04T08:55:23.248Z</time>
      </trkpt>
      <trkpt lat="47.76169" lon="2.26373">
        <ele>125</ele>
        <time>2016-12-04T08:55:24.276Z</time>
      </trkpt>
      <trkpt lat="47.76174" lon="2.26374">
        <ele>125</ele>
        <time>2016-12-04T08:55:25.275Z</time>
      </trkpt>
      <trkpt lat="47.76176" lon="2.26374">
        <ele>125</ele>
        <time>2016-12-04T08:55:26.276Z</time>
      </trkpt>
      <trkpt lat="47.76176" lon="2.26374">
        <ele>125</ele>
        <time>2016-12-04T08:55:27.271Z</time>
      </trkpt>
      <trkpt lat="47.7618" lon="2.26374">
        <ele>125</ele>
        <time>2016-12-04T08:55:28.254Z</time>
      </trkpt>
      <trkpt lat="47.76183" lon="2.26374">
        <ele>125</ele>
        <time>2016-12-04T08:55:29.245Z</time>
      </trkpt>
      <trkpt lat="47.76183" lon="2.26374">
        <ele>125</ele>
        <time>2016-12-04T08:55:30.245Z</time>
      </trkpt>
      <trkpt lat="47.76189" lon="2.26375">
        <ele>125</ele>
        <time>2016-12-04T08:55:31.277Z</time>
      </trkpt>
      <trkpt lat="47.76192" lon="2.26375">
        <ele>125</ele>
        <time>2016-12-04T08:55:32.276Z</time>
      </trkpt>
      <trkpt lat="47.76196" lon="2.26376">
        <ele>125</ele>
        <time>2016-12-04T08:55:33.275Z</time>
      </trkpt>
      <trkpt lat="47.76196" lon="2.26376">
        <ele>125</ele>
        <time>2016-12-04T08:55:34.273Z</time>
      </trkpt>
      <trkpt lat="47.76204" lon="2.26375">
        <ele>127</ele>
        <time>2016-12-04T08:55:35.269Z</time>
      </trkpt>
      <trkpt lat="47.76209" lon="2.26375">
        <ele>128</ele>
        <time>2016-12-04T08:55:36.277Z</time>
      </trkpt>
      <trkpt lat="47.76214" lon="2.26374">
        <ele>129</ele>
        <time>2016-12-04T08:55:37.275Z</time>
      </trkpt>
      <trkpt lat="47.76214" lon="2.26374">
        <ele>129</ele>
        <time>2016-12-04T08:55:38.273Z</time>
      </trkpt>
      <trkpt lat="47.76224" lon="2.26372">
        <ele>131</ele>
        <time>2016-12-04T08:55:39.276Z</time>
      </trkpt>
      <trkpt lat="47.76224" lon="2.26372">
        <ele>131</ele>
        <time>2016-12-04T08:55:40.270Z</time>
      </trkpt>
      <trkpt lat="47.76233" lon="2.26371">
        <ele>131</ele>
        <time>2016-12-04T08:55:41.277Z</time>
      </trkpt>
      <trkpt lat="47.76233" lon="2.26371">
        <ele>131</ele>
        <time>2016-12-04T08:55:42.273Z</time>
      </trkpt>
      <trkpt lat="47.76242" lon="2.2637">
        <ele>133</ele>
        <time>2016-12-04T08:55:43.275Z</time>
      </trkpt>
      <trkpt lat="47.76242" lon="2.2637">
        <ele>133</ele>
        <time>2016-12-04T08:55:44.273Z</time>
      </trkpt>
      <trkpt lat="47.76253" lon="2.26369">
        <ele>135</ele>
        <time>2016-12-04T08:55:45.268Z</time>
      </trkpt>
      <trkpt lat="47.76258" lon="2.26368">
        <ele>135</ele>
        <time>2016-12-04T08:55:46.271Z</time>
      </trkpt>
      <trkpt lat="47.76258" lon="2.26368">
        <ele>135</ele>
        <time>2016-12-04T08:55:47.274Z</time>
      </trkpt>
      <trkpt lat="47.76269" lon="2.26368">
        <ele>137</ele>
        <time>2016-12-04T08:55:48.276Z</time>
      </trkpt>
      <trkpt lat="47.76274" lon="2.26368">
        <ele>137</ele>
        <time>2016-12-04T08:55:49.276Z</time>
      </trkpt>
      <trkpt lat="47.76274" lon="2.26368">
        <ele>137</ele>
        <time>2016-12-04T08:55:50.274Z</time>
      </trkpt>
      <trkpt lat="47.76284" lon="2.26368">
        <ele>138</ele>
        <time>2016-12-04T08:55:51.276Z</time>
      </trkpt>
      <trkpt lat="47.76284" lon="2.26368">
        <ele>138</ele>
        <time>2016-12-04T08:55:52.273Z</time>
      </trkpt>
      <trkpt lat="47.76294" lon="2.26367">
        <ele>139</ele>
        <time>2016-12-04T08:55:53.276Z</time>
      </trkpt>
      <trkpt lat="47.76294" lon="2.26367">
        <ele>139</ele>
        <time>2016-12-04T08:55:54.271Z</time>
      </trkpt>
      <trkpt lat="47.76306" lon="2.26367">
        <ele>139</ele>
        <time>2016-12-04T08:55:55.268Z</time>
      </trkpt>
      <trkpt lat="47.76311" lon="2.26367">
        <ele>139</ele>
        <time>2016-12-04T08:55:56.275Z</time>
      </trkpt>
      <trkpt lat="47.76315" lon="2.26368">
        <ele>139</ele>
        <time>2016-12-04T08:55:57.276Z</time>
      </trkpt>
      <trkpt lat="47.76315" lon="2.26368">
        <ele>139</ele>
        <time>2016-12-04T08:55:58.270Z</time>
      </trkpt>
      <trkpt lat="47.76326" lon="2.26369">
        <ele>138</ele>
        <time>2016-12-04T08:55:59.276Z</time>
      </trkpt>
      <trkpt lat="47.76326" lon="2.26369">
        <ele>138</ele>
        <time>2016-12-04T08:56:00.246Z</time>
      </trkpt>
      <trkpt lat="47.76336" lon="2.26369">
        <ele>138</ele>
        <time>2016-12-04T08:56:01.275Z</time>
      </trkpt>
      <trkpt lat="47.76341" lon="2.26369">
        <ele>137</ele>
        <time>2016-12-04T08:56:02.272Z</time>
      </trkpt>
      <trkpt lat="47.76341" lon="2.26369">
        <ele>137</ele>
        <time>2016-12-04T08:56:03.271Z</time>
      </trkpt>
      <trkpt lat="47.76353" lon="2.26369">
        <ele>136</ele>
        <time>2016-12-04T08:56:04.276Z</time>
      </trkpt>
      <trkpt lat="47.76353" lon="2.26369">
        <ele>136</ele>
        <time>2016-12-04T08:56:05.268Z</time>
      </trkpt>
      <trkpt lat="47.76366" lon="2.26369">
        <ele>136</ele>
        <time>2016-12-04T08:56:06.246Z</time>
      </trkpt>
      <trkpt lat="47.76371" lon="2.2637">
        <ele>137</ele>
        <time>2016-12-04T08:56:07.276Z</time>
      </trkpt>
      <trkpt lat="47.76371" lon="2.2637">
        <ele>137</ele>
        <time>2016-12-04T08:56:08.273Z</time>
      </trkpt>
      <trkpt lat="47.76382" lon="2.26369">
        <ele>137</ele>
        <time>2016-12-04T08:56:09.275Z</time>
      </trkpt>
      <trkpt lat="47.76382" lon="2.26369">
        <ele>137</ele>
        <time>2016-12-04T08:56:10.273Z</time>
      </trkpt>
      <trkpt lat="47.76391" lon="2.2637">
        <ele>135</ele>
        <time>2016-12-04T08:56:11.277Z</time>
      </trkpt>
      <trkpt lat="47.76391" lon="2.2637">
        <ele>135</ele>
        <time>2016-12-04T08:56:12.271Z</time>
      </trkpt>
      <trkpt lat="47.76401" lon="2.26371">
        <ele>134</ele>
        <time>2016-12-04T08:56:13.276Z</time>
      </trkpt>
      <trkpt lat="47.76401" lon="2.26371">
        <ele>134</ele>
        <time>2016-12-04T08:56:14.273Z</time>
      </trkpt>
      <trkpt lat="47.76411" lon="2.26372">
        <ele>134</ele>
        <time>2016-12-04T08:56:15.269Z</time>
      </trkpt>
      <trkpt lat="47.76415" lon="2.26373">
        <ele>133</ele>
        <time>2016-12-04T08:56:16.278Z</time>
      </trkpt>
      <trkpt lat="47.7642" lon="2.26374">
        <ele>132</ele>
        <time>2016-12-04T08:56:17.261Z</time>
      </trkpt>
      <trkpt lat="47.7642" lon="2.26374">
        <ele>132</ele>
        <time>2016-12-04T08:56:18.267Z</time>
      </trkpt>
      <trkpt lat="47.76431" lon="2.26378">
        <ele>131</ele>
        <time>2016-12-04T08:56:19.276Z</time>
      </trkpt>
      <trkpt lat="47.76431" lon="2.26378">
        <ele>131</ele>
        <time>2016-12-04T08:56:20.270Z</time>
      </trkpt>
      <trkpt lat="47.76441" lon="2.2638">
        <ele>130</ele>
        <time>2016-12-04T08:56:21.277Z</time>
      </trkpt>
      <trkpt lat="47.76441" lon="2.2638">
        <ele>130</ele>
        <time>2016-12-04T08:56:22.271Z</time>
      </trkpt>
      <trkpt lat="47.76453" lon="2.26383">
        <ele>130</ele>
        <time>2016-12-04T08:56:23.277Z</time>
      </trkpt>
      <trkpt lat="47.76453" lon="2.26383">
        <ele>130</ele>
        <time>2016-12-04T08:56:24.274Z</time>
      </trkpt>
      <trkpt lat="47.76464" lon="2.26385">
        <ele>129</ele>
        <time>2016-12-04T08:56:25.268Z</time>
      </trkpt>
      <trkpt lat="47.76471" lon="2.26387">
        <ele>129</ele>
        <time>2016-12-04T08:56:26.275Z</time>
      </trkpt>
      <trkpt lat="47.76471" lon="2.26387">
        <ele>129</ele>
        <time>2016-12-04T08:56:27.271Z</time>
      </trkpt>
      <trkpt lat="47.76485" lon="2.2639">
        <ele>127</ele>
        <time>2016-12-04T08:56:28.279Z</time>
      </trkpt>
      <trkpt lat="47.76485" lon="2.2639">
        <ele>127</ele>
        <time>2016-12-04T08:56:29.246Z</time>
      </trkpt>
      <trkpt lat="47.76496" lon="2.26394">
        <ele>127</ele>
        <time>2016-12-04T08:56:30.251Z</time>
      </trkpt>
      <trkpt lat="47.76501" lon="2.26396">
        <ele>126</ele>
        <time>2016-12-04T08:56:31.279Z</time>
      </trkpt>
      <trkpt lat="47.76501" lon="2.26396">
        <ele>126</ele>
        <time>2016-12-04T08:56:32.274Z</time>
      </trkpt>
      <trkpt lat="47.7651" lon="2.26399">
        <ele>126</ele>
        <time>2016-12-04T08:56:33.276Z</time>
      </trkpt>
      <trkpt lat="47.7651" lon="2.26399">
        <ele>126</ele>
        <time>2016-12-04T08:56:34.274Z</time>
      </trkpt>
      <trkpt lat="47.7652" lon="2.26402">
        <ele>126</ele>
        <time>2016-12-04T08:56:35.272Z</time>
      </trkpt>
      <trkpt lat="47.76525" lon="2.26403">
        <ele>127</ele>
        <time>2016-12-04T08:56:36.276Z</time>
      </trkpt>
      <trkpt lat="47.76525" lon="2.26403">
        <ele>127</ele>
        <time>2016-12-04T08:56:37.274Z</time>
      </trkpt>
      <trkpt lat="47.76535" lon="2.26407">
        <ele>127</ele>
        <time>2016-12-04T08:56:38.276Z</time>
      </trkpt>
      <trkpt lat="47.76535" lon="2.26407">
        <ele>127</ele>
        <time>2016-12-04T08:56:39.273Z</time>
      </trkpt>
      <trkpt lat="47.76544" lon="2.2641">
        <ele>127</ele>
        <time>2016-12-04T08:56:40.276Z</time>
      </trkpt>
      <trkpt lat="47.76544" lon="2.2641">
        <ele>127</ele>
        <time>2016-12-04T08:56:41.274Z</time>
      </trkpt>
      <trkpt lat="47.76554" lon="2.26414">
        <ele>127</ele>
        <time>2016-12-04T08:56:42.275Z</time>
      </trkpt>
      <trkpt lat="47.76559" lon="2.26415">
        <ele>127</ele>
        <time>2016-12-04T08:56:43.249Z</time>
      </trkpt>
      <trkpt lat="47.76559" lon="2.26415">
        <ele>127</ele>
        <time>2016-12-04T08:56:44.278Z</time>
      </trkpt>
      <trkpt lat="47.76569" lon="2.26416">
        <ele>126</ele>
        <time>2016-12-04T08:56:45.269Z</time>
      </trkpt>
      <trkpt lat="47.76573" lon="2.26417">
        <ele>126</ele>
        <time>2016-12-04T08:56:46.276Z</time>
      </trkpt>
      <trkpt lat="47.76573" lon="2.26417">
        <ele>126</ele>
        <time>2016-12-04T08:56:47.274Z</time>
      </trkpt>
      <trkpt lat="47.76579" lon="2.26423">
        <ele>126</ele>
        <time>2016-12-04T08:56:48.276Z</time>
      </trkpt>
      <trkpt lat="47.76579" lon="2.26423">
        <ele>126</ele>
        <time>2016-12-04T08:56:49.271Z</time>
      </trkpt>
      <trkpt lat="47.76579" lon="2.26431">
        <ele>126</ele>
        <time>2016-12-04T08:56:50.275Z</time>
      </trkpt>
      <trkpt lat="47.76579" lon="2.26431">
        <ele>126</ele>
        <time>2016-12-04T08:56:51.273Z</time>
      </trkpt>
      <trkpt lat="47.76578" lon="2.26439">
        <ele>125</ele>
        <time>2016-12-04T08:56:52.276Z</time>
      </trkpt>
      <trkpt lat="47.76577" lon="2.26443">
        <ele>125</ele>
        <time>2016-12-04T08:56:53.274Z</time>
      </trkpt>
      <trkpt lat="47.76577" lon="2.26443">
        <ele>125</ele>
        <time>2016-12-04T08:56:54.271Z</time>
      </trkpt>
      <trkpt lat="47.76576" lon="2.26452">
        <ele>124</ele>
        <time>2016-12-04T08:56:55.270Z</time>
      </trkpt>
      <trkpt lat="47.76577" lon="2.26457">
        <ele>124</ele>
        <time>2016-12-04T08:56:56.276Z</time>
      </trkpt>
      <trkpt lat="47.76577" lon="2.26457">
        <ele>124</ele>
        <time>2016-12-04T08:56:57.271Z</time>
      </trkpt>
      <trkpt lat="47.76578" lon="2.26469">
        <ele>124</ele>
        <time>2016-12-04T08:56:58.276Z</time>
      </trkpt>
      <trkpt lat="47.76578" lon="2.26469">
        <ele>124</ele>
        <time>2016-12-04T08:56:59.268Z</time>
      </trkpt>
      <trkpt lat="47.76578" lon="2.2648">
        <ele>124</ele>
        <time>2016-12-04T08:57:00.275Z</time>
      </trkpt>
      <trkpt lat="47.76577" lon="2.26486">
        <ele>124</ele>
        <time>2016-12-04T08:57:01.277Z</time>
      </trkpt>
      <trkpt lat="47.76577" lon="2.26486">
        <ele>124</ele>
        <time>2016-12-04T08:57:02.271Z</time>
      </trkpt>
      <trkpt lat="47.76577" lon="2.26498">
        <ele>124</ele>
        <time>2016-12-04T08:57:03.276Z</time>
      </trkpt>
      <trkpt lat="47.76577" lon="2.26498">
        <ele>124</ele>
        <time>2016-12-04T08:57:04.274Z</time>
      </trkpt>
      <trkpt lat="47.76576" lon="2.26511">
        <ele>123</ele>
        <time>2016-12-04T08:57:05.270Z</time>
      </trkpt>
      <trkpt lat="47.76575" lon="2.26517">
        <ele>123</ele>
        <time>2016-12-04T08:57:06.275Z</time>
      </trkpt>
      <trkpt lat="47.76575" lon="2.26517">
        <ele>123</ele>
        <time>2016-12-04T08:57:07.273Z</time>
      </trkpt>
      <trkpt lat="47.76573" lon="2.2653">
        <ele>123</ele>
        <time>2016-12-04T08:57:08.276Z</time>
      </trkpt>
      <trkpt lat="47.76572" lon="2.26537">
        <ele>123</ele>
        <time>2016-12-04T08:57:09.282Z</time>
      </trkpt>
      <trkpt lat="47.76572" lon="2.26537">
        <ele>123</ele>
        <time>2016-12-04T08:57:10.246Z</time>
      </trkpt>
      <trkpt lat="47.76569" lon="2.2655">
        <ele>122</ele>
        <time>2016-12-04T08:57:11.277Z</time>
      </trkpt>
      <trkpt lat="47.76568" lon="2.26557">
        <ele>121</ele>
        <time>2016-12-04T08:57:12.276Z</time>
      </trkpt>
      <trkpt lat="47.76567" lon="2.26564">
        <ele>122</ele>
        <time>2016-12-04T08:57:13.246Z</time>
      </trkpt>
      <trkpt lat="47.76567" lon="2.26564">
        <ele>122</ele>
        <time>2016-12-04T08:57:14.274Z</time>
      </trkpt>
      <trkpt lat="47.76565" lon="2.26578">
        <ele>122</ele>
        <time>2016-12-04T08:57:15.269Z</time>
      </trkpt>
      <trkpt lat="47.76565" lon="2.26578">
        <ele>122</ele>
        <time>2016-12-04T08:57:16.249Z</time>
      </trkpt>
      <trkpt lat="47.76562" lon="2.26593">
        <ele>122</ele>
        <time>2016-12-04T08:57:17.277Z</time>
      </trkpt>
      <trkpt lat="47.76562" lon="2.26593">
        <ele>122</ele>
        <time>2016-12-04T08:57:18.274Z</time>
      </trkpt>
      <trkpt lat="47.7656" lon="2.26608">
        <ele>122</ele>
        <time>2016-12-04T08:57:19.279Z</time>
      </trkpt>
      <trkpt lat="47.7656" lon="2.26608">
        <ele>122</ele>
        <time>2016-12-04T08:57:20.274Z</time>
      </trkpt>
      <trkpt lat="47.76557" lon="2.26622">
        <ele>122</ele>
        <time>2016-12-04T08:57:21.277Z</time>
      </trkpt>
      <trkpt lat="47.76555" lon="2.2663">
        <ele>122</ele>
        <time>2016-12-04T08:57:22.275Z</time>
      </trkpt>
      <trkpt lat="47.76555" lon="2.2663">
        <ele>122</ele>
        <time>2016-12-04T08:57:23.274Z</time>
      </trkpt>
      <trkpt lat="47.76551" lon="2.26643">
        <ele>122</ele>
        <time>2016-12-04T08:57:24.276Z</time>
      </trkpt>
      <trkpt lat="47.76551" lon="2.26643">
        <ele>122</ele>
        <time>2016-12-04T08:57:25.267Z</time>
      </trkpt>
      <trkpt lat="47.76547" lon="2.26657">
        <ele>121</ele>
        <time>2016-12-04T08:57:26.276Z</time>
      </trkpt>
      <trkpt lat="47.76547" lon="2.26657">
        <ele>121</ele>
        <time>2016-12-04T08:57:27.278Z</time>
      </trkpt>
      <trkpt lat="47.76542" lon="2.2667">
        <ele>121</ele>
        <time>2016-12-04T08:57:28.276Z</time>
      </trkpt>
      <trkpt lat="47.76542" lon="2.2667">
        <ele>121</ele>
        <time>2016-12-04T08:57:29.276Z</time>
      </trkpt>
      <trkpt lat="47.76536" lon="2.26682">
        <ele>120</ele>
        <time>2016-12-04T08:57:30.276Z</time>
      </trkpt>
      <trkpt lat="47.76533" lon="2.26689">
        <ele>120</ele>
        <time>2016-12-04T08:57:31.276Z</time>
      </trkpt>
      <trkpt lat="47.76533" lon="2.26689">
        <ele>120</ele>
        <time>2016-12-04T08:57:32.274Z</time>
      </trkpt>
      <trkpt lat="47.76527" lon="2.26702">
        <ele>119</ele>
        <time>2016-12-04T08:57:33.280Z</time>
      </trkpt>
      <trkpt lat="47.76527" lon="2.26702">
        <ele>119</ele>
        <time>2016-12-04T08:57:34.271Z</time>
      </trkpt>
      <trkpt lat="47.76521" lon="2.26714">
        <ele>118</ele>
        <time>2016-12-04T08:57:35.270Z</time>
      </trkpt>
      <trkpt lat="47.76518" lon="2.2672">
        <ele>118</ele>
        <time>2016-12-04T08:57:36.277Z</time>
      </trkpt>
      <trkpt lat="47.76514" lon="2.26726">
        <ele>117</ele>
        <time>2016-12-04T08:57:37.277Z</time>
      </trkpt>
      <trkpt lat="47.76514" lon="2.26726">
        <ele>117</ele>
        <time>2016-12-04T08:57:38.274Z</time>
      </trkpt>
      <trkpt lat="47.76508" lon="2.26738">
        <ele>117</ele>
        <time>2016-12-04T08:57:39.278Z</time>
      </trkpt>
      <trkpt lat="47.76505" lon="2.26743">
        <ele>116</ele>
        <time>2016-12-04T08:57:40.276Z</time>
      </trkpt>
      <trkpt lat="47.76505" lon="2.26743">
        <ele>116</ele>
        <time>2016-12-04T08:57:41.274Z</time>
      </trkpt>
      <trkpt lat="47.76499" lon="2.26755">
        <ele>116</ele>
        <time>2016-12-04T08:57:42.276Z</time>
      </trkpt>
      <trkpt lat="47.76496" lon="2.26761">
        <ele>115</ele>
        <time>2016-12-04T08:57:43.277Z</time>
      </trkpt>
      <trkpt lat="47.76493" lon="2.26766">
        <ele>115</ele>
        <time>2016-12-04T08:57:44.276Z</time>
      </trkpt>
      <trkpt lat="47.76493" lon="2.26766">
        <ele>115</ele>
        <time>2016-12-04T08:57:45.267Z</time>
      </trkpt>
      <trkpt lat="47.76487" lon="2.26777">
        <ele>115</ele>
        <time>2016-12-04T08:57:46.276Z</time>
      </trkpt>
      <trkpt lat="47.76487" lon="2.26777">
        <ele>115</ele>
        <time>2016-12-04T08:57:47.274Z</time>
      </trkpt>
      <trkpt lat="47.76481" lon="2.26788">
        <ele>114</ele>
        <time>2016-12-04T08:57:48.276Z</time>
      </trkpt>
      <trkpt lat="47.76478" lon="2.26793">
        <ele>114</ele>
        <time>2016-12-04T08:57:49.277Z</time>
      </trkpt>
      <trkpt lat="47.76478" lon="2.26793">
        <ele>114</ele>
        <time>2016-12-04T08:57:50.274Z</time>
      </trkpt>
      <trkpt lat="47.76471" lon="2.26802">
        <ele>114</ele>
        <time>2016-12-04T08:57:51.276Z</time>
      </trkpt>
      <trkpt lat="47.76471" lon="2.26802">
        <ele>114</ele>
        <time>2016-12-04T08:57:52.271Z</time>
      </trkpt>
      <trkpt lat="47.76465" lon="2.26813">
        <ele>114</ele>
        <time>2016-12-04T08:57:53.276Z</time>
      </trkpt>
      <trkpt lat="47.76465" lon="2.26813">
        <ele>114</ele>
        <time>2016-12-04T08:57:54.274Z</time>
      </trkpt>
      <trkpt lat="47.76458" lon="2.26822">
        <ele>113</ele>
        <time>2016-12-04T08:57:55.269Z</time>
      </trkpt>
      <trkpt lat="47.76455" lon="2.26826">
        <ele>113</ele>
        <time>2016-12-04T08:57:56.276Z</time>
      </trkpt>
      <trkpt lat="47.76455" lon="2.26826">
        <ele>113</ele>
        <time>2016-12-04T08:57:57.271Z</time>
      </trkpt>
      <trkpt lat="47.7645" lon="2.26836">
        <ele>113</ele>
        <time>2016-12-04T08:57:58.276Z</time>
      </trkpt>
      <trkpt lat="47.7645" lon="2.26836">
        <ele>113</ele>
        <time>2016-12-04T08:57:59.278Z</time>
      </trkpt>
      <trkpt lat="47.76442" lon="2.26847">
        <ele>113</ele>
        <time>2016-12-04T08:58:00.246Z</time>
      </trkpt>
      <trkpt lat="47.76439" lon="2.26852">
        <ele>113</ele>
        <time>2016-12-04T08:58:01.279Z</time>
      </trkpt>
      <trkpt lat="47.76439" lon="2.26852">
        <ele>113</ele>
        <time>2016-12-04T08:58:02.274Z</time>
      </trkpt>
      <trkpt lat="47.76433" lon="2.26861">
        <ele>112</ele>
        <time>2016-12-04T08:58:03.277Z</time>
      </trkpt>
      <trkpt lat="47.76433" lon="2.26861">
        <ele>112</ele>
        <time>2016-12-04T08:58:04.274Z</time>
      </trkpt>
      <trkpt lat="47.76428" lon="2.26869">
        <ele>112</ele>
        <time>2016-12-04T08:58:05.270Z</time>
      </trkpt>
      <trkpt lat="47.76424" lon="2.26874">
        <ele>112</ele>
        <time>2016-12-04T08:58:06.278Z</time>
      </trkpt>
      <trkpt lat="47.76424" lon="2.26874">
        <ele>112</ele>
        <time>2016-12-04T08:58:07.274Z</time>
      </trkpt>
      <trkpt lat="47.76419" lon="2.26884">
        <ele>112</ele>
        <time>2016-12-04T08:58:08.277Z</time>
      </trkpt>
      <trkpt lat="47.76419" lon="2.26884">
        <ele>112</ele>
        <time>2016-12-04T08:58:09.277Z</time>
      </trkpt>
      <trkpt lat="47.76413" lon="2.26893">
        <ele>113</ele>
        <time>2016-12-04T08:58:10.276Z</time>
      </trkpt>
      <trkpt lat="47.7641" lon="2.26898">
        <ele>113</ele>
        <time>2016-12-04T08:58:11.277Z</time>
      </trkpt>
      <trkpt lat="47.7641" lon="2.26898">
        <ele>113</ele>
        <time>2016-12-04T08:58:12.274Z</time>
      </trkpt>
      <trkpt lat="47.76404" lon="2.26906">
        <ele>113</ele>
        <time>2016-12-04T08:58:13.277Z</time>
      </trkpt>
      <trkpt lat="47.76404" lon="2.26906">
        <ele>113</ele>
        <time>2016-12-04T08:58:14.273Z</time>
      </trkpt>
      <trkpt lat="47.76397" lon="2.26913">
        <ele>113</ele>
        <time>2016-12-04T08:58:15.273Z</time>
      </trkpt>
      <trkpt lat="47.76397" lon="2.26913">
        <ele>113</ele>
        <time>2016-12-04T08:58:16.277Z</time>
      </trkpt>
      <trkpt lat="47.76389" lon="2.2692">
        <ele>113</ele>
        <time>2016-12-04T08:58:17.249Z</time>
      </trkpt>
      <trkpt lat="47.76389" lon="2.2692">
        <ele>113</ele>
        <time>2016-12-04T08:58:18.277Z</time>
      </trkpt>
      <trkpt lat="47.76382" lon="2.26926">
        <ele>113</ele>
        <time>2016-12-04T08:58:19.244Z</time>
      </trkpt>
      <trkpt lat="47.76382" lon="2.26926">
        <ele>113</ele>
        <time>2016-12-04T08:58:20.258Z</time>
      </trkpt>
      <trkpt lat="47.76376" lon="2.2693">
        <ele>114</ele>
        <time>2016-12-04T08:58:21.256Z</time>
      </trkpt>
      <trkpt lat="47.76376" lon="2.2693">
        <ele>114</ele>
        <time>2016-12-04T08:58:22.247Z</time>
      </trkpt>
      <trkpt lat="47.76368" lon="2.26935">
        <ele>115</ele>
        <time>2016-12-04T08:58:23.278Z</time>
      </trkpt>
      <trkpt lat="47.76368" lon="2.26935">
        <ele>115</ele>
        <time>2016-12-04T08:58:24.271Z</time>
      </trkpt>
      <trkpt lat="47.76361" lon="2.2694">
        <ele>117</ele>
        <time>2016-12-04T08:58:25.266Z</time>
      </trkpt>
      <trkpt lat="47.76357" lon="2.26943">
        <ele>117</ele>
        <time>2016-12-04T08:58:26.257Z</time>
      </trkpt>
      <trkpt lat="47.76357" lon="2.26943">
        <ele>117</ele>
        <time>2016-12-04T08:58:27.248Z</time>
      </trkpt>
      <trkpt lat="47.7635" lon="2.26948">
        <ele>118</ele>
        <time>2016-12-04T08:58:28.277Z</time>
      </trkpt>
      <trkpt lat="47.76347" lon="2.26951">
        <ele>118</ele>
        <time>2016-12-04T08:58:29.278Z</time>
      </trkpt>
      <trkpt lat="47.76347" lon="2.26951">
        <ele>118</ele>
        <time>2016-12-04T08:58:30.257Z</time>
      </trkpt>
      <trkpt lat="47.7634" lon="2.26958">
        <ele>120</ele>
        <time>2016-12-04T08:58:31.246Z</time>
      </trkpt>
      <trkpt lat="47.7634" lon="2.26958">
        <ele>120</ele>
        <time>2016-12-04T08:58:32.274Z</time>
      </trkpt>
      <trkpt lat="47.76335" lon="2.26961">
        <ele>120</ele>
        <time>2016-12-04T08:58:33.274Z</time>
      </trkpt>
      <trkpt lat="47.76335" lon="2.26961">
        <ele>120</ele>
        <time>2016-12-04T08:58:34.272Z</time>
      </trkpt>
      <trkpt lat="47.76329" lon="2.26967">
        <ele>121</ele>
        <time>2016-12-04T08:58:35.270Z</time>
      </trkpt>
      <trkpt lat="47.76329" lon="2.26967">
        <ele>121</ele>
        <time>2016-12-04T08:58:36.274Z</time>
      </trkpt>
      <trkpt lat="47.76323" lon="2.26972">
        <ele>121</ele>
        <time>2016-12-04T08:58:37.278Z</time>
      </trkpt>
      <trkpt lat="47.76323" lon="2.26972">
        <ele>121</ele>
        <time>2016-12-04T08:58:38.272Z</time>
      </trkpt>
      <trkpt lat="47.76318" lon="2.26977">
        <ele>121</ele>
        <time>2016-12-04T08:58:39.276Z</time>
      </trkpt>
      <trkpt lat="47.76318" lon="2.26977">
        <ele>121</ele>
        <time>2016-12-04T08:58:40.273Z</time>
      </trkpt>
      <trkpt lat="47.76313" lon="2.26982">
        <ele>122</ele>
        <time>2016-12-04T08:58:41.278Z</time>
      </trkpt>
      <trkpt lat="47.76313" lon="2.26982">
        <ele>122</ele>
        <time>2016-12-04T08:58:42.273Z</time>
      </trkpt>
      <trkpt lat="47.76307" lon="2.26986">
        <ele>123</ele>
        <time>2016-12-04T08:58:43.277Z</time>
      </trkpt>
      <trkpt lat="47.76307" lon="2.26986">
        <ele>123</ele>
        <time>2016-12-04T08:58:44.274Z</time>
      </trkpt>
      <trkpt lat="47.76302" lon="2.26992">
        <ele>123</ele>
        <time>2016-12-04T08:58:45.270Z</time>
      </trkpt>
      <trkpt lat="47.76299" lon="2.26994">
        <ele>124</ele>
        <time>2016-12-04T08:58:46.276Z</time>
      </trkpt>
      <trkpt lat="47.76296" lon="2.26996">
        <ele>125</ele>
        <time>2016-12-04T08:58:47.278Z</time>
      </trkpt>
      <trkpt lat="47.76296" lon="2.26996">
        <ele>125</ele>
        <time>2016-12-04T08:58:48.274Z</time>
      </trkpt>
      <trkpt lat="47.7629" lon="2.27">
        <ele>125</ele>
        <time>2016-12-04T08:58:49.274Z</time>
      </trkpt>
      <trkpt lat="47.7629" lon="2.27">
        <ele>125</ele>
        <time>2016-12-04T08:58:50.245Z</time>
      </trkpt>
      <trkpt lat="47.76285" lon="2.27002">
        <ele>126</ele>
        <time>2016-12-04T08:58:51.281Z</time>
      </trkpt>
      <trkpt lat="47.76282" lon="2.27004">
        <ele>126</ele>
        <time>2016-12-04T08:58:52.276Z</time>
      </trkpt>
      <trkpt lat="47.76282" lon="2.27004">
        <ele>126</ele>
        <time>2016-12-04T08:58:53.275Z</time>
      </trkpt>
      <trkpt lat="47.76277" lon="2.27007">
        <ele>127</ele>
        <time>2016-12-04T08:58:54.277Z</time>
      </trkpt>
      <trkpt lat="47.76277" lon="2.27007">
        <ele>127</ele>
        <time>2016-12-04T08:58:55.267Z</time>
      </trkpt>
      <trkpt lat="47.76271" lon="2.27009">
        <ele>128</ele>
        <time>2016-12-04T08:58:56.257Z</time>
      </trkpt>
      <trkpt lat="47.76268" lon="2.27011">
        <ele>128</ele>
        <time>2016-12-04T08:58:57.248Z</time>
      </trkpt>
      <trkpt lat="47.76268" lon="2.27011">
        <ele>128</ele>
        <time>2016-12-04T08:58:58.275Z</time>
      </trkpt>
      <trkpt lat="47.76262" lon="2.27014">
        <ele>129</ele>
        <time>2016-12-04T08:58:59.278Z</time>
      </trkpt>
      <trkpt lat="47.76262" lon="2.27014">
        <ele>129</ele>
        <time>2016-12-04T08:59:00.276Z</time>
      </trkpt>
      <trkpt lat="47.76257" lon="2.27016">
        <ele>130</ele>
        <time>2016-12-04T08:59:01.253Z</time>
      </trkpt>
      <trkpt lat="47.76257" lon="2.27016">
        <ele>130</ele>
        <time>2016-12-04T08:59:02.281Z</time>
      </trkpt>
      <trkpt lat="47.76252" lon="2.2702">
        <ele>130</ele>
        <time>2016-12-04T08:59:03.276Z</time>
      </trkpt>
      <trkpt lat="47.76252" lon="2.2702">
        <ele>130</ele>
        <time>2016-12-04T08:59:04.274Z</time>
      </trkpt>
      <trkpt lat="47.76248" lon="2.27024">
        <ele>131</ele>
        <time>2016-12-04T08:59:05.271Z</time>
      </trkpt>
      <trkpt lat="47.76248" lon="2.27024">
        <ele>131</ele>
        <time>2016-12-04T08:59:06.254Z</time>
      </trkpt>
      <trkpt lat="47.76245" lon="2.27027">
        <ele>132</ele>
        <time>2016-12-04T08:59:07.282Z</time>
      </trkpt>
      <trkpt lat="47.76245" lon="2.27027">
        <ele>132</ele>
        <time>2016-12-04T08:59:08.274Z</time>
      </trkpt>
      <trkpt lat="47.76241" lon="2.27031">
        <ele>133</ele>
        <time>2016-12-04T08:59:09.274Z</time>
      </trkpt>
      <trkpt lat="47.76241" lon="2.27031">
        <ele>133</ele>
        <time>2016-12-04T08:59:10.279Z</time>
      </trkpt>
      <trkpt lat="47.76238" lon="2.27035">
        <ele>133</ele>
        <time>2016-12-04T08:59:11.278Z</time>
      </trkpt>
      <trkpt lat="47.76238" lon="2.27035">
        <ele>133</ele>
        <time>2016-12-04T08:59:12.274Z</time>
      </trkpt>
      <trkpt lat="47.76235" lon="2.2704">
        <ele>134</ele>
        <time>2016-12-04T08:59:13.275Z</time>
      </trkpt>
      <trkpt lat="47.76235" lon="2.2704">
        <ele>134</ele>
        <time>2016-12-04T08:59:14.272Z</time>
      </trkpt>
      <trkpt lat="47.76233" lon="2.27043">
        <ele>134</ele>
        <time>2016-12-04T08:59:15.270Z</time>
      </trkpt>
      <trkpt lat="47.76233" lon="2.27043">
        <ele>134</ele>
        <time>2016-12-04T08:59:16.275Z</time>
      </trkpt>
      <trkpt lat="47.76232" lon="2.27048">
        <ele>134</ele>
        <time>2016-12-04T08:59:17.247Z</time>
      </trkpt>
      <trkpt lat="47.76232" lon="2.27048">
        <ele>134</ele>
        <time>2016-12-04T08:59:18.275Z</time>
      </trkpt>
      <trkpt lat="47.76229" lon="2.27053">
        <ele>135</ele>
        <time>2016-12-04T08:59:19.278Z</time>
      </trkpt>
      <trkpt lat="47.76229" lon="2.27053">
        <ele>135</ele>
        <time>2016-12-04T08:59:20.278Z</time>
      </trkpt>
      <trkpt lat="47.76227" lon="2.27059">
        <ele>135</ele>
        <time>2016-12-04T08:59:21.282Z</time>
      </trkpt>
      <trkpt lat="47.76226" lon="2.27062">
        <ele>135</ele>
        <time>2016-12-04T08:59:22.277Z</time>
      </trkpt>
      <trkpt lat="47.76225" lon="2.27064">
        <ele>136</ele>
        <time>2016-12-04T08:59:23.278Z</time>
      </trkpt>
      <trkpt lat="47.76225" lon="2.27064">
        <ele>136</ele>
        <time>2016-12-04T08:59:24.274Z</time>
      </trkpt>
      <trkpt lat="47.76222" lon="2.2707">
        <ele>136</ele>
        <time>2016-12-04T08:59:25.276Z</time>
      </trkpt>
      <trkpt lat="47.76222" lon="2.2707">
        <ele>136</ele>
        <time>2016-12-04T08:59:26.272Z</time>
      </trkpt>
      <trkpt lat="47.7622" lon="2.27074">
        <ele>136</ele>
        <time>2016-12-04T08:59:27.276Z</time>
      </trkpt>
      <trkpt lat="47.7622" lon="2.27074">
        <ele>136</ele>
        <time>2016-12-04T08:59:28.273Z</time>
      </trkpt>
      <trkpt lat="47.76217" lon="2.27079">
        <ele>136</ele>
        <time>2016-12-04T08:59:29.278Z</time>
      </trkpt>
      <trkpt lat="47.76216" lon="2.27082">
        <ele>136</ele>
        <time>2016-12-04T08:59:30.279Z</time>
      </trkpt>
      <trkpt lat="47.76216" lon="2.27082">
        <ele>136</ele>
        <time>2016-12-04T08:59:31.274Z</time>
      </trkpt>
      <trkpt lat="47.76215" lon="2.27089">
        <ele>135</ele>
        <time>2016-12-04T08:59:32.276Z</time>
      </trkpt>
      <trkpt lat="47.76215" lon="2.27089">
        <ele>135</ele>
        <time>2016-12-04T08:59:33.274Z</time>
      </trkpt>
      <trkpt lat="47.76212" lon="2.27095">
        <ele>135</ele>
        <time>2016-12-04T08:59:34.276Z</time>
      </trkpt>
      <trkpt lat="47.76212" lon="2.27095">
        <ele>135</ele>
        <time>2016-12-04T08:59:35.266Z</time>
      </trkpt>
      <trkpt lat="47.7621" lon="2.27101">
        <ele>135</ele>
        <time>2016-12-04T08:59:36.276Z</time>
      </trkpt>
      <trkpt lat="47.76209" lon="2.27104">
        <ele>135</ele>
        <time>2016-12-04T08:59:37.277Z</time>
      </trkpt>
      <trkpt lat="47.76209" lon="2.27104">
        <ele>135</ele>
        <time>2016-12-04T08:59:38.274Z</time>
      </trkpt>
      <trkpt lat="47.76206" lon="2.2711">
        <ele>135</ele>
        <time>2016-12-04T08:59:39.277Z</time>
      </trkpt>
      <trkpt lat="47.76206" lon="2.2711">
        <ele>135</ele>
        <time>2016-12-04T08:59:40.281Z</time>
      </trkpt>
      <trkpt lat="47.76203" lon="2.27116">
        <ele>135</ele>
        <time>2016-12-04T08:59:41.278Z</time>
      </trkpt>
      <trkpt lat="47.76203" lon="2.27116">
        <ele>135</ele>
        <time>2016-12-04T08:59:42.247Z</time>
      </trkpt>
      <trkpt lat="47.762" lon="2.27122">
        <ele>136</ele>
        <time>2016-12-04T08:59:43.277Z</time>
      </trkpt>
      <trkpt lat="47.762" lon="2.27122">
        <ele>136</ele>
        <time>2016-12-04T08:59:44.275Z</time>
      </trkpt>
      <trkpt lat="47.76197" lon="2.27129">
        <ele>136</ele>
        <time>2016-12-04T08:59:45.270Z</time>
      </trkpt>
      <trkpt lat="47.76196" lon="2.27132">
        <ele>136</ele>
        <time>2016-12-04T08:59:46.276Z</time>
      </trkpt>
      <trkpt lat="47.76195" lon="2.27135">
        <ele>136</ele>
        <time>2016-12-04T08:59:47.278Z</time>
      </trkpt>
      <trkpt lat="47.76195" lon="2.27135">
        <ele>136</ele>
        <time>2016-12-04T08:59:48.274Z</time>
      </trkpt>
      <trkpt lat="47.76192" lon="2.27141">
        <ele>137</ele>
        <time>2016-12-04T08:59:49.275Z</time>
      </trkpt>
      <trkpt lat="47.76192" lon="2.27141">
        <ele>137</ele>
        <time>2016-12-04T08:59:50.281Z</time>
      </trkpt>
      <trkpt lat="47.7619" lon="2.27147">
        <ele>137</ele>
        <time>2016-12-04T08:59:51.276Z</time>
      </trkpt>
      <trkpt lat="47.76188" lon="2.2715">
        <ele>137</ele>
        <time>2016-12-04T08:59:52.276Z</time>
      </trkpt>
      <trkpt lat="47.76187" lon="2.27153">
        <ele>138</ele>
        <time>2016-12-04T08:59:53.278Z</time>
      </trkpt>
      <trkpt lat="47.76187" lon="2.27153">
        <ele>138</ele>
        <time>2016-12-04T08:59:54.274Z</time>
      </trkpt>
      <trkpt lat="47.76184" lon="2.27162">
        <ele>138</ele>
        <time>2016-12-04T08:59:55.277Z</time>
      </trkpt>
      <trkpt lat="47.76184" lon="2.27162">
        <ele>138</ele>
        <time>2016-12-04T08:59:56.274Z</time>
      </trkpt>
      <trkpt lat="47.7618" lon="2.27171">
        <ele>137</ele>
        <time>2016-12-04T08:59:57.278Z</time>
      </trkpt>
      <trkpt lat="47.7618" lon="2.27171">
        <ele>137</ele>
        <time>2016-12-04T08:59:58.274Z</time>
      </trkpt>
      <trkpt lat="47.76177" lon="2.27181">
        <ele>137</ele>
        <time>2016-12-04T08:59:59.279Z</time>
      </trkpt>
      <trkpt lat="47.76177" lon="2.27181">
        <ele>137</ele>
        <time>2016-12-04T09:00:00.275Z</time>
      </trkpt>
      <trkpt lat="47.76173" lon="2.2719">
        <ele>138</ele>
        <time>2016-12-04T09:00:01.278Z</time>
      </trkpt>
      <trkpt lat="47.76173" lon="2.2719">
        <ele>138</ele>
        <time>2016-12-04T09:00:02.274Z</time>
      </trkpt>
      <trkpt lat="47.76169" lon="2.272">
        <ele>139</ele>
        <time>2016-12-04T09:00:03.276Z</time>
      </trkpt>
      <trkpt lat="47.76169" lon="2.272">
        <ele>139</ele>
        <time>2016-12-04T09:00:04.271Z</time>
      </trkpt>
      <trkpt lat="47.76165" lon="2.27208">
        <ele>139</ele>
        <time>2016-12-04T09:00:05.271Z</time>
      </trkpt>
      <trkpt lat="47.76165" lon="2.27208">
        <ele>139</ele>
        <time>2016-12-04T09:00:06.275Z</time>
      </trkpt>
      <trkpt lat="47.7616" lon="2.27218">
        <ele>139</ele>
        <time>2016-12-04T09:00:07.274Z</time>
      </trkpt>
      <trkpt lat="47.7616" lon="2.27218">
        <ele>139</ele>
        <time>2016-12-04T09:00:08.271Z</time>
      </trkpt>
      <trkpt lat="47.76157" lon="2.27229">
        <ele>139</ele>
        <time>2016-12-04T09:00:09.248Z</time>
      </trkpt>
      <trkpt lat="47.76157" lon="2.27229">
        <ele>139</ele>
        <time>2016-12-04T09:00:10.249Z</time>
      </trkpt>
      <trkpt lat="47.76155" lon="2.27241">
        <ele>139</ele>
        <time>2016-12-04T09:00:11.279Z</time>
      </trkpt>
      <trkpt lat="47.76155" lon="2.27241">
        <ele>139</ele>
        <time>2016-12-04T09:00:12.274Z</time>
      </trkpt>
      <trkpt lat="47.76154" lon="2.27253">
        <ele>139</ele>
        <time>2016-12-04T09:00:13.277Z</time>
      </trkpt>
      <trkpt lat="47.76154" lon="2.27253">
        <ele>139</ele>
        <time>2016-12-04T09:00:14.275Z</time>
      </trkpt>
      <trkpt lat="47.76155" lon="2.27266">
        <ele>140</ele>
        <time>2016-12-04T09:00:15.270Z</time>
      </trkpt>
      <trkpt lat="47.76156" lon="2.27272">
        <ele>140</ele>
        <time>2016-12-04T09:00:16.273Z</time>
      </trkpt>
      <trkpt lat="47.76156" lon="2.27272">
        <ele>140</ele>
        <time>2016-12-04T09:00:17.258Z</time>
      </trkpt>
      <trkpt lat="47.76158" lon="2.27284">
        <ele>140</ele>
        <time>2016-12-04T09:00:18.269Z</time>
      </trkpt>
      <trkpt lat="47.76158" lon="2.27284">
        <ele>140</ele>
        <time>2016-12-04T09:00:19.275Z</time>
      </trkpt>
      <trkpt lat="47.76159" lon="2.27298">
        <ele>139</ele>
        <time>2016-12-04T09:00:20.282Z</time>
      </trkpt>
      <trkpt lat="47.76159" lon="2.27298">
        <ele>139</ele>
        <time>2016-12-04T09:00:21.258Z</time>
      </trkpt>
      <trkpt lat="47.76159" lon="2.27312">
        <ele>139</ele>
        <time>2016-12-04T09:00:22.247Z</time>
      </trkpt>
      <trkpt lat="47.76159" lon="2.27319">
        <ele>138</ele>
        <time>2016-12-04T09:00:23.253Z</time>
      </trkpt>
      <trkpt lat="47.76159" lon="2.27319">
        <ele>138</ele>
        <time>2016-12-04T09:00:24.281Z</time>
      </trkpt>
      <trkpt lat="47.76157" lon="2.27332">
        <ele>139</ele>
        <time>2016-12-04T09:00:25.270Z</time>
      </trkpt>
      <trkpt lat="47.76156" lon="2.27338">
        <ele>139</ele>
        <time>2016-12-04T09:00:26.276Z</time>
      </trkpt>
      <trkpt lat="47.76156" lon="2.27338">
        <ele>139</ele>
        <time>2016-12-04T09:00:27.274Z</time>
      </trkpt>
      <trkpt lat="47.7615" lon="2.27349">
        <ele>140</ele>
        <time>2016-12-04T09:00:28.273Z</time>
      </trkpt>
      <trkpt lat="47.76147" lon="2.27354">
        <ele>140</ele>
        <time>2016-12-04T09:00:29.278Z</time>
      </trkpt>
      <trkpt lat="47.76147" lon="2.27354">
        <ele>140</ele>
        <time>2016-12-04T09:00:30.275Z</time>
      </trkpt>
      <trkpt lat="47.7614" lon="2.27362">
        <ele>140</ele>
        <time>2016-12-04T09:00:31.277Z</time>
      </trkpt>
      <trkpt lat="47.7614" lon="2.27362">
        <ele>140</ele>
        <time>2016-12-04T09:00:32.274Z</time>
      </trkpt>
      <trkpt lat="47.76132" lon="2.27369">
        <ele>140</ele>
        <time>2016-12-04T09:00:33.276Z</time>
      </trkpt>
      <trkpt lat="47.76132" lon="2.27369">
        <ele>140</ele>
        <time>2016-12-04T09:00:34.273Z</time>
      </trkpt>
      <trkpt lat="47.76125" lon="2.27377">
        <ele>140</ele>
        <time>2016-12-04T09:00:35.271Z</time>
      </trkpt>
      <trkpt lat="47.76122" lon="2.2738">
        <ele>140</ele>
        <time>2016-12-04T09:00:36.276Z</time>
      </trkpt>
      <trkpt lat="47.7612" lon="2.27382">
        <ele>140</ele>
        <time>2016-12-04T09:00:37.277Z</time>
      </trkpt>
      <trkpt lat="47.7612" lon="2.27382">
        <ele>140</ele>
        <time>2016-12-04T09:00:38.274Z</time>
      </trkpt>
      <trkpt lat="47.76116" lon="2.27388">
        <ele>140</ele>
        <time>2016-12-04T09:00:39.276Z</time>
      </trkpt>
      <trkpt lat="47.76116" lon="2.27388">
        <ele>140</ele>
        <time>2016-12-04T09:00:40.273Z</time>
      </trkpt>
      <trkpt lat="47.76113" lon="2.27393">
        <ele>139</ele>
        <time>2016-12-04T09:00:41.275Z</time>
      </trkpt>
      <trkpt lat="47.76111" lon="2.27395">
        <ele>139</ele>
        <time>2016-12-04T09:00:42.276Z</time>
      </trkpt>
      <trkpt lat="47.76109" lon="2.27398">
        <ele>139</ele>
        <time>2016-12-04T09:00:43.282Z</time>
      </trkpt>
      <trkpt lat="47.76109" lon="2.27398">
        <ele>139</ele>
        <time>2016-12-04T09:00:44.275Z</time>
      </trkpt>
      <trkpt lat="47.76106" lon="2.27403">
        <ele>139</ele>
        <time>2016-12-04T09:00:45.282Z</time>
      </trkpt>
      <trkpt lat="47.76105" lon="2.27406">
        <ele>139</ele>
        <time>2016-12-04T09:00:46.248Z</time>
      </trkpt>
      <trkpt lat="47.76105" lon="2.27406">
        <ele>139</ele>
        <time>2016-12-04T09:00:47.276Z</time>
      </trkpt>
      <trkpt lat="47.76102" lon="2.2741">
        <ele>138</ele>
        <time>2016-12-04T09:00:48.277Z</time>
      </trkpt>
      <trkpt lat="47.76101" lon="2.27412">
        <ele>138</ele>
        <time>2016-12-04T09:00:49.278Z</time>
      </trkpt>
      <trkpt lat="47.76101" lon="2.27412">
        <ele>138</ele>
        <time>2016-12-04T09:00:50.272Z</time>
      </trkpt>
      <trkpt lat="47.761" lon="2.27416">
        <ele>139</ele>
        <time>2016-12-04T09:00:51.278Z</time>
      </trkpt>
      <trkpt lat="47.76099" lon="2.27418">
        <ele>139</ele>
        <time>2016-12-04T09:00:52.277Z</time>
      </trkpt>
      <trkpt lat="47.76099" lon="2.27419">
        <ele>139</ele>
        <time>2016-12-04T09:00:53.278Z</time>
      </trkpt>
      <trkpt lat="47.76099" lon="2.27419">
        <ele>139</ele>
        <time>2016-12-04T09:00:54.272Z</time>
      </trkpt>
      <trkpt lat="47.76099" lon="2.2742">
        <ele>139</ele>
        <time>2016-12-04T09:00:55.271Z</time>
      </trkpt>
      <trkpt lat="47.76098" lon="2.27421">
        <ele>139</ele>
        <time>2016-12-04T09:00:56.248Z</time>
      </trkpt>
      <trkpt lat="47.761" lon="2.27423">
        <ele>143</ele>
        <time>2016-12-04T09:00:57.256Z</time>
      </trkpt>
      <trkpt lat="47.761" lon="2.27426">
        <ele>143</ele>
        <time>2016-12-04T09:00:58.246Z</time>
      </trkpt>
      <trkpt lat="47.761" lon="2.27428">
        <ele>143</ele>
        <time>2016-12-04T09:00:59.264Z</time>
      </trkpt>
      <trkpt lat="47.761" lon="2.27428">
        <ele>143</ele>
        <time>2016-12-04T09:01:00.266Z</time>
      </trkpt>
      <trkpt lat="47.76099" lon="2.27435">
        <ele>143</ele>
        <time>2016-12-04T09:01:01.254Z</time>
      </trkpt>
      <trkpt lat="47.76099" lon="2.27435">
        <ele>143</ele>
        <time>2016-12-04T09:01:02.244Z</time>
      </trkpt>
      <trkpt lat="47.76099" lon="2.27446">
        <ele>143</ele>
        <time>2016-12-04T09:01:03.245Z</time>
      </trkpt>
      <trkpt lat="47.76099" lon="2.27451">
        <ele>143</ele>
        <time>2016-12-04T09:01:04.244Z</time>
      </trkpt>
      <trkpt lat="47.761" lon="2.27457">
        <ele>143</ele>
        <time>2016-12-04T09:01:05.282Z</time>
      </trkpt>
      <trkpt lat="47.761" lon="2.27457">
        <ele>143</ele>
        <time>2016-12-04T09:01:06.243Z</time>
      </trkpt>
      <trkpt lat="47.76101" lon="2.27468">
        <ele>143</ele>
        <time>2016-12-04T09:01:07.278Z</time>
      </trkpt>
      <trkpt lat="47.76102" lon="2.27473">
        <ele>143</ele>
        <time>2016-12-04T09:01:08.244Z</time>
      </trkpt>
      <trkpt lat="47.76103" lon="2.27479">
        <ele>143</ele>
        <time>2016-12-04T09:01:09.246Z</time>
      </trkpt>
      <trkpt lat="47.76103" lon="2.27479">
        <ele>143</ele>
        <time>2016-12-04T09:01:10.243Z</time>
      </trkpt>
      <trkpt lat="47.76104" lon="2.27491">
        <ele>143</ele>
        <time>2016-12-04T09:01:11.244Z</time>
      </trkpt>
      <trkpt lat="47.76104" lon="2.27491">
        <ele>143</ele>
        <time>2016-12-04T09:01:12.279Z</time>
      </trkpt>
      <trkpt lat="47.76106" lon="2.27503">
        <ele>143</ele>
        <time>2016-12-04T09:01:13.244Z</time>
      </trkpt>
      <trkpt lat="47.76107" lon="2.27509">
        <ele>143</ele>
        <time>2016-12-04T09:01:14.245Z</time>
      </trkpt>
      <trkpt lat="47.76108" lon="2.27515">
        <ele>143</ele>
        <time>2016-12-04T09:01:15.245Z</time>
      </trkpt>
      <trkpt lat="47.76108" lon="2.27515">
        <ele>143</ele>
        <time>2016-12-04T09:01:16.282Z</time>
      </trkpt>
      <trkpt lat="47.76109" lon="2.27527">
        <ele>143</ele>
        <time>2016-12-04T09:01:17.244Z</time>
      </trkpt>
      <trkpt lat="47.7611" lon="2.27533">
        <ele>143</ele>
        <time>2016-12-04T09:01:18.245Z</time>
      </trkpt>
      <trkpt lat="47.7611" lon="2.27533">
        <ele>143</ele>
        <time>2016-12-04T09:01:19.282Z</time>
      </trkpt>
      <trkpt lat="47.76112" lon="2.27546">
        <ele>143</ele>
        <time>2016-12-04T09:01:20.245Z</time>
      </trkpt>
      <trkpt lat="47.76113" lon="2.27553">
        <ele>143</ele>
        <time>2016-12-04T09:01:21.248Z</time>
      </trkpt>
      <trkpt lat="47.76113" lon="2.27553">
        <ele>143</ele>
        <time>2016-12-04T09:01:22.282Z</time>
      </trkpt>
      <trkpt lat="47.76115" lon="2.27566">
        <ele>143</ele>
        <time>2016-12-04T09:01:23.256Z</time>
      </trkpt>
      <trkpt lat="47.76115" lon="2.27566">
        <ele>143</ele>
        <time>2016-12-04T09:01:24.282Z</time>
      </trkpt>
      <trkpt lat="47.76116" lon="2.27581">
        <ele>143</ele>
        <time>2016-12-04T09:01:25.245Z</time>
      </trkpt>
      <trkpt lat="47.76117" lon="2.27588">
        <ele>143</ele>
        <time>2016-12-04T09:01:26.245Z</time>
      </trkpt>
      <trkpt lat="47.76117" lon="2.27588">
        <ele>143</ele>
        <time>2016-12-04T09:01:27.277Z</time>
      </trkpt>
      <trkpt lat="47.76119" lon="2.27603">
        <ele>143</ele>
        <time>2016-12-04T09:01:28.265Z</time>
      </trkpt>
      <trkpt lat="47.7612" lon="2.27611">
        <ele>142</ele>
        <time>2016-12-04T09:01:29.247Z</time>
      </trkpt>
      <trkpt lat="47.7612" lon="2.27611">
        <ele>142</ele>
        <time>2016-12-04T09:01:30.280Z</time>
      </trkpt>
      <trkpt lat="47.76121" lon="2.27627">
        <ele>142</ele>
        <time>2016-12-04T09:01:31.245Z</time>
      </trkpt>
      <trkpt lat="47.76121" lon="2.27627">
        <ele>142</ele>
        <time>2016-12-04T09:01:32.282Z</time>
      </trkpt>
      <trkpt lat="47.76122" lon="2.27642">
        <ele>142</ele>
        <time>2016-12-04T09:01:33.246Z</time>
      </trkpt>
      <trkpt lat="47.76122" lon="2.27642">
        <ele>142</ele>
        <time>2016-12-04T09:01:34.280Z</time>
      </trkpt>
      <trkpt lat="47.76124" lon="2.27658">
        <ele>141</ele>
        <time>2016-12-04T09:01:35.245Z</time>
      </trkpt>
      <trkpt lat="47.76124" lon="2.27658">
        <ele>141</ele>
        <time>2016-12-04T09:01:36.243Z</time>
      </trkpt>
      <trkpt lat="47.76125" lon="2.27674">
        <ele>141</ele>
        <time>2016-12-04T09:01:37.276Z</time>
      </trkpt>
      <trkpt lat="47.76125" lon="2.27674">
        <ele>141</ele>
        <time>2016-12-04T09:01:38.260Z</time>
      </trkpt>
      <trkpt lat="47.76125" lon="2.2769">
        <ele>141</ele>
        <time>2016-12-04T09:01:39.248Z</time>
      </trkpt>
      <trkpt lat="47.76125" lon="2.2769">
        <ele>141</ele>
        <time>2016-12-04T09:01:40.282Z</time>
      </trkpt>
      <trkpt lat="47.76125" lon="2.27706">
        <ele>141</ele>
        <time>2016-12-04T09:01:41.283Z</time>
      </trkpt>
      <trkpt lat="47.76125" lon="2.27706">
        <ele>141</ele>
        <time>2016-12-04T09:01:42.243Z</time>
      </trkpt>
      <trkpt lat="47.76125" lon="2.27722">
        <ele>140</ele>
        <time>2016-12-04T09:01:43.254Z</time>
      </trkpt>
      <trkpt lat="47.76125" lon="2.27722">
        <ele>140</ele>
        <time>2016-12-04T09:01:44.245Z</time>
      </trkpt>
      <trkpt lat="47.76124" lon="2.27737">
        <ele>140</ele>
        <time>2016-12-04T09:01:45.246Z</time>
      </trkpt>
      <trkpt lat="47.76124" lon="2.27737">
        <ele>140</ele>
        <time>2016-12-04T09:01:46.243Z</time>
      </trkpt>
      <trkpt lat="47.76123" lon="2.27753">
        <ele>140</ele>
        <time>2016-12-04T09:01:47.279Z</time>
      </trkpt>
      <trkpt lat="47.76123" lon="2.27753">
        <ele>140</ele>
        <time>2016-12-04T09:01:48.270Z</time>
      </trkpt>
      <trkpt lat="47.76122" lon="2.27769">
        <ele>141</ele>
        <time>2016-12-04T09:01:49.259Z</time>
      </trkpt>
      <trkpt lat="47.76121" lon="2.27777">
        <ele>141</ele>
        <time>2016-12-04T09:01:50.250Z</time>
      </trkpt>
      <trkpt lat="47.7612" lon="2.27785">
        <ele>140</ele>
        <time>2016-12-04T09:01:51.247Z</time>
      </trkpt>
      <trkpt lat="47.7612" lon="2.27785">
        <ele>140</ele>
        <time>2016-12-04T09:01:52.281Z</time>
      </trkpt>
      <trkpt lat="47.76118" lon="2.27801">
        <ele>140</ele>
        <time>2016-12-04T09:01:53.243Z</time>
      </trkpt>
      <trkpt lat="47.76118" lon="2.27801">
        <ele>140</ele>
        <time>2016-12-04T09:01:54.282Z</time>
      </trkpt>
      <trkpt lat="47.76116" lon="2.27817">
        <ele>140</ele>
        <time>2016-12-04T09:01:55.245Z</time>
      </trkpt>
      <trkpt lat="47.76116" lon="2.27817">
        <ele>140</ele>
        <time>2016-12-04T09:01:56.280Z</time>
      </trkpt>
      <trkpt lat="47.76113" lon="2.27833">
        <ele>140</ele>
        <time>2016-12-04T09:01:57.278Z</time>
      </trkpt>
      <trkpt lat="47.76112" lon="2.27841">
        <ele>140</ele>
        <time>2016-12-04T09:01:58.248Z</time>
      </trkpt>
      <trkpt lat="47.76111" lon="2.27848">
        <ele>140</ele>
        <time>2016-12-04T09:01:59.243Z</time>
      </trkpt>
      <trkpt lat="47.76111" lon="2.27848">
        <ele>140</ele>
        <time>2016-12-04T09:02:00.243Z</time>
      </trkpt>
      <trkpt lat="47.76109" lon="2.27865">
        <ele>140</ele>
        <time>2016-12-04T09:02:01.245Z</time>
      </trkpt>
      <trkpt lat="47.76109" lon="2.27865">
        <ele>140</ele>
        <time>2016-12-04T09:02:02.243Z</time>
      </trkpt>
      <trkpt lat="47.76107" lon="2.2788">
        <ele>140</ele>
        <time>2016-12-04T09:02:03.247Z</time>
      </trkpt>
      <trkpt lat="47.76107" lon="2.2788">
        <ele>140</ele>
        <time>2016-12-04T09:02:04.277Z</time>
      </trkpt>
      <trkpt lat="47.76105" lon="2.27896">
        <ele>139</ele>
        <time>2016-12-04T09:02:05.246Z</time>
      </trkpt>
      <trkpt lat="47.76105" lon="2.27896">
        <ele>139</ele>
        <time>2016-12-04T09:02:06.243Z</time>
      </trkpt>
      <trkpt lat="47.76104" lon="2.27914">
        <ele>139</ele>
        <time>2016-12-04T09:02:07.278Z</time>
      </trkpt>
      <trkpt lat="47.76103" lon="2.27922">
        <ele>139</ele>
        <time>2016-12-04T09:02:08.245Z</time>
      </trkpt>
      <trkpt lat="47.76102" lon="2.27931">
        <ele>139</ele>
        <time>2016-12-04T09:02:09.247Z</time>
      </trkpt>
      <trkpt lat="47.76102" lon="2.27931">
        <ele>139</ele>
        <time>2016-12-04T09:02:10.256Z</time>
      </trkpt>
      <trkpt lat="47.76099" lon="2.27946">
        <ele>139</ele>
        <time>2016-12-04T09:02:11.246Z</time>
      </trkpt>
      <trkpt lat="47.76099" lon="2.27946">
        <ele>139</ele>
        <time>2016-12-04T09:02:12.243Z</time>
      </trkpt>
      <trkpt lat="47.76097" lon="2.27963">
        <ele>139</ele>
        <time>2016-12-04T09:02:13.245Z</time>
      </trkpt>
      <trkpt lat="47.76097" lon="2.27963">
        <ele>139</ele>
        <time>2016-12-04T09:02:14.257Z</time>
      </trkpt>
      <trkpt lat="47.76095" lon="2.27978">
        <ele>139</ele>
        <time>2016-12-04T09:02:15.246Z</time>
      </trkpt>
      <trkpt lat="47.76095" lon="2.27978">
        <ele>139</ele>
        <time>2016-12-04T09:02:16.267Z</time>
      </trkpt>
      <trkpt lat="47.76093" lon="2.27991">
        <ele>139</ele>
        <time>2016-12-04T09:02:17.278Z</time>
      </trkpt>
      <trkpt lat="47.76092" lon="2.27998">
        <ele>139</ele>
        <time>2016-12-04T09:02:18.245Z</time>
      </trkpt>
      <trkpt lat="47.76092" lon="2.28004">
        <ele>139</ele>
        <time>2016-12-04T09:02:19.246Z</time>
      </trkpt>
      <trkpt lat="47.76091" lon="2.2801">
        <ele>139</ele>
        <time>2016-12-04T09:02:20.245Z</time>
      </trkpt>
      <trkpt lat="47.76091" lon="2.28016">
        <ele>140</ele>
        <time>2016-12-04T09:02:21.247Z</time>
      </trkpt>
      <trkpt lat="47.76091" lon="2.28016">
        <ele>140</ele>
        <time>2016-12-04T09:02:22.243Z</time>
      </trkpt>
      <trkpt lat="47.7609" lon="2.28026">
        <ele>140</ele>
        <time>2016-12-04T09:02:23.243Z</time>
      </trkpt>
      <trkpt lat="47.76091" lon="2.2803">
        <ele>140</ele>
        <time>2016-12-04T09:02:24.245Z</time>
      </trkpt>
      <trkpt lat="47.76091" lon="2.2803">
        <ele>140</ele>
        <time>2016-12-04T09:02:25.247Z</time>
      </trkpt>
      <trkpt lat="47.76091" lon="2.28037">
        <ele>141</ele>
        <time>2016-12-04T09:02:26.245Z</time>
      </trkpt>
      <trkpt lat="47.76091" lon="2.28037">
        <ele>141</ele>
        <time>2016-12-04T09:02:27.277Z</time>
      </trkpt>
      <trkpt lat="47.7609" lon="2.28041">
        <ele>141</ele>
        <time>2016-12-04T09:02:28.246Z</time>
      </trkpt>
      <trkpt lat="47.7609" lon="2.28043">
        <ele>141</ele>
        <time>2016-12-04T09:02:29.243Z</time>
      </trkpt>
      <trkpt lat="47.7609" lon="2.28043">
        <ele>141</ele>
        <time>2016-12-04T09:02:30.243Z</time>
      </trkpt>
      <trkpt lat="47.76091" lon="2.28048">
        <ele>142</ele>
        <time>2016-12-04T09:02:31.245Z</time>
      </trkpt>
      <trkpt lat="47.76091" lon="2.28048">
        <ele>142</ele>
        <time>2016-12-04T09:02:32.281Z</time>
      </trkpt>
      <trkpt lat="47.76093" lon="2.28054">
        <ele>142</ele>
        <time>2016-12-04T09:02:33.246Z</time>
      </trkpt>
      <trkpt lat="47.76093" lon="2.28054">
        <ele>142</ele>
        <time>2016-12-04T09:02:34.255Z</time>
      </trkpt>
      <trkpt lat="47.76094" lon="2.28061">
        <ele>143</ele>
        <time>2016-12-04T09:02:35.244Z</time>
      </trkpt>
      <trkpt lat="47.76094" lon="2.28061">
        <ele>143</ele>
        <time>2016-12-04T09:02:36.281Z</time>
      </trkpt>
      <trkpt lat="47.76092" lon="2.28071">
        <ele>143</ele>
        <time>2016-12-04T09:02:37.243Z</time>
      </trkpt>
      <trkpt lat="47.76091" lon="2.28077">
        <ele>143</ele>
        <time>2016-12-04T09:02:38.245Z</time>
      </trkpt>
      <trkpt lat="47.7609" lon="2.28082">
        <ele>143</ele>
        <time>2016-12-04T09:02:39.247Z</time>
      </trkpt>
      <trkpt lat="47.7609" lon="2.28082">
        <ele>143</ele>
        <time>2016-12-04T09:02:40.281Z</time>
      </trkpt>
      <trkpt lat="47.76089" lon="2.28094">
        <ele>143</ele>
        <time>2016-12-04T09:02:41.246Z</time>
      </trkpt>
      <trkpt lat="47.76089" lon="2.28094">
        <ele>143</ele>
        <time>2016-12-04T09:02:42.243Z</time>
      </trkpt>
      <trkpt lat="47.76088" lon="2.28106">
        <ele>143</ele>
        <time>2016-12-04T09:02:43.246Z</time>
      </trkpt>
      <trkpt lat="47.76088" lon="2.28113">
        <ele>143</ele>
        <time>2016-12-04T09:02:44.247Z</time>
      </trkpt>
      <trkpt lat="47.76087" lon="2.28119">
        <ele>143</ele>
        <time>2016-12-04T09:02:45.245Z</time>
      </trkpt>
      <trkpt lat="47.76087" lon="2.28119">
        <ele>143</ele>
        <time>2016-12-04T09:02:46.282Z</time>
      </trkpt>
      <trkpt lat="47.76086" lon="2.28133">
        <ele>143</ele>
        <time>2016-12-04T09:02:47.280Z</time>
      </trkpt>
      <trkpt lat="47.76085" lon="2.28139">
        <ele>143</ele>
        <time>2016-12-04T09:02:48.246Z</time>
      </trkpt>
      <trkpt lat="47.76084" lon="2.28146">
        <ele>143</ele>
        <time>2016-12-04T09:02:49.247Z</time>
      </trkpt>
      <trkpt lat="47.76084" lon="2.28146">
        <ele>143</ele>
        <time>2016-12-04T09:02:50.243Z</time>
      </trkpt>
      <trkpt lat="47.76083" lon="2.28161">
        <ele>142</ele>
        <time>2016-12-04T09:02:51.245Z</time>
      </trkpt>
      <trkpt lat="47.76083" lon="2.28161">
        <ele>142</ele>
        <time>2016-12-04T09:02:52.244Z</time>
      </trkpt>
      <trkpt lat="47.76082" lon="2.28175">
        <ele>142</ele>
        <time>2016-12-04T09:02:53.246Z</time>
      </trkpt>
      <trkpt lat="47.76082" lon="2.28175">
        <ele>142</ele>
        <time>2016-12-04T09:02:54.244Z</time>
      </trkpt>
      <trkpt lat="47.7608" lon="2.2819">
        <ele>142</ele>
        <time>2016-12-04T09:02:55.246Z</time>
      </trkpt>
      <trkpt lat="47.7608" lon="2.2819">
        <ele>142</ele>
        <time>2016-12-04T09:02:56.244Z</time>
      </trkpt>
      <trkpt lat="47.76078" lon="2.28205">
        <ele>142</ele>
        <time>2016-12-04T09:02:57.244Z</time>
      </trkpt>
      <trkpt lat="47.76078" lon="2.28213">
        <ele>142</ele>
        <time>2016-12-04T09:02:58.247Z</time>
      </trkpt>
      <trkpt lat="47.76077" lon="2.28221">
        <ele>142</ele>
        <time>2016-12-04T09:02:59.246Z</time>
      </trkpt>
      <trkpt lat="47.76077" lon="2.28221">
        <ele>142</ele>
        <time>2016-12-04T09:03:00.244Z</time>
      </trkpt>
      <trkpt lat="47.76074" lon="2.28237">
        <ele>141</ele>
        <time>2016-12-04T09:03:01.247Z</time>
      </trkpt>
      <trkpt lat="47.76074" lon="2.28237">
        <ele>141</ele>
        <time>2016-12-04T09:03:02.281Z</time>
      </trkpt>
      <trkpt lat="47.76072" lon="2.28254">
        <ele>140</ele>
        <time>2016-12-04T09:03:03.245Z</time>
      </trkpt>
      <trkpt lat="47.76072" lon="2.28254">
        <ele>140</ele>
        <time>2016-12-04T09:03:04.244Z</time>
      </trkpt>
      <trkpt lat="47.76069" lon="2.28268">
        <ele>140</ele>
        <time>2016-12-04T09:03:05.247Z</time>
      </trkpt>
      <trkpt lat="47.76069" lon="2.28268">
        <ele>140</ele>
        <time>2016-12-04T09:03:06.244Z</time>
      </trkpt>
      <trkpt lat="47.76066" lon="2.28283">
        <ele>140</ele>
        <time>2016-12-04T09:03:07.278Z</time>
      </trkpt>
      <trkpt lat="47.76064" lon="2.28291">
        <ele>139</ele>
        <time>2016-12-04T09:03:08.267Z</time>
      </trkpt>
      <trkpt lat="47.76064" lon="2.28291">
        <ele>139</ele>
        <time>2016-12-04T09:03:09.274Z</time>
      </trkpt>
      <trkpt lat="47.76061" lon="2.28307">
        <ele>139</ele>
        <time>2016-12-04T09:03:10.266Z</time>
      </trkpt>
      <trkpt lat="47.76059" lon="2.28316">
        <ele>139</ele>
        <time>2016-12-04T09:03:11.260Z</time>
      </trkpt>
      <trkpt lat="47.76059" lon="2.28316">
        <ele>139</ele>
        <time>2016-12-04T09:03:12.244Z</time>
      </trkpt>
      <trkpt lat="47.76055" lon="2.28333">
        <ele>138</ele>
        <time>2016-12-04T09:03:13.247Z</time>
      </trkpt>
      <trkpt lat="47.76053" lon="2.28341">
        <ele>138</ele>
        <time>2016-12-04T09:03:14.247Z</time>
      </trkpt>
      <trkpt lat="47.76053" lon="2.28341">
        <ele>138</ele>
        <time>2016-12-04T09:03:15.249Z</time>
      </trkpt>
      <trkpt lat="47.7605" lon="2.28357">
        <ele>138</ele>
        <time>2016-12-04T09:03:16.266Z</time>
      </trkpt>
      <trkpt lat="47.7605" lon="2.28357">
        <ele>138</ele>
        <time>2016-12-04T09:03:17.280Z</time>
      </trkpt>
      <trkpt lat="47.76047" lon="2.28374">
        <ele>138</ele>
        <time>2016-12-04T09:03:18.246Z</time>
      </trkpt>
      <trkpt lat="47.76045" lon="2.28382">
        <ele>138</ele>
        <time>2016-12-04T09:03:19.247Z</time>
      </trkpt>
      <trkpt lat="47.76045" lon="2.28382">
        <ele>138</ele>
        <time>2016-12-04T09:03:20.244Z</time>
      </trkpt>
      <trkpt lat="47.76042" lon="2.28399">
        <ele>138</ele>
        <time>2016-12-04T09:03:21.258Z</time>
      </trkpt>
      <trkpt lat="47.76042" lon="2.28399">
        <ele>138</ele>
        <time>2016-12-04T09:03:22.247Z</time>
      </trkpt>
      <trkpt lat="47.76038" lon="2.28414">
        <ele>138</ele>
        <time>2016-12-04T09:03:23.247Z</time>
      </trkpt>
      <trkpt lat="47.76038" lon="2.28414">
        <ele>138</ele>
        <time>2016-12-04T09:03:24.244Z</time>
      </trkpt>
      <trkpt lat="47.76035" lon="2.28431">
        <ele>138</ele>
        <time>2016-12-04T09:03:25.246Z</time>
      </trkpt>
      <trkpt lat="47.76033" lon="2.28439">
        <ele>138</ele>
        <time>2016-12-04T09:03:26.247Z</time>
      </trkpt>
      <trkpt lat="47.76033" lon="2.28439">
        <ele>138</ele>
        <time>2016-12-04T09:03:27.278Z</time>
      </trkpt>
      <trkpt lat="47.76029" lon="2.28454">
        <ele>138</ele>
        <time>2016-12-04T09:03:28.247Z</time>
      </trkpt>
      <trkpt lat="47.76026" lon="2.28461">
        <ele>138</ele>
        <time>2016-12-04T09:03:29.244Z</time>
      </trkpt>
      <trkpt lat="47.76026" lon="2.28461">
        <ele>138</ele>
        <time>2016-12-04T09:03:30.245Z</time>
      </trkpt>
      <trkpt lat="47.76022" lon="2.28476">
        <ele>138</ele>
        <time>2016-12-04T09:03:31.246Z</time>
      </trkpt>
      <trkpt lat="47.76022" lon="2.28476">
        <ele>138</ele>
        <time>2016-12-04T09:03:32.282Z</time>
      </trkpt>
      <trkpt lat="47.76016" lon="2.28492">
        <ele>139</ele>
        <time>2016-12-04T09:03:33.246Z</time>
      </trkpt>
      <trkpt lat="47.76016" lon="2.28492">
        <ele>139</ele>
        <time>2016-12-04T09:03:34.243Z</time>
      </trkpt>
      <trkpt lat="47.76011" lon="2.28506">
        <ele>139</ele>
        <time>2016-12-04T09:03:35.246Z</time>
      </trkpt>
      <trkpt lat="47.76008" lon="2.28513">
        <ele>138</ele>
        <time>2016-12-04T09:03:36.247Z</time>
      </trkpt>
      <trkpt lat="47.76008" lon="2.28513">
        <ele>138</ele>
        <time>2016-12-04T09:03:37.278Z</time>
      </trkpt>
      <trkpt lat="47.76003" lon="2.28527">
        <ele>139</ele>
        <time>2016-12-04T09:03:38.265Z</time>
      </trkpt>
      <trkpt lat="47.76001" lon="2.28535">
        <ele>139</ele>
        <time>2016-12-04T09:03:39.260Z</time>
      </trkpt>
      <trkpt lat="47.76001" lon="2.28535">
        <ele>139</ele>
        <time>2016-12-04T09:03:40.281Z</time>
      </trkpt>
      <trkpt lat="47.75998" lon="2.28551">
        <ele>139</ele>
        <time>2016-12-04T09:03:41.247Z</time>
      </trkpt>
      <trkpt lat="47.75998" lon="2.28551">
        <ele>139</ele>
        <time>2016-12-04T09:03:42.244Z</time>
      </trkpt>
      <trkpt lat="47.75995" lon="2.28568">
        <ele>138</ele>
        <time>2016-12-04T09:03:43.244Z</time>
      </trkpt>
      <trkpt lat="47.75995" lon="2.28576">
        <ele>138</ele>
        <time>2016-12-04T09:03:44.247Z</time>
      </trkpt>
      <trkpt lat="47.75995" lon="2.28576">
        <ele>138</ele>
        <time>2016-12-04T09:03:45.245Z</time>
      </trkpt>
      <trkpt lat="47.75993" lon="2.28593">
        <ele>138</ele>
        <time>2016-12-04T09:03:46.247Z</time>
      </trkpt>
      <trkpt lat="47.75993" lon="2.28593">
        <ele>138</ele>
        <time>2016-12-04T09:03:47.278Z</time>
      </trkpt>
      <trkpt lat="47.75992" lon="2.2861">
        <ele>138</ele>
        <time>2016-12-04T09:03:48.245Z</time>
      </trkpt>
      <trkpt lat="47.75992" lon="2.2861">
        <ele>138</ele>
        <time>2016-12-04T09:03:49.245Z</time>
      </trkpt>
      <trkpt lat="47.7599" lon="2.28625">
        <ele>137</ele>
        <time>2016-12-04T09:03:50.247Z</time>
      </trkpt>
      <trkpt lat="47.7599" lon="2.28632">
        <ele>137</ele>
        <time>2016-12-04T09:03:51.250Z</time>
      </trkpt>
      <trkpt lat="47.7599" lon="2.28632">
        <ele>137</ele>
        <time>2016-12-04T09:03:52.282Z</time>
      </trkpt>
      <trkpt lat="47.75989" lon="2.28647">
        <ele>138</ele>
        <time>2016-12-04T09:03:53.247Z</time>
      </trkpt>
      <trkpt lat="47.75989" lon="2.28647">
        <ele>138</ele>
        <time>2016-12-04T09:03:54.244Z</time>
      </trkpt>
      <trkpt lat="47.75987" lon="2.28661">
        <ele>138</ele>
        <time>2016-12-04T09:03:55.243Z</time>
      </trkpt>
      <trkpt lat="47.75986" lon="2.28668">
        <ele>138</ele>
        <time>2016-12-04T09:03:56.247Z</time>
      </trkpt>
      <trkpt lat="47.75986" lon="2.28668">
        <ele>138</ele>
        <time>2016-12-04T09:03:57.279Z</time>
      </trkpt>
      <trkpt lat="47.75985" lon="2.28679">
        <ele>138</ele>
        <time>2016-12-04T09:03:58.246Z</time>
      </trkpt>
      <trkpt lat="47.75984" lon="2.28685">
        <ele>139</ele>
        <time>2016-12-04T09:03:59.247Z</time>
      </trkpt>
      <trkpt lat="47.75984" lon="2.28685">
        <ele>139</ele>
        <time>2016-12-04T09:04:00.245Z</time>
      </trkpt>
      <trkpt lat="47.75983" lon="2.28694">
        <ele>139</ele>
        <time>2016-12-04T09:04:01.247Z</time>
      </trkpt>
      <trkpt lat="47.75983" lon="2.28694">
        <ele>139</ele>
        <time>2016-12-04T09:04:02.244Z</time>
      </trkpt>
      <trkpt lat="47.75982" lon="2.28703">
        <ele>139</ele>
        <time>2016-12-04T09:04:03.247Z</time>
      </trkpt>
      <trkpt lat="47.75982" lon="2.28703">
        <ele>139</ele>
        <time>2016-12-04T09:04:04.244Z</time>
      </trkpt>
      <trkpt lat="47.75982" lon="2.28711">
        <ele>140</ele>
        <time>2016-12-04T09:04:05.245Z</time>
      </trkpt>
      <trkpt lat="47.75981" lon="2.28715">
        <ele>140</ele>
        <time>2016-12-04T09:04:06.247Z</time>
      </trkpt>
      <trkpt lat="47.75981" lon="2.28715">
        <ele>140</ele>
        <time>2016-12-04T09:04:07.244Z</time>
      </trkpt>
      <trkpt lat="47.7598" lon="2.28725">
        <ele>140</ele>
        <time>2016-12-04T09:04:08.246Z</time>
      </trkpt>
      <trkpt lat="47.7598" lon="2.28731">
        <ele>140</ele>
        <time>2016-12-04T09:04:09.250Z</time>
      </trkpt>
      <trkpt lat="47.7598" lon="2.28731">
        <ele>140</ele>
        <time>2016-12-04T09:04:10.250Z</time>
      </trkpt>
      <trkpt lat="47.75979" lon="2.28743">
        <ele>140</ele>
        <time>2016-12-04T09:04:11.248Z</time>
      </trkpt>
      <trkpt lat="47.75979" lon="2.28743">
        <ele>140</ele>
        <time>2016-12-04T09:04:12.244Z</time>
      </trkpt>
      <trkpt lat="47.75978" lon="2.28755">
        <ele>140</ele>
        <time>2016-12-04T09:04:13.247Z</time>
      </trkpt>
      <trkpt lat="47.75978" lon="2.28755">
        <ele>140</ele>
        <time>2016-12-04T09:04:14.282Z</time>
      </trkpt>
      <trkpt lat="47.75977" lon="2.28768">
        <ele>141</ele>
        <time>2016-12-04T09:04:15.245Z</time>
      </trkpt>
      <trkpt lat="47.75977" lon="2.28768">
        <ele>141</ele>
        <time>2016-12-04T09:04:16.248Z</time>
      </trkpt>
      <trkpt lat="47.75975" lon="2.28782">
        <ele>141</ele>
        <time>2016-12-04T09:04:17.260Z</time>
      </trkpt>
      <trkpt lat="47.75974" lon="2.2879">
        <ele>141</ele>
        <time>2016-12-04T09:04:18.248Z</time>
      </trkpt>
      <trkpt lat="47.75974" lon="2.2879">
        <ele>141</ele>
        <time>2016-12-04T09:04:19.282Z</time>
      </trkpt>
      <trkpt lat="47.75973" lon="2.28807">
        <ele>140</ele>
        <time>2016-12-04T09:04:20.246Z</time>
      </trkpt>
      <trkpt lat="47.75973" lon="2.28816">
        <ele>140</ele>
        <time>2016-12-04T09:04:21.245Z</time>
      </trkpt>
      <trkpt lat="47.75973" lon="2.28816">
        <ele>140</ele>
        <time>2016-12-04T09:04:22.244Z</time>
      </trkpt>
      <trkpt lat="47.75972" lon="2.28833">
        <ele>140</ele>
        <time>2016-12-04T09:04:23.247Z</time>
      </trkpt>
      <trkpt lat="47.75972" lon="2.28833">
        <ele>140</ele>
        <time>2016-12-04T09:04:24.244Z</time>
      </trkpt>
      <trkpt lat="47.75971" lon="2.2885">
        <ele>140</ele>
        <time>2016-12-04T09:04:25.246Z</time>
      </trkpt>
      <trkpt lat="47.75971" lon="2.2885">
        <ele>140</ele>
        <time>2016-12-04T09:04:26.246Z</time>
      </trkpt>
      <trkpt lat="47.7597" lon="2.28864">
        <ele>140</ele>
        <time>2016-12-04T09:04:27.257Z</time>
      </trkpt>
      <trkpt lat="47.7597" lon="2.28864">
        <ele>140</ele>
        <time>2016-12-04T09:04:28.247Z</time>
      </trkpt>
      <trkpt lat="47.75969" lon="2.28878">
        <ele>140</ele>
        <time>2016-12-04T09:04:29.246Z</time>
      </trkpt>
      <trkpt lat="47.75969" lon="2.28878">
        <ele>140</ele>
        <time>2016-12-04T09:04:30.244Z</time>
      </trkpt>
      <trkpt lat="47.75968" lon="2.28892">
        <ele>140</ele>
        <time>2016-12-04T09:04:31.246Z</time>
      </trkpt>
      <trkpt lat="47.75968" lon="2.28892">
        <ele>140</ele>
        <time>2016-12-04T09:04:32.243Z</time>
      </trkpt>
      <trkpt lat="47.75967" lon="2.28907">
        <ele>141</ele>
        <time>2016-12-04T09:04:33.247Z</time>
      </trkpt>
      <trkpt lat="47.75967" lon="2.28907">
        <ele>141</ele>
        <time>2016-12-04T09:04:34.244Z</time>
      </trkpt>
      <trkpt lat="47.75967" lon="2.28923">
        <ele>141</ele>
        <time>2016-12-04T09:04:35.247Z</time>
      </trkpt>
      <trkpt lat="47.75967" lon="2.28923">
        <ele>141</ele>
        <time>2016-12-04T09:04:36.243Z</time>
      </trkpt>
      <trkpt lat="47.75966" lon="2.28938">
        <ele>141</ele>
        <time>2016-12-04T09:04:37.278Z</time>
      </trkpt>
      <trkpt lat="47.75966" lon="2.28938">
        <ele>141</ele>
        <time>2016-12-04T09:04:38.267Z</time>
      </trkpt>
      <trkpt lat="47.75966" lon="2.28954">
        <ele>141</ele>
        <time>2016-12-04T09:04:39.257Z</time>
      </trkpt>
      <trkpt lat="47.75966" lon="2.28962">
        <ele>140</ele>
        <time>2016-12-04T09:04:40.248Z</time>
      </trkpt>
      <trkpt lat="47.75966" lon="2.28962">
        <ele>140</ele>
        <time>2016-12-04T09:04:41.282Z</time>
      </trkpt>
      <trkpt lat="47.75967" lon="2.28978">
        <ele>140</ele>
        <time>2016-12-04T09:04:42.260Z</time>
      </trkpt>
      <trkpt lat="47.75967" lon="2.28978">
        <ele>140</ele>
        <time>2016-12-04T09:04:43.244Z</time>
      </trkpt>
      <trkpt lat="47.75968" lon="2.28994">
        <ele>140</ele>
        <time>2016-12-04T09:04:44.255Z</time>
      </trkpt>
      <trkpt lat="47.75968" lon="2.29003">
        <ele>140</ele>
        <time>2016-12-04T09:04:45.249Z</time>
      </trkpt>
      <trkpt lat="47.75968" lon="2.29003">
        <ele>140</ele>
        <time>2016-12-04T09:04:46.282Z</time>
      </trkpt>
      <trkpt lat="47.7597" lon="2.2902">
        <ele>138</ele>
        <time>2016-12-04T09:04:47.279Z</time>
      </trkpt>
      <trkpt lat="47.75971" lon="2.29029">
        <ele>137</ele>
        <time>2016-12-04T09:04:48.246Z</time>
      </trkpt>
      <trkpt lat="47.75971" lon="2.29029">
        <ele>137</ele>
        <time>2016-12-04T09:04:49.244Z</time>
      </trkpt>
      <trkpt lat="47.75974" lon="2.29045">
        <ele>137</ele>
        <time>2016-12-04T09:04:50.243Z</time>
      </trkpt>
      <trkpt lat="47.75975" lon="2.29053">
        <ele>137</ele>
        <time>2016-12-04T09:04:51.245Z</time>
      </trkpt>
      <trkpt lat="47.75975" lon="2.29053">
        <ele>137</ele>
        <time>2016-12-04T09:04:52.243Z</time>
      </trkpt>
      <trkpt lat="47.75979" lon="2.29069">
        <ele>137</ele>
        <time>2016-12-04T09:04:53.254Z</time>
      </trkpt>
      <trkpt lat="47.75979" lon="2.29069">
        <ele>137</ele>
        <time>2016-12-04T09:04:54.244Z</time>
      </trkpt>
      <trkpt lat="47.75982" lon="2.29084">
        <ele>136</ele>
        <time>2016-12-04T09:04:55.246Z</time>
      </trkpt>
      <trkpt lat="47.75982" lon="2.29084">
        <ele>136</ele>
        <time>2016-12-04T09:04:56.244Z</time>
      </trkpt>
      <trkpt lat="47.75985" lon="2.29099">
        <ele>136</ele>
        <time>2016-12-04T09:04:57.247Z</time>
      </trkpt>
      <trkpt lat="47.75985" lon="2.29099">
        <ele>136</ele>
        <time>2016-12-04T09:04:58.256Z</time>
      </trkpt>
      <trkpt lat="47.7599" lon="2.29113">
        <ele>138</ele>
        <time>2016-12-04T09:04:59.247Z</time>
      </trkpt>
      <trkpt lat="47.7599" lon="2.29113">
        <ele>138</ele>
        <time>2016-12-04T09:05:00.244Z</time>
      </trkpt>
      <trkpt lat="47.75993" lon="2.29127">
        <ele>137</ele>
        <time>2016-12-04T09:05:01.246Z</time>
      </trkpt>
      <trkpt lat="47.75993" lon="2.29127">
        <ele>137</ele>
        <time>2016-12-04T09:05:02.244Z</time>
      </trkpt>
      <trkpt lat="47.75997" lon="2.29143">
        <ele>136</ele>
        <time>2016-12-04T09:05:03.245Z</time>
      </trkpt>
      <trkpt lat="47.75997" lon="2.29143">
        <ele>136</ele>
        <time>2016-12-04T09:05:04.282Z</time>
      </trkpt>
      <trkpt lat="47.76" lon="2.29159">
        <ele>136</ele>
        <time>2016-12-04T09:05:05.245Z</time>
      </trkpt>
      <trkpt lat="47.76" lon="2.29159">
        <ele>136</ele>
        <time>2016-12-04T09:05:06.244Z</time>
      </trkpt>
      <trkpt lat="47.76003" lon="2.29175">
        <ele>136</ele>
        <time>2016-12-04T09:05:07.246Z</time>
      </trkpt>
      <trkpt lat="47.76005" lon="2.29183">
        <ele>135</ele>
        <time>2016-12-04T09:05:08.246Z</time>
      </trkpt>
      <trkpt lat="47.76008" lon="2.2919">
        <ele>136</ele>
        <time>2016-12-04T09:05:09.245Z</time>
      </trkpt>
      <trkpt lat="47.76008" lon="2.2919">
        <ele>136</ele>
        <time>2016-12-04T09:05:10.246Z</time>
      </trkpt>
      <trkpt lat="47.76011" lon="2.29206">
        <ele>135</ele>
        <time>2016-12-04T09:05:11.247Z</time>
      </trkpt>
      <trkpt lat="47.76011" lon="2.29206">
        <ele>135</ele>
        <time>2016-12-04T09:05:12.282Z</time>
      </trkpt>
      <trkpt lat="47.76016" lon="2.29223">
        <ele>135</ele>
        <time>2016-12-04T09:05:13.247Z</time>
      </trkpt>
      <trkpt lat="47.76016" lon="2.29223">
        <ele>135</ele>
        <time>2016-12-04T09:05:14.243Z</time>
      </trkpt>
      <trkpt lat="47.7602" lon="2.2924">
        <ele>135</ele>
        <time>2016-12-04T09:05:15.246Z</time>
      </trkpt>
      <trkpt lat="47.7602" lon="2.2924">
        <ele>135</ele>
        <time>2016-12-04T09:05:16.244Z</time>
      </trkpt>
      <trkpt lat="47.76023" lon="2.29257">
        <ele>135</ele>
        <time>2016-12-04T09:05:17.264Z</time>
      </trkpt>
      <trkpt lat="47.76024" lon="2.29266">
        <ele>135</ele>
        <time>2016-12-04T09:05:18.272Z</time>
      </trkpt>
      <trkpt lat="47.76024" lon="2.29266">
        <ele>135</ele>
        <time>2016-12-04T09:05:19.244Z</time>
      </trkpt>
      <trkpt lat="47.76026" lon="2.29284">
        <ele>134</ele>
        <time>2016-12-04T09:05:20.247Z</time>
      </trkpt>
      <trkpt lat="47.76026" lon="2.29292">
        <ele>134</ele>
        <time>2016-12-04T09:05:21.248Z</time>
      </trkpt>
      <trkpt lat="47.76026" lon="2.29292">
        <ele>134</ele>
        <time>2016-12-04T09:05:22.256Z</time>
      </trkpt>
      <trkpt lat="47.76026" lon="2.29309">
        <ele>134</ele>
        <time>2016-12-04T09:05:23.244Z</time>
      </trkpt>
      <trkpt lat="47.76026" lon="2.29309">
        <ele>134</ele>
        <time>2016-12-04T09:05:24.244Z</time>
      </trkpt>
      <trkpt lat="47.76026" lon="2.29327">
        <ele>133</ele>
        <time>2016-12-04T09:05:25.244Z</time>
      </trkpt>
      <trkpt lat="47.76026" lon="2.29335">
        <ele>133</ele>
        <time>2016-12-04T09:05:26.248Z</time>
      </trkpt>
      <trkpt lat="47.76026" lon="2.29335">
        <ele>133</ele>
        <time>2016-12-04T09:05:27.279Z</time>
      </trkpt>
      <trkpt lat="47.76026" lon="2.29353">
        <ele>133</ele>
        <time>2016-12-04T09:05:28.248Z</time>
      </trkpt>
      <trkpt lat="47.76026" lon="2.29361">
        <ele>133</ele>
        <time>2016-12-04T09:05:29.246Z</time>
      </trkpt>
      <trkpt lat="47.76026" lon="2.29361">
        <ele>133</ele>
        <time>2016-12-04T09:05:30.282Z</time>
      </trkpt>
      <trkpt lat="47.76025" lon="2.29378">
        <ele>132</ele>
        <time>2016-12-04T09:05:31.246Z</time>
      </trkpt>
      <trkpt lat="47.76025" lon="2.29378">
        <ele>132</ele>
        <time>2016-12-04T09:05:32.243Z</time>
      </trkpt>
      <trkpt lat="47.76024" lon="2.29394">
        <ele>131</ele>
        <time>2016-12-04T09:05:33.247Z</time>
      </trkpt>
      <trkpt lat="47.76024" lon="2.29394">
        <ele>131</ele>
        <time>2016-12-04T09:05:34.282Z</time>
      </trkpt>
      <trkpt lat="47.76024" lon="2.29409">
        <ele>131</ele>
        <time>2016-12-04T09:05:35.247Z</time>
      </trkpt>
      <trkpt lat="47.76024" lon="2.29409">
        <ele>131</ele>
        <time>2016-12-04T09:05:36.244Z</time>
      </trkpt>
      <trkpt lat="47.76025" lon="2.29422">
        <ele>130</ele>
        <time>2016-12-04T09:05:37.252Z</time>
      </trkpt>
      <trkpt lat="47.76027" lon="2.29427">
        <ele>130</ele>
        <time>2016-12-04T09:05:38.245Z</time>
      </trkpt>
      <trkpt lat="47.76031" lon="2.29431">
        <ele>130</ele>
        <time>2016-12-04T09:05:39.248Z</time>
      </trkpt>
      <trkpt lat="47.76031" lon="2.29431">
        <ele>130</ele>
        <time>2016-12-04T09:05:40.244Z</time>
      </trkpt>
      <trkpt lat="47.7604" lon="2.29438">
        <ele>131</ele>
        <time>2016-12-04T09:05:41.247Z</time>
      </trkpt>
      <trkpt lat="47.7604" lon="2.29438">
        <ele>131</ele>
        <time>2016-12-04T09:05:42.243Z</time>
      </trkpt>
      <trkpt lat="47.7605" lon="2.29444">
        <ele>130</ele>
        <time>2016-12-04T09:05:43.253Z</time>
      </trkpt>
      <trkpt lat="47.76056" lon="2.29446">
        <ele>130</ele>
        <time>2016-12-04T09:05:44.248Z</time>
      </trkpt>
      <trkpt lat="47.76056" lon="2.29446">
        <ele>130</ele>
        <time>2016-12-04T09:05:45.243Z</time>
      </trkpt>
      <trkpt lat="47.76071" lon="2.29446">
        <ele>130</ele>
        <time>2016-12-04T09:05:46.245Z</time>
      </trkpt>
      <trkpt lat="47.76079" lon="2.29445">
        <ele>129</ele>
        <time>2016-12-04T09:05:47.248Z</time>
      </trkpt>
      <trkpt lat="47.76079" lon="2.29445">
        <ele>129</ele>
        <time>2016-12-04T09:05:48.243Z</time>
      </trkpt>
      <trkpt lat="47.76094" lon="2.29442">
        <ele>129</ele>
        <time>2016-12-04T09:05:49.245Z</time>
      </trkpt>
      <trkpt lat="47.76101" lon="2.29438">
        <ele>128</ele>
        <time>2016-12-04T09:05:50.247Z</time>
      </trkpt>
      <trkpt lat="47.76106" lon="2.29432">
        <ele>128</ele>
        <time>2016-12-04T09:05:51.245Z</time>
      </trkpt>
      <trkpt lat="47.76106" lon="2.29432">
        <ele>128</ele>
        <time>2016-12-04T09:05:52.282Z</time>
      </trkpt>
      <trkpt lat="47.76114" lon="2.29416">
        <ele>128</ele>
        <time>2016-12-04T09:05:53.247Z</time>
      </trkpt>
      <trkpt lat="47.76114" lon="2.29416">
        <ele>128</ele>
        <time>2016-12-04T09:05:54.244Z</time>
      </trkpt>
      <trkpt lat="47.76119" lon="2.29395">
        <ele>127</ele>
        <time>2016-12-04T09:05:55.247Z</time>
      </trkpt>
      <trkpt lat="47.76119" lon="2.29395">
        <ele>127</ele>
        <time>2016-12-04T09:05:56.281Z</time>
      </trkpt>
      <trkpt lat="47.76125" lon="2.29376">
        <ele>126</ele>
        <time>2016-12-04T09:05:57.280Z</time>
      </trkpt>
      <trkpt lat="47.76125" lon="2.29376">
        <ele>126</ele>
        <time>2016-12-04T09:05:58.244Z</time>
      </trkpt>
      <trkpt lat="47.76139" lon="2.29368">
        <ele>126</ele>
        <time>2016-12-04T09:05:59.247Z</time>
      </trkpt>
      <trkpt lat="47.76139" lon="2.29368">
        <ele>126</ele>
        <time>2016-12-04T09:06:00.244Z</time>
      </trkpt>
      <trkpt lat="47.76153" lon="2.29369">
        <ele>126</ele>
        <time>2016-12-04T09:06:01.247Z</time>
      </trkpt>
      <trkpt lat="47.7616" lon="2.29369">
        <ele>125</ele>
        <time>2016-12-04T09:06:02.246Z</time>
      </trkpt>
      <trkpt lat="47.76168" lon="2.2937">
        <ele>125</ele>
        <time>2016-12-04T09:06:03.248Z</time>
      </trkpt>
      <trkpt lat="47.76168" lon="2.2937">
        <ele>125</ele>
        <time>2016-12-04T09:06:04.244Z</time>
      </trkpt>
      <trkpt lat="47.76182" lon="2.2937">
        <ele>125</ele>
        <time>2016-12-04T09:06:05.254Z</time>
      </trkpt>
      <trkpt lat="47.76182" lon="2.2937">
        <ele>125</ele>
        <time>2016-12-04T09:06:06.262Z</time>
      </trkpt>
      <trkpt lat="47.76198" lon="2.29371">
        <ele>125</ele>
        <time>2016-12-04T09:06:07.257Z</time>
      </trkpt>
      <trkpt lat="47.76206" lon="2.29372">
        <ele>124</ele>
        <time>2016-12-04T09:06:08.247Z</time>
      </trkpt>
      <trkpt lat="47.76215" lon="2.29372">
        <ele>124</ele>
        <time>2016-12-04T09:06:09.247Z</time>
      </trkpt>
      <trkpt lat="47.76215" lon="2.29372">
        <ele>124</ele>
        <time>2016-12-04T09:06:10.266Z</time>
      </trkpt>
      <trkpt lat="47.76231" lon="2.29372">
        <ele>125</ele>
        <time>2016-12-04T09:06:11.247Z</time>
      </trkpt>
      <trkpt lat="47.76231" lon="2.29372">
        <ele>125</ele>
        <time>2016-12-04T09:06:12.245Z</time>
      </trkpt>
      <trkpt lat="47.76247" lon="2.29373">
        <ele>125</ele>
        <time>2016-12-04T09:06:13.246Z</time>
      </trkpt>
      <trkpt lat="47.76247" lon="2.29373">
        <ele>125</ele>
        <time>2016-12-04T09:06:14.282Z</time>
      </trkpt>
      <trkpt lat="47.76263" lon="2.29374">
        <ele>123</ele>
        <time>2016-12-04T09:06:15.248Z</time>
      </trkpt>
      <trkpt lat="47.76263" lon="2.29374">
        <ele>123</ele>
        <time>2016-12-04T09:06:16.256Z</time>
      </trkpt>
      <trkpt lat="47.76278" lon="2.29377">
        <ele>123</ele>
        <time>2016-12-04T09:06:17.248Z</time>
      </trkpt>
      <trkpt lat="47.76278" lon="2.29377">
        <ele>123</ele>
        <time>2016-12-04T09:06:18.244Z</time>
      </trkpt>
      <trkpt lat="47.76294" lon="2.29381">
        <ele>122</ele>
        <time>2016-12-04T09:06:19.246Z</time>
      </trkpt>
      <trkpt lat="47.76302" lon="2.29384">
        <ele>122</ele>
        <time>2016-12-04T09:06:20.246Z</time>
      </trkpt>
      <trkpt lat="47.7631" lon="2.29386">
        <ele>122</ele>
        <time>2016-12-04T09:06:21.245Z</time>
      </trkpt>
      <trkpt lat="47.7631" lon="2.29386">
        <ele>122</ele>
        <time>2016-12-04T09:06:22.244Z</time>
      </trkpt>
      <trkpt lat="47.76326" lon="2.2939">
        <ele>121</ele>
        <time>2016-12-04T09:06:23.250Z</time>
      </trkpt>
      <trkpt lat="47.76326" lon="2.2939">
        <ele>121</ele>
        <time>2016-12-04T09:06:24.244Z</time>
      </trkpt>
      <trkpt lat="47.76341" lon="2.29395">
        <ele>121</ele>
        <time>2016-12-04T09:06:25.247Z</time>
      </trkpt>
      <trkpt lat="47.76341" lon="2.29395">
        <ele>121</ele>
        <time>2016-12-04T09:06:26.245Z</time>
      </trkpt>
      <trkpt lat="47.76356" lon="2.29399">
        <ele>119</ele>
        <time>2016-12-04T09:06:27.280Z</time>
      </trkpt>
      <trkpt lat="47.76364" lon="2.29402">
        <ele>118</ele>
        <time>2016-12-04T09:06:28.250Z</time>
      </trkpt>
      <trkpt lat="47.76364" lon="2.29402">
        <ele>118</ele>
        <time>2016-12-04T09:06:29.282Z</time>
      </trkpt>
      <trkpt lat="47.76379" lon="2.29408">
        <ele>118</ele>
        <time>2016-12-04T09:06:30.246Z</time>
      </trkpt>
      <trkpt lat="47.76379" lon="2.29408">
        <ele>118</ele>
        <time>2016-12-04T09:06:31.244Z</time>
      </trkpt>
      <trkpt lat="47.76393" lon="2.29415">
        <ele>117</ele>
        <time>2016-12-04T09:06:32.247Z</time>
      </trkpt>
      <trkpt lat="47.764" lon="2.29419">
        <ele>117</ele>
        <time>2016-12-04T09:06:33.245Z</time>
      </trkpt>
      <trkpt lat="47.764" lon="2.29419">
        <ele>117</ele>
        <time>2016-12-04T09:06:34.244Z</time>
      </trkpt>
      <trkpt lat="47.76414" lon="2.29424">
        <ele>117</ele>
        <time>2016-12-04T09:06:35.247Z</time>
      </trkpt>
      <trkpt lat="47.76414" lon="2.29424">
        <ele>117</ele>
        <time>2016-12-04T09:06:36.282Z</time>
      </trkpt>
      <trkpt lat="47.76429" lon="2.29429">
        <ele>117</ele>
        <time>2016-12-04T09:06:37.245Z</time>
      </trkpt>
      <trkpt lat="47.76435" lon="2.29432">
        <ele>116</ele>
        <time>2016-12-04T09:06:38.248Z</time>
      </trkpt>
      <trkpt lat="47.76443" lon="2.29434">
        <ele>116</ele>
        <time>2016-12-04T09:06:39.248Z</time>
      </trkpt>
      <trkpt lat="47.7645" lon="2.29437">
        <ele>116</ele>
        <time>2016-12-04T09:06:40.248Z</time>
      </trkpt>
      <trkpt lat="47.76457" lon="2.29441">
        <ele>116</ele>
        <time>2016-12-04T09:06:41.248Z</time>
      </trkpt>
      <trkpt lat="47.76457" lon="2.29441">
        <ele>116</ele>
        <time>2016-12-04T09:06:42.245Z</time>
      </trkpt>
      <trkpt lat="47.7647" lon="2.29449">
        <ele>116</ele>
        <time>2016-12-04T09:06:43.261Z</time>
      </trkpt>
      <trkpt lat="47.7647" lon="2.29449">
        <ele>116</ele>
        <time>2016-12-04T09:06:44.245Z</time>
      </trkpt>
      <trkpt lat="47.76482" lon="2.2946">
        <ele>116</ele>
        <time>2016-12-04T09:06:45.248Z</time>
      </trkpt>
      <trkpt lat="47.76482" lon="2.2946">
        <ele>116</ele>
        <time>2016-12-04T09:06:46.282Z</time>
      </trkpt>
      <trkpt lat="47.76494" lon="2.29472">
        <ele>116</ele>
        <time>2016-12-04T09:06:47.280Z</time>
      </trkpt>
      <trkpt lat="47.765" lon="2.29478">
        <ele>116</ele>
        <time>2016-12-04T09:06:48.248Z</time>
      </trkpt>
      <trkpt lat="47.765" lon="2.29478">
        <ele>116</ele>
        <time>2016-12-04T09:06:49.245Z</time>
      </trkpt>
      <trkpt lat="47.76511" lon="2.2949">
        <ele>116</ele>
        <time>2016-12-04T09:06:50.247Z</time>
      </trkpt>
      <trkpt lat="47.76511" lon="2.2949">
        <ele>116</ele>
        <time>2016-12-04T09:06:51.245Z</time>
      </trkpt>
      <trkpt lat="47.76524" lon="2.29501">
        <ele>116</ele>
        <time>2016-12-04T09:06:52.260Z</time>
      </trkpt>
      <trkpt lat="47.76524" lon="2.29501">
        <ele>116</ele>
        <time>2016-12-04T09:06:53.244Z</time>
      </trkpt>
      <trkpt lat="47.76536" lon="2.29513">
        <ele>116</ele>
        <time>2016-12-04T09:06:54.246Z</time>
      </trkpt>
      <trkpt lat="47.76542" lon="2.29517">
        <ele>117</ele>
        <time>2016-12-04T09:06:55.247Z</time>
      </trkpt>
      <trkpt lat="47.76542" lon="2.29517">
        <ele>117</ele>
        <time>2016-12-04T09:06:56.244Z</time>
      </trkpt>
      <trkpt lat="47.76553" lon="2.29525">
        <ele>116</ele>
        <time>2016-12-04T09:06:57.245Z</time>
      </trkpt>
      <trkpt lat="47.76553" lon="2.29525">
        <ele>116</ele>
        <time>2016-12-04T09:06:58.244Z</time>
      </trkpt>
      <trkpt lat="47.76566" lon="2.29529">
        <ele>116</ele>
        <time>2016-12-04T09:06:59.248Z</time>
      </trkpt>
      <trkpt lat="47.76566" lon="2.29529">
        <ele>116</ele>
        <time>2016-12-04T09:07:00.244Z</time>
      </trkpt>
      <trkpt lat="47.76577" lon="2.29533">
        <ele>116</ele>
        <time>2016-12-04T09:07:01.246Z</time>
      </trkpt>
      <trkpt lat="47.76577" lon="2.29533">
        <ele>116</ele>
        <time>2016-12-04T09:07:02.245Z</time>
      </trkpt>
      <trkpt lat="47.76589" lon="2.29538">
        <ele>115</ele>
        <time>2016-12-04T09:07:03.250Z</time>
      </trkpt>
      <trkpt lat="47.76589" lon="2.29538">
        <ele>115</ele>
        <time>2016-12-04T09:07:04.244Z</time>
      </trkpt>
      <trkpt lat="47.76601" lon="2.29543">
        <ele>115</ele>
        <time>2016-12-04T09:07:05.247Z</time>
      </trkpt>
      <trkpt lat="47.76607" lon="2.29544">
        <ele>116</ele>
        <time>2016-12-04T09:07:06.248Z</time>
      </trkpt>
      <trkpt lat="47.76607" lon="2.29544">
        <ele>116</ele>
        <time>2016-12-04T09:07:07.278Z</time>
      </trkpt>
      <trkpt lat="47.76618" lon="2.29549">
        <ele>115</ele>
        <time>2016-12-04T09:07:08.248Z</time>
      </trkpt>
      <trkpt lat="47.76618" lon="2.29549">
        <ele>115</ele>
        <time>2016-12-04T09:07:09.243Z</time>
      </trkpt>
      <trkpt lat="47.7663" lon="2.29555">
        <ele>115</ele>
        <time>2016-12-04T09:07:10.276Z</time>
      </trkpt>
      <trkpt lat="47.76635" lon="2.29557">
        <ele>115</ele>
        <time>2016-12-04T09:07:11.261Z</time>
      </trkpt>
      <trkpt lat="47.76635" lon="2.29557">
        <ele>115</ele>
        <time>2016-12-04T09:07:12.243Z</time>
      </trkpt>
      <trkpt lat="47.76646" lon="2.29561">
        <ele>116</ele>
        <time>2016-12-04T09:07:13.246Z</time>
      </trkpt>
      <trkpt lat="47.76652" lon="2.29563">
        <ele>116</ele>
        <time>2016-12-04T09:07:14.248Z</time>
      </trkpt>
      <trkpt lat="47.76657" lon="2.29565">
        <ele>115</ele>
        <time>2016-12-04T09:07:15.260Z</time>
      </trkpt>
      <trkpt lat="47.76657" lon="2.29565">
        <ele>115</ele>
        <time>2016-12-04T09:07:16.252Z</time>
      </trkpt>
      <trkpt lat="47.76669" lon="2.29566">
        <ele>115</ele>
        <time>2016-12-04T09:07:17.256Z</time>
      </trkpt>
      <trkpt lat="47.76669" lon="2.29566">
        <ele>115</ele>
        <time>2016-12-04T09:07:18.264Z</time>
      </trkpt>
      <trkpt lat="47.76681" lon="2.29564">
        <ele>116</ele>
        <time>2016-12-04T09:07:19.257Z</time>
      </trkpt>
      <trkpt lat="47.76681" lon="2.29564">
        <ele>116</ele>
        <time>2016-12-04T09:07:20.282Z</time>
      </trkpt>
      <trkpt lat="47.76693" lon="2.2956">
        <ele>117</ele>
        <time>2016-12-04T09:07:21.249Z</time>
      </trkpt>
      <trkpt lat="47.76693" lon="2.2956">
        <ele>117</ele>
        <time>2016-12-04T09:07:22.256Z</time>
      </trkpt>
      <trkpt lat="47.76704" lon="2.29556">
        <ele>119</ele>
        <time>2016-12-04T09:07:23.248Z</time>
      </trkpt>
      <trkpt lat="47.76704" lon="2.29556">
        <ele>119</ele>
        <time>2016-12-04T09:07:24.282Z</time>
      </trkpt>
      <trkpt lat="47.76716" lon="2.29552">
        <ele>120</ele>
        <time>2016-12-04T09:07:25.247Z</time>
      </trkpt>
      <trkpt lat="47.76716" lon="2.29552">
        <ele>120</ele>
        <time>2016-12-04T09:07:26.244Z</time>
      </trkpt>
      <trkpt lat="47.76727" lon="2.29549">
        <ele>120</ele>
        <time>2016-12-04T09:07:27.248Z</time>
      </trkpt>
      <trkpt lat="47.76727" lon="2.29549">
        <ele>120</ele>
        <time>2016-12-04T09:07:28.245Z</time>
      </trkpt>
      <trkpt lat="47.76738" lon="2.29545">
        <ele>119</ele>
        <time>2016-12-04T09:07:29.248Z</time>
      </trkpt>
      <trkpt lat="47.76738" lon="2.29545">
        <ele>119</ele>
        <time>2016-12-04T09:07:30.244Z</time>
      </trkpt>
      <trkpt lat="47.76749" lon="2.29541">
        <ele>120</ele>
        <time>2016-12-04T09:07:31.245Z</time>
      </trkpt>
      <trkpt lat="47.76749" lon="2.29541">
        <ele>120</ele>
        <time>2016-12-04T09:07:32.244Z</time>
      </trkpt>
      <trkpt lat="47.7676" lon="2.29535">
        <ele>120</ele>
        <time>2016-12-04T09:07:33.248Z</time>
      </trkpt>
      <trkpt lat="47.7676" lon="2.29535">
        <ele>120</ele>
        <time>2016-12-04T09:07:34.244Z</time>
      </trkpt>
      <trkpt lat="47.76771" lon="2.2953">
        <ele>119</ele>
        <time>2016-12-04T09:07:35.245Z</time>
      </trkpt>
      <trkpt lat="47.76771" lon="2.2953">
        <ele>119</ele>
        <time>2016-12-04T09:07:36.276Z</time>
      </trkpt>
      <trkpt lat="47.76781" lon="2.29526">
        <ele>119</ele>
        <time>2016-12-04T09:07:37.264Z</time>
      </trkpt>
      <trkpt lat="47.76781" lon="2.29526">
        <ele>119</ele>
        <time>2016-12-04T09:07:38.253Z</time>
      </trkpt>
      <trkpt lat="47.76792" lon="2.29521">
        <ele>119</ele>
        <time>2016-12-04T09:07:39.249Z</time>
      </trkpt>
      <trkpt lat="47.76792" lon="2.29521">
        <ele>119</ele>
        <time>2016-12-04T09:07:40.245Z</time>
      </trkpt>
      <trkpt lat="47.76804" lon="2.29519">
        <ele>119</ele>
        <time>2016-12-04T09:07:41.247Z</time>
      </trkpt>
      <trkpt lat="47.7681" lon="2.29516">
        <ele>119</ele>
        <time>2016-12-04T09:07:42.247Z</time>
      </trkpt>
      <trkpt lat="47.7681" lon="2.29516">
        <ele>119</ele>
        <time>2016-12-04T09:07:43.280Z</time>
      </trkpt>
      <trkpt lat="47.7682" lon="2.29511">
        <ele>119</ele>
        <time>2016-12-04T09:07:44.248Z</time>
      </trkpt>
      <trkpt lat="47.76824" lon="2.29509">
        <ele>119</ele>
        <time>2016-12-04T09:07:45.245Z</time>
      </trkpt>
      <trkpt lat="47.76824" lon="2.29509">
        <ele>119</ele>
        <time>2016-12-04T09:07:46.244Z</time>
      </trkpt>
      <trkpt lat="47.76833" lon="2.29506">
        <ele>119</ele>
        <time>2016-12-04T09:07:47.249Z</time>
      </trkpt>
      <trkpt lat="47.76837" lon="2.29504">
        <ele>119</ele>
        <time>2016-12-04T09:07:48.245Z</time>
      </trkpt>
      <trkpt lat="47.76837" lon="2.29504">
        <ele>119</ele>
        <time>2016-12-04T09:07:49.244Z</time>
      </trkpt>
      <trkpt lat="47.76846" lon="2.29498">
        <ele>119</ele>
        <time>2016-12-04T09:07:50.245Z</time>
      </trkpt>
      <trkpt lat="47.76849" lon="2.29494">
        <ele>121</ele>
        <time>2016-12-04T09:07:51.248Z</time>
      </trkpt>
      <trkpt lat="47.76853" lon="2.29491">
        <ele>120</ele>
        <time>2016-12-04T09:07:52.261Z</time>
      </trkpt>
      <trkpt lat="47.76853" lon="2.29491">
        <ele>120</ele>
        <time>2016-12-04T09:07:53.251Z</time>
      </trkpt>
      <trkpt lat="47.76859" lon="2.29484">
        <ele>120</ele>
        <time>2016-12-04T09:07:54.245Z</time>
      </trkpt>
      <trkpt lat="47.76859" lon="2.29484">
        <ele>120</ele>
        <time>2016-12-04T09:07:55.244Z</time>
      </trkpt>
      <trkpt lat="47.76867" lon="2.29476">
        <ele>120</ele>
        <time>2016-12-04T09:07:56.247Z</time>
      </trkpt>
      <trkpt lat="47.76867" lon="2.29476">
        <ele>120</ele>
        <time>2016-12-04T09:07:57.245Z</time>
      </trkpt>
      <trkpt lat="47.76874" lon="2.29469">
        <ele>120</ele>
        <time>2016-12-04T09:07:58.244Z</time>
      </trkpt>
      <trkpt lat="47.76877" lon="2.29465">
        <ele>120</ele>
        <time>2016-12-04T09:07:59.248Z</time>
      </trkpt>
      <trkpt lat="47.76877" lon="2.29465">
        <ele>120</ele>
        <time>2016-12-04T09:08:00.282Z</time>
      </trkpt>
      <trkpt lat="47.76883" lon="2.29458">
        <ele>119</ele>
        <time>2016-12-04T09:08:01.247Z</time>
      </trkpt>
      <trkpt lat="47.76883" lon="2.29458">
        <ele>119</ele>
        <time>2016-12-04T09:08:02.276Z</time>
      </trkpt>
      <trkpt lat="47.7689" lon="2.2945">
        <ele>119</ele>
        <time>2016-12-04T09:08:03.266Z</time>
      </trkpt>
      <trkpt lat="47.7689" lon="2.2945">
        <ele>119</ele>
        <time>2016-12-04T09:08:04.255Z</time>
      </trkpt>
      <trkpt lat="47.76898" lon="2.29442">
        <ele>120</ele>
        <time>2016-12-04T09:08:05.248Z</time>
      </trkpt>
      <trkpt lat="47.76898" lon="2.29442">
        <ele>120</ele>
        <time>2016-12-04T09:08:06.276Z</time>
      </trkpt>
      <trkpt lat="47.76905" lon="2.29434">
        <ele>119</ele>
        <time>2016-12-04T09:08:07.264Z</time>
      </trkpt>
      <trkpt lat="47.76905" lon="2.29434">
        <ele>119</ele>
        <time>2016-12-04T09:08:08.245Z</time>
      </trkpt>
      <trkpt lat="47.76913" lon="2.29425">
        <ele>119</ele>
        <time>2016-12-04T09:08:09.250Z</time>
      </trkpt>
      <trkpt lat="47.76913" lon="2.29425">
        <ele>119</ele>
        <time>2016-12-04T09:08:10.244Z</time>
      </trkpt>
      <trkpt lat="47.7692" lon="2.29418">
        <ele>119</ele>
        <time>2016-12-04T09:08:11.249Z</time>
      </trkpt>
      <trkpt lat="47.76925" lon="2.29414">
        <ele>119</ele>
        <time>2016-12-04T09:08:12.245Z</time>
      </trkpt>
      <trkpt lat="47.76925" lon="2.29414">
        <ele>119</ele>
        <time>2016-12-04T09:08:13.282Z</time>
      </trkpt>
      <trkpt lat="47.76932" lon="2.29405">
        <ele>119</ele>
        <time>2016-12-04T09:08:14.245Z</time>
      </trkpt>
      <trkpt lat="47.76936" lon="2.29401">
        <ele>118</ele>
        <time>2016-12-04T09:08:15.248Z</time>
      </trkpt>
      <trkpt lat="47.76936" lon="2.29401">
        <ele>118</ele>
        <time>2016-12-04T09:08:16.249Z</time>
      </trkpt>
      <trkpt lat="47.76944" lon="2.29393">
        <ele>119</ele>
        <time>2016-12-04T09:08:17.244Z</time>
      </trkpt>
      <trkpt lat="47.76948" lon="2.29389">
        <ele>119</ele>
        <time>2016-12-04T09:08:18.251Z</time>
      </trkpt>
      <trkpt lat="47.76948" lon="2.29389">
        <ele>119</ele>
        <time>2016-12-04T09:08:19.257Z</time>
      </trkpt>
      <trkpt lat="47.76955" lon="2.2938">
        <ele>119</ele>
        <time>2016-12-04T09:08:20.249Z</time>
      </trkpt>
      <trkpt lat="47.76958" lon="2.29377">
        <ele>118</ele>
        <time>2016-12-04T09:08:21.250Z</time>
      </trkpt>
      <trkpt lat="47.76958" lon="2.29377">
        <ele>118</ele>
        <time>2016-12-04T09:08:22.282Z</time>
      </trkpt>
      <trkpt lat="47.76966" lon="2.29368">
        <ele>119</ele>
        <time>2016-12-04T09:08:23.247Z</time>
      </trkpt>
      <trkpt lat="47.7697" lon="2.29365">
        <ele>119</ele>
        <time>2016-12-04T09:08:24.247Z</time>
      </trkpt>
      <trkpt lat="47.7697" lon="2.29365">
        <ele>119</ele>
        <time>2016-12-04T09:08:25.244Z</time>
      </trkpt>
      <trkpt lat="47.76977" lon="2.29356">
        <ele>119</ele>
        <time>2016-12-04T09:08:26.244Z</time>
      </trkpt>
      <trkpt lat="47.76977" lon="2.29356">
        <ele>119</ele>
        <time>2016-12-04T09:08:27.268Z</time>
      </trkpt>
      <trkpt lat="47.76985" lon="2.29346">
        <ele>119</ele>
        <time>2016-12-04T09:08:28.258Z</time>
      </trkpt>
      <trkpt lat="47.76989" lon="2.29341">
        <ele>119</ele>
        <time>2016-12-04T09:08:29.248Z</time>
      </trkpt>
      <trkpt lat="47.76989" lon="2.29341">
        <ele>119</ele>
        <time>2016-12-04T09:08:30.244Z</time>
      </trkpt>
      <trkpt lat="47.76997" lon="2.29332">
        <ele>119</ele>
        <time>2016-12-04T09:08:31.248Z</time>
      </trkpt>
      <trkpt lat="47.77001" lon="2.29327">
        <ele>119</ele>
        <time>2016-12-04T09:08:32.245Z</time>
      </trkpt>
      <trkpt lat="47.77005" lon="2.29323">
        <ele>119</ele>
        <time>2016-12-04T09:08:33.250Z</time>
      </trkpt>
      <trkpt lat="47.77005" lon="2.29323">
        <ele>119</ele>
        <time>2016-12-04T09:08:34.250Z</time>
      </trkpt>
      <trkpt lat="47.77013" lon="2.29314">
        <ele>119</ele>
        <time>2016-12-04T09:08:35.248Z</time>
      </trkpt>
      <trkpt lat="47.77017" lon="2.29309">
        <ele>119</ele>
        <time>2016-12-04T09:08:36.247Z</time>
      </trkpt>
      <trkpt lat="47.77017" lon="2.29309">
        <ele>119</ele>
        <time>2016-12-04T09:08:37.275Z</time>
      </trkpt>
      <trkpt lat="47.77025" lon="2.293">
        <ele>120</ele>
        <time>2016-12-04T09:08:38.262Z</time>
      </trkpt>
      <trkpt lat="47.77029" lon="2.29295">
        <ele>120</ele>
        <time>2016-12-04T09:08:39.255Z</time>
      </trkpt>
      <trkpt lat="47.77029" lon="2.29295">
        <ele>120</ele>
        <time>2016-12-04T09:08:40.244Z</time>
      </trkpt>
      <trkpt lat="47.77037" lon="2.29287">
        <ele>120</ele>
        <time>2016-12-04T09:08:41.247Z</time>
      </trkpt>
      <trkpt lat="47.77043" lon="2.29283">
        <ele>120</ele>
        <time>2016-12-04T09:08:42.247Z</time>
      </trkpt>
      <trkpt lat="47.77043" lon="2.29283">
        <ele>120</ele>
        <time>2016-12-04T09:08:43.283Z</time>
      </trkpt>
      <trkpt lat="47.77051" lon="2.29274">
        <ele>120</ele>
        <time>2016-12-04T09:08:44.262Z</time>
      </trkpt>
      <trkpt lat="47.77056" lon="2.29269">
        <ele>120</ele>
        <time>2016-12-04T09:08:45.255Z</time>
      </trkpt>
      <trkpt lat="47.77056" lon="2.29269">
        <ele>120</ele>
        <time>2016-12-04T09:08:46.282Z</time>
      </trkpt>
      <trkpt lat="47.77064" lon="2.2926">
        <ele>120</ele>
        <time>2016-12-04T09:08:47.280Z</time>
      </trkpt>
      <trkpt lat="47.77067" lon="2.29256">
        <ele>120</ele>
        <time>2016-12-04T09:08:48.247Z</time>
      </trkpt>
      <trkpt lat="47.77071" lon="2.29253">
        <ele>120</ele>
        <time>2016-12-04T09:08:49.247Z</time>
      </trkpt>
      <trkpt lat="47.77071" lon="2.29253">
        <ele>120</ele>
        <time>2016-12-04T09:08:50.282Z</time>
      </trkpt>
      <trkpt lat="47.77078" lon="2.29244">
        <ele>121</ele>
        <time>2016-12-04T09:08:51.249Z</time>
      </trkpt>
      <trkpt lat="47.77078" lon="2.29244">
        <ele>121</ele>
        <time>2016-12-04T09:08:52.282Z</time>
      </trkpt>
      <trkpt lat="47.77086" lon="2.29236">
        <ele>121</ele>
        <time>2016-12-04T09:08:53.249Z</time>
      </trkpt>
      <trkpt lat="47.77086" lon="2.29236">
        <ele>121</ele>
        <time>2016-12-04T09:08:54.244Z</time>
      </trkpt>
      <trkpt lat="47.77094" lon="2.29227">
        <ele>121</ele>
        <time>2016-12-04T09:08:55.245Z</time>
      </trkpt>
      <trkpt lat="47.77094" lon="2.29227">
        <ele>121</ele>
        <time>2016-12-04T09:08:56.282Z</time>
      </trkpt>
      <trkpt lat="47.77102" lon="2.29218">
        <ele>122</ele>
        <time>2016-12-04T09:08:57.247Z</time>
      </trkpt>
      <trkpt lat="47.77107" lon="2.29214">
        <ele>122</ele>
        <time>2016-12-04T09:08:58.248Z</time>
      </trkpt>
      <trkpt lat="47.77111" lon="2.29209">
        <ele>122</ele>
        <time>2016-12-04T09:08:59.248Z</time>
      </trkpt>
      <trkpt lat="47.77111" lon="2.29209">
        <ele>122</ele>
        <time>2016-12-04T09:09:00.282Z</time>
      </trkpt>
      <trkpt lat="47.7712" lon="2.292">
        <ele>123</ele>
        <time>2016-12-04T09:09:01.245Z</time>
      </trkpt>
      <trkpt lat="47.7712" lon="2.292">
        <ele>123</ele>
        <time>2016-12-04T09:09:02.282Z</time>
      </trkpt>
      <trkpt lat="47.77128" lon="2.29192">
        <ele>123</ele>
        <time>2016-12-04T09:09:03.250Z</time>
      </trkpt>
      <trkpt lat="47.77128" lon="2.29192">
        <ele>123</ele>
        <time>2016-12-04T09:09:04.244Z</time>
      </trkpt>
      <trkpt lat="47.77136" lon="2.29182">
        <ele>123</ele>
        <time>2016-12-04T09:09:05.248Z</time>
      </trkpt>
      <trkpt lat="47.77136" lon="2.29182">
        <ele>123</ele>
        <time>2016-12-04T09:09:06.243Z</time>
      </trkpt>
      <trkpt lat="47.77143" lon="2.29174">
        <ele>123</ele>
        <time>2016-12-04T09:09:07.280Z</time>
      </trkpt>
      <trkpt lat="47.77147" lon="2.2917">
        <ele>124</ele>
        <time>2016-12-04T09:09:08.268Z</time>
      </trkpt>
      <trkpt lat="47.77147" lon="2.2917">
        <ele>124</ele>
        <time>2016-12-04T09:09:09.249Z</time>
      </trkpt>
      <trkpt lat="47.77156" lon="2.2916">
        <ele>123</ele>
        <time>2016-12-04T09:09:10.255Z</time>
      </trkpt>
      <trkpt lat="47.77161" lon="2.29154">
        <ele>123</ele>
        <time>2016-12-04T09:09:11.248Z</time>
      </trkpt>
      <trkpt lat="47.77161" lon="2.29154">
        <ele>123</ele>
        <time>2016-12-04T09:09:12.282Z</time>
      </trkpt>
      <trkpt lat="47.77171" lon="2.29143">
        <ele>122</ele>
        <time>2016-12-04T09:09:13.269Z</time>
      </trkpt>
      <trkpt lat="47.77176" lon="2.29138">
        <ele>122</ele>
        <time>2016-12-04T09:09:14.262Z</time>
      </trkpt>
      <trkpt lat="47.77181" lon="2.29132">
        <ele>122</ele>
        <time>2016-12-04T09:09:15.250Z</time>
      </trkpt>
      <trkpt lat="47.77181" lon="2.29132">
        <ele>122</ele>
        <time>2016-12-04T09:09:16.255Z</time>
      </trkpt>
      <trkpt lat="47.77189" lon="2.29123">
        <ele>121</ele>
        <time>2016-12-04T09:09:17.267Z</time>
      </trkpt>
      <trkpt lat="47.77193" lon="2.29118">
        <ele>121</ele>
        <time>2016-12-04T09:09:18.269Z</time>
      </trkpt>
      <trkpt lat="47.77197" lon="2.29113">
        <ele>121</ele>
        <time>2016-12-04T09:09:19.253Z</time>
      </trkpt>
      <trkpt lat="47.77197" lon="2.29113">
        <ele>121</ele>
        <time>2016-12-04T09:09:20.244Z</time>
      </trkpt>
      <trkpt lat="47.77205" lon="2.29104">
        <ele>121</ele>
        <time>2016-12-04T09:09:21.249Z</time>
      </trkpt>
      <trkpt lat="47.77205" lon="2.29104">
        <ele>121</ele>
        <time>2016-12-04T09:09:22.282Z</time>
      </trkpt>
      <trkpt lat="47.77214" lon="2.29095">
        <ele>120</ele>
        <time>2016-12-04T09:09:23.259Z</time>
      </trkpt>
      <trkpt lat="47.77214" lon="2.29095">
        <ele>120</ele>
        <time>2016-12-04T09:09:24.248Z</time>
      </trkpt>
      <trkpt lat="47.77222" lon="2.29085">
        <ele>120</ele>
        <time>2016-12-04T09:09:25.247Z</time>
      </trkpt>
      <trkpt lat="47.77222" lon="2.29085">
        <ele>120</ele>
        <time>2016-12-04T09:09:26.282Z</time>
      </trkpt>
      <trkpt lat="47.7723" lon="2.29076">
        <ele>120</ele>
        <time>2016-12-04T09:09:27.245Z</time>
      </trkpt>
      <trkpt lat="47.7723" lon="2.29076">
        <ele>120</ele>
        <time>2016-12-04T09:09:28.245Z</time>
      </trkpt>
      <trkpt lat="47.77238" lon="2.29067">
        <ele>119</ele>
        <time>2016-12-04T09:09:29.248Z</time>
      </trkpt>
      <trkpt lat="47.77238" lon="2.29067">
        <ele>119</ele>
        <time>2016-12-04T09:09:30.282Z</time>
      </trkpt>
      <trkpt lat="47.77247" lon="2.29058">
        <ele>119</ele>
        <time>2016-12-04T09:09:31.245Z</time>
      </trkpt>
      <trkpt lat="47.77247" lon="2.29058">
        <ele>119</ele>
        <time>2016-12-04T09:09:32.243Z</time>
      </trkpt>
      <trkpt lat="47.77255" lon="2.29049">
        <ele>119</ele>
        <time>2016-12-04T09:09:33.248Z</time>
      </trkpt>
      <trkpt lat="47.77255" lon="2.29049">
        <ele>119</ele>
        <time>2016-12-04T09:09:34.243Z</time>
      </trkpt>
      <trkpt lat="47.77263" lon="2.29039">
        <ele>118</ele>
        <time>2016-12-04T09:09:35.249Z</time>
      </trkpt>
      <trkpt lat="47.77263" lon="2.29039">
        <ele>118</ele>
        <time>2016-12-04T09:09:36.282Z</time>
      </trkpt>
      <trkpt lat="47.77272" lon="2.2903">
        <ele>118</ele>
        <time>2016-12-04T09:09:37.266Z</time>
      </trkpt>
      <trkpt lat="47.77277" lon="2.29025">
        <ele>118</ele>
        <time>2016-12-04T09:09:38.253Z</time>
      </trkpt>
      <trkpt lat="47.77277" lon="2.29025">
        <ele>118</ele>
        <time>2016-12-04T09:09:39.244Z</time>
      </trkpt>
      <trkpt lat="47.77285" lon="2.29015">
        <ele>118</ele>
        <time>2016-12-04T09:09:40.245Z</time>
      </trkpt>
      <trkpt lat="47.7729" lon="2.29009">
        <ele>118</ele>
        <time>2016-12-04T09:09:41.248Z</time>
      </trkpt>
      <trkpt lat="47.7729" lon="2.29009">
        <ele>118</ele>
        <time>2016-12-04T09:09:42.246Z</time>
      </trkpt>
      <trkpt lat="47.77299" lon="2.28998">
        <ele>118</ele>
        <time>2016-12-04T09:09:43.265Z</time>
      </trkpt>
      <trkpt lat="47.77304" lon="2.28994">
        <ele>118</ele>
        <time>2016-12-04T09:09:44.249Z</time>
      </trkpt>
      <trkpt lat="47.77308" lon="2.28989">
        <ele>118</ele>
        <time>2016-12-04T09:09:45.250Z</time>
      </trkpt>
      <trkpt lat="47.77308" lon="2.28989">
        <ele>118</ele>
        <time>2016-12-04T09:09:46.243Z</time>
      </trkpt>
      <trkpt lat="47.77318" lon="2.2898">
        <ele>118</ele>
        <time>2016-12-04T09:09:47.280Z</time>
      </trkpt>
      <trkpt lat="47.77318" lon="2.2898">
        <ele>118</ele>
        <time>2016-12-04T09:09:48.244Z</time>
      </trkpt>
      <trkpt lat="47.77326" lon="2.2897">
        <ele>117</ele>
        <time>2016-12-04T09:09:49.245Z</time>
      </trkpt>
      <trkpt lat="47.77326" lon="2.2897">
        <ele>117</ele>
        <time>2016-12-04T09:09:50.243Z</time>
      </trkpt>
      <trkpt lat="47.77335" lon="2.2896">
        <ele>117</ele>
        <time>2016-12-04T09:09:51.250Z</time>
      </trkpt>
      <trkpt lat="47.77335" lon="2.2896">
        <ele>117</ele>
        <time>2016-12-04T09:09:52.243Z</time>
      </trkpt>
      <trkpt lat="47.77344" lon="2.28951">
        <ele>117</ele>
        <time>2016-12-04T09:09:53.248Z</time>
      </trkpt>
      <trkpt lat="47.77344" lon="2.28951">
        <ele>117</ele>
        <time>2016-12-04T09:09:54.243Z</time>
      </trkpt>
      <trkpt lat="47.77353" lon="2.28943">
        <ele>117</ele>
        <time>2016-12-04T09:09:55.248Z</time>
      </trkpt>
      <trkpt lat="47.77353" lon="2.28943">
        <ele>117</ele>
        <time>2016-12-04T09:09:56.243Z</time>
      </trkpt>
      <trkpt lat="47.77361" lon="2.28938">
        <ele>117</ele>
        <time>2016-12-04T09:09:57.282Z</time>
      </trkpt>
      <trkpt lat="47.77361" lon="2.28938">
        <ele>117</ele>
        <time>2016-12-04T09:09:58.267Z</time>
      </trkpt>
      <trkpt lat="47.77368" lon="2.28934">
        <ele>117</ele>
        <time>2016-12-04T09:09:59.257Z</time>
      </trkpt>
      <trkpt lat="47.77368" lon="2.28934">
        <ele>117</ele>
        <time>2016-12-04T09:10:00.244Z</time>
      </trkpt>
      <trkpt lat="47.77373" lon="2.28934">
        <ele>116</ele>
        <time>2016-12-04T09:10:01.248Z</time>
      </trkpt>
      <trkpt lat="47.77373" lon="2.28934">
        <ele>116</ele>
        <time>2016-12-04T09:10:02.243Z</time>
      </trkpt>
      <trkpt lat="47.77376" lon="2.28935">
        <ele>116</ele>
        <time>2016-12-04T09:10:03.250Z</time>
      </trkpt>
      <trkpt lat="47.77376" lon="2.28935">
        <ele>116</ele>
        <time>2016-12-04T09:10:04.243Z</time>
      </trkpt>
      <trkpt lat="47.77376" lon="2.28935">
        <ele>116</ele>
        <time>2016-12-04T09:10:05.248Z</time>
      </trkpt>
      <trkpt lat="47.77382" lon="2.28942">
        <ele>114</ele>
        <time>2016-12-04T09:10:06.255Z</time>
      </trkpt>
      <trkpt lat="47.77383" lon="2.28942">
        <ele>114</ele>
        <time>2016-12-04T09:10:07.258Z</time>
      </trkpt>
      <trkpt lat="47.77383" lon="2.28942">
        <ele>114</ele>
        <time>2016-12-04T09:10:08.261Z</time>
      </trkpt>
      <trkpt lat="47.77389" lon="2.28943">
        <ele>113</ele>
        <time>2016-12-04T09:10:09.260Z</time>
      </trkpt>
      <trkpt lat="47.77393" lon="2.28943">
        <ele>113</ele>
        <time>2016-12-04T09:10:10.259Z</time>
      </trkpt>
      <trkpt lat="47.77393" lon="2.28943">
        <ele>113</ele>
        <time>2016-12-04T09:10:11.255Z</time>
      </trkpt>
      <trkpt lat="47.77401" lon="2.28945">
        <ele>113</ele>
        <time>2016-12-04T09:10:12.275Z</time>
      </trkpt>
      <trkpt lat="47.77401" lon="2.28945">
        <ele>113</ele>
        <time>2016-12-04T09:10:13.263Z</time>
      </trkpt>
      <trkpt lat="47.7741" lon="2.28947">
        <ele>113</ele>
        <time>2016-12-04T09:10:14.261Z</time>
      </trkpt>
      <trkpt lat="47.77414" lon="2.28947">
        <ele>113</ele>
        <time>2016-12-04T09:10:15.260Z</time>
      </trkpt>
      <trkpt lat="47.77414" lon="2.28947">
        <ele>113</ele>
        <time>2016-12-04T09:10:16.254Z</time>
      </trkpt>
      <trkpt lat="47.77424" lon="2.28949">
        <ele>113</ele>
        <time>2016-12-04T09:10:17.246Z</time>
      </trkpt>
      <trkpt lat="47.77424" lon="2.28949">
        <ele>113</ele>
        <time>2016-12-04T09:10:18.252Z</time>
      </trkpt>
      <trkpt lat="47.77434" lon="2.28951">
        <ele>113</ele>
        <time>2016-12-04T09:10:19.265Z</time>
      </trkpt>
      <trkpt lat="47.77438" lon="2.28952">
        <ele>112</ele>
        <time>2016-12-04T09:10:20.262Z</time>
      </trkpt>
      <trkpt lat="47.77438" lon="2.28952">
        <ele>112</ele>
        <time>2016-12-04T09:10:21.255Z</time>
      </trkpt>
      <trkpt lat="47.77449" lon="2.28954">
        <ele>113</ele>
        <time>2016-12-04T09:10:22.260Z</time>
      </trkpt>
      <trkpt lat="47.77449" lon="2.28954">
        <ele>113</ele>
        <time>2016-12-04T09:10:23.254Z</time>
      </trkpt>
      <trkpt lat="47.77459" lon="2.28956">
        <ele>113</ele>
        <time>2016-12-04T09:10:24.274Z</time>
      </trkpt>
      <trkpt lat="47.77459" lon="2.28956">
        <ele>113</ele>
        <time>2016-12-04T09:10:25.262Z</time>
      </trkpt>
      <trkpt lat="47.7747" lon="2.28957">
        <ele>113</ele>
        <time>2016-12-04T09:10:26.261Z</time>
      </trkpt>
      <trkpt lat="47.7747" lon="2.28957">
        <ele>113</ele>
        <time>2016-12-04T09:10:27.254Z</time>
      </trkpt>
      <trkpt lat="47.7748" lon="2.28959">
        <ele>113</ele>
        <time>2016-12-04T09:10:28.260Z</time>
      </trkpt>
      <trkpt lat="47.7748" lon="2.28959">
        <ele>113</ele>
        <time>2016-12-04T09:10:29.254Z</time>
      </trkpt>
      <trkpt lat="47.77491" lon="2.2896">
        <ele>113</ele>
        <time>2016-12-04T09:10:30.260Z</time>
      </trkpt>
      <trkpt lat="47.77491" lon="2.2896">
        <ele>113</ele>
        <time>2016-12-04T09:10:31.255Z</time>
      </trkpt>
      <trkpt lat="47.77501" lon="2.28963">
        <ele>113</ele>
        <time>2016-12-04T09:10:32.260Z</time>
      </trkpt>
      <trkpt lat="47.77501" lon="2.28963">
        <ele>113</ele>
        <time>2016-12-04T09:10:33.254Z</time>
      </trkpt>
      <trkpt lat="47.77512" lon="2.28966">
        <ele>113</ele>
        <time>2016-12-04T09:10:34.260Z</time>
      </trkpt>
      <trkpt lat="47.77512" lon="2.28966">
        <ele>113</ele>
        <time>2016-12-04T09:10:35.254Z</time>
      </trkpt>
      <trkpt lat="47.77523" lon="2.28969">
        <ele>113</ele>
        <time>2016-12-04T09:10:36.256Z</time>
      </trkpt>
      <trkpt lat="47.77523" lon="2.28969">
        <ele>113</ele>
        <time>2016-12-04T09:10:37.254Z</time>
      </trkpt>
      <trkpt lat="47.77533" lon="2.28971">
        <ele>113</ele>
        <time>2016-12-04T09:10:38.262Z</time>
      </trkpt>
      <trkpt lat="47.77533" lon="2.28971">
        <ele>113</ele>
        <time>2016-12-04T09:10:39.257Z</time>
      </trkpt>
      <trkpt lat="47.77544" lon="2.28973">
        <ele>113</ele>
        <time>2016-12-04T09:10:40.259Z</time>
      </trkpt>
      <trkpt lat="47.77544" lon="2.28973">
        <ele>113</ele>
        <time>2016-12-04T09:10:41.254Z</time>
      </trkpt>
      <trkpt lat="47.77555" lon="2.28975">
        <ele>113</ele>
        <time>2016-12-04T09:10:42.259Z</time>
      </trkpt>
      <trkpt lat="47.77555" lon="2.28975">
        <ele>113</ele>
        <time>2016-12-04T09:10:43.275Z</time>
      </trkpt>
      <trkpt lat="47.77566" lon="2.28977">
        <ele>112</ele>
        <time>2016-12-04T09:10:44.272Z</time>
      </trkpt>
      <trkpt lat="47.77566" lon="2.28977">
        <ele>112</ele>
        <time>2016-12-04T09:10:45.260Z</time>
      </trkpt>
      <trkpt lat="47.77577" lon="2.28979">
        <ele>112</ele>
        <time>2016-12-04T09:10:46.257Z</time>
      </trkpt>
      <trkpt lat="47.77577" lon="2.28979">
        <ele>112</ele>
        <time>2016-12-04T09:10:47.254Z</time>
      </trkpt>
      <trkpt lat="47.77588" lon="2.28982">
        <ele>112</ele>
        <time>2016-12-04T09:10:48.252Z</time>
      </trkpt>
      <trkpt lat="47.77593" lon="2.28982">
        <ele>112</ele>
        <time>2016-12-04T09:10:49.256Z</time>
      </trkpt>
      <trkpt lat="47.77593" lon="2.28982">
        <ele>112</ele>
        <time>2016-12-04T09:10:50.252Z</time>
      </trkpt>
      <trkpt lat="47.77603" lon="2.28986">
        <ele>112</ele>
        <time>2016-12-04T09:10:51.253Z</time>
      </trkpt>
      <trkpt lat="47.77603" lon="2.28986">
        <ele>112</ele>
        <time>2016-12-04T09:10:52.278Z</time>
      </trkpt>
      <trkpt lat="47.77612" lon="2.28992">
        <ele>112</ele>
        <time>2016-12-04T09:10:53.246Z</time>
      </trkpt>
      <trkpt lat="47.77616" lon="2.28994">
        <ele>111</ele>
        <time>2016-12-04T09:10:54.276Z</time>
      </trkpt>
      <trkpt lat="47.77616" lon="2.28994">
        <ele>111</ele>
        <time>2016-12-04T09:10:55.263Z</time>
      </trkpt>
      <trkpt lat="47.77625" lon="2.29">
        <ele>111</ele>
        <time>2016-12-04T09:10:56.260Z</time>
      </trkpt>
      <trkpt lat="47.77625" lon="2.29">
        <ele>111</ele>
        <time>2016-12-04T09:10:57.256Z</time>
      </trkpt>
      <trkpt lat="47.77633" lon="2.29008">
        <ele>111</ele>
        <time>2016-12-04T09:10:58.251Z</time>
      </trkpt>
      <trkpt lat="47.77638" lon="2.29012">
        <ele>111</ele>
        <time>2016-12-04T09:10:59.259Z</time>
      </trkpt>
      <trkpt lat="47.77638" lon="2.29012">
        <ele>111</ele>
        <time>2016-12-04T09:11:00.257Z</time>
      </trkpt>
      <trkpt lat="47.77646" lon="2.29019">
        <ele>111</ele>
        <time>2016-12-04T09:11:01.260Z</time>
      </trkpt>
      <trkpt lat="47.7765" lon="2.29022">
        <ele>110</ele>
        <time>2016-12-04T09:11:02.260Z</time>
      </trkpt>
      <trkpt lat="47.7765" lon="2.29022">
        <ele>110</ele>
        <time>2016-12-04T09:11:03.254Z</time>
      </trkpt>
      <trkpt lat="47.77659" lon="2.29029">
        <ele>110</ele>
        <time>2016-12-04T09:11:04.260Z</time>
      </trkpt>
      <trkpt lat="47.77659" lon="2.29029">
        <ele>110</ele>
        <time>2016-12-04T09:11:05.254Z</time>
      </trkpt>
      <trkpt lat="47.77668" lon="2.29037">
        <ele>110</ele>
        <time>2016-12-04T09:11:06.260Z</time>
      </trkpt>
      <trkpt lat="47.77672" lon="2.29041">
        <ele>110</ele>
        <time>2016-12-04T09:11:07.259Z</time>
      </trkpt>
      <trkpt lat="47.77672" lon="2.29041">
        <ele>110</ele>
        <time>2016-12-04T09:11:08.256Z</time>
      </trkpt>
      <trkpt lat="47.77681" lon="2.29048">
        <ele>110</ele>
        <time>2016-12-04T09:11:09.258Z</time>
      </trkpt>
      <trkpt lat="47.77685" lon="2.29052">
        <ele>110</ele>
        <time>2016-12-04T09:11:10.260Z</time>
      </trkpt>
      <trkpt lat="47.77685" lon="2.29052">
        <ele>110</ele>
        <time>2016-12-04T09:11:11.276Z</time>
      </trkpt>
      <trkpt lat="47.77693" lon="2.29059">
        <ele>110</ele>
        <time>2016-12-04T09:11:12.271Z</time>
      </trkpt>
      <trkpt lat="47.77693" lon="2.29059">
        <ele>110</ele>
        <time>2016-12-04T09:11:13.259Z</time>
      </trkpt>
      <trkpt lat="47.77702" lon="2.29066">
        <ele>110</ele>
        <time>2016-12-04T09:11:14.261Z</time>
      </trkpt>
      <trkpt lat="47.77702" lon="2.29066">
        <ele>110</ele>
        <time>2016-12-04T09:11:15.254Z</time>
      </trkpt>
      <trkpt lat="47.77711" lon="2.29073">
        <ele>110</ele>
        <time>2016-12-04T09:11:16.263Z</time>
      </trkpt>
      <trkpt lat="47.77715" lon="2.29076">
        <ele>109</ele>
        <time>2016-12-04T09:11:17.278Z</time>
      </trkpt>
      <trkpt lat="47.77719" lon="2.2908">
        <ele>109</ele>
        <time>2016-12-04T09:11:18.272Z</time>
      </trkpt>
      <trkpt lat="47.77719" lon="2.2908">
        <ele>109</ele>
        <time>2016-12-04T09:11:19.261Z</time>
      </trkpt>
      <trkpt lat="47.77727" lon="2.29088">
        <ele>109</ele>
        <time>2016-12-04T09:11:20.260Z</time>
      </trkpt>
      <trkpt lat="47.77727" lon="2.29088">
        <ele>109</ele>
        <time>2016-12-04T09:11:21.255Z</time>
      </trkpt>
      <trkpt lat="47.77736" lon="2.29095">
        <ele>109</ele>
        <time>2016-12-04T09:11:22.260Z</time>
      </trkpt>
      <trkpt lat="47.77736" lon="2.29095">
        <ele>109</ele>
        <time>2016-12-04T09:11:23.254Z</time>
      </trkpt>
      <trkpt lat="47.77745" lon="2.29102">
        <ele>109</ele>
        <time>2016-12-04T09:11:24.260Z</time>
      </trkpt>
      <trkpt lat="47.77745" lon="2.29102">
        <ele>109</ele>
        <time>2016-12-04T09:11:25.254Z</time>
      </trkpt>
      <trkpt lat="47.77754" lon="2.2911">
        <ele>109</ele>
        <time>2016-12-04T09:11:26.261Z</time>
      </trkpt>
      <trkpt lat="47.77754" lon="2.2911">
        <ele>109</ele>
        <time>2016-12-04T09:11:27.255Z</time>
      </trkpt>
      <trkpt lat="47.77764" lon="2.29118">
        <ele>109</ele>
        <time>2016-12-04T09:11:28.252Z</time>
      </trkpt>
      <trkpt lat="47.77769" lon="2.29122">
        <ele>109</ele>
        <time>2016-12-04T09:11:29.259Z</time>
      </trkpt>
      <trkpt lat="47.77774" lon="2.29126">
        <ele>109</ele>
        <time>2016-12-04T09:11:30.260Z</time>
      </trkpt>
      <trkpt lat="47.77774" lon="2.29126">
        <ele>109</ele>
        <time>2016-12-04T09:11:31.255Z</time>
      </trkpt>
      <trkpt lat="47.77783" lon="2.29132">
        <ele>109</ele>
        <time>2016-12-04T09:11:32.261Z</time>
      </trkpt>
      <trkpt lat="47.77783" lon="2.29132">
        <ele>109</ele>
        <time>2016-12-04T09:11:33.255Z</time>
      </trkpt>
      <trkpt lat="47.77792" lon="2.29139">
        <ele>108</ele>
        <time>2016-12-04T09:11:34.261Z</time>
      </trkpt>
      <trkpt lat="47.77796" lon="2.29143">
        <ele>108</ele>
        <time>2016-12-04T09:11:35.260Z</time>
      </trkpt>
      <trkpt lat="47.77796" lon="2.29143">
        <ele>108</ele>
        <time>2016-12-04T09:11:36.255Z</time>
      </trkpt>
      <trkpt lat="47.77805" lon="2.29151">
        <ele>108</ele>
        <time>2016-12-04T09:11:37.260Z</time>
      </trkpt>
      <trkpt lat="47.77805" lon="2.29151">
        <ele>108</ele>
        <time>2016-12-04T09:11:38.252Z</time>
      </trkpt>
      <trkpt lat="47.77814" lon="2.29159">
        <ele>108</ele>
        <time>2016-12-04T09:11:39.281Z</time>
      </trkpt>
      <trkpt lat="47.77819" lon="2.29162">
        <ele>108</ele>
        <time>2016-12-04T09:11:40.278Z</time>
      </trkpt>
      <trkpt lat="47.77819" lon="2.29162">
        <ele>108</ele>
        <time>2016-12-04T09:11:41.265Z</time>
      </trkpt>
      <trkpt lat="47.77827" lon="2.2917">
        <ele>108</ele>
        <time>2016-12-04T09:11:42.260Z</time>
      </trkpt>
      <trkpt lat="47.77827" lon="2.2917">
        <ele>108</ele>
        <time>2016-12-04T09:11:43.270Z</time>
      </trkpt>
      <trkpt lat="47.77836" lon="2.29177">
        <ele>108</ele>
        <time>2016-12-04T09:11:44.274Z</time>
      </trkpt>
      <trkpt lat="47.77836" lon="2.29177">
        <ele>108</ele>
        <time>2016-12-04T09:11:45.262Z</time>
      </trkpt>
      <trkpt lat="47.77846" lon="2.29183">
        <ele>108</ele>
        <time>2016-12-04T09:11:46.259Z</time>
      </trkpt>
      <trkpt lat="47.77846" lon="2.29183">
        <ele>108</ele>
        <time>2016-12-04T09:11:47.254Z</time>
      </trkpt>
      <trkpt lat="47.77854" lon="2.29191">
        <ele>109</ele>
        <time>2016-12-04T09:11:48.252Z</time>
      </trkpt>
      <trkpt lat="47.77858" lon="2.29195">
        <ele>109</ele>
        <time>2016-12-04T09:11:49.259Z</time>
      </trkpt>
      <trkpt lat="47.77862" lon="2.29199">
        <ele>109</ele>
        <time>2016-12-04T09:11:50.262Z</time>
      </trkpt>
      <trkpt lat="47.77862" lon="2.29199">
        <ele>109</ele>
        <time>2016-12-04T09:11:51.254Z</time>
      </trkpt>
      <trkpt lat="47.7787" lon="2.29209">
        <ele>109</ele>
        <time>2016-12-04T09:11:52.257Z</time>
      </trkpt>
      <trkpt lat="47.7787" lon="2.29209">
        <ele>109</ele>
        <time>2016-12-04T09:11:53.255Z</time>
      </trkpt>
      <trkpt lat="47.77875" lon="2.29221">
        <ele>109</ele>
        <time>2016-12-04T09:11:54.265Z</time>
      </trkpt>
      <trkpt lat="47.77875" lon="2.29221">
        <ele>109</ele>
        <time>2016-12-04T09:11:55.263Z</time>
      </trkpt>
      <trkpt lat="47.77877" lon="2.29236">
        <ele>108</ele>
        <time>2016-12-04T09:11:56.261Z</time>
      </trkpt>
      <trkpt lat="47.77876" lon="2.29244">
        <ele>108</ele>
        <time>2016-12-04T09:11:57.259Z</time>
      </trkpt>
      <trkpt lat="47.77876" lon="2.29244">
        <ele>108</ele>
        <time>2016-12-04T09:11:58.251Z</time>
      </trkpt>
      <trkpt lat="47.77876" lon="2.29259">
        <ele>108</ele>
        <time>2016-12-04T09:11:59.281Z</time>
      </trkpt>
      <trkpt lat="47.77878" lon="2.29266">
        <ele>108</ele>
        <time>2016-12-04T09:12:00.269Z</time>
      </trkpt>
      <trkpt lat="47.77878" lon="2.29266">
        <ele>108</ele>
        <time>2016-12-04T09:12:01.255Z</time>
      </trkpt>
      <trkpt lat="47.77886" lon="2.29276">
        <ele>108</ele>
        <time>2016-12-04T09:12:02.261Z</time>
      </trkpt>
      <trkpt lat="47.77886" lon="2.29276">
        <ele>108</ele>
        <time>2016-12-04T09:12:03.254Z</time>
      </trkpt>
      <trkpt lat="47.77895" lon="2.29282">
        <ele>108</ele>
        <time>2016-12-04T09:12:04.256Z</time>
      </trkpt>
      <trkpt lat="47.779" lon="2.29285">
        <ele>108</ele>
        <time>2016-12-04T09:12:05.260Z</time>
      </trkpt>
      <trkpt lat="47.779" lon="2.29285">
        <ele>108</ele>
        <time>2016-12-04T09:12:06.257Z</time>
      </trkpt>
      <trkpt lat="47.7791" lon="2.29288">
        <ele>108</ele>
        <time>2016-12-04T09:12:07.261Z</time>
      </trkpt>
      <trkpt lat="47.7791" lon="2.29288">
        <ele>108</ele>
        <time>2016-12-04T09:12:08.251Z</time>
      </trkpt>
      <trkpt lat="47.7792" lon="2.29291">
        <ele>108</ele>
        <time>2016-12-04T09:12:09.262Z</time>
      </trkpt>
      <trkpt lat="47.77924" lon="2.29293">
        <ele>108</ele>
        <time>2016-12-04T09:12:10.260Z</time>
      </trkpt>
      <trkpt lat="47.77924" lon="2.29293">
        <ele>108</ele>
        <time>2016-12-04T09:12:11.255Z</time>
      </trkpt>
      <trkpt lat="47.77933" lon="2.29299">
        <ele>109</ele>
        <time>2016-12-04T09:12:12.260Z</time>
      </trkpt>
      <trkpt lat="47.77933" lon="2.29299">
        <ele>109</ele>
        <time>2016-12-04T09:12:13.254Z</time>
      </trkpt>
      <trkpt lat="47.77941" lon="2.29309">
        <ele>109</ele>
        <time>2016-12-04T09:12:14.263Z</time>
      </trkpt>
      <trkpt lat="47.77941" lon="2.29309">
        <ele>109</ele>
        <time>2016-12-04T09:12:15.255Z</time>
      </trkpt>
      <trkpt lat="47.77946" lon="2.29321">
        <ele>109</ele>
        <time>2016-12-04T09:12:16.263Z</time>
      </trkpt>
      <trkpt lat="47.77949" lon="2.29326">
        <ele>109</ele>
        <time>2016-12-04T09:12:17.275Z</time>
      </trkpt>
      <trkpt lat="47.77949" lon="2.29326">
        <ele>109</ele>
        <time>2016-12-04T09:12:18.270Z</time>
      </trkpt>
      <trkpt lat="47.77958" lon="2.29333">
        <ele>108</ele>
        <time>2016-12-04T09:12:19.261Z</time>
      </trkpt>
      <trkpt lat="47.77962" lon="2.29337">
        <ele>108</ele>
        <time>2016-12-04T09:12:20.271Z</time>
      </trkpt>
      <trkpt lat="47.77962" lon="2.29337">
        <ele>108</ele>
        <time>2016-12-04T09:12:21.270Z</time>
      </trkpt>
      <trkpt lat="47.77971" lon="2.29344">
        <ele>108</ele>
        <time>2016-12-04T09:12:22.260Z</time>
      </trkpt>
      <trkpt lat="47.77976" lon="2.29348">
        <ele>108</ele>
        <time>2016-12-04T09:12:23.260Z</time>
      </trkpt>
      <trkpt lat="47.7798" lon="2.29352">
        <ele>108</ele>
        <time>2016-12-04T09:12:24.260Z</time>
      </trkpt>
      <trkpt lat="47.7798" lon="2.29352">
        <ele>108</ele>
        <time>2016-12-04T09:12:25.255Z</time>
      </trkpt>
      <trkpt lat="47.77989" lon="2.29359">
        <ele>108</ele>
        <time>2016-12-04T09:12:26.262Z</time>
      </trkpt>
      <trkpt lat="47.77989" lon="2.29359">
        <ele>108</ele>
        <time>2016-12-04T09:12:27.255Z</time>
      </trkpt>
      <trkpt lat="47.77997" lon="2.29367">
        <ele>108</ele>
        <time>2016-12-04T09:12:28.253Z</time>
      </trkpt>
      <trkpt lat="47.78001" lon="2.29371">
        <ele>108</ele>
        <time>2016-12-04T09:12:29.281Z</time>
      </trkpt>
      <trkpt lat="47.78005" lon="2.29376">
        <ele>108</ele>
        <time>2016-12-04T09:12:30.270Z</time>
      </trkpt>
      <trkpt lat="47.78005" lon="2.29376">
        <ele>108</ele>
        <time>2016-12-04T09:12:31.258Z</time>
      </trkpt>
      <trkpt lat="47.78013" lon="2.29383">
        <ele>108</ele>
        <time>2016-12-04T09:12:32.261Z</time>
      </trkpt>
      <trkpt lat="47.78013" lon="2.29383">
        <ele>108</ele>
        <time>2016-12-04T09:12:33.255Z</time>
      </trkpt>
      <trkpt lat="47.78022" lon="2.2939">
        <ele>108</ele>
        <time>2016-12-04T09:12:34.261Z</time>
      </trkpt>
      <trkpt lat="47.78022" lon="2.2939">
        <ele>108</ele>
        <time>2016-12-04T09:12:35.255Z</time>
      </trkpt>
      <trkpt lat="47.7803" lon="2.29397">
        <ele>108</ele>
        <time>2016-12-04T09:12:36.261Z</time>
      </trkpt>
      <trkpt lat="47.7803" lon="2.29397">
        <ele>108</ele>
        <time>2016-12-04T09:12:37.255Z</time>
      </trkpt>
      <trkpt lat="47.78038" lon="2.29404">
        <ele>108</ele>
        <time>2016-12-04T09:12:38.254Z</time>
      </trkpt>
      <trkpt lat="47.78038" lon="2.29404">
        <ele>108</ele>
        <time>2016-12-04T09:12:39.255Z</time>
      </trkpt>
      <trkpt lat="47.78046" lon="2.29412">
        <ele>108</ele>
        <time>2016-12-04T09:12:40.260Z</time>
      </trkpt>
      <trkpt lat="47.78046" lon="2.29412">
        <ele>108</ele>
        <time>2016-12-04T09:12:41.252Z</time>
      </trkpt>
      <trkpt lat="47.78054" lon="2.2942">
        <ele>108</ele>
        <time>2016-12-04T09:12:42.249Z</time>
      </trkpt>
      <trkpt lat="47.78054" lon="2.2942">
        <ele>108</ele>
        <time>2016-12-04T09:12:43.255Z</time>
      </trkpt>
      <trkpt lat="47.78062" lon="2.29428">
        <ele>108</ele>
        <time>2016-12-04T09:12:44.262Z</time>
      </trkpt>
      <trkpt lat="47.78062" lon="2.29428">
        <ele>108</ele>
        <time>2016-12-04T09:12:45.254Z</time>
      </trkpt>
      <trkpt lat="47.78071" lon="2.29436">
        <ele>107</ele>
        <time>2016-12-04T09:12:46.261Z</time>
      </trkpt>
      <trkpt lat="47.78071" lon="2.29436">
        <ele>107</ele>
        <time>2016-12-04T09:12:47.256Z</time>
      </trkpt>
      <trkpt lat="47.78079" lon="2.29443">
        <ele>107</ele>
        <time>2016-12-04T09:12:48.261Z</time>
      </trkpt>
      <trkpt lat="47.78079" lon="2.29443">
        <ele>107</ele>
        <time>2016-12-04T09:12:49.255Z</time>
      </trkpt>
      <trkpt lat="47.78088" lon="2.2945">
        <ele>107</ele>
        <time>2016-12-04T09:12:50.261Z</time>
      </trkpt>
      <trkpt lat="47.78088" lon="2.2945">
        <ele>107</ele>
        <time>2016-12-04T09:12:51.251Z</time>
      </trkpt>
      <trkpt lat="47.78097" lon="2.29456">
        <ele>107</ele>
        <time>2016-12-04T09:12:52.261Z</time>
      </trkpt>
      <trkpt lat="47.78101" lon="2.2946">
        <ele>107</ele>
        <time>2016-12-04T09:12:53.261Z</time>
      </trkpt>
      <trkpt lat="47.78101" lon="2.2946">
        <ele>107</ele>
        <time>2016-12-04T09:12:54.258Z</time>
      </trkpt>
      <trkpt lat="47.7811" lon="2.29466">
        <ele>107</ele>
        <time>2016-12-04T09:12:55.261Z</time>
      </trkpt>
      <trkpt lat="47.78114" lon="2.2947">
        <ele>107</ele>
        <time>2016-12-04T09:12:56.261Z</time>
      </trkpt>
      <trkpt lat="47.78114" lon="2.2947">
        <ele>107</ele>
        <time>2016-12-04T09:12:57.255Z</time>
      </trkpt>
      <trkpt lat="47.78123" lon="2.29476">
        <ele>107</ele>
        <time>2016-12-04T09:12:58.260Z</time>
      </trkpt>
      <trkpt lat="47.78123" lon="2.29476">
        <ele>107</ele>
        <time>2016-12-04T09:12:59.255Z</time>
      </trkpt>
      <trkpt lat="47.78132" lon="2.29484">
        <ele>107</ele>
        <time>2016-12-04T09:13:00.260Z</time>
      </trkpt>
      <trkpt lat="47.78132" lon="2.29484">
        <ele>107</ele>
        <time>2016-12-04T09:13:01.271Z</time>
      </trkpt>
      <trkpt lat="47.7814" lon="2.29492">
        <ele>107</ele>
        <time>2016-12-04T09:13:02.260Z</time>
      </trkpt>
      <trkpt lat="47.78143" lon="2.29497">
        <ele>107</ele>
        <time>2016-12-04T09:13:03.260Z</time>
      </trkpt>
      <trkpt lat="47.78147" lon="2.29502">
        <ele>107</ele>
        <time>2016-12-04T09:13:04.261Z</time>
      </trkpt>
      <trkpt lat="47.78147" lon="2.29502">
        <ele>107</ele>
        <time>2016-12-04T09:13:05.256Z</time>
      </trkpt>
      <trkpt lat="47.78154" lon="2.29512">
        <ele>107</ele>
        <time>2016-12-04T09:13:06.259Z</time>
      </trkpt>
      <trkpt lat="47.78154" lon="2.29512">
        <ele>107</ele>
        <time>2016-12-04T09:13:07.254Z</time>
      </trkpt>
      <trkpt lat="47.78161" lon="2.29522">
        <ele>107</ele>
        <time>2016-12-04T09:13:08.282Z</time>
      </trkpt>
      <trkpt lat="47.78164" lon="2.29527">
        <ele>107</ele>
        <time>2016-12-04T09:13:09.271Z</time>
      </trkpt>
      <trkpt lat="47.78168" lon="2.29532">
        <ele>107</ele>
        <time>2016-12-04T09:13:10.260Z</time>
      </trkpt>
      <trkpt lat="47.78168" lon="2.29532">
        <ele>107</ele>
        <time>2016-12-04T09:13:11.256Z</time>
      </trkpt>
      <trkpt lat="47.78176" lon="2.2954">
        <ele>107</ele>
        <time>2016-12-04T09:13:12.261Z</time>
      </trkpt>
      <trkpt lat="47.78176" lon="2.2954">
        <ele>107</ele>
        <time>2016-12-04T09:13:13.256Z</time>
      </trkpt>
      <trkpt lat="47.78184" lon="2.29548">
        <ele>107</ele>
        <time>2016-12-04T09:13:14.261Z</time>
      </trkpt>
      <trkpt lat="47.78184" lon="2.29548">
        <ele>107</ele>
        <time>2016-12-04T09:13:15.258Z</time>
      </trkpt>
      <trkpt lat="47.78192" lon="2.29554">
        <ele>107</ele>
        <time>2016-12-04T09:13:16.256Z</time>
      </trkpt>
      <trkpt lat="47.78195" lon="2.29558">
        <ele>107</ele>
        <time>2016-12-04T09:13:17.243Z</time>
      </trkpt>
      <trkpt lat="47.78195" lon="2.29558">
        <ele>107</ele>
        <time>2016-12-04T09:13:18.249Z</time>
      </trkpt>
      <trkpt lat="47.78203" lon="2.29564">
        <ele>107</ele>
        <time>2016-12-04T09:13:19.257Z</time>
      </trkpt>
      <trkpt lat="47.78207" lon="2.29567">
        <ele>107</ele>
        <time>2016-12-04T09:13:20.261Z</time>
      </trkpt>
      <trkpt lat="47.78207" lon="2.29567">
        <ele>107</ele>
        <time>2016-12-04T09:13:21.256Z</time>
      </trkpt>
      <trkpt lat="47.78216" lon="2.29573">
        <ele>107</ele>
        <time>2016-12-04T09:13:22.260Z</time>
      </trkpt>
      <trkpt lat="47.7822" lon="2.29576">
        <ele>107</ele>
        <time>2016-12-04T09:13:23.260Z</time>
      </trkpt>
      <trkpt lat="47.7822" lon="2.29576">
        <ele>107</ele>
        <time>2016-12-04T09:13:24.258Z</time>
      </trkpt>
      <trkpt lat="47.78228" lon="2.29582">
        <ele>107</ele>
        <time>2016-12-04T09:13:25.261Z</time>
      </trkpt>
      <trkpt lat="47.78232" lon="2.29585">
        <ele>107</ele>
        <time>2016-12-04T09:13:26.262Z</time>
      </trkpt>
      <trkpt lat="47.78232" lon="2.29585">
        <ele>107</ele>
        <time>2016-12-04T09:13:27.258Z</time>
      </trkpt>
      <trkpt lat="47.78239" lon="2.29592">
        <ele>107</ele>
        <time>2016-12-04T09:13:28.261Z</time>
      </trkpt>
      <trkpt lat="47.78242" lon="2.29595">
        <ele>107</ele>
        <time>2016-12-04T09:13:29.262Z</time>
      </trkpt>
      <trkpt lat="47.78242" lon="2.29595">
        <ele>107</ele>
        <time>2016-12-04T09:13:30.256Z</time>
      </trkpt>
      <trkpt lat="47.78249" lon="2.29599">
        <ele>107</ele>
        <time>2016-12-04T09:13:31.264Z</time>
      </trkpt>
      <trkpt lat="47.78252" lon="2.296">
        <ele>107</ele>
        <time>2016-12-04T09:13:32.262Z</time>
      </trkpt>
      <trkpt lat="47.78252" lon="2.296">
        <ele>107</ele>
        <time>2016-12-04T09:13:33.258Z</time>
      </trkpt>
      <trkpt lat="47.78259" lon="2.29599">
        <ele>107</ele>
        <time>2016-12-04T09:13:34.261Z</time>
      </trkpt>
      <trkpt lat="47.78259" lon="2.29599">
        <ele>107</ele>
        <time>2016-12-04T09:13:35.256Z</time>
      </trkpt>
      <trkpt lat="47.78265" lon="2.29592">
        <ele>106</ele>
        <time>2016-12-04T09:13:36.261Z</time>
      </trkpt>
      <trkpt lat="47.78265" lon="2.29592">
        <ele>106</ele>
        <time>2016-12-04T09:13:37.258Z</time>
      </trkpt>
      <trkpt lat="47.78267" lon="2.2958">
        <ele>107</ele>
        <time>2016-12-04T09:13:38.262Z</time>
      </trkpt>
      <trkpt lat="47.78267" lon="2.2958">
        <ele>107</ele>
        <time>2016-12-04T09:13:39.255Z</time>
      </trkpt>
      <trkpt lat="47.78267" lon="2.29568">
        <ele>107</ele>
        <time>2016-12-04T09:13:40.260Z</time>
      </trkpt>
      <trkpt lat="47.78267" lon="2.29568">
        <ele>107</ele>
        <time>2016-12-04T09:13:41.258Z</time>
      </trkpt>
      <trkpt lat="47.78267" lon="2.29555">
        <ele>107</ele>
        <time>2016-12-04T09:13:42.266Z</time>
      </trkpt>
      <trkpt lat="47.78267" lon="2.29555">
        <ele>107</ele>
        <time>2016-12-04T09:13:43.258Z</time>
      </trkpt>
      <trkpt lat="47.78267" lon="2.29541">
        <ele>107</ele>
        <time>2016-12-04T09:13:44.262Z</time>
      </trkpt>
      <trkpt lat="47.78267" lon="2.29535">
        <ele>107</ele>
        <time>2016-12-04T09:13:45.261Z</time>
      </trkpt>
      <trkpt lat="47.78268" lon="2.29528">
        <ele>107</ele>
        <time>2016-12-04T09:13:46.261Z</time>
      </trkpt>
      <trkpt lat="47.78268" lon="2.29528">
        <ele>107</ele>
        <time>2016-12-04T09:13:47.259Z</time>
      </trkpt>
      <trkpt lat="47.78269" lon="2.29513">
        <ele>107</ele>
        <time>2016-12-04T09:13:48.261Z</time>
      </trkpt>
      <trkpt lat="47.78269" lon="2.29506">
        <ele>107</ele>
        <time>2016-12-04T09:13:49.282Z</time>
      </trkpt>
      <trkpt lat="47.7827" lon="2.29498">
        <ele>107</ele>
        <time>2016-12-04T09:13:50.272Z</time>
      </trkpt>
      <trkpt lat="47.7827" lon="2.29498">
        <ele>107</ele>
        <time>2016-12-04T09:13:51.260Z</time>
      </trkpt>
      <trkpt lat="47.7827" lon="2.29483">
        <ele>108</ele>
        <time>2016-12-04T09:13:52.261Z</time>
      </trkpt>
      <trkpt lat="47.7827" lon="2.29483">
        <ele>108</ele>
        <time>2016-12-04T09:13:53.256Z</time>
      </trkpt>
      <trkpt lat="47.78271" lon="2.29468">
        <ele>108</ele>
        <time>2016-12-04T09:13:54.262Z</time>
      </trkpt>
      <trkpt lat="47.78271" lon="2.29468">
        <ele>108</ele>
        <time>2016-12-04T09:13:55.256Z</time>
      </trkpt>
      <trkpt lat="47.78271" lon="2.29453">
        <ele>108</ele>
        <time>2016-12-04T09:13:56.262Z</time>
      </trkpt>
      <trkpt lat="47.78271" lon="2.29453">
        <ele>108</ele>
        <time>2016-12-04T09:13:57.258Z</time>
      </trkpt>
      <trkpt lat="47.78271" lon="2.29437">
        <ele>108</ele>
        <time>2016-12-04T09:13:58.261Z</time>
      </trkpt>
      <trkpt lat="47.78271" lon="2.29429">
        <ele>108</ele>
        <time>2016-12-04T09:13:59.261Z</time>
      </trkpt>
      <trkpt lat="47.78271" lon="2.29429">
        <ele>108</ele>
        <time>2016-12-04T09:14:00.256Z</time>
      </trkpt>
      <trkpt lat="47.78269" lon="2.29412">
        <ele>108</ele>
        <time>2016-12-04T09:14:01.261Z</time>
      </trkpt>
      <trkpt lat="47.78269" lon="2.29404">
        <ele>108</ele>
        <time>2016-12-04T09:14:02.262Z</time>
      </trkpt>
      <trkpt lat="47.78269" lon="2.29404">
        <ele>108</ele>
        <time>2016-12-04T09:14:03.258Z</time>
      </trkpt>
      <trkpt lat="47.78268" lon="2.29387">
        <ele>107</ele>
        <time>2016-12-04T09:14:04.261Z</time>
      </trkpt>
      <trkpt lat="47.78268" lon="2.29387">
        <ele>107</ele>
        <time>2016-12-04T09:14:05.255Z</time>
      </trkpt>
      <trkpt lat="47.78266" lon="2.29368">
        <ele>108</ele>
        <time>2016-12-04T09:14:06.261Z</time>
      </trkpt>
      <trkpt lat="47.78266" lon="2.29368">
        <ele>108</ele>
        <time>2016-12-04T09:14:07.258Z</time>
      </trkpt>
      <trkpt lat="47.78265" lon="2.2935">
        <ele>108</ele>
        <time>2016-12-04T09:14:08.263Z</time>
      </trkpt>
      <trkpt lat="47.78265" lon="2.2935">
        <ele>108</ele>
        <time>2016-12-04T09:14:09.255Z</time>
      </trkpt>
      <trkpt lat="47.78264" lon="2.29332">
        <ele>108</ele>
        <time>2016-12-04T09:14:10.262Z</time>
      </trkpt>
      <trkpt lat="47.78264" lon="2.29332">
        <ele>108</ele>
        <time>2016-12-04T09:14:11.258Z</time>
      </trkpt>
      <trkpt lat="47.78263" lon="2.29314">
        <ele>108</ele>
        <time>2016-12-04T09:14:12.261Z</time>
      </trkpt>
      <trkpt lat="47.78263" lon="2.29314">
        <ele>108</ele>
        <time>2016-12-04T09:14:13.258Z</time>
      </trkpt>
      <trkpt lat="47.78262" lon="2.29295">
        <ele>108</ele>
        <time>2016-12-04T09:14:14.259Z</time>
      </trkpt>
      <trkpt lat="47.78262" lon="2.29286">
        <ele>108</ele>
        <time>2016-12-04T09:14:15.260Z</time>
      </trkpt>
      <trkpt lat="47.78262" lon="2.29286">
        <ele>108</ele>
        <time>2016-12-04T09:14:16.264Z</time>
      </trkpt>
      <trkpt lat="47.78261" lon="2.29268">
        <ele>108</ele>
        <time>2016-12-04T09:14:17.278Z</time>
      </trkpt>
      <trkpt lat="47.78261" lon="2.29268">
        <ele>108</ele>
        <time>2016-12-04T09:14:18.265Z</time>
      </trkpt>
      <trkpt lat="47.7826" lon="2.2925">
        <ele>108</ele>
        <time>2016-12-04T09:14:19.261Z</time>
      </trkpt>
      <trkpt lat="47.78259" lon="2.29241">
        <ele>108</ele>
        <time>2016-12-04T09:14:20.262Z</time>
      </trkpt>
      <trkpt lat="47.78259" lon="2.29241">
        <ele>108</ele>
        <time>2016-12-04T09:14:21.259Z</time>
      </trkpt>
      <trkpt lat="47.78258" lon="2.29222">
        <ele>108</ele>
        <time>2016-12-04T09:14:22.259Z</time>
      </trkpt>
      <trkpt lat="47.78257" lon="2.29213">
        <ele>108</ele>
        <time>2016-12-04T09:14:23.261Z</time>
      </trkpt>
      <trkpt lat="47.78257" lon="2.29213">
        <ele>108</ele>
        <time>2016-12-04T09:14:24.250Z</time>
      </trkpt>
      <trkpt lat="47.78256" lon="2.29194">
        <ele>108</ele>
        <time>2016-12-04T09:14:25.260Z</time>
      </trkpt>
      <trkpt lat="47.78255" lon="2.29184">
        <ele>108</ele>
        <time>2016-12-04T09:14:26.262Z</time>
      </trkpt>
      <trkpt lat="47.78255" lon="2.29175">
        <ele>108</ele>
        <time>2016-12-04T09:14:27.281Z</time>
      </trkpt>
      <trkpt lat="47.78255" lon="2.29175">
        <ele>108</ele>
        <time>2016-12-04T09:14:28.265Z</time>
      </trkpt>
      <trkpt lat="47.78253" lon="2.29155">
        <ele>108</ele>
        <time>2016-12-04T09:14:29.271Z</time>
      </trkpt>
      <trkpt lat="47.78253" lon="2.29146">
        <ele>108</ele>
        <time>2016-12-04T09:14:30.264Z</time>
      </trkpt>
      <trkpt lat="47.78253" lon="2.29146">
        <ele>108</ele>
        <time>2016-12-04T09:14:31.258Z</time>
      </trkpt>
      <trkpt lat="47.78251" lon="2.29126">
        <ele>108</ele>
        <time>2016-12-04T09:14:32.261Z</time>
      </trkpt>
      <trkpt lat="47.78251" lon="2.29126">
        <ele>108</ele>
        <time>2016-12-04T09:14:33.256Z</time>
      </trkpt>
      <trkpt lat="47.78251" lon="2.29107">
        <ele>108</ele>
        <time>2016-12-04T09:14:34.279Z</time>
      </trkpt>
      <trkpt lat="47.7825" lon="2.29097">
        <ele>108</ele>
        <time>2016-12-04T09:14:35.272Z</time>
      </trkpt>
      <trkpt lat="47.7825" lon="2.29097">
        <ele>108</ele>
        <time>2016-12-04T09:14:36.260Z</time>
      </trkpt>
      <trkpt lat="47.78249" lon="2.29077">
        <ele>108</ele>
        <time>2016-12-04T09:14:37.260Z</time>
      </trkpt>
      <trkpt lat="47.78249" lon="2.29077">
        <ele>108</ele>
        <time>2016-12-04T09:14:38.264Z</time>
      </trkpt>
      <trkpt lat="47.78248" lon="2.29057">
        <ele>108</ele>
        <time>2016-12-04T09:14:39.261Z</time>
      </trkpt>
      <trkpt lat="47.78247" lon="2.29047">
        <ele>108</ele>
        <time>2016-12-04T09:14:40.261Z</time>
      </trkpt>
      <trkpt lat="47.78247" lon="2.29047">
        <ele>108</ele>
        <time>2016-12-04T09:14:41.256Z</time>
      </trkpt>
      <trkpt lat="47.78245" lon="2.29027">
        <ele>107</ele>
        <time>2016-12-04T09:14:42.253Z</time>
      </trkpt>
      <trkpt lat="47.78245" lon="2.29017">
        <ele>107</ele>
        <time>2016-12-04T09:14:43.261Z</time>
      </trkpt>
      <trkpt lat="47.78244" lon="2.29007">
        <ele>107</ele>
        <time>2016-12-04T09:14:44.262Z</time>
      </trkpt>
      <trkpt lat="47.78244" lon="2.29007">
        <ele>107</ele>
        <time>2016-12-04T09:14:45.256Z</time>
      </trkpt>
      <trkpt lat="47.78243" lon="2.28987">
        <ele>107</ele>
        <time>2016-12-04T09:14:46.261Z</time>
      </trkpt>
      <trkpt lat="47.78243" lon="2.28987">
        <ele>107</ele>
        <time>2016-12-04T09:14:47.258Z</time>
      </trkpt>
      <trkpt lat="47.78241" lon="2.28967">
        <ele>107</ele>
        <time>2016-12-04T09:14:48.262Z</time>
      </trkpt>
      <trkpt lat="47.78241" lon="2.28956">
        <ele>107</ele>
        <time>2016-12-04T09:14:49.261Z</time>
      </trkpt>
      <trkpt lat="47.7824" lon="2.28946">
        <ele>107</ele>
        <time>2016-12-04T09:14:50.263Z</time>
      </trkpt>
      <trkpt lat="47.7824" lon="2.28946">
        <ele>107</ele>
        <time>2016-12-04T09:14:51.258Z</time>
      </trkpt>
      <trkpt lat="47.78239" lon="2.28926">
        <ele>107</ele>
        <time>2016-12-04T09:14:52.265Z</time>
      </trkpt>
      <trkpt lat="47.78238" lon="2.28916">
        <ele>107</ele>
        <time>2016-12-04T09:14:53.261Z</time>
      </trkpt>
      <trkpt lat="47.78238" lon="2.28916">
        <ele>107</ele>
        <time>2016-12-04T09:14:54.260Z</time>
      </trkpt>
      <trkpt lat="47.78237" lon="2.28896">
        <ele>107</ele>
        <time>2016-12-04T09:14:55.261Z</time>
      </trkpt>
      <trkpt lat="47.78237" lon="2.28886">
        <ele>107</ele>
        <time>2016-12-04T09:14:56.263Z</time>
      </trkpt>
      <trkpt lat="47.78237" lon="2.28886">
        <ele>107</ele>
        <time>2016-12-04T09:14:57.271Z</time>
      </trkpt>
      <trkpt lat="47.78236" lon="2.28865">
        <ele>107</ele>
        <time>2016-12-04T09:14:58.265Z</time>
      </trkpt>
      <trkpt lat="47.78235" lon="2.28855">
        <ele>107</ele>
        <time>2016-12-04T09:14:59.262Z</time>
      </trkpt>
      <trkpt lat="47.78235" lon="2.28844">
        <ele>107</ele>
        <time>2016-12-04T09:15:00.262Z</time>
      </trkpt>
      <trkpt lat="47.78235" lon="2.28844">
        <ele>107</ele>
        <time>2016-12-04T09:15:01.256Z</time>
      </trkpt>
      <trkpt lat="47.78234" lon="2.28823">
        <ele>107</ele>
        <time>2016-12-04T09:15:02.271Z</time>
      </trkpt>
      <trkpt lat="47.78234" lon="2.28823">
        <ele>107</ele>
        <time>2016-12-04T09:15:03.259Z</time>
      </trkpt>
      <trkpt lat="47.78232" lon="2.28802">
        <ele>106</ele>
        <time>2016-12-04T09:15:04.262Z</time>
      </trkpt>
      <trkpt lat="47.78232" lon="2.28802">
        <ele>106</ele>
        <time>2016-12-04T09:15:05.256Z</time>
      </trkpt>
      <trkpt lat="47.78231" lon="2.2878">
        <ele>106</ele>
        <time>2016-12-04T09:15:06.261Z</time>
      </trkpt>
      <trkpt lat="47.78231" lon="2.2878">
        <ele>106</ele>
        <time>2016-12-04T09:15:07.257Z</time>
      </trkpt>
      <trkpt lat="47.7823" lon="2.28759">
        <ele>106</ele>
        <time>2016-12-04T09:15:08.262Z</time>
      </trkpt>
      <trkpt lat="47.7823" lon="2.28759">
        <ele>106</ele>
        <time>2016-12-04T09:15:09.257Z</time>
      </trkpt>
      <trkpt lat="47.78228" lon="2.28738">
        <ele>106</ele>
        <time>2016-12-04T09:15:10.262Z</time>
      </trkpt>
      <trkpt lat="47.78228" lon="2.28738">
        <ele>106</ele>
        <time>2016-12-04T09:15:11.256Z</time>
      </trkpt>
      <trkpt lat="47.78223" lon="2.28718">
        <ele>106</ele>
        <time>2016-12-04T09:15:12.261Z</time>
      </trkpt>
      <trkpt lat="47.78223" lon="2.28718">
        <ele>106</ele>
        <time>2016-12-04T09:15:13.257Z</time>
      </trkpt>
      <trkpt lat="47.78218" lon="2.287">
        <ele>106</ele>
        <time>2016-12-04T09:15:14.263Z</time>
      </trkpt>
      <trkpt lat="47.78218" lon="2.287">
        <ele>106</ele>
        <time>2016-12-04T09:15:15.257Z</time>
      </trkpt>
      <trkpt lat="47.78211" lon="2.28682">
        <ele>106</ele>
        <time>2016-12-04T09:15:16.268Z</time>
      </trkpt>
      <trkpt lat="47.78208" lon="2.28673">
        <ele>105</ele>
        <time>2016-12-04T09:15:17.254Z</time>
      </trkpt>
      <trkpt lat="47.78208" lon="2.28673">
        <ele>105</ele>
        <time>2016-12-04T09:15:18.282Z</time>
      </trkpt>
      <trkpt lat="47.78202" lon="2.28655">
        <ele>105</ele>
        <time>2016-12-04T09:15:19.262Z</time>
      </trkpt>
      <trkpt lat="47.782" lon="2.28647">
        <ele>105</ele>
        <time>2016-12-04T09:15:20.263Z</time>
      </trkpt>
      <trkpt lat="47.782" lon="2.28647">
        <ele>105</ele>
        <time>2016-12-04T09:15:21.267Z</time>
      </trkpt>
      <trkpt lat="47.78194" lon="2.28631">
        <ele>105</ele>
        <time>2016-12-04T09:15:22.261Z</time>
      </trkpt>
      <trkpt lat="47.78194" lon="2.28631">
        <ele>105</ele>
        <time>2016-12-04T09:15:23.257Z</time>
      </trkpt>
      <trkpt lat="47.78189" lon="2.28614">
        <ele>105</ele>
        <time>2016-12-04T09:15:24.262Z</time>
      </trkpt>
      <trkpt lat="47.78189" lon="2.28614">
        <ele>105</ele>
        <time>2016-12-04T09:15:25.257Z</time>
      </trkpt>
      <trkpt lat="47.78183" lon="2.28597">
        <ele>106</ele>
        <time>2016-12-04T09:15:26.260Z</time>
      </trkpt>
      <trkpt lat="47.78183" lon="2.28597">
        <ele>106</ele>
        <time>2016-12-04T09:15:27.257Z</time>
      </trkpt>
      <trkpt lat="47.78174" lon="2.28584">
        <ele>107</ele>
        <time>2016-12-04T09:15:28.262Z</time>
      </trkpt>
      <trkpt lat="47.7817" lon="2.28579">
        <ele>108</ele>
        <time>2016-12-04T09:15:29.262Z</time>
      </trkpt>
      <trkpt lat="47.7817" lon="2.28579">
        <ele>108</ele>
        <time>2016-12-04T09:15:30.257Z</time>
      </trkpt>
      <trkpt lat="47.7816" lon="2.28572">
        <ele>108</ele>
        <time>2016-12-04T09:15:31.261Z</time>
      </trkpt>
      <trkpt lat="47.78155" lon="2.28569">
        <ele>109</ele>
        <time>2016-12-04T09:15:32.263Z</time>
      </trkpt>
      <trkpt lat="47.78155" lon="2.28569">
        <ele>109</ele>
        <time>2016-12-04T09:15:33.256Z</time>
      </trkpt>
      <trkpt lat="47.78144" lon="2.28564">
        <ele>109</ele>
        <time>2016-12-04T09:15:34.263Z</time>
      </trkpt>
      <trkpt lat="47.78144" lon="2.28564">
        <ele>109</ele>
        <time>2016-12-04T09:15:35.257Z</time>
      </trkpt>
      <trkpt lat="47.78133" lon="2.28558">
        <ele>109</ele>
        <time>2016-12-04T09:15:36.261Z</time>
      </trkpt>
      <trkpt lat="47.78128" lon="2.28554">
        <ele>109</ele>
        <time>2016-12-04T09:15:37.262Z</time>
      </trkpt>
      <trkpt lat="47.78128" lon="2.28554">
        <ele>109</ele>
        <time>2016-12-04T09:15:38.257Z</time>
      </trkpt>
      <trkpt lat="47.78117" lon="2.28547">
        <ele>109</ele>
        <time>2016-12-04T09:15:39.261Z</time>
      </trkpt>
      <trkpt lat="47.78111" lon="2.28543">
        <ele>109</ele>
        <time>2016-12-04T09:15:40.261Z</time>
      </trkpt>
      <trkpt lat="47.78111" lon="2.28543">
        <ele>109</ele>
        <time>2016-12-04T09:15:41.257Z</time>
      </trkpt>
      <trkpt lat="47.78101" lon="2.28537">
        <ele>110</ele>
        <time>2016-12-04T09:15:42.261Z</time>
      </trkpt>
      <trkpt lat="47.78095" lon="2.28534">
        <ele>110</ele>
        <time>2016-12-04T09:15:43.266Z</time>
      </trkpt>
      <trkpt lat="47.7809" lon="2.2853">
        <ele>111</ele>
        <time>2016-12-04T09:15:44.261Z</time>
      </trkpt>
      <trkpt lat="47.7809" lon="2.2853">
        <ele>111</ele>
        <time>2016-12-04T09:15:45.257Z</time>
      </trkpt>
      <trkpt lat="47.7808" lon="2.28523">
        <ele>111</ele>
        <time>2016-12-04T09:15:46.262Z</time>
      </trkpt>
      <trkpt lat="47.7808" lon="2.28523">
        <ele>111</ele>
        <time>2016-12-04T09:15:47.257Z</time>
      </trkpt>
      <trkpt lat="47.7807" lon="2.28518">
        <ele>112</ele>
        <time>2016-12-04T09:15:48.262Z</time>
      </trkpt>
      <trkpt lat="47.7807" lon="2.28518">
        <ele>112</ele>
        <time>2016-12-04T09:15:49.255Z</time>
      </trkpt>
      <trkpt lat="47.7806" lon="2.28512">
        <ele>112</ele>
        <time>2016-12-04T09:15:50.262Z</time>
      </trkpt>
      <trkpt lat="47.7806" lon="2.28512">
        <ele>112</ele>
        <time>2016-12-04T09:15:51.257Z</time>
      </trkpt>
      <trkpt lat="47.7805" lon="2.28507">
        <ele>113</ele>
        <time>2016-12-04T09:15:52.260Z</time>
      </trkpt>
      <trkpt lat="47.78045" lon="2.28504">
        <ele>113</ele>
        <time>2016-12-04T09:15:53.261Z</time>
      </trkpt>
      <trkpt lat="47.78045" lon="2.28504">
        <ele>113</ele>
        <time>2016-12-04T09:15:54.265Z</time>
      </trkpt>
      <trkpt lat="47.78035" lon="2.28499">
        <ele>113</ele>
        <time>2016-12-04T09:15:55.262Z</time>
      </trkpt>
      <trkpt lat="47.7803" lon="2.28496">
        <ele>113</ele>
        <time>2016-12-04T09:15:56.263Z</time>
      </trkpt>
      <trkpt lat="47.7803" lon="2.28496">
        <ele>113</ele>
        <time>2016-12-04T09:15:57.258Z</time>
      </trkpt>
      <trkpt lat="47.7802" lon="2.28489">
        <ele>112</ele>
        <time>2016-12-04T09:15:58.259Z</time>
      </trkpt>
      <trkpt lat="47.7802" lon="2.28489">
        <ele>112</ele>
        <time>2016-12-04T09:15:59.257Z</time>
      </trkpt>
      <trkpt lat="47.7801" lon="2.28483">
        <ele>112</ele>
        <time>2016-12-04T09:16:00.262Z</time>
      </trkpt>
      <trkpt lat="47.7801" lon="2.28483">
        <ele>112</ele>
        <time>2016-12-04T09:16:01.257Z</time>
      </trkpt>
      <trkpt lat="47.78001" lon="2.28474">
        <ele>112</ele>
        <time>2016-12-04T09:16:02.263Z</time>
      </trkpt>
      <trkpt lat="47.78001" lon="2.28474">
        <ele>112</ele>
        <time>2016-12-04T09:16:03.262Z</time>
      </trkpt>
      <trkpt lat="47.77993" lon="2.28464">
        <ele>112</ele>
        <time>2016-12-04T09:16:04.262Z</time>
      </trkpt>
      <trkpt lat="47.77993" lon="2.28464">
        <ele>112</ele>
        <time>2016-12-04T09:16:05.257Z</time>
      </trkpt>
      <trkpt lat="47.77984" lon="2.28454">
        <ele>113</ele>
        <time>2016-12-04T09:16:06.260Z</time>
      </trkpt>
      <trkpt lat="47.77984" lon="2.28454">
        <ele>113</ele>
        <time>2016-12-04T09:16:07.258Z</time>
      </trkpt>
      <trkpt lat="47.77975" lon="2.28446">
        <ele>113</ele>
        <time>2016-12-04T09:16:08.253Z</time>
      </trkpt>
      <trkpt lat="47.77971" lon="2.28441">
        <ele>113</ele>
        <time>2016-12-04T09:16:09.262Z</time>
      </trkpt>
      <trkpt lat="47.77967" lon="2.28437">
        <ele>113</ele>
        <time>2016-12-04T09:16:10.262Z</time>
      </trkpt>
      <trkpt lat="47.77967" lon="2.28437">
        <ele>113</ele>
        <time>2016-12-04T09:16:11.275Z</time>
      </trkpt>
      <trkpt lat="47.77958" lon="2.28429">
        <ele>112</ele>
        <time>2016-12-04T09:16:12.262Z</time>
      </trkpt>
      <trkpt lat="47.77958" lon="2.28429">
        <ele>112</ele>
        <time>2016-12-04T09:16:13.256Z</time>
      </trkpt>
      <trkpt lat="47.77951" lon="2.28418">
        <ele>112</ele>
        <time>2016-12-04T09:16:14.262Z</time>
      </trkpt>
      <trkpt lat="47.77947" lon="2.28414">
        <ele>112</ele>
        <time>2016-12-04T09:16:15.262Z</time>
      </trkpt>
      <trkpt lat="47.77947" lon="2.28414">
        <ele>112</ele>
        <time>2016-12-04T09:16:16.263Z</time>
      </trkpt>
      <trkpt lat="47.7794" lon="2.28405">
        <ele>112</ele>
        <time>2016-12-04T09:16:17.275Z</time>
      </trkpt>
      <trkpt lat="47.7794" lon="2.28405">
        <ele>112</ele>
        <time>2016-12-04T09:16:18.266Z</time>
      </trkpt>
      <trkpt lat="47.77932" lon="2.28396">
        <ele>112</ele>
        <time>2016-12-04T09:16:19.262Z</time>
      </trkpt>
      <trkpt lat="47.77928" lon="2.28392">
        <ele>112</ele>
        <time>2016-12-04T09:16:20.263Z</time>
      </trkpt>
      <trkpt lat="47.77928" lon="2.28392">
        <ele>112</ele>
        <time>2016-12-04T09:16:21.257Z</time>
      </trkpt>
      <trkpt lat="47.77923" lon="2.28382">
        <ele>112</ele>
        <time>2016-12-04T09:16:22.262Z</time>
      </trkpt>
      <trkpt lat="47.77923" lon="2.28382">
        <ele>112</ele>
        <time>2016-12-04T09:16:23.259Z</time>
      </trkpt>
      <trkpt lat="47.77917" lon="2.28373">
        <ele>111</ele>
        <time>2016-12-04T09:16:24.263Z</time>
      </trkpt>
      <trkpt lat="47.77917" lon="2.28373">
        <ele>111</ele>
        <time>2016-12-04T09:16:25.257Z</time>
      </trkpt>
      <trkpt lat="47.77913" lon="2.28364">
        <ele>111</ele>
        <time>2016-12-04T09:16:26.263Z</time>
      </trkpt>
      <trkpt lat="47.77913" lon="2.28364">
        <ele>111</ele>
        <time>2016-12-04T09:16:27.259Z</time>
      </trkpt>
      <trkpt lat="47.77908" lon="2.28355">
        <ele>110</ele>
        <time>2016-12-04T09:16:28.259Z</time>
      </trkpt>
      <trkpt lat="47.77906" lon="2.28351">
        <ele>110</ele>
        <time>2016-12-04T09:16:29.262Z</time>
      </trkpt>
      <trkpt lat="47.77906" lon="2.28351">
        <ele>110</ele>
        <time>2016-12-04T09:16:30.259Z</time>
      </trkpt>
      <trkpt lat="47.77902" lon="2.28345">
        <ele>110</ele>
        <time>2016-12-04T09:16:31.262Z</time>
      </trkpt>
      <trkpt lat="47.77901" lon="2.28342">
        <ele>110</ele>
        <time>2016-12-04T09:16:32.263Z</time>
      </trkpt>
      <trkpt lat="47.77901" lon="2.28342">
        <ele>110</ele>
        <time>2016-12-04T09:16:33.252Z</time>
      </trkpt>
      <trkpt lat="47.77898" lon="2.28337">
        <ele>110</ele>
        <time>2016-12-04T09:16:34.262Z</time>
      </trkpt>
      <trkpt lat="47.77898" lon="2.28337">
        <ele>110</ele>
        <time>2016-12-04T09:16:35.259Z</time>
      </trkpt>
      <trkpt lat="47.77895" lon="2.28331">
        <ele>110</ele>
        <time>2016-12-04T09:16:36.261Z</time>
      </trkpt>
      <trkpt lat="47.77895" lon="2.28331">
        <ele>110</ele>
        <time>2016-12-04T09:16:37.259Z</time>
      </trkpt>
      <trkpt lat="47.77892" lon="2.28326">
        <ele>110</ele>
        <time>2016-12-04T09:16:38.262Z</time>
      </trkpt>
      <trkpt lat="47.77892" lon="2.28326">
        <ele>110</ele>
        <time>2016-12-04T09:16:39.256Z</time>
      </trkpt>
      <trkpt lat="47.77891" lon="2.28323">
        <ele>111</ele>
        <time>2016-12-04T09:16:40.262Z</time>
      </trkpt>
      <trkpt lat="47.77891" lon="2.28323">
        <ele>111</ele>
        <time>2016-12-04T09:16:41.261Z</time>
      </trkpt>
      <trkpt lat="47.77891" lon="2.28323">
        <ele>111</ele>
        <time>2016-12-04T09:16:42.259Z</time>
      </trkpt>
      <trkpt lat="47.77888" lon="2.28315">
        <ele>109</ele>
        <time>2016-12-04T09:16:43.279Z</time>
      </trkpt>
      <trkpt lat="47.77888" lon="2.28313">
        <ele>109</ele>
        <time>2016-12-04T09:16:44.267Z</time>
      </trkpt>
      <trkpt lat="47.77888" lon="2.28313">
        <ele>109</ele>
        <time>2016-12-04T09:16:45.263Z</time>
      </trkpt>
      <trkpt lat="47.77885" lon="2.28307">
        <ele>109</ele>
        <time>2016-12-04T09:16:46.265Z</time>
      </trkpt>
      <trkpt lat="47.77885" lon="2.28307">
        <ele>109</ele>
        <time>2016-12-04T09:16:47.264Z</time>
      </trkpt>
      <trkpt lat="47.77883" lon="2.28298">
        <ele>109</ele>
        <time>2016-12-04T09:16:48.265Z</time>
      </trkpt>
      <trkpt lat="47.77883" lon="2.28298">
        <ele>109</ele>
        <time>2016-12-04T09:16:49.262Z</time>
      </trkpt>
      <trkpt lat="47.77882" lon="2.28286">
        <ele>108</ele>
        <time>2016-12-04T09:16:50.265Z</time>
      </trkpt>
      <trkpt lat="47.77882" lon="2.28286">
        <ele>108</ele>
        <time>2016-12-04T09:16:51.264Z</time>
      </trkpt>
      <trkpt lat="47.77881" lon="2.28274">
        <ele>108</ele>
        <time>2016-12-04T09:16:52.265Z</time>
      </trkpt>
      <trkpt lat="47.77881" lon="2.28268">
        <ele>109</ele>
        <time>2016-12-04T09:16:53.264Z</time>
      </trkpt>
      <trkpt lat="47.77881" lon="2.28268">
        <ele>109</ele>
        <time>2016-12-04T09:16:54.263Z</time>
      </trkpt>
      <trkpt lat="47.77881" lon="2.28255">
        <ele>108</ele>
        <time>2016-12-04T09:16:55.264Z</time>
      </trkpt>
      <trkpt lat="47.77881" lon="2.28249">
        <ele>108</ele>
        <time>2016-12-04T09:16:56.264Z</time>
      </trkpt>
      <trkpt lat="47.77881" lon="2.28249">
        <ele>108</ele>
        <time>2016-12-04T09:16:57.262Z</time>
      </trkpt>
      <trkpt lat="47.77881" lon="2.28236">
        <ele>108</ele>
        <time>2016-12-04T09:16:58.265Z</time>
      </trkpt>
      <trkpt lat="47.77881" lon="2.28236">
        <ele>108</ele>
        <time>2016-12-04T09:16:59.262Z</time>
      </trkpt>
      <trkpt lat="47.7788" lon="2.28222">
        <ele>108</ele>
        <time>2016-12-04T09:17:00.264Z</time>
      </trkpt>
      <trkpt lat="47.7788" lon="2.28222">
        <ele>108</ele>
        <time>2016-12-04T09:17:01.254Z</time>
      </trkpt>
      <trkpt lat="47.77879" lon="2.28208">
        <ele>108</ele>
        <time>2016-12-04T09:17:02.265Z</time>
      </trkpt>
      <trkpt lat="47.77879" lon="2.28208">
        <ele>108</ele>
        <time>2016-12-04T09:17:03.263Z</time>
      </trkpt>
      <trkpt lat="47.77878" lon="2.28194">
        <ele>108</ele>
        <time>2016-12-04T09:17:04.264Z</time>
      </trkpt>
      <trkpt lat="47.77878" lon="2.28194">
        <ele>108</ele>
        <time>2016-12-04T09:17:05.259Z</time>
      </trkpt>
      <trkpt lat="47.77877" lon="2.28179">
        <ele>108</ele>
        <time>2016-12-04T09:17:06.265Z</time>
      </trkpt>
      <trkpt lat="47.77877" lon="2.28179">
        <ele>108</ele>
        <time>2016-12-04T09:17:07.262Z</time>
      </trkpt>
      <trkpt lat="47.77875" lon="2.28164">
        <ele>108</ele>
        <time>2016-12-04T09:17:08.265Z</time>
      </trkpt>
      <trkpt lat="47.77875" lon="2.28164">
        <ele>108</ele>
        <time>2016-12-04T09:17:09.263Z</time>
      </trkpt>
      <trkpt lat="47.77873" lon="2.28149">
        <ele>108</ele>
        <time>2016-12-04T09:17:10.266Z</time>
      </trkpt>
      <trkpt lat="47.77873" lon="2.28149">
        <ele>108</ele>
        <time>2016-12-04T09:17:11.259Z</time>
      </trkpt>
      <trkpt lat="47.77871" lon="2.28132">
        <ele>108</ele>
        <time>2016-12-04T09:17:12.264Z</time>
      </trkpt>
      <trkpt lat="47.7787" lon="2.28124">
        <ele>108</ele>
        <time>2016-12-04T09:17:13.265Z</time>
      </trkpt>
      <trkpt lat="47.77868" lon="2.28115">
        <ele>108</ele>
        <time>2016-12-04T09:17:14.265Z</time>
      </trkpt>
      <trkpt lat="47.77868" lon="2.28115">
        <ele>108</ele>
        <time>2016-12-04T09:17:15.264Z</time>
      </trkpt>
      <trkpt lat="47.77865" lon="2.28097">
        <ele>108</ele>
        <time>2016-12-04T09:17:16.271Z</time>
      </trkpt>
      <trkpt lat="47.77865" lon="2.28097">
        <ele>108</ele>
        <time>2016-12-04T09:17:17.264Z</time>
      </trkpt>
      <trkpt lat="47.77862" lon="2.2808">
        <ele>108</ele>
        <time>2016-12-04T09:17:18.264Z</time>
      </trkpt>
      <trkpt lat="47.7786" lon="2.28071">
        <ele>108</ele>
        <time>2016-12-04T09:17:19.265Z</time>
      </trkpt>
      <trkpt lat="47.77858" lon="2.28062">
        <ele>108</ele>
        <time>2016-12-04T09:17:20.262Z</time>
      </trkpt>
      <trkpt lat="47.77856" lon="2.28054">
        <ele>108</ele>
        <time>2016-12-04T09:17:21.266Z</time>
      </trkpt>
      <trkpt lat="47.77856" lon="2.28054">
        <ele>108</ele>
        <time>2016-12-04T09:17:22.263Z</time>
      </trkpt>
      <trkpt lat="47.77851" lon="2.28037">
        <ele>108</ele>
        <time>2016-12-04T09:17:23.265Z</time>
      </trkpt>
      <trkpt lat="47.77851" lon="2.28037">
        <ele>108</ele>
        <time>2016-12-04T09:17:24.263Z</time>
      </trkpt>
      <trkpt lat="47.77845" lon="2.28021">
        <ele>108</ele>
        <time>2016-12-04T09:17:25.265Z</time>
      </trkpt>
      <trkpt lat="47.77845" lon="2.28021">
        <ele>108</ele>
        <time>2016-12-04T09:17:26.263Z</time>
      </trkpt>
      <trkpt lat="47.77838" lon="2.28005">
        <ele>108</ele>
        <time>2016-12-04T09:17:27.265Z</time>
      </trkpt>
      <trkpt lat="47.77838" lon="2.28005">
        <ele>108</ele>
        <time>2016-12-04T09:17:28.263Z</time>
      </trkpt>
      <trkpt lat="47.77833" lon="2.27988">
        <ele>107</ele>
        <time>2016-12-04T09:17:29.265Z</time>
      </trkpt>
      <trkpt lat="47.77833" lon="2.27988">
        <ele>107</ele>
        <time>2016-12-04T09:17:30.260Z</time>
      </trkpt>
      <trkpt lat="47.77831" lon="2.2797">
        <ele>107</ele>
        <time>2016-12-04T09:17:31.259Z</time>
      </trkpt>
      <trkpt lat="47.77831" lon="2.27961">
        <ele>107</ele>
        <time>2016-12-04T09:17:32.263Z</time>
      </trkpt>
      <trkpt lat="47.77833" lon="2.27952">
        <ele>107</ele>
        <time>2016-12-04T09:17:33.266Z</time>
      </trkpt>
      <trkpt lat="47.77833" lon="2.27952">
        <ele>107</ele>
        <time>2016-12-04T09:17:34.262Z</time>
      </trkpt>
      <trkpt lat="47.77839" lon="2.27936">
        <ele>107</ele>
        <time>2016-12-04T09:17:35.261Z</time>
      </trkpt>
      <trkpt lat="47.77843" lon="2.27928">
        <ele>107</ele>
        <time>2016-12-04T09:17:36.265Z</time>
      </trkpt>
      <trkpt lat="47.77843" lon="2.27928">
        <ele>107</ele>
        <time>2016-12-04T09:17:37.259Z</time>
      </trkpt>
      <trkpt lat="47.77849" lon="2.27912">
        <ele>106</ele>
        <time>2016-12-04T09:17:38.264Z</time>
      </trkpt>
      <trkpt lat="47.77849" lon="2.27912">
        <ele>106</ele>
        <time>2016-12-04T09:17:39.263Z</time>
      </trkpt>
      <trkpt lat="47.77853" lon="2.27894">
        <ele>106</ele>
        <time>2016-12-04T09:17:40.264Z</time>
      </trkpt>
      <trkpt lat="47.77853" lon="2.27894">
        <ele>106</ele>
        <time>2016-12-04T09:17:41.255Z</time>
      </trkpt>
      <trkpt lat="47.77857" lon="2.27876">
        <ele>106</ele>
        <time>2016-12-04T09:17:42.268Z</time>
      </trkpt>
      <trkpt lat="47.77859" lon="2.27867">
        <ele>106</ele>
        <time>2016-12-04T09:17:43.269Z</time>
      </trkpt>
      <trkpt lat="47.77859" lon="2.27867">
        <ele>106</ele>
        <time>2016-12-04T09:17:44.263Z</time>
      </trkpt>
      <trkpt lat="47.77862" lon="2.27849">
        <ele>106</ele>
        <time>2016-12-04T09:17:45.266Z</time>
      </trkpt>
      <trkpt lat="47.77862" lon="2.27849">
        <ele>106</ele>
        <time>2016-12-04T09:17:46.260Z</time>
      </trkpt>
      <trkpt lat="47.77866" lon="2.27832">
        <ele>107</ele>
        <time>2016-12-04T09:17:47.265Z</time>
      </trkpt>
      <trkpt lat="47.77866" lon="2.27832">
        <ele>107</ele>
        <time>2016-12-04T09:17:48.260Z</time>
      </trkpt>
      <trkpt lat="47.77871" lon="2.27814">
        <ele>107</ele>
        <time>2016-12-04T09:17:49.265Z</time>
      </trkpt>
      <trkpt lat="47.77871" lon="2.27814">
        <ele>107</ele>
        <time>2016-12-04T09:17:50.262Z</time>
      </trkpt>
      <trkpt lat="47.77876" lon="2.27798">
        <ele>107</ele>
        <time>2016-12-04T09:17:51.258Z</time>
      </trkpt>
      <trkpt lat="47.77878" lon="2.2779">
        <ele>108</ele>
        <time>2016-12-04T09:17:52.264Z</time>
      </trkpt>
      <trkpt lat="47.77881" lon="2.27781">
        <ele>108</ele>
        <time>2016-12-04T09:17:53.265Z</time>
      </trkpt>
      <trkpt lat="47.77881" lon="2.27781">
        <ele>108</ele>
        <time>2016-12-04T09:17:54.262Z</time>
      </trkpt>
      <trkpt lat="47.77887" lon="2.27764">
        <ele>108</ele>
        <time>2016-12-04T09:17:55.265Z</time>
      </trkpt>
      <trkpt lat="47.77887" lon="2.27764">
        <ele>108</ele>
        <time>2016-12-04T09:17:56.263Z</time>
      </trkpt>
      <trkpt lat="47.77893" lon="2.27748">
        <ele>108</ele>
        <time>2016-12-04T09:17:57.266Z</time>
      </trkpt>
      <trkpt lat="47.77893" lon="2.27748">
        <ele>108</ele>
        <time>2016-12-04T09:17:58.259Z</time>
      </trkpt>
      <trkpt lat="47.779" lon="2.27733">
        <ele>109</ele>
        <time>2016-12-04T09:17:59.265Z</time>
      </trkpt>
      <trkpt lat="47.779" lon="2.27733">
        <ele>109</ele>
        <time>2016-12-04T09:18:00.260Z</time>
      </trkpt>
      <trkpt lat="47.77907" lon="2.27719">
        <ele>109</ele>
        <time>2016-12-04T09:18:01.257Z</time>
      </trkpt>
      <trkpt lat="47.7791" lon="2.27711">
        <ele>109</ele>
        <time>2016-12-04T09:18:02.245Z</time>
      </trkpt>
      <trkpt lat="47.77912" lon="2.27704">
        <ele>109</ele>
        <time>2016-12-04T09:18:03.268Z</time>
      </trkpt>
      <trkpt lat="47.77912" lon="2.27704">
        <ele>109</ele>
        <time>2016-12-04T09:18:04.259Z</time>
      </trkpt>
      <trkpt lat="47.77918" lon="2.27689">
        <ele>110</ele>
        <time>2016-12-04T09:18:05.264Z</time>
      </trkpt>
      <trkpt lat="47.77921" lon="2.27682">
        <ele>110</ele>
        <time>2016-12-04T09:18:06.264Z</time>
      </trkpt>
      <trkpt lat="47.77921" lon="2.27682">
        <ele>110</ele>
        <time>2016-12-04T09:18:07.259Z</time>
      </trkpt>
      <trkpt lat="47.77928" lon="2.2767">
        <ele>109</ele>
        <time>2016-12-04T09:18:08.261Z</time>
      </trkpt>
      <trkpt lat="47.77932" lon="2.27663">
        <ele>110</ele>
        <time>2016-12-04T09:18:09.266Z</time>
      </trkpt>
      <trkpt lat="47.77932" lon="2.27663">
        <ele>110</ele>
        <time>2016-12-04T09:18:10.260Z</time>
      </trkpt>
      <trkpt lat="47.7794" lon="2.27651">
        <ele>110</ele>
        <time>2016-12-04T09:18:11.274Z</time>
      </trkpt>
      <trkpt lat="47.77945" lon="2.27646">
        <ele>110</ele>
        <time>2016-12-04T09:18:12.264Z</time>
      </trkpt>
      <trkpt lat="47.77945" lon="2.27646">
        <ele>110</ele>
        <time>2016-12-04T09:18:13.262Z</time>
      </trkpt>
      <trkpt lat="47.77954" lon="2.27637">
        <ele>110</ele>
        <time>2016-12-04T09:18:14.262Z</time>
      </trkpt>
      <trkpt lat="47.77959" lon="2.27633">
        <ele>110</ele>
        <time>2016-12-04T09:18:15.266Z</time>
      </trkpt>
      <trkpt lat="47.77959" lon="2.27633">
        <ele>110</ele>
        <time>2016-12-04T09:18:16.262Z</time>
      </trkpt>
      <trkpt lat="47.77969" lon="2.27623">
        <ele>110</ele>
        <time>2016-12-04T09:18:17.265Z</time>
      </trkpt>
      <trkpt lat="47.77969" lon="2.27623">
        <ele>110</ele>
        <time>2016-12-04T09:18:18.258Z</time>
      </trkpt>
      <trkpt lat="47.77978" lon="2.27613">
        <ele>110</ele>
        <time>2016-12-04T09:18:19.262Z</time>
      </trkpt>
      <trkpt lat="47.77982" lon="2.27607">
        <ele>110</ele>
        <time>2016-12-04T09:18:20.265Z</time>
      </trkpt>
      <trkpt lat="47.77982" lon="2.27607">
        <ele>110</ele>
        <time>2016-12-04T09:18:21.257Z</time>
      </trkpt>
      <trkpt lat="47.77989" lon="2.27593">
        <ele>109</ele>
        <time>2016-12-04T09:18:22.265Z</time>
      </trkpt>
      <trkpt lat="47.77993" lon="2.27586">
        <ele>109</ele>
        <time>2016-12-04T09:18:23.265Z</time>
      </trkpt>
      <trkpt lat="47.77993" lon="2.27586">
        <ele>109</ele>
        <time>2016-12-04T09:18:24.260Z</time>
      </trkpt>
      <trkpt lat="47.78" lon="2.27573">
        <ele>109</ele>
        <time>2016-12-04T09:18:25.265Z</time>
      </trkpt>
      <trkpt lat="47.78" lon="2.27573">
        <ele>109</ele>
        <time>2016-12-04T09:18:26.259Z</time>
      </trkpt>
      <trkpt lat="47.78007" lon="2.27559">
        <ele>109</ele>
        <time>2016-12-04T09:18:27.247Z</time>
      </trkpt>
      <trkpt lat="47.78007" lon="2.27559">
        <ele>109</ele>
        <time>2016-12-04T09:18:28.278Z</time>
      </trkpt>
      <trkpt lat="47.78015" lon="2.27544">
        <ele>109</ele>
        <time>2016-12-04T09:18:29.263Z</time>
      </trkpt>
      <trkpt lat="47.78015" lon="2.27544">
        <ele>109</ele>
        <time>2016-12-04T09:18:30.262Z</time>
      </trkpt>
      <trkpt lat="47.78022" lon="2.27531">
        <ele>109</ele>
        <time>2016-12-04T09:18:31.256Z</time>
      </trkpt>
      <trkpt lat="47.78026" lon="2.27524">
        <ele>109</ele>
        <time>2016-12-04T09:18:32.264Z</time>
      </trkpt>
      <trkpt lat="47.78029" lon="2.27517">
        <ele>109</ele>
        <time>2016-12-04T09:18:33.265Z</time>
      </trkpt>
      <trkpt lat="47.78029" lon="2.27517">
        <ele>109</ele>
        <time>2016-12-04T09:18:34.263Z</time>
      </trkpt>
      <trkpt lat="47.78037" lon="2.27502">
        <ele>109</ele>
        <time>2016-12-04T09:18:35.264Z</time>
      </trkpt>
      <trkpt lat="47.7804" lon="2.27495">
        <ele>109</ele>
        <time>2016-12-04T09:18:36.265Z</time>
      </trkpt>
      <trkpt lat="47.7804" lon="2.27495">
        <ele>109</ele>
        <time>2016-12-04T09:18:37.260Z</time>
      </trkpt>
      <trkpt lat="47.78047" lon="2.27481">
        <ele>109</ele>
        <time>2016-12-04T09:18:38.282Z</time>
      </trkpt>
      <trkpt lat="47.7805" lon="2.27474">
        <ele>109</ele>
        <time>2016-12-04T09:18:39.274Z</time>
      </trkpt>
      <trkpt lat="47.7805" lon="2.27474">
        <ele>109</ele>
        <time>2016-12-04T09:18:40.262Z</time>
      </trkpt>
      <trkpt lat="47.78058" lon="2.2746">
        <ele>109</ele>
        <time>2016-12-04T09:18:41.256Z</time>
      </trkpt>
      <trkpt lat="47.78062" lon="2.27453">
        <ele>109</ele>
        <time>2016-12-04T09:18:42.265Z</time>
      </trkpt>
      <trkpt lat="47.78066" lon="2.27446">
        <ele>109</ele>
        <time>2016-12-04T09:18:43.276Z</time>
      </trkpt>
      <trkpt lat="47.78066" lon="2.27446">
        <ele>109</ele>
        <time>2016-12-04T09:18:44.263Z</time>
      </trkpt>
      <trkpt lat="47.78073" lon="2.27432">
        <ele>109</ele>
        <time>2016-12-04T09:18:45.266Z</time>
      </trkpt>
      <trkpt lat="47.78073" lon="2.27432">
        <ele>109</ele>
        <time>2016-12-04T09:18:46.275Z</time>
      </trkpt>
      <trkpt lat="47.78081" lon="2.27418">
        <ele>109</ele>
        <time>2016-12-04T09:18:47.266Z</time>
      </trkpt>
      <trkpt lat="47.78081" lon="2.27418">
        <ele>109</ele>
        <time>2016-12-04T09:18:48.268Z</time>
      </trkpt>
      <trkpt lat="47.78089" lon="2.27403">
        <ele>109</ele>
        <time>2016-12-04T09:18:49.265Z</time>
      </trkpt>
      <trkpt lat="47.78089" lon="2.27403">
        <ele>109</ele>
        <time>2016-12-04T09:18:50.259Z</time>
      </trkpt>
      <trkpt lat="47.78096" lon="2.27387">
        <ele>109</ele>
        <time>2016-12-04T09:18:51.259Z</time>
      </trkpt>
      <trkpt lat="47.78099" lon="2.27379">
        <ele>109</ele>
        <time>2016-12-04T09:18:52.247Z</time>
      </trkpt>
      <trkpt lat="47.78102" lon="2.27371">
        <ele>109</ele>
        <time>2016-12-04T09:18:53.278Z</time>
      </trkpt>
      <trkpt lat="47.78102" lon="2.27371">
        <ele>109</ele>
        <time>2016-12-04T09:18:54.263Z</time>
      </trkpt>
      <trkpt lat="47.78106" lon="2.27353">
        <ele>109</ele>
        <time>2016-12-04T09:18:55.265Z</time>
      </trkpt>
      <trkpt lat="47.78108" lon="2.27345">
        <ele>109</ele>
        <time>2016-12-04T09:18:56.265Z</time>
      </trkpt>
      <trkpt lat="47.78108" lon="2.27345">
        <ele>109</ele>
        <time>2016-12-04T09:18:57.268Z</time>
      </trkpt>
      <trkpt lat="47.78111" lon="2.27327">
        <ele>109</ele>
        <time>2016-12-04T09:18:58.265Z</time>
      </trkpt>
      <trkpt lat="47.78112" lon="2.27317">
        <ele>109</ele>
        <time>2016-12-04T09:18:59.265Z</time>
      </trkpt>
      <trkpt lat="47.78112" lon="2.27317">
        <ele>109</ele>
        <time>2016-12-04T09:19:00.263Z</time>
      </trkpt>
      <trkpt lat="47.78115" lon="2.27299">
        <ele>109</ele>
        <time>2016-12-04T09:19:01.258Z</time>
      </trkpt>
      <trkpt lat="47.78115" lon="2.27299">
        <ele>109</ele>
        <time>2016-12-04T09:19:02.244Z</time>
      </trkpt>
      <trkpt lat="47.78117" lon="2.2728">
        <ele>109</ele>
        <time>2016-12-04T09:19:03.278Z</time>
      </trkpt>
      <trkpt lat="47.78118" lon="2.2727">
        <ele>109</ele>
        <time>2016-12-04T09:19:04.264Z</time>
      </trkpt>
      <trkpt lat="47.78118" lon="2.2727">
        <ele>109</ele>
        <time>2016-12-04T09:19:05.260Z</time>
      </trkpt>
      <trkpt lat="47.7812" lon="2.27251">
        <ele>108</ele>
        <time>2016-12-04T09:19:06.265Z</time>
      </trkpt>
      <trkpt lat="47.7812" lon="2.27251">
        <ele>108</ele>
        <time>2016-12-04T09:19:07.262Z</time>
      </trkpt>
      <trkpt lat="47.78122" lon="2.27231">
        <ele>108</ele>
        <time>2016-12-04T09:19:08.274Z</time>
      </trkpt>
      <trkpt lat="47.78123" lon="2.27222">
        <ele>108</ele>
        <time>2016-12-04T09:19:09.266Z</time>
      </trkpt>
      <trkpt lat="47.78123" lon="2.27222">
        <ele>108</ele>
        <time>2016-12-04T09:19:10.260Z</time>
      </trkpt>
      <trkpt lat="47.78125" lon="2.27202">
        <ele>108</ele>
        <time>2016-12-04T09:19:11.273Z</time>
      </trkpt>
      <trkpt lat="47.78126" lon="2.27192">
        <ele>108</ele>
        <time>2016-12-04T09:19:12.265Z</time>
      </trkpt>
      <trkpt lat="47.78126" lon="2.27192">
        <ele>108</ele>
        <time>2016-12-04T09:19:13.261Z</time>
      </trkpt>
      <trkpt lat="47.78129" lon="2.27172">
        <ele>108</ele>
        <time>2016-12-04T09:19:14.265Z</time>
      </trkpt>
      <trkpt lat="47.78129" lon="2.27172">
        <ele>108</ele>
        <time>2016-12-04T09:19:15.263Z</time>
      </trkpt>
      <trkpt lat="47.78131" lon="2.27152">
        <ele>108</ele>
        <time>2016-12-04T09:19:16.267Z</time>
      </trkpt>
      <trkpt lat="47.78133" lon="2.27142">
        <ele>108</ele>
        <time>2016-12-04T09:19:17.266Z</time>
      </trkpt>
      <trkpt lat="47.78133" lon="2.27142">
        <ele>108</ele>
        <time>2016-12-04T09:19:18.261Z</time>
      </trkpt>
      <trkpt lat="47.78135" lon="2.27123">
        <ele>108</ele>
        <time>2016-12-04T09:19:19.265Z</time>
      </trkpt>
      <trkpt lat="47.78135" lon="2.27123">
        <ele>108</ele>
        <time>2016-12-04T09:19:20.263Z</time>
      </trkpt>
      <trkpt lat="47.78136" lon="2.27103">
        <ele>107</ele>
        <time>2016-12-04T09:19:21.259Z</time>
      </trkpt>
      <trkpt lat="47.78136" lon="2.27093">
        <ele>107</ele>
        <time>2016-12-04T09:19:22.265Z</time>
      </trkpt>
      <trkpt lat="47.78136" lon="2.27083">
        <ele>107</ele>
        <time>2016-12-04T09:19:23.265Z</time>
      </trkpt>
      <trkpt lat="47.78136" lon="2.27083">
        <ele>107</ele>
        <time>2016-12-04T09:19:24.263Z</time>
      </trkpt>
      <trkpt lat="47.78136" lon="2.27063">
        <ele>107</ele>
        <time>2016-12-04T09:19:25.265Z</time>
      </trkpt>
      <trkpt lat="47.78136" lon="2.27063">
        <ele>107</ele>
        <time>2016-12-04T09:19:26.259Z</time>
      </trkpt>
      <trkpt lat="47.78136" lon="2.27043">
        <ele>107</ele>
        <time>2016-12-04T09:19:27.247Z</time>
      </trkpt>
      <trkpt lat="47.78136" lon="2.27033">
        <ele>107</ele>
        <time>2016-12-04T09:19:28.278Z</time>
      </trkpt>
      <trkpt lat="47.78136" lon="2.27023">
        <ele>107</ele>
        <time>2016-12-04T09:19:29.270Z</time>
      </trkpt>
      <trkpt lat="47.78136" lon="2.27023">
        <ele>107</ele>
        <time>2016-12-04T09:19:30.262Z</time>
      </trkpt>
      <trkpt lat="47.78136" lon="2.27002">
        <ele>107</ele>
        <time>2016-12-04T09:19:31.257Z</time>
      </trkpt>
      <trkpt lat="47.78136" lon="2.26992">
        <ele>107</ele>
        <time>2016-12-04T09:19:32.264Z</time>
      </trkpt>
      <trkpt lat="47.78136" lon="2.26982">
        <ele>107</ele>
        <time>2016-12-04T09:19:33.268Z</time>
      </trkpt>
      <trkpt lat="47.78136" lon="2.26982">
        <ele>107</ele>
        <time>2016-12-04T09:19:34.263Z</time>
      </trkpt>
      <trkpt lat="47.78136" lon="2.26962">
        <ele>107</ele>
        <time>2016-12-04T09:19:35.265Z</time>
      </trkpt>
      <trkpt lat="47.78136" lon="2.26962">
        <ele>107</ele>
        <time>2016-12-04T09:19:36.263Z</time>
      </trkpt>
      <trkpt lat="47.78136" lon="2.26942">
        <ele>107</ele>
        <time>2016-12-04T09:19:37.265Z</time>
      </trkpt>
      <trkpt lat="47.78136" lon="2.26942">
        <ele>107</ele>
        <time>2016-12-04T09:19:38.263Z</time>
      </trkpt>
      <trkpt lat="47.78137" lon="2.26922">
        <ele>107</ele>
        <time>2016-12-04T09:19:39.267Z</time>
      </trkpt>
      <trkpt lat="47.78137" lon="2.26912">
        <ele>107</ele>
        <time>2016-12-04T09:19:40.265Z</time>
      </trkpt>
      <trkpt lat="47.78137" lon="2.26912">
        <ele>107</ele>
        <time>2016-12-04T09:19:41.256Z</time>
      </trkpt>
      <trkpt lat="47.78137" lon="2.26891">
        <ele>107</ele>
        <time>2016-12-04T09:19:42.265Z</time>
      </trkpt>
      <trkpt lat="47.78137" lon="2.26891">
        <ele>107</ele>
        <time>2016-12-04T09:19:43.262Z</time>
      </trkpt>
      <trkpt lat="47.78137" lon="2.2687">
        <ele>107</ele>
        <time>2016-12-04T09:19:44.246Z</time>
      </trkpt>
      <trkpt lat="47.78137" lon="2.2687">
        <ele>107</ele>
        <time>2016-12-04T09:19:45.269Z</time>
      </trkpt>
      <trkpt lat="47.78138" lon="2.26849">
        <ele>107</ele>
        <time>2016-12-04T09:19:46.265Z</time>
      </trkpt>
      <trkpt lat="47.78138" lon="2.26849">
        <ele>107</ele>
        <time>2016-12-04T09:19:47.263Z</time>
      </trkpt>
      <trkpt lat="47.78138" lon="2.26828">
        <ele>107</ele>
        <time>2016-12-04T09:19:48.265Z</time>
      </trkpt>
      <trkpt lat="47.78138" lon="2.26828">
        <ele>107</ele>
        <time>2016-12-04T09:19:49.267Z</time>
      </trkpt>
      <trkpt lat="47.78139" lon="2.26807">
        <ele>107</ele>
        <time>2016-12-04T09:19:50.265Z</time>
      </trkpt>
      <trkpt lat="47.78139" lon="2.26807">
        <ele>107</ele>
        <time>2016-12-04T09:19:51.257Z</time>
      </trkpt>
      <trkpt lat="47.78139" lon="2.26786">
        <ele>106</ele>
        <time>2016-12-04T09:19:52.246Z</time>
      </trkpt>
      <trkpt lat="47.78139" lon="2.26786">
        <ele>106</ele>
        <time>2016-12-04T09:19:53.278Z</time>
      </trkpt>
      <trkpt lat="47.78138" lon="2.26766">
        <ele>106</ele>
        <time>2016-12-04T09:19:54.266Z</time>
      </trkpt>
      <trkpt lat="47.78138" lon="2.26766">
        <ele>106</ele>
        <time>2016-12-04T09:19:55.263Z</time>
      </trkpt>
      <trkpt lat="47.78132" lon="2.26748">
        <ele>106</ele>
        <time>2016-12-04T09:19:56.265Z</time>
      </trkpt>
      <trkpt lat="47.78128" lon="2.26739">
        <ele>106</ele>
        <time>2016-12-04T09:19:57.266Z</time>
      </trkpt>
      <trkpt lat="47.78128" lon="2.26739">
        <ele>106</ele>
        <time>2016-12-04T09:19:58.263Z</time>
      </trkpt>
      <trkpt lat="47.78122" lon="2.26719">
        <ele>105</ele>
        <time>2016-12-04T09:19:59.265Z</time>
      </trkpt>
      <trkpt lat="47.7812" lon="2.26708">
        <ele>105</ele>
        <time>2016-12-04T09:20:00.265Z</time>
      </trkpt>
      <trkpt lat="47.7812" lon="2.26708">
        <ele>105</ele>
        <time>2016-12-04T09:20:01.255Z</time>
      </trkpt>
      <trkpt lat="47.78116" lon="2.26688">
        <ele>106</ele>
        <time>2016-12-04T09:20:02.265Z</time>
      </trkpt>
      <trkpt lat="47.78115" lon="2.26678">
        <ele>106</ele>
        <time>2016-12-04T09:20:03.268Z</time>
      </trkpt>
      <trkpt lat="47.78115" lon="2.26678">
        <ele>106</ele>
        <time>2016-12-04T09:20:04.260Z</time>
      </trkpt>
      <trkpt lat="47.78111" lon="2.26658">
        <ele>106</ele>
        <time>2016-12-04T09:20:05.266Z</time>
      </trkpt>
      <trkpt lat="47.78111" lon="2.26658">
        <ele>106</ele>
        <time>2016-12-04T09:20:06.261Z</time>
      </trkpt>
      <trkpt lat="47.78107" lon="2.2664">
        <ele>106</ele>
        <time>2016-12-04T09:20:07.270Z</time>
      </trkpt>
      <trkpt lat="47.78106" lon="2.2663">
        <ele>106</ele>
        <time>2016-12-04T09:20:08.265Z</time>
      </trkpt>
      <trkpt lat="47.78106" lon="2.2663">
        <ele>106</ele>
        <time>2016-12-04T09:20:09.260Z</time>
      </trkpt>
      <trkpt lat="47.78106" lon="2.26611">
        <ele>106</ele>
        <time>2016-12-04T09:20:10.265Z</time>
      </trkpt>
      <trkpt lat="47.78106" lon="2.26611">
        <ele>106</ele>
        <time>2016-12-04T09:20:11.256Z</time>
      </trkpt>
      <trkpt lat="47.78109" lon="2.26592">
        <ele>107</ele>
        <time>2016-12-04T09:20:12.265Z</time>
      </trkpt>
      <trkpt lat="47.78111" lon="2.26583">
        <ele>107</ele>
        <time>2016-12-04T09:20:13.266Z</time>
      </trkpt>
      <trkpt lat="47.78111" lon="2.26583">
        <ele>107</ele>
        <time>2016-12-04T09:20:14.263Z</time>
      </trkpt>
      <trkpt lat="47.78116" lon="2.26564">
        <ele>107</ele>
        <time>2016-12-04T09:20:15.266Z</time>
      </trkpt>
      <trkpt lat="47.78116" lon="2.26564">
        <ele>107</ele>
        <time>2016-12-04T09:20:16.264Z</time>
      </trkpt>
      <trkpt lat="47.78122" lon="2.26545">
        <ele>107</ele>
        <time>2016-12-04T09:20:17.270Z</time>
      </trkpt>
      <trkpt lat="47.78124" lon="2.26535">
        <ele>107</ele>
        <time>2016-12-04T09:20:18.278Z</time>
      </trkpt>
      <trkpt lat="47.78124" lon="2.26535">
        <ele>107</ele>
        <time>2016-12-04T09:20:19.267Z</time>
      </trkpt>
      <trkpt lat="47.7813" lon="2.26515">
        <ele>107</ele>
        <time>2016-12-04T09:20:20.265Z</time>
      </trkpt>
      <trkpt lat="47.7813" lon="2.26515">
        <ele>107</ele>
        <time>2016-12-04T09:20:21.259Z</time>
      </trkpt>
      <trkpt lat="47.78135" lon="2.26496">
        <ele>107</ele>
        <time>2016-12-04T09:20:22.267Z</time>
      </trkpt>
      <trkpt lat="47.78137" lon="2.26486">
        <ele>107</ele>
        <time>2016-12-04T09:20:23.266Z</time>
      </trkpt>
      <trkpt lat="47.78137" lon="2.26486">
        <ele>107</ele>
        <time>2016-12-04T09:20:24.263Z</time>
      </trkpt>
      <trkpt lat="47.78143" lon="2.26467">
        <ele>107</ele>
        <time>2016-12-04T09:20:25.266Z</time>
      </trkpt>
      <trkpt lat="47.78143" lon="2.26467">
        <ele>107</ele>
        <time>2016-12-04T09:20:26.263Z</time>
      </trkpt>
      <trkpt lat="47.78148" lon="2.26448">
        <ele>107</ele>
        <time>2016-12-04T09:20:27.266Z</time>
      </trkpt>
      <trkpt lat="47.78148" lon="2.26448">
        <ele>107</ele>
        <time>2016-12-04T09:20:28.263Z</time>
      </trkpt>
      <trkpt lat="47.78153" lon="2.26429">
        <ele>107</ele>
        <time>2016-12-04T09:20:29.243Z</time>
      </trkpt>
      <trkpt lat="47.78156" lon="2.26418">
        <ele>107</ele>
        <time>2016-12-04T09:20:30.280Z</time>
      </trkpt>
      <trkpt lat="47.78156" lon="2.26418">
        <ele>107</ele>
        <time>2016-12-04T09:20:31.269Z</time>
      </trkpt>
      <trkpt lat="47.78161" lon="2.26398">
        <ele>107</ele>
        <time>2016-12-04T09:20:32.266Z</time>
      </trkpt>
      <trkpt lat="47.78163" lon="2.26388">
        <ele>107</ele>
        <time>2016-12-04T09:20:33.268Z</time>
      </trkpt>
      <trkpt lat="47.78163" lon="2.26388">
        <ele>107</ele>
        <time>2016-12-04T09:20:34.263Z</time>
      </trkpt>
      <trkpt lat="47.78169" lon="2.26368">
        <ele>107</ele>
        <time>2016-12-04T09:20:35.266Z</time>
      </trkpt>
      <trkpt lat="47.78169" lon="2.26368">
        <ele>107</ele>
        <time>2016-12-04T09:20:36.263Z</time>
      </trkpt>
      <trkpt lat="47.78173" lon="2.26348">
        <ele>107</ele>
        <time>2016-12-04T09:20:37.263Z</time>
      </trkpt>
      <trkpt lat="47.78176" lon="2.26338">
        <ele>107</ele>
        <time>2016-12-04T09:20:38.265Z</time>
      </trkpt>
      <trkpt lat="47.78178" lon="2.26328">
        <ele>107</ele>
        <time>2016-12-04T09:20:39.266Z</time>
      </trkpt>
      <trkpt lat="47.78178" lon="2.26328">
        <ele>107</ele>
        <time>2016-12-04T09:20:40.263Z</time>
      </trkpt>
      <trkpt lat="47.78183" lon="2.26308">
        <ele>107</ele>
        <time>2016-12-04T09:20:41.258Z</time>
      </trkpt>
      <trkpt lat="47.78185" lon="2.26299">
        <ele>107</ele>
        <time>2016-12-04T09:20:42.250Z</time>
      </trkpt>
      <trkpt lat="47.78185" lon="2.26299">
        <ele>107</ele>
        <time>2016-12-04T09:20:43.280Z</time>
      </trkpt>
      <trkpt lat="47.78191" lon="2.26279">
        <ele>107</ele>
        <time>2016-12-04T09:20:44.265Z</time>
      </trkpt>
      <trkpt lat="47.78191" lon="2.26279">
        <ele>107</ele>
        <time>2016-12-04T09:20:45.263Z</time>
      </trkpt>
      <trkpt lat="47.78196" lon="2.26259">
        <ele>106</ele>
        <time>2016-12-04T09:20:46.266Z</time>
      </trkpt>
      <trkpt lat="47.78198" lon="2.2625">
        <ele>106</ele>
        <time>2016-12-04T09:20:47.267Z</time>
      </trkpt>
      <trkpt lat="47.78198" lon="2.2625">
        <ele>106</ele>
        <time>2016-12-04T09:20:48.263Z</time>
      </trkpt>
      <trkpt lat="47.78203" lon="2.2623">
        <ele>106</ele>
        <time>2016-12-04T09:20:49.266Z</time>
      </trkpt>
      <trkpt lat="47.78203" lon="2.2623">
        <ele>106</ele>
        <time>2016-12-04T09:20:50.280Z</time>
      </trkpt>
      <trkpt lat="47.78208" lon="2.26211">
        <ele>107</ele>
        <time>2016-12-04T09:20:51.269Z</time>
      </trkpt>
      <trkpt lat="47.78211" lon="2.26202">
        <ele>106</ele>
        <time>2016-12-04T09:20:52.265Z</time>
      </trkpt>
      <trkpt lat="47.78214" lon="2.26192">
        <ele>106</ele>
        <time>2016-12-04T09:20:53.267Z</time>
      </trkpt>
      <trkpt lat="47.78214" lon="2.26192">
        <ele>106</ele>
        <time>2016-12-04T09:20:54.260Z</time>
      </trkpt>
      <trkpt lat="47.78219" lon="2.26173">
        <ele>106</ele>
        <time>2016-12-04T09:20:55.265Z</time>
      </trkpt>
      <trkpt lat="47.78219" lon="2.26173">
        <ele>106</ele>
        <time>2016-12-04T09:20:56.263Z</time>
      </trkpt>
      <trkpt lat="47.78224" lon="2.26153">
        <ele>106</ele>
        <time>2016-12-04T09:20:57.266Z</time>
      </trkpt>
      <trkpt lat="47.78224" lon="2.26153">
        <ele>106</ele>
        <time>2016-12-04T09:20:58.263Z</time>
      </trkpt>
      <trkpt lat="47.78229" lon="2.26133">
        <ele>107</ele>
        <time>2016-12-04T09:20:59.265Z</time>
      </trkpt>
      <trkpt lat="47.78229" lon="2.26133">
        <ele>107</ele>
        <time>2016-12-04T09:21:00.262Z</time>
      </trkpt>
      <trkpt lat="47.78233" lon="2.26113">
        <ele>107</ele>
        <time>2016-12-04T09:21:01.258Z</time>
      </trkpt>
      <trkpt lat="47.78235" lon="2.26103">
        <ele>107</ele>
        <time>2016-12-04T09:21:02.279Z</time>
      </trkpt>
      <trkpt lat="47.78238" lon="2.26093">
        <ele>108</ele>
        <time>2016-12-04T09:21:03.266Z</time>
      </trkpt>
      <trkpt lat="47.78238" lon="2.26093">
        <ele>108</ele>
        <time>2016-12-04T09:21:04.263Z</time>
      </trkpt>
      <trkpt lat="47.78242" lon="2.26073">
        <ele>108</ele>
        <time>2016-12-04T09:21:05.266Z</time>
      </trkpt>
      <trkpt lat="47.78242" lon="2.26073">
        <ele>108</ele>
        <time>2016-12-04T09:21:06.263Z</time>
      </trkpt>
      <trkpt lat="47.78246" lon="2.26053">
        <ele>108</ele>
        <time>2016-12-04T09:21:07.266Z</time>
      </trkpt>
      <trkpt lat="47.78246" lon="2.26053">
        <ele>108</ele>
        <time>2016-12-04T09:21:08.263Z</time>
      </trkpt>
      <trkpt lat="47.78251" lon="2.26033">
        <ele>108</ele>
        <time>2016-12-04T09:21:09.267Z</time>
      </trkpt>
      <trkpt lat="47.78252" lon="2.26023">
        <ele>108</ele>
        <time>2016-12-04T09:21:10.265Z</time>
      </trkpt>
      <trkpt lat="47.78252" lon="2.26023">
        <ele>108</ele>
        <time>2016-12-04T09:21:11.280Z</time>
      </trkpt>
      <trkpt lat="47.78256" lon="2.26002">
        <ele>108</ele>
        <time>2016-12-04T09:21:12.266Z</time>
      </trkpt>
      <trkpt lat="47.78256" lon="2.26002">
        <ele>108</ele>
        <time>2016-12-04T09:21:13.263Z</time>
      </trkpt>
      <trkpt lat="47.78261" lon="2.2598">
        <ele>108</ele>
        <time>2016-12-04T09:21:14.266Z</time>
      </trkpt>
      <trkpt lat="47.78263" lon="2.2597">
        <ele>108</ele>
        <time>2016-12-04T09:21:15.266Z</time>
      </trkpt>
      <trkpt lat="47.78263" lon="2.2597">
        <ele>108</ele>
        <time>2016-12-04T09:21:16.265Z</time>
      </trkpt>
      <trkpt lat="47.78267" lon="2.25948">
        <ele>108</ele>
        <time>2016-12-04T09:21:17.267Z</time>
      </trkpt>
      <trkpt lat="47.78267" lon="2.25948">
        <ele>108</ele>
        <time>2016-12-04T09:21:18.260Z</time>
      </trkpt>
      <trkpt lat="47.78272" lon="2.25928">
        <ele>108</ele>
        <time>2016-12-04T09:21:19.266Z</time>
      </trkpt>
      <trkpt lat="47.78272" lon="2.25928">
        <ele>108</ele>
        <time>2016-12-04T09:21:20.263Z</time>
      </trkpt>
      <trkpt lat="47.78276" lon="2.25907">
        <ele>108</ele>
        <time>2016-12-04T09:21:21.260Z</time>
      </trkpt>
      <trkpt lat="47.78279" lon="2.25897">
        <ele>108</ele>
        <time>2016-12-04T09:21:22.282Z</time>
      </trkpt>
      <trkpt lat="47.7828" lon="2.25887">
        <ele>108</ele>
        <time>2016-12-04T09:21:23.271Z</time>
      </trkpt>
      <trkpt lat="47.7828" lon="2.25887">
        <ele>108</ele>
        <time>2016-12-04T09:21:24.263Z</time>
      </trkpt>
      <trkpt lat="47.78285" lon="2.25867">
        <ele>108</ele>
        <time>2016-12-04T09:21:25.266Z</time>
      </trkpt>
      <trkpt lat="47.78285" lon="2.25867">
        <ele>108</ele>
        <time>2016-12-04T09:21:26.263Z</time>
      </trkpt>
      <trkpt lat="47.78288" lon="2.25847">
        <ele>108</ele>
        <time>2016-12-04T09:21:27.263Z</time>
      </trkpt>
      <trkpt lat="47.7829" lon="2.25837">
        <ele>108</ele>
        <time>2016-12-04T09:21:28.266Z</time>
      </trkpt>
      <trkpt lat="47.78291" lon="2.25828">
        <ele>108</ele>
        <time>2016-12-04T09:21:29.266Z</time>
      </trkpt>
      <trkpt lat="47.78291" lon="2.25828">
        <ele>108</ele>
        <time>2016-12-04T09:21:30.263Z</time>
      </trkpt>
      <trkpt lat="47.78296" lon="2.2581">
        <ele>108</ele>
        <time>2016-12-04T09:21:31.258Z</time>
      </trkpt>
      <trkpt lat="47.78298" lon="2.25801">
        <ele>108</ele>
        <time>2016-12-04T09:21:32.245Z</time>
      </trkpt>
      <trkpt lat="47.78302" lon="2.25794">
        <ele>108</ele>
        <time>2016-12-04T09:21:33.279Z</time>
      </trkpt>
      <trkpt lat="47.78302" lon="2.25794">
        <ele>108</ele>
        <time>2016-12-04T09:21:34.270Z</time>
      </trkpt>
      <trkpt lat="47.78312" lon="2.25783">
        <ele>108</ele>
        <time>2016-12-04T09:21:35.264Z</time>
      </trkpt>
      <trkpt lat="47.78312" lon="2.25783">
        <ele>108</ele>
        <time>2016-12-04T09:21:36.261Z</time>
      </trkpt>
      <trkpt lat="47.78323" lon="2.25779">
        <ele>108</ele>
        <time>2016-12-04T09:21:37.266Z</time>
      </trkpt>
      <trkpt lat="47.78323" lon="2.25779">
        <ele>108</ele>
        <time>2016-12-04T09:21:38.263Z</time>
      </trkpt>
      <trkpt lat="47.78335" lon="2.25779">
        <ele>108</ele>
        <time>2016-12-04T09:21:39.267Z</time>
      </trkpt>
      <trkpt lat="47.78335" lon="2.25779">
        <ele>108</ele>
        <time>2016-12-04T09:21:40.261Z</time>
      </trkpt>
      <trkpt lat="47.78348" lon="2.25778">
        <ele>108</ele>
        <time>2016-12-04T09:21:41.266Z</time>
      </trkpt>
      <trkpt lat="47.78355" lon="2.25777">
        <ele>108</ele>
        <time>2016-12-04T09:21:42.266Z</time>
      </trkpt>
      <trkpt lat="47.78355" lon="2.25777">
        <ele>108</ele>
        <time>2016-12-04T09:21:43.263Z</time>
      </trkpt>
      <trkpt lat="47.78367" lon="2.25775">
        <ele>108</ele>
        <time>2016-12-04T09:21:44.274Z</time>
      </trkpt>
      <trkpt lat="47.78373" lon="2.25775">
        <ele>108</ele>
        <time>2016-12-04T09:21:45.268Z</time>
      </trkpt>
      <trkpt lat="47.78373" lon="2.25775">
        <ele>108</ele>
        <time>2016-12-04T09:21:46.263Z</time>
      </trkpt>
      <trkpt lat="47.78385" lon="2.25774">
        <ele>108</ele>
        <time>2016-12-04T09:21:47.266Z</time>
      </trkpt>
      <trkpt lat="47.78385" lon="2.25774">
        <ele>108</ele>
        <time>2016-12-04T09:21:48.263Z</time>
      </trkpt>
      <trkpt lat="47.78396" lon="2.25772">
        <ele>107</ele>
        <time>2016-12-04T09:21:49.266Z</time>
      </trkpt>
      <trkpt lat="47.78401" lon="2.25771">
        <ele>107</ele>
        <time>2016-12-04T09:21:50.265Z</time>
      </trkpt>
      <trkpt lat="47.78401" lon="2.25771">
        <ele>107</ele>
        <time>2016-12-04T09:21:51.269Z</time>
      </trkpt>
      <trkpt lat="47.78412" lon="2.2577">
        <ele>108</ele>
        <time>2016-12-04T09:21:52.263Z</time>
      </trkpt>
      <trkpt lat="47.78412" lon="2.2577">
        <ele>108</ele>
        <time>2016-12-04T09:21:53.264Z</time>
      </trkpt>
      <trkpt lat="47.78423" lon="2.2577">
        <ele>108</ele>
        <time>2016-12-04T09:21:54.266Z</time>
      </trkpt>
      <trkpt lat="47.78423" lon="2.2577">
        <ele>108</ele>
        <time>2016-12-04T09:21:55.264Z</time>
      </trkpt>
      <trkpt lat="47.78433" lon="2.25768">
        <ele>108</ele>
        <time>2016-12-04T09:21:56.266Z</time>
      </trkpt>
      <trkpt lat="47.78433" lon="2.25768">
        <ele>108</ele>
        <time>2016-12-04T09:21:57.262Z</time>
      </trkpt>
      <trkpt lat="47.78441" lon="2.25766">
        <ele>108</ele>
        <time>2016-12-04T09:21:58.266Z</time>
      </trkpt>
      <trkpt lat="47.78441" lon="2.25766">
        <ele>108</ele>
        <time>2016-12-04T09:21:59.266Z</time>
      </trkpt>
      <trkpt lat="47.78449" lon="2.25765">
        <ele>108</ele>
        <time>2016-12-04T09:22:00.265Z</time>
      </trkpt>
      <trkpt lat="47.78449" lon="2.25765">
        <ele>108</ele>
        <time>2016-12-04T09:22:01.257Z</time>
      </trkpt>
      <trkpt lat="47.78458" lon="2.25764">
        <ele>108</ele>
        <time>2016-12-04T09:22:02.266Z</time>
      </trkpt>
      <trkpt lat="47.78463" lon="2.25763">
        <ele>108</ele>
        <time>2016-12-04T09:22:03.268Z</time>
      </trkpt>
      <trkpt lat="47.78463" lon="2.25763">
        <ele>108</ele>
        <time>2016-12-04T09:22:04.263Z</time>
      </trkpt>
      <trkpt lat="47.78472" lon="2.25762">
        <ele>108</ele>
        <time>2016-12-04T09:22:05.266Z</time>
      </trkpt>
      <trkpt lat="47.78472" lon="2.25762">
        <ele>108</ele>
        <time>2016-12-04T09:22:06.261Z</time>
      </trkpt>
      <trkpt lat="47.7848" lon="2.25761">
        <ele>108</ele>
        <time>2016-12-04T09:22:07.273Z</time>
      </trkpt>
      <trkpt lat="47.7848" lon="2.25761">
        <ele>108</ele>
        <time>2016-12-04T09:22:08.261Z</time>
      </trkpt>
      <trkpt lat="47.78489" lon="2.25761">
        <ele>108</ele>
        <time>2016-12-04T09:22:09.266Z</time>
      </trkpt>
      <trkpt lat="47.78489" lon="2.25761">
        <ele>108</ele>
        <time>2016-12-04T09:22:10.257Z</time>
      </trkpt>
      <trkpt lat="47.78498" lon="2.25761">
        <ele>109</ele>
        <time>2016-12-04T09:22:11.245Z</time>
      </trkpt>
      <trkpt lat="47.78501" lon="2.25761">
        <ele>109</ele>
        <time>2016-12-04T09:22:12.266Z</time>
      </trkpt>
      <trkpt lat="47.78501" lon="2.25761">
        <ele>109</ele>
        <time>2016-12-04T09:22:13.264Z</time>
      </trkpt>
      <trkpt lat="47.78509" lon="2.25758">
        <ele>108</ele>
        <time>2016-12-04T09:22:14.266Z</time>
      </trkpt>
      <trkpt lat="47.78513" lon="2.25757">
        <ele>108</ele>
        <time>2016-12-04T09:22:15.267Z</time>
      </trkpt>
      <trkpt lat="47.78513" lon="2.25757">
        <ele>108</ele>
        <time>2016-12-04T09:22:16.261Z</time>
      </trkpt>
      <trkpt lat="47.78522" lon="2.25755">
        <ele>108</ele>
        <time>2016-12-04T09:22:17.269Z</time>
      </trkpt>
      <trkpt lat="47.78526" lon="2.25754">
        <ele>108</ele>
        <time>2016-12-04T09:22:18.275Z</time>
      </trkpt>
      <trkpt lat="47.78531" lon="2.25753">
        <ele>108</ele>
        <time>2016-12-04T09:22:19.266Z</time>
      </trkpt>
      <trkpt lat="47.78536" lon="2.25753">
        <ele>108</ele>
        <time>2016-12-04T09:22:20.244Z</time>
      </trkpt>
      <trkpt lat="47.78536" lon="2.25753">
        <ele>108</ele>
        <time>2016-12-04T09:22:21.278Z</time>
      </trkpt>
      <trkpt lat="47.78545" lon="2.25751">
        <ele>108</ele>
        <time>2016-12-04T09:22:22.282Z</time>
      </trkpt>
      <trkpt lat="47.7855" lon="2.2575">
        <ele>108</ele>
        <time>2016-12-04T09:22:23.274Z</time>
      </trkpt>
      <trkpt lat="47.7855" lon="2.2575">
        <ele>108</ele>
        <time>2016-12-04T09:22:24.264Z</time>
      </trkpt>
      <trkpt lat="47.7856" lon="2.25748">
        <ele>108</ele>
        <time>2016-12-04T09:22:25.266Z</time>
      </trkpt>
      <trkpt lat="47.7856" lon="2.25748">
        <ele>108</ele>
        <time>2016-12-04T09:22:26.264Z</time>
      </trkpt>
      <trkpt lat="47.78569" lon="2.25746">
        <ele>108</ele>
        <time>2016-12-04T09:22:27.267Z</time>
      </trkpt>
      <trkpt lat="47.78569" lon="2.25746">
        <ele>108</ele>
        <time>2016-12-04T09:22:28.264Z</time>
      </trkpt>
      <trkpt lat="47.78579" lon="2.25745">
        <ele>108</ele>
        <time>2016-12-04T09:22:29.263Z</time>
      </trkpt>
      <trkpt lat="47.78579" lon="2.25745">
        <ele>108</ele>
        <time>2016-12-04T09:22:30.261Z</time>
      </trkpt>
      <trkpt lat="47.78589" lon="2.25743">
        <ele>108</ele>
        <time>2016-12-04T09:22:31.245Z</time>
      </trkpt>
      <trkpt lat="47.78594" lon="2.25742">
        <ele>108</ele>
        <time>2016-12-04T09:22:32.267Z</time>
      </trkpt>
      <trkpt lat="47.78599" lon="2.25741">
        <ele>108</ele>
        <time>2016-12-04T09:22:33.269Z</time>
      </trkpt>
      <trkpt lat="47.78599" lon="2.25741">
        <ele>108</ele>
        <time>2016-12-04T09:22:34.261Z</time>
      </trkpt>
      <trkpt lat="47.7861" lon="2.25739">
        <ele>108</ele>
        <time>2016-12-04T09:22:35.266Z</time>
      </trkpt>
      <trkpt lat="47.7861" lon="2.25739">
        <ele>108</ele>
        <time>2016-12-04T09:22:36.265Z</time>
      </trkpt>
      <trkpt lat="47.7862" lon="2.25737">
        <ele>108</ele>
        <time>2016-12-04T09:22:37.265Z</time>
      </trkpt>
      <trkpt lat="47.78626" lon="2.25736">
        <ele>108</ele>
        <time>2016-12-04T09:22:38.266Z</time>
      </trkpt>
      <trkpt lat="47.78631" lon="2.25735">
        <ele>108</ele>
        <time>2016-12-04T09:22:39.267Z</time>
      </trkpt>
      <trkpt lat="47.78631" lon="2.25735">
        <ele>108</ele>
        <time>2016-12-04T09:22:40.264Z</time>
      </trkpt>
      <trkpt lat="47.78642" lon="2.25731">
        <ele>108</ele>
        <time>2016-12-04T09:22:41.274Z</time>
      </trkpt>
      <trkpt lat="47.78647" lon="2.25728">
        <ele>107</ele>
        <time>2016-12-04T09:22:42.264Z</time>
      </trkpt>
      <trkpt lat="47.78647" lon="2.25728">
        <ele>107</ele>
        <time>2016-12-04T09:22:43.270Z</time>
      </trkpt>
      <trkpt lat="47.78657" lon="2.25722">
        <ele>107</ele>
        <time>2016-12-04T09:22:44.266Z</time>
      </trkpt>
      <trkpt lat="47.78657" lon="2.25722">
        <ele>107</ele>
        <time>2016-12-04T09:22:45.264Z</time>
      </trkpt>
      <trkpt lat="47.78667" lon="2.25716">
        <ele>107</ele>
        <time>2016-12-04T09:22:46.281Z</time>
      </trkpt>
      <trkpt lat="47.78672" lon="2.25712">
        <ele>107</ele>
        <time>2016-12-04T09:22:47.278Z</time>
      </trkpt>
      <trkpt lat="47.78672" lon="2.25712">
        <ele>107</ele>
        <time>2016-12-04T09:22:48.271Z</time>
      </trkpt>
      <trkpt lat="47.78681" lon="2.25704">
        <ele>107</ele>
        <time>2016-12-04T09:22:49.267Z</time>
      </trkpt>
      <trkpt lat="47.78681" lon="2.25704">
        <ele>107</ele>
        <time>2016-12-04T09:22:50.264Z</time>
      </trkpt>
      <trkpt lat="47.7869" lon="2.25697">
        <ele>107</ele>
        <time>2016-12-04T09:22:51.272Z</time>
      </trkpt>
      <trkpt lat="47.78694" lon="2.25693">
        <ele>107</ele>
        <time>2016-12-04T09:22:52.266Z</time>
      </trkpt>
      <trkpt lat="47.78699" lon="2.2569">
        <ele>107</ele>
        <time>2016-12-04T09:22:53.266Z</time>
      </trkpt>
      <trkpt lat="47.78699" lon="2.2569">
        <ele>107</ele>
        <time>2016-12-04T09:22:54.264Z</time>
      </trkpt>
      <trkpt lat="47.78708" lon="2.25683">
        <ele>107</ele>
        <time>2016-12-04T09:22:55.266Z</time>
      </trkpt>
      <trkpt lat="47.78708" lon="2.25683">
        <ele>107</ele>
        <time>2016-12-04T09:22:56.268Z</time>
      </trkpt>
      <trkpt lat="47.78716" lon="2.25677">
        <ele>107</ele>
        <time>2016-12-04T09:22:57.267Z</time>
      </trkpt>
      <trkpt lat="47.78716" lon="2.25677">
        <ele>107</ele>
        <time>2016-12-04T09:22:58.263Z</time>
      </trkpt>
      <trkpt lat="47.78724" lon="2.2567">
        <ele>107</ele>
        <time>2016-12-04T09:22:59.267Z</time>
      </trkpt>
      <trkpt lat="47.78724" lon="2.2567">
        <ele>107</ele>
        <time>2016-12-04T09:23:00.262Z</time>
      </trkpt>
      <trkpt lat="47.78733" lon="2.25663">
        <ele>107</ele>
        <time>2016-12-04T09:23:01.259Z</time>
      </trkpt>
      <trkpt lat="47.78737" lon="2.2566">
        <ele>107</ele>
        <time>2016-12-04T09:23:02.265Z</time>
      </trkpt>
      <trkpt lat="47.78741" lon="2.25656">
        <ele>107</ele>
        <time>2016-12-04T09:23:03.265Z</time>
      </trkpt>
      <trkpt lat="47.78741" lon="2.25656">
        <ele>107</ele>
        <time>2016-12-04T09:23:04.262Z</time>
      </trkpt>
      <trkpt lat="47.78751" lon="2.25649">
        <ele>107</ele>
        <time>2016-12-04T09:23:05.266Z</time>
      </trkpt>
      <trkpt lat="47.78751" lon="2.25649">
        <ele>107</ele>
        <time>2016-12-04T09:23:06.263Z</time>
      </trkpt>
      <trkpt lat="47.7876" lon="2.25641">
        <ele>107</ele>
        <time>2016-12-04T09:23:07.266Z</time>
      </trkpt>
      <trkpt lat="47.78764" lon="2.25637">
        <ele>107</ele>
        <time>2016-12-04T09:23:08.266Z</time>
      </trkpt>
      <trkpt lat="47.78769" lon="2.25633">
        <ele>107</ele>
        <time>2016-12-04T09:23:09.268Z</time>
      </trkpt>
      <trkpt lat="47.78769" lon="2.25633">
        <ele>107</ele>
        <time>2016-12-04T09:23:10.260Z</time>
      </trkpt>
      <trkpt lat="47.78778" lon="2.25625">
        <ele>106</ele>
        <time>2016-12-04T09:23:11.260Z</time>
      </trkpt>
      <trkpt lat="47.78782" lon="2.25621">
        <ele>107</ele>
        <time>2016-12-04T09:23:12.262Z</time>
      </trkpt>
      <trkpt lat="47.78787" lon="2.25617">
        <ele>106</ele>
        <time>2016-12-04T09:23:13.266Z</time>
      </trkpt>
      <trkpt lat="47.78792" lon="2.25613">
        <ele>107</ele>
        <time>2016-12-04T09:23:14.264Z</time>
      </trkpt>
      <trkpt lat="47.78796" lon="2.25609">
        <ele>107</ele>
        <time>2016-12-04T09:23:15.268Z</time>
      </trkpt>
      <trkpt lat="47.78796" lon="2.25609">
        <ele>107</ele>
        <time>2016-12-04T09:23:16.264Z</time>
      </trkpt>
      <trkpt lat="47.78806" lon="2.25601">
        <ele>106</ele>
        <time>2016-12-04T09:23:17.282Z</time>
      </trkpt>
      <trkpt lat="47.78806" lon="2.25601">
        <ele>106</ele>
        <time>2016-12-04T09:23:18.247Z</time>
      </trkpt>
      <trkpt lat="47.78815" lon="2.25592">
        <ele>106</ele>
        <time>2016-12-04T09:23:19.281Z</time>
      </trkpt>
      <trkpt lat="47.7882" lon="2.25588">
        <ele>106</ele>
        <time>2016-12-04T09:23:20.268Z</time>
      </trkpt>
      <trkpt lat="47.7882" lon="2.25588">
        <ele>106</ele>
        <time>2016-12-04T09:23:21.259Z</time>
      </trkpt>
      <trkpt lat="47.7883" lon="2.25579">
        <ele>106</ele>
        <time>2016-12-04T09:23:22.266Z</time>
      </trkpt>
      <trkpt lat="47.78834" lon="2.25575">
        <ele>106</ele>
        <time>2016-12-04T09:23:23.267Z</time>
      </trkpt>
      <trkpt lat="47.78834" lon="2.25575">
        <ele>106</ele>
        <time>2016-12-04T09:23:24.261Z</time>
      </trkpt>
      <trkpt lat="47.78842" lon="2.25567">
        <ele>106</ele>
        <time>2016-12-04T09:23:25.267Z</time>
      </trkpt>
      <trkpt lat="47.78842" lon="2.25567">
        <ele>106</ele>
        <time>2016-12-04T09:23:26.263Z</time>
      </trkpt>
      <trkpt lat="47.7885" lon="2.25559">
        <ele>106</ele>
        <time>2016-12-04T09:23:27.268Z</time>
      </trkpt>
      <trkpt lat="47.7885" lon="2.25559">
        <ele>106</ele>
        <time>2016-12-04T09:23:28.261Z</time>
      </trkpt>
      <trkpt lat="47.78857" lon="2.25552">
        <ele>106</ele>
        <time>2016-12-04T09:23:29.264Z</time>
      </trkpt>
      <trkpt lat="47.78857" lon="2.25552">
        <ele>106</ele>
        <time>2016-12-04T09:23:30.263Z</time>
      </trkpt>
      <trkpt lat="47.78863" lon="2.25545">
        <ele>107</ele>
        <time>2016-12-04T09:23:31.259Z</time>
      </trkpt>
      <trkpt lat="47.78866" lon="2.2554">
        <ele>107</ele>
        <time>2016-12-04T09:23:32.248Z</time>
      </trkpt>
      <trkpt lat="47.78869" lon="2.25536">
        <ele>107</ele>
        <time>2016-12-04T09:23:33.280Z</time>
      </trkpt>
      <trkpt lat="47.78869" lon="2.25536">
        <ele>107</ele>
        <time>2016-12-04T09:23:34.266Z</time>
      </trkpt>
      <trkpt lat="47.78874" lon="2.25527">
        <ele>106</ele>
        <time>2016-12-04T09:23:35.264Z</time>
      </trkpt>
      <trkpt lat="47.78874" lon="2.25527">
        <ele>106</ele>
        <time>2016-12-04T09:23:36.264Z</time>
      </trkpt>
      <trkpt lat="47.7888" lon="2.25517">
        <ele>106</ele>
        <time>2016-12-04T09:23:37.266Z</time>
      </trkpt>
      <trkpt lat="47.78884" lon="2.25512">
        <ele>106</ele>
        <time>2016-12-04T09:23:38.266Z</time>
      </trkpt>
      <trkpt lat="47.78887" lon="2.25507">
        <ele>106</ele>
        <time>2016-12-04T09:23:39.268Z</time>
      </trkpt>
      <trkpt lat="47.78887" lon="2.25507">
        <ele>106</ele>
        <time>2016-12-04T09:23:40.264Z</time>
      </trkpt>
      <trkpt lat="47.78894" lon="2.25497">
        <ele>105</ele>
        <time>2016-12-04T09:23:41.268Z</time>
      </trkpt>
      <trkpt lat="47.78898" lon="2.25491">
        <ele>105</ele>
        <time>2016-12-04T09:23:42.266Z</time>
      </trkpt>
      <trkpt lat="47.78898" lon="2.25491">
        <ele>105</ele>
        <time>2016-12-04T09:23:43.263Z</time>
      </trkpt>
      <trkpt lat="47.78905" lon="2.25481">
        <ele>105</ele>
        <time>2016-12-04T09:23:44.263Z</time>
      </trkpt>
      <trkpt lat="47.78909" lon="2.25475">
        <ele>106</ele>
        <time>2016-12-04T09:23:45.268Z</time>
      </trkpt>
      <trkpt lat="47.78909" lon="2.25475">
        <ele>106</ele>
        <time>2016-12-04T09:23:46.262Z</time>
      </trkpt>
      <trkpt lat="47.78917" lon="2.25464">
        <ele>106</ele>
        <time>2016-12-04T09:23:47.267Z</time>
      </trkpt>
      <trkpt lat="47.78917" lon="2.25464">
        <ele>106</ele>
        <time>2016-12-04T09:23:48.264Z</time>
      </trkpt>
      <trkpt lat="47.78926" lon="2.25455">
        <ele>106</ele>
        <time>2016-12-04T09:23:49.266Z</time>
      </trkpt>
      <trkpt lat="47.78926" lon="2.25455">
        <ele>106</ele>
        <time>2016-12-04T09:23:50.263Z</time>
      </trkpt>
      <trkpt lat="47.78933" lon="2.25445">
        <ele>106</ele>
        <time>2016-12-04T09:23:51.263Z</time>
      </trkpt>
      <trkpt lat="47.78938" lon="2.25441">
        <ele>106</ele>
        <time>2016-12-04T09:23:52.266Z</time>
      </trkpt>
      <trkpt lat="47.78942" lon="2.25437">
        <ele>106</ele>
        <time>2016-12-04T09:23:53.267Z</time>
      </trkpt>
      <trkpt lat="47.78942" lon="2.25437">
        <ele>106</ele>
        <time>2016-12-04T09:23:54.261Z</time>
      </trkpt>
      <trkpt lat="47.7895" lon="2.25429">
        <ele>106</ele>
        <time>2016-12-04T09:23:55.266Z</time>
      </trkpt>
      <trkpt lat="47.7895" lon="2.25429">
        <ele>106</ele>
        <time>2016-12-04T09:23:56.263Z</time>
      </trkpt>
      <trkpt lat="47.78957" lon="2.25421">
        <ele>106</ele>
        <time>2016-12-04T09:23:57.267Z</time>
      </trkpt>
      <trkpt lat="47.78957" lon="2.25421">
        <ele>106</ele>
        <time>2016-12-04T09:23:58.263Z</time>
      </trkpt>
      <trkpt lat="47.78965" lon="2.25413">
        <ele>106</ele>
        <time>2016-12-04T09:23:59.265Z</time>
      </trkpt>
      <trkpt lat="47.78965" lon="2.25413">
        <ele>106</ele>
        <time>2016-12-04T09:24:00.262Z</time>
      </trkpt>
      <trkpt lat="47.78972" lon="2.25404">
        <ele>105</ele>
        <time>2016-12-04T09:24:01.267Z</time>
      </trkpt>
      <trkpt lat="47.78976" lon="2.25401">
        <ele>106</ele>
        <time>2016-12-04T09:24:02.266Z</time>
      </trkpt>
      <trkpt lat="47.7898" lon="2.25397">
        <ele>106</ele>
        <time>2016-12-04T09:24:03.268Z</time>
      </trkpt>
      <trkpt lat="47.7898" lon="2.25397">
        <ele>106</ele>
        <time>2016-12-04T09:24:04.263Z</time>
      </trkpt>
      <trkpt lat="47.7899" lon="2.2539">
        <ele>106</ele>
        <time>2016-12-04T09:24:05.267Z</time>
      </trkpt>
      <trkpt lat="47.7899" lon="2.2539">
        <ele>106</ele>
        <time>2016-12-04T09:24:06.264Z</time>
      </trkpt>
      <trkpt lat="47.78998" lon="2.25383">
        <ele>106</ele>
        <time>2016-12-04T09:24:07.282Z</time>
      </trkpt>
      <trkpt lat="47.78998" lon="2.25383">
        <ele>106</ele>
        <time>2016-12-04T09:24:08.269Z</time>
      </trkpt>
      <trkpt lat="47.79006" lon="2.25374">
        <ele>106</ele>
        <time>2016-12-04T09:24:09.267Z</time>
      </trkpt>
      <trkpt lat="47.79006" lon="2.25374">
        <ele>106</ele>
        <time>2016-12-04T09:24:10.263Z</time>
      </trkpt>
      <trkpt lat="47.79016" lon="2.25366">
        <ele>107</ele>
        <time>2016-12-04T09:24:11.260Z</time>
      </trkpt>
      <trkpt lat="47.79021" lon="2.25361">
        <ele>107</ele>
        <time>2016-12-04T09:24:12.266Z</time>
      </trkpt>
      <trkpt lat="47.79021" lon="2.25361">
        <ele>107</ele>
        <time>2016-12-04T09:24:13.268Z</time>
      </trkpt>
      <trkpt lat="47.79029" lon="2.2535">
        <ele>108</ele>
        <time>2016-12-04T09:24:14.266Z</time>
      </trkpt>
      <trkpt lat="47.79034" lon="2.25344">
        <ele>107</ele>
        <time>2016-12-04T09:24:15.269Z</time>
      </trkpt>
      <trkpt lat="47.79034" lon="2.25344">
        <ele>107</ele>
        <time>2016-12-04T09:24:16.264Z</time>
      </trkpt>
      <trkpt lat="47.79042" lon="2.25332">
        <ele>107</ele>
        <time>2016-12-04T09:24:17.267Z</time>
      </trkpt>
      <trkpt lat="47.79042" lon="2.25332">
        <ele>107</ele>
        <time>2016-12-04T09:24:18.263Z</time>
      </trkpt>
      <trkpt lat="47.79049" lon="2.25321">
        <ele>106</ele>
        <time>2016-12-04T09:24:19.263Z</time>
      </trkpt>
      <trkpt lat="47.79053" lon="2.25315">
        <ele>106</ele>
        <time>2016-12-04T09:24:20.266Z</time>
      </trkpt>
      <trkpt lat="47.79053" lon="2.25315">
        <ele>106</ele>
        <time>2016-12-04T09:24:21.269Z</time>
      </trkpt>
      <trkpt lat="47.79061" lon="2.25304">
        <ele>105</ele>
        <time>2016-12-04T09:24:22.263Z</time>
      </trkpt>
      <trkpt lat="47.79065" lon="2.25299">
        <ele>105</ele>
        <time>2016-12-04T09:24:23.266Z</time>
      </trkpt>
      <trkpt lat="47.79065" lon="2.25299">
        <ele>105</ele>
        <time>2016-12-04T09:24:24.264Z</time>
      </trkpt>
      <trkpt lat="47.79074" lon="2.25288">
        <ele>105</ele>
        <time>2016-12-04T09:24:25.266Z</time>
      </trkpt>
      <trkpt lat="47.79074" lon="2.25288">
        <ele>105</ele>
        <time>2016-12-04T09:24:26.264Z</time>
      </trkpt>
      <trkpt lat="47.79083" lon="2.25276">
        <ele>105</ele>
        <time>2016-12-04T09:24:27.267Z</time>
      </trkpt>
      <trkpt lat="47.79083" lon="2.25276">
        <ele>105</ele>
        <time>2016-12-04T09:24:28.263Z</time>
      </trkpt>
      <trkpt lat="47.79091" lon="2.25265">
        <ele>105</ele>
        <time>2016-12-04T09:24:29.267Z</time>
      </trkpt>
      <trkpt lat="47.79091" lon="2.25265">
        <ele>105</ele>
        <time>2016-12-04T09:24:30.264Z</time>
      </trkpt>
      <trkpt lat="47.791" lon="2.25254">
        <ele>106</ele>
        <time>2016-12-04T09:24:31.260Z</time>
      </trkpt>
      <trkpt lat="47.79105" lon="2.25248">
        <ele>106</ele>
        <time>2016-12-04T09:24:32.276Z</time>
      </trkpt>
      <trkpt lat="47.79109" lon="2.25242">
        <ele>106</ele>
        <time>2016-12-04T09:24:33.268Z</time>
      </trkpt>
      <trkpt lat="47.79109" lon="2.25242">
        <ele>106</ele>
        <time>2016-12-04T09:24:34.264Z</time>
      </trkpt>
      <trkpt lat="47.79118" lon="2.25231">
        <ele>106</ele>
        <time>2016-12-04T09:24:35.267Z</time>
      </trkpt>
      <trkpt lat="47.79118" lon="2.25231">
        <ele>106</ele>
        <time>2016-12-04T09:24:36.261Z</time>
      </trkpt>
      <trkpt lat="47.79127" lon="2.25219">
        <ele>106</ele>
        <time>2016-12-04T09:24:37.268Z</time>
      </trkpt>
      <trkpt lat="47.79127" lon="2.25219">
        <ele>106</ele>
        <time>2016-12-04T09:24:38.264Z</time>
      </trkpt>
      <trkpt lat="47.79135" lon="2.25208">
        <ele>106</ele>
        <time>2016-12-04T09:24:39.265Z</time>
      </trkpt>
      <trkpt lat="47.79135" lon="2.25208">
        <ele>106</ele>
        <time>2016-12-04T09:24:40.261Z</time>
      </trkpt>
      <trkpt lat="47.79142" lon="2.25197">
        <ele>106</ele>
        <time>2016-12-04T09:24:41.267Z</time>
      </trkpt>
      <trkpt lat="47.79142" lon="2.25197">
        <ele>106</ele>
        <time>2016-12-04T09:24:42.265Z</time>
      </trkpt>
      <trkpt lat="47.7915" lon="2.25187">
        <ele>106</ele>
        <time>2016-12-04T09:24:43.266Z</time>
      </trkpt>
      <trkpt lat="47.7915" lon="2.25187">
        <ele>106</ele>
        <time>2016-12-04T09:24:44.278Z</time>
      </trkpt>
      <trkpt lat="47.79157" lon="2.25177">
        <ele>106</ele>
        <time>2016-12-04T09:24:45.268Z</time>
      </trkpt>
      <trkpt lat="47.79157" lon="2.25177">
        <ele>106</ele>
        <time>2016-12-04T09:24:46.264Z</time>
      </trkpt>
      <trkpt lat="47.79164" lon="2.25167">
        <ele>106</ele>
        <time>2016-12-04T09:24:47.266Z</time>
      </trkpt>
      <trkpt lat="47.79164" lon="2.25167">
        <ele>106</ele>
        <time>2016-12-04T09:24:48.264Z</time>
      </trkpt>
      <trkpt lat="47.79171" lon="2.25157">
        <ele>106</ele>
        <time>2016-12-04T09:24:49.266Z</time>
      </trkpt>
      <trkpt lat="47.79171" lon="2.25157">
        <ele>106</ele>
        <time>2016-12-04T09:24:50.264Z</time>
      </trkpt>
      <trkpt lat="47.79178" lon="2.25148">
        <ele>106</ele>
        <time>2016-12-04T09:24:51.260Z</time>
      </trkpt>
      <trkpt lat="47.7918" lon="2.25145">
        <ele>106</ele>
        <time>2016-12-04T09:24:52.266Z</time>
      </trkpt>
      <trkpt lat="47.79183" lon="2.25143">
        <ele>106</ele>
        <time>2016-12-04T09:24:53.268Z</time>
      </trkpt>
      <trkpt lat="47.79183" lon="2.25143">
        <ele>106</ele>
        <time>2016-12-04T09:24:54.264Z</time>
      </trkpt>
      <trkpt lat="47.79186" lon="2.25137">
        <ele>106</ele>
        <time>2016-12-04T09:24:55.266Z</time>
      </trkpt>
      <trkpt lat="47.79186" lon="2.25137">
        <ele>106</ele>
        <time>2016-12-04T09:24:56.264Z</time>
      </trkpt>
      <trkpt lat="47.7919" lon="2.25129">
        <ele>106</ele>
        <time>2016-12-04T09:24:57.266Z</time>
      </trkpt>
      <trkpt lat="47.7919" lon="2.25129">
        <ele>106</ele>
        <time>2016-12-04T09:24:58.262Z</time>
      </trkpt>
      <trkpt lat="47.79193" lon="2.25118">
        <ele>106</ele>
        <time>2016-12-04T09:24:59.267Z</time>
      </trkpt>
      <trkpt lat="47.79193" lon="2.25118">
        <ele>106</ele>
        <time>2016-12-04T09:25:00.264Z</time>
      </trkpt>
      <trkpt lat="47.79195" lon="2.2511">
        <ele>106</ele>
        <time>2016-12-04T09:25:01.260Z</time>
      </trkpt>
      <trkpt lat="47.79196" lon="2.25108">
        <ele>106</ele>
        <time>2016-12-04T09:25:02.267Z</time>
      </trkpt>
      <trkpt lat="47.79197" lon="2.25106">
        <ele>106</ele>
        <time>2016-12-04T09:25:03.267Z</time>
      </trkpt>
      <trkpt lat="47.79197" lon="2.25106">
        <ele>106</ele>
        <time>2016-12-04T09:25:04.264Z</time>
      </trkpt>
      <trkpt lat="47.79198" lon="2.25102">
        <ele>106</ele>
        <time>2016-12-04T09:25:05.274Z</time>
      </trkpt>
      <trkpt lat="47.79198" lon="2.25102">
        <ele>106</ele>
        <time>2016-12-04T09:25:06.277Z</time>
      </trkpt>
      <trkpt lat="47.79199" lon="2.25098">
        <ele>106</ele>
        <time>2016-12-04T09:25:07.268Z</time>
      </trkpt>
      <trkpt lat="47.79199" lon="2.25098">
        <ele>106</ele>
        <time>2016-12-04T09:25:08.261Z</time>
      </trkpt>
      <trkpt lat="47.792" lon="2.25096">
        <ele>106</ele>
        <time>2016-12-04T09:25:09.268Z</time>
      </trkpt>
      <trkpt lat="47.792" lon="2.25096">
        <ele>106</ele>
        <time>2016-12-04T09:25:10.255Z</time>
      </trkpt>
      <trkpt lat="47.79201" lon="2.25092">
        <ele>106</ele>
        <time>2016-12-04T09:25:11.255Z</time>
      </trkpt>
      <trkpt lat="47.79201" lon="2.25092">
        <ele>106</ele>
        <time>2016-12-04T09:25:12.253Z</time>
      </trkpt>
      <trkpt lat="47.79203" lon="2.25089">
        <ele>105</ele>
        <time>2016-12-04T09:25:13.254Z</time>
      </trkpt>
      <trkpt lat="47.79204" lon="2.25087">
        <ele>105</ele>
        <time>2016-12-04T09:25:14.255Z</time>
      </trkpt>
      <trkpt lat="47.79204" lon="2.25087">
        <ele>105</ele>
        <time>2016-12-04T09:25:15.256Z</time>
      </trkpt>
      <trkpt lat="47.79206" lon="2.25084">
        <ele>105</ele>
        <time>2016-12-04T09:25:16.246Z</time>
      </trkpt>
      <trkpt lat="47.79206" lon="2.25084">
        <ele>105</ele>
        <time>2016-12-04T09:25:17.256Z</time>
      </trkpt>
      <trkpt lat="47.79208" lon="2.25079">
        <ele>105</ele>
        <time>2016-12-04T09:25:18.262Z</time>
      </trkpt>
      <trkpt lat="47.79209" lon="2.25076">
        <ele>105</ele>
        <time>2016-12-04T09:25:19.269Z</time>
      </trkpt>
      <trkpt lat="47.79209" lon="2.25076">
        <ele>105</ele>
        <time>2016-12-04T09:25:20.258Z</time>
      </trkpt>
      <trkpt lat="47.79213" lon="2.25069">
        <ele>105</ele>
        <time>2016-12-04T09:25:21.277Z</time>
      </trkpt>
      <trkpt lat="47.79215" lon="2.25065">
        <ele>105</ele>
        <time>2016-12-04T09:25:22.265Z</time>
      </trkpt>
      <trkpt lat="47.79215" lon="2.25065">
        <ele>105</ele>
        <time>2016-12-04T09:25:23.254Z</time>
      </trkpt>
      <trkpt lat="47.79219" lon="2.25057">
        <ele>105</ele>
        <time>2016-12-04T09:25:24.255Z</time>
      </trkpt>
      <trkpt lat="47.79219" lon="2.25057">
        <ele>105</ele>
        <time>2016-12-04T09:25:25.265Z</time>
      </trkpt>
      <trkpt lat="47.79223" lon="2.25048">
        <ele>105</ele>
        <time>2016-12-04T09:25:26.270Z</time>
      </trkpt>
      <trkpt lat="47.79225" lon="2.25044">
        <ele>105</ele>
        <time>2016-12-04T09:25:27.260Z</time>
      </trkpt>
      <trkpt lat="47.79225" lon="2.25044">
        <ele>105</ele>
        <time>2016-12-04T09:25:28.253Z</time>
      </trkpt>
      <trkpt lat="47.79229" lon="2.25035">
        <ele>105</ele>
        <time>2016-12-04T09:25:29.249Z</time>
      </trkpt>
      <trkpt lat="47.79231" lon="2.2503">
        <ele>105</ele>
        <time>2016-12-04T09:25:30.256Z</time>
      </trkpt>
      <trkpt lat="47.79231" lon="2.2503">
        <ele>105</ele>
        <time>2016-12-04T09:25:31.253Z</time>
      </trkpt>
      <trkpt lat="47.79236" lon="2.2502">
        <ele>105</ele>
        <time>2016-12-04T09:25:32.256Z</time>
      </trkpt>
      <trkpt lat="47.79239" lon="2.25015">
        <ele>105</ele>
        <time>2016-12-04T09:25:33.259Z</time>
      </trkpt>
      <trkpt lat="47.79239" lon="2.25015">
        <ele>105</ele>
        <time>2016-12-04T09:25:34.253Z</time>
      </trkpt>
      <trkpt lat="47.79244" lon="2.25006">
        <ele>105</ele>
        <time>2016-12-04T09:25:35.254Z</time>
      </trkpt>
      <trkpt lat="47.79244" lon="2.25006">
        <ele>105</ele>
        <time>2016-12-04T09:25:36.254Z</time>
      </trkpt>
      <trkpt lat="47.79249" lon="2.24995">
        <ele>105</ele>
        <time>2016-12-04T09:25:37.254Z</time>
      </trkpt>
      <trkpt lat="47.79251" lon="2.2499">
        <ele>105</ele>
        <time>2016-12-04T09:25:38.257Z</time>
      </trkpt>
      <trkpt lat="47.79251" lon="2.2499">
        <ele>105</ele>
        <time>2016-12-04T09:25:39.247Z</time>
      </trkpt>
      <trkpt lat="47.79256" lon="2.24979">
        <ele>105</ele>
        <time>2016-12-04T09:25:40.256Z</time>
      </trkpt>
      <trkpt lat="47.79256" lon="2.24979">
        <ele>105</ele>
        <time>2016-12-04T09:25:41.260Z</time>
      </trkpt>
      <trkpt lat="47.79261" lon="2.24969">
        <ele>105</ele>
        <time>2016-12-04T09:25:42.255Z</time>
      </trkpt>
      <trkpt lat="47.79264" lon="2.24964">
        <ele>105</ele>
        <time>2016-12-04T09:25:43.256Z</time>
      </trkpt>
      <trkpt lat="47.79264" lon="2.24964">
        <ele>105</ele>
        <time>2016-12-04T09:25:44.253Z</time>
      </trkpt>
      <trkpt lat="47.79268" lon="2.24955">
        <ele>105</ele>
        <time>2016-12-04T09:25:45.257Z</time>
      </trkpt>
      <trkpt lat="47.79268" lon="2.24955">
        <ele>105</ele>
        <time>2016-12-04T09:25:46.251Z</time>
      </trkpt>
      <trkpt lat="47.79273" lon="2.24945">
        <ele>105</ele>
        <time>2016-12-04T09:25:47.256Z</time>
      </trkpt>
      <trkpt lat="47.79273" lon="2.24945">
        <ele>105</ele>
        <time>2016-12-04T09:25:48.256Z</time>
      </trkpt>
      <trkpt lat="47.79279" lon="2.24936">
        <ele>105</ele>
        <time>2016-12-04T09:25:49.248Z</time>
      </trkpt>
      <trkpt lat="47.79279" lon="2.24936">
        <ele>105</ele>
        <time>2016-12-04T09:25:50.276Z</time>
      </trkpt>
      <trkpt lat="47.79284" lon="2.24926">
        <ele>105</ele>
        <time>2016-12-04T09:25:51.264Z</time>
      </trkpt>
      <trkpt lat="47.79287" lon="2.24921">
        <ele>105</ele>
        <time>2016-12-04T09:25:52.255Z</time>
      </trkpt>
      <trkpt lat="47.79287" lon="2.24921">
        <ele>105</ele>
        <time>2016-12-04T09:25:53.248Z</time>
      </trkpt>
      <trkpt lat="47.79292" lon="2.24911">
        <ele>105</ele>
        <time>2016-12-04T09:25:54.267Z</time>
      </trkpt>
      <trkpt lat="47.79292" lon="2.24911">
        <ele>105</ele>
        <time>2016-12-04T09:25:55.257Z</time>
      </trkpt>
      <trkpt lat="47.79297" lon="2.24902">
        <ele>105</ele>
        <time>2016-12-04T09:25:56.255Z</time>
      </trkpt>
      <trkpt lat="47.793" lon="2.24897">
        <ele>105</ele>
        <time>2016-12-04T09:25:57.256Z</time>
      </trkpt>
      <trkpt lat="47.793" lon="2.24897">
        <ele>105</ele>
        <time>2016-12-04T09:25:58.253Z</time>
      </trkpt>
      <trkpt lat="47.79305" lon="2.24888">
        <ele>105</ele>
        <time>2016-12-04T09:25:59.249Z</time>
      </trkpt>
      <trkpt lat="47.79305" lon="2.24888">
        <ele>105</ele>
        <time>2016-12-04T09:26:00.254Z</time>
      </trkpt>
      <trkpt lat="47.7931" lon="2.24878">
        <ele>105</ele>
        <time>2016-12-04T09:26:01.251Z</time>
      </trkpt>
      <trkpt lat="47.79313" lon="2.24873">
        <ele>105</ele>
        <time>2016-12-04T09:26:02.256Z</time>
      </trkpt>
      <trkpt lat="47.79315" lon="2.24868">
        <ele>105</ele>
        <time>2016-12-04T09:26:03.254Z</time>
      </trkpt>
      <trkpt lat="47.79315" lon="2.24868">
        <ele>105</ele>
        <time>2016-12-04T09:26:04.252Z</time>
      </trkpt>
      <trkpt lat="47.7932" lon="2.24859">
        <ele>105</ele>
        <time>2016-12-04T09:26:05.256Z</time>
      </trkpt>
      <trkpt lat="47.7932" lon="2.24859">
        <ele>105</ele>
        <time>2016-12-04T09:26:06.265Z</time>
      </trkpt>
      <trkpt lat="47.79325" lon="2.24852">
        <ele>105</ele>
        <time>2016-12-04T09:26:07.256Z</time>
      </trkpt>
      <trkpt lat="47.79325" lon="2.24852">
        <ele>105</ele>
        <time>2016-12-04T09:26:08.252Z</time>
      </trkpt>
      <trkpt lat="47.7933" lon="2.24849">
        <ele>105</ele>
        <time>2016-12-04T09:26:09.250Z</time>
      </trkpt>
      <trkpt lat="47.7933" lon="2.24849">
        <ele>105</ele>
        <time>2016-12-04T09:26:10.253Z</time>
      </trkpt>
      <trkpt lat="47.79336" lon="2.24845">
        <ele>105</ele>
        <time>2016-12-04T09:26:11.257Z</time>
      </trkpt>
      <trkpt lat="47.79338" lon="2.24841">
        <ele>105</ele>
        <time>2016-12-04T09:26:12.255Z</time>
      </trkpt>
      <trkpt lat="47.7934" lon="2.24835">
        <ele>105</ele>
        <time>2016-12-04T09:26:13.256Z</time>
      </trkpt>
      <trkpt lat="47.7934" lon="2.24835">
        <ele>105</ele>
        <time>2016-12-04T09:26:14.253Z</time>
      </trkpt>
      <trkpt lat="47.79342" lon="2.24823">
        <ele>105</ele>
        <time>2016-12-04T09:26:15.257Z</time>
      </trkpt>
      <trkpt lat="47.79343" lon="2.24817">
        <ele>105</ele>
        <time>2016-12-04T09:26:16.258Z</time>
      </trkpt>
      <trkpt lat="47.79344" lon="2.24811">
        <ele>105</ele>
        <time>2016-12-04T09:26:17.256Z</time>
      </trkpt>
      <trkpt lat="47.79344" lon="2.24811">
        <ele>105</ele>
        <time>2016-12-04T09:26:18.254Z</time>
      </trkpt>
      <trkpt lat="47.79347" lon="2.24798">
        <ele>105</ele>
        <time>2016-12-04T09:26:19.249Z</time>
      </trkpt>
      <trkpt lat="47.79347" lon="2.24798">
        <ele>105</ele>
        <time>2016-12-04T09:26:20.253Z</time>
      </trkpt>
      <trkpt lat="47.79349" lon="2.24785">
        <ele>105</ele>
        <time>2016-12-04T09:26:21.258Z</time>
      </trkpt>
      <trkpt lat="47.79351" lon="2.24779">
        <ele>105</ele>
        <time>2016-12-04T09:26:22.257Z</time>
      </trkpt>
      <trkpt lat="47.79351" lon="2.24779">
        <ele>105</ele>
        <time>2016-12-04T09:26:23.253Z</time>
      </trkpt>
      <trkpt lat="47.79353" lon="2.24765">
        <ele>105</ele>
        <time>2016-12-04T09:26:24.270Z</time>
      </trkpt>
      <trkpt lat="47.79353" lon="2.24765">
        <ele>105</ele>
        <time>2016-12-04T09:26:25.261Z</time>
      </trkpt>
      <trkpt lat="47.79356" lon="2.24752">
        <ele>105</ele>
        <time>2016-12-04T09:26:26.257Z</time>
      </trkpt>
      <trkpt lat="47.79357" lon="2.24746">
        <ele>105</ele>
        <time>2016-12-04T09:26:27.254Z</time>
      </trkpt>
      <trkpt lat="47.79357" lon="2.24746">
        <ele>105</ele>
        <time>2016-12-04T09:26:28.252Z</time>
      </trkpt>
      <trkpt lat="47.7936" lon="2.24733">
        <ele>105</ele>
        <time>2016-12-04T09:26:29.250Z</time>
      </trkpt>
      <trkpt lat="47.79361" lon="2.24728">
        <ele>106</ele>
        <time>2016-12-04T09:26:30.251Z</time>
      </trkpt>
      <trkpt lat="47.79361" lon="2.24728">
        <ele>106</ele>
        <time>2016-12-04T09:26:31.252Z</time>
      </trkpt>
      <trkpt lat="47.79364" lon="2.24718">
        <ele>106</ele>
        <time>2016-12-04T09:26:32.256Z</time>
      </trkpt>
      <trkpt lat="47.79365" lon="2.24712">
        <ele>106</ele>
        <time>2016-12-04T09:26:33.255Z</time>
      </trkpt>
      <trkpt lat="47.79365" lon="2.24712">
        <ele>106</ele>
        <time>2016-12-04T09:26:34.254Z</time>
      </trkpt>
      <trkpt lat="47.79369" lon="2.24701">
        <ele>106</ele>
        <time>2016-12-04T09:26:35.266Z</time>
      </trkpt>
      <trkpt lat="47.79369" lon="2.24701">
        <ele>106</ele>
        <time>2016-12-04T09:26:36.255Z</time>
      </trkpt>
      <trkpt lat="47.79372" lon="2.2469">
        <ele>106</ele>
        <time>2016-12-04T09:26:37.256Z</time>
      </trkpt>
      <trkpt lat="47.79372" lon="2.2469">
        <ele>106</ele>
        <time>2016-12-04T09:26:38.254Z</time>
      </trkpt>
      <trkpt lat="47.79375" lon="2.24679">
        <ele>106</ele>
        <time>2016-12-04T09:26:39.250Z</time>
      </trkpt>
      <trkpt lat="47.79377" lon="2.24673">
        <ele>106</ele>
        <time>2016-12-04T09:26:40.256Z</time>
      </trkpt>
      <trkpt lat="47.79379" lon="2.24668">
        <ele>106</ele>
        <time>2016-12-04T09:26:41.258Z</time>
      </trkpt>
      <trkpt lat="47.79379" lon="2.24668">
        <ele>106</ele>
        <time>2016-12-04T09:26:42.276Z</time>
      </trkpt>
      <trkpt lat="47.79383" lon="2.24659">
        <ele>107</ele>
        <time>2016-12-04T09:26:43.256Z</time>
      </trkpt>
      <trkpt lat="47.79383" lon="2.24659">
        <ele>107</ele>
        <time>2016-12-04T09:26:44.252Z</time>
      </trkpt>
      <trkpt lat="47.79387" lon="2.24649">
        <ele>107</ele>
        <time>2016-12-04T09:26:45.257Z</time>
      </trkpt>
      <trkpt lat="47.79387" lon="2.24649">
        <ele>107</ele>
        <time>2016-12-04T09:26:46.254Z</time>
      </trkpt>
      <trkpt lat="47.79391" lon="2.24639">
        <ele>106</ele>
        <time>2016-12-04T09:26:47.257Z</time>
      </trkpt>
      <trkpt lat="47.79391" lon="2.24639">
        <ele>106</ele>
        <time>2016-12-04T09:26:48.253Z</time>
      </trkpt>
      <trkpt lat="47.79394" lon="2.24631">
        <ele>106</ele>
        <time>2016-12-04T09:26:49.250Z</time>
      </trkpt>
      <trkpt lat="47.79394" lon="2.24631">
        <ele>106</ele>
        <time>2016-12-04T09:26:50.254Z</time>
      </trkpt>
      <trkpt lat="47.79397" lon="2.24623">
        <ele>106</ele>
        <time>2016-12-04T09:26:51.255Z</time>
      </trkpt>
      <trkpt lat="47.79397" lon="2.24623">
        <ele>106</ele>
        <time>2016-12-04T09:26:52.254Z</time>
      </trkpt>
      <trkpt lat="47.79401" lon="2.24618">
        <ele>106</ele>
        <time>2016-12-04T09:26:53.256Z</time>
      </trkpt>
      <trkpt lat="47.79401" lon="2.24618">
        <ele>106</ele>
        <time>2016-12-04T09:26:54.253Z</time>
      </trkpt>
      <trkpt lat="47.79406" lon="2.24613">
        <ele>106</ele>
        <time>2016-12-04T09:26:55.257Z</time>
      </trkpt>
      <trkpt lat="47.79406" lon="2.24613">
        <ele>106</ele>
        <time>2016-12-04T09:26:56.254Z</time>
      </trkpt>
      <trkpt lat="47.79413" lon="2.24609">
        <ele>107</ele>
        <time>2016-12-04T09:26:57.258Z</time>
      </trkpt>
      <trkpt lat="47.79413" lon="2.24609">
        <ele>107</ele>
        <time>2016-12-04T09:26:58.254Z</time>
      </trkpt>
      <trkpt lat="47.7942" lon="2.24606">
        <ele>107</ele>
        <time>2016-12-04T09:26:59.249Z</time>
      </trkpt>
      <trkpt lat="47.79424" lon="2.24605">
        <ele>107</ele>
        <time>2016-12-04T09:27:00.256Z</time>
      </trkpt>
      <trkpt lat="47.79424" lon="2.24605">
        <ele>107</ele>
        <time>2016-12-04T09:27:01.253Z</time>
      </trkpt>
      <trkpt lat="47.79432" lon="2.24601">
        <ele>106</ele>
        <time>2016-12-04T09:27:02.256Z</time>
      </trkpt>
      <trkpt lat="47.79436" lon="2.24599">
        <ele>106</ele>
        <time>2016-12-04T09:27:03.258Z</time>
      </trkpt>
      <trkpt lat="47.79436" lon="2.24599">
        <ele>106</ele>
        <time>2016-12-04T09:27:04.254Z</time>
      </trkpt>
      <trkpt lat="47.79444" lon="2.24596">
        <ele>106</ele>
        <time>2016-12-04T09:27:05.256Z</time>
      </trkpt>
      <trkpt lat="47.79444" lon="2.24596">
        <ele>106</ele>
        <time>2016-12-04T09:27:06.251Z</time>
      </trkpt>
      <trkpt lat="47.79452" lon="2.24592">
        <ele>106</ele>
        <time>2016-12-04T09:27:07.255Z</time>
      </trkpt>
      <trkpt lat="47.79452" lon="2.24592">
        <ele>106</ele>
        <time>2016-12-04T09:27:08.254Z</time>
      </trkpt>
      <trkpt lat="47.7946" lon="2.24588">
        <ele>107</ele>
        <time>2016-12-04T09:27:09.249Z</time>
      </trkpt>
      <trkpt lat="47.79464" lon="2.24586">
        <ele>106</ele>
        <time>2016-12-04T09:27:10.255Z</time>
      </trkpt>
      <trkpt lat="47.79468" lon="2.24583">
        <ele>106</ele>
        <time>2016-12-04T09:27:11.265Z</time>
      </trkpt>
      <trkpt lat="47.79468" lon="2.24583">
        <ele>106</ele>
        <time>2016-12-04T09:27:12.254Z</time>
      </trkpt>
      <trkpt lat="47.79477" lon="2.2458">
        <ele>106</ele>
        <time>2016-12-04T09:27:13.256Z</time>
      </trkpt>
      <trkpt lat="47.79477" lon="2.2458">
        <ele>106</ele>
        <time>2016-12-04T09:27:14.254Z</time>
      </trkpt>
      <trkpt lat="47.79487" lon="2.24577">
        <ele>106</ele>
        <time>2016-12-04T09:27:15.258Z</time>
      </trkpt>
      <trkpt lat="47.79491" lon="2.24575">
        <ele>106</ele>
        <time>2016-12-04T09:27:16.254Z</time>
      </trkpt>
      <trkpt lat="47.79491" lon="2.24575">
        <ele>106</ele>
        <time>2016-12-04T09:27:17.276Z</time>
      </trkpt>
      <trkpt lat="47.795" lon="2.24572">
        <ele>106</ele>
        <time>2016-12-04T09:27:18.243Z</time>
      </trkpt>
      <trkpt lat="47.795" lon="2.24572">
        <ele>106</ele>
        <time>2016-12-04T09:27:19.249Z</time>
      </trkpt>
      <trkpt lat="47.79509" lon="2.24569">
        <ele>106</ele>
        <time>2016-12-04T09:27:20.269Z</time>
      </trkpt>
      <trkpt lat="47.79513" lon="2.24567">
        <ele>106</ele>
        <time>2016-12-04T09:27:21.263Z</time>
      </trkpt>
      <trkpt lat="47.79513" lon="2.24567">
        <ele>106</ele>
        <time>2016-12-04T09:27:22.261Z</time>
      </trkpt>
      <trkpt lat="47.79521" lon="2.24564">
        <ele>106</ele>
        <time>2016-12-04T09:27:23.256Z</time>
      </trkpt>
      <trkpt lat="47.79521" lon="2.24564">
        <ele>106</ele>
        <time>2016-12-04T09:27:24.254Z</time>
      </trkpt>
      <trkpt lat="47.7953" lon="2.2456">
        <ele>106</ele>
        <time>2016-12-04T09:27:25.263Z</time>
      </trkpt>
      <trkpt lat="47.7953" lon="2.2456">
        <ele>106</ele>
        <time>2016-12-04T09:27:26.253Z</time>
      </trkpt>
      <trkpt lat="47.79538" lon="2.24556">
        <ele>106</ele>
        <time>2016-12-04T09:27:27.258Z</time>
      </trkpt>
      <trkpt lat="47.79538" lon="2.24556">
        <ele>106</ele>
        <time>2016-12-04T09:27:28.253Z</time>
      </trkpt>
      <trkpt lat="47.79545" lon="2.24551">
        <ele>107</ele>
        <time>2016-12-04T09:27:29.249Z</time>
      </trkpt>
      <trkpt lat="47.79548" lon="2.24549">
        <ele>107</ele>
        <time>2016-12-04T09:27:30.256Z</time>
      </trkpt>
      <trkpt lat="47.79548" lon="2.24549">
        <ele>107</ele>
        <time>2016-12-04T09:27:31.252Z</time>
      </trkpt>
      <trkpt lat="47.79555" lon="2.24548">
        <ele>107</ele>
        <time>2016-12-04T09:27:32.256Z</time>
      </trkpt>
      <trkpt lat="47.79558" lon="2.24547">
        <ele>107</ele>
        <time>2016-12-04T09:27:33.255Z</time>
      </trkpt>
      <trkpt lat="47.79558" lon="2.24547">
        <ele>107</ele>
        <time>2016-12-04T09:27:34.254Z</time>
      </trkpt>
      <trkpt lat="47.79563" lon="2.24539">
        <ele>107</ele>
        <time>2016-12-04T09:27:35.256Z</time>
      </trkpt>
      <trkpt lat="47.79563" lon="2.24539">
        <ele>107</ele>
        <time>2016-12-04T09:27:36.253Z</time>
      </trkpt>
      <trkpt lat="47.79565" lon="2.24527">
        <ele>107</ele>
        <time>2016-12-04T09:27:37.256Z</time>
      </trkpt>
      <trkpt lat="47.79565" lon="2.24527">
        <ele>107</ele>
        <time>2016-12-04T09:27:38.254Z</time>
      </trkpt>
      <trkpt lat="47.79565" lon="2.24514">
        <ele>107</ele>
        <time>2016-12-04T09:27:39.251Z</time>
      </trkpt>
      <trkpt lat="47.79565" lon="2.24514">
        <ele>107</ele>
        <time>2016-12-04T09:27:40.252Z</time>
      </trkpt>
      <trkpt lat="47.79566" lon="2.24502">
        <ele>107</ele>
        <time>2016-12-04T09:27:41.258Z</time>
      </trkpt>
      <trkpt lat="47.79566" lon="2.24502">
        <ele>107</ele>
        <time>2016-12-04T09:27:42.256Z</time>
      </trkpt>
      <trkpt lat="47.79568" lon="2.2449">
        <ele>107</ele>
        <time>2016-12-04T09:27:43.270Z</time>
      </trkpt>
      <trkpt lat="47.79568" lon="2.2449">
        <ele>107</ele>
        <time>2016-12-04T09:27:44.254Z</time>
      </trkpt>
      <trkpt lat="47.79568" lon="2.24477">
        <ele>107</ele>
        <time>2016-12-04T09:27:45.256Z</time>
      </trkpt>
      <trkpt lat="47.79568" lon="2.24477">
        <ele>107</ele>
        <time>2016-12-04T09:27:46.254Z</time>
      </trkpt>
      <trkpt lat="47.79571" lon="2.24464">
        <ele>107</ele>
        <time>2016-12-04T09:27:47.257Z</time>
      </trkpt>
      <trkpt lat="47.79571" lon="2.24464">
        <ele>107</ele>
        <time>2016-12-04T09:27:48.266Z</time>
      </trkpt>
      <trkpt lat="47.79575" lon="2.2445">
        <ele>107</ele>
        <time>2016-12-04T09:27:49.257Z</time>
      </trkpt>
      <trkpt lat="47.79575" lon="2.2445">
        <ele>107</ele>
        <time>2016-12-04T09:27:50.254Z</time>
      </trkpt>
      <trkpt lat="47.79579" lon="2.24436">
        <ele>107</ele>
        <time>2016-12-04T09:27:51.257Z</time>
      </trkpt>
      <trkpt lat="47.79579" lon="2.24436">
        <ele>107</ele>
        <time>2016-12-04T09:27:52.250Z</time>
      </trkpt>
      <trkpt lat="47.79581" lon="2.24423">
        <ele>107</ele>
        <time>2016-12-04T09:27:53.257Z</time>
      </trkpt>
      <trkpt lat="47.79583" lon="2.24416">
        <ele>107</ele>
        <time>2016-12-04T09:27:54.254Z</time>
      </trkpt>
      <trkpt lat="47.79583" lon="2.24416">
        <ele>107</ele>
        <time>2016-12-04T09:27:55.254Z</time>
      </trkpt>
      <trkpt lat="47.79587" lon="2.24403">
        <ele>107</ele>
        <time>2016-12-04T09:27:56.257Z</time>
      </trkpt>
      <trkpt lat="47.79588" lon="2.24396">
        <ele>107</ele>
        <time>2016-12-04T09:27:57.258Z</time>
      </trkpt>
      <trkpt lat="47.79588" lon="2.24396">
        <ele>107</ele>
        <time>2016-12-04T09:27:58.252Z</time>
      </trkpt>
      <trkpt lat="47.79592" lon="2.24382">
        <ele>107</ele>
        <time>2016-12-04T09:27:59.250Z</time>
      </trkpt>
      <trkpt lat="47.79593" lon="2.24375">
        <ele>107</ele>
        <time>2016-12-04T09:28:00.257Z</time>
      </trkpt>
      <trkpt lat="47.79593" lon="2.24375">
        <ele>107</ele>
        <time>2016-12-04T09:28:01.254Z</time>
      </trkpt>
      <trkpt lat="47.79597" lon="2.24361">
        <ele>106</ele>
        <time>2016-12-04T09:28:02.258Z</time>
      </trkpt>
      <trkpt lat="47.79599" lon="2.24354">
        <ele>105</ele>
        <time>2016-12-04T09:28:03.255Z</time>
      </trkpt>
      <trkpt lat="47.79599" lon="2.24354">
        <ele>105</ele>
        <time>2016-12-04T09:28:04.254Z</time>
      </trkpt>
      <trkpt lat="47.79604" lon="2.24338">
        <ele>105</ele>
        <time>2016-12-04T09:28:05.257Z</time>
      </trkpt>
      <trkpt lat="47.79604" lon="2.24338">
        <ele>105</ele>
        <time>2016-12-04T09:28:06.252Z</time>
      </trkpt>
      <trkpt lat="47.7961" lon="2.24323">
        <ele>104</ele>
        <time>2016-12-04T09:28:07.258Z</time>
      </trkpt>
      <trkpt lat="47.7961" lon="2.24323">
        <ele>104</ele>
        <time>2016-12-04T09:28:08.253Z</time>
      </trkpt>
      <trkpt lat="47.79618" lon="2.24308">
        <ele>104</ele>
        <time>2016-12-04T09:28:09.249Z</time>
      </trkpt>
      <trkpt lat="47.79622" lon="2.24301">
        <ele>104</ele>
        <time>2016-12-04T09:28:10.256Z</time>
      </trkpt>
      <trkpt lat="47.79627" lon="2.24294">
        <ele>103</ele>
        <time>2016-12-04T09:28:11.262Z</time>
      </trkpt>
      <trkpt lat="47.79627" lon="2.24294">
        <ele>103</ele>
        <time>2016-12-04T09:28:12.256Z</time>
      </trkpt>
      <trkpt lat="47.79635" lon="2.2428">
        <ele>103</ele>
        <time>2016-12-04T09:28:13.257Z</time>
      </trkpt>
      <trkpt lat="47.79635" lon="2.2428">
        <ele>103</ele>
        <time>2016-12-04T09:28:14.255Z</time>
      </trkpt>
      <trkpt lat="47.79645" lon="2.24268">
        <ele>103</ele>
        <time>2016-12-04T09:28:15.258Z</time>
      </trkpt>
      <trkpt lat="47.79645" lon="2.24268">
        <ele>103</ele>
        <time>2016-12-04T09:28:16.253Z</time>
      </trkpt>
      <trkpt lat="47.79655" lon="2.24257">
        <ele>102</ele>
        <time>2016-12-04T09:28:17.247Z</time>
      </trkpt>
      <trkpt lat="47.79655" lon="2.24257">
        <ele>102</ele>
        <time>2016-12-04T09:28:18.253Z</time>
      </trkpt>
      <trkpt lat="47.79665" lon="2.24247">
        <ele>102</ele>
        <time>2016-12-04T09:28:19.259Z</time>
      </trkpt>
      <trkpt lat="47.7967" lon="2.24243">
        <ele>102</ele>
        <time>2016-12-04T09:28:20.266Z</time>
      </trkpt>
      <trkpt lat="47.79674" lon="2.24238">
        <ele>102</ele>
        <time>2016-12-04T09:28:21.259Z</time>
      </trkpt>
      <trkpt lat="47.79674" lon="2.24238">
        <ele>102</ele>
        <time>2016-12-04T09:28:22.275Z</time>
      </trkpt>
      <trkpt lat="47.79684" lon="2.2423">
        <ele>102</ele>
        <time>2016-12-04T09:28:23.266Z</time>
      </trkpt>
      <trkpt lat="47.79689" lon="2.24226">
        <ele>102</ele>
        <time>2016-12-04T09:28:24.257Z</time>
      </trkpt>
      <trkpt lat="47.79693" lon="2.24222">
        <ele>102</ele>
        <time>2016-12-04T09:28:25.257Z</time>
      </trkpt>
      <trkpt lat="47.79693" lon="2.24222">
        <ele>102</ele>
        <time>2016-12-04T09:28:26.277Z</time>
      </trkpt>
      <trkpt lat="47.79703" lon="2.24215">
        <ele>102</ele>
        <time>2016-12-04T09:28:27.267Z</time>
      </trkpt>
      <trkpt lat="47.79703" lon="2.24215">
        <ele>102</ele>
        <time>2016-12-04T09:28:28.254Z</time>
      </trkpt>
      <trkpt lat="47.79712" lon="2.24208">
        <ele>102</ele>
        <time>2016-12-04T09:28:29.248Z</time>
      </trkpt>
      <trkpt lat="47.79717" lon="2.24204">
        <ele>102</ele>
        <time>2016-12-04T09:28:30.257Z</time>
      </trkpt>
      <trkpt lat="47.79717" lon="2.24204">
        <ele>102</ele>
        <time>2016-12-04T09:28:31.254Z</time>
      </trkpt>
      <trkpt lat="47.79725" lon="2.24198">
        <ele>102</ele>
        <time>2016-12-04T09:28:32.260Z</time>
      </trkpt>
      <trkpt lat="47.79728" lon="2.24194">
        <ele>102</ele>
        <time>2016-12-04T09:28:33.270Z</time>
      </trkpt>
      <trkpt lat="47.79728" lon="2.24194">
        <ele>102</ele>
        <time>2016-12-04T09:28:34.266Z</time>
      </trkpt>
      <trkpt lat="47.79728" lon="2.24181">
        <ele>102</ele>
        <time>2016-12-04T09:28:35.258Z</time>
      </trkpt>
      <trkpt lat="47.79726" lon="2.24174">
        <ele>102</ele>
        <time>2016-12-04T09:28:36.256Z</time>
      </trkpt>
      <trkpt lat="47.79726" lon="2.24174">
        <ele>102</ele>
        <time>2016-12-04T09:28:37.254Z</time>
      </trkpt>
      <trkpt lat="47.79721" lon="2.2416">
        <ele>102</ele>
        <time>2016-12-04T09:28:38.257Z</time>
      </trkpt>
      <trkpt lat="47.79721" lon="2.2416">
        <ele>102</ele>
        <time>2016-12-04T09:28:39.258Z</time>
      </trkpt>
      <trkpt lat="47.79717" lon="2.24145">
        <ele>102</ele>
        <time>2016-12-04T09:28:40.257Z</time>
      </trkpt>
      <trkpt lat="47.79716" lon="2.24138">
        <ele>102</ele>
        <time>2016-12-04T09:28:41.257Z</time>
      </trkpt>
      <trkpt lat="47.79716" lon="2.24138">
        <ele>102</ele>
        <time>2016-12-04T09:28:42.252Z</time>
      </trkpt>
      <trkpt lat="47.79712" lon="2.24124">
        <ele>102</ele>
        <time>2016-12-04T09:28:43.273Z</time>
      </trkpt>
      <trkpt lat="47.79712" lon="2.24124">
        <ele>102</ele>
        <time>2016-12-04T09:28:44.255Z</time>
      </trkpt>
      <trkpt lat="47.79708" lon="2.2411">
        <ele>102</ele>
        <time>2016-12-04T09:28:45.264Z</time>
      </trkpt>
      <trkpt lat="47.79708" lon="2.2411">
        <ele>102</ele>
        <time>2016-12-04T09:28:46.264Z</time>
      </trkpt>
      <trkpt lat="47.79705" lon="2.24096">
        <ele>102</ele>
        <time>2016-12-04T09:28:47.258Z</time>
      </trkpt>
      <trkpt lat="47.79705" lon="2.24096">
        <ele>102</ele>
        <time>2016-12-04T09:28:48.256Z</time>
      </trkpt>
      <trkpt lat="47.79701" lon="2.24082">
        <ele>103</ele>
        <time>2016-12-04T09:28:49.250Z</time>
      </trkpt>
      <trkpt lat="47.797" lon="2.24075">
        <ele>102</ele>
        <time>2016-12-04T09:28:50.257Z</time>
      </trkpt>
      <trkpt lat="47.79698" lon="2.24068">
        <ele>102</ele>
        <time>2016-12-04T09:28:51.258Z</time>
      </trkpt>
      <trkpt lat="47.79698" lon="2.24068">
        <ele>102</ele>
        <time>2016-12-04T09:28:52.254Z</time>
      </trkpt>
      <trkpt lat="47.79694" lon="2.24054">
        <ele>102</ele>
        <time>2016-12-04T09:28:53.254Z</time>
      </trkpt>
      <trkpt lat="47.79692" lon="2.24048">
        <ele>102</ele>
        <time>2016-12-04T09:28:54.267Z</time>
      </trkpt>
      <trkpt lat="47.79692" lon="2.24048">
        <ele>102</ele>
        <time>2016-12-04T09:28:55.255Z</time>
      </trkpt>
      <trkpt lat="47.79688" lon="2.24034">
        <ele>102</ele>
        <time>2016-12-04T09:28:56.260Z</time>
      </trkpt>
      <trkpt lat="47.79688" lon="2.24034">
        <ele>102</ele>
        <time>2016-12-04T09:28:57.252Z</time>
      </trkpt>
      <trkpt lat="47.79685" lon="2.2402">
        <ele>102</ele>
        <time>2016-12-04T09:28:58.257Z</time>
      </trkpt>
      <trkpt lat="47.79685" lon="2.2402">
        <ele>102</ele>
        <time>2016-12-04T09:28:59.249Z</time>
      </trkpt>
      <trkpt lat="47.79681" lon="2.24006">
        <ele>102</ele>
        <time>2016-12-04T09:29:00.256Z</time>
      </trkpt>
      <trkpt lat="47.79679" lon="2.23998">
        <ele>102</ele>
        <time>2016-12-04T09:29:01.257Z</time>
      </trkpt>
      <trkpt lat="47.79679" lon="2.23998">
        <ele>102</ele>
        <time>2016-12-04T09:29:02.255Z</time>
      </trkpt>
      <trkpt lat="47.79675" lon="2.23983">
        <ele>102</ele>
        <time>2016-12-04T09:29:03.258Z</time>
      </trkpt>
      <trkpt lat="47.79675" lon="2.23983">
        <ele>102</ele>
        <time>2016-12-04T09:29:04.252Z</time>
      </trkpt>
      <trkpt lat="47.79672" lon="2.23968">
        <ele>102</ele>
        <time>2016-12-04T09:29:05.259Z</time>
      </trkpt>
      <trkpt lat="47.7967" lon="2.23961">
        <ele>102</ele>
        <time>2016-12-04T09:29:06.257Z</time>
      </trkpt>
      <trkpt lat="47.7967" lon="2.23961">
        <ele>102</ele>
        <time>2016-12-04T09:29:07.255Z</time>
      </trkpt>
      <trkpt lat="47.79666" lon="2.23945">
        <ele>102</ele>
        <time>2016-12-04T09:29:08.254Z</time>
      </trkpt>
      <trkpt lat="47.79666" lon="2.23945">
        <ele>102</ele>
        <time>2016-12-04T09:29:09.250Z</time>
      </trkpt>
      <trkpt lat="47.79662" lon="2.2393">
        <ele>102</ele>
        <time>2016-12-04T09:29:10.256Z</time>
      </trkpt>
      <trkpt lat="47.7966" lon="2.23922">
        <ele>102</ele>
        <time>2016-12-04T09:29:11.258Z</time>
      </trkpt>
      <trkpt lat="47.7966" lon="2.23922">
        <ele>102</ele>
        <time>2016-12-04T09:29:12.255Z</time>
      </trkpt>
      <trkpt lat="47.79657" lon="2.23907">
        <ele>102</ele>
        <time>2016-12-04T09:29:13.257Z</time>
      </trkpt>
      <trkpt lat="47.79655" lon="2.23899">
        <ele>102</ele>
        <time>2016-12-04T09:29:14.255Z</time>
      </trkpt>
      <trkpt lat="47.79655" lon="2.23899">
        <ele>102</ele>
        <time>2016-12-04T09:29:15.259Z</time>
      </trkpt>
      <trkpt lat="47.79652" lon="2.23883">
        <ele>102</ele>
        <time>2016-12-04T09:29:16.254Z</time>
      </trkpt>
      <trkpt lat="47.7965" lon="2.23875">
        <ele>102</ele>
        <time>2016-12-04T09:29:17.277Z</time>
      </trkpt>
      <trkpt lat="47.7965" lon="2.23875">
        <ele>102</ele>
        <time>2016-12-04T09:29:18.244Z</time>
      </trkpt>
      <trkpt lat="47.79646" lon="2.2386">
        <ele>102</ele>
        <time>2016-12-04T09:29:19.250Z</time>
      </trkpt>
      <trkpt lat="47.79644" lon="2.23852">
        <ele>102</ele>
        <time>2016-12-04T09:29:20.258Z</time>
      </trkpt>
      <trkpt lat="47.79642" lon="2.23844">
        <ele>102</ele>
        <time>2016-12-04T09:29:21.270Z</time>
      </trkpt>
      <trkpt lat="47.79642" lon="2.23844">
        <ele>102</ele>
        <time>2016-12-04T09:29:22.261Z</time>
      </trkpt>
      <trkpt lat="47.79639" lon="2.23828">
        <ele>102</ele>
        <time>2016-12-04T09:29:23.257Z</time>
      </trkpt>
      <trkpt lat="47.79639" lon="2.23828">
        <ele>102</ele>
        <time>2016-12-04T09:29:24.254Z</time>
      </trkpt>
      <trkpt lat="47.79636" lon="2.23812">
        <ele>102</ele>
        <time>2016-12-04T09:29:25.258Z</time>
      </trkpt>
      <trkpt lat="47.79636" lon="2.23812">
        <ele>102</ele>
        <time>2016-12-04T09:29:26.263Z</time>
      </trkpt>
      <trkpt lat="47.79632" lon="2.23797">
        <ele>102</ele>
        <time>2016-12-04T09:29:27.260Z</time>
      </trkpt>
      <trkpt lat="47.79632" lon="2.23797">
        <ele>102</ele>
        <time>2016-12-04T09:29:28.254Z</time>
      </trkpt>
      <trkpt lat="47.79628" lon="2.23781">
        <ele>102</ele>
        <time>2016-12-04T09:29:29.250Z</time>
      </trkpt>
      <trkpt lat="47.79626" lon="2.23773">
        <ele>102</ele>
        <time>2016-12-04T09:29:30.258Z</time>
      </trkpt>
      <trkpt lat="47.79625" lon="2.23765">
        <ele>102</ele>
        <time>2016-12-04T09:29:31.254Z</time>
      </trkpt>
      <trkpt lat="47.79625" lon="2.23765">
        <ele>102</ele>
        <time>2016-12-04T09:29:32.255Z</time>
      </trkpt>
      <trkpt lat="47.7962" lon="2.23749">
        <ele>102</ele>
        <time>2016-12-04T09:29:33.259Z</time>
      </trkpt>
      <trkpt lat="47.7962" lon="2.23749">
        <ele>102</ele>
        <time>2016-12-04T09:29:34.254Z</time>
      </trkpt>
      <trkpt lat="47.79617" lon="2.23733">
        <ele>102</ele>
        <time>2016-12-04T09:29:35.257Z</time>
      </trkpt>
      <trkpt lat="47.79617" lon="2.23733">
        <ele>102</ele>
        <time>2016-12-04T09:29:36.255Z</time>
      </trkpt>
      <trkpt lat="47.79613" lon="2.23716">
        <ele>102</ele>
        <time>2016-12-04T09:29:37.254Z</time>
      </trkpt>
      <trkpt lat="47.79611" lon="2.23708">
        <ele>102</ele>
        <time>2016-12-04T09:29:38.258Z</time>
      </trkpt>
      <trkpt lat="47.79611" lon="2.23708">
        <ele>102</ele>
        <time>2016-12-04T09:29:39.249Z</time>
      </trkpt>
      <trkpt lat="47.79607" lon="2.23692">
        <ele>102</ele>
        <time>2016-12-04T09:29:40.256Z</time>
      </trkpt>
      <trkpt lat="47.79605" lon="2.23684">
        <ele>102</ele>
        <time>2016-12-04T09:29:41.258Z</time>
      </trkpt>
      <trkpt lat="47.79605" lon="2.23684">
        <ele>102</ele>
        <time>2016-12-04T09:29:42.253Z</time>
      </trkpt>
      <trkpt lat="47.79603" lon="2.2367">
        <ele>102</ele>
        <time>2016-12-04T09:29:43.254Z</time>
      </trkpt>
      <trkpt lat="47.79603" lon="2.2367">
        <ele>102</ele>
        <time>2016-12-04T09:29:44.255Z</time>
      </trkpt>
      <trkpt lat="47.796" lon="2.23654">
        <ele>102</ele>
        <time>2016-12-04T09:29:45.260Z</time>
      </trkpt>
      <trkpt lat="47.796" lon="2.23654">
        <ele>102</ele>
        <time>2016-12-04T09:29:46.254Z</time>
      </trkpt>
      <trkpt lat="47.79598" lon="2.23639">
        <ele>102</ele>
        <time>2016-12-04T09:29:47.256Z</time>
      </trkpt>
      <trkpt lat="47.79598" lon="2.23639">
        <ele>102</ele>
        <time>2016-12-04T09:29:48.254Z</time>
      </trkpt>
      <trkpt lat="47.79596" lon="2.23625">
        <ele>102</ele>
        <time>2016-12-04T09:29:49.250Z</time>
      </trkpt>
      <trkpt lat="47.79595" lon="2.23618">
        <ele>102</ele>
        <time>2016-12-04T09:29:50.255Z</time>
      </trkpt>
      <trkpt lat="47.79594" lon="2.23612">
        <ele>102</ele>
        <time>2016-12-04T09:29:51.260Z</time>
      </trkpt>
      <trkpt lat="47.79594" lon="2.23612">
        <ele>102</ele>
        <time>2016-12-04T09:29:52.255Z</time>
      </trkpt>
      <trkpt lat="47.79594" lon="2.23598">
        <ele>102</ele>
        <time>2016-12-04T09:29:53.253Z</time>
      </trkpt>
      <trkpt lat="47.79593" lon="2.23591">
        <ele>102</ele>
        <time>2016-12-04T09:29:54.258Z</time>
      </trkpt>
      <trkpt lat="47.79593" lon="2.23591">
        <ele>102</ele>
        <time>2016-12-04T09:29:55.256Z</time>
      </trkpt>
      <trkpt lat="47.79593" lon="2.23578">
        <ele>102</ele>
        <time>2016-12-04T09:29:56.257Z</time>
      </trkpt>
      <trkpt lat="47.79593" lon="2.23571">
        <ele>103</ele>
        <time>2016-12-04T09:29:57.258Z</time>
      </trkpt>
      <trkpt lat="47.79593" lon="2.23571">
        <ele>103</ele>
        <time>2016-12-04T09:29:58.255Z</time>
      </trkpt>
      <trkpt lat="47.79592" lon="2.23558">
        <ele>103</ele>
        <time>2016-12-04T09:29:59.251Z</time>
      </trkpt>
      <trkpt lat="47.79592" lon="2.23552">
        <ele>103</ele>
        <time>2016-12-04T09:30:00.258Z</time>
      </trkpt>
      <trkpt lat="47.79592" lon="2.23552">
        <ele>103</ele>
        <time>2016-12-04T09:30:01.254Z</time>
      </trkpt>
      <trkpt lat="47.79591" lon="2.23539">
        <ele>103</ele>
        <time>2016-12-04T09:30:02.254Z</time>
      </trkpt>
      <trkpt lat="47.79591" lon="2.23539">
        <ele>103</ele>
        <time>2016-12-04T09:30:03.256Z</time>
      </trkpt>
      <trkpt lat="47.7959" lon="2.23526">
        <ele>103</ele>
        <time>2016-12-04T09:30:04.257Z</time>
      </trkpt>
      <trkpt lat="47.79589" lon="2.2352">
        <ele>103</ele>
        <time>2016-12-04T09:30:05.260Z</time>
      </trkpt>
      <trkpt lat="47.79589" lon="2.2352">
        <ele>103</ele>
        <time>2016-12-04T09:30:06.255Z</time>
      </trkpt>
      <trkpt lat="47.79588" lon="2.23508">
        <ele>103</ele>
        <time>2016-12-04T09:30:07.257Z</time>
      </trkpt>
      <trkpt lat="47.79588" lon="2.23508">
        <ele>103</ele>
        <time>2016-12-04T09:30:08.252Z</time>
      </trkpt>
      <trkpt lat="47.79586" lon="2.23496">
        <ele>103</ele>
        <time>2016-12-04T09:30:09.254Z</time>
      </trkpt>
      <trkpt lat="47.79586" lon="2.23489">
        <ele>103</ele>
        <time>2016-12-04T09:30:10.254Z</time>
      </trkpt>
      <trkpt lat="47.79585" lon="2.23483">
        <ele>103</ele>
        <time>2016-12-04T09:30:11.258Z</time>
      </trkpt>
      <trkpt lat="47.79585" lon="2.23483">
        <ele>103</ele>
        <time>2016-12-04T09:30:12.271Z</time>
      </trkpt>
      <trkpt lat="47.79584" lon="2.2347">
        <ele>103</ele>
        <time>2016-12-04T09:30:13.263Z</time>
      </trkpt>
      <trkpt lat="47.79584" lon="2.2347">
        <ele>103</ele>
        <time>2016-12-04T09:30:14.254Z</time>
      </trkpt>
      <trkpt lat="47.79582" lon="2.23458">
        <ele>103</ele>
        <time>2016-12-04T09:30:15.260Z</time>
      </trkpt>
      <trkpt lat="47.79582" lon="2.23458">
        <ele>103</ele>
        <time>2016-12-04T09:30:16.255Z</time>
      </trkpt>
      <trkpt lat="47.79581" lon="2.23446">
        <ele>103</ele>
        <time>2016-12-04T09:30:17.274Z</time>
      </trkpt>
      <trkpt lat="47.79581" lon="2.23446">
        <ele>103</ele>
        <time>2016-12-04T09:30:18.279Z</time>
      </trkpt>
      <trkpt lat="47.7958" lon="2.23434">
        <ele>103</ele>
        <time>2016-12-04T09:30:19.251Z</time>
      </trkpt>
      <trkpt lat="47.79579" lon="2.23427">
        <ele>103</ele>
        <time>2016-12-04T09:30:20.256Z</time>
      </trkpt>
      <trkpt lat="47.79579" lon="2.2342">
        <ele>103</ele>
        <time>2016-12-04T09:30:21.260Z</time>
      </trkpt>
      <trkpt lat="47.79579" lon="2.2342">
        <ele>103</ele>
        <time>2016-12-04T09:30:22.255Z</time>
      </trkpt>
      <trkpt lat="47.79577" lon="2.23408">
        <ele>103</ele>
        <time>2016-12-04T09:30:23.259Z</time>
      </trkpt>
      <trkpt lat="47.79577" lon="2.23408">
        <ele>103</ele>
        <time>2016-12-04T09:30:24.255Z</time>
      </trkpt>
      <trkpt lat="47.79574" lon="2.23396">
        <ele>102</ele>
        <time>2016-12-04T09:30:25.264Z</time>
      </trkpt>
      <trkpt lat="47.79574" lon="2.23396">
        <ele>102</ele>
        <time>2016-12-04T09:30:26.253Z</time>
      </trkpt>
      <trkpt lat="47.79573" lon="2.23384">
        <ele>102</ele>
        <time>2016-12-04T09:30:27.259Z</time>
      </trkpt>
      <trkpt lat="47.79573" lon="2.23384">
        <ele>102</ele>
        <time>2016-12-04T09:30:28.254Z</time>
      </trkpt>
      <trkpt lat="47.79572" lon="2.23375">
        <ele>102</ele>
        <time>2016-12-04T09:30:29.251Z</time>
      </trkpt>
      <trkpt lat="47.79571" lon="2.2337">
        <ele>102</ele>
        <time>2016-12-04T09:30:30.257Z</time>
      </trkpt>
      <trkpt lat="47.79571" lon="2.23365">
        <ele>102</ele>
        <time>2016-12-04T09:30:31.255Z</time>
      </trkpt>
      <trkpt lat="47.79571" lon="2.23359">
        <ele>102</ele>
        <time>2016-12-04T09:30:32.257Z</time>
      </trkpt>
      <trkpt lat="47.79571" lon="2.23359">
        <ele>102</ele>
        <time>2016-12-04T09:30:33.263Z</time>
      </trkpt>
      <trkpt lat="47.7957" lon="2.23352">
        <ele>102</ele>
        <time>2016-12-04T09:30:34.267Z</time>
      </trkpt>
      <trkpt lat="47.7957" lon="2.23349">
        <ele>102</ele>
        <time>2016-12-04T09:30:35.258Z</time>
      </trkpt>
      <trkpt lat="47.7957" lon="2.23349">
        <ele>102</ele>
        <time>2016-12-04T09:30:36.253Z</time>
      </trkpt>
      <trkpt lat="47.7957" lon="2.23347">
        <ele>102</ele>
        <time>2016-12-04T09:30:37.255Z</time>
      </trkpt>
      <trkpt lat="47.7957" lon="2.23347">
        <ele>102</ele>
        <time>2016-12-04T09:30:38.252Z</time>
      </trkpt>
      <trkpt lat="47.7957" lon="2.23346">
        <ele>103</ele>
        <time>2016-12-04T09:30:39.252Z</time>
      </trkpt>
      <trkpt lat="47.7957" lon="2.23346">
        <ele>103</ele>
        <time>2016-12-04T09:30:40.255Z</time>
      </trkpt>
      <trkpt lat="47.79569" lon="2.23331">
        <ele>103</ele>
        <time>2016-12-04T09:30:41.255Z</time>
      </trkpt>
      <trkpt lat="47.79569" lon="2.23331">
        <ele>103</ele>
        <time>2016-12-04T09:30:42.251Z</time>
      </trkpt>
      <trkpt lat="47.79569" lon="2.23321">
        <ele>103</ele>
        <time>2016-12-04T09:30:43.253Z</time>
      </trkpt>
      <trkpt lat="47.79569" lon="2.23321">
        <ele>103</ele>
        <time>2016-12-04T09:30:44.252Z</time>
      </trkpt>
      <trkpt lat="47.79568" lon="2.23311">
        <ele>103</ele>
        <time>2016-12-04T09:30:45.243Z</time>
      </trkpt>
      <trkpt lat="47.79568" lon="2.23305">
        <ele>103</ele>
        <time>2016-12-04T09:30:46.244Z</time>
      </trkpt>
      <trkpt lat="47.79568" lon="2.23305">
        <ele>103</ele>
        <time>2016-12-04T09:30:47.272Z</time>
      </trkpt>
      <trkpt lat="47.79567" lon="2.23291">
        <ele>102</ele>
        <time>2016-12-04T09:30:48.270Z</time>
      </trkpt>
      <trkpt lat="47.79566" lon="2.23285">
        <ele>102</ele>
        <time>2016-12-04T09:30:49.277Z</time>
      </trkpt>
      <trkpt lat="47.79566" lon="2.23285">
        <ele>102</ele>
        <time>2016-12-04T09:30:50.269Z</time>
      </trkpt>
      <trkpt lat="47.79565" lon="2.23273">
        <ele>102</ele>
        <time>2016-12-04T09:30:51.275Z</time>
      </trkpt>
      <trkpt lat="47.79565" lon="2.23273">
        <ele>102</ele>
        <time>2016-12-04T09:30:52.270Z</time>
      </trkpt>
      <trkpt lat="47.79565" lon="2.23262">
        <ele>102</ele>
        <time>2016-12-04T09:30:53.275Z</time>
      </trkpt>
      <trkpt lat="47.79565" lon="2.23262">
        <ele>102</ele>
        <time>2016-12-04T09:30:54.270Z</time>
      </trkpt>
      <trkpt lat="47.79565" lon="2.2325">
        <ele>102</ele>
        <time>2016-12-04T09:30:55.266Z</time>
      </trkpt>
      <trkpt lat="47.79565" lon="2.23244">
        <ele>103</ele>
        <time>2016-12-04T09:30:56.271Z</time>
      </trkpt>
      <trkpt lat="47.79565" lon="2.23244">
        <ele>103</ele>
        <time>2016-12-04T09:30:57.268Z</time>
      </trkpt>
      <trkpt lat="47.79564" lon="2.23233">
        <ele>103</ele>
        <time>2016-12-04T09:30:58.271Z</time>
      </trkpt>
      <trkpt lat="47.79563" lon="2.23228">
        <ele>103</ele>
        <time>2016-12-04T09:30:59.277Z</time>
      </trkpt>
      <trkpt lat="47.79562" lon="2.23223">
        <ele>103</ele>
        <time>2016-12-04T09:31:00.275Z</time>
      </trkpt>
      <trkpt lat="47.79562" lon="2.23223">
        <ele>103</ele>
        <time>2016-12-04T09:31:01.272Z</time>
      </trkpt>
      <trkpt lat="47.7956" lon="2.23213">
        <ele>103</ele>
        <time>2016-12-04T09:31:02.270Z</time>
      </trkpt>
      <trkpt lat="47.7956" lon="2.23213">
        <ele>103</ele>
        <time>2016-12-04T09:31:03.270Z</time>
      </trkpt>
      <trkpt lat="47.79559" lon="2.23202">
        <ele>103</ele>
        <time>2016-12-04T09:31:04.274Z</time>
      </trkpt>
      <trkpt lat="47.79559" lon="2.23202">
        <ele>103</ele>
        <time>2016-12-04T09:31:05.274Z</time>
      </trkpt>
      <trkpt lat="47.79558" lon="2.2319">
        <ele>104</ele>
        <time>2016-12-04T09:31:06.271Z</time>
      </trkpt>
      <trkpt lat="47.79558" lon="2.23184">
        <ele>104</ele>
        <time>2016-12-04T09:31:07.274Z</time>
      </trkpt>
      <trkpt lat="47.79558" lon="2.23184">
        <ele>104</ele>
        <time>2016-12-04T09:31:08.269Z</time>
      </trkpt>
      <trkpt lat="47.79557" lon="2.23172">
        <ele>104</ele>
        <time>2016-12-04T09:31:09.265Z</time>
      </trkpt>
      <trkpt lat="47.79556" lon="2.23166">
        <ele>104</ele>
        <time>2016-12-04T09:31:10.274Z</time>
      </trkpt>
      <trkpt lat="47.79556" lon="2.23159">
        <ele>104</ele>
        <time>2016-12-04T09:31:11.278Z</time>
      </trkpt>
      <trkpt lat="47.79556" lon="2.23159">
        <ele>104</ele>
        <time>2016-12-04T09:31:12.276Z</time>
      </trkpt>
      <trkpt lat="47.79555" lon="2.23148">
        <ele>103</ele>
        <time>2016-12-04T09:31:13.275Z</time>
      </trkpt>
      <trkpt lat="47.79555" lon="2.23148">
        <ele>103</ele>
        <time>2016-12-04T09:31:14.271Z</time>
      </trkpt>
      <trkpt lat="47.79555" lon="2.23136">
        <ele>104</ele>
        <time>2016-12-04T09:31:15.267Z</time>
      </trkpt>
      <trkpt lat="47.79555" lon="2.23136">
        <ele>104</ele>
        <time>2016-12-04T09:31:16.277Z</time>
      </trkpt>
      <trkpt lat="47.79554" lon="2.23124">
        <ele>104</ele>
        <time>2016-12-04T09:31:17.251Z</time>
      </trkpt>
      <trkpt lat="47.79554" lon="2.23124">
        <ele>104</ele>
        <time>2016-12-04T09:31:18.255Z</time>
      </trkpt>
      <trkpt lat="47.79554" lon="2.23111">
        <ele>105</ele>
        <time>2016-12-04T09:31:19.247Z</time>
      </trkpt>
      <trkpt lat="47.79554" lon="2.23105">
        <ele>105</ele>
        <time>2016-12-04T09:31:20.279Z</time>
      </trkpt>
      <trkpt lat="47.79554" lon="2.23105">
        <ele>105</ele>
        <time>2016-12-04T09:31:21.274Z</time>
      </trkpt>
      <trkpt lat="47.79554" lon="2.23092">
        <ele>105</ele>
        <time>2016-12-04T09:31:22.271Z</time>
      </trkpt>
      <trkpt lat="47.79554" lon="2.23086">
        <ele>105</ele>
        <time>2016-12-04T09:31:23.275Z</time>
      </trkpt>
      <trkpt lat="47.79554" lon="2.2308">
        <ele>105</ele>
        <time>2016-12-04T09:31:24.276Z</time>
      </trkpt>
      <trkpt lat="47.79554" lon="2.2308">
        <ele>105</ele>
        <time>2016-12-04T09:31:25.264Z</time>
      </trkpt>
      <trkpt lat="47.79553" lon="2.23068">
        <ele>105</ele>
        <time>2016-12-04T09:31:26.271Z</time>
      </trkpt>
      <trkpt lat="47.79553" lon="2.23068">
        <ele>105</ele>
        <time>2016-12-04T09:31:27.268Z</time>
      </trkpt>
      <trkpt lat="47.79552" lon="2.23057">
        <ele>105</ele>
        <time>2016-12-04T09:31:28.274Z</time>
      </trkpt>
      <trkpt lat="47.79552" lon="2.23051">
        <ele>105</ele>
        <time>2016-12-04T09:31:29.280Z</time>
      </trkpt>
      <trkpt lat="47.79552" lon="2.23051">
        <ele>105</ele>
        <time>2016-12-04T09:31:30.244Z</time>
      </trkpt>
      <trkpt lat="47.79551" lon="2.23039">
        <ele>105</ele>
        <time>2016-12-04T09:31:31.274Z</time>
      </trkpt>
      <trkpt lat="47.79551" lon="2.23039">
        <ele>105</ele>
        <time>2016-12-04T09:31:32.269Z</time>
      </trkpt>
      <trkpt lat="47.7955" lon="2.23028">
        <ele>105</ele>
        <time>2016-12-04T09:31:33.271Z</time>
      </trkpt>
      <trkpt lat="47.7955" lon="2.23028">
        <ele>105</ele>
        <time>2016-12-04T09:31:34.268Z</time>
      </trkpt>
      <trkpt lat="47.79549" lon="2.23016">
        <ele>105</ele>
        <time>2016-12-04T09:31:35.267Z</time>
      </trkpt>
      <trkpt lat="47.79549" lon="2.23011">
        <ele>105</ele>
        <time>2016-12-04T09:31:36.271Z</time>
      </trkpt>
      <trkpt lat="47.79548" lon="2.23006">
        <ele>105</ele>
        <time>2016-12-04T09:31:37.274Z</time>
      </trkpt>
      <trkpt lat="47.79548" lon="2.23006">
        <ele>105</ele>
        <time>2016-12-04T09:31:38.270Z</time>
      </trkpt>
      <trkpt lat="47.79548" lon="2.22994">
        <ele>105</ele>
        <time>2016-12-04T09:31:39.271Z</time>
      </trkpt>
      <trkpt lat="47.79548" lon="2.22994">
        <ele>105</ele>
        <time>2016-12-04T09:31:40.268Z</time>
      </trkpt>
      <trkpt lat="47.79547" lon="2.22983">
        <ele>105</ele>
        <time>2016-12-04T09:31:41.277Z</time>
      </trkpt>
      <trkpt lat="47.79547" lon="2.22977">
        <ele>106</ele>
        <time>2016-12-04T09:31:42.270Z</time>
      </trkpt>
      <trkpt lat="47.79546" lon="2.22971">
        <ele>105</ele>
        <time>2016-12-04T09:31:43.274Z</time>
      </trkpt>
      <trkpt lat="47.79546" lon="2.22971">
        <ele>105</ele>
        <time>2016-12-04T09:31:44.266Z</time>
      </trkpt>
      <trkpt lat="47.79545" lon="2.22959">
        <ele>105</ele>
        <time>2016-12-04T09:31:45.267Z</time>
      </trkpt>
      <trkpt lat="47.79545" lon="2.22954">
        <ele>105</ele>
        <time>2016-12-04T09:31:46.277Z</time>
      </trkpt>
      <trkpt lat="47.79544" lon="2.22948">
        <ele>105</ele>
        <time>2016-12-04T09:31:47.276Z</time>
      </trkpt>
      <trkpt lat="47.79544" lon="2.22948">
        <ele>105</ele>
        <time>2016-12-04T09:31:48.268Z</time>
      </trkpt>
      <trkpt lat="47.79544" lon="2.22937">
        <ele>105</ele>
        <time>2016-12-04T09:31:49.272Z</time>
      </trkpt>
      <trkpt lat="47.79544" lon="2.22937">
        <ele>105</ele>
        <time>2016-12-04T09:31:50.268Z</time>
      </trkpt>
      <trkpt lat="47.79543" lon="2.22925">
        <ele>105</ele>
        <time>2016-12-04T09:31:51.271Z</time>
      </trkpt>
      <trkpt lat="47.79543" lon="2.22925">
        <ele>105</ele>
        <time>2016-12-04T09:31:52.276Z</time>
      </trkpt>
      <trkpt lat="47.79543" lon="2.22913">
        <ele>105</ele>
        <time>2016-12-04T09:31:53.275Z</time>
      </trkpt>
      <trkpt lat="47.79543" lon="2.22913">
        <ele>105</ele>
        <time>2016-12-04T09:31:54.268Z</time>
      </trkpt>
      <trkpt lat="47.79542" lon="2.22902">
        <ele>105</ele>
        <time>2016-12-04T09:31:55.266Z</time>
      </trkpt>
      <trkpt lat="47.79542" lon="2.22896">
        <ele>105</ele>
        <time>2016-12-04T09:31:56.271Z</time>
      </trkpt>
      <trkpt lat="47.79542" lon="2.22896">
        <ele>105</ele>
        <time>2016-12-04T09:31:57.268Z</time>
      </trkpt>
      <trkpt lat="47.79541" lon="2.22884">
        <ele>105</ele>
        <time>2016-12-04T09:31:58.271Z</time>
      </trkpt>
      <trkpt lat="47.79541" lon="2.22878">
        <ele>105</ele>
        <time>2016-12-04T09:31:59.275Z</time>
      </trkpt>
      <trkpt lat="47.79541" lon="2.22878">
        <ele>105</ele>
        <time>2016-12-04T09:32:00.249Z</time>
      </trkpt>
      <trkpt lat="47.79541" lon="2.22866">
        <ele>105</ele>
        <time>2016-12-04T09:32:01.279Z</time>
      </trkpt>
      <trkpt lat="47.79541" lon="2.22866">
        <ele>105</ele>
        <time>2016-12-04T09:32:02.268Z</time>
      </trkpt>
      <trkpt lat="47.7954" lon="2.22854">
        <ele>105</ele>
        <time>2016-12-04T09:32:03.272Z</time>
      </trkpt>
      <trkpt lat="47.7954" lon="2.22854">
        <ele>105</ele>
        <time>2016-12-04T09:32:04.269Z</time>
      </trkpt>
      <trkpt lat="47.79539" lon="2.22841">
        <ele>105</ele>
        <time>2016-12-04T09:32:05.271Z</time>
      </trkpt>
      <trkpt lat="47.79539" lon="2.22835">
        <ele>105</ele>
        <time>2016-12-04T09:32:06.271Z</time>
      </trkpt>
      <trkpt lat="47.79539" lon="2.22829">
        <ele>105</ele>
        <time>2016-12-04T09:32:07.274Z</time>
      </trkpt>
      <trkpt lat="47.79539" lon="2.22829">
        <ele>105</ele>
        <time>2016-12-04T09:32:08.268Z</time>
      </trkpt>
      <trkpt lat="47.79538" lon="2.22817">
        <ele>105</ele>
        <time>2016-12-04T09:32:09.271Z</time>
      </trkpt>
      <trkpt lat="47.79538" lon="2.22817">
        <ele>105</ele>
        <time>2016-12-04T09:32:10.272Z</time>
      </trkpt>
      <trkpt lat="47.79537" lon="2.22805">
        <ele>105</ele>
        <time>2016-12-04T09:32:11.277Z</time>
      </trkpt>
      <trkpt lat="47.79537" lon="2.22798">
        <ele>105</ele>
        <time>2016-12-04T09:32:12.244Z</time>
      </trkpt>
      <trkpt lat="47.79537" lon="2.22798">
        <ele>105</ele>
        <time>2016-12-04T09:32:13.273Z</time>
      </trkpt>
      <trkpt lat="47.79536" lon="2.22786">
        <ele>105</ele>
        <time>2016-12-04T09:32:14.274Z</time>
      </trkpt>
      <trkpt lat="47.79536" lon="2.22786">
        <ele>105</ele>
        <time>2016-12-04T09:32:15.265Z</time>
      </trkpt>
      <trkpt lat="47.79534" lon="2.22774">
        <ele>104</ele>
        <time>2016-12-04T09:32:16.251Z</time>
      </trkpt>
      <trkpt lat="47.79534" lon="2.22768">
        <ele>104</ele>
        <time>2016-12-04T09:32:17.282Z</time>
      </trkpt>
      <trkpt lat="47.79534" lon="2.22768">
        <ele>104</ele>
        <time>2016-12-04T09:32:18.248Z</time>
      </trkpt>
      <trkpt lat="47.79533" lon="2.22756">
        <ele>104</ele>
        <time>2016-12-04T09:32:19.265Z</time>
      </trkpt>
      <trkpt lat="47.79533" lon="2.22751">
        <ele>104</ele>
        <time>2016-12-04T09:32:20.256Z</time>
      </trkpt>
      <trkpt lat="47.79533" lon="2.22745">
        <ele>104</ele>
        <time>2016-12-04T09:32:21.261Z</time>
      </trkpt>
      <trkpt lat="47.79533" lon="2.22745">
        <ele>104</ele>
        <time>2016-12-04T09:32:22.250Z</time>
      </trkpt>
      <trkpt lat="47.79532" lon="2.22733">
        <ele>104</ele>
        <time>2016-12-04T09:32:23.244Z</time>
      </trkpt>
      <trkpt lat="47.79532" lon="2.22733">
        <ele>104</ele>
        <time>2016-12-04T09:32:24.273Z</time>
      </trkpt>
      <trkpt lat="47.79531" lon="2.22722">
        <ele>104</ele>
        <time>2016-12-04T09:32:25.267Z</time>
      </trkpt>
      <trkpt lat="47.79531" lon="2.22716">
        <ele>104</ele>
        <time>2016-12-04T09:32:26.274Z</time>
      </trkpt>
      <trkpt lat="47.79531" lon="2.2271">
        <ele>104</ele>
        <time>2016-12-04T09:32:27.274Z</time>
      </trkpt>
      <trkpt lat="47.79531" lon="2.2271">
        <ele>104</ele>
        <time>2016-12-04T09:32:28.268Z</time>
      </trkpt>
      <trkpt lat="47.7953" lon="2.22699">
        <ele>105</ele>
        <time>2016-12-04T09:32:29.275Z</time>
      </trkpt>
      <trkpt lat="47.7953" lon="2.22699">
        <ele>105</ele>
        <time>2016-12-04T09:32:30.268Z</time>
      </trkpt>
      <trkpt lat="47.79529" lon="2.22687">
        <ele>105</ele>
        <time>2016-12-04T09:32:31.277Z</time>
      </trkpt>
      <trkpt lat="47.79529" lon="2.22687">
        <ele>105</ele>
        <time>2016-12-04T09:32:32.270Z</time>
      </trkpt>
      <trkpt lat="47.79529" lon="2.22675">
        <ele>105</ele>
        <time>2016-12-04T09:32:33.274Z</time>
      </trkpt>
      <trkpt lat="47.79528" lon="2.22669">
        <ele>105</ele>
        <time>2016-12-04T09:32:34.274Z</time>
      </trkpt>
      <trkpt lat="47.79528" lon="2.22669">
        <ele>105</ele>
        <time>2016-12-04T09:32:35.265Z</time>
      </trkpt>
      <trkpt lat="47.79527" lon="2.22657">
        <ele>105</ele>
        <time>2016-12-04T09:32:36.274Z</time>
      </trkpt>
      <trkpt lat="47.79527" lon="2.22651">
        <ele>105</ele>
        <time>2016-12-04T09:32:37.275Z</time>
      </trkpt>
      <trkpt lat="47.79527" lon="2.22651">
        <ele>105</ele>
        <time>2016-12-04T09:32:38.268Z</time>
      </trkpt>
      <trkpt lat="47.79527" lon="2.22638">
        <ele>105</ele>
        <time>2016-12-04T09:32:39.272Z</time>
      </trkpt>
      <trkpt lat="47.79527" lon="2.22638">
        <ele>105</ele>
        <time>2016-12-04T09:32:40.269Z</time>
      </trkpt>
      <trkpt lat="47.79526" lon="2.22626">
        <ele>104</ele>
        <time>2016-12-04T09:32:41.275Z</time>
      </trkpt>
      <trkpt lat="47.79526" lon="2.22626">
        <ele>104</ele>
        <time>2016-12-04T09:32:42.268Z</time>
      </trkpt>
      <trkpt lat="47.79525" lon="2.22614">
        <ele>104</ele>
        <time>2016-12-04T09:32:43.275Z</time>
      </trkpt>
      <trkpt lat="47.79525" lon="2.22614">
        <ele>104</ele>
        <time>2016-12-04T09:32:44.266Z</time>
      </trkpt>
      <trkpt lat="47.79524" lon="2.22601">
        <ele>105</ele>
        <time>2016-12-04T09:32:45.266Z</time>
      </trkpt>
      <trkpt lat="47.79524" lon="2.22595">
        <ele>105</ele>
        <time>2016-12-04T09:32:46.274Z</time>
      </trkpt>
      <trkpt lat="47.79524" lon="2.22588">
        <ele>105</ele>
        <time>2016-12-04T09:32:47.277Z</time>
      </trkpt>
      <trkpt lat="47.79524" lon="2.22588">
        <ele>105</ele>
        <time>2016-12-04T09:32:48.268Z</time>
      </trkpt>
      <trkpt lat="47.79524" lon="2.22576">
        <ele>105</ele>
        <time>2016-12-04T09:32:49.274Z</time>
      </trkpt>
      <trkpt lat="47.79524" lon="2.22571">
        <ele>105</ele>
        <time>2016-12-04T09:32:50.276Z</time>
      </trkpt>
      <trkpt lat="47.79524" lon="2.22571">
        <ele>105</ele>
        <time>2016-12-04T09:32:51.275Z</time>
      </trkpt>
      <trkpt lat="47.79522" lon="2.22559">
        <ele>105</ele>
        <time>2016-12-04T09:32:52.274Z</time>
      </trkpt>
      <trkpt lat="47.79522" lon="2.22553">
        <ele>104</ele>
        <time>2016-12-04T09:32:53.274Z</time>
      </trkpt>
      <trkpt lat="47.79522" lon="2.22553">
        <ele>104</ele>
        <time>2016-12-04T09:32:54.269Z</time>
      </trkpt>
      <trkpt lat="47.79521" lon="2.22541">
        <ele>104</ele>
        <time>2016-12-04T09:32:55.267Z</time>
      </trkpt>
      <trkpt lat="47.79521" lon="2.22534">
        <ele>104</ele>
        <time>2016-12-04T09:32:56.245Z</time>
      </trkpt>
      <trkpt lat="47.79521" lon="2.22534">
        <ele>104</ele>
        <time>2016-12-04T09:32:57.274Z</time>
      </trkpt>
      <trkpt lat="47.79519" lon="2.22523">
        <ele>104</ele>
        <time>2016-12-04T09:32:58.274Z</time>
      </trkpt>
      <trkpt lat="47.79519" lon="2.22517">
        <ele>104</ele>
        <time>2016-12-04T09:32:59.275Z</time>
      </trkpt>
      <trkpt lat="47.79519" lon="2.22517">
        <ele>104</ele>
        <time>2016-12-04T09:33:00.269Z</time>
      </trkpt>
      <trkpt lat="47.79518" lon="2.22506">
        <ele>104</ele>
        <time>2016-12-04T09:33:01.274Z</time>
      </trkpt>
      <trkpt lat="47.79518" lon="2.22506">
        <ele>104</ele>
        <time>2016-12-04T09:33:02.269Z</time>
      </trkpt>
      <trkpt lat="47.79518" lon="2.22494">
        <ele>104</ele>
        <time>2016-12-04T09:33:03.276Z</time>
      </trkpt>
      <trkpt lat="47.79518" lon="2.22494">
        <ele>104</ele>
        <time>2016-12-04T09:33:04.269Z</time>
      </trkpt>
      <trkpt lat="47.79517" lon="2.22482">
        <ele>104</ele>
        <time>2016-12-04T09:33:05.269Z</time>
      </trkpt>
      <trkpt lat="47.79517" lon="2.22476">
        <ele>104</ele>
        <time>2016-12-04T09:33:06.274Z</time>
      </trkpt>
      <trkpt lat="47.79516" lon="2.2247">
        <ele>104</ele>
        <time>2016-12-04T09:33:07.275Z</time>
      </trkpt>
      <trkpt lat="47.79516" lon="2.2247">
        <ele>104</ele>
        <time>2016-12-04T09:33:08.272Z</time>
      </trkpt>
      <trkpt lat="47.79515" lon="2.22458">
        <ele>104</ele>
        <time>2016-12-04T09:33:09.274Z</time>
      </trkpt>
      <trkpt lat="47.79515" lon="2.22458">
        <ele>104</ele>
        <time>2016-12-04T09:33:10.269Z</time>
      </trkpt>
      <trkpt lat="47.79514" lon="2.22447">
        <ele>104</ele>
        <time>2016-12-04T09:33:11.275Z</time>
      </trkpt>
      <trkpt lat="47.79513" lon="2.22441">
        <ele>103</ele>
        <time>2016-12-04T09:33:12.266Z</time>
      </trkpt>
      <trkpt lat="47.79513" lon="2.22435">
        <ele>104</ele>
        <time>2016-12-04T09:33:13.275Z</time>
      </trkpt>
      <trkpt lat="47.79513" lon="2.22435">
        <ele>104</ele>
        <time>2016-12-04T09:33:14.270Z</time>
      </trkpt>
      <trkpt lat="47.79512" lon="2.22423">
        <ele>103</ele>
        <time>2016-12-04T09:33:15.266Z</time>
      </trkpt>
      <trkpt lat="47.79512" lon="2.22417">
        <ele>103</ele>
        <time>2016-12-04T09:33:16.281Z</time>
      </trkpt>
      <trkpt lat="47.79512" lon="2.22417">
        <ele>103</ele>
        <time>2016-12-04T09:33:17.248Z</time>
      </trkpt>
      <trkpt lat="47.79511" lon="2.22405">
        <ele>104</ele>
        <time>2016-12-04T09:33:18.254Z</time>
      </trkpt>
      <trkpt lat="47.79511" lon="2.22405">
        <ele>104</ele>
        <time>2016-12-04T09:33:19.264Z</time>
      </trkpt>
      <trkpt lat="47.79511" lon="2.22392">
        <ele>103</ele>
        <time>2016-12-04T09:33:20.270Z</time>
      </trkpt>
      <trkpt lat="47.7951" lon="2.22387">
        <ele>103</ele>
        <time>2016-12-04T09:33:21.277Z</time>
      </trkpt>
      <trkpt lat="47.7951" lon="2.22387">
        <ele>103</ele>
        <time>2016-12-04T09:33:22.270Z</time>
      </trkpt>
      <trkpt lat="47.7951" lon="2.22374">
        <ele>103</ele>
        <time>2016-12-04T09:33:23.276Z</time>
      </trkpt>
      <trkpt lat="47.7951" lon="2.22374">
        <ele>103</ele>
        <time>2016-12-04T09:33:24.269Z</time>
      </trkpt>
      <trkpt lat="47.79509" lon="2.22362">
        <ele>102</ele>
        <time>2016-12-04T09:33:25.267Z</time>
      </trkpt>
      <trkpt lat="47.79509" lon="2.22356">
        <ele>102</ele>
        <time>2016-12-04T09:33:26.245Z</time>
      </trkpt>
      <trkpt lat="47.79509" lon="2.22356">
        <ele>102</ele>
        <time>2016-12-04T09:33:27.274Z</time>
      </trkpt>
      <trkpt lat="47.79509" lon="2.22344">
        <ele>102</ele>
        <time>2016-12-04T09:33:28.275Z</time>
      </trkpt>
      <trkpt lat="47.7951" lon="2.22338">
        <ele>102</ele>
        <time>2016-12-04T09:33:29.277Z</time>
      </trkpt>
      <trkpt lat="47.7951" lon="2.22338">
        <ele>102</ele>
        <time>2016-12-04T09:33:30.269Z</time>
      </trkpt>
      <trkpt lat="47.79511" lon="2.22326">
        <ele>101</ele>
        <time>2016-12-04T09:33:31.274Z</time>
      </trkpt>
      <trkpt lat="47.79512" lon="2.2232">
        <ele>101</ele>
        <time>2016-12-04T09:33:32.274Z</time>
      </trkpt>
      <trkpt lat="47.79512" lon="2.2232">
        <ele>101</ele>
        <time>2016-12-04T09:33:33.268Z</time>
      </trkpt>
      <trkpt lat="47.79514" lon="2.22308">
        <ele>101</ele>
        <time>2016-12-04T09:33:34.274Z</time>
      </trkpt>
      <trkpt lat="47.79514" lon="2.22308">
        <ele>101</ele>
        <time>2016-12-04T09:33:35.266Z</time>
      </trkpt>
      <trkpt lat="47.79516" lon="2.22297">
        <ele>101</ele>
        <time>2016-12-04T09:33:36.277Z</time>
      </trkpt>
      <trkpt lat="47.79516" lon="2.22297">
        <ele>101</ele>
        <time>2016-12-04T09:33:37.272Z</time>
      </trkpt>
      <trkpt lat="47.79518" lon="2.22287">
        <ele>101</ele>
        <time>2016-12-04T09:33:38.274Z</time>
      </trkpt>
      <trkpt lat="47.79518" lon="2.22287">
        <ele>101</ele>
        <time>2016-12-04T09:33:39.269Z</time>
      </trkpt>
      <trkpt lat="47.7952" lon="2.22276">
        <ele>101</ele>
        <time>2016-12-04T09:33:40.275Z</time>
      </trkpt>
      <trkpt lat="47.7952" lon="2.22276">
        <ele>101</ele>
        <time>2016-12-04T09:33:41.268Z</time>
      </trkpt>
      <trkpt lat="47.79522" lon="2.22266">
        <ele>101</ele>
        <time>2016-12-04T09:33:42.271Z</time>
      </trkpt>
      <trkpt lat="47.79524" lon="2.22261">
        <ele>101</ele>
        <time>2016-12-04T09:33:43.275Z</time>
      </trkpt>
      <trkpt lat="47.79524" lon="2.22261">
        <ele>101</ele>
        <time>2016-12-04T09:33:44.269Z</time>
      </trkpt>
      <trkpt lat="47.79526" lon="2.22251">
        <ele>101</ele>
        <time>2016-12-04T09:33:45.274Z</time>
      </trkpt>
      <trkpt lat="47.79528" lon="2.22246">
        <ele>101</ele>
        <time>2016-12-04T09:33:46.274Z</time>
      </trkpt>
      <trkpt lat="47.79529" lon="2.22241">
        <ele>102</ele>
        <time>2016-12-04T09:33:47.276Z</time>
      </trkpt>
      <trkpt lat="47.79529" lon="2.22241">
        <ele>102</ele>
        <time>2016-12-04T09:33:48.280Z</time>
      </trkpt>
      <trkpt lat="47.79531" lon="2.22232">
        <ele>101</ele>
        <time>2016-12-04T09:33:49.275Z</time>
      </trkpt>
      <trkpt lat="47.79532" lon="2.22227">
        <ele>101</ele>
        <time>2016-12-04T09:33:50.275Z</time>
      </trkpt>
      <trkpt lat="47.79532" lon="2.22227">
        <ele>101</ele>
        <time>2016-12-04T09:33:51.270Z</time>
      </trkpt>
      <trkpt lat="47.79535" lon="2.22217">
        <ele>101</ele>
        <time>2016-12-04T09:33:52.275Z</time>
      </trkpt>
      <trkpt lat="47.79537" lon="2.22212">
        <ele>101</ele>
        <time>2016-12-04T09:33:53.276Z</time>
      </trkpt>
      <trkpt lat="47.79539" lon="2.22208">
        <ele>101</ele>
        <time>2016-12-04T09:33:54.276Z</time>
      </trkpt>
      <trkpt lat="47.79539" lon="2.22208">
        <ele>101</ele>
        <time>2016-12-04T09:33:55.274Z</time>
      </trkpt>
      <trkpt lat="47.79542" lon="2.22199">
        <ele>101</ele>
        <time>2016-12-04T09:33:56.277Z</time>
      </trkpt>
      <trkpt lat="47.79542" lon="2.22199">
        <ele>101</ele>
        <time>2016-12-04T09:33:57.270Z</time>
      </trkpt>
      <trkpt lat="47.79545" lon="2.2219">
        <ele>101</ele>
        <time>2016-12-04T09:33:58.275Z</time>
      </trkpt>
      <trkpt lat="47.79547" lon="2.22185">
        <ele>101</ele>
        <time>2016-12-04T09:33:59.278Z</time>
      </trkpt>
      <trkpt lat="47.79547" lon="2.22185">
        <ele>101</ele>
        <time>2016-12-04T09:34:00.269Z</time>
      </trkpt>
      <trkpt lat="47.79551" lon="2.22176">
        <ele>100</ele>
        <time>2016-12-04T09:34:01.274Z</time>
      </trkpt>
      <trkpt lat="47.79552" lon="2.22171">
        <ele>100</ele>
        <time>2016-12-04T09:34:02.275Z</time>
      </trkpt>
      <trkpt lat="47.79552" lon="2.22171">
        <ele>100</ele>
        <time>2016-12-04T09:34:03.269Z</time>
      </trkpt>
      <trkpt lat="47.79555" lon="2.22162">
        <ele>100</ele>
        <time>2016-12-04T09:34:04.274Z</time>
      </trkpt>
      <trkpt lat="47.79555" lon="2.22162">
        <ele>100</ele>
        <time>2016-12-04T09:34:05.266Z</time>
      </trkpt>
      <trkpt lat="47.79559" lon="2.22153">
        <ele>100</ele>
        <time>2016-12-04T09:34:06.275Z</time>
      </trkpt>
      <trkpt lat="47.79559" lon="2.22153">
        <ele>100</ele>
        <time>2016-12-04T09:34:07.269Z</time>
      </trkpt>
      <trkpt lat="47.79562" lon="2.22143">
        <ele>100</ele>
        <time>2016-12-04T09:34:08.275Z</time>
      </trkpt>
      <trkpt lat="47.79562" lon="2.22143">
        <ele>100</ele>
        <time>2016-12-04T09:34:09.270Z</time>
      </trkpt>
      <trkpt lat="47.79565" lon="2.22134">
        <ele>100</ele>
        <time>2016-12-04T09:34:10.275Z</time>
      </trkpt>
      <trkpt lat="47.79567" lon="2.2213">
        <ele>100</ele>
        <time>2016-12-04T09:34:11.278Z</time>
      </trkpt>
      <trkpt lat="47.79567" lon="2.2213">
        <ele>100</ele>
        <time>2016-12-04T09:34:12.269Z</time>
      </trkpt>
      <trkpt lat="47.79571" lon="2.22121">
        <ele>100</ele>
        <time>2016-12-04T09:34:13.276Z</time>
      </trkpt>
      <trkpt lat="47.79571" lon="2.22121">
        <ele>100</ele>
        <time>2016-12-04T09:34:14.270Z</time>
      </trkpt>
      <trkpt lat="47.79574" lon="2.22112">
        <ele>99</ele>
        <time>2016-12-04T09:34:15.267Z</time>
      </trkpt>
      <trkpt lat="47.79576" lon="2.22107">
        <ele>99</ele>
        <time>2016-12-04T09:34:16.281Z</time>
      </trkpt>
      <trkpt lat="47.79576" lon="2.22107">
        <ele>99</ele>
        <time>2016-12-04T09:34:17.259Z</time>
      </trkpt>
      <trkpt lat="47.79579" lon="2.22097">
        <ele>99</ele>
        <time>2016-12-04T09:34:18.255Z</time>
      </trkpt>
      <trkpt lat="47.79579" lon="2.22097">
        <ele>99</ele>
        <time>2016-12-04T09:34:19.245Z</time>
      </trkpt>
      <trkpt lat="47.79583" lon="2.22088">
        <ele>99</ele>
        <time>2016-12-04T09:34:20.275Z</time>
      </trkpt>
      <trkpt lat="47.79583" lon="2.22088">
        <ele>99</ele>
        <time>2016-12-04T09:34:21.245Z</time>
      </trkpt>
      <trkpt lat="47.79587" lon="2.22078">
        <ele>99</ele>
        <time>2016-12-04T09:34:22.275Z</time>
      </trkpt>
      <trkpt lat="47.79587" lon="2.22078">
        <ele>99</ele>
        <time>2016-12-04T09:34:23.273Z</time>
      </trkpt>
      <trkpt lat="47.7959" lon="2.22068">
        <ele>99</ele>
        <time>2016-12-04T09:34:24.274Z</time>
      </trkpt>
      <trkpt lat="47.7959" lon="2.22068">
        <ele>99</ele>
        <time>2016-12-04T09:34:25.265Z</time>
      </trkpt>
      <trkpt lat="47.79592" lon="2.22057">
        <ele>99</ele>
        <time>2016-12-04T09:34:26.275Z</time>
      </trkpt>
      <trkpt lat="47.79592" lon="2.22052">
        <ele>99</ele>
        <time>2016-12-04T09:34:27.274Z</time>
      </trkpt>
      <trkpt lat="47.79592" lon="2.22052">
        <ele>99</ele>
        <time>2016-12-04T09:34:28.270Z</time>
      </trkpt>
      <trkpt lat="47.79592" lon="2.22041">
        <ele>100</ele>
        <time>2016-12-04T09:34:29.276Z</time>
      </trkpt>
      <trkpt lat="47.79592" lon="2.22041">
        <ele>100</ele>
        <time>2016-12-04T09:34:30.269Z</time>
      </trkpt>
      <trkpt lat="47.79592" lon="2.22029">
        <ele>99</ele>
        <time>2016-12-04T09:34:31.276Z</time>
      </trkpt>
      <trkpt lat="47.79591" lon="2.22024">
        <ele>99</ele>
        <time>2016-12-04T09:34:32.276Z</time>
      </trkpt>
      <trkpt lat="47.79591" lon="2.22024">
        <ele>99</ele>
        <time>2016-12-04T09:34:33.269Z</time>
      </trkpt>
      <trkpt lat="47.7959" lon="2.22013">
        <ele>99</ele>
        <time>2016-12-04T09:34:34.280Z</time>
      </trkpt>
      <trkpt lat="47.7959" lon="2.22013">
        <ele>99</ele>
        <time>2016-12-04T09:34:35.275Z</time>
      </trkpt>
      <trkpt lat="47.79588" lon="2.22002">
        <ele>100</ele>
        <time>2016-12-04T09:34:36.276Z</time>
      </trkpt>
      <trkpt lat="47.79588" lon="2.22002">
        <ele>100</ele>
        <time>2016-12-04T09:34:37.270Z</time>
      </trkpt>
      <trkpt lat="47.79586" lon="2.21991">
        <ele>100</ele>
        <time>2016-12-04T09:34:38.246Z</time>
      </trkpt>
      <trkpt lat="47.79586" lon="2.21991">
        <ele>100</ele>
        <time>2016-12-04T09:34:39.273Z</time>
      </trkpt>
      <trkpt lat="47.79584" lon="2.21981">
        <ele>100</ele>
        <time>2016-12-04T09:34:40.272Z</time>
      </trkpt>
      <trkpt lat="47.79584" lon="2.21981">
        <ele>100</ele>
        <time>2016-12-04T09:34:41.271Z</time>
      </trkpt>
      <trkpt lat="47.79583" lon="2.2197">
        <ele>100</ele>
        <time>2016-12-04T09:34:42.275Z</time>
      </trkpt>
      <trkpt lat="47.79583" lon="2.2197">
        <ele>100</ele>
        <time>2016-12-04T09:34:43.273Z</time>
      </trkpt>
      <trkpt lat="47.79581" lon="2.21959">
        <ele>100</ele>
        <time>2016-12-04T09:34:44.274Z</time>
      </trkpt>
      <trkpt lat="47.79581" lon="2.21959">
        <ele>100</ele>
        <time>2016-12-04T09:34:45.274Z</time>
      </trkpt>
      <trkpt lat="47.79579" lon="2.21949">
        <ele>100</ele>
        <time>2016-12-04T09:34:46.275Z</time>
      </trkpt>
      <trkpt lat="47.79578" lon="2.21943">
        <ele>100</ele>
        <time>2016-12-04T09:34:47.276Z</time>
      </trkpt>
      <trkpt lat="47.79578" lon="2.21943">
        <ele>100</ele>
        <time>2016-12-04T09:34:48.270Z</time>
      </trkpt>
      <trkpt lat="47.79577" lon="2.21932">
        <ele>100</ele>
        <time>2016-12-04T09:34:49.276Z</time>
      </trkpt>
      <trkpt lat="47.79577" lon="2.21932">
        <ele>100</ele>
        <time>2016-12-04T09:34:50.268Z</time>
      </trkpt>
      <trkpt lat="47.79575" lon="2.21922">
        <ele>100</ele>
        <time>2016-12-04T09:34:51.275Z</time>
      </trkpt>
      <trkpt lat="47.79575" lon="2.21922">
        <ele>100</ele>
        <time>2016-12-04T09:34:52.279Z</time>
      </trkpt>
      <trkpt lat="47.79575" lon="2.21912">
        <ele>100</ele>
        <time>2016-12-04T09:34:53.276Z</time>
      </trkpt>
      <trkpt lat="47.79575" lon="2.21907">
        <ele>101</ele>
        <time>2016-12-04T09:34:54.260Z</time>
      </trkpt>
      <trkpt lat="47.79575" lon="2.21907">
        <ele>101</ele>
        <time>2016-12-04T09:34:55.250Z</time>
      </trkpt>
      <trkpt lat="47.79575" lon="2.21896">
        <ele>101</ele>
        <time>2016-12-04T09:34:56.279Z</time>
      </trkpt>
      <trkpt lat="47.79575" lon="2.21896">
        <ele>101</ele>
        <time>2016-12-04T09:34:57.269Z</time>
      </trkpt>
      <trkpt lat="47.79576" lon="2.21886">
        <ele>101</ele>
        <time>2016-12-04T09:34:58.274Z</time>
      </trkpt>
      <trkpt lat="47.79577" lon="2.21882">
        <ele>101</ele>
        <time>2016-12-04T09:34:59.276Z</time>
      </trkpt>
      <trkpt lat="47.79577" lon="2.21882">
        <ele>101</ele>
        <time>2016-12-04T09:35:00.270Z</time>
      </trkpt>
      <trkpt lat="47.79578" lon="2.21873">
        <ele>101</ele>
        <time>2016-12-04T09:35:01.275Z</time>
      </trkpt>
      <trkpt lat="47.79578" lon="2.21873">
        <ele>101</ele>
        <time>2016-12-04T09:35:02.270Z</time>
      </trkpt>
      <trkpt lat="47.7958" lon="2.21864">
        <ele>101</ele>
        <time>2016-12-04T09:35:03.276Z</time>
      </trkpt>
      <trkpt lat="47.7958" lon="2.21864">
        <ele>101</ele>
        <time>2016-12-04T09:35:04.270Z</time>
      </trkpt>
      <trkpt lat="47.79583" lon="2.21857">
        <ele>101</ele>
        <time>2016-12-04T09:35:05.268Z</time>
      </trkpt>
      <trkpt lat="47.79584" lon="2.21855">
        <ele>102</ele>
        <time>2016-12-04T09:35:06.274Z</time>
      </trkpt>
      <trkpt lat="47.79585" lon="2.21852">
        <ele>102</ele>
        <time>2016-12-04T09:35:07.273Z</time>
      </trkpt>
      <trkpt lat="47.79585" lon="2.21852">
        <ele>102</ele>
        <time>2016-12-04T09:35:08.270Z</time>
      </trkpt>
      <trkpt lat="47.79584" lon="2.21848">
        <ele>102</ele>
        <time>2016-12-04T09:35:09.275Z</time>
      </trkpt>
      <trkpt lat="47.79584" lon="2.21848">
        <ele>102</ele>
        <time>2016-12-04T09:35:10.270Z</time>
      </trkpt>
      <trkpt lat="47.79582" lon="2.21846">
        <ele>101</ele>
        <time>2016-12-04T09:35:11.257Z</time>
      </trkpt>
      <trkpt lat="47.79582" lon="2.21846">
        <ele>101</ele>
        <time>2016-12-04T09:35:12.279Z</time>
      </trkpt>
      <trkpt lat="47.79582" lon="2.21847">
        <ele>101</ele>
        <time>2016-12-04T09:35:13.270Z</time>
      </trkpt>
      <trkpt lat="47.79578" lon="2.21843">
        <ele>98</ele>
        <time>2016-12-04T09:35:14.269Z</time>
      </trkpt>
      <trkpt lat="47.79577" lon="2.21843">
        <ele>98</ele>
        <time>2016-12-04T09:35:15.268Z</time>
      </trkpt>
      <trkpt lat="47.79577" lon="2.21843">
        <ele>98</ele>
        <time>2016-12-04T09:35:16.280Z</time>
      </trkpt>
      <trkpt lat="47.79577" lon="2.21844">
        <ele>98</ele>
        <time>2016-12-04T09:35:17.259Z</time>
      </trkpt>
      <trkpt lat="47.79576" lon="2.21843">
        <ele>98</ele>
        <time>2016-12-04T09:35:18.265Z</time>
      </trkpt>
      <trkpt lat="47.79576" lon="2.21843">
        <ele>98</ele>
        <time>2016-12-04T09:35:19.271Z</time>
      </trkpt>
      <trkpt lat="47.79572" lon="2.21845">
        <ele>98</ele>
        <time>2016-12-04T09:35:20.277Z</time>
      </trkpt>
      <trkpt lat="47.79572" lon="2.21845">
        <ele>98</ele>
        <time>2016-12-04T09:35:21.273Z</time>
      </trkpt>
      <trkpt lat="47.7957" lon="2.21844">
        <ele>98</ele>
        <time>2016-12-04T09:35:22.277Z</time>
      </trkpt>
      <trkpt lat="47.7957" lon="2.21844">
        <ele>98</ele>
        <time>2016-12-04T09:35:23.275Z</time>
      </trkpt>
      <trkpt lat="47.79565" lon="2.21842">
        <ele>98</ele>
        <time>2016-12-04T09:35:24.278Z</time>
      </trkpt>
      <trkpt lat="47.79565" lon="2.21842">
        <ele>98</ele>
        <time>2016-12-04T09:35:25.274Z</time>
      </trkpt>
      <trkpt lat="47.7956" lon="2.2184">
        <ele>98</ele>
        <time>2016-12-04T09:35:26.277Z</time>
      </trkpt>
      <trkpt lat="47.7956" lon="2.2184">
        <ele>98</ele>
        <time>2016-12-04T09:35:27.274Z</time>
      </trkpt>
      <trkpt lat="47.79555" lon="2.21837">
        <ele>97</ele>
        <time>2016-12-04T09:35:28.270Z</time>
      </trkpt>
      <trkpt lat="47.79555" lon="2.21837">
        <ele>97</ele>
        <time>2016-12-04T09:35:29.270Z</time>
      </trkpt>
      <trkpt lat="47.79549" lon="2.21833">
        <ele>97</ele>
        <time>2016-12-04T09:35:30.278Z</time>
      </trkpt>
      <trkpt lat="47.79546" lon="2.21831">
        <ele>97</ele>
        <time>2016-12-04T09:35:31.277Z</time>
      </trkpt>
      <trkpt lat="47.79542" lon="2.2183">
        <ele>97</ele>
        <time>2016-12-04T09:35:32.276Z</time>
      </trkpt>
      <trkpt lat="47.79542" lon="2.2183">
        <ele>97</ele>
        <time>2016-12-04T09:35:33.275Z</time>
      </trkpt>
      <trkpt lat="47.79536" lon="2.21826">
        <ele>97</ele>
        <time>2016-12-04T09:35:34.277Z</time>
      </trkpt>
      <trkpt lat="47.79534" lon="2.21823">
        <ele>98</ele>
        <time>2016-12-04T09:35:35.278Z</time>
      </trkpt>
      <trkpt lat="47.79534" lon="2.21823">
        <ele>98</ele>
        <time>2016-12-04T09:35:36.278Z</time>
      </trkpt>
      <trkpt lat="47.79532" lon="2.21817">
        <ele>99</ele>
        <time>2016-12-04T09:35:37.278Z</time>
      </trkpt>
      <trkpt lat="47.79532" lon="2.21817">
        <ele>99</ele>
        <time>2016-12-04T09:35:38.267Z</time>
      </trkpt>
      <trkpt lat="47.79532" lon="2.21807">
        <ele>99</ele>
        <time>2016-12-04T09:35:39.255Z</time>
      </trkpt>
      <trkpt lat="47.79533" lon="2.21803">
        <ele>99</ele>
        <time>2016-12-04T09:35:40.245Z</time>
      </trkpt>
      <trkpt lat="47.79533" lon="2.21803">
        <ele>99</ele>
        <time>2016-12-04T09:35:41.273Z</time>
      </trkpt>
      <trkpt lat="47.79535" lon="2.21794">
        <ele>100</ele>
        <time>2016-12-04T09:35:42.278Z</time>
      </trkpt>
      <trkpt lat="47.79535" lon="2.21794">
        <ele>100</ele>
        <time>2016-12-04T09:35:43.273Z</time>
      </trkpt>
      <trkpt lat="47.79537" lon="2.21785">
        <ele>100</ele>
        <time>2016-12-04T09:35:44.277Z</time>
      </trkpt>
      <trkpt lat="47.79538" lon="2.2178">
        <ele>100</ele>
        <time>2016-12-04T09:35:45.274Z</time>
      </trkpt>
      <trkpt lat="47.79539" lon="2.21775">
        <ele>100</ele>
        <time>2016-12-04T09:35:46.277Z</time>
      </trkpt>
      <trkpt lat="47.79539" lon="2.21775">
        <ele>100</ele>
        <time>2016-12-04T09:35:47.274Z</time>
      </trkpt>
      <trkpt lat="47.79541" lon="2.21765">
        <ele>101</ele>
        <time>2016-12-04T09:35:48.270Z</time>
      </trkpt>
      <trkpt lat="47.79542" lon="2.21759">
        <ele>101</ele>
        <time>2016-12-04T09:35:49.280Z</time>
      </trkpt>
      <trkpt lat="47.79543" lon="2.21754">
        <ele>101</ele>
        <time>2016-12-04T09:35:50.276Z</time>
      </trkpt>
      <trkpt lat="47.79545" lon="2.21747">
        <ele>102</ele>
        <time>2016-12-04T09:35:51.277Z</time>
      </trkpt>
      <trkpt lat="47.79545" lon="2.21747">
        <ele>102</ele>
        <time>2016-12-04T09:35:52.275Z</time>
      </trkpt>
      <trkpt lat="47.79549" lon="2.21736">
        <ele>103</ele>
        <time>2016-12-04T09:35:53.250Z</time>
      </trkpt>
      <trkpt lat="47.7955" lon="2.2173">
        <ele>103</ele>
        <time>2016-12-04T09:35:54.244Z</time>
      </trkpt>
      <trkpt lat="47.7955" lon="2.2173">
        <ele>103</ele>
        <time>2016-12-04T09:35:55.275Z</time>
      </trkpt>
      <trkpt lat="47.79553" lon="2.2172">
        <ele>105</ele>
        <time>2016-12-04T09:35:56.277Z</time>
      </trkpt>
      <trkpt lat="47.79553" lon="2.2172">
        <ele>105</ele>
        <time>2016-12-04T09:35:57.275Z</time>
      </trkpt>
      <trkpt lat="47.79555" lon="2.21711">
        <ele>106</ele>
        <time>2016-12-04T09:35:58.269Z</time>
      </trkpt>
      <trkpt lat="47.79556" lon="2.21706">
        <ele>106</ele>
        <time>2016-12-04T09:35:59.277Z</time>
      </trkpt>
      <trkpt lat="47.79558" lon="2.21701">
        <ele>106</ele>
        <time>2016-12-04T09:36:00.278Z</time>
      </trkpt>
      <trkpt lat="47.79558" lon="2.21701">
        <ele>106</ele>
        <time>2016-12-04T09:36:01.274Z</time>
      </trkpt>
      <trkpt lat="47.79562" lon="2.21691">
        <ele>106</ele>
        <time>2016-12-04T09:36:02.276Z</time>
      </trkpt>
      <trkpt lat="47.79564" lon="2.21686">
        <ele>106</ele>
        <time>2016-12-04T09:36:03.277Z</time>
      </trkpt>
      <trkpt lat="47.79564" lon="2.21686">
        <ele>106</ele>
        <time>2016-12-04T09:36:04.271Z</time>
      </trkpt>
      <trkpt lat="47.79568" lon="2.21675">
        <ele>105</ele>
        <time>2016-12-04T09:36:05.277Z</time>
      </trkpt>
      <trkpt lat="47.7957" lon="2.21669">
        <ele>105</ele>
        <time>2016-12-04T09:36:06.278Z</time>
      </trkpt>
      <trkpt lat="47.7957" lon="2.21669">
        <ele>105</ele>
        <time>2016-12-04T09:36:07.272Z</time>
      </trkpt>
      <trkpt lat="47.79574" lon="2.21656">
        <ele>104</ele>
        <time>2016-12-04T09:36:08.287Z</time>
      </trkpt>
      <trkpt lat="47.79574" lon="2.21656">
        <ele>104</ele>
        <time>2016-12-04T09:36:09.282Z</time>
      </trkpt>
      <trkpt lat="47.79578" lon="2.21643">
        <ele>104</ele>
        <time>2016-12-04T09:36:10.277Z</time>
      </trkpt>
      <trkpt lat="47.7958" lon="2.21636">
        <ele>104</ele>
        <time>2016-12-04T09:36:11.274Z</time>
      </trkpt>
      <trkpt lat="47.79582" lon="2.2163">
        <ele>104</ele>
        <time>2016-12-04T09:36:12.278Z</time>
      </trkpt>
      <trkpt lat="47.79582" lon="2.2163">
        <ele>104</ele>
        <time>2016-12-04T09:36:13.274Z</time>
      </trkpt>
      <trkpt lat="47.79587" lon="2.21618">
        <ele>103</ele>
        <time>2016-12-04T09:36:14.277Z</time>
      </trkpt>
      <trkpt lat="47.79587" lon="2.21618">
        <ele>103</ele>
        <time>2016-12-04T09:36:15.279Z</time>
      </trkpt>
      <trkpt lat="47.7959" lon="2.21604">
        <ele>104</ele>
        <time>2016-12-04T09:36:16.282Z</time>
      </trkpt>
      <trkpt lat="47.7959" lon="2.21604">
        <ele>104</ele>
        <time>2016-12-04T09:36:17.251Z</time>
      </trkpt>
      <trkpt lat="47.79595" lon="2.21592">
        <ele>104</ele>
        <time>2016-12-04T09:36:18.263Z</time>
      </trkpt>
      <trkpt lat="47.79595" lon="2.21592">
        <ele>104</ele>
        <time>2016-12-04T09:36:19.269Z</time>
      </trkpt>
      <trkpt lat="47.79598" lon="2.2158">
        <ele>103</ele>
        <time>2016-12-04T09:36:20.277Z</time>
      </trkpt>
      <trkpt lat="47.79598" lon="2.2158">
        <ele>103</ele>
        <time>2016-12-04T09:36:21.243Z</time>
      </trkpt>
      <trkpt lat="47.79601" lon="2.21566">
        <ele>102</ele>
        <time>2016-12-04T09:36:22.277Z</time>
      </trkpt>
      <trkpt lat="47.79601" lon="2.21566">
        <ele>102</ele>
        <time>2016-12-04T09:36:23.274Z</time>
      </trkpt>
      <trkpt lat="47.79607" lon="2.21555">
        <ele>103</ele>
        <time>2016-12-04T09:36:24.277Z</time>
      </trkpt>
      <trkpt lat="47.79607" lon="2.21555">
        <ele>103</ele>
        <time>2016-12-04T09:36:25.274Z</time>
      </trkpt>
      <trkpt lat="47.79611" lon="2.21543">
        <ele>102</ele>
        <time>2016-12-04T09:36:26.277Z</time>
      </trkpt>
      <trkpt lat="47.79611" lon="2.21543">
        <ele>102</ele>
        <time>2016-12-04T09:36:27.275Z</time>
      </trkpt>
      <trkpt lat="47.79616" lon="2.2153">
        <ele>102</ele>
        <time>2016-12-04T09:36:28.277Z</time>
      </trkpt>
      <trkpt lat="47.79618" lon="2.21523">
        <ele>102</ele>
        <time>2016-12-04T09:36:29.278Z</time>
      </trkpt>
      <trkpt lat="47.79618" lon="2.21523">
        <ele>102</ele>
        <time>2016-12-04T09:36:30.276Z</time>
      </trkpt>
      <trkpt lat="47.79623" lon="2.2151">
        <ele>102</ele>
        <time>2016-12-04T09:36:31.277Z</time>
      </trkpt>
      <trkpt lat="47.79625" lon="2.21503">
        <ele>103</ele>
        <time>2016-12-04T09:36:32.277Z</time>
      </trkpt>
      <trkpt lat="47.79625" lon="2.21503">
        <ele>103</ele>
        <time>2016-12-04T09:36:33.274Z</time>
      </trkpt>
      <trkpt lat="47.79631" lon="2.21489">
        <ele>104</ele>
        <time>2016-12-04T09:36:34.260Z</time>
      </trkpt>
      <trkpt lat="47.79632" lon="2.21483">
        <ele>105</ele>
        <time>2016-12-04T09:36:35.250Z</time>
      </trkpt>
      <trkpt lat="47.79632" lon="2.21483">
        <ele>105</ele>
        <time>2016-12-04T09:36:36.279Z</time>
      </trkpt>
      <trkpt lat="47.79637" lon="2.2147">
        <ele>105</ele>
        <time>2016-12-04T09:36:37.278Z</time>
      </trkpt>
      <trkpt lat="47.79637" lon="2.2147">
        <ele>105</ele>
        <time>2016-12-04T09:36:38.268Z</time>
      </trkpt>
      <trkpt lat="47.79642" lon="2.21456">
        <ele>104</ele>
        <time>2016-12-04T09:36:39.280Z</time>
      </trkpt>
      <trkpt lat="47.79642" lon="2.21456">
        <ele>104</ele>
        <time>2016-12-04T09:36:40.275Z</time>
      </trkpt>
      <trkpt lat="47.79648" lon="2.21442">
        <ele>103</ele>
        <time>2016-12-04T09:36:41.277Z</time>
      </trkpt>
      <trkpt lat="47.79651" lon="2.21435">
        <ele>103</ele>
        <time>2016-12-04T09:36:42.275Z</time>
      </trkpt>
      <trkpt lat="47.79651" lon="2.21435">
        <ele>103</ele>
        <time>2016-12-04T09:36:43.272Z</time>
      </trkpt>
      <trkpt lat="47.79656" lon="2.21421">
        <ele>103</ele>
        <time>2016-12-04T09:36:44.277Z</time>
      </trkpt>
      <trkpt lat="47.79656" lon="2.21421">
        <ele>103</ele>
        <time>2016-12-04T09:36:45.275Z</time>
      </trkpt>
      <trkpt lat="47.79662" lon="2.21406">
        <ele>102</ele>
        <time>2016-12-04T09:36:46.277Z</time>
      </trkpt>
      <trkpt lat="47.79662" lon="2.21406">
        <ele>102</ele>
        <time>2016-12-04T09:36:47.272Z</time>
      </trkpt>
      <trkpt lat="47.79669" lon="2.21394">
        <ele>102</ele>
        <time>2016-12-04T09:36:48.279Z</time>
      </trkpt>
      <trkpt lat="47.79669" lon="2.21394">
        <ele>102</ele>
        <time>2016-12-04T09:36:49.275Z</time>
      </trkpt>
      <trkpt lat="47.79676" lon="2.21382">
        <ele>102</ele>
        <time>2016-12-04T09:36:50.277Z</time>
      </trkpt>
      <trkpt lat="47.79676" lon="2.21382">
        <ele>102</ele>
        <time>2016-12-04T09:36:51.278Z</time>
      </trkpt>
      <trkpt lat="47.79682" lon="2.21369">
        <ele>101</ele>
        <time>2016-12-04T09:36:52.277Z</time>
      </trkpt>
      <trkpt lat="47.79687" lon="2.21362">
        <ele>102</ele>
        <time>2016-12-04T09:36:53.277Z</time>
      </trkpt>
      <trkpt lat="47.79687" lon="2.21362">
        <ele>102</ele>
        <time>2016-12-04T09:36:54.275Z</time>
      </trkpt>
      <trkpt lat="47.79692" lon="2.21347">
        <ele>101</ele>
        <time>2016-12-04T09:36:55.276Z</time>
      </trkpt>
      <trkpt lat="47.79695" lon="2.2134">
        <ele>101</ele>
        <time>2016-12-04T09:36:56.277Z</time>
      </trkpt>
      <trkpt lat="47.79695" lon="2.2134">
        <ele>101</ele>
        <time>2016-12-04T09:36:57.274Z</time>
      </trkpt>
      <trkpt lat="47.79702" lon="2.21326">
        <ele>102</ele>
        <time>2016-12-04T09:36:58.270Z</time>
      </trkpt>
      <trkpt lat="47.79702" lon="2.21326">
        <ele>102</ele>
        <time>2016-12-04T09:36:59.271Z</time>
      </trkpt>
      <trkpt lat="47.79705" lon="2.21311">
        <ele>102</ele>
        <time>2016-12-04T09:37:00.277Z</time>
      </trkpt>
      <trkpt lat="47.79706" lon="2.21303">
        <ele>102</ele>
        <time>2016-12-04T09:37:01.278Z</time>
      </trkpt>
      <trkpt lat="47.79707" lon="2.21295">
        <ele>103</ele>
        <time>2016-12-04T09:37:02.276Z</time>
      </trkpt>
      <trkpt lat="47.79707" lon="2.21295">
        <ele>103</ele>
        <time>2016-12-04T09:37:03.243Z</time>
      </trkpt>
      <trkpt lat="47.79708" lon="2.21279">
        <ele>103</ele>
        <time>2016-12-04T09:37:04.277Z</time>
      </trkpt>
      <trkpt lat="47.79707" lon="2.21271">
        <ele>103</ele>
        <time>2016-12-04T09:37:05.277Z</time>
      </trkpt>
      <trkpt lat="47.79707" lon="2.21271">
        <ele>103</ele>
        <time>2016-12-04T09:37:06.277Z</time>
      </trkpt>
      <trkpt lat="47.79706" lon="2.21256">
        <ele>104</ele>
        <time>2016-12-04T09:37:07.277Z</time>
      </trkpt>
      <trkpt lat="47.79706" lon="2.21256">
        <ele>104</ele>
        <time>2016-12-04T09:37:08.268Z</time>
      </trkpt>
      <trkpt lat="47.79705" lon="2.21241">
        <ele>104</ele>
        <time>2016-12-04T09:37:09.278Z</time>
      </trkpt>
      <trkpt lat="47.79705" lon="2.21241">
        <ele>104</ele>
        <time>2016-12-04T09:37:10.275Z</time>
      </trkpt>
      <trkpt lat="47.79702" lon="2.21226">
        <ele>104</ele>
        <time>2016-12-04T09:37:11.277Z</time>
      </trkpt>
      <trkpt lat="47.797" lon="2.21219">
        <ele>104</ele>
        <time>2016-12-04T09:37:12.280Z</time>
      </trkpt>
      <trkpt lat="47.797" lon="2.21219">
        <ele>104</ele>
        <time>2016-12-04T09:37:13.272Z</time>
      </trkpt>
      <trkpt lat="47.79696" lon="2.21205">
        <ele>104</ele>
        <time>2016-12-04T09:37:14.277Z</time>
      </trkpt>
      <trkpt lat="47.79696" lon="2.21205">
        <ele>104</ele>
        <time>2016-12-04T09:37:15.275Z</time>
      </trkpt>
      <trkpt lat="47.79693" lon="2.21192">
        <ele>104</ele>
        <time>2016-12-04T09:37:16.245Z</time>
      </trkpt>
      <trkpt lat="47.79692" lon="2.21185">
        <ele>104</ele>
        <time>2016-12-04T09:37:17.274Z</time>
      </trkpt>
      <trkpt lat="47.79692" lon="2.21185">
        <ele>104</ele>
        <time>2016-12-04T09:37:18.280Z</time>
      </trkpt>
      <trkpt lat="47.79692" lon="2.2117">
        <ele>104</ele>
        <time>2016-12-04T09:37:19.246Z</time>
      </trkpt>
      <trkpt lat="47.79693" lon="2.21162">
        <ele>104</ele>
        <time>2016-12-04T09:37:20.283Z</time>
      </trkpt>
      <trkpt lat="47.79693" lon="2.21162">
        <ele>104</ele>
        <time>2016-12-04T09:37:21.250Z</time>
      </trkpt>
      <trkpt lat="47.79694" lon="2.21147">
        <ele>104</ele>
        <time>2016-12-04T09:37:22.279Z</time>
      </trkpt>
      <trkpt lat="47.79694" lon="2.21139">
        <ele>104</ele>
        <time>2016-12-04T09:37:23.277Z</time>
      </trkpt>
      <trkpt lat="47.79694" lon="2.21139">
        <ele>104</ele>
        <time>2016-12-04T09:37:24.276Z</time>
      </trkpt>
      <trkpt lat="47.79696" lon="2.21122">
        <ele>104</ele>
        <time>2016-12-04T09:37:25.278Z</time>
      </trkpt>
      <trkpt lat="47.79696" lon="2.21115">
        <ele>103</ele>
        <time>2016-12-04T09:37:26.277Z</time>
      </trkpt>
      <trkpt lat="47.79696" lon="2.21115">
        <ele>103</ele>
        <time>2016-12-04T09:37:27.275Z</time>
      </trkpt>
      <trkpt lat="47.79696" lon="2.211">
        <ele>103</ele>
        <time>2016-12-04T09:37:28.278Z</time>
      </trkpt>
      <trkpt lat="47.79696" lon="2.211">
        <ele>103</ele>
        <time>2016-12-04T09:37:29.277Z</time>
      </trkpt>
      <trkpt lat="47.79695" lon="2.21084">
        <ele>103</ele>
        <time>2016-12-04T09:37:30.276Z</time>
      </trkpt>
      <trkpt lat="47.79695" lon="2.21077">
        <ele>104</ele>
        <time>2016-12-04T09:37:31.278Z</time>
      </trkpt>
      <trkpt lat="47.79695" lon="2.21077">
        <ele>104</ele>
        <time>2016-12-04T09:37:32.275Z</time>
      </trkpt>
      <trkpt lat="47.79695" lon="2.21062">
        <ele>104</ele>
        <time>2016-12-04T09:37:33.260Z</time>
      </trkpt>
      <trkpt lat="47.79695" lon="2.21062">
        <ele>104</ele>
        <time>2016-12-04T09:37:34.259Z</time>
      </trkpt>
      <trkpt lat="47.79695" lon="2.21047">
        <ele>104</ele>
        <time>2016-12-04T09:37:35.277Z</time>
      </trkpt>
      <trkpt lat="47.79695" lon="2.21039">
        <ele>104</ele>
        <time>2016-12-04T09:37:36.279Z</time>
      </trkpt>
      <trkpt lat="47.79695" lon="2.21039">
        <ele>104</ele>
        <time>2016-12-04T09:37:37.272Z</time>
      </trkpt>
      <trkpt lat="47.79695" lon="2.21022">
        <ele>104</ele>
        <time>2016-12-04T09:37:38.243Z</time>
      </trkpt>
      <trkpt lat="47.79696" lon="2.21014">
        <ele>103</ele>
        <time>2016-12-04T09:37:39.277Z</time>
      </trkpt>
      <trkpt lat="47.79696" lon="2.21014">
        <ele>103</ele>
        <time>2016-12-04T09:37:40.275Z</time>
      </trkpt>
      <trkpt lat="47.79697" lon="2.20997">
        <ele>103</ele>
        <time>2016-12-04T09:37:41.277Z</time>
      </trkpt>
      <trkpt lat="47.79697" lon="2.20997">
        <ele>103</ele>
        <time>2016-12-04T09:37:42.275Z</time>
      </trkpt>
      <trkpt lat="47.79698" lon="2.20981">
        <ele>103</ele>
        <time>2016-12-04T09:37:43.279Z</time>
      </trkpt>
      <trkpt lat="47.79699" lon="2.20974">
        <ele>103</ele>
        <time>2016-12-04T09:37:44.278Z</time>
      </trkpt>
      <trkpt lat="47.79699" lon="2.20974">
        <ele>103</ele>
        <time>2016-12-04T09:37:45.273Z</time>
      </trkpt>
      <trkpt lat="47.797" lon="2.20958">
        <ele>103</ele>
        <time>2016-12-04T09:37:46.278Z</time>
      </trkpt>
      <trkpt lat="47.797" lon="2.20958">
        <ele>103</ele>
        <time>2016-12-04T09:37:47.275Z</time>
      </trkpt>
      <trkpt lat="47.797" lon="2.20943">
        <ele>104</ele>
        <time>2016-12-04T09:37:48.272Z</time>
      </trkpt>
      <trkpt lat="47.797" lon="2.20943">
        <ele>104</ele>
        <time>2016-12-04T09:37:49.275Z</time>
      </trkpt>
      <trkpt lat="47.79698" lon="2.20927">
        <ele>105</ele>
        <time>2016-12-04T09:37:50.280Z</time>
      </trkpt>
      <trkpt lat="47.79698" lon="2.20927">
        <ele>105</ele>
        <time>2016-12-04T09:37:51.275Z</time>
      </trkpt>
      <trkpt lat="47.79696" lon="2.20911">
        <ele>105</ele>
        <time>2016-12-04T09:37:52.278Z</time>
      </trkpt>
      <trkpt lat="47.79696" lon="2.20911">
        <ele>105</ele>
        <time>2016-12-04T09:37:53.272Z</time>
      </trkpt>
      <trkpt lat="47.79695" lon="2.20895">
        <ele>105</ele>
        <time>2016-12-04T09:37:54.278Z</time>
      </trkpt>
      <trkpt lat="47.79695" lon="2.20895">
        <ele>105</ele>
        <time>2016-12-04T09:37:55.275Z</time>
      </trkpt>
      <trkpt lat="47.79693" lon="2.2088">
        <ele>106</ele>
        <time>2016-12-04T09:37:56.278Z</time>
      </trkpt>
      <trkpt lat="47.79693" lon="2.2088">
        <ele>106</ele>
        <time>2016-12-04T09:37:57.275Z</time>
      </trkpt>
      <trkpt lat="47.79692" lon="2.20864">
        <ele>106</ele>
        <time>2016-12-04T09:37:58.278Z</time>
      </trkpt>
      <trkpt lat="47.79692" lon="2.20864">
        <ele>106</ele>
        <time>2016-12-04T09:37:59.276Z</time>
      </trkpt>
      <trkpt lat="47.79691" lon="2.20847">
        <ele>106</ele>
        <time>2016-12-04T09:38:00.279Z</time>
      </trkpt>
      <trkpt lat="47.79691" lon="2.20847">
        <ele>106</ele>
        <time>2016-12-04T09:38:01.275Z</time>
      </trkpt>
      <trkpt lat="47.79689" lon="2.20832">
        <ele>105</ele>
        <time>2016-12-04T09:38:02.277Z</time>
      </trkpt>
      <trkpt lat="47.79689" lon="2.20832">
        <ele>105</ele>
        <time>2016-12-04T09:38:03.275Z</time>
      </trkpt>
      <trkpt lat="47.79688" lon="2.20817">
        <ele>105</ele>
        <time>2016-12-04T09:38:04.277Z</time>
      </trkpt>
      <trkpt lat="47.79688" lon="2.20817">
        <ele>105</ele>
        <time>2016-12-04T09:38:05.275Z</time>
      </trkpt>
      <trkpt lat="47.79687" lon="2.20801">
        <ele>104</ele>
        <time>2016-12-04T09:38:06.279Z</time>
      </trkpt>
      <trkpt lat="47.79685" lon="2.20794">
        <ele>104</ele>
        <time>2016-12-04T09:38:07.277Z</time>
      </trkpt>
      <trkpt lat="47.79685" lon="2.20794">
        <ele>104</ele>
        <time>2016-12-04T09:38:08.268Z</time>
      </trkpt>
      <trkpt lat="47.79684" lon="2.20778">
        <ele>104</ele>
        <time>2016-12-04T09:38:09.277Z</time>
      </trkpt>
      <trkpt lat="47.79684" lon="2.20778">
        <ele>104</ele>
        <time>2016-12-04T09:38:10.276Z</time>
      </trkpt>
      <trkpt lat="47.79682" lon="2.20763">
        <ele>104</ele>
        <time>2016-12-04T09:38:11.277Z</time>
      </trkpt>
      <trkpt lat="47.79682" lon="2.20763">
        <ele>104</ele>
        <time>2016-12-04T09:38:12.279Z</time>
      </trkpt>
      <trkpt lat="47.7968" lon="2.20748">
        <ele>104</ele>
        <time>2016-12-04T09:38:13.278Z</time>
      </trkpt>
      <trkpt lat="47.79678" lon="2.20742">
        <ele>104</ele>
        <time>2016-12-04T09:38:14.278Z</time>
      </trkpt>
      <trkpt lat="47.79678" lon="2.20742">
        <ele>104</ele>
        <time>2016-12-04T09:38:15.273Z</time>
      </trkpt>
      <trkpt lat="47.79673" lon="2.20732">
        <ele>104</ele>
        <time>2016-12-04T09:38:16.243Z</time>
      </trkpt>
      <trkpt lat="47.79673" lon="2.20732">
        <ele>104</ele>
        <time>2016-12-04T09:38:17.276Z</time>
      </trkpt>
      <trkpt lat="47.79668" lon="2.20723">
        <ele>104</ele>
        <time>2016-12-04T09:38:18.271Z</time>
      </trkpt>
      <trkpt lat="47.79665" lon="2.20718">
        <ele>104</ele>
        <time>2016-12-04T09:38:19.278Z</time>
      </trkpt>
      <trkpt lat="47.79665" lon="2.20718">
        <ele>104</ele>
        <time>2016-12-04T09:38:20.278Z</time>
      </trkpt>
      <trkpt lat="47.79662" lon="2.20706">
        <ele>104</ele>
        <time>2016-12-04T09:38:21.278Z</time>
      </trkpt>
      <trkpt lat="47.79662" lon="2.20706">
        <ele>104</ele>
        <time>2016-12-04T09:38:22.276Z</time>
      </trkpt>
      <trkpt lat="47.7966" lon="2.20693">
        <ele>104</ele>
        <time>2016-12-04T09:38:23.274Z</time>
      </trkpt>
      <trkpt lat="47.7966" lon="2.20686">
        <ele>104</ele>
        <time>2016-12-04T09:38:24.278Z</time>
      </trkpt>
      <trkpt lat="47.7966" lon="2.20686">
        <ele>104</ele>
        <time>2016-12-04T09:38:25.274Z</time>
      </trkpt>
      <trkpt lat="47.7966" lon="2.20672">
        <ele>105</ele>
        <time>2016-12-04T09:38:26.278Z</time>
      </trkpt>
      <trkpt lat="47.7966" lon="2.20672">
        <ele>105</ele>
        <time>2016-12-04T09:38:27.275Z</time>
      </trkpt>
      <trkpt lat="47.79659" lon="2.20658">
        <ele>105</ele>
        <time>2016-12-04T09:38:28.277Z</time>
      </trkpt>
      <trkpt lat="47.79659" lon="2.20658">
        <ele>105</ele>
        <time>2016-12-04T09:38:29.278Z</time>
      </trkpt>
      <trkpt lat="47.79658" lon="2.20643">
        <ele>105</ele>
        <time>2016-12-04T09:38:30.278Z</time>
      </trkpt>
      <trkpt lat="47.79658" lon="2.20643">
        <ele>105</ele>
        <time>2016-12-04T09:38:31.275Z</time>
      </trkpt>
      <trkpt lat="47.79658" lon="2.20629">
        <ele>105</ele>
        <time>2016-12-04T09:38:32.278Z</time>
      </trkpt>
      <trkpt lat="47.79658" lon="2.20629">
        <ele>105</ele>
        <time>2016-12-04T09:38:33.273Z</time>
      </trkpt>
      <trkpt lat="47.79658" lon="2.20615">
        <ele>105</ele>
        <time>2016-12-04T09:38:34.243Z</time>
      </trkpt>
      <trkpt lat="47.79658" lon="2.20615">
        <ele>105</ele>
        <time>2016-12-04T09:38:35.273Z</time>
      </trkpt>
      <trkpt lat="47.79657" lon="2.20602">
        <ele>105</ele>
        <time>2016-12-04T09:38:36.279Z</time>
      </trkpt>
      <trkpt lat="47.79657" lon="2.20602">
        <ele>105</ele>
        <time>2016-12-04T09:38:37.276Z</time>
      </trkpt>
      <trkpt lat="47.79657" lon="2.2059">
        <ele>106</ele>
        <time>2016-12-04T09:38:38.271Z</time>
      </trkpt>
      <trkpt lat="47.79656" lon="2.20583">
        <ele>106</ele>
        <time>2016-12-04T09:38:39.278Z</time>
      </trkpt>
      <trkpt lat="47.79656" lon="2.20583">
        <ele>106</ele>
        <time>2016-12-04T09:38:40.275Z</time>
      </trkpt>
      <trkpt lat="47.79655" lon="2.20569">
        <ele>106</ele>
        <time>2016-12-04T09:38:41.278Z</time>
      </trkpt>
      <trkpt lat="47.79655" lon="2.20562">
        <ele>106</ele>
        <time>2016-12-04T09:38:42.260Z</time>
      </trkpt>
      <trkpt lat="47.79655" lon="2.20562">
        <ele>106</ele>
        <time>2016-12-04T09:38:43.245Z</time>
      </trkpt>
      <trkpt lat="47.79655" lon="2.20549">
        <ele>107</ele>
        <time>2016-12-04T09:38:44.259Z</time>
      </trkpt>
      <trkpt lat="47.79655" lon="2.20549">
        <ele>107</ele>
        <time>2016-12-04T09:38:45.282Z</time>
      </trkpt>
      <trkpt lat="47.79653" lon="2.20535">
        <ele>107</ele>
        <time>2016-12-04T09:38:46.278Z</time>
      </trkpt>
      <trkpt lat="47.79653" lon="2.20535">
        <ele>107</ele>
        <time>2016-12-04T09:38:47.273Z</time>
      </trkpt>
      <trkpt lat="47.79649" lon="2.2052">
        <ele>108</ele>
        <time>2016-12-04T09:38:48.279Z</time>
      </trkpt>
      <trkpt lat="47.79649" lon="2.2052">
        <ele>108</ele>
        <time>2016-12-04T09:38:49.280Z</time>
      </trkpt>
      <trkpt lat="47.79647" lon="2.20507">
        <ele>108</ele>
        <time>2016-12-04T09:38:50.279Z</time>
      </trkpt>
      <trkpt lat="47.79647" lon="2.20507">
        <ele>108</ele>
        <time>2016-12-04T09:38:51.275Z</time>
      </trkpt>
      <trkpt lat="47.79644" lon="2.20493">
        <ele>108</ele>
        <time>2016-12-04T09:38:52.278Z</time>
      </trkpt>
      <trkpt lat="47.79644" lon="2.20493">
        <ele>108</ele>
        <time>2016-12-04T09:38:53.276Z</time>
      </trkpt>
      <trkpt lat="47.79641" lon="2.20479">
        <ele>108</ele>
        <time>2016-12-04T09:38:54.278Z</time>
      </trkpt>
      <trkpt lat="47.79641" lon="2.20479">
        <ele>108</ele>
        <time>2016-12-04T09:38:55.276Z</time>
      </trkpt>
      <trkpt lat="47.79638" lon="2.20465">
        <ele>107</ele>
        <time>2016-12-04T09:38:56.279Z</time>
      </trkpt>
      <trkpt lat="47.79638" lon="2.20465">
        <ele>107</ele>
        <time>2016-12-04T09:38:57.276Z</time>
      </trkpt>
      <trkpt lat="47.79634" lon="2.20448">
        <ele>106</ele>
        <time>2016-12-04T09:38:58.271Z</time>
      </trkpt>
      <trkpt lat="47.79632" lon="2.20441">
        <ele>106</ele>
        <time>2016-12-04T09:38:59.278Z</time>
      </trkpt>
      <trkpt lat="47.79629" lon="2.20432">
        <ele>105</ele>
        <time>2016-12-04T09:39:00.279Z</time>
      </trkpt>
      <trkpt lat="47.79627" lon="2.20425">
        <ele>105</ele>
        <time>2016-12-04T09:39:01.277Z</time>
      </trkpt>
      <trkpt lat="47.79627" lon="2.20425">
        <ele>105</ele>
        <time>2016-12-04T09:39:02.276Z</time>
      </trkpt>
      <trkpt lat="47.79623" lon="2.20409">
        <ele>104</ele>
        <time>2016-12-04T09:39:03.278Z</time>
      </trkpt>
      <trkpt lat="47.79623" lon="2.20409">
        <ele>104</ele>
        <time>2016-12-04T09:39:04.278Z</time>
      </trkpt>
      <trkpt lat="47.79618" lon="2.20394">
        <ele>104</ele>
        <time>2016-12-04T09:39:05.278Z</time>
      </trkpt>
      <trkpt lat="47.79618" lon="2.20394">
        <ele>104</ele>
        <time>2016-12-04T09:39:06.276Z</time>
      </trkpt>
      <trkpt lat="47.79614" lon="2.20379">
        <ele>104</ele>
        <time>2016-12-04T09:39:07.278Z</time>
      </trkpt>
      <trkpt lat="47.79614" lon="2.20379">
        <ele>104</ele>
        <time>2016-12-04T09:39:08.269Z</time>
      </trkpt>
      <trkpt lat="47.79611" lon="2.20364">
        <ele>104</ele>
        <time>2016-12-04T09:39:09.278Z</time>
      </trkpt>
      <trkpt lat="47.79611" lon="2.20364">
        <ele>104</ele>
        <time>2016-12-04T09:39:10.275Z</time>
      </trkpt>
      <trkpt lat="47.79608" lon="2.2035">
        <ele>104</ele>
        <time>2016-12-04T09:39:11.278Z</time>
      </trkpt>
      <trkpt lat="47.79607" lon="2.20343">
        <ele>104</ele>
        <time>2016-12-04T09:39:12.279Z</time>
      </trkpt>
      <trkpt lat="47.79607" lon="2.20343">
        <ele>104</ele>
        <time>2016-12-04T09:39:13.246Z</time>
      </trkpt>
      <trkpt lat="47.79606" lon="2.20329">
        <ele>104</ele>
        <time>2016-12-04T09:39:14.279Z</time>
      </trkpt>
      <trkpt lat="47.79606" lon="2.20329">
        <ele>104</ele>
        <time>2016-12-04T09:39:15.276Z</time>
      </trkpt>
      <trkpt lat="47.79605" lon="2.20315">
        <ele>104</ele>
        <time>2016-12-04T09:39:16.245Z</time>
      </trkpt>
      <trkpt lat="47.79604" lon="2.20309">
        <ele>104</ele>
        <time>2016-12-04T09:39:17.245Z</time>
      </trkpt>
      <trkpt lat="47.79604" lon="2.20309">
        <ele>104</ele>
        <time>2016-12-04T09:39:18.251Z</time>
      </trkpt>
      <trkpt lat="47.79604" lon="2.20296">
        <ele>104</ele>
        <time>2016-12-04T09:39:19.277Z</time>
      </trkpt>
      <trkpt lat="47.79603" lon="2.2029">
        <ele>104</ele>
        <time>2016-12-04T09:39:20.279Z</time>
      </trkpt>
      <trkpt lat="47.79603" lon="2.2029">
        <ele>104</ele>
        <time>2016-12-04T09:39:21.275Z</time>
      </trkpt>
      <trkpt lat="47.79603" lon="2.20276">
        <ele>103</ele>
        <time>2016-12-04T09:39:22.251Z</time>
      </trkpt>
      <trkpt lat="47.79603" lon="2.2027">
        <ele>104</ele>
        <time>2016-12-04T09:39:23.243Z</time>
      </trkpt>
      <trkpt lat="47.79603" lon="2.2027">
        <ele>104</ele>
        <time>2016-12-04T09:39:24.276Z</time>
      </trkpt>
      <trkpt lat="47.79601" lon="2.20257">
        <ele>104</ele>
        <time>2016-12-04T09:39:25.278Z</time>
      </trkpt>
      <trkpt lat="47.796" lon="2.2025">
        <ele>104</ele>
        <time>2016-12-04T09:39:26.279Z</time>
      </trkpt>
      <trkpt lat="47.796" lon="2.2025">
        <ele>104</ele>
        <time>2016-12-04T09:39:27.274Z</time>
      </trkpt>
      <trkpt lat="47.79598" lon="2.20236">
        <ele>104</ele>
        <time>2016-12-04T09:39:28.243Z</time>
      </trkpt>
      <trkpt lat="47.79596" lon="2.20229">
        <ele>104</ele>
        <time>2016-12-04T09:39:29.275Z</time>
      </trkpt>
      <trkpt lat="47.79596" lon="2.20229">
        <ele>104</ele>
        <time>2016-12-04T09:39:30.275Z</time>
      </trkpt>
      <trkpt lat="47.79596" lon="2.20214">
        <ele>104</ele>
        <time>2016-12-04T09:39:31.277Z</time>
      </trkpt>
      <trkpt lat="47.79596" lon="2.20214">
        <ele>104</ele>
        <time>2016-12-04T09:39:32.277Z</time>
      </trkpt>
      <trkpt lat="47.79595" lon="2.20201">
        <ele>103</ele>
        <time>2016-12-04T09:39:33.278Z</time>
      </trkpt>
      <trkpt lat="47.79594" lon="2.20194">
        <ele>104</ele>
        <time>2016-12-04T09:39:34.278Z</time>
      </trkpt>
      <trkpt lat="47.79594" lon="2.20194">
        <ele>104</ele>
        <time>2016-12-04T09:39:35.276Z</time>
      </trkpt>
      <trkpt lat="47.79592" lon="2.20182">
        <ele>104</ele>
        <time>2016-12-04T09:39:36.279Z</time>
      </trkpt>
      <trkpt lat="47.79592" lon="2.20182">
        <ele>104</ele>
        <time>2016-12-04T09:39:37.275Z</time>
      </trkpt>
      <trkpt lat="47.79591" lon="2.20168">
        <ele>104</ele>
        <time>2016-12-04T09:39:38.279Z</time>
      </trkpt>
      <trkpt lat="47.7959" lon="2.20161">
        <ele>104</ele>
        <time>2016-12-04T09:39:39.278Z</time>
      </trkpt>
      <trkpt lat="47.7959" lon="2.20161">
        <ele>104</ele>
        <time>2016-12-04T09:39:40.276Z</time>
      </trkpt>
      <trkpt lat="47.79588" lon="2.20148">
        <ele>103</ele>
        <time>2016-12-04T09:39:41.275Z</time>
      </trkpt>
      <trkpt lat="47.79589" lon="2.20144">
        <ele>104</ele>
        <time>2016-12-04T09:39:42.278Z</time>
      </trkpt>
      <trkpt lat="47.79589" lon="2.20144">
        <ele>104</ele>
        <time>2016-12-04T09:39:43.275Z</time>
      </trkpt>
      <trkpt lat="47.79593" lon="2.20141">
        <ele>104</ele>
        <time>2016-12-04T09:39:44.260Z</time>
      </trkpt>
      <trkpt lat="47.79593" lon="2.20141">
        <ele>104</ele>
        <time>2016-12-04T09:39:45.252Z</time>
      </trkpt>
      <trkpt lat="47.79601" lon="2.20144">
        <ele>104</ele>
        <time>2016-12-04T09:39:46.280Z</time>
      </trkpt>
      <trkpt lat="47.79601" lon="2.20144">
        <ele>104</ele>
        <time>2016-12-04T09:39:47.276Z</time>
      </trkpt>
      <trkpt lat="47.79609" lon="2.20147">
        <ele>104</ele>
        <time>2016-12-04T09:39:48.279Z</time>
      </trkpt>
      <trkpt lat="47.79613" lon="2.20149">
        <ele>103</ele>
        <time>2016-12-04T09:39:49.246Z</time>
      </trkpt>
      <trkpt lat="47.79613" lon="2.20149">
        <ele>103</ele>
        <time>2016-12-04T09:39:50.277Z</time>
      </trkpt>
      <trkpt lat="47.79621" lon="2.20151">
        <ele>103</ele>
        <time>2016-12-04T09:39:51.244Z</time>
      </trkpt>
      <trkpt lat="47.79621" lon="2.20151">
        <ele>103</ele>
        <time>2016-12-04T09:39:52.273Z</time>
      </trkpt>
      <trkpt lat="47.79629" lon="2.2015">
        <ele>104</ele>
        <time>2016-12-04T09:39:53.277Z</time>
      </trkpt>
      <trkpt lat="47.79629" lon="2.2015">
        <ele>104</ele>
        <time>2016-12-04T09:39:54.249Z</time>
      </trkpt>
      <trkpt lat="47.79638" lon="2.20149">
        <ele>104</ele>
        <time>2016-12-04T09:39:55.279Z</time>
      </trkpt>
      <trkpt lat="47.79638" lon="2.20149">
        <ele>104</ele>
        <time>2016-12-04T09:39:56.274Z</time>
      </trkpt>
      <trkpt lat="47.79644" lon="2.20148">
        <ele>104</ele>
        <time>2016-12-04T09:39:57.277Z</time>
      </trkpt>
      <trkpt lat="47.79644" lon="2.20148">
        <ele>104</ele>
        <time>2016-12-04T09:39:58.269Z</time>
      </trkpt>
      <trkpt lat="47.79646" lon="2.20144">
        <ele>105</ele>
        <time>2016-12-04T09:39:59.259Z</time>
      </trkpt>
      <trkpt lat="47.79645" lon="2.20143">
        <ele>106</ele>
        <time>2016-12-04T09:40:00.251Z</time>
      </trkpt>
      <trkpt lat="47.79645" lon="2.20143">
        <ele>106</ele>
        <time>2016-12-04T09:40:01.280Z</time>
      </trkpt>
      <trkpt lat="47.79642" lon="2.20138">
        <ele>106</ele>
        <time>2016-12-04T09:40:02.278Z</time>
      </trkpt>
      <trkpt lat="47.79642" lon="2.20138">
        <ele>106</ele>
        <time>2016-12-04T09:40:03.276Z</time>
      </trkpt>
      <trkpt lat="47.79637" lon="2.20126">
        <ele>105</ele>
        <time>2016-12-04T09:40:04.276Z</time>
      </trkpt>
      <trkpt lat="47.79637" lon="2.20126">
        <ele>105</ele>
        <time>2016-12-04T09:40:05.273Z</time>
      </trkpt>
      <trkpt lat="47.79631" lon="2.20114">
        <ele>104</ele>
        <time>2016-12-04T09:40:06.278Z</time>
      </trkpt>
      <trkpt lat="47.79631" lon="2.20114">
        <ele>104</ele>
        <time>2016-12-04T09:40:07.277Z</time>
      </trkpt>
      <trkpt lat="47.79625" lon="2.20105">
        <ele>103</ele>
        <time>2016-12-04T09:40:08.271Z</time>
      </trkpt>
      <trkpt lat="47.79623" lon="2.201">
        <ele>103</ele>
        <time>2016-12-04T09:40:09.278Z</time>
      </trkpt>
      <trkpt lat="47.7962" lon="2.20095">
        <ele>103</ele>
        <time>2016-12-04T09:40:10.277Z</time>
      </trkpt>
      <trkpt lat="47.7962" lon="2.20095">
        <ele>103</ele>
        <time>2016-12-04T09:40:11.276Z</time>
      </trkpt>
      <trkpt lat="47.79616" lon="2.20083">
        <ele>102</ele>
        <time>2016-12-04T09:40:12.279Z</time>
      </trkpt>
      <trkpt lat="47.79616" lon="2.20083">
        <ele>102</ele>
        <time>2016-12-04T09:40:13.266Z</time>
      </trkpt>
      <trkpt lat="47.79614" lon="2.20074">
        <ele>103</ele>
        <time>2016-12-04T09:40:14.248Z</time>
      </trkpt>
      <trkpt lat="47.79614" lon="2.20074">
        <ele>103</ele>
        <time>2016-12-04T09:40:15.251Z</time>
      </trkpt>
      <trkpt lat="47.79613" lon="2.20069">
        <ele>102</ele>
        <time>2016-12-04T09:40:16.282Z</time>
      </trkpt>
      <trkpt lat="47.79613" lon="2.20069">
        <ele>102</ele>
        <time>2016-12-04T09:40:17.247Z</time>
      </trkpt>
      <trkpt lat="47.79612" lon="2.20067">
        <ele>103</ele>
        <time>2016-12-04T09:40:18.253Z</time>
      </trkpt>
      <trkpt lat="47.79612" lon="2.20066">
        <ele>102</ele>
        <time>2016-12-04T09:40:19.259Z</time>
      </trkpt>
      <trkpt lat="47.79612" lon="2.20065">
        <ele>103</ele>
        <time>2016-12-04T09:40:20.279Z</time>
      </trkpt>
      <trkpt lat="47.79612" lon="2.20065">
        <ele>103</ele>
        <time>2016-12-04T09:40:21.276Z</time>
      </trkpt>
      <trkpt lat="47.79611" lon="2.20065">
        <ele>103</ele>
        <time>2016-12-04T09:40:22.280Z</time>
      </trkpt>
      <trkpt lat="47.79611" lon="2.20065">
        <ele>103</ele>
        <time>2016-12-04T09:40:23.276Z</time>
      </trkpt>
      <trkpt lat="47.79608" lon="2.20055">
        <ele>103</ele>
        <time>2016-12-04T09:40:24.272Z</time>
      </trkpt>
      <trkpt lat="47.79608" lon="2.20055">
        <ele>103</ele>
        <time>2016-12-04T09:40:25.272Z</time>
      </trkpt>
      <trkpt lat="47.79609" lon="2.20048">
        <ele>103</ele>
        <time>2016-12-04T09:40:26.266Z</time>
      </trkpt>
      <trkpt lat="47.79609" lon="2.20048">
        <ele>103</ele>
        <time>2016-12-04T09:40:27.254Z</time>
      </trkpt>
      <trkpt lat="47.79608" lon="2.2004">
        <ele>102</ele>
        <time>2016-12-04T09:40:28.261Z</time>
      </trkpt>
      <trkpt lat="47.79608" lon="2.20037">
        <ele>102</ele>
        <time>2016-12-04T09:40:29.251Z</time>
      </trkpt>
      <trkpt lat="47.79608" lon="2.20037">
        <ele>102</ele>
        <time>2016-12-04T09:40:30.248Z</time>
      </trkpt>
      <trkpt lat="47.79607" lon="2.20028">
        <ele>102</ele>
        <time>2016-12-04T09:40:31.251Z</time>
      </trkpt>
      <trkpt lat="47.79607" lon="2.20028">
        <ele>102</ele>
        <time>2016-12-04T09:40:32.249Z</time>
      </trkpt>
      <trkpt lat="47.79605" lon="2.2002">
        <ele>102</ele>
        <time>2016-12-04T09:40:33.252Z</time>
      </trkpt>
      <trkpt lat="47.79604" lon="2.20015">
        <ele>103</ele>
        <time>2016-12-04T09:40:34.251Z</time>
      </trkpt>
      <trkpt lat="47.79604" lon="2.20015">
        <ele>103</ele>
        <time>2016-12-04T09:40:35.245Z</time>
      </trkpt>
      <trkpt lat="47.79604" lon="2.20005">
        <ele>103</ele>
        <time>2016-12-04T09:40:36.251Z</time>
      </trkpt>
      <trkpt lat="47.79604" lon="2.20005">
        <ele>103</ele>
        <time>2016-12-04T09:40:37.248Z</time>
      </trkpt>
      <trkpt lat="47.79605" lon="2.19994">
        <ele>103</ele>
        <time>2016-12-04T09:40:38.243Z</time>
      </trkpt>
      <trkpt lat="47.79605" lon="2.19988">
        <ele>102</ele>
        <time>2016-12-04T09:40:39.251Z</time>
      </trkpt>
      <trkpt lat="47.79605" lon="2.19988">
        <ele>102</ele>
        <time>2016-12-04T09:40:40.246Z</time>
      </trkpt>
      <trkpt lat="47.79604" lon="2.19976">
        <ele>102</ele>
        <time>2016-12-04T09:40:41.251Z</time>
      </trkpt>
      <trkpt lat="47.79604" lon="2.19976">
        <ele>102</ele>
        <time>2016-12-04T09:40:42.249Z</time>
      </trkpt>
      <trkpt lat="47.79604" lon="2.19962">
        <ele>102</ele>
        <time>2016-12-04T09:40:43.251Z</time>
      </trkpt>
      <trkpt lat="47.79604" lon="2.19956">
        <ele>102</ele>
        <time>2016-12-04T09:40:44.253Z</time>
      </trkpt>
      <trkpt lat="47.79604" lon="2.19949">
        <ele>102</ele>
        <time>2016-12-04T09:40:45.250Z</time>
      </trkpt>
      <trkpt lat="47.79604" lon="2.19949">
        <ele>102</ele>
        <time>2016-12-04T09:40:46.249Z</time>
      </trkpt>
      <trkpt lat="47.79604" lon="2.19936">
        <ele>102</ele>
        <time>2016-12-04T09:40:47.251Z</time>
      </trkpt>
      <trkpt lat="47.79604" lon="2.19936">
        <ele>102</ele>
        <time>2016-12-04T09:40:48.282Z</time>
      </trkpt>
      <trkpt lat="47.79605" lon="2.19925">
        <ele>102</ele>
        <time>2016-12-04T09:40:49.271Z</time>
      </trkpt>
      <trkpt lat="47.79606" lon="2.1992">
        <ele>102</ele>
        <time>2016-12-04T09:40:50.271Z</time>
      </trkpt>
      <trkpt lat="47.79606" lon="2.1992">
        <ele>102</ele>
        <time>2016-12-04T09:40:51.261Z</time>
      </trkpt>
      <trkpt lat="47.79608" lon="2.19908">
        <ele>102</ele>
        <time>2016-12-04T09:40:52.251Z</time>
      </trkpt>
      <trkpt lat="47.79609" lon="2.19902">
        <ele>102</ele>
        <time>2016-12-04T09:40:53.251Z</time>
      </trkpt>
      <trkpt lat="47.79609" lon="2.19902">
        <ele>102</ele>
        <time>2016-12-04T09:40:54.248Z</time>
      </trkpt>
      <trkpt lat="47.79612" lon="2.19889">
        <ele>102</ele>
        <time>2016-12-04T09:40:55.253Z</time>
      </trkpt>
      <trkpt lat="47.79613" lon="2.19884">
        <ele>102</ele>
        <time>2016-12-04T09:40:56.252Z</time>
      </trkpt>
      <trkpt lat="47.79613" lon="2.19884">
        <ele>102</ele>
        <time>2016-12-04T09:40:57.248Z</time>
      </trkpt>
      <trkpt lat="47.7961" lon="2.19871">
        <ele>102</ele>
        <time>2016-12-04T09:40:58.252Z</time>
      </trkpt>
      <trkpt lat="47.79609" lon="2.19864">
        <ele>101</ele>
        <time>2016-12-04T09:40:59.250Z</time>
      </trkpt>
      <trkpt lat="47.79607" lon="2.19858">
        <ele>101</ele>
        <time>2016-12-04T09:41:00.253Z</time>
      </trkpt>
      <trkpt lat="47.79607" lon="2.19858">
        <ele>101</ele>
        <time>2016-12-04T09:41:01.247Z</time>
      </trkpt>
      <trkpt lat="47.79606" lon="2.19847">
        <ele>100</ele>
        <time>2016-12-04T09:41:02.252Z</time>
      </trkpt>
      <trkpt lat="47.79606" lon="2.19847">
        <ele>100</ele>
        <time>2016-12-04T09:41:03.247Z</time>
      </trkpt>
      <trkpt lat="47.79608" lon="2.19837">
        <ele>100</ele>
        <time>2016-12-04T09:41:04.248Z</time>
      </trkpt>
      <trkpt lat="47.79608" lon="2.19837">
        <ele>100</ele>
        <time>2016-12-04T09:41:05.247Z</time>
      </trkpt>
      <trkpt lat="47.79611" lon="2.19827">
        <ele>99</ele>
        <time>2016-12-04T09:41:06.267Z</time>
      </trkpt>
      <trkpt lat="47.79611" lon="2.19827">
        <ele>99</ele>
        <time>2016-12-04T09:41:07.263Z</time>
      </trkpt>
      <trkpt lat="47.79616" lon="2.19816">
        <ele>99</ele>
        <time>2016-12-04T09:41:08.254Z</time>
      </trkpt>
      <trkpt lat="47.79618" lon="2.1981">
        <ele>98</ele>
        <time>2016-12-04T09:41:09.251Z</time>
      </trkpt>
      <trkpt lat="47.79617" lon="2.19805">
        <ele>98</ele>
        <time>2016-12-04T09:41:10.251Z</time>
      </trkpt>
      <trkpt lat="47.79617" lon="2.19805">
        <ele>98</ele>
        <time>2016-12-04T09:41:11.253Z</time>
      </trkpt>
      <trkpt lat="47.79615" lon="2.19795">
        <ele>97</ele>
        <time>2016-12-04T09:41:12.248Z</time>
      </trkpt>
      <trkpt lat="47.79614" lon="2.19792">
        <ele>97</ele>
        <time>2016-12-04T09:41:13.251Z</time>
      </trkpt>
      <trkpt lat="47.79613" lon="2.1979">
        <ele>97</ele>
        <time>2016-12-04T09:41:14.252Z</time>
      </trkpt>
      <trkpt lat="47.79613" lon="2.1979">
        <ele>97</ele>
        <time>2016-12-04T09:41:15.246Z</time>
      </trkpt>
      <trkpt lat="47.79613" lon="2.19787">
        <ele>98</ele>
        <time>2016-12-04T09:41:16.261Z</time>
      </trkpt>
      <trkpt lat="47.79613" lon="2.19787">
        <ele>98</ele>
        <time>2016-12-04T09:41:17.243Z</time>
      </trkpt>
      <trkpt lat="47.79612" lon="2.19787">
        <ele>99</ele>
        <time>2016-12-04T09:41:18.250Z</time>
      </trkpt>
      <trkpt lat="47.79612" lon="2.19787">
        <ele>99</ele>
        <time>2016-12-04T09:41:19.256Z</time>
      </trkpt>
      <trkpt lat="47.79612" lon="2.19787">
        <ele>99</ele>
        <time>2016-12-04T09:41:20.263Z</time>
      </trkpt>
      <trkpt lat="47.79603" lon="2.19777">
        <ele>102</ele>
        <time>2016-12-04T09:41:21.244Z</time>
      </trkpt>
      <trkpt lat="47.79594" lon="2.19771">
        <ele>104</ele>
        <time>2016-12-04T09:41:22.272Z</time>
      </trkpt>
      <trkpt lat="47.79594" lon="2.19771">
        <ele>104</ele>
        <time>2016-12-04T09:41:23.267Z</time>
      </trkpt>
      <trkpt lat="47.79588" lon="2.19772">
        <ele>104</ele>
        <time>2016-12-04T09:41:24.277Z</time>
      </trkpt>
      <trkpt lat="47.79584" lon="2.19773">
        <ele>104</ele>
        <time>2016-12-04T09:41:25.272Z</time>
      </trkpt>
      <trkpt lat="47.79581" lon="2.19774">
        <ele>105</ele>
        <time>2016-12-04T09:41:26.274Z</time>
      </trkpt>
      <trkpt lat="47.79581" lon="2.19774">
        <ele>105</ele>
        <time>2016-12-04T09:41:27.267Z</time>
      </trkpt>
      <trkpt lat="47.79574" lon="2.19777">
        <ele>105</ele>
        <time>2016-12-04T09:41:28.272Z</time>
      </trkpt>
      <trkpt lat="47.79574" lon="2.19777">
        <ele>105</ele>
        <time>2016-12-04T09:41:29.269Z</time>
      </trkpt>
      <trkpt lat="47.79567" lon="2.19779">
        <ele>105</ele>
        <time>2016-12-04T09:41:30.272Z</time>
      </trkpt>
      <trkpt lat="47.79567" lon="2.19779">
        <ele>105</ele>
        <time>2016-12-04T09:41:31.267Z</time>
      </trkpt>
      <trkpt lat="47.7956" lon="2.19783">
        <ele>105</ele>
        <time>2016-12-04T09:41:32.275Z</time>
      </trkpt>
      <trkpt lat="47.7956" lon="2.19783">
        <ele>105</ele>
        <time>2016-12-04T09:41:33.270Z</time>
      </trkpt>
      <trkpt lat="47.79554" lon="2.19786">
        <ele>105</ele>
        <time>2016-12-04T09:41:34.267Z</time>
      </trkpt>
      <trkpt lat="47.79551" lon="2.19786">
        <ele>105</ele>
        <time>2016-12-04T09:41:35.269Z</time>
      </trkpt>
      <trkpt lat="47.79549" lon="2.19784">
        <ele>104</ele>
        <time>2016-12-04T09:41:36.272Z</time>
      </trkpt>
      <trkpt lat="47.79549" lon="2.19784">
        <ele>104</ele>
        <time>2016-12-04T09:41:37.264Z</time>
      </trkpt>
      <trkpt lat="47.79547" lon="2.19779">
        <ele>104</ele>
        <time>2016-12-04T09:41:38.274Z</time>
      </trkpt>
      <trkpt lat="47.79547" lon="2.19779">
        <ele>104</ele>
        <time>2016-12-04T09:41:39.270Z</time>
      </trkpt>
      <trkpt lat="47.79548" lon="2.19769">
        <ele>104</ele>
        <time>2016-12-04T09:41:40.270Z</time>
      </trkpt>
      <trkpt lat="47.79548" lon="2.19769">
        <ele>104</ele>
        <time>2016-12-04T09:41:41.269Z</time>
      </trkpt>
      <trkpt lat="47.79549" lon="2.19759">
        <ele>104</ele>
        <time>2016-12-04T09:41:42.246Z</time>
      </trkpt>
      <trkpt lat="47.79549" lon="2.19759">
        <ele>104</ele>
        <time>2016-12-04T09:41:43.274Z</time>
      </trkpt>
      <trkpt lat="47.79553" lon="2.19749">
        <ele>105</ele>
        <time>2016-12-04T09:41:44.266Z</time>
      </trkpt>
      <trkpt lat="47.79555" lon="2.19744">
        <ele>105</ele>
        <time>2016-12-04T09:41:45.273Z</time>
      </trkpt>
      <trkpt lat="47.79556" lon="2.19739">
        <ele>105</ele>
        <time>2016-12-04T09:41:46.270Z</time>
      </trkpt>
      <trkpt lat="47.79556" lon="2.19739">
        <ele>105</ele>
        <time>2016-12-04T09:41:47.269Z</time>
      </trkpt>
      <trkpt lat="47.79558" lon="2.19728">
        <ele>104</ele>
        <time>2016-12-04T09:41:48.273Z</time>
      </trkpt>
      <trkpt lat="47.79558" lon="2.19728">
        <ele>104</ele>
        <time>2016-12-04T09:41:49.265Z</time>
      </trkpt>
      <trkpt lat="47.79561" lon="2.19717">
        <ele>105</ele>
        <time>2016-12-04T09:41:50.274Z</time>
      </trkpt>
      <trkpt lat="47.79561" lon="2.19717">
        <ele>105</ele>
        <time>2016-12-04T09:41:51.269Z</time>
      </trkpt>
      <trkpt lat="47.79563" lon="2.19706">
        <ele>106</ele>
        <time>2016-12-04T09:41:52.273Z</time>
      </trkpt>
      <trkpt lat="47.79563" lon="2.19706">
        <ele>106</ele>
        <time>2016-12-04T09:41:53.267Z</time>
      </trkpt>
      <trkpt lat="47.79564" lon="2.19692">
        <ele>106</ele>
        <time>2016-12-04T09:41:54.272Z</time>
      </trkpt>
      <trkpt lat="47.79565" lon="2.19685">
        <ele>106</ele>
        <time>2016-12-04T09:41:55.272Z</time>
      </trkpt>
      <trkpt lat="47.79565" lon="2.19678">
        <ele>106</ele>
        <time>2016-12-04T09:41:56.274Z</time>
      </trkpt>
      <trkpt lat="47.79565" lon="2.19678">
        <ele>106</ele>
        <time>2016-12-04T09:41:57.269Z</time>
      </trkpt>
      <trkpt lat="47.79566" lon="2.19665">
        <ele>106</ele>
        <time>2016-12-04T09:41:58.273Z</time>
      </trkpt>
      <trkpt lat="47.79566" lon="2.19665">
        <ele>106</ele>
        <time>2016-12-04T09:41:59.269Z</time>
      </trkpt>
      <trkpt lat="47.79566" lon="2.19651">
        <ele>106</ele>
        <time>2016-12-04T09:42:00.251Z</time>
      </trkpt>
      <trkpt lat="47.79566" lon="2.19651">
        <ele>106</ele>
        <time>2016-12-04T09:42:01.279Z</time>
      </trkpt>
      <trkpt lat="47.79566" lon="2.19637">
        <ele>106</ele>
        <time>2016-12-04T09:42:02.275Z</time>
      </trkpt>
      <trkpt lat="47.79566" lon="2.19637">
        <ele>106</ele>
        <time>2016-12-04T09:42:03.271Z</time>
      </trkpt>
      <trkpt lat="47.79566" lon="2.19623">
        <ele>106</ele>
        <time>2016-12-04T09:42:04.268Z</time>
      </trkpt>
      <trkpt lat="47.79566" lon="2.19616">
        <ele>105</ele>
        <time>2016-12-04T09:42:05.244Z</time>
      </trkpt>
      <trkpt lat="47.79566" lon="2.19616">
        <ele>105</ele>
        <time>2016-12-04T09:42:06.272Z</time>
      </trkpt>
      <trkpt lat="47.79566" lon="2.19601">
        <ele>105</ele>
        <time>2016-12-04T09:42:07.271Z</time>
      </trkpt>
      <trkpt lat="47.79566" lon="2.19601">
        <ele>105</ele>
        <time>2016-12-04T09:42:08.271Z</time>
      </trkpt>
      <trkpt lat="47.79566" lon="2.19586">
        <ele>104</ele>
        <time>2016-12-04T09:42:09.272Z</time>
      </trkpt>
      <trkpt lat="47.79566" lon="2.19586">
        <ele>104</ele>
        <time>2016-12-04T09:42:10.271Z</time>
      </trkpt>
      <trkpt lat="47.79563" lon="2.19572">
        <ele>104</ele>
        <time>2016-12-04T09:42:11.273Z</time>
      </trkpt>
      <trkpt lat="47.79563" lon="2.19572">
        <ele>104</ele>
        <time>2016-12-04T09:42:12.267Z</time>
      </trkpt>
      <trkpt lat="47.79557" lon="2.19561">
        <ele>103</ele>
        <time>2016-12-04T09:42:13.272Z</time>
      </trkpt>
      <trkpt lat="47.79557" lon="2.19561">
        <ele>103</ele>
        <time>2016-12-04T09:42:14.264Z</time>
      </trkpt>
      <trkpt lat="47.7955" lon="2.19552">
        <ele>103</ele>
        <time>2016-12-04T09:42:15.272Z</time>
      </trkpt>
      <trkpt lat="47.7955" lon="2.19552">
        <ele>103</ele>
        <time>2016-12-04T09:42:16.265Z</time>
      </trkpt>
      <trkpt lat="47.79544" lon="2.19541">
        <ele>103</ele>
        <time>2016-12-04T09:42:17.265Z</time>
      </trkpt>
      <trkpt lat="47.79542" lon="2.19535">
        <ele>102</ele>
        <time>2016-12-04T09:42:18.271Z</time>
      </trkpt>
      <trkpt lat="47.79542" lon="2.19535">
        <ele>102</ele>
        <time>2016-12-04T09:42:19.277Z</time>
      </trkpt>
      <trkpt lat="47.79542" lon="2.19522">
        <ele>103</ele>
        <time>2016-12-04T09:42:20.275Z</time>
      </trkpt>
      <trkpt lat="47.79542" lon="2.19522">
        <ele>103</ele>
        <time>2016-12-04T09:42:21.267Z</time>
      </trkpt>
      <trkpt lat="47.79544" lon="2.19509">
        <ele>103</ele>
        <time>2016-12-04T09:42:22.273Z</time>
      </trkpt>
      <trkpt lat="47.79544" lon="2.19509">
        <ele>103</ele>
        <time>2016-12-04T09:42:23.270Z</time>
      </trkpt>
      <trkpt lat="47.79546" lon="2.19495">
        <ele>103</ele>
        <time>2016-12-04T09:42:24.266Z</time>
      </trkpt>
      <trkpt lat="47.79547" lon="2.19489">
        <ele>103</ele>
        <time>2016-12-04T09:42:25.272Z</time>
      </trkpt>
      <trkpt lat="47.79548" lon="2.19482">
        <ele>103</ele>
        <time>2016-12-04T09:42:26.273Z</time>
      </trkpt>
      <trkpt lat="47.79548" lon="2.19482">
        <ele>103</ele>
        <time>2016-12-04T09:42:27.269Z</time>
      </trkpt>
      <trkpt lat="47.79549" lon="2.19469">
        <ele>104</ele>
        <time>2016-12-04T09:42:28.270Z</time>
      </trkpt>
      <trkpt lat="47.79549" lon="2.19469">
        <ele>104</ele>
        <time>2016-12-04T09:42:29.269Z</time>
      </trkpt>
      <trkpt lat="47.7955" lon="2.19456">
        <ele>105</ele>
        <time>2016-12-04T09:42:30.272Z</time>
      </trkpt>
      <trkpt lat="47.7955" lon="2.19456">
        <ele>105</ele>
        <time>2016-12-04T09:42:31.269Z</time>
      </trkpt>
      <trkpt lat="47.79551" lon="2.19442">
        <ele>105</ele>
        <time>2016-12-04T09:42:32.273Z</time>
      </trkpt>
      <trkpt lat="47.79551" lon="2.19442">
        <ele>105</ele>
        <time>2016-12-04T09:42:33.270Z</time>
      </trkpt>
      <trkpt lat="47.79551" lon="2.19428">
        <ele>106</ele>
        <time>2016-12-04T09:42:34.267Z</time>
      </trkpt>
      <trkpt lat="47.79551" lon="2.19421">
        <ele>106</ele>
        <time>2016-12-04T09:42:35.273Z</time>
      </trkpt>
      <trkpt lat="47.79551" lon="2.19421">
        <ele>106</ele>
        <time>2016-12-04T09:42:36.270Z</time>
      </trkpt>
      <trkpt lat="47.79552" lon="2.19407">
        <ele>106</ele>
        <time>2016-12-04T09:42:37.269Z</time>
      </trkpt>
      <trkpt lat="47.79552" lon="2.194">
        <ele>106</ele>
        <time>2016-12-04T09:42:38.274Z</time>
      </trkpt>
      <trkpt lat="47.79552" lon="2.194">
        <ele>106</ele>
        <time>2016-12-04T09:42:39.267Z</time>
      </trkpt>
      <trkpt lat="47.79552" lon="2.19386">
        <ele>106</ele>
        <time>2016-12-04T09:42:40.274Z</time>
      </trkpt>
      <trkpt lat="47.79552" lon="2.19386">
        <ele>106</ele>
        <time>2016-12-04T09:42:41.270Z</time>
      </trkpt>
      <trkpt lat="47.79551" lon="2.19372">
        <ele>106</ele>
        <time>2016-12-04T09:42:42.273Z</time>
      </trkpt>
      <trkpt lat="47.79551" lon="2.19372">
        <ele>106</ele>
        <time>2016-12-04T09:42:43.270Z</time>
      </trkpt>
      <trkpt lat="47.79552" lon="2.19358">
        <ele>107</ele>
        <time>2016-12-04T09:42:44.243Z</time>
      </trkpt>
      <trkpt lat="47.79552" lon="2.19351">
        <ele>107</ele>
        <time>2016-12-04T09:42:45.273Z</time>
      </trkpt>
      <trkpt lat="47.79552" lon="2.19344">
        <ele>107</ele>
        <time>2016-12-04T09:42:46.275Z</time>
      </trkpt>
      <trkpt lat="47.79552" lon="2.19344">
        <ele>107</ele>
        <time>2016-12-04T09:42:47.270Z</time>
      </trkpt>
      <trkpt lat="47.79552" lon="2.19329">
        <ele>107</ele>
        <time>2016-12-04T09:42:48.273Z</time>
      </trkpt>
      <trkpt lat="47.79552" lon="2.19329">
        <ele>107</ele>
        <time>2016-12-04T09:42:49.271Z</time>
      </trkpt>
      <trkpt lat="47.79553" lon="2.19315">
        <ele>107</ele>
        <time>2016-12-04T09:42:50.273Z</time>
      </trkpt>
      <trkpt lat="47.79553" lon="2.19315">
        <ele>107</ele>
        <time>2016-12-04T09:42:51.267Z</time>
      </trkpt>
      <trkpt lat="47.79554" lon="2.19301">
        <ele>107</ele>
        <time>2016-12-04T09:42:52.274Z</time>
      </trkpt>
      <trkpt lat="47.79554" lon="2.19301">
        <ele>107</ele>
        <time>2016-12-04T09:42:53.271Z</time>
      </trkpt>
      <trkpt lat="47.79555" lon="2.19286">
        <ele>106</ele>
        <time>2016-12-04T09:42:54.266Z</time>
      </trkpt>
      <trkpt lat="47.79555" lon="2.19279">
        <ele>107</ele>
        <time>2016-12-04T09:42:55.272Z</time>
      </trkpt>
      <trkpt lat="47.79557" lon="2.19273">
        <ele>107</ele>
        <time>2016-12-04T09:42:56.274Z</time>
      </trkpt>
      <trkpt lat="47.79557" lon="2.19273">
        <ele>107</ele>
        <time>2016-12-04T09:42:57.270Z</time>
      </trkpt>
      <trkpt lat="47.79559" lon="2.19259">
        <ele>106</ele>
        <time>2016-12-04T09:42:58.273Z</time>
      </trkpt>
      <trkpt lat="47.79559" lon="2.19259">
        <ele>106</ele>
        <time>2016-12-04T09:42:59.244Z</time>
      </trkpt>
      <trkpt lat="47.7956" lon="2.19245">
        <ele>106</ele>
        <time>2016-12-04T09:43:00.253Z</time>
      </trkpt>
      <trkpt lat="47.7956" lon="2.19245">
        <ele>106</ele>
        <time>2016-12-04T09:43:01.244Z</time>
      </trkpt>
      <trkpt lat="47.79562" lon="2.1923">
        <ele>106</ele>
        <time>2016-12-04T09:43:02.275Z</time>
      </trkpt>
      <trkpt lat="47.79562" lon="2.1923">
        <ele>106</ele>
        <time>2016-12-04T09:43:03.268Z</time>
      </trkpt>
      <trkpt lat="47.79565" lon="2.19215">
        <ele>105</ele>
        <time>2016-12-04T09:43:04.265Z</time>
      </trkpt>
      <trkpt lat="47.79565" lon="2.19215">
        <ele>105</ele>
        <time>2016-12-04T09:43:05.254Z</time>
      </trkpt>
      <trkpt lat="47.79569" lon="2.192">
        <ele>105</ele>
        <time>2016-12-04T09:43:06.243Z</time>
      </trkpt>
      <trkpt lat="47.79569" lon="2.192">
        <ele>105</ele>
        <time>2016-12-04T09:43:07.272Z</time>
      </trkpt>
      <trkpt lat="47.79573" lon="2.19185">
        <ele>105</ele>
        <time>2016-12-04T09:43:08.273Z</time>
      </trkpt>
      <trkpt lat="47.79573" lon="2.19185">
        <ele>105</ele>
        <time>2016-12-04T09:43:09.270Z</time>
      </trkpt>
      <trkpt lat="47.79577" lon="2.19169">
        <ele>105</ele>
        <time>2016-12-04T09:43:10.270Z</time>
      </trkpt>
      <trkpt lat="47.79577" lon="2.19169">
        <ele>105</ele>
        <time>2016-12-04T09:43:11.268Z</time>
      </trkpt>
      <trkpt lat="47.79582" lon="2.19153">
        <ele>105</ele>
        <time>2016-12-04T09:43:12.273Z</time>
      </trkpt>
      <trkpt lat="47.79582" lon="2.19153">
        <ele>105</ele>
        <time>2016-12-04T09:43:13.264Z</time>
      </trkpt>
      <trkpt lat="47.79587" lon="2.19137">
        <ele>105</ele>
        <time>2016-12-04T09:43:14.266Z</time>
      </trkpt>
      <trkpt lat="47.7959" lon="2.19129">
        <ele>105</ele>
        <time>2016-12-04T09:43:15.273Z</time>
      </trkpt>
      <trkpt lat="47.7959" lon="2.19129">
        <ele>105</ele>
        <time>2016-12-04T09:43:16.280Z</time>
      </trkpt>
      <trkpt lat="47.79595" lon="2.19113">
        <ele>106</ele>
        <time>2016-12-04T09:43:17.270Z</time>
      </trkpt>
      <trkpt lat="47.79598" lon="2.19104">
        <ele>106</ele>
        <time>2016-12-04T09:43:18.276Z</time>
      </trkpt>
      <trkpt lat="47.796" lon="2.19095">
        <ele>106</ele>
        <time>2016-12-04T09:43:19.282Z</time>
      </trkpt>
      <trkpt lat="47.79603" lon="2.19087">
        <ele>106</ele>
        <time>2016-12-04T09:43:20.275Z</time>
      </trkpt>
      <trkpt lat="47.79603" lon="2.19087">
        <ele>106</ele>
        <time>2016-12-04T09:43:21.268Z</time>
      </trkpt>
      <trkpt lat="47.79609" lon="2.19071">
        <ele>106</ele>
        <time>2016-12-04T09:43:22.271Z</time>
      </trkpt>
      <trkpt lat="47.79609" lon="2.19071">
        <ele>106</ele>
        <time>2016-12-04T09:43:23.270Z</time>
      </trkpt>
      <trkpt lat="47.79614" lon="2.19054">
        <ele>106</ele>
        <time>2016-12-04T09:43:24.279Z</time>
      </trkpt>
      <trkpt lat="47.79617" lon="2.19045">
        <ele>106</ele>
        <time>2016-12-04T09:43:25.273Z</time>
      </trkpt>
      <trkpt lat="47.79619" lon="2.19037">
        <ele>106</ele>
        <time>2016-12-04T09:43:26.271Z</time>
      </trkpt>
      <trkpt lat="47.79619" lon="2.19037">
        <ele>106</ele>
        <time>2016-12-04T09:43:27.268Z</time>
      </trkpt>
      <trkpt lat="47.79624" lon="2.19019">
        <ele>106</ele>
        <time>2016-12-04T09:43:28.273Z</time>
      </trkpt>
      <trkpt lat="47.79624" lon="2.19019">
        <ele>106</ele>
        <time>2016-12-04T09:43:29.270Z</time>
      </trkpt>
      <trkpt lat="47.79629" lon="2.19002">
        <ele>106</ele>
        <time>2016-12-04T09:43:30.273Z</time>
      </trkpt>
      <trkpt lat="47.79632" lon="2.18993">
        <ele>106</ele>
        <time>2016-12-04T09:43:31.274Z</time>
      </trkpt>
      <trkpt lat="47.79634" lon="2.18985">
        <ele>106</ele>
        <time>2016-12-04T09:43:32.274Z</time>
      </trkpt>
      <trkpt lat="47.79634" lon="2.18985">
        <ele>106</ele>
        <time>2016-12-04T09:43:33.270Z</time>
      </trkpt>
      <trkpt lat="47.79638" lon="2.18968">
        <ele>106</ele>
        <time>2016-12-04T09:43:34.265Z</time>
      </trkpt>
      <trkpt lat="47.79638" lon="2.18968">
        <ele>106</ele>
        <time>2016-12-04T09:43:35.271Z</time>
      </trkpt>
      <trkpt lat="47.79644" lon="2.18952">
        <ele>106</ele>
        <time>2016-12-04T09:43:36.271Z</time>
      </trkpt>
      <trkpt lat="47.79644" lon="2.18952">
        <ele>106</ele>
        <time>2016-12-04T09:43:37.270Z</time>
      </trkpt>
      <trkpt lat="47.79649" lon="2.18936">
        <ele>106</ele>
        <time>2016-12-04T09:43:38.274Z</time>
      </trkpt>
      <trkpt lat="47.79649" lon="2.18936">
        <ele>106</ele>
        <time>2016-12-04T09:43:39.271Z</time>
      </trkpt>
      <trkpt lat="47.79655" lon="2.18919">
        <ele>106</ele>
        <time>2016-12-04T09:43:40.271Z</time>
      </trkpt>
      <trkpt lat="47.79655" lon="2.18919">
        <ele>106</ele>
        <time>2016-12-04T09:43:41.273Z</time>
      </trkpt>
      <trkpt lat="47.7966" lon="2.18901">
        <ele>105</ele>
        <time>2016-12-04T09:43:42.273Z</time>
      </trkpt>
      <trkpt lat="47.7966" lon="2.18901">
        <ele>105</ele>
        <time>2016-12-04T09:43:43.270Z</time>
      </trkpt>
      <trkpt lat="47.79667" lon="2.18882">
        <ele>104</ele>
        <time>2016-12-04T09:43:44.266Z</time>
      </trkpt>
      <trkpt lat="47.7967" lon="2.18872">
        <ele>104</ele>
        <time>2016-12-04T09:43:45.244Z</time>
      </trkpt>
      <trkpt lat="47.79674" lon="2.18863">
        <ele>103</ele>
        <time>2016-12-04T09:43:46.275Z</time>
      </trkpt>
      <trkpt lat="47.79674" lon="2.18863">
        <ele>103</ele>
        <time>2016-12-04T09:43:47.271Z</time>
      </trkpt>
      <trkpt lat="47.79684" lon="2.18844">
        <ele>102</ele>
        <time>2016-12-04T09:43:48.274Z</time>
      </trkpt>
      <trkpt lat="47.79684" lon="2.18844">
        <ele>102</ele>
        <time>2016-12-04T09:43:49.269Z</time>
      </trkpt>
      <trkpt lat="47.79695" lon="2.18829">
        <ele>102</ele>
        <time>2016-12-04T09:43:50.275Z</time>
      </trkpt>
      <trkpt lat="47.79695" lon="2.18829">
        <ele>102</ele>
        <time>2016-12-04T09:43:51.271Z</time>
      </trkpt>
      <trkpt lat="47.79704" lon="2.1882">
        <ele>101</ele>
        <time>2016-12-04T09:43:52.274Z</time>
      </trkpt>
      <trkpt lat="47.79704" lon="2.1882">
        <ele>101</ele>
        <time>2016-12-04T09:43:53.270Z</time>
      </trkpt>
      <trkpt lat="47.79711" lon="2.18815">
        <ele>101</ele>
        <time>2016-12-04T09:43:54.269Z</time>
      </trkpt>
      <trkpt lat="47.79715" lon="2.18812">
        <ele>101</ele>
        <time>2016-12-04T09:43:55.243Z</time>
      </trkpt>
      <trkpt lat="47.79715" lon="2.18812">
        <ele>101</ele>
        <time>2016-12-04T09:43:56.272Z</time>
      </trkpt>
      <trkpt lat="47.79722" lon="2.18809">
        <ele>101</ele>
        <time>2016-12-04T09:43:57.273Z</time>
      </trkpt>
      <trkpt lat="47.79727" lon="2.18807">
        <ele>101</ele>
        <time>2016-12-04T09:43:58.274Z</time>
      </trkpt>
      <trkpt lat="47.79727" lon="2.18807">
        <ele>101</ele>
        <time>2016-12-04T09:43:59.270Z</time>
      </trkpt>
      <trkpt lat="47.79737" lon="2.18803">
        <ele>101</ele>
        <time>2016-12-04T09:44:00.244Z</time>
      </trkpt>
      <trkpt lat="47.79742" lon="2.18799">
        <ele>102</ele>
        <time>2016-12-04T09:44:01.275Z</time>
      </trkpt>
      <trkpt lat="47.79742" lon="2.18799">
        <ele>102</ele>
        <time>2016-12-04T09:44:02.273Z</time>
      </trkpt>
      <trkpt lat="47.79751" lon="2.18787">
        <ele>101</ele>
        <time>2016-12-04T09:44:03.273Z</time>
      </trkpt>
      <trkpt lat="47.79751" lon="2.18787">
        <ele>101</ele>
        <time>2016-12-04T09:44:04.269Z</time>
      </trkpt>
      <trkpt lat="47.79757" lon="2.18772">
        <ele>101</ele>
        <time>2016-12-04T09:44:05.273Z</time>
      </trkpt>
      <trkpt lat="47.79757" lon="2.18772">
        <ele>101</ele>
        <time>2016-12-04T09:44:06.271Z</time>
      </trkpt>
      <trkpt lat="47.79764" lon="2.18756">
        <ele>101</ele>
        <time>2016-12-04T09:44:07.273Z</time>
      </trkpt>
      <trkpt lat="47.79767" lon="2.18748">
        <ele>101</ele>
        <time>2016-12-04T09:44:08.272Z</time>
      </trkpt>
      <trkpt lat="47.79767" lon="2.18748">
        <ele>101</ele>
        <time>2016-12-04T09:44:09.269Z</time>
      </trkpt>
      <trkpt lat="47.79773" lon="2.18732">
        <ele>101</ele>
        <time>2016-12-04T09:44:10.273Z</time>
      </trkpt>
      <trkpt lat="47.79773" lon="2.18732">
        <ele>101</ele>
        <time>2016-12-04T09:44:11.271Z</time>
      </trkpt>
      <trkpt lat="47.7978" lon="2.18717">
        <ele>101</ele>
        <time>2016-12-04T09:44:12.273Z</time>
      </trkpt>
      <trkpt lat="47.7978" lon="2.18717">
        <ele>101</ele>
        <time>2016-12-04T09:44:13.272Z</time>
      </trkpt>
      <trkpt lat="47.79786" lon="2.187">
        <ele>101</ele>
        <time>2016-12-04T09:44:14.275Z</time>
      </trkpt>
      <trkpt lat="47.79786" lon="2.187">
        <ele>101</ele>
        <time>2016-12-04T09:44:15.271Z</time>
      </trkpt>
      <trkpt lat="47.79792" lon="2.18684">
        <ele>101</ele>
        <time>2016-12-04T09:44:16.259Z</time>
      </trkpt>
      <trkpt lat="47.79792" lon="2.18684">
        <ele>101</ele>
        <time>2016-12-04T09:44:17.273Z</time>
      </trkpt>
      <trkpt lat="47.79799" lon="2.18668">
        <ele>102</ele>
        <time>2016-12-04T09:44:18.279Z</time>
      </trkpt>
      <trkpt lat="47.79799" lon="2.18668">
        <ele>102</ele>
        <time>2016-12-04T09:44:19.245Z</time>
      </trkpt>
      <trkpt lat="47.79805" lon="2.18651">
        <ele>102</ele>
        <time>2016-12-04T09:44:20.275Z</time>
      </trkpt>
      <trkpt lat="47.79805" lon="2.18651">
        <ele>102</ele>
        <time>2016-12-04T09:44:21.271Z</time>
      </trkpt>
      <trkpt lat="47.79811" lon="2.18635">
        <ele>102</ele>
        <time>2016-12-04T09:44:22.274Z</time>
      </trkpt>
      <trkpt lat="47.79811" lon="2.18635">
        <ele>102</ele>
        <time>2016-12-04T09:44:23.245Z</time>
      </trkpt>
      <trkpt lat="47.79818" lon="2.1862">
        <ele>102</ele>
        <time>2016-12-04T09:44:24.274Z</time>
      </trkpt>
      <trkpt lat="47.79822" lon="2.18613">
        <ele>102</ele>
        <time>2016-12-04T09:44:25.274Z</time>
      </trkpt>
      <trkpt lat="47.79826" lon="2.18606">
        <ele>102</ele>
        <time>2016-12-04T09:44:26.272Z</time>
      </trkpt>
      <trkpt lat="47.79826" lon="2.18606">
        <ele>102</ele>
        <time>2016-12-04T09:44:27.268Z</time>
      </trkpt>
      <trkpt lat="47.79833" lon="2.18592">
        <ele>102</ele>
        <time>2016-12-04T09:44:28.273Z</time>
      </trkpt>
      <trkpt lat="47.79833" lon="2.18592">
        <ele>102</ele>
        <time>2016-12-04T09:44:29.271Z</time>
      </trkpt>
      <trkpt lat="47.7984" lon="2.18578">
        <ele>103</ele>
        <time>2016-12-04T09:44:30.273Z</time>
      </trkpt>
      <trkpt lat="47.79843" lon="2.1857">
        <ele>103</ele>
        <time>2016-12-04T09:44:31.274Z</time>
      </trkpt>
      <trkpt lat="47.79846" lon="2.18564">
        <ele>103</ele>
        <time>2016-12-04T09:44:32.272Z</time>
      </trkpt>
      <trkpt lat="47.79846" lon="2.18564">
        <ele>103</ele>
        <time>2016-12-04T09:44:33.271Z</time>
      </trkpt>
      <trkpt lat="47.79852" lon="2.18549">
        <ele>104</ele>
        <time>2016-12-04T09:44:34.273Z</time>
      </trkpt>
      <trkpt lat="47.79855" lon="2.18542">
        <ele>104</ele>
        <time>2016-12-04T09:44:35.270Z</time>
      </trkpt>
      <trkpt lat="47.79855" lon="2.18542">
        <ele>104</ele>
        <time>2016-12-04T09:44:36.265Z</time>
      </trkpt>
      <trkpt lat="47.79861" lon="2.18526">
        <ele>103</ele>
        <time>2016-12-04T09:44:37.273Z</time>
      </trkpt>
      <trkpt lat="47.79864" lon="2.18519">
        <ele>103</ele>
        <time>2016-12-04T09:44:38.275Z</time>
      </trkpt>
      <trkpt lat="47.79864" lon="2.18519">
        <ele>103</ele>
        <time>2016-12-04T09:44:39.271Z</time>
      </trkpt>
      <trkpt lat="47.79871" lon="2.18504">
        <ele>103</ele>
        <time>2016-12-04T09:44:40.250Z</time>
      </trkpt>
      <trkpt lat="47.79875" lon="2.18497">
        <ele>103</ele>
        <time>2016-12-04T09:44:41.278Z</time>
      </trkpt>
      <trkpt lat="47.79875" lon="2.18497">
        <ele>103</ele>
        <time>2016-12-04T09:44:42.271Z</time>
      </trkpt>
      <trkpt lat="47.79881" lon="2.1848">
        <ele>103</ele>
        <time>2016-12-04T09:44:43.273Z</time>
      </trkpt>
      <trkpt lat="47.79881" lon="2.1848">
        <ele>103</ele>
        <time>2016-12-04T09:44:44.270Z</time>
      </trkpt>
      <trkpt lat="47.79887" lon="2.18463">
        <ele>103</ele>
        <time>2016-12-04T09:44:45.268Z</time>
      </trkpt>
      <trkpt lat="47.7989" lon="2.18454">
        <ele>103</ele>
        <time>2016-12-04T09:44:46.274Z</time>
      </trkpt>
      <trkpt lat="47.7989" lon="2.18454">
        <ele>103</ele>
        <time>2016-12-04T09:44:47.271Z</time>
      </trkpt>
      <trkpt lat="47.79894" lon="2.18436">
        <ele>104</ele>
        <time>2016-12-04T09:44:48.274Z</time>
      </trkpt>
      <trkpt lat="47.79894" lon="2.18436">
        <ele>104</ele>
        <time>2016-12-04T09:44:49.272Z</time>
      </trkpt>
      <trkpt lat="47.79898" lon="2.18418">
        <ele>103</ele>
        <time>2016-12-04T09:44:50.272Z</time>
      </trkpt>
      <trkpt lat="47.799" lon="2.18409">
        <ele>103</ele>
        <time>2016-12-04T09:44:51.274Z</time>
      </trkpt>
      <trkpt lat="47.79901" lon="2.184">
        <ele>103</ele>
        <time>2016-12-04T09:44:52.274Z</time>
      </trkpt>
      <trkpt lat="47.79901" lon="2.184">
        <ele>103</ele>
        <time>2016-12-04T09:44:53.269Z</time>
      </trkpt>
      <trkpt lat="47.79905" lon="2.18383">
        <ele>102</ele>
        <time>2016-12-04T09:44:54.273Z</time>
      </trkpt>
      <trkpt lat="47.79905" lon="2.18383">
        <ele>102</ele>
        <time>2016-12-04T09:44:55.272Z</time>
      </trkpt>
      <trkpt lat="47.79909" lon="2.18365">
        <ele>102</ele>
        <time>2016-12-04T09:44:56.271Z</time>
      </trkpt>
      <trkpt lat="47.79909" lon="2.18365">
        <ele>102</ele>
        <time>2016-12-04T09:44:57.266Z</time>
      </trkpt>
      <trkpt lat="47.79913" lon="2.18348">
        <ele>102</ele>
        <time>2016-12-04T09:44:58.275Z</time>
      </trkpt>
      <trkpt lat="47.79915" lon="2.18338">
        <ele>102</ele>
        <time>2016-12-04T09:44:59.274Z</time>
      </trkpt>
      <trkpt lat="47.79915" lon="2.18338">
        <ele>102</ele>
        <time>2016-12-04T09:45:00.279Z</time>
      </trkpt>
      <trkpt lat="47.79919" lon="2.18321">
        <ele>102</ele>
        <time>2016-12-04T09:45:01.274Z</time>
      </trkpt>
      <trkpt lat="47.7992" lon="2.18312">
        <ele>102</ele>
        <time>2016-12-04T09:45:02.272Z</time>
      </trkpt>
      <trkpt lat="47.7992" lon="2.18312">
        <ele>102</ele>
        <time>2016-12-04T09:45:03.269Z</time>
      </trkpt>
      <trkpt lat="47.79924" lon="2.18294">
        <ele>102</ele>
        <time>2016-12-04T09:45:04.274Z</time>
      </trkpt>
      <trkpt lat="47.79926" lon="2.18286">
        <ele>102</ele>
        <time>2016-12-04T09:45:05.273Z</time>
      </trkpt>
      <trkpt lat="47.79926" lon="2.18286">
        <ele>102</ele>
        <time>2016-12-04T09:45:06.271Z</time>
      </trkpt>
      <trkpt lat="47.7993" lon="2.18268">
        <ele>102</ele>
        <time>2016-12-04T09:45:07.271Z</time>
      </trkpt>
      <trkpt lat="47.79932" lon="2.1826">
        <ele>102</ele>
        <time>2016-12-04T09:45:08.272Z</time>
      </trkpt>
      <trkpt lat="47.79932" lon="2.1826">
        <ele>102</ele>
        <time>2016-12-04T09:45:09.271Z</time>
      </trkpt>
      <trkpt lat="47.79936" lon="2.18242">
        <ele>102</ele>
        <time>2016-12-04T09:45:10.274Z</time>
      </trkpt>
      <trkpt lat="47.79936" lon="2.18242">
        <ele>102</ele>
        <time>2016-12-04T09:45:11.271Z</time>
      </trkpt>
      <trkpt lat="47.79941" lon="2.18226">
        <ele>102</ele>
        <time>2016-12-04T09:45:12.279Z</time>
      </trkpt>
      <trkpt lat="47.79942" lon="2.18217">
        <ele>102</ele>
        <time>2016-12-04T09:45:13.264Z</time>
      </trkpt>
      <trkpt lat="47.79944" lon="2.18208">
        <ele>102</ele>
        <time>2016-12-04T09:45:14.257Z</time>
      </trkpt>
      <trkpt lat="47.79944" lon="2.18208">
        <ele>102</ele>
        <time>2016-12-04T09:45:15.255Z</time>
      </trkpt>
      <trkpt lat="47.79948" lon="2.18191">
        <ele>103</ele>
        <time>2016-12-04T09:45:16.260Z</time>
      </trkpt>
      <trkpt lat="47.7995" lon="2.18182">
        <ele>103</ele>
        <time>2016-12-04T09:45:17.258Z</time>
      </trkpt>
      <trkpt lat="47.7995" lon="2.18182">
        <ele>103</ele>
        <time>2016-12-04T09:45:18.265Z</time>
      </trkpt>
      <trkpt lat="47.79955" lon="2.18165">
        <ele>103</ele>
        <time>2016-12-04T09:45:19.271Z</time>
      </trkpt>
      <trkpt lat="47.79957" lon="2.18156">
        <ele>103</ele>
        <time>2016-12-04T09:45:20.273Z</time>
      </trkpt>
      <trkpt lat="47.79957" lon="2.18156">
        <ele>103</ele>
        <time>2016-12-04T09:45:21.267Z</time>
      </trkpt>
      <trkpt lat="47.7996" lon="2.18138">
        <ele>103</ele>
        <time>2016-12-04T09:45:22.271Z</time>
      </trkpt>
      <trkpt lat="47.7996" lon="2.18138">
        <ele>103</ele>
        <time>2016-12-04T09:45:23.272Z</time>
      </trkpt>
      <trkpt lat="47.79965" lon="2.18119">
        <ele>103</ele>
        <time>2016-12-04T09:45:24.266Z</time>
      </trkpt>
      <trkpt lat="47.79967" lon="2.18109">
        <ele>102</ele>
        <time>2016-12-04T09:45:25.274Z</time>
      </trkpt>
      <trkpt lat="47.79969" lon="2.18099">
        <ele>102</ele>
        <time>2016-12-04T09:45:26.273Z</time>
      </trkpt>
      <trkpt lat="47.79969" lon="2.18099">
        <ele>102</ele>
        <time>2016-12-04T09:45:27.271Z</time>
      </trkpt>
      <trkpt lat="47.79973" lon="2.18078">
        <ele>102</ele>
        <time>2016-12-04T09:45:28.274Z</time>
      </trkpt>
      <trkpt lat="47.79975" lon="2.18068">
        <ele>102</ele>
        <time>2016-12-04T09:45:29.273Z</time>
      </trkpt>
      <trkpt lat="47.79975" lon="2.18068">
        <ele>102</ele>
        <time>2016-12-04T09:45:30.269Z</time>
      </trkpt>
      <trkpt lat="47.7998" lon="2.18049">
        <ele>102</ele>
        <time>2016-12-04T09:45:31.273Z</time>
      </trkpt>
      <trkpt lat="47.79983" lon="2.18038">
        <ele>102</ele>
        <time>2016-12-04T09:45:32.272Z</time>
      </trkpt>
      <trkpt lat="47.79983" lon="2.18038">
        <ele>102</ele>
        <time>2016-12-04T09:45:33.272Z</time>
      </trkpt>
      <trkpt lat="47.79987" lon="2.18018">
        <ele>102</ele>
        <time>2016-12-04T09:45:34.244Z</time>
      </trkpt>
      <trkpt lat="47.79989" lon="2.18008">
        <ele>102</ele>
        <time>2016-12-04T09:45:35.275Z</time>
      </trkpt>
      <trkpt lat="47.79989" lon="2.18008">
        <ele>102</ele>
        <time>2016-12-04T09:45:36.271Z</time>
      </trkpt>
      <trkpt lat="47.79993" lon="2.17988">
        <ele>102</ele>
        <time>2016-12-04T09:45:37.271Z</time>
      </trkpt>
      <trkpt lat="47.79995" lon="2.17979">
        <ele>103</ele>
        <time>2016-12-04T09:45:38.272Z</time>
      </trkpt>
      <trkpt lat="47.79995" lon="2.17979">
        <ele>103</ele>
        <time>2016-12-04T09:45:39.245Z</time>
      </trkpt>
      <trkpt lat="47.79999" lon="2.17962">
        <ele>103</ele>
        <time>2016-12-04T09:45:40.275Z</time>
      </trkpt>
      <trkpt lat="47.80001" lon="2.17953">
        <ele>104</ele>
        <time>2016-12-04T09:45:41.274Z</time>
      </trkpt>
      <trkpt lat="47.80001" lon="2.17953">
        <ele>104</ele>
        <time>2016-12-04T09:45:42.269Z</time>
      </trkpt>
      <trkpt lat="47.80005" lon="2.17935">
        <ele>104</ele>
        <time>2016-12-04T09:45:43.272Z</time>
      </trkpt>
      <trkpt lat="47.80005" lon="2.17935">
        <ele>104</ele>
        <time>2016-12-04T09:45:44.244Z</time>
      </trkpt>
      <trkpt lat="47.80008" lon="2.17917">
        <ele>104</ele>
        <time>2016-12-04T09:45:45.274Z</time>
      </trkpt>
      <trkpt lat="47.80011" lon="2.17908">
        <ele>103</ele>
        <time>2016-12-04T09:45:46.274Z</time>
      </trkpt>
      <trkpt lat="47.80011" lon="2.17908">
        <ele>103</ele>
        <time>2016-12-04T09:45:47.272Z</time>
      </trkpt>
      <trkpt lat="47.80016" lon="2.1789">
        <ele>103</ele>
        <time>2016-12-04T09:45:48.274Z</time>
      </trkpt>
      <trkpt lat="47.80016" lon="2.1789">
        <ele>103</ele>
        <time>2016-12-04T09:45:49.275Z</time>
      </trkpt>
      <trkpt lat="47.80019" lon="2.17872">
        <ele>103</ele>
        <time>2016-12-04T09:45:50.277Z</time>
      </trkpt>
      <trkpt lat="47.80019" lon="2.17872">
        <ele>103</ele>
        <time>2016-12-04T09:45:51.271Z</time>
      </trkpt>
      <trkpt lat="47.80022" lon="2.17854">
        <ele>102</ele>
        <time>2016-12-04T09:45:52.274Z</time>
      </trkpt>
      <trkpt lat="47.80022" lon="2.17854">
        <ele>102</ele>
        <time>2016-12-04T09:45:53.271Z</time>
      </trkpt>
      <trkpt lat="47.80026" lon="2.17837">
        <ele>103</ele>
        <time>2016-12-04T09:45:54.270Z</time>
      </trkpt>
      <trkpt lat="47.80027" lon="2.17829">
        <ele>103</ele>
        <time>2016-12-04T09:45:55.272Z</time>
      </trkpt>
      <trkpt lat="47.80027" lon="2.17829">
        <ele>103</ele>
        <time>2016-12-04T09:45:56.272Z</time>
      </trkpt>
      <trkpt lat="47.8003" lon="2.1781">
        <ele>104</ele>
        <time>2016-12-04T09:45:57.274Z</time>
      </trkpt>
      <trkpt lat="47.80032" lon="2.17801">
        <ele>104</ele>
        <time>2016-12-04T09:45:58.274Z</time>
      </trkpt>
      <trkpt lat="47.80032" lon="2.17801">
        <ele>104</ele>
        <time>2016-12-04T09:45:59.270Z</time>
      </trkpt>
      <trkpt lat="47.80038" lon="2.17784">
        <ele>104</ele>
        <time>2016-12-04T09:46:00.275Z</time>
      </trkpt>
      <trkpt lat="47.80041" lon="2.17776">
        <ele>104</ele>
        <time>2016-12-04T09:46:01.275Z</time>
      </trkpt>
      <trkpt lat="47.80045" lon="2.17768">
        <ele>104</ele>
        <time>2016-12-04T09:46:02.275Z</time>
      </trkpt>
      <trkpt lat="47.80045" lon="2.17768">
        <ele>104</ele>
        <time>2016-12-04T09:46:03.272Z</time>
      </trkpt>
      <trkpt lat="47.80053" lon="2.17752">
        <ele>105</ele>
        <time>2016-12-04T09:46:04.274Z</time>
      </trkpt>
      <trkpt lat="47.80056" lon="2.17745">
        <ele>105</ele>
        <time>2016-12-04T09:46:05.274Z</time>
      </trkpt>
      <trkpt lat="47.80056" lon="2.17745">
        <ele>105</ele>
        <time>2016-12-04T09:46:06.271Z</time>
      </trkpt>
      <trkpt lat="47.80064" lon="2.17731">
        <ele>106</ele>
        <time>2016-12-04T09:46:07.275Z</time>
      </trkpt>
      <trkpt lat="47.80069" lon="2.17723">
        <ele>106</ele>
        <time>2016-12-04T09:46:08.273Z</time>
      </trkpt>
      <trkpt lat="47.80069" lon="2.17723">
        <ele>106</ele>
        <time>2016-12-04T09:46:09.268Z</time>
      </trkpt>
      <trkpt lat="47.80077" lon="2.17707">
        <ele>106</ele>
        <time>2016-12-04T09:46:10.245Z</time>
      </trkpt>
      <trkpt lat="47.80077" lon="2.17707">
        <ele>106</ele>
        <time>2016-12-04T09:46:11.271Z</time>
      </trkpt>
      <trkpt lat="47.80083" lon="2.17691">
        <ele>107</ele>
        <time>2016-12-04T09:46:12.274Z</time>
      </trkpt>
      <trkpt lat="47.80083" lon="2.17691">
        <ele>107</ele>
        <time>2016-12-04T09:46:13.256Z</time>
      </trkpt>
      <trkpt lat="47.8009" lon="2.17675">
        <ele>107</ele>
        <time>2016-12-04T09:46:14.245Z</time>
      </trkpt>
      <trkpt lat="47.80092" lon="2.17666">
        <ele>107</ele>
        <time>2016-12-04T09:46:15.274Z</time>
      </trkpt>
      <trkpt lat="47.80092" lon="2.17666">
        <ele>107</ele>
        <time>2016-12-04T09:46:16.281Z</time>
      </trkpt>
      <trkpt lat="47.80098" lon="2.17648">
        <ele>108</ele>
        <time>2016-12-04T09:46:17.265Z</time>
      </trkpt>
      <trkpt lat="47.80098" lon="2.17648">
        <ele>108</ele>
        <time>2016-12-04T09:46:18.258Z</time>
      </trkpt>
      <trkpt lat="47.80101" lon="2.17629">
        <ele>108</ele>
        <time>2016-12-04T09:46:19.249Z</time>
      </trkpt>
      <trkpt lat="47.80103" lon="2.17619">
        <ele>107</ele>
        <time>2016-12-04T09:46:20.278Z</time>
      </trkpt>
      <trkpt lat="47.80103" lon="2.17619">
        <ele>107</ele>
        <time>2016-12-04T09:46:21.277Z</time>
      </trkpt>
      <trkpt lat="47.80106" lon="2.176">
        <ele>106</ele>
        <time>2016-12-04T09:46:22.248Z</time>
      </trkpt>
      <trkpt lat="47.80106" lon="2.176">
        <ele>106</ele>
        <time>2016-12-04T09:46:23.277Z</time>
      </trkpt>
      <trkpt lat="47.80109" lon="2.17581">
        <ele>106</ele>
        <time>2016-12-04T09:46:24.275Z</time>
      </trkpt>
      <trkpt lat="47.80111" lon="2.17571">
        <ele>108</ele>
        <time>2016-12-04T09:46:25.274Z</time>
      </trkpt>
      <trkpt lat="47.80112" lon="2.17562">
        <ele>108</ele>
        <time>2016-12-04T09:46:26.276Z</time>
      </trkpt>
      <trkpt lat="47.80112" lon="2.17562">
        <ele>108</ele>
        <time>2016-12-04T09:46:27.272Z</time>
      </trkpt>
      <trkpt lat="47.80114" lon="2.17544">
        <ele>109</ele>
        <time>2016-12-04T09:46:28.272Z</time>
      </trkpt>
      <trkpt lat="47.80114" lon="2.17544">
        <ele>109</ele>
        <time>2016-12-04T09:46:29.271Z</time>
      </trkpt>
      <trkpt lat="47.80116" lon="2.17525">
        <ele>109</ele>
        <time>2016-12-04T09:46:30.274Z</time>
      </trkpt>
      <trkpt lat="47.80116" lon="2.17525">
        <ele>109</ele>
        <time>2016-12-04T09:46:31.264Z</time>
      </trkpt>
      <trkpt lat="47.80119" lon="2.17506">
        <ele>108</ele>
        <time>2016-12-04T09:46:32.276Z</time>
      </trkpt>
      <trkpt lat="47.80119" lon="2.17506">
        <ele>108</ele>
        <time>2016-12-04T09:46:33.271Z</time>
      </trkpt>
      <trkpt lat="47.80121" lon="2.17486">
        <ele>108</ele>
        <time>2016-12-04T09:46:34.275Z</time>
      </trkpt>
      <trkpt lat="47.80121" lon="2.17486">
        <ele>108</ele>
        <time>2016-12-04T09:46:35.272Z</time>
      </trkpt>
      <trkpt lat="47.80124" lon="2.17467">
        <ele>108</ele>
        <time>2016-12-04T09:46:36.271Z</time>
      </trkpt>
      <trkpt lat="47.80125" lon="2.17458">
        <ele>108</ele>
        <time>2016-12-04T09:46:37.275Z</time>
      </trkpt>
      <trkpt lat="47.80125" lon="2.17458">
        <ele>108</ele>
        <time>2016-12-04T09:46:38.271Z</time>
      </trkpt>
      <trkpt lat="47.80127" lon="2.17437">
        <ele>107</ele>
        <time>2016-12-04T09:46:39.275Z</time>
      </trkpt>
      <trkpt lat="47.80129" lon="2.17427">
        <ele>108</ele>
        <time>2016-12-04T09:46:40.273Z</time>
      </trkpt>
      <trkpt lat="47.80129" lon="2.17427">
        <ele>108</ele>
        <time>2016-12-04T09:46:41.273Z</time>
      </trkpt>
      <trkpt lat="47.80132" lon="2.17407">
        <ele>109</ele>
        <time>2016-12-04T09:46:42.274Z</time>
      </trkpt>
      <trkpt lat="47.80132" lon="2.17407">
        <ele>109</ele>
        <time>2016-12-04T09:46:43.271Z</time>
      </trkpt>
      <trkpt lat="47.80135" lon="2.17387">
        <ele>108</ele>
        <time>2016-12-04T09:46:44.264Z</time>
      </trkpt>
      <trkpt lat="47.80135" lon="2.17387">
        <ele>108</ele>
        <time>2016-12-04T09:46:45.269Z</time>
      </trkpt>
      <trkpt lat="47.80138" lon="2.17367">
        <ele>109</ele>
        <time>2016-12-04T09:46:46.272Z</time>
      </trkpt>
      <trkpt lat="47.8014" lon="2.17358">
        <ele>109</ele>
        <time>2016-12-04T09:46:47.274Z</time>
      </trkpt>
      <trkpt lat="47.8014" lon="2.17358">
        <ele>109</ele>
        <time>2016-12-04T09:46:48.272Z</time>
      </trkpt>
      <trkpt lat="47.80143" lon="2.17338">
        <ele>108</ele>
        <time>2016-12-04T09:46:49.271Z</time>
      </trkpt>
      <trkpt lat="47.80145" lon="2.17328">
        <ele>109</ele>
        <time>2016-12-04T09:46:50.274Z</time>
      </trkpt>
      <trkpt lat="47.80145" lon="2.17328">
        <ele>109</ele>
        <time>2016-12-04T09:46:51.273Z</time>
      </trkpt>
      <trkpt lat="47.8015" lon="2.17308">
        <ele>108</ele>
        <time>2016-12-04T09:46:52.275Z</time>
      </trkpt>
      <trkpt lat="47.8015" lon="2.17308">
        <ele>108</ele>
        <time>2016-12-04T09:46:53.272Z</time>
      </trkpt>
      <trkpt lat="47.80152" lon="2.17287">
        <ele>108</ele>
        <time>2016-12-04T09:46:54.272Z</time>
      </trkpt>
      <trkpt lat="47.80154" lon="2.17278">
        <ele>108</ele>
        <time>2016-12-04T09:46:55.275Z</time>
      </trkpt>
      <trkpt lat="47.80156" lon="2.17268">
        <ele>108</ele>
        <time>2016-12-04T09:46:56.273Z</time>
      </trkpt>
      <trkpt lat="47.80156" lon="2.17268">
        <ele>108</ele>
        <time>2016-12-04T09:46:57.270Z</time>
      </trkpt>
      <trkpt lat="47.80159" lon="2.17248">
        <ele>108</ele>
        <time>2016-12-04T09:46:58.272Z</time>
      </trkpt>
      <trkpt lat="47.80159" lon="2.17248">
        <ele>108</ele>
        <time>2016-12-04T09:46:59.273Z</time>
      </trkpt>
      <trkpt lat="47.80163" lon="2.17227">
        <ele>107</ele>
        <time>2016-12-04T09:47:00.276Z</time>
      </trkpt>
      <trkpt lat="47.80165" lon="2.17216">
        <ele>107</ele>
        <time>2016-12-04T09:47:01.276Z</time>
      </trkpt>
      <trkpt lat="47.80167" lon="2.17206">
        <ele>107</ele>
        <time>2016-12-04T09:47:02.273Z</time>
      </trkpt>
      <trkpt lat="47.80167" lon="2.17206">
        <ele>107</ele>
        <time>2016-12-04T09:47:03.269Z</time>
      </trkpt>
      <trkpt lat="47.80171" lon="2.17184">
        <ele>107</ele>
        <time>2016-12-04T09:47:04.273Z</time>
      </trkpt>
      <trkpt lat="47.80171" lon="2.17184">
        <ele>107</ele>
        <time>2016-12-04T09:47:05.271Z</time>
      </trkpt>
      <trkpt lat="47.80176" lon="2.17163">
        <ele>107</ele>
        <time>2016-12-04T09:47:06.274Z</time>
      </trkpt>
      <trkpt lat="47.80176" lon="2.17163">
        <ele>107</ele>
        <time>2016-12-04T09:47:07.272Z</time>
      </trkpt>
      <trkpt lat="47.8018" lon="2.17142">
        <ele>106</ele>
        <time>2016-12-04T09:47:08.276Z</time>
      </trkpt>
      <trkpt lat="47.8018" lon="2.17142">
        <ele>106</ele>
        <time>2016-12-04T09:47:09.272Z</time>
      </trkpt>
      <trkpt lat="47.80184" lon="2.17121">
        <ele>106</ele>
        <time>2016-12-04T09:47:10.274Z</time>
      </trkpt>
      <trkpt lat="47.80184" lon="2.17121">
        <ele>106</ele>
        <time>2016-12-04T09:47:11.272Z</time>
      </trkpt>
      <trkpt lat="47.80187" lon="2.171">
        <ele>105</ele>
        <time>2016-12-04T09:47:12.271Z</time>
      </trkpt>
      <trkpt lat="47.80189" lon="2.1709">
        <ele>105</ele>
        <time>2016-12-04T09:47:13.257Z</time>
      </trkpt>
      <trkpt lat="47.80189" lon="2.1709">
        <ele>105</ele>
        <time>2016-12-04T09:47:14.247Z</time>
      </trkpt>
      <trkpt lat="47.80193" lon="2.17069">
        <ele>104</ele>
        <time>2016-12-04T09:47:15.276Z</time>
      </trkpt>
      <trkpt lat="47.80193" lon="2.17069">
        <ele>104</ele>
        <time>2016-12-04T09:47:16.280Z</time>
      </trkpt>
      <trkpt lat="47.80198" lon="2.17049">
        <ele>104</ele>
        <time>2016-12-04T09:47:17.262Z</time>
      </trkpt>
      <trkpt lat="47.802" lon="2.17039">
        <ele>104</ele>
        <time>2016-12-04T09:47:18.251Z</time>
      </trkpt>
      <trkpt lat="47.802" lon="2.17039">
        <ele>104</ele>
        <time>2016-12-04T09:47:19.279Z</time>
      </trkpt>
      <trkpt lat="47.80204" lon="2.17019">
        <ele>103</ele>
        <time>2016-12-04T09:47:20.276Z</time>
      </trkpt>
      <trkpt lat="47.80204" lon="2.17019">
        <ele>103</ele>
        <time>2016-12-04T09:47:21.271Z</time>
      </trkpt>
      <trkpt lat="47.80208" lon="2.17">
        <ele>103</ele>
        <time>2016-12-04T09:47:22.272Z</time>
      </trkpt>
      <trkpt lat="47.80208" lon="2.17">
        <ele>103</ele>
        <time>2016-12-04T09:47:23.270Z</time>
      </trkpt>
      <trkpt lat="47.80211" lon="2.16982">
        <ele>102</ele>
        <time>2016-12-04T09:47:24.274Z</time>
      </trkpt>
      <trkpt lat="47.80212" lon="2.16974">
        <ele>102</ele>
        <time>2016-12-04T09:47:25.275Z</time>
      </trkpt>
      <trkpt lat="47.80212" lon="2.16965">
        <ele>102</ele>
        <time>2016-12-04T09:47:26.276Z</time>
      </trkpt>
      <trkpt lat="47.80212" lon="2.16965">
        <ele>102</ele>
        <time>2016-12-04T09:47:27.272Z</time>
      </trkpt>
      <trkpt lat="47.80212" lon="2.16946">
        <ele>102</ele>
        <time>2016-12-04T09:47:28.275Z</time>
      </trkpt>
      <trkpt lat="47.80213" lon="2.16936">
        <ele>101</ele>
        <time>2016-12-04T09:47:29.275Z</time>
      </trkpt>
      <trkpt lat="47.80213" lon="2.16936">
        <ele>101</ele>
        <time>2016-12-04T09:47:30.273Z</time>
      </trkpt>
      <trkpt lat="47.80214" lon="2.16917">
        <ele>101</ele>
        <time>2016-12-04T09:47:31.274Z</time>
      </trkpt>
      <trkpt lat="47.80217" lon="2.16908">
        <ele>102</ele>
        <time>2016-12-04T09:47:32.274Z</time>
      </trkpt>
      <trkpt lat="47.80217" lon="2.16908">
        <ele>102</ele>
        <time>2016-12-04T09:47:33.272Z</time>
      </trkpt>
      <trkpt lat="47.80224" lon="2.16889">
        <ele>102</ele>
        <time>2016-12-04T09:47:34.275Z</time>
      </trkpt>
      <trkpt lat="47.80227" lon="2.1688">
        <ele>101</ele>
        <time>2016-12-04T09:47:35.275Z</time>
      </trkpt>
      <trkpt lat="47.80227" lon="2.1688">
        <ele>101</ele>
        <time>2016-12-04T09:47:36.272Z</time>
      </trkpt>
      <trkpt lat="47.80233" lon="2.16863">
        <ele>101</ele>
        <time>2016-12-04T09:47:37.274Z</time>
      </trkpt>
      <trkpt lat="47.80235" lon="2.16853">
        <ele>101</ele>
        <time>2016-12-04T09:47:38.274Z</time>
      </trkpt>
      <trkpt lat="47.80235" lon="2.16853">
        <ele>101</ele>
        <time>2016-12-04T09:47:39.268Z</time>
      </trkpt>
      <trkpt lat="47.80238" lon="2.16837">
        <ele>101</ele>
        <time>2016-12-04T09:47:40.273Z</time>
      </trkpt>
      <trkpt lat="47.80238" lon="2.16837">
        <ele>101</ele>
        <time>2016-12-04T09:47:41.272Z</time>
      </trkpt>
      <trkpt lat="47.80241" lon="2.16821">
        <ele>101</ele>
        <time>2016-12-04T09:47:42.274Z</time>
      </trkpt>
      <trkpt lat="47.80241" lon="2.16821">
        <ele>101</ele>
        <time>2016-12-04T09:47:43.271Z</time>
      </trkpt>
      <trkpt lat="47.80244" lon="2.16807">
        <ele>102</ele>
        <time>2016-12-04T09:47:44.253Z</time>
      </trkpt>
      <trkpt lat="47.80244" lon="2.16807">
        <ele>102</ele>
        <time>2016-12-04T09:47:45.245Z</time>
      </trkpt>
      <trkpt lat="47.80247" lon="2.16794">
        <ele>103</ele>
        <time>2016-12-04T09:47:46.275Z</time>
      </trkpt>
      <trkpt lat="47.80247" lon="2.16794">
        <ele>103</ele>
        <time>2016-12-04T09:47:47.272Z</time>
      </trkpt>
      <trkpt lat="47.80249" lon="2.16781">
        <ele>102</ele>
        <time>2016-12-04T09:47:48.272Z</time>
      </trkpt>
      <trkpt lat="47.80249" lon="2.16781">
        <ele>102</ele>
        <time>2016-12-04T09:47:49.275Z</time>
      </trkpt>
      <trkpt lat="47.80251" lon="2.16767">
        <ele>102</ele>
        <time>2016-12-04T09:47:50.273Z</time>
      </trkpt>
      <trkpt lat="47.80251" lon="2.16767">
        <ele>102</ele>
        <time>2016-12-04T09:47:51.272Z</time>
      </trkpt>
      <trkpt lat="47.80255" lon="2.16753">
        <ele>103</ele>
        <time>2016-12-04T09:47:52.273Z</time>
      </trkpt>
      <trkpt lat="47.80255" lon="2.16753">
        <ele>103</ele>
        <time>2016-12-04T09:47:53.271Z</time>
      </trkpt>
      <trkpt lat="47.80258" lon="2.16739">
        <ele>103</ele>
        <time>2016-12-04T09:47:54.278Z</time>
      </trkpt>
      <trkpt lat="47.8026" lon="2.16732">
        <ele>104</ele>
        <time>2016-12-04T09:47:55.274Z</time>
      </trkpt>
      <trkpt lat="47.80262" lon="2.16725">
        <ele>103</ele>
        <time>2016-12-04T09:47:56.278Z</time>
      </trkpt>
      <trkpt lat="47.80262" lon="2.16725">
        <ele>103</ele>
        <time>2016-12-04T09:47:57.272Z</time>
      </trkpt>
      <trkpt lat="47.80264" lon="2.1671">
        <ele>104</ele>
        <time>2016-12-04T09:47:58.275Z</time>
      </trkpt>
      <trkpt lat="47.80266" lon="2.16702">
        <ele>104</ele>
        <time>2016-12-04T09:47:59.274Z</time>
      </trkpt>
      <trkpt lat="47.80266" lon="2.16702">
        <ele>104</ele>
        <time>2016-12-04T09:48:00.271Z</time>
      </trkpt>
      <trkpt lat="47.80268" lon="2.16687">
        <ele>105</ele>
        <time>2016-12-04T09:48:01.277Z</time>
      </trkpt>
      <trkpt lat="47.8027" lon="2.1668">
        <ele>105</ele>
        <time>2016-12-04T09:48:02.278Z</time>
      </trkpt>
      <trkpt lat="47.8027" lon="2.1668">
        <ele>105</ele>
        <time>2016-12-04T09:48:03.272Z</time>
      </trkpt>
      <trkpt lat="47.80274" lon="2.16665">
        <ele>105</ele>
        <time>2016-12-04T09:48:04.272Z</time>
      </trkpt>
      <trkpt lat="47.80276" lon="2.16658">
        <ele>105</ele>
        <time>2016-12-04T09:48:05.276Z</time>
      </trkpt>
      <trkpt lat="47.80276" lon="2.16658">
        <ele>105</ele>
        <time>2016-12-04T09:48:06.269Z</time>
      </trkpt>
      <trkpt lat="47.80279" lon="2.16642">
        <ele>105</ele>
        <time>2016-12-04T09:48:07.274Z</time>
      </trkpt>
      <trkpt lat="47.80279" lon="2.16642">
        <ele>105</ele>
        <time>2016-12-04T09:48:08.270Z</time>
      </trkpt>
      <trkpt lat="47.80282" lon="2.16626">
        <ele>105</ele>
        <time>2016-12-04T09:48:09.275Z</time>
      </trkpt>
      <trkpt lat="47.80284" lon="2.16618">
        <ele>104</ele>
        <time>2016-12-04T09:48:10.273Z</time>
      </trkpt>
      <trkpt lat="47.80284" lon="2.16618">
        <ele>104</ele>
        <time>2016-12-04T09:48:11.270Z</time>
      </trkpt>
      <trkpt lat="47.80288" lon="2.16603">
        <ele>105</ele>
        <time>2016-12-04T09:48:12.251Z</time>
      </trkpt>
      <trkpt lat="47.80288" lon="2.16603">
        <ele>105</ele>
        <time>2016-12-04T09:48:13.245Z</time>
      </trkpt>
      <trkpt lat="47.80291" lon="2.16586">
        <ele>105</ele>
        <time>2016-12-04T09:48:14.276Z</time>
      </trkpt>
      <trkpt lat="47.80293" lon="2.16578">
        <ele>105</ele>
        <time>2016-12-04T09:48:15.274Z</time>
      </trkpt>
      <trkpt lat="47.80293" lon="2.16578">
        <ele>105</ele>
        <time>2016-12-04T09:48:16.249Z</time>
      </trkpt>
      <trkpt lat="47.80296" lon="2.16562">
        <ele>106</ele>
        <time>2016-12-04T09:48:17.277Z</time>
      </trkpt>
      <trkpt lat="47.80297" lon="2.16553">
        <ele>105</ele>
        <time>2016-12-04T09:48:18.282Z</time>
      </trkpt>
      <trkpt lat="47.80297" lon="2.16553">
        <ele>105</ele>
        <time>2016-12-04T09:48:19.248Z</time>
      </trkpt>
      <trkpt lat="47.803" lon="2.16537">
        <ele>105</ele>
        <time>2016-12-04T09:48:20.255Z</time>
      </trkpt>
      <trkpt lat="47.80301" lon="2.16527">
        <ele>105</ele>
        <time>2016-12-04T09:48:21.245Z</time>
      </trkpt>
      <trkpt lat="47.80301" lon="2.16527">
        <ele>105</ele>
        <time>2016-12-04T09:48:22.275Z</time>
      </trkpt>
      <trkpt lat="47.80304" lon="2.1651">
        <ele>105</ele>
        <time>2016-12-04T09:48:23.275Z</time>
      </trkpt>
      <trkpt lat="47.80304" lon="2.1651">
        <ele>105</ele>
        <time>2016-12-04T09:48:24.272Z</time>
      </trkpt>
      <trkpt lat="47.80308" lon="2.16493">
        <ele>104</ele>
        <time>2016-12-04T09:48:25.275Z</time>
      </trkpt>
      <trkpt lat="47.80308" lon="2.16493">
        <ele>104</ele>
        <time>2016-12-04T09:48:26.271Z</time>
      </trkpt>
      <trkpt lat="47.80311" lon="2.16476">
        <ele>104</ele>
        <time>2016-12-04T09:48:27.272Z</time>
      </trkpt>
      <trkpt lat="47.80311" lon="2.16476">
        <ele>104</ele>
        <time>2016-12-04T09:48:28.270Z</time>
      </trkpt>
      <trkpt lat="47.80314" lon="2.16463">
        <ele>104</ele>
        <time>2016-12-04T09:48:29.275Z</time>
      </trkpt>
      <trkpt lat="47.80314" lon="2.16463">
        <ele>104</ele>
        <time>2016-12-04T09:48:30.272Z</time>
      </trkpt>
      <trkpt lat="47.80317" lon="2.1645">
        <ele>104</ele>
        <time>2016-12-04T09:48:31.275Z</time>
      </trkpt>
      <trkpt lat="47.80317" lon="2.1645">
        <ele>104</ele>
        <time>2016-12-04T09:48:32.267Z</time>
      </trkpt>
      <trkpt lat="47.8032" lon="2.16437">
        <ele>105</ele>
        <time>2016-12-04T09:48:33.275Z</time>
      </trkpt>
      <trkpt lat="47.8032" lon="2.16437">
        <ele>105</ele>
        <time>2016-12-04T09:48:34.270Z</time>
      </trkpt>
      <trkpt lat="47.80323" lon="2.16423">
        <ele>106</ele>
        <time>2016-12-04T09:48:35.272Z</time>
      </trkpt>
      <trkpt lat="47.80323" lon="2.16423">
        <ele>106</ele>
        <time>2016-12-04T09:48:36.273Z</time>
      </trkpt>
      <trkpt lat="47.80327" lon="2.1641">
        <ele>106</ele>
        <time>2016-12-04T09:48:37.274Z</time>
      </trkpt>
      <trkpt lat="47.80328" lon="2.16403">
        <ele>105</ele>
        <time>2016-12-04T09:48:38.278Z</time>
      </trkpt>
      <trkpt lat="47.80328" lon="2.16403">
        <ele>105</ele>
        <time>2016-12-04T09:48:39.272Z</time>
      </trkpt>
      <trkpt lat="47.80331" lon="2.16391">
        <ele>104</ele>
        <time>2016-12-04T09:48:40.275Z</time>
      </trkpt>
      <trkpt lat="47.80331" lon="2.16391">
        <ele>104</ele>
        <time>2016-12-04T09:48:41.273Z</time>
      </trkpt>
      <trkpt lat="47.80334" lon="2.1638">
        <ele>105</ele>
        <time>2016-12-04T09:48:42.253Z</time>
      </trkpt>
      <trkpt lat="47.80336" lon="2.16373">
        <ele>105</ele>
        <time>2016-12-04T09:48:43.252Z</time>
      </trkpt>
      <trkpt lat="47.80336" lon="2.16373">
        <ele>105</ele>
        <time>2016-12-04T09:48:44.279Z</time>
      </trkpt>
      <trkpt lat="47.80339" lon="2.16359">
        <ele>105</ele>
        <time>2016-12-04T09:48:45.265Z</time>
      </trkpt>
      <trkpt lat="47.80341" lon="2.16352">
        <ele>105</ele>
        <time>2016-12-04T09:48:46.276Z</time>
      </trkpt>
      <trkpt lat="47.80341" lon="2.16352">
        <ele>105</ele>
        <time>2016-12-04T09:48:47.273Z</time>
      </trkpt>
      <trkpt lat="47.80344" lon="2.16338">
        <ele>106</ele>
        <time>2016-12-04T09:48:48.251Z</time>
      </trkpt>
      <trkpt lat="47.80344" lon="2.16338">
        <ele>106</ele>
        <time>2016-12-04T09:48:49.280Z</time>
      </trkpt>
      <trkpt lat="47.80347" lon="2.16327">
        <ele>106</ele>
        <time>2016-12-04T09:48:50.246Z</time>
      </trkpt>
      <trkpt lat="47.80347" lon="2.16327">
        <ele>106</ele>
        <time>2016-12-04T09:48:51.275Z</time>
      </trkpt>
      <trkpt lat="47.8035" lon="2.16318">
        <ele>106</ele>
        <time>2016-12-04T09:48:52.276Z</time>
      </trkpt>
      <trkpt lat="47.80351" lon="2.16312">
        <ele>105</ele>
        <time>2016-12-04T09:48:53.273Z</time>
      </trkpt>
      <trkpt lat="47.80351" lon="2.16312">
        <ele>105</ele>
        <time>2016-12-04T09:48:54.269Z</time>
      </trkpt>
      <trkpt lat="47.80355" lon="2.16299">
        <ele>105</ele>
        <time>2016-12-04T09:48:55.272Z</time>
      </trkpt>
      <trkpt lat="47.80357" lon="2.1629">
        <ele>105</ele>
        <time>2016-12-04T09:48:56.273Z</time>
      </trkpt>
      <trkpt lat="47.80357" lon="2.1629">
        <ele>105</ele>
        <time>2016-12-04T09:48:57.272Z</time>
      </trkpt>
      <trkpt lat="47.80359" lon="2.16273">
        <ele>104</ele>
        <time>2016-12-04T09:48:58.275Z</time>
      </trkpt>
      <trkpt lat="47.80359" lon="2.16273">
        <ele>104</ele>
        <time>2016-12-04T09:48:59.271Z</time>
      </trkpt>
      <trkpt lat="47.80361" lon="2.16253">
        <ele>102</ele>
        <time>2016-12-04T09:49:00.276Z</time>
      </trkpt>
      <trkpt lat="47.80361" lon="2.16244">
        <ele>102</ele>
        <time>2016-12-04T09:49:01.276Z</time>
      </trkpt>
      <trkpt lat="47.80361" lon="2.16244">
        <ele>102</ele>
        <time>2016-12-04T09:49:02.271Z</time>
      </trkpt>
      <trkpt lat="47.80363" lon="2.16226">
        <ele>102</ele>
        <time>2016-12-04T09:49:03.273Z</time>
      </trkpt>
      <trkpt lat="47.80363" lon="2.16226">
        <ele>102</ele>
        <time>2016-12-04T09:49:04.267Z</time>
      </trkpt>
      <trkpt lat="47.80366" lon="2.16211">
        <ele>101</ele>
        <time>2016-12-04T09:49:05.275Z</time>
      </trkpt>
      <trkpt lat="47.80366" lon="2.16211">
        <ele>101</ele>
        <time>2016-12-04T09:49:06.272Z</time>
      </trkpt>
      <trkpt lat="47.8037" lon="2.16196">
        <ele>101</ele>
        <time>2016-12-04T09:49:07.275Z</time>
      </trkpt>
      <trkpt lat="47.80371" lon="2.16189">
        <ele>101</ele>
        <time>2016-12-04T09:49:08.276Z</time>
      </trkpt>
      <trkpt lat="47.80371" lon="2.16189">
        <ele>101</ele>
        <time>2016-12-04T09:49:09.270Z</time>
      </trkpt>
      <trkpt lat="47.80375" lon="2.16175">
        <ele>102</ele>
        <time>2016-12-04T09:49:10.276Z</time>
      </trkpt>
      <trkpt lat="47.80375" lon="2.16175">
        <ele>102</ele>
        <time>2016-12-04T09:49:11.272Z</time>
      </trkpt>
      <trkpt lat="47.80378" lon="2.16161">
        <ele>102</ele>
        <time>2016-12-04T09:49:12.273Z</time>
      </trkpt>
      <trkpt lat="47.80378" lon="2.16161">
        <ele>102</ele>
        <time>2016-12-04T09:49:13.272Z</time>
      </trkpt>
      <trkpt lat="47.8038" lon="2.16149">
        <ele>104</ele>
        <time>2016-12-04T09:49:14.247Z</time>
      </trkpt>
      <trkpt lat="47.80381" lon="2.16143">
        <ele>104</ele>
        <time>2016-12-04T09:49:15.277Z</time>
      </trkpt>
      <trkpt lat="47.80381" lon="2.16143">
        <ele>104</ele>
        <time>2016-12-04T09:49:16.261Z</time>
      </trkpt>
      <trkpt lat="47.80383" lon="2.1613">
        <ele>105</ele>
        <time>2016-12-04T09:49:17.266Z</time>
      </trkpt>
      <trkpt lat="47.80383" lon="2.1613">
        <ele>105</ele>
        <time>2016-12-04T09:49:18.272Z</time>
      </trkpt>
      <trkpt lat="47.80384" lon="2.16118">
        <ele>105</ele>
        <time>2016-12-04T09:49:19.278Z</time>
      </trkpt>
      <trkpt lat="47.80385" lon="2.16112">
        <ele>105</ele>
        <time>2016-12-04T09:49:20.245Z</time>
      </trkpt>
      <trkpt lat="47.80385" lon="2.16112">
        <ele>105</ele>
        <time>2016-12-04T09:49:21.274Z</time>
      </trkpt>
      <trkpt lat="47.80387" lon="2.16101">
        <ele>106</ele>
        <time>2016-12-04T09:49:22.275Z</time>
      </trkpt>
      <trkpt lat="47.80387" lon="2.16101">
        <ele>106</ele>
        <time>2016-12-04T09:49:23.271Z</time>
      </trkpt>
      <trkpt lat="47.8039" lon="2.16087">
        <ele>105</ele>
        <time>2016-12-04T09:49:24.247Z</time>
      </trkpt>
      <trkpt lat="47.8039" lon="2.16087">
        <ele>105</ele>
        <time>2016-12-04T09:49:25.275Z</time>
      </trkpt>
      <trkpt lat="47.80392" lon="2.16074">
        <ele>106</ele>
        <time>2016-12-04T09:49:26.274Z</time>
      </trkpt>
      <trkpt lat="47.80392" lon="2.16074">
        <ele>106</ele>
        <time>2016-12-04T09:49:27.269Z</time>
      </trkpt>
      <trkpt lat="47.80394" lon="2.16061">
        <ele>107</ele>
        <time>2016-12-04T09:49:28.273Z</time>
      </trkpt>
      <trkpt lat="47.80395" lon="2.16055">
        <ele>107</ele>
        <time>2016-12-04T09:49:29.277Z</time>
      </trkpt>
      <trkpt lat="47.80395" lon="2.16055">
        <ele>107</ele>
        <time>2016-12-04T09:49:30.272Z</time>
      </trkpt>
      <trkpt lat="47.80398" lon="2.16041">
        <ele>107</ele>
        <time>2016-12-04T09:49:31.272Z</time>
      </trkpt>
      <trkpt lat="47.80399" lon="2.16034">
        <ele>108</ele>
        <time>2016-12-04T09:49:32.244Z</time>
      </trkpt>
      <trkpt lat="47.80399" lon="2.16034">
        <ele>108</ele>
        <time>2016-12-04T09:49:33.273Z</time>
      </trkpt>
      <trkpt lat="47.80402" lon="2.16021">
        <ele>108</ele>
        <time>2016-12-04T09:49:34.275Z</time>
      </trkpt>
      <trkpt lat="47.80403" lon="2.16015">
        <ele>108</ele>
        <time>2016-12-04T09:49:35.273Z</time>
      </trkpt>
      <trkpt lat="47.80403" lon="2.16015">
        <ele>108</ele>
        <time>2016-12-04T09:49:36.269Z</time>
      </trkpt>
      <trkpt lat="47.80406" lon="2.16002">
        <ele>108</ele>
        <time>2016-12-04T09:49:37.273Z</time>
      </trkpt>
      <trkpt lat="47.80408" lon="2.15994">
        <ele>108</ele>
        <time>2016-12-04T09:49:38.270Z</time>
      </trkpt>
      <trkpt lat="47.80408" lon="2.15994">
        <ele>108</ele>
        <time>2016-12-04T09:49:39.264Z</time>
      </trkpt>
      <trkpt lat="47.80411" lon="2.1598">
        <ele>108</ele>
        <time>2016-12-04T09:49:40.278Z</time>
      </trkpt>
      <trkpt lat="47.80413" lon="2.15973">
        <ele>108</ele>
        <time>2016-12-04T09:49:41.276Z</time>
      </trkpt>
      <trkpt lat="47.80413" lon="2.15973">
        <ele>108</ele>
        <time>2016-12-04T09:49:42.273Z</time>
      </trkpt>
      <trkpt lat="47.80417" lon="2.1596">
        <ele>107</ele>
        <time>2016-12-04T09:49:43.274Z</time>
      </trkpt>
      <trkpt lat="47.80417" lon="2.1596">
        <ele>107</ele>
        <time>2016-12-04T09:49:44.246Z</time>
      </trkpt>
      <trkpt lat="47.80421" lon="2.15947">
        <ele>107</ele>
        <time>2016-12-04T09:49:45.278Z</time>
      </trkpt>
      <trkpt lat="47.80423" lon="2.1594">
        <ele>107</ele>
        <time>2016-12-04T09:49:46.276Z</time>
      </trkpt>
      <trkpt lat="47.80423" lon="2.1594">
        <ele>107</ele>
        <time>2016-12-04T09:49:47.273Z</time>
      </trkpt>
      <trkpt lat="47.80427" lon="2.15927">
        <ele>107</ele>
        <time>2016-12-04T09:49:48.273Z</time>
      </trkpt>
      <trkpt lat="47.80427" lon="2.15927">
        <ele>107</ele>
        <time>2016-12-04T09:49:49.273Z</time>
      </trkpt>
      <trkpt lat="47.80432" lon="2.15912">
        <ele>105</ele>
        <time>2016-12-04T09:49:50.278Z</time>
      </trkpt>
      <trkpt lat="47.80432" lon="2.15912">
        <ele>105</ele>
        <time>2016-12-04T09:49:51.271Z</time>
      </trkpt>
      <trkpt lat="47.80437" lon="2.15895">
        <ele>104</ele>
        <time>2016-12-04T09:49:52.282Z</time>
      </trkpt>
      <trkpt lat="47.80437" lon="2.15895">
        <ele>104</ele>
        <time>2016-12-04T09:49:53.271Z</time>
      </trkpt>
      <trkpt lat="47.80441" lon="2.15876">
        <ele>103</ele>
        <time>2016-12-04T09:49:54.274Z</time>
      </trkpt>
      <trkpt lat="47.80441" lon="2.15876">
        <ele>103</ele>
        <time>2016-12-04T09:49:55.271Z</time>
      </trkpt>
      <trkpt lat="47.80445" lon="2.15856">
        <ele>102</ele>
        <time>2016-12-04T09:49:56.250Z</time>
      </trkpt>
      <trkpt lat="47.80445" lon="2.15856">
        <ele>102</ele>
        <time>2016-12-04T09:49:57.278Z</time>
      </trkpt>
      <trkpt lat="47.80448" lon="2.15837">
        <ele>102</ele>
        <time>2016-12-04T09:49:58.276Z</time>
      </trkpt>
      <trkpt lat="47.8045" lon="2.15828">
        <ele>101</ele>
        <time>2016-12-04T09:49:59.279Z</time>
      </trkpt>
      <trkpt lat="47.8045" lon="2.15828">
        <ele>101</ele>
        <time>2016-12-04T09:50:00.272Z</time>
      </trkpt>
      <trkpt lat="47.80458" lon="2.15815">
        <ele>101</ele>
        <time>2016-12-04T09:50:01.275Z</time>
      </trkpt>
      <trkpt lat="47.80458" lon="2.15815">
        <ele>101</ele>
        <time>2016-12-04T09:50:02.278Z</time>
      </trkpt>
      <trkpt lat="47.80466" lon="2.15804">
        <ele>101</ele>
        <time>2016-12-04T09:50:03.273Z</time>
      </trkpt>
      <trkpt lat="47.80466" lon="2.15804">
        <ele>101</ele>
        <time>2016-12-04T09:50:04.272Z</time>
      </trkpt>
      <trkpt lat="47.80474" lon="2.15795">
        <ele>101</ele>
        <time>2016-12-04T09:50:05.274Z</time>
      </trkpt>
      <trkpt lat="47.80474" lon="2.15795">
        <ele>101</ele>
        <time>2016-12-04T09:50:06.270Z</time>
      </trkpt>
      <trkpt lat="47.80482" lon="2.15784">
        <ele>101</ele>
        <time>2016-12-04T09:50:07.274Z</time>
      </trkpt>
      <trkpt lat="47.80485" lon="2.1578">
        <ele>102</ele>
        <time>2016-12-04T09:50:08.276Z</time>
      </trkpt>
      <trkpt lat="47.80485" lon="2.1578">
        <ele>102</ele>
        <time>2016-12-04T09:50:09.271Z</time>
      </trkpt>
      <trkpt lat="47.80491" lon="2.15767">
        <ele>102</ele>
        <time>2016-12-04T09:50:10.277Z</time>
      </trkpt>
      <trkpt lat="47.80491" lon="2.15767">
        <ele>102</ele>
        <time>2016-12-04T09:50:11.270Z</time>
      </trkpt>
      <trkpt lat="47.80495" lon="2.15752">
        <ele>102</ele>
        <time>2016-12-04T09:50:12.246Z</time>
      </trkpt>
      <trkpt lat="47.80495" lon="2.15752">
        <ele>102</ele>
        <time>2016-12-04T09:50:13.246Z</time>
      </trkpt>
      <trkpt lat="47.80498" lon="2.15737">
        <ele>101</ele>
        <time>2016-12-04T09:50:14.276Z</time>
      </trkpt>
      <trkpt lat="47.80498" lon="2.15737">
        <ele>101</ele>
        <time>2016-12-04T09:50:15.246Z</time>
      </trkpt>
      <trkpt lat="47.805" lon="2.15723">
        <ele>100</ele>
        <time>2016-12-04T09:50:16.269Z</time>
      </trkpt>
      <trkpt lat="47.805" lon="2.15716">
        <ele>100</ele>
        <time>2016-12-04T09:50:17.278Z</time>
      </trkpt>
      <trkpt lat="47.805" lon="2.15716">
        <ele>100</ele>
        <time>2016-12-04T09:50:18.244Z</time>
      </trkpt>
      <trkpt lat="47.805" lon="2.15702">
        <ele>100</ele>
        <time>2016-12-04T09:50:19.250Z</time>
      </trkpt>
      <trkpt lat="47.80501" lon="2.15695">
        <ele>99</ele>
        <time>2016-12-04T09:50:20.279Z</time>
      </trkpt>
      <trkpt lat="47.80501" lon="2.15695">
        <ele>99</ele>
        <time>2016-12-04T09:50:21.271Z</time>
      </trkpt>
      <trkpt lat="47.80505" lon="2.15684">
        <ele>98</ele>
        <time>2016-12-04T09:50:22.277Z</time>
      </trkpt>
      <trkpt lat="47.80505" lon="2.15684">
        <ele>98</ele>
        <time>2016-12-04T09:50:23.269Z</time>
      </trkpt>
      <trkpt lat="47.80512" lon="2.15676">
        <ele>99</ele>
        <time>2016-12-04T09:50:24.278Z</time>
      </trkpt>
      <trkpt lat="47.80512" lon="2.15676">
        <ele>99</ele>
        <time>2016-12-04T09:50:25.271Z</time>
      </trkpt>
      <trkpt lat="47.80515" lon="2.15663">
        <ele>100</ele>
        <time>2016-12-04T09:50:26.278Z</time>
      </trkpt>
      <trkpt lat="47.80515" lon="2.15663">
        <ele>100</ele>
        <time>2016-12-04T09:50:27.272Z</time>
      </trkpt>
      <trkpt lat="47.80513" lon="2.15649">
        <ele>100</ele>
        <time>2016-12-04T09:50:28.274Z</time>
      </trkpt>
      <trkpt lat="47.80512" lon="2.15642">
        <ele>100</ele>
        <time>2016-12-04T09:50:29.273Z</time>
      </trkpt>
      <trkpt lat="47.80512" lon="2.15642">
        <ele>100</ele>
        <time>2016-12-04T09:50:30.271Z</time>
      </trkpt>
      <trkpt lat="47.8051" lon="2.15626">
        <ele>100</ele>
        <time>2016-12-04T09:50:31.276Z</time>
      </trkpt>
      <trkpt lat="47.8051" lon="2.15626">
        <ele>100</ele>
        <time>2016-12-04T09:50:32.270Z</time>
      </trkpt>
      <trkpt lat="47.80507" lon="2.15608">
        <ele>100</ele>
        <time>2016-12-04T09:50:33.246Z</time>
      </trkpt>
      <trkpt lat="47.80506" lon="2.15599">
        <ele>100</ele>
        <time>2016-12-04T09:50:34.276Z</time>
      </trkpt>
      <trkpt lat="47.80506" lon="2.15599">
        <ele>100</ele>
        <time>2016-12-04T09:50:35.273Z</time>
      </trkpt>
      <trkpt lat="47.80503" lon="2.1558">
        <ele>99</ele>
        <time>2016-12-04T09:50:36.246Z</time>
      </trkpt>
      <trkpt lat="47.80503" lon="2.1558">
        <ele>99</ele>
        <time>2016-12-04T09:50:37.276Z</time>
      </trkpt>
      <trkpt lat="47.805" lon="2.15562">
        <ele>99</ele>
        <time>2016-12-04T09:50:38.276Z</time>
      </trkpt>
      <trkpt lat="47.805" lon="2.15562">
        <ele>99</ele>
        <time>2016-12-04T09:50:39.271Z</time>
      </trkpt>
      <trkpt lat="47.80498" lon="2.15544">
        <ele>99</ele>
        <time>2016-12-04T09:50:40.276Z</time>
      </trkpt>
      <trkpt lat="47.80498" lon="2.15544">
        <ele>99</ele>
        <time>2016-12-04T09:50:41.271Z</time>
      </trkpt>
      <trkpt lat="47.80496" lon="2.15525">
        <ele>99</ele>
        <time>2016-12-04T09:50:42.274Z</time>
      </trkpt>
      <trkpt lat="47.80496" lon="2.15525">
        <ele>99</ele>
        <time>2016-12-04T09:50:43.274Z</time>
      </trkpt>
      <trkpt lat="47.80493" lon="2.15507">
        <ele>99</ele>
        <time>2016-12-04T09:50:44.273Z</time>
      </trkpt>
      <trkpt lat="47.80491" lon="2.15498">
        <ele>99</ele>
        <time>2016-12-04T09:50:45.279Z</time>
      </trkpt>
      <trkpt lat="47.8049" lon="2.15489">
        <ele>99</ele>
        <time>2016-12-04T09:50:46.276Z</time>
      </trkpt>
      <trkpt lat="47.8049" lon="2.15489">
        <ele>99</ele>
        <time>2016-12-04T09:50:47.272Z</time>
      </trkpt>
      <trkpt lat="47.80487" lon="2.1547">
        <ele>99</ele>
        <time>2016-12-04T09:50:48.275Z</time>
      </trkpt>
      <trkpt lat="47.80487" lon="2.1547">
        <ele>99</ele>
        <time>2016-12-04T09:50:49.270Z</time>
      </trkpt>
      <trkpt lat="47.80485" lon="2.15452">
        <ele>99</ele>
        <time>2016-12-04T09:50:50.276Z</time>
      </trkpt>
      <trkpt lat="47.80485" lon="2.15452">
        <ele>99</ele>
        <time>2016-12-04T09:50:51.271Z</time>
      </trkpt>
      <trkpt lat="47.80482" lon="2.15433">
        <ele>99</ele>
        <time>2016-12-04T09:50:52.277Z</time>
      </trkpt>
      <trkpt lat="47.80482" lon="2.15433">
        <ele>99</ele>
        <time>2016-12-04T09:50:53.272Z</time>
      </trkpt>
      <trkpt lat="47.8048" lon="2.15414">
        <ele>99</ele>
        <time>2016-12-04T09:50:54.276Z</time>
      </trkpt>
      <trkpt lat="47.8048" lon="2.15414">
        <ele>99</ele>
        <time>2016-12-04T09:50:55.271Z</time>
      </trkpt>
      <trkpt lat="47.8048" lon="2.15395">
        <ele>99</ele>
        <time>2016-12-04T09:50:56.279Z</time>
      </trkpt>
      <trkpt lat="47.80479" lon="2.15386">
        <ele>98</ele>
        <time>2016-12-04T09:50:57.277Z</time>
      </trkpt>
      <trkpt lat="47.80479" lon="2.15386">
        <ele>98</ele>
        <time>2016-12-04T09:50:58.275Z</time>
      </trkpt>
      <trkpt lat="47.8048" lon="2.15367">
        <ele>99</ele>
        <time>2016-12-04T09:50:59.273Z</time>
      </trkpt>
      <trkpt lat="47.8048" lon="2.15358">
        <ele>99</ele>
        <time>2016-12-04T09:51:00.276Z</time>
      </trkpt>
      <trkpt lat="47.8048" lon="2.15358">
        <ele>99</ele>
        <time>2016-12-04T09:51:01.272Z</time>
      </trkpt>
      <trkpt lat="47.8048" lon="2.15339">
        <ele>98</ele>
        <time>2016-12-04T09:51:02.278Z</time>
      </trkpt>
      <trkpt lat="47.8048" lon="2.15339">
        <ele>98</ele>
        <time>2016-12-04T09:51:03.272Z</time>
      </trkpt>
      <trkpt lat="47.80481" lon="2.1532">
        <ele>98</ele>
        <time>2016-12-04T09:51:04.281Z</time>
      </trkpt>
      <trkpt lat="47.80481" lon="2.1531">
        <ele>98</ele>
        <time>2016-12-04T09:51:05.278Z</time>
      </trkpt>
      <trkpt lat="47.80481" lon="2.15301">
        <ele>98</ele>
        <time>2016-12-04T09:51:06.247Z</time>
      </trkpt>
      <trkpt lat="47.80482" lon="2.15291">
        <ele>98</ele>
        <time>2016-12-04T09:51:07.279Z</time>
      </trkpt>
      <trkpt lat="47.80482" lon="2.15291">
        <ele>98</ele>
        <time>2016-12-04T09:51:08.273Z</time>
      </trkpt>
      <trkpt lat="47.80483" lon="2.15272">
        <ele>98</ele>
        <time>2016-12-04T09:51:09.251Z</time>
      </trkpt>
      <trkpt lat="47.80483" lon="2.15272">
        <ele>98</ele>
        <time>2016-12-04T09:51:10.246Z</time>
      </trkpt>
      <trkpt lat="47.80484" lon="2.15252">
        <ele>98</ele>
        <time>2016-12-04T09:51:11.278Z</time>
      </trkpt>
      <trkpt lat="47.80484" lon="2.15252">
        <ele>98</ele>
        <time>2016-12-04T09:51:12.273Z</time>
      </trkpt>
      <trkpt lat="47.80484" lon="2.15233">
        <ele>98</ele>
        <time>2016-12-04T09:51:13.278Z</time>
      </trkpt>
      <trkpt lat="47.80484" lon="2.15233">
        <ele>98</ele>
        <time>2016-12-04T09:51:14.268Z</time>
      </trkpt>
      <trkpt lat="47.80485" lon="2.15214">
        <ele>98</ele>
        <time>2016-12-04T09:51:15.273Z</time>
      </trkpt>
      <trkpt lat="47.80485" lon="2.15214">
        <ele>98</ele>
        <time>2016-12-04T09:51:16.270Z</time>
      </trkpt>
      <trkpt lat="47.80486" lon="2.15195">
        <ele>98</ele>
        <time>2016-12-04T09:51:17.270Z</time>
      </trkpt>
      <trkpt lat="47.80486" lon="2.15195">
        <ele>98</ele>
        <time>2016-12-04T09:51:18.277Z</time>
      </trkpt>
      <trkpt lat="47.80487" lon="2.15175">
        <ele>98</ele>
        <time>2016-12-04T09:51:19.243Z</time>
      </trkpt>
      <trkpt lat="47.80487" lon="2.15165">
        <ele>98</ele>
        <time>2016-12-04T09:51:20.280Z</time>
      </trkpt>
      <trkpt lat="47.80487" lon="2.15165">
        <ele>98</ele>
        <time>2016-12-04T09:51:21.271Z</time>
      </trkpt>
      <trkpt lat="47.80487" lon="2.15146">
        <ele>98</ele>
        <time>2016-12-04T09:51:22.278Z</time>
      </trkpt>
      <trkpt lat="47.80487" lon="2.15146">
        <ele>98</ele>
        <time>2016-12-04T09:51:23.273Z</time>
      </trkpt>
      <trkpt lat="47.80488" lon="2.15128">
        <ele>98</ele>
        <time>2016-12-04T09:51:24.274Z</time>
      </trkpt>
      <trkpt lat="47.80488" lon="2.15128">
        <ele>98</ele>
        <time>2016-12-04T09:51:25.275Z</time>
      </trkpt>
      <trkpt lat="47.80489" lon="2.15109">
        <ele>98</ele>
        <time>2016-12-04T09:51:26.278Z</time>
      </trkpt>
      <trkpt lat="47.80489" lon="2.15109">
        <ele>98</ele>
        <time>2016-12-04T09:51:27.271Z</time>
      </trkpt>
      <trkpt lat="47.80489" lon="2.15089">
        <ele>98</ele>
        <time>2016-12-04T09:51:28.278Z</time>
      </trkpt>
      <trkpt lat="47.80489" lon="2.15089">
        <ele>98</ele>
        <time>2016-12-04T09:51:29.272Z</time>
      </trkpt>
      <trkpt lat="47.8049" lon="2.1507">
        <ele>98</ele>
        <time>2016-12-04T09:51:30.277Z</time>
      </trkpt>
      <trkpt lat="47.8049" lon="2.1507">
        <ele>98</ele>
        <time>2016-12-04T09:51:31.271Z</time>
      </trkpt>
      <trkpt lat="47.80491" lon="2.15051">
        <ele>98</ele>
        <time>2016-12-04T09:51:32.276Z</time>
      </trkpt>
      <trkpt lat="47.80491" lon="2.15051">
        <ele>98</ele>
        <time>2016-12-04T09:51:33.275Z</time>
      </trkpt>
      <trkpt lat="47.80492" lon="2.15032">
        <ele>98</ele>
        <time>2016-12-04T09:51:34.269Z</time>
      </trkpt>
      <trkpt lat="47.80492" lon="2.15022">
        <ele>98</ele>
        <time>2016-12-04T09:51:35.276Z</time>
      </trkpt>
      <trkpt lat="47.80492" lon="2.15022">
        <ele>98</ele>
        <time>2016-12-04T09:51:36.272Z</time>
      </trkpt>
      <trkpt lat="47.80493" lon="2.15003">
        <ele>98</ele>
        <time>2016-12-04T09:51:37.278Z</time>
      </trkpt>
      <trkpt lat="47.80493" lon="2.14993">
        <ele>98</ele>
        <time>2016-12-04T09:51:38.278Z</time>
      </trkpt>
      <trkpt lat="47.80493" lon="2.14993">
        <ele>98</ele>
        <time>2016-12-04T09:51:39.272Z</time>
      </trkpt>
      <trkpt lat="47.80494" lon="2.14974">
        <ele>98</ele>
        <time>2016-12-04T09:51:40.278Z</time>
      </trkpt>
      <trkpt lat="47.80494" lon="2.14974">
        <ele>98</ele>
        <time>2016-12-04T09:51:41.271Z</time>
      </trkpt>
      <trkpt lat="47.80495" lon="2.14955">
        <ele>98</ele>
        <time>2016-12-04T09:51:42.275Z</time>
      </trkpt>
      <trkpt lat="47.80495" lon="2.14955">
        <ele>98</ele>
        <time>2016-12-04T09:51:43.279Z</time>
      </trkpt>
      <trkpt lat="47.80495" lon="2.14938">
        <ele>98</ele>
        <time>2016-12-04T09:51:44.248Z</time>
      </trkpt>
      <trkpt lat="47.80496" lon="2.1493">
        <ele>98</ele>
        <time>2016-12-04T09:51:45.279Z</time>
      </trkpt>
      <trkpt lat="47.80496" lon="2.14921">
        <ele>98</ele>
        <time>2016-12-04T09:51:46.277Z</time>
      </trkpt>
      <trkpt lat="47.80496" lon="2.14921">
        <ele>98</ele>
        <time>2016-12-04T09:51:47.272Z</time>
      </trkpt>
      <trkpt lat="47.80497" lon="2.14902">
        <ele>98</ele>
        <time>2016-12-04T09:51:48.278Z</time>
      </trkpt>
      <trkpt lat="47.80497" lon="2.14902">
        <ele>98</ele>
        <time>2016-12-04T09:51:49.274Z</time>
      </trkpt>
      <trkpt lat="47.80498" lon="2.14883">
        <ele>98</ele>
        <time>2016-12-04T09:51:50.277Z</time>
      </trkpt>
      <trkpt lat="47.80498" lon="2.14873">
        <ele>98</ele>
        <time>2016-12-04T09:51:51.278Z</time>
      </trkpt>
      <trkpt lat="47.80498" lon="2.14873">
        <ele>98</ele>
        <time>2016-12-04T09:51:52.275Z</time>
      </trkpt>
      <trkpt lat="47.805" lon="2.14854">
        <ele>98</ele>
        <time>2016-12-04T09:51:53.244Z</time>
      </trkpt>
      <trkpt lat="47.805" lon="2.14854">
        <ele>98</ele>
        <time>2016-12-04T09:51:54.267Z</time>
      </trkpt>
      <trkpt lat="47.80501" lon="2.14835">
        <ele>98</ele>
        <time>2016-12-04T09:51:55.257Z</time>
      </trkpt>
      <trkpt lat="47.80502" lon="2.14826">
        <ele>98</ele>
        <time>2016-12-04T09:51:56.246Z</time>
      </trkpt>
      <trkpt lat="47.80502" lon="2.14826">
        <ele>98</ele>
        <time>2016-12-04T09:51:57.274Z</time>
      </trkpt>
      <trkpt lat="47.80503" lon="2.14807">
        <ele>98</ele>
        <time>2016-12-04T09:51:58.274Z</time>
      </trkpt>
      <trkpt lat="47.80503" lon="2.14807">
        <ele>98</ele>
        <time>2016-12-04T09:51:59.271Z</time>
      </trkpt>
      <trkpt lat="47.80504" lon="2.1479">
        <ele>98</ele>
        <time>2016-12-04T09:52:00.280Z</time>
      </trkpt>
      <trkpt lat="47.80504" lon="2.1479">
        <ele>98</ele>
        <time>2016-12-04T09:52:01.272Z</time>
      </trkpt>
      <trkpt lat="47.80506" lon="2.14772">
        <ele>98</ele>
        <time>2016-12-04T09:52:02.276Z</time>
      </trkpt>
      <trkpt lat="47.80506" lon="2.14772">
        <ele>98</ele>
        <time>2016-12-04T09:52:03.272Z</time>
      </trkpt>
      <trkpt lat="47.80507" lon="2.14754">
        <ele>98</ele>
        <time>2016-12-04T09:52:04.257Z</time>
      </trkpt>
      <trkpt lat="47.80508" lon="2.14745">
        <ele>98</ele>
        <time>2016-12-04T09:52:05.250Z</time>
      </trkpt>
      <trkpt lat="47.80508" lon="2.14745">
        <ele>98</ele>
        <time>2016-12-04T09:52:06.279Z</time>
      </trkpt>
      <trkpt lat="47.8051" lon="2.14727">
        <ele>97</ele>
        <time>2016-12-04T09:52:07.277Z</time>
      </trkpt>
      <trkpt lat="47.80511" lon="2.14718">
        <ele>97</ele>
        <time>2016-12-04T09:52:08.278Z</time>
      </trkpt>
      <trkpt lat="47.80511" lon="2.14718">
        <ele>97</ele>
        <time>2016-12-04T09:52:09.270Z</time>
      </trkpt>
      <trkpt lat="47.80512" lon="2.147">
        <ele>97</ele>
        <time>2016-12-04T09:52:10.276Z</time>
      </trkpt>
      <trkpt lat="47.80512" lon="2.147">
        <ele>97</ele>
        <time>2016-12-04T09:52:11.272Z</time>
      </trkpt>
      <trkpt lat="47.80514" lon="2.14681">
        <ele>97</ele>
        <time>2016-12-04T09:52:12.277Z</time>
      </trkpt>
      <trkpt lat="47.80514" lon="2.14681">
        <ele>97</ele>
        <time>2016-12-04T09:52:13.261Z</time>
      </trkpt>
      <trkpt lat="47.80516" lon="2.14663">
        <ele>97</ele>
        <time>2016-12-04T09:52:14.248Z</time>
      </trkpt>
      <trkpt lat="47.80517" lon="2.14653">
        <ele>97</ele>
        <time>2016-12-04T09:52:15.278Z</time>
      </trkpt>
      <trkpt lat="47.80517" lon="2.14653">
        <ele>97</ele>
        <time>2016-12-04T09:52:16.246Z</time>
      </trkpt>
      <trkpt lat="47.80519" lon="2.14634">
        <ele>97</ele>
        <time>2016-12-04T09:52:17.249Z</time>
      </trkpt>
      <trkpt lat="47.8052" lon="2.14625">
        <ele>97</ele>
        <time>2016-12-04T09:52:18.257Z</time>
      </trkpt>
      <trkpt lat="47.8052" lon="2.14625">
        <ele>97</ele>
        <time>2016-12-04T09:52:19.247Z</time>
      </trkpt>
      <trkpt lat="47.80522" lon="2.14606">
        <ele>97</ele>
        <time>2016-12-04T09:52:20.281Z</time>
      </trkpt>
      <trkpt lat="47.80522" lon="2.14606">
        <ele>97</ele>
        <time>2016-12-04T09:52:21.271Z</time>
      </trkpt>
      <trkpt lat="47.80524" lon="2.14586">
        <ele>96</ele>
        <time>2016-12-04T09:52:22.278Z</time>
      </trkpt>
      <trkpt lat="47.80524" lon="2.14586">
        <ele>96</ele>
        <time>2016-12-04T09:52:23.271Z</time>
      </trkpt>
      <trkpt lat="47.80525" lon="2.14568">
        <ele>96</ele>
        <time>2016-12-04T09:52:24.246Z</time>
      </trkpt>
      <trkpt lat="47.80527" lon="2.14558">
        <ele>96</ele>
        <time>2016-12-04T09:52:25.278Z</time>
      </trkpt>
      <trkpt lat="47.80527" lon="2.14558">
        <ele>96</ele>
        <time>2016-12-04T09:52:26.275Z</time>
      </trkpt>
      <trkpt lat="47.80528" lon="2.1454">
        <ele>96</ele>
        <time>2016-12-04T09:52:27.278Z</time>
      </trkpt>
      <trkpt lat="47.80529" lon="2.1453">
        <ele>96</ele>
        <time>2016-12-04T09:52:28.276Z</time>
      </trkpt>
      <trkpt lat="47.80529" lon="2.1453">
        <ele>96</ele>
        <time>2016-12-04T09:52:29.273Z</time>
      </trkpt>
      <trkpt lat="47.80532" lon="2.14512">
        <ele>96</ele>
        <time>2016-12-04T09:52:30.279Z</time>
      </trkpt>
      <trkpt lat="47.80532" lon="2.14512">
        <ele>96</ele>
        <time>2016-12-04T09:52:31.271Z</time>
      </trkpt>
      <trkpt lat="47.80534" lon="2.14493">
        <ele>96</ele>
        <time>2016-12-04T09:52:32.279Z</time>
      </trkpt>
      <trkpt lat="47.80534" lon="2.14493">
        <ele>96</ele>
        <time>2016-12-04T09:52:33.272Z</time>
      </trkpt>
      <trkpt lat="47.80536" lon="2.14474">
        <ele>97</ele>
        <time>2016-12-04T09:52:34.252Z</time>
      </trkpt>
      <trkpt lat="47.80537" lon="2.14465">
        <ele>96</ele>
        <time>2016-12-04T09:52:35.256Z</time>
      </trkpt>
      <trkpt lat="47.80537" lon="2.14465">
        <ele>96</ele>
        <time>2016-12-04T09:52:36.247Z</time>
      </trkpt>
      <trkpt lat="47.80539" lon="2.14446">
        <ele>96</ele>
        <time>2016-12-04T09:52:37.278Z</time>
      </trkpt>
      <trkpt lat="47.8054" lon="2.14436">
        <ele>96</ele>
        <time>2016-12-04T09:52:38.278Z</time>
      </trkpt>
      <trkpt lat="47.8054" lon="2.14436">
        <ele>96</ele>
        <time>2016-12-04T09:52:39.271Z</time>
      </trkpt>
      <trkpt lat="47.80543" lon="2.14417">
        <ele>96</ele>
        <time>2016-12-04T09:52:40.278Z</time>
      </trkpt>
      <trkpt lat="47.80543" lon="2.14417">
        <ele>96</ele>
        <time>2016-12-04T09:52:41.271Z</time>
      </trkpt>
      <trkpt lat="47.80545" lon="2.14398">
        <ele>96</ele>
        <time>2016-12-04T09:52:42.275Z</time>
      </trkpt>
      <trkpt lat="47.80545" lon="2.14398">
        <ele>96</ele>
        <time>2016-12-04T09:52:43.270Z</time>
      </trkpt>
      <trkpt lat="47.80547" lon="2.14379">
        <ele>96</ele>
        <time>2016-12-04T09:52:44.280Z</time>
      </trkpt>
      <trkpt lat="47.80547" lon="2.14379">
        <ele>96</ele>
        <time>2016-12-04T09:52:45.248Z</time>
      </trkpt>
      <trkpt lat="47.80548" lon="2.14362">
        <ele>95</ele>
        <time>2016-12-04T09:52:46.277Z</time>
      </trkpt>
      <trkpt lat="47.80548" lon="2.14362">
        <ele>95</ele>
        <time>2016-12-04T09:52:47.273Z</time>
      </trkpt>
      <trkpt lat="47.80549" lon="2.14346">
        <ele>95</ele>
        <time>2016-12-04T09:52:48.278Z</time>
      </trkpt>
      <trkpt lat="47.80549" lon="2.14346">
        <ele>95</ele>
        <time>2016-12-04T09:52:49.271Z</time>
      </trkpt>
      <trkpt lat="47.8055" lon="2.14331">
        <ele>95</ele>
        <time>2016-12-04T09:52:50.262Z</time>
      </trkpt>
      <trkpt lat="47.8055" lon="2.14331">
        <ele>95</ele>
        <time>2016-12-04T09:52:51.251Z</time>
      </trkpt>
      <trkpt lat="47.8055" lon="2.14319">
        <ele>95</ele>
        <time>2016-12-04T09:52:52.279Z</time>
      </trkpt>
      <trkpt lat="47.8055" lon="2.14319">
        <ele>95</ele>
        <time>2016-12-04T09:52:53.273Z</time>
      </trkpt>
      <trkpt lat="47.8055" lon="2.14307">
        <ele>95</ele>
        <time>2016-12-04T09:52:54.274Z</time>
      </trkpt>
      <trkpt lat="47.80548" lon="2.14303">
        <ele>95</ele>
        <time>2016-12-04T09:52:55.276Z</time>
      </trkpt>
      <trkpt lat="47.80545" lon="2.14299">
        <ele>95</ele>
        <time>2016-12-04T09:52:56.280Z</time>
      </trkpt>
      <trkpt lat="47.80545" lon="2.14299">
        <ele>95</ele>
        <time>2016-12-04T09:52:57.270Z</time>
      </trkpt>
      <trkpt lat="47.80539" lon="2.14293">
        <ele>95</ele>
        <time>2016-12-04T09:52:58.278Z</time>
      </trkpt>
      <trkpt lat="47.80539" lon="2.14293">
        <ele>95</ele>
        <time>2016-12-04T09:52:59.273Z</time>
      </trkpt>
      <trkpt lat="47.80532" lon="2.14287">
        <ele>95</ele>
        <time>2016-12-04T09:53:00.276Z</time>
      </trkpt>
      <trkpt lat="47.80532" lon="2.14287">
        <ele>95</ele>
        <time>2016-12-04T09:53:01.273Z</time>
      </trkpt>
      <trkpt lat="47.80526" lon="2.1428">
        <ele>95</ele>
        <time>2016-12-04T09:53:02.279Z</time>
      </trkpt>
      <trkpt lat="47.80526" lon="2.1428">
        <ele>95</ele>
        <time>2016-12-04T09:53:03.272Z</time>
      </trkpt>
      <trkpt lat="47.80519" lon="2.14273">
        <ele>95</ele>
        <time>2016-12-04T09:53:04.271Z</time>
      </trkpt>
      <trkpt lat="47.80515" lon="2.1427">
        <ele>95</ele>
        <time>2016-12-04T09:53:05.278Z</time>
      </trkpt>
      <trkpt lat="47.80515" lon="2.1427">
        <ele>95</ele>
        <time>2016-12-04T09:53:06.272Z</time>
      </trkpt>
      <trkpt lat="47.80507" lon="2.14263">
        <ele>95</ele>
        <time>2016-12-04T09:53:07.278Z</time>
      </trkpt>
      <trkpt lat="47.80503" lon="2.14259">
        <ele>95</ele>
        <time>2016-12-04T09:53:08.279Z</time>
      </trkpt>
      <trkpt lat="47.80503" lon="2.14259">
        <ele>95</ele>
        <time>2016-12-04T09:53:09.272Z</time>
      </trkpt>
      <trkpt lat="47.80496" lon="2.14251">
        <ele>95</ele>
        <time>2016-12-04T09:53:10.281Z</time>
      </trkpt>
      <trkpt lat="47.80492" lon="2.14248">
        <ele>95</ele>
        <time>2016-12-04T09:53:11.278Z</time>
      </trkpt>
      <trkpt lat="47.80492" lon="2.14248">
        <ele>95</ele>
        <time>2016-12-04T09:53:12.273Z</time>
      </trkpt>
      <trkpt lat="47.80484" lon="2.1424">
        <ele>95</ele>
        <time>2016-12-04T09:53:13.277Z</time>
      </trkpt>
      <trkpt lat="47.8048" lon="2.14236">
        <ele>95</ele>
        <time>2016-12-04T09:53:14.282Z</time>
      </trkpt>
      <trkpt lat="47.8048" lon="2.14236">
        <ele>95</ele>
        <time>2016-12-04T09:53:15.273Z</time>
      </trkpt>
      <trkpt lat="47.80472" lon="2.14228">
        <ele>95</ele>
        <time>2016-12-04T09:53:16.263Z</time>
      </trkpt>
      <trkpt lat="47.80468" lon="2.14224">
        <ele>96</ele>
        <time>2016-12-04T09:53:17.245Z</time>
      </trkpt>
      <trkpt lat="47.80468" lon="2.14224">
        <ele>96</ele>
        <time>2016-12-04T09:53:18.251Z</time>
      </trkpt>
      <trkpt lat="47.8046" lon="2.14216">
        <ele>96</ele>
        <time>2016-12-04T09:53:19.257Z</time>
      </trkpt>
      <trkpt lat="47.80456" lon="2.14213">
        <ele>96</ele>
        <time>2016-12-04T09:53:20.248Z</time>
      </trkpt>
      <trkpt lat="47.80456" lon="2.14213">
        <ele>96</ele>
        <time>2016-12-04T09:53:21.277Z</time>
      </trkpt>
      <trkpt lat="47.80449" lon="2.14205">
        <ele>96</ele>
        <time>2016-12-04T09:53:22.253Z</time>
      </trkpt>
      <trkpt lat="47.80449" lon="2.14205">
        <ele>96</ele>
        <time>2016-12-04T09:53:23.282Z</time>
      </trkpt>
      <trkpt lat="47.80441" lon="2.14198">
        <ele>96</ele>
        <time>2016-12-04T09:53:24.275Z</time>
      </trkpt>
      <trkpt lat="47.80438" lon="2.14194">
        <ele>96</ele>
        <time>2016-12-04T09:53:25.276Z</time>
      </trkpt>
      <trkpt lat="47.80434" lon="2.14191">
        <ele>96</ele>
        <time>2016-12-04T09:53:26.279Z</time>
      </trkpt>
      <trkpt lat="47.80434" lon="2.14191">
        <ele>96</ele>
        <time>2016-12-04T09:53:27.274Z</time>
      </trkpt>
      <trkpt lat="47.80427" lon="2.14185">
        <ele>95</ele>
        <time>2016-12-04T09:53:28.279Z</time>
      </trkpt>
      <trkpt lat="47.80427" lon="2.14185">
        <ele>95</ele>
        <time>2016-12-04T09:53:29.273Z</time>
      </trkpt>
      <trkpt lat="47.80421" lon="2.14179">
        <ele>95</ele>
        <time>2016-12-04T09:53:30.252Z</time>
      </trkpt>
      <trkpt lat="47.80421" lon="2.14179">
        <ele>95</ele>
        <time>2016-12-04T09:53:31.279Z</time>
      </trkpt>
      <trkpt lat="47.80415" lon="2.14172">
        <ele>95</ele>
        <time>2016-12-04T09:53:32.278Z</time>
      </trkpt>
      <trkpt lat="47.80415" lon="2.14172">
        <ele>95</ele>
        <time>2016-12-04T09:53:33.273Z</time>
      </trkpt>
      <trkpt lat="47.80409" lon="2.14166">
        <ele>95</ele>
        <time>2016-12-04T09:53:34.278Z</time>
      </trkpt>
      <trkpt lat="47.80406" lon="2.14164">
        <ele>96</ele>
        <time>2016-12-04T09:53:35.274Z</time>
      </trkpt>
      <trkpt lat="47.80403" lon="2.14161">
        <ele>96</ele>
        <time>2016-12-04T09:53:36.277Z</time>
      </trkpt>
      <trkpt lat="47.804" lon="2.14159">
        <ele>96</ele>
        <time>2016-12-04T09:53:37.279Z</time>
      </trkpt>
      <trkpt lat="47.804" lon="2.14159">
        <ele>96</ele>
        <time>2016-12-04T09:53:38.277Z</time>
      </trkpt>
      <trkpt lat="47.80394" lon="2.14152">
        <ele>96</ele>
        <time>2016-12-04T09:53:39.278Z</time>
      </trkpt>
      <trkpt lat="47.80391" lon="2.1415">
        <ele>96</ele>
        <time>2016-12-04T09:53:40.280Z</time>
      </trkpt>
      <trkpt lat="47.80391" lon="2.1415">
        <ele>96</ele>
        <time>2016-12-04T09:53:41.272Z</time>
      </trkpt>
      <trkpt lat="47.80384" lon="2.14145">
        <ele>96</ele>
        <time>2016-12-04T09:53:42.277Z</time>
      </trkpt>
      <trkpt lat="47.80384" lon="2.14145">
        <ele>96</ele>
        <time>2016-12-04T09:53:43.272Z</time>
      </trkpt>
      <trkpt lat="47.80378" lon="2.1414">
        <ele>95</ele>
        <time>2016-12-04T09:53:44.264Z</time>
      </trkpt>
      <trkpt lat="47.80374" lon="2.14138">
        <ele>95</ele>
        <time>2016-12-04T09:53:45.251Z</time>
      </trkpt>
      <trkpt lat="47.80371" lon="2.14136">
        <ele>95</ele>
        <time>2016-12-04T09:53:46.280Z</time>
      </trkpt>
      <trkpt lat="47.80371" lon="2.14136">
        <ele>95</ele>
        <time>2016-12-04T09:53:47.277Z</time>
      </trkpt>
      <trkpt lat="47.80363" lon="2.14131">
        <ele>95</ele>
        <time>2016-12-04T09:53:48.276Z</time>
      </trkpt>
      <trkpt lat="47.80363" lon="2.14131">
        <ele>95</ele>
        <time>2016-12-04T09:53:49.282Z</time>
      </trkpt>
      <trkpt lat="47.80356" lon="2.14126">
        <ele>96</ele>
        <time>2016-12-04T09:53:50.277Z</time>
      </trkpt>
      <trkpt lat="47.80356" lon="2.14126">
        <ele>96</ele>
        <time>2016-12-04T09:53:51.276Z</time>
      </trkpt>
      <trkpt lat="47.80349" lon="2.1412">
        <ele>96</ele>
        <time>2016-12-04T09:53:52.279Z</time>
      </trkpt>
      <trkpt lat="47.80349" lon="2.1412">
        <ele>96</ele>
        <time>2016-12-04T09:53:53.276Z</time>
      </trkpt>
      <trkpt lat="47.80343" lon="2.14116">
        <ele>96</ele>
        <time>2016-12-04T09:53:54.270Z</time>
      </trkpt>
      <trkpt lat="47.8034" lon="2.14113">
        <ele>97</ele>
        <time>2016-12-04T09:53:55.253Z</time>
      </trkpt>
      <trkpt lat="47.80337" lon="2.1411">
        <ele>97</ele>
        <time>2016-12-04T09:53:56.281Z</time>
      </trkpt>
      <trkpt lat="47.80337" lon="2.1411">
        <ele>97</ele>
        <time>2016-12-04T09:53:57.271Z</time>
      </trkpt>
      <trkpt lat="47.80331" lon="2.14107">
        <ele>99</ele>
        <time>2016-12-04T09:53:58.279Z</time>
      </trkpt>
      <trkpt lat="47.80331" lon="2.14107">
        <ele>99</ele>
        <time>2016-12-04T09:53:59.273Z</time>
      </trkpt>
      <trkpt lat="47.80325" lon="2.14102">
        <ele>99</ele>
        <time>2016-12-04T09:54:00.280Z</time>
      </trkpt>
      <trkpt lat="47.80325" lon="2.14102">
        <ele>99</ele>
        <time>2016-12-04T09:54:01.274Z</time>
      </trkpt>
      <trkpt lat="47.80317" lon="2.14098">
        <ele>99</ele>
        <time>2016-12-04T09:54:02.279Z</time>
      </trkpt>
      <trkpt lat="47.80317" lon="2.14098">
        <ele>99</ele>
        <time>2016-12-04T09:54:03.272Z</time>
      </trkpt>
      <trkpt lat="47.8031" lon="2.14093">
        <ele>99</ele>
        <time>2016-12-04T09:54:04.269Z</time>
      </trkpt>
      <trkpt lat="47.80306" lon="2.1409">
        <ele>99</ele>
        <time>2016-12-04T09:54:05.275Z</time>
      </trkpt>
      <trkpt lat="47.80302" lon="2.14088">
        <ele>99</ele>
        <time>2016-12-04T09:54:06.276Z</time>
      </trkpt>
      <trkpt lat="47.80302" lon="2.14088">
        <ele>99</ele>
        <time>2016-12-04T09:54:07.273Z</time>
      </trkpt>
      <trkpt lat="47.80295" lon="2.14084">
        <ele>100</ele>
        <time>2016-12-04T09:54:08.277Z</time>
      </trkpt>
      <trkpt lat="47.80295" lon="2.14084">
        <ele>100</ele>
        <time>2016-12-04T09:54:09.272Z</time>
      </trkpt>
      <trkpt lat="47.80288" lon="2.14079">
        <ele>100</ele>
        <time>2016-12-04T09:54:10.274Z</time>
      </trkpt>
      <trkpt lat="47.80284" lon="2.14077">
        <ele>100</ele>
        <time>2016-12-04T09:54:11.277Z</time>
      </trkpt>
      <trkpt lat="47.80284" lon="2.14077">
        <ele>100</ele>
        <time>2016-12-04T09:54:12.272Z</time>
      </trkpt>
      <trkpt lat="47.80277" lon="2.14072">
        <ele>100</ele>
        <time>2016-12-04T09:54:13.266Z</time>
      </trkpt>
      <trkpt lat="47.80273" lon="2.1407">
        <ele>100</ele>
        <time>2016-12-04T09:54:14.255Z</time>
      </trkpt>
      <trkpt lat="47.80273" lon="2.1407">
        <ele>100</ele>
        <time>2016-12-04T09:54:15.247Z</time>
      </trkpt>
      <trkpt lat="47.80265" lon="2.14072">
        <ele>101</ele>
        <time>2016-12-04T09:54:16.265Z</time>
      </trkpt>
      <trkpt lat="47.80262" lon="2.14076">
        <ele>100</ele>
        <time>2016-12-04T09:54:17.246Z</time>
      </trkpt>
      <trkpt lat="47.80262" lon="2.14076">
        <ele>100</ele>
        <time>2016-12-04T09:54:18.252Z</time>
      </trkpt>
      <trkpt lat="47.80257" lon="2.14086">
        <ele>101</ele>
        <time>2016-12-04T09:54:19.259Z</time>
      </trkpt>
      <trkpt lat="47.80255" lon="2.14091">
        <ele>101</ele>
        <time>2016-12-04T09:54:20.266Z</time>
      </trkpt>
      <trkpt lat="47.80255" lon="2.14091">
        <ele>101</ele>
        <time>2016-12-04T09:54:21.269Z</time>
      </trkpt>
      <trkpt lat="47.80252" lon="2.14103">
        <ele>101</ele>
        <time>2016-12-04T09:54:22.254Z</time>
      </trkpt>
      <trkpt lat="47.80252" lon="2.14103">
        <ele>101</ele>
        <time>2016-12-04T09:54:23.248Z</time>
      </trkpt>
      <trkpt lat="47.80249" lon="2.14116">
        <ele>101</ele>
        <time>2016-12-04T09:54:24.278Z</time>
      </trkpt>
      <trkpt lat="47.80248" lon="2.14122">
        <ele>101</ele>
        <time>2016-12-04T09:54:25.264Z</time>
      </trkpt>
      <trkpt lat="47.80246" lon="2.14128">
        <ele>101</ele>
        <time>2016-12-04T09:54:26.252Z</time>
      </trkpt>
      <trkpt lat="47.80246" lon="2.14128">
        <ele>101</ele>
        <time>2016-12-04T09:54:27.280Z</time>
      </trkpt>
      <trkpt lat="47.80243" lon="2.14141">
        <ele>102</ele>
        <time>2016-12-04T09:54:28.278Z</time>
      </trkpt>
      <trkpt lat="47.80241" lon="2.14148">
        <ele>102</ele>
        <time>2016-12-04T09:54:29.280Z</time>
      </trkpt>
      <trkpt lat="47.80241" lon="2.14148">
        <ele>102</ele>
        <time>2016-12-04T09:54:30.273Z</time>
      </trkpt>
      <trkpt lat="47.8024" lon="2.14161">
        <ele>102</ele>
        <time>2016-12-04T09:54:31.277Z</time>
      </trkpt>
      <trkpt lat="47.8024" lon="2.14168">
        <ele>102</ele>
        <time>2016-12-04T09:54:32.279Z</time>
      </trkpt>
      <trkpt lat="47.8024" lon="2.14168">
        <ele>102</ele>
        <time>2016-12-04T09:54:33.273Z</time>
      </trkpt>
      <trkpt lat="47.80241" lon="2.14181">
        <ele>102</ele>
        <time>2016-12-04T09:54:34.271Z</time>
      </trkpt>
      <trkpt lat="47.80242" lon="2.14187">
        <ele>102</ele>
        <time>2016-12-04T09:54:35.278Z</time>
      </trkpt>
      <trkpt lat="47.80242" lon="2.14193">
        <ele>102</ele>
        <time>2016-12-04T09:54:36.275Z</time>
      </trkpt>
      <trkpt lat="47.80242" lon="2.14193">
        <ele>102</ele>
        <time>2016-12-04T09:54:37.271Z</time>
      </trkpt>
      <trkpt lat="47.80243" lon="2.14205">
        <ele>102</ele>
        <time>2016-12-04T09:54:38.282Z</time>
      </trkpt>
      <trkpt lat="47.80243" lon="2.14205">
        <ele>102</ele>
        <time>2016-12-04T09:54:39.272Z</time>
      </trkpt>
      <trkpt lat="47.80244" lon="2.14217">
        <ele>102</ele>
        <time>2016-12-04T09:54:40.278Z</time>
      </trkpt>
      <trkpt lat="47.80244" lon="2.14217">
        <ele>102</ele>
        <time>2016-12-04T09:54:41.271Z</time>
      </trkpt>
      <trkpt lat="47.80242" lon="2.14229">
        <ele>103</ele>
        <time>2016-12-04T09:54:42.279Z</time>
      </trkpt>
      <trkpt lat="47.80242" lon="2.14229">
        <ele>103</ele>
        <time>2016-12-04T09:54:43.260Z</time>
      </trkpt>
      <trkpt lat="47.80237" lon="2.14239">
        <ele>103</ele>
        <time>2016-12-04T09:54:44.249Z</time>
      </trkpt>
      <trkpt lat="47.80234" lon="2.14243">
        <ele>102</ele>
        <time>2016-12-04T09:54:45.280Z</time>
      </trkpt>
      <trkpt lat="47.8023" lon="2.14246">
        <ele>102</ele>
        <time>2016-12-04T09:54:46.277Z</time>
      </trkpt>
      <trkpt lat="47.80227" lon="2.14247">
        <ele>102</ele>
        <time>2016-12-04T09:54:47.278Z</time>
      </trkpt>
      <trkpt lat="47.80227" lon="2.14247">
        <ele>102</ele>
        <time>2016-12-04T09:54:48.271Z</time>
      </trkpt>
      <trkpt lat="47.80218" lon="2.14248">
        <ele>102</ele>
        <time>2016-12-04T09:54:49.276Z</time>
      </trkpt>
      <trkpt lat="47.80215" lon="2.14247">
        <ele>102</ele>
        <time>2016-12-04T09:54:50.278Z</time>
      </trkpt>
      <trkpt lat="47.80215" lon="2.14247">
        <ele>102</ele>
        <time>2016-12-04T09:54:51.269Z</time>
      </trkpt>
      <trkpt lat="47.80207" lon="2.14246">
        <ele>102</ele>
        <time>2016-12-04T09:54:52.278Z</time>
      </trkpt>
      <trkpt lat="47.80207" lon="2.14246">
        <ele>102</ele>
        <time>2016-12-04T09:54:53.274Z</time>
      </trkpt>
      <trkpt lat="47.802" lon="2.14246">
        <ele>102</ele>
        <time>2016-12-04T09:54:54.270Z</time>
      </trkpt>
      <trkpt lat="47.80197" lon="2.14247">
        <ele>102</ele>
        <time>2016-12-04T09:54:55.276Z</time>
      </trkpt>
      <trkpt lat="47.80194" lon="2.14246">
        <ele>102</ele>
        <time>2016-12-04T09:54:56.279Z</time>
      </trkpt>
      <trkpt lat="47.80194" lon="2.14246">
        <ele>102</ele>
        <time>2016-12-04T09:54:57.270Z</time>
      </trkpt>
      <trkpt lat="47.80189" lon="2.14245">
        <ele>102</ele>
        <time>2016-12-04T09:54:58.279Z</time>
      </trkpt>
      <trkpt lat="47.80189" lon="2.14245">
        <ele>102</ele>
        <time>2016-12-04T09:54:59.269Z</time>
      </trkpt>
      <trkpt lat="47.80185" lon="2.1424">
        <ele>103</ele>
        <time>2016-12-04T09:55:00.254Z</time>
      </trkpt>
      <trkpt lat="47.80185" lon="2.1424">
        <ele>103</ele>
        <time>2016-12-04T09:55:01.281Z</time>
      </trkpt>
      <trkpt lat="47.80179" lon="2.14232">
        <ele>102</ele>
        <time>2016-12-04T09:55:02.280Z</time>
      </trkpt>
      <trkpt lat="47.80179" lon="2.14232">
        <ele>102</ele>
        <time>2016-12-04T09:55:03.276Z</time>
      </trkpt>
      <trkpt lat="47.80172" lon="2.1423">
        <ele>102</ele>
        <time>2016-12-04T09:55:04.272Z</time>
      </trkpt>
      <trkpt lat="47.80172" lon="2.1423">
        <ele>102</ele>
        <time>2016-12-04T09:55:05.274Z</time>
      </trkpt>
      <trkpt lat="47.80163" lon="2.14231">
        <ele>102</ele>
        <time>2016-12-04T09:55:06.279Z</time>
      </trkpt>
      <trkpt lat="47.80158" lon="2.14232">
        <ele>102</ele>
        <time>2016-12-04T09:55:07.276Z</time>
      </trkpt>
      <trkpt lat="47.80153" lon="2.14233">
        <ele>102</ele>
        <time>2016-12-04T09:55:08.279Z</time>
      </trkpt>
      <trkpt lat="47.80153" lon="2.14233">
        <ele>102</ele>
        <time>2016-12-04T09:55:09.271Z</time>
      </trkpt>
      <trkpt lat="47.80144" lon="2.14235">
        <ele>102</ele>
        <time>2016-12-04T09:55:10.277Z</time>
      </trkpt>
      <trkpt lat="47.80144" lon="2.14235">
        <ele>102</ele>
        <time>2016-12-04T09:55:11.273Z</time>
      </trkpt>
      <trkpt lat="47.80133" lon="2.14237">
        <ele>102</ele>
        <time>2016-12-04T09:55:12.273Z</time>
      </trkpt>
      <trkpt lat="47.80128" lon="2.14238">
        <ele>102</ele>
        <time>2016-12-04T09:55:13.279Z</time>
      </trkpt>
      <trkpt lat="47.80128" lon="2.14238">
        <ele>102</ele>
        <time>2016-12-04T09:55:14.273Z</time>
      </trkpt>
      <trkpt lat="47.80118" lon="2.1424">
        <ele>102</ele>
        <time>2016-12-04T09:55:15.278Z</time>
      </trkpt>
      <trkpt lat="47.80118" lon="2.1424">
        <ele>102</ele>
        <time>2016-12-04T09:55:16.268Z</time>
      </trkpt>
      <trkpt lat="47.80108" lon="2.14241">
        <ele>102</ele>
        <time>2016-12-04T09:55:17.247Z</time>
      </trkpt>
      <trkpt lat="47.80104" lon="2.14241">
        <ele>102</ele>
        <time>2016-12-04T09:55:18.254Z</time>
      </trkpt>
      <trkpt lat="47.80099" lon="2.14242">
        <ele>102</ele>
        <time>2016-12-04T09:55:19.261Z</time>
      </trkpt>
      <trkpt lat="47.80099" lon="2.14242">
        <ele>102</ele>
        <time>2016-12-04T09:55:20.250Z</time>
      </trkpt>
      <trkpt lat="47.8009" lon="2.14244">
        <ele>103</ele>
        <time>2016-12-04T09:55:21.281Z</time>
      </trkpt>
      <trkpt lat="47.80086" lon="2.14245">
        <ele>103</ele>
        <time>2016-12-04T09:55:22.279Z</time>
      </trkpt>
      <trkpt lat="47.80086" lon="2.14245">
        <ele>103</ele>
        <time>2016-12-04T09:55:23.273Z</time>
      </trkpt>
      <trkpt lat="47.80078" lon="2.14247">
        <ele>103</ele>
        <time>2016-12-04T09:55:24.270Z</time>
      </trkpt>
      <trkpt lat="47.80075" lon="2.14247">
        <ele>103</ele>
        <time>2016-12-04T09:55:25.276Z</time>
      </trkpt>
      <trkpt lat="47.80072" lon="2.14247">
        <ele>102</ele>
        <time>2016-12-04T09:55:26.280Z</time>
      </trkpt>
      <trkpt lat="47.80072" lon="2.14247">
        <ele>102</ele>
        <time>2016-12-04T09:55:27.276Z</time>
      </trkpt>
      <trkpt lat="47.80068" lon="2.14245">
        <ele>102</ele>
        <time>2016-12-04T09:55:28.280Z</time>
      </trkpt>
      <trkpt lat="47.80068" lon="2.14245">
        <ele>102</ele>
        <time>2016-12-04T09:55:29.276Z</time>
      </trkpt>
      <trkpt lat="47.80068" lon="2.14245">
        <ele>101</ele>
        <time>2016-12-04T09:55:30.280Z</time>
      </trkpt>
      <trkpt lat="47.80068" lon="2.14245">
        <ele>101</ele>
        <time>2016-12-04T09:55:31.248Z</time>
      </trkpt>
    </trkseg>
  </trk>
</gpx>